<?xml version="1.0" encoding="UTF-8" standalone="no" ?>
<gpx xmlns="http://www.topografix.com/GPX/1/1" xmlns:xsi="http://www.w3.org/2001/XMLSchema-instance" xsi:schemaLocation="http://www.topografix.com/GPX/1/1 http://www.topografix.com/GPX/1/1/gpx.xsd" version="1.1" creator="VisuGPX - https://www.visugpx.com">
  <metadata>
    <name>Virades de l'espoir Oloron 60km</name>
    <desc><![CDATA[Sortie Virades de l'espoir Oloron Ste Marie du 30/09/2018]]></desc>
  </metadata>
  <trk>
    <name><![CDATA[20180930182911-pxUQ1]]></name>
    <trkseg>
      <trkpt lat="43.19068" lon="-0.64589">
        <ele>227.10000610352</ele>
        <time>2018-09-30T06:45:02.000Z</time>
      </trkpt>
      <trkpt lat="43.19065" lon="-0.64595">
        <ele>228</ele>
        <time>2018-09-30T06:45:03.000Z</time>
      </trkpt>
      <trkpt lat="43.19062" lon="-0.64602">
        <ele>228</ele>
        <time>2018-09-30T06:45:04.000Z</time>
      </trkpt>
      <trkpt lat="43.19058" lon="-0.64608">
        <ele>228</ele>
        <time>2018-09-30T06:45:05.000Z</time>
      </trkpt>
      <trkpt lat="43.19055" lon="-0.64615">
        <ele>228</ele>
        <time>2018-09-30T06:45:06.000Z</time>
      </trkpt>
      <trkpt lat="43.19052" lon="-0.64621">
        <ele>228</ele>
        <time>2018-09-30T06:45:07.000Z</time>
      </trkpt>
      <trkpt lat="43.19049" lon="-0.64628">
        <ele>228</ele>
        <time>2018-09-30T06:45:08.000Z</time>
      </trkpt>
      <trkpt lat="43.19045" lon="-0.64634">
        <ele>228</ele>
        <time>2018-09-30T06:45:09.000Z</time>
      </trkpt>
      <trkpt lat="43.19042" lon="-0.64641">
        <ele>228</ele>
        <time>2018-09-30T06:45:10.000Z</time>
      </trkpt>
      <trkpt lat="43.19039" lon="-0.64647">
        <ele>228</ele>
        <time>2018-09-30T06:45:11.000Z</time>
      </trkpt>
      <trkpt lat="43.19035" lon="-0.64653">
        <ele>228</ele>
        <time>2018-09-30T06:45:12.000Z</time>
      </trkpt>
      <trkpt lat="43.19032" lon="-0.64659">
        <ele>228</ele>
        <time>2018-09-30T06:45:13.000Z</time>
      </trkpt>
      <trkpt lat="43.19029" lon="-0.64665">
        <ele>228</ele>
        <time>2018-09-30T06:45:14.000Z</time>
      </trkpt>
      <trkpt lat="43.19025" lon="-0.6467">
        <ele>228</ele>
        <time>2018-09-30T06:45:15.000Z</time>
      </trkpt>
      <trkpt lat="43.19021" lon="-0.64674">
        <ele>228</ele>
        <time>2018-09-30T06:45:16.000Z</time>
      </trkpt>
      <trkpt lat="43.19016" lon="-0.64674">
        <ele>228</ele>
        <time>2018-09-30T06:45:17.000Z</time>
      </trkpt>
      <trkpt lat="43.19011" lon="-0.64673">
        <ele>228</ele>
        <time>2018-09-30T06:45:18.000Z</time>
      </trkpt>
      <trkpt lat="43.19006" lon="-0.6467">
        <ele>228</ele>
        <time>2018-09-30T06:45:19.000Z</time>
      </trkpt>
      <trkpt lat="43.19002" lon="-0.64666">
        <ele>228</ele>
        <time>2018-09-30T06:45:20.000Z</time>
      </trkpt>
      <trkpt lat="43.18998" lon="-0.64662">
        <ele>228</ele>
        <time>2018-09-30T06:45:21.000Z</time>
      </trkpt>
      <trkpt lat="43.18994" lon="-0.64657">
        <ele>228</ele>
        <time>2018-09-30T06:45:22.000Z</time>
      </trkpt>
      <trkpt lat="43.18991" lon="-0.64653">
        <ele>228</ele>
        <time>2018-09-30T06:45:23.000Z</time>
      </trkpt>
      <trkpt lat="43.18987" lon="-0.64648">
        <ele>228</ele>
        <time>2018-09-30T06:45:24.000Z</time>
      </trkpt>
      <trkpt lat="43.18983" lon="-0.64643">
        <ele>228</ele>
        <time>2018-09-30T06:45:25.000Z</time>
      </trkpt>
      <trkpt lat="43.18979" lon="-0.64639">
        <ele>228</ele>
        <time>2018-09-30T06:45:26.000Z</time>
      </trkpt>
      <trkpt lat="43.18975" lon="-0.64634">
        <ele>228</ele>
        <time>2018-09-30T06:45:27.000Z</time>
      </trkpt>
      <trkpt lat="43.18972" lon="-0.6463">
        <ele>228</ele>
        <time>2018-09-30T06:45:28.000Z</time>
      </trkpt>
      <trkpt lat="43.18968" lon="-0.64625">
        <ele>228</ele>
        <time>2018-09-30T06:45:29.000Z</time>
      </trkpt>
      <trkpt lat="43.18965" lon="-0.64621">
        <ele>228</ele>
        <time>2018-09-30T06:45:30.000Z</time>
      </trkpt>
      <trkpt lat="43.18961" lon="-0.64616">
        <ele>228</ele>
        <time>2018-09-30T06:45:31.000Z</time>
      </trkpt>
      <trkpt lat="43.18958" lon="-0.64613">
        <ele>228</ele>
        <time>2018-09-30T06:45:32.000Z</time>
      </trkpt>
      <trkpt lat="43.18954" lon="-0.64612">
        <ele>228</ele>
        <time>2018-09-30T06:45:33.000Z</time>
      </trkpt>
      <trkpt lat="43.18949" lon="-0.64613">
        <ele>228</ele>
        <time>2018-09-30T06:45:34.000Z</time>
      </trkpt>
      <trkpt lat="43.18945" lon="-0.64616">
        <ele>228</ele>
        <time>2018-09-30T06:45:35.000Z</time>
      </trkpt>
      <trkpt lat="43.18942" lon="-0.64621">
        <ele>228</ele>
        <time>2018-09-30T06:45:36.000Z</time>
      </trkpt>
      <trkpt lat="43.1894" lon="-0.64627">
        <ele>228</ele>
        <time>2018-09-30T06:45:37.000Z</time>
      </trkpt>
      <trkpt lat="43.18937" lon="-0.64634">
        <ele>228</ele>
        <time>2018-09-30T06:45:38.000Z</time>
      </trkpt>
      <trkpt lat="43.18935" lon="-0.6464">
        <ele>228</ele>
        <time>2018-09-30T06:45:39.000Z</time>
      </trkpt>
      <trkpt lat="43.18932" lon="-0.64647">
        <ele>228</ele>
        <time>2018-09-30T06:45:40.000Z</time>
      </trkpt>
      <trkpt lat="43.18929" lon="-0.64653">
        <ele>228</ele>
        <time>2018-09-30T06:45:41.000Z</time>
      </trkpt>
      <trkpt lat="43.18926" lon="-0.6466">
        <ele>228</ele>
        <time>2018-09-30T06:45:42.000Z</time>
      </trkpt>
      <trkpt lat="43.18922" lon="-0.64667">
        <ele>228</ele>
        <time>2018-09-30T06:45:43.000Z</time>
      </trkpt>
      <trkpt lat="43.18919" lon="-0.64673">
        <ele>228</ele>
        <time>2018-09-30T06:45:44.000Z</time>
      </trkpt>
      <trkpt lat="43.18916" lon="-0.6468">
        <ele>228</ele>
        <time>2018-09-30T06:45:45.000Z</time>
      </trkpt>
      <trkpt lat="43.18913" lon="-0.64686">
        <ele>228</ele>
        <time>2018-09-30T06:45:46.000Z</time>
      </trkpt>
      <trkpt lat="43.18909" lon="-0.64692">
        <ele>228</ele>
        <time>2018-09-30T06:45:47.000Z</time>
      </trkpt>
      <trkpt lat="43.18906" lon="-0.64697">
        <ele>228</ele>
        <time>2018-09-30T06:45:48.000Z</time>
      </trkpt>
      <trkpt lat="43.18901" lon="-0.647">
        <ele>228</ele>
        <time>2018-09-30T06:45:49.000Z</time>
      </trkpt>
      <trkpt lat="43.18896" lon="-0.64702">
        <ele>227.5857150694</ele>
        <time>2018-09-30T06:45:50.000Z</time>
      </trkpt>
      <trkpt lat="43.18891" lon="-0.64703">
        <ele>227</ele>
        <time>2018-09-30T06:45:51.000Z</time>
      </trkpt>
      <trkpt lat="43.18885" lon="-0.64702">
        <ele>227</ele>
        <time>2018-09-30T06:45:52.000Z</time>
      </trkpt>
      <trkpt lat="43.1888" lon="-0.64701">
        <ele>227</ele>
        <time>2018-09-30T06:45:53.000Z</time>
      </trkpt>
      <trkpt lat="43.18875" lon="-0.64699">
        <ele>227</ele>
        <time>2018-09-30T06:45:54.000Z</time>
      </trkpt>
      <trkpt lat="43.1887" lon="-0.64698">
        <ele>227</ele>
        <time>2018-09-30T06:45:55.000Z</time>
      </trkpt>
      <trkpt lat="43.18865" lon="-0.64698">
        <ele>227</ele>
        <time>2018-09-30T06:45:56.000Z</time>
      </trkpt>
      <trkpt lat="43.1886" lon="-0.64698">
        <ele>227</ele>
        <time>2018-09-30T06:45:57.000Z</time>
      </trkpt>
      <trkpt lat="43.18855" lon="-0.64698">
        <ele>227</ele>
        <time>2018-09-30T06:45:58.000Z</time>
      </trkpt>
      <trkpt lat="43.1885" lon="-0.64699">
        <ele>227</ele>
        <time>2018-09-30T06:45:59.000Z</time>
      </trkpt>
      <trkpt lat="43.18845" lon="-0.647">
        <ele>227</ele>
        <time>2018-09-30T06:46:00.000Z</time>
      </trkpt>
      <trkpt lat="43.1884" lon="-0.647">
        <ele>227</ele>
        <time>2018-09-30T06:46:01.000Z</time>
      </trkpt>
      <trkpt lat="43.18835" lon="-0.64701">
        <ele>227</ele>
        <time>2018-09-30T06:46:02.000Z</time>
      </trkpt>
      <trkpt lat="43.18829" lon="-0.64702">
        <ele>227</ele>
        <time>2018-09-30T06:46:03.000Z</time>
      </trkpt>
      <trkpt lat="43.18824" lon="-0.64703">
        <ele>227</ele>
        <time>2018-09-30T06:46:04.000Z</time>
      </trkpt>
      <trkpt lat="43.18816" lon="-0.64705">
        <ele>226.4099968</ele>
        <time>2018-09-30T06:46:05.000Z</time>
      </trkpt>
      <trkpt lat="43.18809" lon="-0.64708">
        <ele>226</ele>
        <time>2018-09-30T06:46:06.000Z</time>
      </trkpt>
      <trkpt lat="43.188" lon="-0.64713">
        <ele>226</ele>
        <time>2018-09-30T06:46:07.000Z</time>
      </trkpt>
      <trkpt lat="43.18791" lon="-0.64718">
        <ele>224.8199936</ele>
        <time>2018-09-30T06:46:08.000Z</time>
      </trkpt>
      <trkpt lat="43.18782" lon="-0.64725">
        <ele>223.4099968</ele>
        <time>2018-09-30T06:46:09.000Z</time>
      </trkpt>
      <trkpt lat="43.18773" lon="-0.64734">
        <ele>221.8199936</ele>
        <time>2018-09-30T06:46:10.000Z</time>
      </trkpt>
      <trkpt lat="43.18765" lon="-0.64744">
        <ele>220.55302787879</ele>
        <time>2018-09-30T06:46:11.000Z</time>
      </trkpt>
      <trkpt lat="43.18757" lon="-0.64755">
        <ele>219.60293647059</ele>
        <time>2018-09-30T06:46:12.000Z</time>
      </trkpt>
      <trkpt lat="43.1875" lon="-0.64769">
        <ele>218.4099968</ele>
        <time>2018-09-30T06:46:13.000Z</time>
      </trkpt>
      <trkpt lat="43.18742" lon="-0.64782">
        <ele>217.4099968</ele>
        <time>2018-09-30T06:46:14.000Z</time>
      </trkpt>
      <trkpt lat="43.18735" lon="-0.64794">
        <ele>216.54961697804</ele>
        <time>2018-09-30T06:46:15.000Z</time>
      </trkpt>
      <trkpt lat="43.18727" lon="-0.64805">
        <ele>215.59420101658</ele>
        <time>2018-09-30T06:46:16.000Z</time>
      </trkpt>
      <trkpt lat="43.1872" lon="-0.64815">
        <ele>215</ele>
        <time>2018-09-30T06:46:17.000Z</time>
      </trkpt>
      <trkpt lat="43.18713" lon="-0.64825">
        <ele>214.56944</ele>
        <time>2018-09-30T06:46:18.000Z</time>
      </trkpt>
      <trkpt lat="43.18706" lon="-0.64835">
        <ele>214</ele>
        <time>2018-09-30T06:46:19.000Z</time>
      </trkpt>
      <trkpt lat="43.18699" lon="-0.64844">
        <ele>214</ele>
        <time>2018-09-30T06:46:20.000Z</time>
      </trkpt>
      <trkpt lat="43.18692" lon="-0.64854">
        <ele>214</ele>
        <time>2018-09-30T06:46:21.000Z</time>
      </trkpt>
      <trkpt lat="43.18686" lon="-0.64862">
        <ele>214</ele>
        <time>2018-09-30T06:46:22.000Z</time>
      </trkpt>
      <trkpt lat="43.18679" lon="-0.64871">
        <ele>214</ele>
        <time>2018-09-30T06:46:23.000Z</time>
      </trkpt>
      <trkpt lat="43.18673" lon="-0.64881">
        <ele>214</ele>
        <time>2018-09-30T06:46:24.000Z</time>
      </trkpt>
      <trkpt lat="43.18668" lon="-0.6489">
        <ele>213.4099968</ele>
        <time>2018-09-30T06:46:25.000Z</time>
      </trkpt>
      <trkpt lat="43.18663" lon="-0.649">
        <ele>213</ele>
        <time>2018-09-30T06:46:26.000Z</time>
      </trkpt>
      <trkpt lat="43.18659" lon="-0.6491">
        <ele>213</ele>
        <time>2018-09-30T06:46:27.000Z</time>
      </trkpt>
      <trkpt lat="43.18655" lon="-0.64919">
        <ele>213</ele>
        <time>2018-09-30T06:46:28.000Z</time>
      </trkpt>
      <trkpt lat="43.18652" lon="-0.64928">
        <ele>213</ele>
        <time>2018-09-30T06:46:29.000Z</time>
      </trkpt>
      <trkpt lat="43.18648" lon="-0.64936">
        <ele>213</ele>
        <time>2018-09-30T06:46:30.000Z</time>
      </trkpt>
      <trkpt lat="43.18637" lon="-0.64948">
        <ele>213</ele>
        <time>2018-09-30T06:46:32.000Z</time>
      </trkpt>
      <trkpt lat="43.18631" lon="-0.64951">
        <ele>213</ele>
        <time>2018-09-30T06:46:33.000Z</time>
      </trkpt>
      <trkpt lat="43.18625" lon="-0.64954">
        <ele>213</ele>
        <time>2018-09-30T06:46:34.000Z</time>
      </trkpt>
      <trkpt lat="43.1862" lon="-0.64957">
        <ele>213</ele>
        <time>2018-09-30T06:46:35.000Z</time>
      </trkpt>
      <trkpt lat="43.18615" lon="-0.64961">
        <ele>213</ele>
        <time>2018-09-30T06:46:36.000Z</time>
      </trkpt>
      <trkpt lat="43.1861" lon="-0.64965">
        <ele>213</ele>
        <time>2018-09-30T06:46:37.000Z</time>
      </trkpt>
      <trkpt lat="43.18606" lon="-0.64969">
        <ele>213</ele>
        <time>2018-09-30T06:46:38.000Z</time>
      </trkpt>
      <trkpt lat="43.18602" lon="-0.64974">
        <ele>213</ele>
        <time>2018-09-30T06:46:39.000Z</time>
      </trkpt>
      <trkpt lat="43.18599" lon="-0.6498">
        <ele>213</ele>
        <time>2018-09-30T06:46:40.000Z</time>
      </trkpt>
      <trkpt lat="43.18597" lon="-0.64986">
        <ele>213.58163318618</ele>
        <time>2018-09-30T06:46:41.000Z</time>
      </trkpt>
      <trkpt lat="43.18596" lon="-0.64992">
        <ele>214</ele>
        <time>2018-09-30T06:46:42.000Z</time>
      </trkpt>
      <trkpt lat="43.18595" lon="-0.64999">
        <ele>214</ele>
        <time>2018-09-30T06:46:43.000Z</time>
      </trkpt>
      <trkpt lat="43.18595" lon="-0.65005">
        <ele>214</ele>
        <time>2018-09-30T06:46:44.000Z</time>
      </trkpt>
      <trkpt lat="43.18596" lon="-0.65011">
        <ele>214</ele>
        <time>2018-09-30T06:46:45.000Z</time>
      </trkpt>
      <trkpt lat="43.18596" lon="-0.65018">
        <ele>214</ele>
        <time>2018-09-30T06:46:46.000Z</time>
      </trkpt>
      <trkpt lat="43.18596" lon="-0.65023">
        <ele>214</ele>
        <time>2018-09-30T06:46:47.000Z</time>
      </trkpt>
      <trkpt lat="43.18595" lon="-0.65028">
        <ele>214</ele>
        <time>2018-09-30T06:46:48.000Z</time>
      </trkpt>
      <trkpt lat="43.18593" lon="-0.65032">
        <ele>214</ele>
        <time>2018-09-30T06:46:49.000Z</time>
      </trkpt>
      <trkpt lat="43.18589" lon="-0.65035">
        <ele>214</ele>
        <time>2018-09-30T06:46:50.000Z</time>
      </trkpt>
      <trkpt lat="43.18585" lon="-0.65037">
        <ele>214</ele>
        <time>2018-09-30T06:46:51.000Z</time>
      </trkpt>
      <trkpt lat="43.18581" lon="-0.65037">
        <ele>214</ele>
        <time>2018-09-30T06:46:52.000Z</time>
      </trkpt>
      <trkpt lat="43.18576" lon="-0.65037">
        <ele>214</ele>
        <time>2018-09-30T06:46:53.000Z</time>
      </trkpt>
      <trkpt lat="43.18571" lon="-0.65038">
        <ele>213.54615361894</ele>
        <time>2018-09-30T06:46:54.000Z</time>
      </trkpt>
      <trkpt lat="43.18566" lon="-0.65039">
        <ele>213</ele>
        <time>2018-09-30T06:46:55.000Z</time>
      </trkpt>
      <trkpt lat="43.1856" lon="-0.65039">
        <ele>213</ele>
        <time>2018-09-30T06:46:56.000Z</time>
      </trkpt>
      <trkpt lat="43.18555" lon="-0.65039">
        <ele>213</ele>
        <time>2018-09-30T06:46:57.000Z</time>
      </trkpt>
      <trkpt lat="43.1855" lon="-0.65038">
        <ele>213</ele>
        <time>2018-09-30T06:46:58.000Z</time>
      </trkpt>
      <trkpt lat="43.18544" lon="-0.65038">
        <ele>213</ele>
        <time>2018-09-30T06:46:59.000Z</time>
      </trkpt>
      <trkpt lat="43.18538" lon="-0.65037">
        <ele>213</ele>
        <time>2018-09-30T06:47:00.000Z</time>
      </trkpt>
      <trkpt lat="43.18533" lon="-0.65036">
        <ele>213</ele>
        <time>2018-09-30T06:47:01.000Z</time>
      </trkpt>
      <trkpt lat="43.18527" lon="-0.65035">
        <ele>213</ele>
        <time>2018-09-30T06:47:02.000Z</time>
      </trkpt>
      <trkpt lat="43.18521" lon="-0.65033">
        <ele>213</ele>
        <time>2018-09-30T06:47:03.000Z</time>
      </trkpt>
      <trkpt lat="43.18516" lon="-0.65032">
        <ele>213</ele>
        <time>2018-09-30T06:47:04.000Z</time>
      </trkpt>
      <trkpt lat="43.18511" lon="-0.6503">
        <ele>213</ele>
        <time>2018-09-30T06:47:05.000Z</time>
      </trkpt>
      <trkpt lat="43.18506" lon="-0.65028">
        <ele>213.5900032</ele>
        <time>2018-09-30T06:47:06.000Z</time>
      </trkpt>
      <trkpt lat="43.18501" lon="-0.65027">
        <ele>214</ele>
        <time>2018-09-30T06:47:07.000Z</time>
      </trkpt>
      <trkpt lat="43.18496" lon="-0.65024">
        <ele>214</ele>
        <time>2018-09-30T06:47:08.000Z</time>
      </trkpt>
      <trkpt lat="43.18491" lon="-0.65022">
        <ele>214</ele>
        <time>2018-09-30T06:47:09.000Z</time>
      </trkpt>
      <trkpt lat="43.18486" lon="-0.6502">
        <ele>214</ele>
        <time>2018-09-30T06:47:10.000Z</time>
      </trkpt>
      <trkpt lat="43.18481" lon="-0.65018">
        <ele>214</ele>
        <time>2018-09-30T06:47:11.000Z</time>
      </trkpt>
      <trkpt lat="43.18476" lon="-0.65016">
        <ele>214</ele>
        <time>2018-09-30T06:47:12.000Z</time>
      </trkpt>
      <trkpt lat="43.18471" lon="-0.65014">
        <ele>214</ele>
        <time>2018-09-30T06:47:13.000Z</time>
      </trkpt>
      <trkpt lat="43.18466" lon="-0.65012">
        <ele>214</ele>
        <time>2018-09-30T06:47:14.000Z</time>
      </trkpt>
      <trkpt lat="43.18461" lon="-0.6501">
        <ele>214.43056</ele>
        <time>2018-09-30T06:47:15.000Z</time>
      </trkpt>
      <trkpt lat="43.18456" lon="-0.65008">
        <ele>215</ele>
        <time>2018-09-30T06:47:16.000Z</time>
      </trkpt>
      <trkpt lat="43.18451" lon="-0.65006">
        <ele>215</ele>
        <time>2018-09-30T06:47:17.000Z</time>
      </trkpt>
      <trkpt lat="43.18446" lon="-0.65003">
        <ele>215</ele>
        <time>2018-09-30T06:47:18.000Z</time>
      </trkpt>
      <trkpt lat="43.18442" lon="-0.65">
        <ele>215</ele>
        <time>2018-09-30T06:47:19.000Z</time>
      </trkpt>
      <trkpt lat="43.18437" lon="-0.64997">
        <ele>215</ele>
        <time>2018-09-30T06:47:20.000Z</time>
      </trkpt>
      <trkpt lat="43.18432" lon="-0.64995">
        <ele>215</ele>
        <time>2018-09-30T06:47:21.000Z</time>
      </trkpt>
      <trkpt lat="43.18428" lon="-0.64992">
        <ele>215</ele>
        <time>2018-09-30T06:47:22.000Z</time>
      </trkpt>
      <trkpt lat="43.18424" lon="-0.64989">
        <ele>215</ele>
        <time>2018-09-30T06:47:23.000Z</time>
      </trkpt>
      <trkpt lat="43.1842" lon="-0.64987">
        <ele>215</ele>
        <time>2018-09-30T06:47:24.000Z</time>
      </trkpt>
      <trkpt lat="43.18415" lon="-0.64984">
        <ele>215</ele>
        <time>2018-09-30T06:47:25.000Z</time>
      </trkpt>
      <trkpt lat="43.18411" lon="-0.6498">
        <ele>215.5900032</ele>
        <time>2018-09-30T06:47:26.000Z</time>
      </trkpt>
      <trkpt lat="43.18407" lon="-0.64976">
        <ele>216</ele>
        <time>2018-09-30T06:47:27.000Z</time>
      </trkpt>
      <trkpt lat="43.18402" lon="-0.64973">
        <ele>216</ele>
        <time>2018-09-30T06:47:28.000Z</time>
      </trkpt>
      <trkpt lat="43.18397" lon="-0.64968">
        <ele>216</ele>
        <time>2018-09-30T06:47:29.000Z</time>
      </trkpt>
      <trkpt lat="43.18392" lon="-0.64964">
        <ele>216</ele>
        <time>2018-09-30T06:47:30.000Z</time>
      </trkpt>
      <trkpt lat="43.18387" lon="-0.64959">
        <ele>216</ele>
        <time>2018-09-30T06:47:31.000Z</time>
      </trkpt>
      <trkpt lat="43.18377" lon="-0.6495">
        <ele>215.70707109887</ele>
        <time>2018-09-30T06:47:33.000Z</time>
      </trkpt>
      <trkpt lat="43.18372" lon="-0.64946">
        <ele>215</ele>
        <time>2018-09-30T06:47:34.000Z</time>
      </trkpt>
      <trkpt lat="43.18367" lon="-0.64942">
        <ele>215</ele>
        <time>2018-09-30T06:47:35.000Z</time>
      </trkpt>
      <trkpt lat="43.18362" lon="-0.64938">
        <ele>215</ele>
        <time>2018-09-30T06:47:36.000Z</time>
      </trkpt>
      <trkpt lat="43.18357" lon="-0.64934">
        <ele>215</ele>
        <time>2018-09-30T06:47:37.000Z</time>
      </trkpt>
      <trkpt lat="43.18351" lon="-0.6493">
        <ele>215</ele>
        <time>2018-09-30T06:47:38.000Z</time>
      </trkpt>
      <trkpt lat="43.18346" lon="-0.64925">
        <ele>215</ele>
        <time>2018-09-30T06:47:39.000Z</time>
      </trkpt>
      <trkpt lat="43.18341" lon="-0.64922">
        <ele>215</ele>
        <time>2018-09-30T06:47:40.000Z</time>
      </trkpt>
      <trkpt lat="43.18336" lon="-0.64919">
        <ele>215</ele>
        <time>2018-09-30T06:47:41.000Z</time>
      </trkpt>
      <trkpt lat="43.18331" lon="-0.64917">
        <ele>215</ele>
        <time>2018-09-30T06:47:42.000Z</time>
      </trkpt>
      <trkpt lat="43.18325" lon="-0.64914">
        <ele>215</ele>
        <time>2018-09-30T06:47:43.000Z</time>
      </trkpt>
      <trkpt lat="43.1832" lon="-0.64912">
        <ele>215</ele>
        <time>2018-09-30T06:47:44.000Z</time>
      </trkpt>
      <trkpt lat="43.18315" lon="-0.64909">
        <ele>215</ele>
        <time>2018-09-30T06:47:45.000Z</time>
      </trkpt>
      <trkpt lat="43.1831" lon="-0.64907">
        <ele>215</ele>
        <time>2018-09-30T06:47:46.000Z</time>
      </trkpt>
      <trkpt lat="43.18304" lon="-0.64904">
        <ele>215</ele>
        <time>2018-09-30T06:47:47.000Z</time>
      </trkpt>
      <trkpt lat="43.18298" lon="-0.64903">
        <ele>215</ele>
        <time>2018-09-30T06:47:48.000Z</time>
      </trkpt>
      <trkpt lat="43.18292" lon="-0.64902">
        <ele>215</ele>
        <time>2018-09-30T06:47:49.000Z</time>
      </trkpt>
      <trkpt lat="43.1828" lon="-0.64903">
        <ele>214</ele>
        <time>2018-09-30T06:47:51.000Z</time>
      </trkpt>
      <trkpt lat="43.18274" lon="-0.64904">
        <ele>214</ele>
        <time>2018-09-30T06:47:52.000Z</time>
      </trkpt>
      <trkpt lat="43.18268" lon="-0.64905">
        <ele>214</ele>
        <time>2018-09-30T06:47:53.000Z</time>
      </trkpt>
      <trkpt lat="43.18262" lon="-0.64906">
        <ele>214</ele>
        <time>2018-09-30T06:47:54.000Z</time>
      </trkpt>
      <trkpt lat="43.18257" lon="-0.64907">
        <ele>214.5900032</ele>
        <time>2018-09-30T06:47:55.000Z</time>
      </trkpt>
      <trkpt lat="43.18252" lon="-0.64908">
        <ele>215</ele>
        <time>2018-09-30T06:47:56.000Z</time>
      </trkpt>
      <trkpt lat="43.18246" lon="-0.6491">
        <ele>215</ele>
        <time>2018-09-30T06:47:57.000Z</time>
      </trkpt>
      <trkpt lat="43.18241" lon="-0.64912">
        <ele>215</ele>
        <time>2018-09-30T06:47:58.000Z</time>
      </trkpt>
      <trkpt lat="43.18236" lon="-0.64915">
        <ele>215</ele>
        <time>2018-09-30T06:47:59.000Z</time>
      </trkpt>
      <trkpt lat="43.18225" lon="-0.64921">
        <ele>215</ele>
        <time>2018-09-30T06:48:01.000Z</time>
      </trkpt>
      <trkpt lat="43.1822" lon="-0.64925">
        <ele>215</ele>
        <time>2018-09-30T06:48:02.000Z</time>
      </trkpt>
      <trkpt lat="43.18215" lon="-0.64928">
        <ele>215</ele>
        <time>2018-09-30T06:48:03.000Z</time>
      </trkpt>
      <trkpt lat="43.18211" lon="-0.64931">
        <ele>215</ele>
        <time>2018-09-30T06:48:04.000Z</time>
      </trkpt>
      <trkpt lat="43.18206" lon="-0.64935">
        <ele>215</ele>
        <time>2018-09-30T06:48:05.000Z</time>
      </trkpt>
      <trkpt lat="43.18201" lon="-0.64939">
        <ele>215</ele>
        <time>2018-09-30T06:48:06.000Z</time>
      </trkpt>
      <trkpt lat="43.18196" lon="-0.64942">
        <ele>215</ele>
        <time>2018-09-30T06:48:07.000Z</time>
      </trkpt>
      <trkpt lat="43.18191" lon="-0.64946">
        <ele>215</ele>
        <time>2018-09-30T06:48:08.000Z</time>
      </trkpt>
      <trkpt lat="43.18186" lon="-0.6495">
        <ele>215</ele>
        <time>2018-09-30T06:48:09.000Z</time>
      </trkpt>
      <trkpt lat="43.18182" lon="-0.64954">
        <ele>215</ele>
        <time>2018-09-30T06:48:10.000Z</time>
      </trkpt>
      <trkpt lat="43.18177" lon="-0.64957">
        <ele>215</ele>
        <time>2018-09-30T06:48:11.000Z</time>
      </trkpt>
      <trkpt lat="43.18173" lon="-0.64961">
        <ele>215</ele>
        <time>2018-09-30T06:48:12.000Z</time>
      </trkpt>
      <trkpt lat="43.18169" lon="-0.64966">
        <ele>215</ele>
        <time>2018-09-30T06:48:13.000Z</time>
      </trkpt>
      <trkpt lat="43.18165" lon="-0.64971">
        <ele>215</ele>
        <time>2018-09-30T06:48:14.000Z</time>
      </trkpt>
      <trkpt lat="43.18161" lon="-0.64977">
        <ele>215</ele>
        <time>2018-09-30T06:48:15.000Z</time>
      </trkpt>
      <trkpt lat="43.18157" lon="-0.64982">
        <ele>215</ele>
        <time>2018-09-30T06:48:16.000Z</time>
      </trkpt>
      <trkpt lat="43.18153" lon="-0.64986">
        <ele>215</ele>
        <time>2018-09-30T06:48:17.000Z</time>
      </trkpt>
      <trkpt lat="43.18149" lon="-0.64989">
        <ele>215</ele>
        <time>2018-09-30T06:48:18.000Z</time>
      </trkpt>
      <trkpt lat="43.18144" lon="-0.64993">
        <ele>215</ele>
        <time>2018-09-30T06:48:19.000Z</time>
      </trkpt>
      <trkpt lat="43.18136" lon="-0.65">
        <ele>215</ele>
        <time>2018-09-30T06:48:21.000Z</time>
      </trkpt>
      <trkpt lat="43.18132" lon="-0.65003">
        <ele>215</ele>
        <time>2018-09-30T06:48:22.000Z</time>
      </trkpt>
      <trkpt lat="43.18129" lon="-0.65006">
        <ele>215.5900032</ele>
        <time>2018-09-30T06:48:23.000Z</time>
      </trkpt>
      <trkpt lat="43.18125" lon="-0.65009">
        <ele>216</ele>
        <time>2018-09-30T06:48:24.000Z</time>
      </trkpt>
      <trkpt lat="43.18122" lon="-0.65012">
        <ele>216</ele>
        <time>2018-09-30T06:48:25.000Z</time>
      </trkpt>
      <trkpt lat="43.18118" lon="-0.65015">
        <ele>216.45736341807</ele>
        <time>2018-09-30T06:48:26.000Z</time>
      </trkpt>
      <trkpt lat="43.18114" lon="-0.65018">
        <ele>217</ele>
        <time>2018-09-30T06:48:27.000Z</time>
      </trkpt>
      <trkpt lat="43.1811" lon="-0.65021">
        <ele>217</ele>
        <time>2018-09-30T06:48:28.000Z</time>
      </trkpt>
      <trkpt lat="43.18106" lon="-0.65024">
        <ele>217</ele>
        <time>2018-09-30T06:48:29.000Z</time>
      </trkpt>
      <trkpt lat="43.18101" lon="-0.65026">
        <ele>217</ele>
        <time>2018-09-30T06:48:30.000Z</time>
      </trkpt>
      <trkpt lat="43.18096" lon="-0.65028">
        <ele>217</ele>
        <time>2018-09-30T06:48:31.000Z</time>
      </trkpt>
      <trkpt lat="43.18092" lon="-0.65029">
        <ele>217</ele>
        <time>2018-09-30T06:48:32.000Z</time>
      </trkpt>
      <trkpt lat="43.18087" lon="-0.6503">
        <ele>217</ele>
        <time>2018-09-30T06:48:33.000Z</time>
      </trkpt>
      <trkpt lat="43.18083" lon="-0.65031">
        <ele>217</ele>
        <time>2018-09-30T06:48:34.000Z</time>
      </trkpt>
      <trkpt lat="43.18079" lon="-0.65032">
        <ele>217</ele>
        <time>2018-09-30T06:48:35.000Z</time>
      </trkpt>
      <trkpt lat="43.18075" lon="-0.65033">
        <ele>217</ele>
        <time>2018-09-30T06:48:36.000Z</time>
      </trkpt>
      <trkpt lat="43.18071" lon="-0.65033">
        <ele>217</ele>
        <time>2018-09-30T06:48:37.000Z</time>
      </trkpt>
      <trkpt lat="43.18067" lon="-0.65033">
        <ele>217</ele>
        <time>2018-09-30T06:48:38.000Z</time>
      </trkpt>
      <trkpt lat="43.18063" lon="-0.65033">
        <ele>217.5900032</ele>
        <time>2018-09-30T06:48:39.000Z</time>
      </trkpt>
      <trkpt lat="43.18059" lon="-0.65033">
        <ele>218</ele>
        <time>2018-09-30T06:48:40.000Z</time>
      </trkpt>
      <trkpt lat="43.18055" lon="-0.65033">
        <ele>218</ele>
        <time>2018-09-30T06:48:41.000Z</time>
      </trkpt>
      <trkpt lat="43.18051" lon="-0.65034">
        <ele>218</ele>
        <time>2018-09-30T06:48:42.000Z</time>
      </trkpt>
      <trkpt lat="43.18047" lon="-0.65034">
        <ele>218</ele>
        <time>2018-09-30T06:48:43.000Z</time>
      </trkpt>
      <trkpt lat="43.18043" lon="-0.65034">
        <ele>218</ele>
        <time>2018-09-30T06:48:44.000Z</time>
      </trkpt>
      <trkpt lat="43.18039" lon="-0.65034">
        <ele>218</ele>
        <time>2018-09-30T06:48:45.000Z</time>
      </trkpt>
      <trkpt lat="43.18035" lon="-0.65035">
        <ele>218</ele>
        <time>2018-09-30T06:48:46.000Z</time>
      </trkpt>
      <trkpt lat="43.18031" lon="-0.65035">
        <ele>218</ele>
        <time>2018-09-30T06:48:47.000Z</time>
      </trkpt>
      <trkpt lat="43.18027" lon="-0.65035">
        <ele>218</ele>
        <time>2018-09-30T06:48:48.000Z</time>
      </trkpt>
      <trkpt lat="43.18023" lon="-0.65035">
        <ele>218</ele>
        <time>2018-09-30T06:48:49.000Z</time>
      </trkpt>
      <trkpt lat="43.1801" lon="-0.65038">
        <ele>219</ele>
        <time>2018-09-30T06:48:52.000Z</time>
      </trkpt>
      <trkpt lat="43.18005" lon="-0.6504">
        <ele>219</ele>
        <time>2018-09-30T06:48:53.000Z</time>
      </trkpt>
      <trkpt lat="43.18001" lon="-0.65043">
        <ele>219</ele>
        <time>2018-09-30T06:48:54.000Z</time>
      </trkpt>
      <trkpt lat="43.17996" lon="-0.65045">
        <ele>219</ele>
        <time>2018-09-30T06:48:55.000Z</time>
      </trkpt>
      <trkpt lat="43.17992" lon="-0.65049">
        <ele>219</ele>
        <time>2018-09-30T06:48:56.000Z</time>
      </trkpt>
      <trkpt lat="43.17987" lon="-0.65053">
        <ele>219</ele>
        <time>2018-09-30T06:48:57.000Z</time>
      </trkpt>
      <trkpt lat="43.17984" lon="-0.65056">
        <ele>219</ele>
        <time>2018-09-30T06:48:58.000Z</time>
      </trkpt>
      <trkpt lat="43.1798" lon="-0.6506">
        <ele>219</ele>
        <time>2018-09-30T06:48:59.000Z</time>
      </trkpt>
      <trkpt lat="43.17976" lon="-0.65063">
        <ele>219</ele>
        <time>2018-09-30T06:49:00.000Z</time>
      </trkpt>
      <trkpt lat="43.17972" lon="-0.65067">
        <ele>219</ele>
        <time>2018-09-30T06:49:01.000Z</time>
      </trkpt>
      <trkpt lat="43.17968" lon="-0.65071">
        <ele>219</ele>
        <time>2018-09-30T06:49:02.000Z</time>
      </trkpt>
      <trkpt lat="43.17964" lon="-0.65075">
        <ele>219</ele>
        <time>2018-09-30T06:49:03.000Z</time>
      </trkpt>
      <trkpt lat="43.1796" lon="-0.6508">
        <ele>219</ele>
        <time>2018-09-30T06:49:04.000Z</time>
      </trkpt>
      <trkpt lat="43.17955" lon="-0.65084">
        <ele>219</ele>
        <time>2018-09-30T06:49:05.000Z</time>
      </trkpt>
      <trkpt lat="43.17951" lon="-0.65088">
        <ele>219</ele>
        <time>2018-09-30T06:49:06.000Z</time>
      </trkpt>
      <trkpt lat="43.17947" lon="-0.65092">
        <ele>219</ele>
        <time>2018-09-30T06:49:07.000Z</time>
      </trkpt>
      <trkpt lat="43.17942" lon="-0.65096">
        <ele>219</ele>
        <time>2018-09-30T06:49:08.000Z</time>
      </trkpt>
      <trkpt lat="43.17938" lon="-0.65099">
        <ele>219</ele>
        <time>2018-09-30T06:49:09.000Z</time>
      </trkpt>
      <trkpt lat="43.17934" lon="-0.65103">
        <ele>219</ele>
        <time>2018-09-30T06:49:10.000Z</time>
      </trkpt>
      <trkpt lat="43.17929" lon="-0.65106">
        <ele>219</ele>
        <time>2018-09-30T06:49:11.000Z</time>
      </trkpt>
      <trkpt lat="43.17925" lon="-0.65109">
        <ele>219</ele>
        <time>2018-09-30T06:49:12.000Z</time>
      </trkpt>
      <trkpt lat="43.17921" lon="-0.65112">
        <ele>219</ele>
        <time>2018-09-30T06:49:13.000Z</time>
      </trkpt>
      <trkpt lat="43.17917" lon="-0.65115">
        <ele>219</ele>
        <time>2018-09-30T06:49:14.000Z</time>
      </trkpt>
      <trkpt lat="43.17913" lon="-0.65118">
        <ele>219</ele>
        <time>2018-09-30T06:49:15.000Z</time>
      </trkpt>
      <trkpt lat="43.17908" lon="-0.65121">
        <ele>219</ele>
        <time>2018-09-30T06:49:16.000Z</time>
      </trkpt>
      <trkpt lat="43.17904" lon="-0.65123">
        <ele>219</ele>
        <time>2018-09-30T06:49:17.000Z</time>
      </trkpt>
      <trkpt lat="43.17899" lon="-0.65125">
        <ele>219</ele>
        <time>2018-09-30T06:49:18.000Z</time>
      </trkpt>
      <trkpt lat="43.17895" lon="-0.65126">
        <ele>219</ele>
        <time>2018-09-30T06:49:19.000Z</time>
      </trkpt>
      <trkpt lat="43.1789" lon="-0.65128">
        <ele>219</ele>
        <time>2018-09-30T06:49:20.000Z</time>
      </trkpt>
      <trkpt lat="43.17886" lon="-0.65129">
        <ele>219</ele>
        <time>2018-09-30T06:49:21.000Z</time>
      </trkpt>
      <trkpt lat="43.17881" lon="-0.6513">
        <ele>219</ele>
        <time>2018-09-30T06:49:22.000Z</time>
      </trkpt>
      <trkpt lat="43.17875" lon="-0.65132">
        <ele>219</ele>
        <time>2018-09-30T06:49:23.000Z</time>
      </trkpt>
      <trkpt lat="43.1787" lon="-0.65133">
        <ele>219</ele>
        <time>2018-09-30T06:49:24.000Z</time>
      </trkpt>
      <trkpt lat="43.17865" lon="-0.65135">
        <ele>219</ele>
        <time>2018-09-30T06:49:25.000Z</time>
      </trkpt>
      <trkpt lat="43.1786" lon="-0.65135">
        <ele>219</ele>
        <time>2018-09-30T06:49:26.000Z</time>
      </trkpt>
      <trkpt lat="43.17856" lon="-0.65136">
        <ele>219</ele>
        <time>2018-09-30T06:49:27.000Z</time>
      </trkpt>
      <trkpt lat="43.17851" lon="-0.65136">
        <ele>219</ele>
        <time>2018-09-30T06:49:28.000Z</time>
      </trkpt>
      <trkpt lat="43.17846" lon="-0.65138">
        <ele>219</ele>
        <time>2018-09-30T06:49:29.000Z</time>
      </trkpt>
      <trkpt lat="43.17841" lon="-0.6514">
        <ele>219</ele>
        <time>2018-09-30T06:49:30.000Z</time>
      </trkpt>
      <trkpt lat="43.17836" lon="-0.65142">
        <ele>219</ele>
        <time>2018-09-30T06:49:31.000Z</time>
      </trkpt>
      <trkpt lat="43.17831" lon="-0.65144">
        <ele>219</ele>
        <time>2018-09-30T06:49:32.000Z</time>
      </trkpt>
      <trkpt lat="43.17826" lon="-0.65147">
        <ele>219</ele>
        <time>2018-09-30T06:49:33.000Z</time>
      </trkpt>
      <trkpt lat="43.17822" lon="-0.65151">
        <ele>219</ele>
        <time>2018-09-30T06:49:34.000Z</time>
      </trkpt>
      <trkpt lat="43.17817" lon="-0.65154">
        <ele>219</ele>
        <time>2018-09-30T06:49:35.000Z</time>
      </trkpt>
      <trkpt lat="43.17812" lon="-0.65158">
        <ele>219</ele>
        <time>2018-09-30T06:49:36.000Z</time>
      </trkpt>
      <trkpt lat="43.17807" lon="-0.65162">
        <ele>219</ele>
        <time>2018-09-30T06:49:37.000Z</time>
      </trkpt>
      <trkpt lat="43.17803" lon="-0.65166">
        <ele>219</ele>
        <time>2018-09-30T06:49:38.000Z</time>
      </trkpt>
      <trkpt lat="43.17798" lon="-0.65169">
        <ele>219</ele>
        <time>2018-09-30T06:49:39.000Z</time>
      </trkpt>
      <trkpt lat="43.17793" lon="-0.65173">
        <ele>219</ele>
        <time>2018-09-30T06:49:40.000Z</time>
      </trkpt>
      <trkpt lat="43.17788" lon="-0.65176">
        <ele>219</ele>
        <time>2018-09-30T06:49:41.000Z</time>
      </trkpt>
      <trkpt lat="43.17784" lon="-0.6518">
        <ele>219</ele>
        <time>2018-09-30T06:49:42.000Z</time>
      </trkpt>
      <trkpt lat="43.17779" lon="-0.65183">
        <ele>219</ele>
        <time>2018-09-30T06:49:43.000Z</time>
      </trkpt>
      <trkpt lat="43.17775" lon="-0.65187">
        <ele>219</ele>
        <time>2018-09-30T06:49:44.000Z</time>
      </trkpt>
      <trkpt lat="43.1777" lon="-0.65191">
        <ele>219</ele>
        <time>2018-09-30T06:49:45.000Z</time>
      </trkpt>
      <trkpt lat="43.17765" lon="-0.65194">
        <ele>219</ele>
        <time>2018-09-30T06:49:46.000Z</time>
      </trkpt>
      <trkpt lat="43.1776" lon="-0.65198">
        <ele>219</ele>
        <time>2018-09-30T06:49:47.000Z</time>
      </trkpt>
      <trkpt lat="43.17756" lon="-0.65201">
        <ele>219</ele>
        <time>2018-09-30T06:49:48.000Z</time>
      </trkpt>
      <trkpt lat="43.17751" lon="-0.65205">
        <ele>219</ele>
        <time>2018-09-30T06:49:49.000Z</time>
      </trkpt>
      <trkpt lat="43.17747" lon="-0.65209">
        <ele>219</ele>
        <time>2018-09-30T06:49:50.000Z</time>
      </trkpt>
      <trkpt lat="43.17743" lon="-0.65212">
        <ele>219</ele>
        <time>2018-09-30T06:49:51.000Z</time>
      </trkpt>
      <trkpt lat="43.17738" lon="-0.65215">
        <ele>219</ele>
        <time>2018-09-30T06:49:52.000Z</time>
      </trkpt>
      <trkpt lat="43.17734" lon="-0.65219">
        <ele>219</ele>
        <time>2018-09-30T06:49:53.000Z</time>
      </trkpt>
      <trkpt lat="43.1773" lon="-0.65222">
        <ele>219</ele>
        <time>2018-09-30T06:49:54.000Z</time>
      </trkpt>
      <trkpt lat="43.17726" lon="-0.65226">
        <ele>219</ele>
        <time>2018-09-30T06:49:55.000Z</time>
      </trkpt>
      <trkpt lat="43.17722" lon="-0.65229">
        <ele>219.5900032</ele>
        <time>2018-09-30T06:49:56.000Z</time>
      </trkpt>
      <trkpt lat="43.17717" lon="-0.65233">
        <ele>220</ele>
        <time>2018-09-30T06:49:57.000Z</time>
      </trkpt>
      <trkpt lat="43.17713" lon="-0.65236">
        <ele>220</ele>
        <time>2018-09-30T06:49:58.000Z</time>
      </trkpt>
      <trkpt lat="43.17709" lon="-0.6524">
        <ele>220</ele>
        <time>2018-09-30T06:49:59.000Z</time>
      </trkpt>
      <trkpt lat="43.17705" lon="-0.65243">
        <ele>220</ele>
        <time>2018-09-30T06:50:00.000Z</time>
      </trkpt>
      <trkpt lat="43.17701" lon="-0.65246">
        <ele>220</ele>
        <time>2018-09-30T06:50:01.000Z</time>
      </trkpt>
      <trkpt lat="43.17697" lon="-0.6525">
        <ele>220</ele>
        <time>2018-09-30T06:50:02.000Z</time>
      </trkpt>
      <trkpt lat="43.17693" lon="-0.65253">
        <ele>220</ele>
        <time>2018-09-30T06:50:03.000Z</time>
      </trkpt>
      <trkpt lat="43.17689" lon="-0.65256">
        <ele>220</ele>
        <time>2018-09-30T06:50:04.000Z</time>
      </trkpt>
      <trkpt lat="43.17685" lon="-0.65259">
        <ele>220</ele>
        <time>2018-09-30T06:50:05.000Z</time>
      </trkpt>
      <trkpt lat="43.1768" lon="-0.65263">
        <ele>220</ele>
        <time>2018-09-30T06:50:06.000Z</time>
      </trkpt>
      <trkpt lat="43.17676" lon="-0.65266">
        <ele>220</ele>
        <time>2018-09-30T06:50:07.000Z</time>
      </trkpt>
      <trkpt lat="43.17672" lon="-0.6527">
        <ele>220</ele>
        <time>2018-09-30T06:50:08.000Z</time>
      </trkpt>
      <trkpt lat="43.17667" lon="-0.65274">
        <ele>220</ele>
        <time>2018-09-30T06:50:09.000Z</time>
      </trkpt>
      <trkpt lat="43.17663" lon="-0.65278">
        <ele>220</ele>
        <time>2018-09-30T06:50:10.000Z</time>
      </trkpt>
      <trkpt lat="43.17658" lon="-0.65282">
        <ele>220</ele>
        <time>2018-09-30T06:50:11.000Z</time>
      </trkpt>
      <trkpt lat="43.17654" lon="-0.65286">
        <ele>220</ele>
        <time>2018-09-30T06:50:12.000Z</time>
      </trkpt>
      <trkpt lat="43.17649" lon="-0.6529">
        <ele>220</ele>
        <time>2018-09-30T06:50:13.000Z</time>
      </trkpt>
      <trkpt lat="43.17644" lon="-0.65294">
        <ele>220</ele>
        <time>2018-09-30T06:50:14.000Z</time>
      </trkpt>
      <trkpt lat="43.17639" lon="-0.65297">
        <ele>220</ele>
        <time>2018-09-30T06:50:15.000Z</time>
      </trkpt>
      <trkpt lat="43.17635" lon="-0.65301">
        <ele>220</ele>
        <time>2018-09-30T06:50:16.000Z</time>
      </trkpt>
      <trkpt lat="43.1763" lon="-0.65305">
        <ele>220</ele>
        <time>2018-09-30T06:50:17.000Z</time>
      </trkpt>
      <trkpt lat="43.17625" lon="-0.65308">
        <ele>220</ele>
        <time>2018-09-30T06:50:18.000Z</time>
      </trkpt>
      <trkpt lat="43.17621" lon="-0.65311">
        <ele>220</ele>
        <time>2018-09-30T06:50:19.000Z</time>
      </trkpt>
      <trkpt lat="43.17617" lon="-0.65314">
        <ele>220</ele>
        <time>2018-09-30T06:50:20.000Z</time>
      </trkpt>
      <trkpt lat="43.17613" lon="-0.65317">
        <ele>220</ele>
        <time>2018-09-30T06:50:21.000Z</time>
      </trkpt>
      <trkpt lat="43.17609" lon="-0.65319">
        <ele>220</ele>
        <time>2018-09-30T06:50:22.000Z</time>
      </trkpt>
      <trkpt lat="43.17605" lon="-0.65321">
        <ele>220</ele>
        <time>2018-09-30T06:50:23.000Z</time>
      </trkpt>
      <trkpt lat="43.176" lon="-0.65323">
        <ele>220.45384638106</ele>
        <time>2018-09-30T06:50:24.000Z</time>
      </trkpt>
      <trkpt lat="43.17596" lon="-0.65325">
        <ele>221</ele>
        <time>2018-09-30T06:50:25.000Z</time>
      </trkpt>
      <trkpt lat="43.17591" lon="-0.65327">
        <ele>221</ele>
        <time>2018-09-30T06:50:26.000Z</time>
      </trkpt>
      <trkpt lat="43.17586" lon="-0.65329">
        <ele>221</ele>
        <time>2018-09-30T06:50:27.000Z</time>
      </trkpt>
      <trkpt lat="43.17581" lon="-0.6533">
        <ele>221</ele>
        <time>2018-09-30T06:50:28.000Z</time>
      </trkpt>
      <trkpt lat="43.17577" lon="-0.65331">
        <ele>221</ele>
        <time>2018-09-30T06:50:29.000Z</time>
      </trkpt>
      <trkpt lat="43.17572" lon="-0.65332">
        <ele>221</ele>
        <time>2018-09-30T06:50:30.000Z</time>
      </trkpt>
      <trkpt lat="43.17567" lon="-0.65333">
        <ele>221</ele>
        <time>2018-09-30T06:50:31.000Z</time>
      </trkpt>
      <trkpt lat="43.17562" lon="-0.65334">
        <ele>221</ele>
        <time>2018-09-30T06:50:32.000Z</time>
      </trkpt>
      <trkpt lat="43.17557" lon="-0.65335">
        <ele>221</ele>
        <time>2018-09-30T06:50:33.000Z</time>
      </trkpt>
      <trkpt lat="43.17552" lon="-0.65335">
        <ele>221</ele>
        <time>2018-09-30T06:50:34.000Z</time>
      </trkpt>
      <trkpt lat="43.17548" lon="-0.65335">
        <ele>221</ele>
        <time>2018-09-30T06:50:35.000Z</time>
      </trkpt>
      <trkpt lat="43.17543" lon="-0.65336">
        <ele>221</ele>
        <time>2018-09-30T06:50:36.000Z</time>
      </trkpt>
      <trkpt lat="43.17537" lon="-0.65336">
        <ele>221</ele>
        <time>2018-09-30T06:50:37.000Z</time>
      </trkpt>
      <trkpt lat="43.17532" lon="-0.65337">
        <ele>221</ele>
        <time>2018-09-30T06:50:38.000Z</time>
      </trkpt>
      <trkpt lat="43.17527" lon="-0.65337">
        <ele>221</ele>
        <time>2018-09-30T06:50:39.000Z</time>
      </trkpt>
      <trkpt lat="43.17523" lon="-0.65338">
        <ele>221</ele>
        <time>2018-09-30T06:50:40.000Z</time>
      </trkpt>
      <trkpt lat="43.17518" lon="-0.65338">
        <ele>221</ele>
        <time>2018-09-30T06:50:41.000Z</time>
      </trkpt>
      <trkpt lat="43.17513" lon="-0.65339">
        <ele>221</ele>
        <time>2018-09-30T06:50:42.000Z</time>
      </trkpt>
      <trkpt lat="43.17508" lon="-0.65339">
        <ele>221</ele>
        <time>2018-09-30T06:50:43.000Z</time>
      </trkpt>
      <trkpt lat="43.17504" lon="-0.65339">
        <ele>221</ele>
        <time>2018-09-30T06:50:44.000Z</time>
      </trkpt>
      <trkpt lat="43.17499" lon="-0.65338">
        <ele>221.5900032</ele>
        <time>2018-09-30T06:50:45.000Z</time>
      </trkpt>
      <trkpt lat="43.17495" lon="-0.65338">
        <ele>222</ele>
        <time>2018-09-30T06:50:46.000Z</time>
      </trkpt>
      <trkpt lat="43.1749" lon="-0.65338">
        <ele>222</ele>
        <time>2018-09-30T06:50:47.000Z</time>
      </trkpt>
      <trkpt lat="43.17486" lon="-0.65338">
        <ele>222</ele>
        <time>2018-09-30T06:50:48.000Z</time>
      </trkpt>
      <trkpt lat="43.17481" lon="-0.65337">
        <ele>222</ele>
        <time>2018-09-30T06:50:49.000Z</time>
      </trkpt>
      <trkpt lat="43.17477" lon="-0.65337">
        <ele>222</ele>
        <time>2018-09-30T06:50:50.000Z</time>
      </trkpt>
      <trkpt lat="43.17466" lon="-0.65335">
        <ele>222</ele>
        <time>2018-09-30T06:50:53.000Z</time>
      </trkpt>
      <trkpt lat="43.17454" lon="-0.65331">
        <ele>222</ele>
        <time>2018-09-30T06:50:56.000Z</time>
      </trkpt>
      <trkpt lat="43.17441" lon="-0.6533">
        <ele>223</ele>
        <time>2018-09-30T06:50:59.000Z</time>
      </trkpt>
      <trkpt lat="43.1743" lon="-0.65331">
        <ele>222.4099968</ele>
        <time>2018-09-30T06:51:01.000Z</time>
      </trkpt>
      <trkpt lat="43.17419" lon="-0.6533">
        <ele>222</ele>
        <time>2018-09-30T06:51:03.000Z</time>
      </trkpt>
      <trkpt lat="43.17407" lon="-0.65333">
        <ele>222</ele>
        <time>2018-09-30T06:51:05.000Z</time>
      </trkpt>
      <trkpt lat="43.17395" lon="-0.65339">
        <ele>222</ele>
        <time>2018-09-30T06:51:07.000Z</time>
      </trkpt>
      <trkpt lat="43.17384" lon="-0.65346">
        <ele>221</ele>
        <time>2018-09-30T06:51:09.000Z</time>
      </trkpt>
      <trkpt lat="43.17374" lon="-0.65353">
        <ele>221</ele>
        <time>2018-09-30T06:51:11.000Z</time>
      </trkpt>
      <trkpt lat="43.17361" lon="-0.65365">
        <ele>221</ele>
        <time>2018-09-30T06:51:14.000Z</time>
      </trkpt>
      <trkpt lat="43.1735" lon="-0.65379">
        <ele>222</ele>
        <time>2018-09-30T06:51:17.000Z</time>
      </trkpt>
      <trkpt lat="43.17344" lon="-0.65393">
        <ele>223.5900032</ele>
        <time>2018-09-30T06:51:20.000Z</time>
      </trkpt>
      <trkpt lat="43.17336" lon="-0.65403">
        <ele>225</ele>
        <time>2018-09-30T06:51:23.000Z</time>
      </trkpt>
      <trkpt lat="43.17327" lon="-0.65414">
        <ele>226</ele>
        <time>2018-09-30T06:51:26.000Z</time>
      </trkpt>
      <trkpt lat="43.1732" lon="-0.65428">
        <ele>227</ele>
        <time>2018-09-30T06:51:31.000Z</time>
      </trkpt>
      <trkpt lat="43.17313" lon="-0.65442">
        <ele>228</ele>
        <time>2018-09-30T06:51:35.000Z</time>
      </trkpt>
      <trkpt lat="43.17309" lon="-0.65448">
        <ele>228</ele>
        <time>2018-09-30T06:51:37.000Z</time>
      </trkpt>
      <trkpt lat="43.17301" lon="-0.65461">
        <ele>229</ele>
        <time>2018-09-30T06:51:41.000Z</time>
      </trkpt>
      <trkpt lat="43.17292" lon="-0.65474">
        <ele>229</ele>
        <time>2018-09-30T06:51:44.000Z</time>
      </trkpt>
      <trkpt lat="43.17284" lon="-0.65486">
        <ele>229</ele>
        <time>2018-09-30T06:51:47.000Z</time>
      </trkpt>
      <trkpt lat="43.17275" lon="-0.65499">
        <ele>229</ele>
        <time>2018-09-30T06:51:50.000Z</time>
      </trkpt>
      <trkpt lat="43.1727" lon="-0.65515">
        <ele>229</ele>
        <time>2018-09-30T06:51:53.000Z</time>
      </trkpt>
      <trkpt lat="43.17268" lon="-0.65534">
        <ele>229</ele>
        <time>2018-09-30T06:51:56.000Z</time>
      </trkpt>
      <trkpt lat="43.17269" lon="-0.65553">
        <ele>229</ele>
        <time>2018-09-30T06:51:59.000Z</time>
      </trkpt>
      <trkpt lat="43.17269" lon="-0.65569">
        <ele>229</ele>
        <time>2018-09-30T06:52:01.000Z</time>
      </trkpt>
      <trkpt lat="43.17269" lon="-0.65585">
        <ele>228</ele>
        <time>2018-09-30T06:52:03.000Z</time>
      </trkpt>
      <trkpt lat="43.17267" lon="-0.65606">
        <ele>228</ele>
        <time>2018-09-30T06:52:06.000Z</time>
      </trkpt>
      <trkpt lat="43.17267" lon="-0.65622">
        <ele>229</ele>
        <time>2018-09-30T06:52:09.000Z</time>
      </trkpt>
      <trkpt lat="43.1727" lon="-0.65636">
        <ele>229.4142849306</ele>
        <time>2018-09-30T06:52:12.000Z</time>
      </trkpt>
      <trkpt lat="43.17275" lon="-0.6565">
        <ele>230</ele>
        <time>2018-09-30T06:52:15.000Z</time>
      </trkpt>
      <trkpt lat="43.17281" lon="-0.65665">
        <ele>230</ele>
        <time>2018-09-30T06:52:18.000Z</time>
      </trkpt>
      <trkpt lat="43.17289" lon="-0.65679">
        <ele>230</ele>
        <time>2018-09-30T06:52:21.000Z</time>
      </trkpt>
      <trkpt lat="43.17299" lon="-0.65691">
        <ele>230.43056</ele>
        <time>2018-09-30T06:52:24.000Z</time>
      </trkpt>
      <trkpt lat="43.17306" lon="-0.65705">
        <ele>231</ele>
        <time>2018-09-30T06:52:27.000Z</time>
      </trkpt>
      <trkpt lat="43.17315" lon="-0.65719">
        <ele>231</ele>
        <time>2018-09-30T06:52:30.000Z</time>
      </trkpt>
      <trkpt lat="43.17324" lon="-0.65732">
        <ele>231</ele>
        <time>2018-09-30T06:52:33.000Z</time>
      </trkpt>
      <trkpt lat="43.17334" lon="-0.65744">
        <ele>231</ele>
        <time>2018-09-30T06:52:36.000Z</time>
      </trkpt>
      <trkpt lat="43.17344" lon="-0.65756">
        <ele>231</ele>
        <time>2018-09-30T06:52:39.000Z</time>
      </trkpt>
      <trkpt lat="43.17355" lon="-0.65767">
        <ele>231</ele>
        <time>2018-09-30T06:52:42.000Z</time>
      </trkpt>
      <trkpt lat="43.17367" lon="-0.65778">
        <ele>231</ele>
        <time>2018-09-30T06:52:45.000Z</time>
      </trkpt>
      <trkpt lat="43.17378" lon="-0.65791">
        <ele>232</ele>
        <time>2018-09-30T06:52:48.000Z</time>
      </trkpt>
      <trkpt lat="43.17386" lon="-0.65806">
        <ele>232</ele>
        <time>2018-09-30T06:52:51.000Z</time>
      </trkpt>
      <trkpt lat="43.17395" lon="-0.6582">
        <ele>232</ele>
        <time>2018-09-30T06:52:54.000Z</time>
      </trkpt>
      <trkpt lat="43.17403" lon="-0.65839">
        <ele>232</ele>
        <time>2018-09-30T06:52:57.000Z</time>
      </trkpt>
      <trkpt lat="43.17412" lon="-0.65857">
        <ele>232</ele>
        <time>2018-09-30T06:53:00.000Z</time>
      </trkpt>
      <trkpt lat="43.17418" lon="-0.65869">
        <ele>232</ele>
        <time>2018-09-30T06:53:02.000Z</time>
      </trkpt>
      <trkpt lat="43.17424" lon="-0.65887">
        <ele>232</ele>
        <time>2018-09-30T06:53:05.000Z</time>
      </trkpt>
      <trkpt lat="43.17428" lon="-0.65904">
        <ele>233.4142849306</ele>
        <time>2018-09-30T06:53:08.000Z</time>
      </trkpt>
      <trkpt lat="43.17431" lon="-0.65919">
        <ele>234</ele>
        <time>2018-09-30T06:53:11.000Z</time>
      </trkpt>
      <trkpt lat="43.17434" lon="-0.65937">
        <ele>234</ele>
        <time>2018-09-30T06:53:14.000Z</time>
      </trkpt>
      <trkpt lat="43.1744" lon="-0.65955">
        <ele>234</ele>
        <time>2018-09-30T06:53:17.000Z</time>
      </trkpt>
      <trkpt lat="43.17445" lon="-0.65972">
        <ele>234</ele>
        <time>2018-09-30T06:53:20.000Z</time>
      </trkpt>
      <trkpt lat="43.17451" lon="-0.65989">
        <ele>234</ele>
        <time>2018-09-30T06:53:23.000Z</time>
      </trkpt>
      <trkpt lat="43.17458" lon="-0.66004">
        <ele>235</ele>
        <time>2018-09-30T06:53:26.000Z</time>
      </trkpt>
      <trkpt lat="43.17462" lon="-0.66019">
        <ele>236</ele>
        <time>2018-09-30T06:53:29.000Z</time>
      </trkpt>
      <trkpt lat="43.17467" lon="-0.66036">
        <ele>236</ele>
        <time>2018-09-30T06:53:32.000Z</time>
      </trkpt>
      <trkpt lat="43.1747" lon="-0.66053">
        <ele>236</ele>
        <time>2018-09-30T06:53:35.000Z</time>
      </trkpt>
      <trkpt lat="43.17474" lon="-0.66067">
        <ele>236</ele>
        <time>2018-09-30T06:53:38.000Z</time>
      </trkpt>
      <trkpt lat="43.17483" lon="-0.66081">
        <ele>237</ele>
        <time>2018-09-30T06:53:41.000Z</time>
      </trkpt>
      <trkpt lat="43.17488" lon="-0.66096">
        <ele>237</ele>
        <time>2018-09-30T06:53:44.000Z</time>
      </trkpt>
      <trkpt lat="43.17496" lon="-0.66113">
        <ele>237</ele>
        <time>2018-09-30T06:53:47.000Z</time>
      </trkpt>
      <trkpt lat="43.175" lon="-0.66129">
        <ele>237</ele>
        <time>2018-09-30T06:53:50.000Z</time>
      </trkpt>
      <trkpt lat="43.17502" lon="-0.6615">
        <ele>237</ele>
        <time>2018-09-30T06:53:53.000Z</time>
      </trkpt>
      <trkpt lat="43.17501" lon="-0.66165">
        <ele>237</ele>
        <time>2018-09-30T06:53:55.000Z</time>
      </trkpt>
      <trkpt lat="43.175" lon="-0.66181">
        <ele>237</ele>
        <time>2018-09-30T06:53:57.000Z</time>
      </trkpt>
      <trkpt lat="43.175" lon="-0.66196">
        <ele>237</ele>
        <time>2018-09-30T06:53:59.000Z</time>
      </trkpt>
      <trkpt lat="43.17499" lon="-0.66212">
        <ele>237.4099968</ele>
        <time>2018-09-30T06:54:01.000Z</time>
      </trkpt>
      <trkpt lat="43.175" lon="-0.66227">
        <ele>237</ele>
        <time>2018-09-30T06:54:03.000Z</time>
      </trkpt>
      <trkpt lat="43.17502" lon="-0.66243">
        <ele>237</ele>
        <time>2018-09-30T06:54:05.000Z</time>
      </trkpt>
      <trkpt lat="43.1751" lon="-0.66258">
        <ele>237</ele>
        <time>2018-09-30T06:54:07.000Z</time>
      </trkpt>
      <trkpt lat="43.17517" lon="-0.66273">
        <ele>237</ele>
        <time>2018-09-30T06:54:09.000Z</time>
      </trkpt>
      <trkpt lat="43.17521" lon="-0.66292">
        <ele>238</ele>
        <time>2018-09-30T06:54:12.000Z</time>
      </trkpt>
      <trkpt lat="43.17526" lon="-0.66309">
        <ele>238</ele>
        <time>2018-09-30T06:54:15.000Z</time>
      </trkpt>
      <trkpt lat="43.1753" lon="-0.66326">
        <ele>238.5900032</ele>
        <time>2018-09-30T06:54:18.000Z</time>
      </trkpt>
      <trkpt lat="43.17534" lon="-0.66341">
        <ele>239</ele>
        <time>2018-09-30T06:54:21.000Z</time>
      </trkpt>
      <trkpt lat="43.17543" lon="-0.66356">
        <ele>240</ele>
        <time>2018-09-30T06:54:24.000Z</time>
      </trkpt>
      <trkpt lat="43.17551" lon="-0.66371">
        <ele>240</ele>
        <time>2018-09-30T06:54:27.000Z</time>
      </trkpt>
      <trkpt lat="43.17563" lon="-0.66382">
        <ele>240</ele>
        <time>2018-09-30T06:54:30.000Z</time>
      </trkpt>
      <trkpt lat="43.17572" lon="-0.66396">
        <ele>240</ele>
        <time>2018-09-30T06:54:33.000Z</time>
      </trkpt>
      <trkpt lat="43.1758" lon="-0.66412">
        <ele>241</ele>
        <time>2018-09-30T06:54:37.000Z</time>
      </trkpt>
      <trkpt lat="43.17588" lon="-0.66425">
        <ele>241</ele>
        <time>2018-09-30T06:54:40.000Z</time>
      </trkpt>
      <trkpt lat="43.17597" lon="-0.66437">
        <ele>241</ele>
        <time>2018-09-30T06:54:43.000Z</time>
      </trkpt>
      <trkpt lat="43.17604" lon="-0.66451">
        <ele>242</ele>
        <time>2018-09-30T06:54:47.000Z</time>
      </trkpt>
      <trkpt lat="43.17609" lon="-0.66466">
        <ele>243.5900032</ele>
        <time>2018-09-30T06:54:52.000Z</time>
      </trkpt>
      <trkpt lat="43.1762" lon="-0.66473">
        <ele>244</ele>
        <time>2018-09-30T06:54:57.000Z</time>
      </trkpt>
      <trkpt lat="43.17629" lon="-0.66481">
        <ele>245</ele>
        <time>2018-09-30T06:55:01.000Z</time>
      </trkpt>
      <trkpt lat="43.17638" lon="-0.66491">
        <ele>245</ele>
        <time>2018-09-30T06:55:07.000Z</time>
      </trkpt>
      <trkpt lat="43.17641" lon="-0.66494">
        <ele>245</ele>
        <time>2018-09-30T06:55:12.000Z</time>
      </trkpt>
      <trkpt lat="43.17645" lon="-0.66497">
        <ele>245</ele>
        <time>2018-09-30T06:55:16.000Z</time>
      </trkpt>
      <trkpt lat="43.17647" lon="-0.66501">
        <ele>245.5900032</ele>
        <time>2018-09-30T06:55:32.000Z</time>
      </trkpt>
      <trkpt lat="43.1765" lon="-0.66502">
        <ele>246</ele>
        <time>2018-09-30T06:55:35.000Z</time>
      </trkpt>
      <trkpt lat="43.17654" lon="-0.66503">
        <ele>247</ele>
        <time>2018-09-30T06:55:38.000Z</time>
      </trkpt>
      <trkpt lat="43.17658" lon="-0.66505">
        <ele>248.5900032</ele>
        <time>2018-09-30T06:55:41.000Z</time>
      </trkpt>
      <trkpt lat="43.17663" lon="-0.66506">
        <ele>249.5900032</ele>
        <time>2018-09-30T06:55:45.000Z</time>
      </trkpt>
      <trkpt lat="43.17666" lon="-0.66507">
        <ele>250</ele>
        <time>2018-09-30T06:55:49.000Z</time>
      </trkpt>
      <trkpt lat="43.1767" lon="-0.66507">
        <ele>250</ele>
        <time>2018-09-30T06:55:57.000Z</time>
      </trkpt>
      <trkpt lat="43.17674" lon="-0.66509">
        <ele>251</ele>
        <time>2018-09-30T06:56:01.000Z</time>
      </trkpt>
      <trkpt lat="43.17678" lon="-0.66508">
        <ele>252</ele>
        <time>2018-09-30T06:56:04.000Z</time>
      </trkpt>
      <trkpt lat="43.17682" lon="-0.66507">
        <ele>253</ele>
        <time>2018-09-30T06:56:07.000Z</time>
      </trkpt>
      <trkpt lat="43.17686" lon="-0.66506">
        <ele>255</ele>
        <time>2018-09-30T06:56:13.000Z</time>
      </trkpt>
      <trkpt lat="43.1769" lon="-0.66505">
        <ele>255</ele>
        <time>2018-09-30T06:56:16.000Z</time>
      </trkpt>
      <trkpt lat="43.17694" lon="-0.66506">
        <ele>256</ele>
        <time>2018-09-30T06:56:23.000Z</time>
      </trkpt>
      <trkpt lat="43.17697" lon="-0.66506">
        <ele>256</ele>
        <time>2018-09-30T06:56:31.000Z</time>
      </trkpt>
      <trkpt lat="43.17701" lon="-0.66505">
        <ele>256</ele>
        <time>2018-09-30T06:56:47.000Z</time>
      </trkpt>
      <trkpt lat="43.17705" lon="-0.66505">
        <ele>256</ele>
        <time>2018-09-30T06:56:52.000Z</time>
      </trkpt>
      <trkpt lat="43.17709" lon="-0.66505">
        <ele>256</ele>
        <time>2018-09-30T06:57:00.000Z</time>
      </trkpt>
      <trkpt lat="43.17713" lon="-0.66506">
        <ele>257</ele>
        <time>2018-09-30T06:57:02.000Z</time>
      </trkpt>
      <trkpt lat="43.17717" lon="-0.66505">
        <ele>257.45736795626</ele>
        <time>2018-09-30T06:57:03.000Z</time>
      </trkpt>
      <trkpt lat="43.1772" lon="-0.66505">
        <ele>258</ele>
        <time>2018-09-30T06:57:04.000Z</time>
      </trkpt>
      <trkpt lat="43.17724" lon="-0.66504">
        <ele>258.5900032</ele>
        <time>2018-09-30T06:57:05.000Z</time>
      </trkpt>
      <trkpt lat="43.17738" lon="-0.66502">
        <ele>259</ele>
        <time>2018-09-30T06:57:10.000Z</time>
      </trkpt>
      <trkpt lat="43.17751" lon="-0.66502">
        <ele>260</ele>
        <time>2018-09-30T06:57:14.000Z</time>
      </trkpt>
      <trkpt lat="43.17762" lon="-0.66504">
        <ele>260</ele>
        <time>2018-09-30T06:57:17.000Z</time>
      </trkpt>
      <trkpt lat="43.17776" lon="-0.66508">
        <ele>259</ele>
        <time>2018-09-30T06:57:20.000Z</time>
      </trkpt>
      <trkpt lat="43.17789" lon="-0.66504">
        <ele>258.56944</ele>
        <time>2018-09-30T06:57:23.000Z</time>
      </trkpt>
      <trkpt lat="43.17799" lon="-0.66499">
        <ele>259</ele>
        <time>2018-09-30T06:57:26.000Z</time>
      </trkpt>
      <trkpt lat="43.17811" lon="-0.66492">
        <ele>260</ele>
        <time>2018-09-30T06:57:31.000Z</time>
      </trkpt>
      <trkpt lat="43.17821" lon="-0.66479">
        <ele>260</ele>
        <time>2018-09-30T06:57:36.000Z</time>
      </trkpt>
      <trkpt lat="43.17831" lon="-0.66469">
        <ele>262</ele>
        <time>2018-09-30T06:57:41.000Z</time>
      </trkpt>
      <trkpt lat="43.17834" lon="-0.66466">
        <ele>262</ele>
        <time>2018-09-30T06:57:43.000Z</time>
      </trkpt>
      <trkpt lat="43.17837" lon="-0.66462">
        <ele>262</ele>
        <time>2018-09-30T06:57:46.000Z</time>
      </trkpt>
      <trkpt lat="43.17842" lon="-0.66458">
        <ele>263.5900032</ele>
        <time>2018-09-30T06:57:49.000Z</time>
      </trkpt>
      <trkpt lat="43.17845" lon="-0.66454">
        <ele>264.58416343497</ele>
        <time>2018-09-30T06:57:52.000Z</time>
      </trkpt>
      <trkpt lat="43.17848" lon="-0.66451">
        <ele>265</ele>
        <time>2018-09-30T06:57:54.000Z</time>
      </trkpt>
      <trkpt lat="43.17851" lon="-0.66445">
        <ele>266</ele>
        <time>2018-09-30T06:57:57.000Z</time>
      </trkpt>
      <trkpt lat="43.17853" lon="-0.66441">
        <ele>266</ele>
        <time>2018-09-30T06:58:00.000Z</time>
      </trkpt>
      <trkpt lat="43.17855" lon="-0.66437">
        <ele>266</ele>
        <time>2018-09-30T06:58:03.000Z</time>
      </trkpt>
      <trkpt lat="43.17858" lon="-0.66432">
        <ele>267</ele>
        <time>2018-09-30T06:58:06.000Z</time>
      </trkpt>
      <trkpt lat="43.1786" lon="-0.66428">
        <ele>268</ele>
        <time>2018-09-30T06:58:11.000Z</time>
      </trkpt>
      <trkpt lat="43.17862" lon="-0.66423">
        <ele>268</ele>
        <time>2018-09-30T06:58:20.000Z</time>
      </trkpt>
      <trkpt lat="43.17864" lon="-0.66417">
        <ele>269</ele>
        <time>2018-09-30T06:58:24.000Z</time>
      </trkpt>
      <trkpt lat="43.17866" lon="-0.66412">
        <ele>269</ele>
        <time>2018-09-30T06:58:27.000Z</time>
      </trkpt>
      <trkpt lat="43.17866" lon="-0.66407">
        <ele>269</ele>
        <time>2018-09-30T06:58:30.000Z</time>
      </trkpt>
      <trkpt lat="43.17867" lon="-0.66402">
        <ele>270</ele>
        <time>2018-09-30T06:58:33.000Z</time>
      </trkpt>
      <trkpt lat="43.17868" lon="-0.66395">
        <ele>271</ele>
        <time>2018-09-30T06:58:36.000Z</time>
      </trkpt>
      <trkpt lat="43.17869" lon="-0.66389">
        <ele>273</ele>
        <time>2018-09-30T06:58:39.000Z</time>
      </trkpt>
      <trkpt lat="43.17871" lon="-0.66382">
        <ele>274.58416343497</ele>
        <time>2018-09-30T06:58:42.000Z</time>
      </trkpt>
      <trkpt lat="43.17872" lon="-0.66376">
        <ele>275</ele>
        <time>2018-09-30T06:58:44.000Z</time>
      </trkpt>
      <trkpt lat="43.17873" lon="-0.6637">
        <ele>275</ele>
        <time>2018-09-30T06:58:46.000Z</time>
      </trkpt>
      <trkpt lat="43.17875" lon="-0.66365">
        <ele>275.5900032</ele>
        <time>2018-09-30T06:58:48.000Z</time>
      </trkpt>
      <trkpt lat="43.17876" lon="-0.66358">
        <ele>277</ele>
        <time>2018-09-30T06:58:51.000Z</time>
      </trkpt>
      <trkpt lat="43.17879" lon="-0.66352">
        <ele>277</ele>
        <time>2018-09-30T06:58:54.000Z</time>
      </trkpt>
      <trkpt lat="43.17881" lon="-0.66346">
        <ele>277</ele>
        <time>2018-09-30T06:58:57.000Z</time>
      </trkpt>
      <trkpt lat="43.17884" lon="-0.66341">
        <ele>277</ele>
        <time>2018-09-30T06:58:59.000Z</time>
      </trkpt>
      <trkpt lat="43.17886" lon="-0.66334">
        <ele>277.5900032</ele>
        <time>2018-09-30T06:59:01.000Z</time>
      </trkpt>
      <trkpt lat="43.17889" lon="-0.66327">
        <ele>278</ele>
        <time>2018-09-30T06:59:03.000Z</time>
      </trkpt>
      <trkpt lat="43.17893" lon="-0.66322">
        <ele>279</ele>
        <time>2018-09-30T06:59:05.000Z</time>
      </trkpt>
      <trkpt lat="43.17901" lon="-0.66311">
        <ele>279</ele>
        <time>2018-09-30T06:59:09.000Z</time>
      </trkpt>
      <trkpt lat="43.17907" lon="-0.66299">
        <ele>279</ele>
        <time>2018-09-30T06:59:13.000Z</time>
      </trkpt>
      <trkpt lat="43.17915" lon="-0.66286">
        <ele>280.5900032</ele>
        <time>2018-09-30T06:59:18.000Z</time>
      </trkpt>
      <trkpt lat="43.17922" lon="-0.66271">
        <ele>281</ele>
        <time>2018-09-30T06:59:23.000Z</time>
      </trkpt>
      <trkpt lat="43.1793" lon="-0.66259">
        <ele>281</ele>
        <time>2018-09-30T06:59:28.000Z</time>
      </trkpt>
      <trkpt lat="43.17939" lon="-0.66247">
        <ele>282</ele>
        <time>2018-09-30T06:59:33.000Z</time>
      </trkpt>
      <trkpt lat="43.17947" lon="-0.66233">
        <ele>283.5900032</ele>
        <time>2018-09-30T06:59:38.000Z</time>
      </trkpt>
      <trkpt lat="43.17952" lon="-0.66225">
        <ele>285</ele>
        <time>2018-09-30T06:59:41.000Z</time>
      </trkpt>
      <trkpt lat="43.17961" lon="-0.66213">
        <ele>285</ele>
        <time>2018-09-30T06:59:46.000Z</time>
      </trkpt>
      <trkpt lat="43.17971" lon="-0.66202">
        <ele>285</ele>
        <time>2018-09-30T06:59:50.000Z</time>
      </trkpt>
      <trkpt lat="43.17979" lon="-0.6619">
        <ele>285.5900032</ele>
        <time>2018-09-30T06:59:53.000Z</time>
      </trkpt>
      <trkpt lat="43.17987" lon="-0.66179">
        <ele>286</ele>
        <time>2018-09-30T06:59:57.000Z</time>
      </trkpt>
      <trkpt lat="43.17994" lon="-0.66166">
        <ele>286</ele>
        <time>2018-09-30T07:00:01.000Z</time>
      </trkpt>
      <trkpt lat="43.17999" lon="-0.66152">
        <ele>287</ele>
        <time>2018-09-30T07:00:05.000Z</time>
      </trkpt>
      <trkpt lat="43.18003" lon="-0.66145">
        <ele>287</ele>
        <time>2018-09-30T07:00:07.000Z</time>
      </trkpt>
      <trkpt lat="43.18012" lon="-0.66131">
        <ele>287.5900032</ele>
        <time>2018-09-30T07:00:12.000Z</time>
      </trkpt>
      <trkpt lat="43.18017" lon="-0.66117">
        <ele>289</ele>
        <time>2018-09-30T07:00:16.000Z</time>
      </trkpt>
      <trkpt lat="43.18024" lon="-0.661">
        <ele>290</ele>
        <time>2018-09-30T07:00:20.000Z</time>
      </trkpt>
      <trkpt lat="43.18029" lon="-0.66086">
        <ele>291</ele>
        <time>2018-09-30T07:00:24.000Z</time>
      </trkpt>
      <trkpt lat="43.18033" lon="-0.6608">
        <ele>291</ele>
        <time>2018-09-30T07:00:26.000Z</time>
      </trkpt>
      <trkpt lat="43.18036" lon="-0.66074">
        <ele>292</ele>
        <time>2018-09-30T07:00:28.000Z</time>
      </trkpt>
      <trkpt lat="43.18038" lon="-0.66066">
        <ele>292</ele>
        <time>2018-09-30T07:00:30.000Z</time>
      </trkpt>
      <trkpt lat="43.18039" lon="-0.6606">
        <ele>292.45736341807</ele>
        <time>2018-09-30T07:00:32.000Z</time>
      </trkpt>
      <trkpt lat="43.18039" lon="-0.66054">
        <ele>293</ele>
        <time>2018-09-30T07:00:34.000Z</time>
      </trkpt>
      <trkpt lat="43.1804" lon="-0.66049">
        <ele>293.5900032</ele>
        <time>2018-09-30T07:00:36.000Z</time>
      </trkpt>
      <trkpt lat="43.18041" lon="-0.66044">
        <ele>294</ele>
        <time>2018-09-30T07:00:38.000Z</time>
      </trkpt>
      <trkpt lat="43.18043" lon="-0.66038">
        <ele>295</ele>
        <time>2018-09-30T07:00:40.000Z</time>
      </trkpt>
      <trkpt lat="43.18044" lon="-0.66032">
        <ele>295</ele>
        <time>2018-09-30T07:00:42.000Z</time>
      </trkpt>
      <trkpt lat="43.18045" lon="-0.66027">
        <ele>296</ele>
        <time>2018-09-30T07:00:44.000Z</time>
      </trkpt>
      <trkpt lat="43.18047" lon="-0.6602">
        <ele>297</ele>
        <time>2018-09-30T07:00:46.000Z</time>
      </trkpt>
      <trkpt lat="43.18048" lon="-0.66015">
        <ele>297.5900032</ele>
        <time>2018-09-30T07:00:48.000Z</time>
      </trkpt>
      <trkpt lat="43.18053" lon="-0.66004">
        <ele>299</ele>
        <time>2018-09-30T07:00:52.000Z</time>
      </trkpt>
      <trkpt lat="43.18055" lon="-0.65997">
        <ele>299.5900032</ele>
        <time>2018-09-30T07:00:54.000Z</time>
      </trkpt>
      <trkpt lat="43.18056" lon="-0.65989">
        <ele>300</ele>
        <time>2018-09-30T07:00:56.000Z</time>
      </trkpt>
      <trkpt lat="43.18056" lon="-0.65981">
        <ele>300</ele>
        <time>2018-09-30T07:00:58.000Z</time>
      </trkpt>
      <trkpt lat="43.18055" lon="-0.65975">
        <ele>300</ele>
        <time>2018-09-30T07:01:00.000Z</time>
      </trkpt>
      <trkpt lat="43.18056" lon="-0.6597">
        <ele>301</ele>
        <time>2018-09-30T07:01:04.000Z</time>
      </trkpt>
      <trkpt lat="43.18061" lon="-0.6597">
        <ele>301</ele>
        <time>2018-09-30T07:01:09.000Z</time>
      </trkpt>
      <trkpt lat="43.18066" lon="-0.65971">
        <ele>301</ele>
        <time>2018-09-30T07:01:12.000Z</time>
      </trkpt>
      <trkpt lat="43.1807" lon="-0.65972">
        <ele>301</ele>
        <time>2018-09-30T07:01:14.000Z</time>
      </trkpt>
      <trkpt lat="43.18074" lon="-0.65973">
        <ele>302</ele>
        <time>2018-09-30T07:01:16.000Z</time>
      </trkpt>
      <trkpt lat="43.18078" lon="-0.65973">
        <ele>302</ele>
        <time>2018-09-30T07:01:18.000Z</time>
      </trkpt>
      <trkpt lat="43.18082" lon="-0.65974">
        <ele>302</ele>
        <time>2018-09-30T07:01:20.000Z</time>
      </trkpt>
      <trkpt lat="43.18086" lon="-0.65974">
        <ele>302.58163318618</ele>
        <time>2018-09-30T07:01:22.000Z</time>
      </trkpt>
      <trkpt lat="43.1809" lon="-0.65974">
        <ele>303</ele>
        <time>2018-09-30T07:01:24.000Z</time>
      </trkpt>
      <trkpt lat="43.18095" lon="-0.65974">
        <ele>303</ele>
        <time>2018-09-30T07:01:26.000Z</time>
      </trkpt>
      <trkpt lat="43.18099" lon="-0.65974">
        <ele>303</ele>
        <time>2018-09-30T07:01:28.000Z</time>
      </trkpt>
      <trkpt lat="43.18103" lon="-0.65975">
        <ele>303.98147957934</ele>
        <time>2018-09-30T07:01:30.000Z</time>
      </trkpt>
      <trkpt lat="43.18108" lon="-0.65976">
        <ele>304.5900032</ele>
        <time>2018-09-30T07:01:32.000Z</time>
      </trkpt>
      <trkpt lat="43.18113" lon="-0.65977">
        <ele>305</ele>
        <time>2018-09-30T07:01:34.000Z</time>
      </trkpt>
      <trkpt lat="43.18117" lon="-0.65978">
        <ele>305</ele>
        <time>2018-09-30T07:01:36.000Z</time>
      </trkpt>
      <trkpt lat="43.18122" lon="-0.65977">
        <ele>305.5900032</ele>
        <time>2018-09-30T07:01:38.000Z</time>
      </trkpt>
      <trkpt lat="43.18126" lon="-0.65975">
        <ele>306</ele>
        <time>2018-09-30T07:01:40.000Z</time>
      </trkpt>
      <trkpt lat="43.18129" lon="-0.65973">
        <ele>307</ele>
        <time>2018-09-30T07:01:42.000Z</time>
      </trkpt>
      <trkpt lat="43.18133" lon="-0.65969">
        <ele>307</ele>
        <time>2018-09-30T07:01:45.000Z</time>
      </trkpt>
      <trkpt lat="43.18136" lon="-0.65965">
        <ele>307</ele>
        <time>2018-09-30T07:01:50.000Z</time>
      </trkpt>
      <trkpt lat="43.18138" lon="-0.6596">
        <ele>307</ele>
        <time>2018-09-30T07:02:16.000Z</time>
      </trkpt>
      <trkpt lat="43.18141" lon="-0.65953">
        <ele>307</ele>
        <time>2018-09-30T07:02:19.000Z</time>
      </trkpt>
      <trkpt lat="43.18146" lon="-0.65947">
        <ele>307</ele>
        <time>2018-09-30T07:02:21.000Z</time>
      </trkpt>
      <trkpt lat="43.18151" lon="-0.65941">
        <ele>307</ele>
        <time>2018-09-30T07:02:23.000Z</time>
      </trkpt>
      <trkpt lat="43.18158" lon="-0.6594">
        <ele>306</ele>
        <time>2018-09-30T07:02:25.000Z</time>
      </trkpt>
      <trkpt lat="43.18174" lon="-0.65939">
        <ele>305</ele>
        <time>2018-09-30T07:02:28.000Z</time>
      </trkpt>
      <trkpt lat="43.18186" lon="-0.65941">
        <ele>305</ele>
        <time>2018-09-30T07:02:30.000Z</time>
      </trkpt>
      <trkpt lat="43.18198" lon="-0.65943">
        <ele>305</ele>
        <time>2018-09-30T07:02:32.000Z</time>
      </trkpt>
      <trkpt lat="43.1821" lon="-0.65946">
        <ele>306</ele>
        <time>2018-09-30T07:02:34.000Z</time>
      </trkpt>
      <trkpt lat="43.18222" lon="-0.65951">
        <ele>306</ele>
        <time>2018-09-30T07:02:37.000Z</time>
      </trkpt>
      <trkpt lat="43.18232" lon="-0.65958">
        <ele>307.5900032</ele>
        <time>2018-09-30T07:02:40.000Z</time>
      </trkpt>
      <trkpt lat="43.18241" lon="-0.65973">
        <ele>308</ele>
        <time>2018-09-30T07:02:44.000Z</time>
      </trkpt>
      <trkpt lat="43.18249" lon="-0.65984">
        <ele>308</ele>
        <time>2018-09-30T07:02:47.000Z</time>
      </trkpt>
      <trkpt lat="43.18258" lon="-0.65995">
        <ele>307</ele>
        <time>2018-09-30T07:02:50.000Z</time>
      </trkpt>
      <trkpt lat="43.18268" lon="-0.66002">
        <ele>307</ele>
        <time>2018-09-30T07:02:52.000Z</time>
      </trkpt>
      <trkpt lat="43.18279" lon="-0.66009">
        <ele>306</ele>
        <time>2018-09-30T07:02:54.000Z</time>
      </trkpt>
      <trkpt lat="43.18295" lon="-0.66012">
        <ele>306</ele>
        <time>2018-09-30T07:02:57.000Z</time>
      </trkpt>
      <trkpt lat="43.18299" lon="-0.66011">
        <ele>306</ele>
        <time>2018-09-30T07:02:58.000Z</time>
      </trkpt>
      <trkpt lat="43.18304" lon="-0.66011">
        <ele>306</ele>
        <time>2018-09-30T07:02:59.000Z</time>
      </trkpt>
      <trkpt lat="43.18316" lon="-0.66006">
        <ele>305</ele>
        <time>2018-09-30T07:03:02.000Z</time>
      </trkpt>
      <trkpt lat="43.18327" lon="-0.66">
        <ele>305</ele>
        <time>2018-09-30T07:03:05.000Z</time>
      </trkpt>
      <trkpt lat="43.18334" lon="-0.65995">
        <ele>305</ele>
        <time>2018-09-30T07:03:07.000Z</time>
      </trkpt>
      <trkpt lat="43.18339" lon="-0.65993">
        <ele>305</ele>
        <time>2018-09-30T07:03:08.000Z</time>
      </trkpt>
      <trkpt lat="43.18343" lon="-0.6599">
        <ele>305</ele>
        <time>2018-09-30T07:03:09.000Z</time>
      </trkpt>
      <trkpt lat="43.18347" lon="-0.65988">
        <ele>305</ele>
        <time>2018-09-30T07:03:10.000Z</time>
      </trkpt>
      <trkpt lat="43.18351" lon="-0.65986">
        <ele>305</ele>
        <time>2018-09-30T07:03:11.000Z</time>
      </trkpt>
      <trkpt lat="43.18355" lon="-0.65985">
        <ele>305.5900032</ele>
        <time>2018-09-30T07:03:12.000Z</time>
      </trkpt>
      <trkpt lat="43.18366" lon="-0.6598">
        <ele>306</ele>
        <time>2018-09-30T07:03:15.000Z</time>
      </trkpt>
      <trkpt lat="43.18376" lon="-0.65973">
        <ele>306</ele>
        <time>2018-09-30T07:03:18.000Z</time>
      </trkpt>
      <trkpt lat="43.18386" lon="-0.65967">
        <ele>306.5900032</ele>
        <time>2018-09-30T07:03:21.000Z</time>
      </trkpt>
      <trkpt lat="43.18399" lon="-0.6596">
        <ele>307</ele>
        <time>2018-09-30T07:03:24.000Z</time>
      </trkpt>
      <trkpt lat="43.1841" lon="-0.65954">
        <ele>307.5900032</ele>
        <time>2018-09-30T07:03:27.000Z</time>
      </trkpt>
      <trkpt lat="43.18422" lon="-0.65949">
        <ele>309.39706352941</ele>
        <time>2018-09-30T07:03:31.000Z</time>
      </trkpt>
      <trkpt lat="43.18432" lon="-0.65956">
        <ele>311</ele>
        <time>2018-09-30T07:03:36.000Z</time>
      </trkpt>
      <trkpt lat="43.18444" lon="-0.65959">
        <ele>311</ele>
        <time>2018-09-30T07:03:40.000Z</time>
      </trkpt>
      <trkpt lat="43.18456" lon="-0.6596">
        <ele>311</ele>
        <time>2018-09-30T07:03:43.000Z</time>
      </trkpt>
      <trkpt lat="43.18468" lon="-0.65962">
        <ele>310</ele>
        <time>2018-09-30T07:03:46.000Z</time>
      </trkpt>
      <trkpt lat="43.18479" lon="-0.65964">
        <ele>310</ele>
        <time>2018-09-30T07:03:48.000Z</time>
      </trkpt>
      <trkpt lat="43.18492" lon="-0.65965">
        <ele>309</ele>
        <time>2018-09-30T07:03:50.000Z</time>
      </trkpt>
      <trkpt lat="43.18503" lon="-0.65967">
        <ele>308.41583656503</ele>
        <time>2018-09-30T07:03:52.000Z</time>
      </trkpt>
      <trkpt lat="43.18514" lon="-0.65967">
        <ele>307</ele>
        <time>2018-09-30T07:03:54.000Z</time>
      </trkpt>
      <trkpt lat="43.1852" lon="-0.65966">
        <ele>307</ele>
        <time>2018-09-30T07:03:55.000Z</time>
      </trkpt>
      <trkpt lat="43.18527" lon="-0.65963">
        <ele>306.4099968</ele>
        <time>2018-09-30T07:03:56.000Z</time>
      </trkpt>
      <trkpt lat="43.1854" lon="-0.65953">
        <ele>305</ele>
        <time>2018-09-30T07:03:58.000Z</time>
      </trkpt>
      <trkpt lat="43.1855" lon="-0.65944">
        <ele>303.4099968</ele>
        <time>2018-09-30T07:04:00.000Z</time>
      </trkpt>
      <trkpt lat="43.1856" lon="-0.6594">
        <ele>301</ele>
        <time>2018-09-30T07:04:03.000Z</time>
      </trkpt>
      <trkpt lat="43.18557" lon="-0.65955">
        <ele>303.5900032</ele>
        <time>2018-09-30T07:04:11.000Z</time>
      </trkpt>
      <trkpt lat="43.1855" lon="-0.6597">
        <ele>305.5900032</ele>
        <time>2018-09-30T07:04:16.000Z</time>
      </trkpt>
      <trkpt lat="43.18546" lon="-0.65983">
        <ele>307.5900032</ele>
        <time>2018-09-30T07:04:19.000Z</time>
      </trkpt>
      <trkpt lat="43.18545" lon="-0.6599">
        <ele>308.43056</ele>
        <time>2018-09-30T07:04:21.000Z</time>
      </trkpt>
      <trkpt lat="43.18545" lon="-0.65998">
        <ele>310</ele>
        <time>2018-09-30T07:04:23.000Z</time>
      </trkpt>
      <trkpt lat="43.18545" lon="-0.66004">
        <ele>310.43056</ele>
        <time>2018-09-30T07:04:25.000Z</time>
      </trkpt>
      <trkpt lat="43.18543" lon="-0.6601">
        <ele>312</ele>
        <time>2018-09-30T07:04:27.000Z</time>
      </trkpt>
      <trkpt lat="43.18542" lon="-0.66017">
        <ele>312</ele>
        <time>2018-09-30T07:04:29.000Z</time>
      </trkpt>
      <trkpt lat="43.18539" lon="-0.66024">
        <ele>313</ele>
        <time>2018-09-30T07:04:31.000Z</time>
      </trkpt>
      <trkpt lat="43.18538" lon="-0.66029">
        <ele>314</ele>
        <time>2018-09-30T07:04:33.000Z</time>
      </trkpt>
      <trkpt lat="43.18535" lon="-0.66037">
        <ele>315.57843088043</ele>
        <time>2018-09-30T07:04:36.000Z</time>
      </trkpt>
      <trkpt lat="43.18533" lon="-0.66043">
        <ele>316.5900032</ele>
        <time>2018-09-30T07:04:38.000Z</time>
      </trkpt>
      <trkpt lat="43.18531" lon="-0.66049">
        <ele>317.43056</ele>
        <time>2018-09-30T07:04:40.000Z</time>
      </trkpt>
      <trkpt lat="43.18528" lon="-0.66058">
        <ele>318</ele>
        <time>2018-09-30T07:04:43.000Z</time>
      </trkpt>
      <trkpt lat="43.18526" lon="-0.66064">
        <ele>318.43056</ele>
        <time>2018-09-30T07:04:45.000Z</time>
      </trkpt>
      <trkpt lat="43.18524" lon="-0.6607">
        <ele>319</ele>
        <time>2018-09-30T07:04:47.000Z</time>
      </trkpt>
      <trkpt lat="43.18522" lon="-0.66075">
        <ele>319.5900032</ele>
        <time>2018-09-30T07:04:49.000Z</time>
      </trkpt>
      <trkpt lat="43.1852" lon="-0.66081">
        <ele>320.5900032</ele>
        <time>2018-09-30T07:04:51.000Z</time>
      </trkpt>
      <trkpt lat="43.18519" lon="-0.66086">
        <ele>321</ele>
        <time>2018-09-30T07:04:53.000Z</time>
      </trkpt>
      <trkpt lat="43.18515" lon="-0.66101">
        <ele>322</ele>
        <time>2018-09-30T07:04:58.000Z</time>
      </trkpt>
      <trkpt lat="43.1851" lon="-0.66117">
        <ele>322</ele>
        <time>2018-09-30T07:05:03.000Z</time>
      </trkpt>
      <trkpt lat="43.18506" lon="-0.66132">
        <ele>322</ele>
        <time>2018-09-30T07:05:07.000Z</time>
      </trkpt>
      <trkpt lat="43.18502" lon="-0.66149">
        <ele>323</ele>
        <time>2018-09-30T07:05:12.000Z</time>
      </trkpt>
      <trkpt lat="43.185" lon="-0.66165">
        <ele>324</ele>
        <time>2018-09-30T07:05:19.000Z</time>
      </trkpt>
      <trkpt lat="43.18503" lon="-0.6618">
        <ele>324</ele>
        <time>2018-09-30T07:05:26.000Z</time>
      </trkpt>
      <trkpt lat="43.18506" lon="-0.66197">
        <ele>324</ele>
        <time>2018-09-30T07:05:32.000Z</time>
      </trkpt>
      <trkpt lat="43.18506" lon="-0.66212">
        <ele>324.43056</ele>
        <time>2018-09-30T07:05:37.000Z</time>
      </trkpt>
      <trkpt lat="43.18506" lon="-0.66228">
        <ele>325</ele>
        <time>2018-09-30T07:05:42.000Z</time>
      </trkpt>
      <trkpt lat="43.18507" lon="-0.66245">
        <ele>326</ele>
        <time>2018-09-30T07:05:47.000Z</time>
      </trkpt>
      <trkpt lat="43.18507" lon="-0.66261">
        <ele>327</ele>
        <time>2018-09-30T07:05:51.000Z</time>
      </trkpt>
      <trkpt lat="43.18507" lon="-0.66276">
        <ele>328.45384638106</ele>
        <time>2018-09-30T07:05:55.000Z</time>
      </trkpt>
      <trkpt lat="43.1851" lon="-0.66292">
        <ele>329</ele>
        <time>2018-09-30T07:05:59.000Z</time>
      </trkpt>
      <trkpt lat="43.18512" lon="-0.66308">
        <ele>330</ele>
        <time>2018-09-30T07:06:03.000Z</time>
      </trkpt>
      <trkpt lat="43.18516" lon="-0.66324">
        <ele>330</ele>
        <time>2018-09-30T07:06:07.000Z</time>
      </trkpt>
      <trkpt lat="43.18519" lon="-0.6634">
        <ele>330</ele>
        <time>2018-09-30T07:06:11.000Z</time>
      </trkpt>
      <trkpt lat="43.18522" lon="-0.66355">
        <ele>330</ele>
        <time>2018-09-30T07:06:15.000Z</time>
      </trkpt>
      <trkpt lat="43.18527" lon="-0.6637">
        <ele>330.5900032</ele>
        <time>2018-09-30T07:06:19.000Z</time>
      </trkpt>
      <trkpt lat="43.18531" lon="-0.66388">
        <ele>330</ele>
        <time>2018-09-30T07:06:23.000Z</time>
      </trkpt>
      <trkpt lat="43.18534" lon="-0.66403">
        <ele>330</ele>
        <time>2018-09-30T07:06:26.000Z</time>
      </trkpt>
      <trkpt lat="43.18539" lon="-0.66416">
        <ele>330</ele>
        <time>2018-09-30T07:06:29.000Z</time>
      </trkpt>
      <trkpt lat="43.18545" lon="-0.6643">
        <ele>331</ele>
        <time>2018-09-30T07:06:32.000Z</time>
      </trkpt>
      <trkpt lat="43.18554" lon="-0.66443">
        <ele>331</ele>
        <time>2018-09-30T07:06:35.000Z</time>
      </trkpt>
      <trkpt lat="43.18559" lon="-0.66458">
        <ele>332</ele>
        <time>2018-09-30T07:06:38.000Z</time>
      </trkpt>
      <trkpt lat="43.18561" lon="-0.66472">
        <ele>332.5900032</ele>
        <time>2018-09-30T07:06:41.000Z</time>
      </trkpt>
      <trkpt lat="43.18562" lon="-0.66489">
        <ele>333</ele>
        <time>2018-09-30T07:06:45.000Z</time>
      </trkpt>
      <trkpt lat="43.1856" lon="-0.66504">
        <ele>333</ele>
        <time>2018-09-30T07:06:48.000Z</time>
      </trkpt>
      <trkpt lat="43.18557" lon="-0.6652">
        <ele>333</ele>
        <time>2018-09-30T07:06:51.000Z</time>
      </trkpt>
      <trkpt lat="43.1855" lon="-0.66539">
        <ele>332</ele>
        <time>2018-09-30T07:06:54.000Z</time>
      </trkpt>
      <trkpt lat="43.18542" lon="-0.66554">
        <ele>332</ele>
        <time>2018-09-30T07:06:56.000Z</time>
      </trkpt>
      <trkpt lat="43.18535" lon="-0.66571">
        <ele>330.4099968</ele>
        <time>2018-09-30T07:06:58.000Z</time>
      </trkpt>
      <trkpt lat="43.18527" lon="-0.66585">
        <ele>330</ele>
        <time>2018-09-30T07:07:00.000Z</time>
      </trkpt>
      <trkpt lat="43.1852" lon="-0.66602">
        <ele>329</ele>
        <time>2018-09-30T07:07:02.000Z</time>
      </trkpt>
      <trkpt lat="43.18514" lon="-0.6662">
        <ele>328.4099968</ele>
        <time>2018-09-30T07:07:04.000Z</time>
      </trkpt>
      <trkpt lat="43.18508" lon="-0.66637">
        <ele>327</ele>
        <time>2018-09-30T07:07:06.000Z</time>
      </trkpt>
      <trkpt lat="43.18502" lon="-0.66654">
        <ele>327</ele>
        <time>2018-09-30T07:07:08.000Z</time>
      </trkpt>
      <trkpt lat="43.18495" lon="-0.66672">
        <ele>326.4099968</ele>
        <time>2018-09-30T07:07:10.000Z</time>
      </trkpt>
      <trkpt lat="43.18486" lon="-0.66691">
        <ele>326</ele>
        <time>2018-09-30T07:07:12.000Z</time>
      </trkpt>
      <trkpt lat="43.18478" lon="-0.66708">
        <ele>326</ele>
        <time>2018-09-30T07:07:14.000Z</time>
      </trkpt>
      <trkpt lat="43.1847" lon="-0.66718">
        <ele>326</ele>
        <time>2018-09-30T07:07:16.000Z</time>
      </trkpt>
      <trkpt lat="43.18459" lon="-0.66729">
        <ele>326.5900032</ele>
        <time>2018-09-30T07:07:18.000Z</time>
      </trkpt>
      <trkpt lat="43.18451" lon="-0.6674">
        <ele>327</ele>
        <time>2018-09-30T07:07:20.000Z</time>
      </trkpt>
      <trkpt lat="43.1845" lon="-0.66756">
        <ele>327</ele>
        <time>2018-09-30T07:07:24.000Z</time>
      </trkpt>
      <trkpt lat="43.18455" lon="-0.66772">
        <ele>327</ele>
        <time>2018-09-30T07:07:29.000Z</time>
      </trkpt>
      <trkpt lat="43.1846" lon="-0.66787">
        <ele>327</ele>
        <time>2018-09-30T07:07:33.000Z</time>
      </trkpt>
      <trkpt lat="43.18461" lon="-0.66803">
        <ele>327</ele>
        <time>2018-09-30T07:07:40.000Z</time>
      </trkpt>
      <trkpt lat="43.1846" lon="-0.66818">
        <ele>328</ele>
        <time>2018-09-30T07:07:44.000Z</time>
      </trkpt>
      <trkpt lat="43.18459" lon="-0.66837">
        <ele>328</ele>
        <time>2018-09-30T07:07:49.000Z</time>
      </trkpt>
      <trkpt lat="43.18457" lon="-0.66854">
        <ele>328</ele>
        <time>2018-09-30T07:07:54.000Z</time>
      </trkpt>
      <trkpt lat="43.18454" lon="-0.66869">
        <ele>327</ele>
        <time>2018-09-30T07:08:01.000Z</time>
      </trkpt>
      <trkpt lat="43.18454" lon="-0.66886">
        <ele>327</ele>
        <time>2018-09-30T07:08:05.000Z</time>
      </trkpt>
      <trkpt lat="43.18458" lon="-0.66906">
        <ele>327</ele>
        <time>2018-09-30T07:08:09.000Z</time>
      </trkpt>
      <trkpt lat="43.18465" lon="-0.66921">
        <ele>326</ele>
        <time>2018-09-30T07:08:12.000Z</time>
      </trkpt>
      <trkpt lat="43.18471" lon="-0.66938">
        <ele>325</ele>
        <time>2018-09-30T07:08:15.000Z</time>
      </trkpt>
      <trkpt lat="43.18467" lon="-0.66954">
        <ele>324</ele>
        <time>2018-09-30T07:08:18.000Z</time>
      </trkpt>
      <trkpt lat="43.18466" lon="-0.66975">
        <ele>323</ele>
        <time>2018-09-30T07:08:21.000Z</time>
      </trkpt>
      <trkpt lat="43.18463" lon="-0.66998">
        <ele>321.4099968</ele>
        <time>2018-09-30T07:08:24.000Z</time>
      </trkpt>
      <trkpt lat="43.18463" lon="-0.67013">
        <ele>319.59420101658</ele>
        <time>2018-09-30T07:08:26.000Z</time>
      </trkpt>
      <trkpt lat="43.18459" lon="-0.6703">
        <ele>318</ele>
        <time>2018-09-30T07:08:29.000Z</time>
      </trkpt>
      <trkpt lat="43.18456" lon="-0.67045">
        <ele>316.4099968</ele>
        <time>2018-09-30T07:08:31.000Z</time>
      </trkpt>
      <trkpt lat="43.1845" lon="-0.67058">
        <ele>314.4099968</ele>
        <time>2018-09-30T07:08:34.000Z</time>
      </trkpt>
      <trkpt lat="43.1844" lon="-0.67067">
        <ele>312</ele>
        <time>2018-09-30T07:08:39.000Z</time>
      </trkpt>
      <trkpt lat="43.18435" lon="-0.67081">
        <ele>309.4099968</ele>
        <time>2018-09-30T07:08:44.000Z</time>
      </trkpt>
      <trkpt lat="43.18423" lon="-0.67086">
        <ele>308</ele>
        <time>2018-09-30T07:08:48.000Z</time>
      </trkpt>
      <trkpt lat="43.18412" lon="-0.67094">
        <ele>306.4099968</ele>
        <time>2018-09-30T07:08:51.000Z</time>
      </trkpt>
      <trkpt lat="43.18409" lon="-0.67108">
        <ele>305</ele>
        <time>2018-09-30T07:08:54.000Z</time>
      </trkpt>
      <trkpt lat="43.18406" lon="-0.67125">
        <ele>305</ele>
        <time>2018-09-30T07:08:56.000Z</time>
      </trkpt>
      <trkpt lat="43.18402" lon="-0.67144">
        <ele>303.4099968</ele>
        <time>2018-09-30T07:08:58.000Z</time>
      </trkpt>
      <trkpt lat="43.18396" lon="-0.67161">
        <ele>301.4099968</ele>
        <time>2018-09-30T07:09:00.000Z</time>
      </trkpt>
      <trkpt lat="43.1839" lon="-0.67176">
        <ele>300</ele>
        <time>2018-09-30T07:09:02.000Z</time>
      </trkpt>
      <trkpt lat="43.18383" lon="-0.67188">
        <ele>299</ele>
        <time>2018-09-30T07:09:04.000Z</time>
      </trkpt>
      <trkpt lat="43.18373" lon="-0.672">
        <ele>297.57745767906</ele>
        <time>2018-09-30T07:09:06.000Z</time>
      </trkpt>
      <trkpt lat="43.18361" lon="-0.67213">
        <ele>296.4099968</ele>
        <time>2018-09-30T07:09:08.000Z</time>
      </trkpt>
      <trkpt lat="43.18351" lon="-0.67224">
        <ele>294.61194429055</ele>
        <time>2018-09-30T07:09:10.000Z</time>
      </trkpt>
      <trkpt lat="43.1834" lon="-0.67236">
        <ele>293</ele>
        <time>2018-09-30T07:09:12.000Z</time>
      </trkpt>
      <trkpt lat="43.1833" lon="-0.6725">
        <ele>293</ele>
        <time>2018-09-30T07:09:14.000Z</time>
      </trkpt>
      <trkpt lat="43.18322" lon="-0.67264">
        <ele>293</ele>
        <time>2018-09-30T07:09:16.000Z</time>
      </trkpt>
      <trkpt lat="43.18315" lon="-0.67279">
        <ele>293</ele>
        <time>2018-09-30T07:09:18.000Z</time>
      </trkpt>
      <trkpt lat="43.18312" lon="-0.67287">
        <ele>292.4099968</ele>
        <time>2018-09-30T07:09:19.000Z</time>
      </trkpt>
      <trkpt lat="43.18306" lon="-0.67301">
        <ele>292</ele>
        <time>2018-09-30T07:09:21.000Z</time>
      </trkpt>
      <trkpt lat="43.18303" lon="-0.67308">
        <ele>292</ele>
        <time>2018-09-30T07:09:22.000Z</time>
      </trkpt>
      <trkpt lat="43.18299" lon="-0.67315">
        <ele>291.55384342723</ele>
        <time>2018-09-30T07:09:23.000Z</time>
      </trkpt>
      <trkpt lat="43.18295" lon="-0.67321">
        <ele>291</ele>
        <time>2018-09-30T07:09:24.000Z</time>
      </trkpt>
      <trkpt lat="43.18291" lon="-0.67327">
        <ele>291</ele>
        <time>2018-09-30T07:09:25.000Z</time>
      </trkpt>
      <trkpt lat="43.18288" lon="-0.67334">
        <ele>291</ele>
        <time>2018-09-30T07:09:26.000Z</time>
      </trkpt>
      <trkpt lat="43.18284" lon="-0.67341">
        <ele>291</ele>
        <time>2018-09-30T07:09:27.000Z</time>
      </trkpt>
      <trkpt lat="43.1828" lon="-0.67347">
        <ele>291</ele>
        <time>2018-09-30T07:09:28.000Z</time>
      </trkpt>
      <trkpt lat="43.18276" lon="-0.67352">
        <ele>291</ele>
        <time>2018-09-30T07:09:29.000Z</time>
      </trkpt>
      <trkpt lat="43.18272" lon="-0.67356">
        <ele>291.5900032</ele>
        <time>2018-09-30T07:09:30.000Z</time>
      </trkpt>
      <trkpt lat="43.18269" lon="-0.67358">
        <ele>292</ele>
        <time>2018-09-30T07:09:31.000Z</time>
      </trkpt>
      <trkpt lat="43.18264" lon="-0.67362">
        <ele>292</ele>
        <time>2018-09-30T07:09:33.000Z</time>
      </trkpt>
      <trkpt lat="43.18258" lon="-0.67365">
        <ele>292.4142849306</ele>
        <time>2018-09-30T07:09:35.000Z</time>
      </trkpt>
      <trkpt lat="43.18252" lon="-0.67368">
        <ele>293</ele>
        <time>2018-09-30T07:09:37.000Z</time>
      </trkpt>
      <trkpt lat="43.18245" lon="-0.67371">
        <ele>293</ele>
        <time>2018-09-30T07:09:39.000Z</time>
      </trkpt>
      <trkpt lat="43.18242" lon="-0.67374">
        <ele>293</ele>
        <time>2018-09-30T07:09:40.000Z</time>
      </trkpt>
      <trkpt lat="43.18238" lon="-0.67377">
        <ele>292.41584396822</ele>
        <time>2018-09-30T07:09:41.000Z</time>
      </trkpt>
      <trkpt lat="43.18234" lon="-0.6738">
        <ele>292</ele>
        <time>2018-09-30T07:09:42.000Z</time>
      </trkpt>
      <trkpt lat="43.1823" lon="-0.67384">
        <ele>292</ele>
        <time>2018-09-30T07:09:43.000Z</time>
      </trkpt>
      <trkpt lat="43.18219" lon="-0.67395">
        <ele>289.4099968</ele>
        <time>2018-09-30T07:09:46.000Z</time>
      </trkpt>
      <trkpt lat="43.18213" lon="-0.67412">
        <ele>288</ele>
        <time>2018-09-30T07:09:49.000Z</time>
      </trkpt>
      <trkpt lat="43.18209" lon="-0.67429">
        <ele>286.4099968</ele>
        <time>2018-09-30T07:09:52.000Z</time>
      </trkpt>
      <trkpt lat="43.18206" lon="-0.67444">
        <ele>284.4099968</ele>
        <time>2018-09-30T07:09:56.000Z</time>
      </trkpt>
      <trkpt lat="43.18216" lon="-0.67439">
        <ele>284</ele>
        <time>2018-09-30T07:10:01.000Z</time>
      </trkpt>
      <trkpt lat="43.18224" lon="-0.67433">
        <ele>284</ele>
        <time>2018-09-30T07:10:03.000Z</time>
      </trkpt>
      <trkpt lat="43.18228" lon="-0.6743">
        <ele>284</ele>
        <time>2018-09-30T07:10:04.000Z</time>
      </trkpt>
      <trkpt lat="43.1824" lon="-0.67426">
        <ele>283.42267850781</ele>
        <time>2018-09-30T07:10:07.000Z</time>
      </trkpt>
      <trkpt lat="43.18252" lon="-0.67429">
        <ele>283</ele>
        <time>2018-09-30T07:10:11.000Z</time>
      </trkpt>
      <trkpt lat="43.18265" lon="-0.67439">
        <ele>282.4099968</ele>
        <time>2018-09-30T07:10:14.000Z</time>
      </trkpt>
      <trkpt lat="43.18274" lon="-0.67447">
        <ele>281</ele>
        <time>2018-09-30T07:10:16.000Z</time>
      </trkpt>
      <trkpt lat="43.18285" lon="-0.67453">
        <ele>281</ele>
        <time>2018-09-30T07:10:18.000Z</time>
      </trkpt>
      <trkpt lat="43.18297" lon="-0.67455">
        <ele>281</ele>
        <time>2018-09-30T07:10:20.000Z</time>
      </trkpt>
      <trkpt lat="43.18302" lon="-0.67459">
        <ele>280.54263204374</ele>
        <time>2018-09-30T07:10:21.000Z</time>
      </trkpt>
      <trkpt lat="43.18313" lon="-0.67467">
        <ele>280</ele>
        <time>2018-09-30T07:10:23.000Z</time>
      </trkpt>
      <trkpt lat="43.18325" lon="-0.67469">
        <ele>279</ele>
        <time>2018-09-30T07:10:25.000Z</time>
      </trkpt>
      <trkpt lat="43.18337" lon="-0.67468">
        <ele>278.4099968</ele>
        <time>2018-09-30T07:10:27.000Z</time>
      </trkpt>
      <trkpt lat="43.18348" lon="-0.67469">
        <ele>278</ele>
        <time>2018-09-30T07:10:29.000Z</time>
      </trkpt>
      <trkpt lat="43.18359" lon="-0.67473">
        <ele>278</ele>
        <time>2018-09-30T07:10:31.000Z</time>
      </trkpt>
      <trkpt lat="43.18363" lon="-0.67474">
        <ele>277.5857150694</ele>
        <time>2018-09-30T07:10:32.000Z</time>
      </trkpt>
      <trkpt lat="43.18368" lon="-0.67476">
        <ele>276.4099968</ele>
        <time>2018-09-30T07:10:34.000Z</time>
      </trkpt>
      <trkpt lat="43.18372" lon="-0.67483">
        <ele>276</ele>
        <time>2018-09-30T07:10:36.000Z</time>
      </trkpt>
      <trkpt lat="43.18375" lon="-0.67488">
        <ele>276</ele>
        <time>2018-09-30T07:10:37.000Z</time>
      </trkpt>
      <trkpt lat="43.18381" lon="-0.67503">
        <ele>275</ele>
        <time>2018-09-30T07:10:40.000Z</time>
      </trkpt>
      <trkpt lat="43.18384" lon="-0.67519">
        <ele>272.4099968</ele>
        <time>2018-09-30T07:10:43.000Z</time>
      </trkpt>
      <trkpt lat="43.18386" lon="-0.67535">
        <ele>271</ele>
        <time>2018-09-30T07:10:47.000Z</time>
      </trkpt>
      <trkpt lat="43.1839" lon="-0.67549">
        <ele>269</ele>
        <time>2018-09-30T07:10:51.000Z</time>
      </trkpt>
      <trkpt lat="43.18396" lon="-0.67562">
        <ele>266</ele>
        <time>2018-09-30T07:10:55.000Z</time>
      </trkpt>
      <trkpt lat="43.18402" lon="-0.67575">
        <ele>264</ele>
        <time>2018-09-30T07:10:58.000Z</time>
      </trkpt>
      <trkpt lat="43.18408" lon="-0.67588">
        <ele>263</ele>
        <time>2018-09-30T07:11:02.000Z</time>
      </trkpt>
      <trkpt lat="43.18415" lon="-0.67599">
        <ele>258.4099968</ele>
        <time>2018-09-30T07:11:12.000Z</time>
      </trkpt>
      <trkpt lat="43.18423" lon="-0.67612">
        <ele>257</ele>
        <time>2018-09-30T07:11:30.000Z</time>
      </trkpt>
      <trkpt lat="43.18424" lon="-0.67627">
        <ele>255</ele>
        <time>2018-09-30T07:11:36.000Z</time>
      </trkpt>
      <trkpt lat="43.18428" lon="-0.67632">
        <ele>253.41836681382</ele>
        <time>2018-09-30T07:11:40.000Z</time>
      </trkpt>
      <trkpt lat="43.18415" lon="-0.6763">
        <ele>251.5857150694</ele>
        <time>2018-09-30T07:11:46.000Z</time>
      </trkpt>
      <trkpt lat="43.18401" lon="-0.6763">
        <ele>250.4099968</ele>
        <time>2018-09-30T07:11:48.000Z</time>
      </trkpt>
      <trkpt lat="43.18386" lon="-0.67628">
        <ele>250</ele>
        <time>2018-09-30T07:11:50.000Z</time>
      </trkpt>
      <trkpt lat="43.18371" lon="-0.67621">
        <ele>249</ele>
        <time>2018-09-30T07:11:52.000Z</time>
      </trkpt>
      <trkpt lat="43.18361" lon="-0.67615">
        <ele>248</ele>
        <time>2018-09-30T07:11:54.000Z</time>
      </trkpt>
      <trkpt lat="43.18348" lon="-0.67611">
        <ele>247.56944</ele>
        <time>2018-09-30T07:11:57.000Z</time>
      </trkpt>
      <trkpt lat="43.18335" lon="-0.67611">
        <ele>244.4099968</ele>
        <time>2018-09-30T07:12:01.000Z</time>
      </trkpt>
      <trkpt lat="43.18344" lon="-0.67625">
        <ele>244</ele>
        <time>2018-09-30T07:12:07.000Z</time>
      </trkpt>
      <trkpt lat="43.18354" lon="-0.67633">
        <ele>243</ele>
        <time>2018-09-30T07:12:11.000Z</time>
      </trkpt>
      <trkpt lat="43.18361" lon="-0.67645">
        <ele>241.4099968</ele>
        <time>2018-09-30T07:12:17.000Z</time>
      </trkpt>
      <trkpt lat="43.18371" lon="-0.67657">
        <ele>238</ele>
        <time>2018-09-30T07:12:21.000Z</time>
      </trkpt>
      <trkpt lat="43.18361" lon="-0.67659">
        <ele>236</ele>
        <time>2018-09-30T07:12:37.000Z</time>
      </trkpt>
      <trkpt lat="43.18349" lon="-0.67658">
        <ele>237</ele>
        <time>2018-09-30T07:12:44.000Z</time>
      </trkpt>
      <trkpt lat="43.18344" lon="-0.67654">
        <ele>238</ele>
        <time>2018-09-30T07:12:47.000Z</time>
      </trkpt>
      <trkpt lat="43.18341" lon="-0.67655">
        <ele>238.5900032</ele>
        <time>2018-09-30T07:12:51.000Z</time>
      </trkpt>
      <trkpt lat="43.18343" lon="-0.67669">
        <ele>240</ele>
        <time>2018-09-30T07:12:57.000Z</time>
      </trkpt>
      <trkpt lat="43.18342" lon="-0.67684">
        <ele>241</ele>
        <time>2018-09-30T07:13:01.000Z</time>
      </trkpt>
      <trkpt lat="43.18332" lon="-0.67687">
        <ele>244</ele>
        <time>2018-09-30T07:13:10.000Z</time>
      </trkpt>
      <trkpt lat="43.18322" lon="-0.67679">
        <ele>245</ele>
        <time>2018-09-30T07:13:15.000Z</time>
      </trkpt>
      <trkpt lat="43.18312" lon="-0.67673">
        <ele>248.5900032</ele>
        <time>2018-09-30T07:13:20.000Z</time>
      </trkpt>
      <trkpt lat="43.18302" lon="-0.67667">
        <ele>251</ele>
        <time>2018-09-30T07:13:27.000Z</time>
      </trkpt>
      <trkpt lat="43.18296" lon="-0.67653">
        <ele>254</ele>
        <time>2018-09-30T07:13:34.000Z</time>
      </trkpt>
      <trkpt lat="43.1829" lon="-0.67641">
        <ele>255</ele>
        <time>2018-09-30T07:13:38.000Z</time>
      </trkpt>
      <trkpt lat="43.18286" lon="-0.67637">
        <ele>255</ele>
        <time>2018-09-30T07:13:40.000Z</time>
      </trkpt>
      <trkpt lat="43.18274" lon="-0.67634">
        <ele>256</ele>
        <time>2018-09-30T07:13:45.000Z</time>
      </trkpt>
      <trkpt lat="43.18264" lon="-0.67627">
        <ele>255.45736341807</ele>
        <time>2018-09-30T07:13:50.000Z</time>
      </trkpt>
      <trkpt lat="43.18259" lon="-0.67622">
        <ele>257</ele>
        <time>2018-09-30T07:13:54.000Z</time>
      </trkpt>
      <trkpt lat="43.18254" lon="-0.67615">
        <ele>257</ele>
        <time>2018-09-30T07:13:59.000Z</time>
      </trkpt>
      <trkpt lat="43.18244" lon="-0.6761">
        <ele>257</ele>
        <time>2018-09-30T07:14:04.000Z</time>
      </trkpt>
      <trkpt lat="43.18232" lon="-0.67609">
        <ele>256.54263204374</ele>
        <time>2018-09-30T07:14:09.000Z</time>
      </trkpt>
      <trkpt lat="43.1822" lon="-0.67611">
        <ele>255.5900032</ele>
        <time>2018-09-30T07:14:14.000Z</time>
      </trkpt>
      <trkpt lat="43.18209" lon="-0.67614">
        <ele>257</ele>
        <time>2018-09-30T07:14:18.000Z</time>
      </trkpt>
      <trkpt lat="43.18196" lon="-0.67615">
        <ele>257</ele>
        <time>2018-09-30T07:14:23.000Z</time>
      </trkpt>
      <trkpt lat="43.18185" lon="-0.67616">
        <ele>258</ele>
        <time>2018-09-30T07:14:28.000Z</time>
      </trkpt>
      <trkpt lat="43.18174" lon="-0.67615">
        <ele>259</ele>
        <time>2018-09-30T07:14:33.000Z</time>
      </trkpt>
      <trkpt lat="43.18163" lon="-0.6762">
        <ele>259.5900032</ele>
        <time>2018-09-30T07:14:41.000Z</time>
      </trkpt>
      <trkpt lat="43.18159" lon="-0.67608">
        <ele>264</ele>
        <time>2018-09-30T07:14:54.000Z</time>
      </trkpt>
      <trkpt lat="43.18161" lon="-0.676">
        <ele>265.58586315681</ele>
        <time>2018-09-30T07:15:03.000Z</time>
      </trkpt>
      <trkpt lat="43.18164" lon="-0.67596">
        <ele>266</ele>
        <time>2018-09-30T07:15:07.000Z</time>
      </trkpt>
      <trkpt lat="43.18173" lon="-0.67586">
        <ele>266.4099968</ele>
        <time>2018-09-30T07:15:20.000Z</time>
      </trkpt>
      <trkpt lat="43.18182" lon="-0.67574">
        <ele>264</ele>
        <time>2018-09-30T07:15:24.000Z</time>
      </trkpt>
      <trkpt lat="43.18191" lon="-0.67562">
        <ele>265</ele>
        <time>2018-09-30T07:15:29.000Z</time>
      </trkpt>
      <trkpt lat="43.18202" lon="-0.67552">
        <ele>267</ele>
        <time>2018-09-30T07:15:34.000Z</time>
      </trkpt>
      <trkpt lat="43.1821" lon="-0.67541">
        <ele>267</ele>
        <time>2018-09-30T07:15:38.000Z</time>
      </trkpt>
      <trkpt lat="43.18219" lon="-0.67531">
        <ele>267</ele>
        <time>2018-09-30T07:15:42.000Z</time>
      </trkpt>
      <trkpt lat="43.18229" lon="-0.67537">
        <ele>265</ele>
        <time>2018-09-30T07:16:00.000Z</time>
      </trkpt>
      <trkpt lat="43.18241" lon="-0.67532">
        <ele>263.59420101658</ele>
        <time>2018-09-30T07:16:06.000Z</time>
      </trkpt>
      <trkpt lat="43.18247" lon="-0.67523">
        <ele>263</ele>
        <time>2018-09-30T07:16:20.000Z</time>
      </trkpt>
      <trkpt lat="43.18248" lon="-0.67517">
        <ele>263</ele>
        <time>2018-09-30T07:16:22.000Z</time>
      </trkpt>
      <trkpt lat="43.18248" lon="-0.67512">
        <ele>263</ele>
        <time>2018-09-30T07:16:24.000Z</time>
      </trkpt>
      <trkpt lat="43.18249" lon="-0.67506">
        <ele>263</ele>
        <time>2018-09-30T07:16:26.000Z</time>
      </trkpt>
      <trkpt lat="43.1825" lon="-0.675">
        <ele>264</ele>
        <time>2018-09-30T07:16:28.000Z</time>
      </trkpt>
      <trkpt lat="43.18253" lon="-0.67497">
        <ele>264</ele>
        <time>2018-09-30T07:16:30.000Z</time>
      </trkpt>
      <trkpt lat="43.18254" lon="-0.67492">
        <ele>266</ele>
        <time>2018-09-30T07:16:40.000Z</time>
      </trkpt>
      <trkpt lat="43.18251" lon="-0.6749">
        <ele>266</ele>
        <time>2018-09-30T07:16:45.000Z</time>
      </trkpt>
      <trkpt lat="43.18245" lon="-0.67487">
        <ele>267</ele>
        <time>2018-09-30T07:16:48.000Z</time>
      </trkpt>
      <trkpt lat="43.1824" lon="-0.67485">
        <ele>269</ele>
        <time>2018-09-30T07:16:51.000Z</time>
      </trkpt>
      <trkpt lat="43.18235" lon="-0.67492">
        <ele>269.5900032</ele>
        <time>2018-09-30T07:16:56.000Z</time>
      </trkpt>
      <trkpt lat="43.18225" lon="-0.675">
        <ele>273</ele>
        <time>2018-09-30T07:17:03.000Z</time>
      </trkpt>
      <trkpt lat="43.18214" lon="-0.67504">
        <ele>274</ele>
        <time>2018-09-30T07:17:09.000Z</time>
      </trkpt>
      <trkpt lat="43.18204" lon="-0.67508">
        <ele>275</ele>
        <time>2018-09-30T07:17:14.000Z</time>
      </trkpt>
      <trkpt lat="43.18193" lon="-0.67512">
        <ele>277.43056</ele>
        <time>2018-09-30T07:17:20.000Z</time>
      </trkpt>
      <trkpt lat="43.18187" lon="-0.67514">
        <ele>279</ele>
        <time>2018-09-30T07:17:24.000Z</time>
      </trkpt>
      <trkpt lat="43.18181" lon="-0.67516">
        <ele>279</ele>
        <time>2018-09-30T07:17:28.000Z</time>
      </trkpt>
      <trkpt lat="43.18178" lon="-0.67512">
        <ele>281</ele>
        <time>2018-09-30T07:17:32.000Z</time>
      </trkpt>
      <trkpt lat="43.18176" lon="-0.67506">
        <ele>281.57843088043</ele>
        <time>2018-09-30T07:17:35.000Z</time>
      </trkpt>
      <trkpt lat="43.18174" lon="-0.67501">
        <ele>282</ele>
        <time>2018-09-30T07:17:38.000Z</time>
      </trkpt>
      <trkpt lat="43.18172" lon="-0.67496">
        <ele>282</ele>
        <time>2018-09-30T07:17:41.000Z</time>
      </trkpt>
      <trkpt lat="43.18169" lon="-0.67494">
        <ele>281</ele>
        <time>2018-09-30T07:18:26.000Z</time>
      </trkpt>
      <trkpt lat="43.18167" lon="-0.67487">
        <ele>281</ele>
        <time>2018-09-30T07:18:41.000Z</time>
      </trkpt>
      <trkpt lat="43.18163" lon="-0.6749">
        <ele>281</ele>
        <time>2018-09-30T07:19:13.000Z</time>
      </trkpt>
      <trkpt lat="43.18167" lon="-0.67487">
        <ele>280</ele>
        <time>2018-09-30T07:19:51.000Z</time>
      </trkpt>
      <trkpt lat="43.18171" lon="-0.67486">
        <ele>282</ele>
        <time>2018-09-30T07:19:56.000Z</time>
      </trkpt>
      <trkpt lat="43.18175" lon="-0.67485">
        <ele>282</ele>
        <time>2018-09-30T07:20:00.000Z</time>
      </trkpt>
      <trkpt lat="43.1817" lon="-0.67485">
        <ele>281</ele>
        <time>2018-09-30T07:20:23.000Z</time>
      </trkpt>
      <trkpt lat="43.18168" lon="-0.67489">
        <ele>280</ele>
        <time>2018-09-30T07:20:39.000Z</time>
      </trkpt>
      <trkpt lat="43.18164" lon="-0.67486">
        <ele>281</ele>
        <time>2018-09-30T07:20:59.000Z</time>
      </trkpt>
      <trkpt lat="43.18162" lon="-0.67481">
        <ele>281</ele>
        <time>2018-09-30T07:21:01.000Z</time>
      </trkpt>
      <trkpt lat="43.1816" lon="-0.67475">
        <ele>281</ele>
        <time>2018-09-30T07:21:04.000Z</time>
      </trkpt>
      <trkpt lat="43.18158" lon="-0.6747">
        <ele>281</ele>
        <time>2018-09-30T07:21:06.000Z</time>
      </trkpt>
      <trkpt lat="43.18158" lon="-0.67464">
        <ele>281</ele>
        <time>2018-09-30T07:21:08.000Z</time>
      </trkpt>
      <trkpt lat="43.18157" lon="-0.67458">
        <ele>280.5857150694</ele>
        <time>2018-09-30T07:21:10.000Z</time>
      </trkpt>
      <trkpt lat="43.18155" lon="-0.6745">
        <ele>281</ele>
        <time>2018-09-30T07:21:12.000Z</time>
      </trkpt>
      <trkpt lat="43.18155" lon="-0.67445">
        <ele>281</ele>
        <time>2018-09-30T07:21:13.000Z</time>
      </trkpt>
      <trkpt lat="43.18153" lon="-0.67436">
        <ele>281</ele>
        <time>2018-09-30T07:21:15.000Z</time>
      </trkpt>
      <trkpt lat="43.18152" lon="-0.67427">
        <ele>281</ele>
        <time>2018-09-30T07:21:17.000Z</time>
      </trkpt>
      <trkpt lat="43.1815" lon="-0.67418">
        <ele>280</ele>
        <time>2018-09-30T07:21:19.000Z</time>
      </trkpt>
      <trkpt lat="43.18149" lon="-0.67413">
        <ele>280</ele>
        <time>2018-09-30T07:21:20.000Z</time>
      </trkpt>
      <trkpt lat="43.18148" lon="-0.67408">
        <ele>280</ele>
        <time>2018-09-30T07:21:21.000Z</time>
      </trkpt>
      <trkpt lat="43.18147" lon="-0.67403">
        <ele>280</ele>
        <time>2018-09-30T07:21:22.000Z</time>
      </trkpt>
      <trkpt lat="43.18146" lon="-0.67397">
        <ele>280</ele>
        <time>2018-09-30T07:21:23.000Z</time>
      </trkpt>
      <trkpt lat="43.18144" lon="-0.67391">
        <ele>280</ele>
        <time>2018-09-30T07:21:24.000Z</time>
      </trkpt>
      <trkpt lat="43.18143" lon="-0.67386">
        <ele>280</ele>
        <time>2018-09-30T07:21:25.000Z</time>
      </trkpt>
      <trkpt lat="43.18142" lon="-0.6738">
        <ele>280</ele>
        <time>2018-09-30T07:21:26.000Z</time>
      </trkpt>
      <trkpt lat="43.18141" lon="-0.67374">
        <ele>280</ele>
        <time>2018-09-30T07:21:27.000Z</time>
      </trkpt>
      <trkpt lat="43.18139" lon="-0.67368">
        <ele>280</ele>
        <time>2018-09-30T07:21:28.000Z</time>
      </trkpt>
      <trkpt lat="43.18137" lon="-0.67362">
        <ele>280</ele>
        <time>2018-09-30T07:21:29.000Z</time>
      </trkpt>
      <trkpt lat="43.18136" lon="-0.67355">
        <ele>280</ele>
        <time>2018-09-30T07:21:30.000Z</time>
      </trkpt>
      <trkpt lat="43.18134" lon="-0.67348">
        <ele>280</ele>
        <time>2018-09-30T07:21:31.000Z</time>
      </trkpt>
      <trkpt lat="43.18133" lon="-0.67341">
        <ele>279.4099968</ele>
        <time>2018-09-30T07:21:32.000Z</time>
      </trkpt>
      <trkpt lat="43.18132" lon="-0.67334">
        <ele>279</ele>
        <time>2018-09-30T07:21:33.000Z</time>
      </trkpt>
      <trkpt lat="43.18132" lon="-0.67326">
        <ele>279</ele>
        <time>2018-09-30T07:21:34.000Z</time>
      </trkpt>
      <trkpt lat="43.18132" lon="-0.67318">
        <ele>279</ele>
        <time>2018-09-30T07:21:35.000Z</time>
      </trkpt>
      <trkpt lat="43.18133" lon="-0.67309">
        <ele>278.4099968</ele>
        <time>2018-09-30T07:21:36.000Z</time>
      </trkpt>
      <trkpt lat="43.18134" lon="-0.67301">
        <ele>278</ele>
        <time>2018-09-30T07:21:37.000Z</time>
      </trkpt>
      <trkpt lat="43.18135" lon="-0.67294">
        <ele>278</ele>
        <time>2018-09-30T07:21:38.000Z</time>
      </trkpt>
      <trkpt lat="43.18137" lon="-0.67286">
        <ele>278</ele>
        <time>2018-09-30T07:21:39.000Z</time>
      </trkpt>
      <trkpt lat="43.18139" lon="-0.67279">
        <ele>277.4099968</ele>
        <time>2018-09-30T07:21:40.000Z</time>
      </trkpt>
      <trkpt lat="43.1814" lon="-0.67272">
        <ele>277</ele>
        <time>2018-09-30T07:21:41.000Z</time>
      </trkpt>
      <trkpt lat="43.18142" lon="-0.67265">
        <ele>277</ele>
        <time>2018-09-30T07:21:42.000Z</time>
      </trkpt>
      <trkpt lat="43.18144" lon="-0.67258">
        <ele>277</ele>
        <time>2018-09-30T07:21:43.000Z</time>
      </trkpt>
      <trkpt lat="43.18145" lon="-0.67252">
        <ele>276.4099968</ele>
        <time>2018-09-30T07:21:44.000Z</time>
      </trkpt>
      <trkpt lat="43.18147" lon="-0.67246">
        <ele>276</ele>
        <time>2018-09-30T07:21:45.000Z</time>
      </trkpt>
      <trkpt lat="43.18149" lon="-0.67238">
        <ele>275</ele>
        <time>2018-09-30T07:21:47.000Z</time>
      </trkpt>
      <trkpt lat="43.1815" lon="-0.67232">
        <ele>275</ele>
        <time>2018-09-30T07:21:49.000Z</time>
      </trkpt>
      <trkpt lat="43.1815" lon="-0.67226">
        <ele>275</ele>
        <time>2018-09-30T07:21:51.000Z</time>
      </trkpt>
      <trkpt lat="43.1815" lon="-0.6722">
        <ele>275</ele>
        <time>2018-09-30T07:21:54.000Z</time>
      </trkpt>
      <trkpt lat="43.18146" lon="-0.67215">
        <ele>275</ele>
        <time>2018-09-30T07:21:57.000Z</time>
      </trkpt>
      <trkpt lat="43.18143" lon="-0.67212">
        <ele>274</ele>
        <time>2018-09-30T07:21:59.000Z</time>
      </trkpt>
      <trkpt lat="43.18139" lon="-0.67212">
        <ele>273.42156911957</ele>
        <time>2018-09-30T07:22:01.000Z</time>
      </trkpt>
      <trkpt lat="43.18134" lon="-0.67227">
        <ele>270.5857150694</ele>
        <time>2018-09-30T07:22:07.000Z</time>
      </trkpt>
      <trkpt lat="43.1813" lon="-0.67245">
        <ele>270</ele>
        <time>2018-09-30T07:22:10.000Z</time>
      </trkpt>
      <trkpt lat="43.18128" lon="-0.6726">
        <ele>269.41584396822</ele>
        <time>2018-09-30T07:22:13.000Z</time>
      </trkpt>
      <trkpt lat="43.18122" lon="-0.67272">
        <ele>269</ele>
        <time>2018-09-30T07:22:17.000Z</time>
      </trkpt>
      <trkpt lat="43.18111" lon="-0.67277">
        <ele>267</ele>
        <time>2018-09-30T07:22:22.000Z</time>
      </trkpt>
      <trkpt lat="43.18109" lon="-0.67272">
        <ele>264</ele>
        <time>2018-09-30T07:22:28.000Z</time>
      </trkpt>
      <trkpt lat="43.18105" lon="-0.67271">
        <ele>263</ele>
        <time>2018-09-30T07:22:31.000Z</time>
      </trkpt>
      <trkpt lat="43.18095" lon="-0.67278">
        <ele>262</ele>
        <time>2018-09-30T07:22:37.000Z</time>
      </trkpt>
      <trkpt lat="43.18082" lon="-0.67281">
        <ele>260</ele>
        <time>2018-09-30T07:22:42.000Z</time>
      </trkpt>
      <trkpt lat="43.18069" lon="-0.67278">
        <ele>260</ele>
        <time>2018-09-30T07:22:47.000Z</time>
      </trkpt>
      <trkpt lat="43.18058" lon="-0.67284">
        <ele>259</ele>
        <time>2018-09-30T07:22:50.000Z</time>
      </trkpt>
      <trkpt lat="43.18047" lon="-0.6729">
        <ele>259</ele>
        <time>2018-09-30T07:22:54.000Z</time>
      </trkpt>
      <trkpt lat="43.18038" lon="-0.67298">
        <ele>258</ele>
        <time>2018-09-30T07:22:57.000Z</time>
      </trkpt>
      <trkpt lat="43.18029" lon="-0.67291">
        <ele>258</ele>
        <time>2018-09-30T07:23:07.000Z</time>
      </trkpt>
      <trkpt lat="43.18025" lon="-0.67274">
        <ele>258</ele>
        <time>2018-09-30T07:23:13.000Z</time>
      </trkpt>
      <trkpt lat="43.18026" lon="-0.67259">
        <ele>261.5900032</ele>
        <time>2018-09-30T07:23:19.000Z</time>
      </trkpt>
      <trkpt lat="43.18028" lon="-0.67244">
        <ele>266</ele>
        <time>2018-09-30T07:23:27.000Z</time>
      </trkpt>
      <trkpt lat="43.1802" lon="-0.67241">
        <ele>267</ele>
        <time>2018-09-30T07:23:30.000Z</time>
      </trkpt>
      <trkpt lat="43.18014" lon="-0.67239">
        <ele>268</ele>
        <time>2018-09-30T07:23:32.000Z</time>
      </trkpt>
      <trkpt lat="43.1801" lon="-0.67237">
        <ele>269</ele>
        <time>2018-09-30T07:23:34.000Z</time>
      </trkpt>
      <trkpt lat="43.18003" lon="-0.67235">
        <ele>269.5900032</ele>
        <time>2018-09-30T07:23:37.000Z</time>
      </trkpt>
      <trkpt lat="43.17993" lon="-0.67229">
        <ele>271</ele>
        <time>2018-09-30T07:23:42.000Z</time>
      </trkpt>
      <trkpt lat="43.17989" lon="-0.67228">
        <ele>271.5900032</ele>
        <time>2018-09-30T07:23:44.000Z</time>
      </trkpt>
      <trkpt lat="43.17985" lon="-0.67227">
        <ele>272</ele>
        <time>2018-09-30T07:23:46.000Z</time>
      </trkpt>
      <trkpt lat="43.17981" lon="-0.67226">
        <ele>272</ele>
        <time>2018-09-30T07:23:48.000Z</time>
      </trkpt>
      <trkpt lat="43.17978" lon="-0.67224">
        <ele>272</ele>
        <time>2018-09-30T07:23:50.000Z</time>
      </trkpt>
      <trkpt lat="43.17974" lon="-0.67222">
        <ele>272</ele>
        <time>2018-09-30T07:23:52.000Z</time>
      </trkpt>
      <trkpt lat="43.17967" lon="-0.6722">
        <ele>271.4099968</ele>
        <time>2018-09-30T07:23:54.000Z</time>
      </trkpt>
      <trkpt lat="43.1796" lon="-0.67231">
        <ele>268</ele>
        <time>2018-09-30T07:24:02.000Z</time>
      </trkpt>
      <trkpt lat="43.17953" lon="-0.67244">
        <ele>264.4099968</ele>
        <time>2018-09-30T07:24:07.000Z</time>
      </trkpt>
      <trkpt lat="43.17948" lon="-0.67235">
        <ele>265</ele>
        <time>2018-09-30T07:24:20.000Z</time>
      </trkpt>
      <trkpt lat="43.17947" lon="-0.67228">
        <ele>265.5900032</ele>
        <time>2018-09-30T07:24:22.000Z</time>
      </trkpt>
      <trkpt lat="43.17946" lon="-0.67221">
        <ele>266</ele>
        <time>2018-09-30T07:24:24.000Z</time>
      </trkpt>
      <trkpt lat="43.17945" lon="-0.67216">
        <ele>266</ele>
        <time>2018-09-30T07:24:26.000Z</time>
      </trkpt>
      <trkpt lat="43.17943" lon="-0.67211">
        <ele>267</ele>
        <time>2018-09-30T07:24:28.000Z</time>
      </trkpt>
      <trkpt lat="43.1794" lon="-0.67207">
        <ele>267.43835808595</ele>
        <time>2018-09-30T07:24:30.000Z</time>
      </trkpt>
      <trkpt lat="43.17937" lon="-0.67204">
        <ele>268</ele>
        <time>2018-09-30T07:24:32.000Z</time>
      </trkpt>
      <trkpt lat="43.17934" lon="-0.672">
        <ele>268.5900032</ele>
        <time>2018-09-30T07:24:35.000Z</time>
      </trkpt>
      <trkpt lat="43.1793" lon="-0.67197">
        <ele>269</ele>
        <time>2018-09-30T07:24:38.000Z</time>
      </trkpt>
      <trkpt lat="43.17927" lon="-0.67195">
        <ele>269</ele>
        <time>2018-09-30T07:24:40.000Z</time>
      </trkpt>
      <trkpt lat="43.17923" lon="-0.67195">
        <ele>269</ele>
        <time>2018-09-30T07:24:42.000Z</time>
      </trkpt>
      <trkpt lat="43.17918" lon="-0.67195">
        <ele>269.5900032</ele>
        <time>2018-09-30T07:24:45.000Z</time>
      </trkpt>
      <trkpt lat="43.17914" lon="-0.67196">
        <ele>270</ele>
        <time>2018-09-30T07:24:47.000Z</time>
      </trkpt>
      <trkpt lat="43.1791" lon="-0.67197">
        <ele>271</ele>
        <time>2018-09-30T07:24:49.000Z</time>
      </trkpt>
      <trkpt lat="43.17905" lon="-0.67199">
        <ele>271.5900032</ele>
        <time>2018-09-30T07:24:52.000Z</time>
      </trkpt>
      <trkpt lat="43.17901" lon="-0.67202">
        <ele>272</ele>
        <time>2018-09-30T07:24:55.000Z</time>
      </trkpt>
      <trkpt lat="43.17897" lon="-0.67204">
        <ele>274</ele>
        <time>2018-09-30T07:24:58.000Z</time>
      </trkpt>
      <trkpt lat="43.17893" lon="-0.67208">
        <ele>275</ele>
        <time>2018-09-30T07:25:01.000Z</time>
      </trkpt>
      <trkpt lat="43.1789" lon="-0.67212">
        <ele>275</ele>
        <time>2018-09-30T07:25:04.000Z</time>
      </trkpt>
      <trkpt lat="43.17887" lon="-0.67216">
        <ele>275</ele>
        <time>2018-09-30T07:25:06.000Z</time>
      </trkpt>
      <trkpt lat="43.17883" lon="-0.6722">
        <ele>276</ele>
        <time>2018-09-30T07:25:09.000Z</time>
      </trkpt>
      <trkpt lat="43.17882" lon="-0.67226">
        <ele>276.5900032</ele>
        <time>2018-09-30T07:25:12.000Z</time>
      </trkpt>
      <trkpt lat="43.1788" lon="-0.67242">
        <ele>277</ele>
        <time>2018-09-30T07:25:20.000Z</time>
      </trkpt>
      <trkpt lat="43.17877" lon="-0.67257">
        <ele>278.58415603178</ele>
        <time>2018-09-30T07:26:03.000Z</time>
      </trkpt>
      <trkpt lat="43.17869" lon="-0.67271">
        <ele>281</ele>
        <time>2018-09-30T07:26:08.000Z</time>
      </trkpt>
      <trkpt lat="43.17862" lon="-0.67284">
        <ele>282</ele>
        <time>2018-09-30T07:26:13.000Z</time>
      </trkpt>
      <trkpt lat="43.17861" lon="-0.673">
        <ele>283</ele>
        <time>2018-09-30T07:26:18.000Z</time>
      </trkpt>
      <trkpt lat="43.17872" lon="-0.6731">
        <ele>282</ele>
        <time>2018-09-30T07:26:23.000Z</time>
      </trkpt>
      <trkpt lat="43.17876" lon="-0.67314">
        <ele>282.43056</ele>
        <time>2018-09-30T07:26:26.000Z</time>
      </trkpt>
      <trkpt lat="43.17881" lon="-0.67318">
        <ele>283</ele>
        <time>2018-09-30T07:26:29.000Z</time>
      </trkpt>
      <trkpt lat="43.17885" lon="-0.67322">
        <ele>284.4099968</ele>
        <time>2018-09-30T07:26:34.000Z</time>
      </trkpt>
      <trkpt lat="43.1789" lon="-0.67323">
        <ele>285</ele>
        <time>2018-09-30T07:26:36.000Z</time>
      </trkpt>
      <trkpt lat="43.17894" lon="-0.67328">
        <ele>286.5900032</ele>
        <time>2018-09-30T07:26:38.000Z</time>
      </trkpt>
      <trkpt lat="43.17899" lon="-0.67332">
        <ele>287</ele>
        <time>2018-09-30T07:26:40.000Z</time>
      </trkpt>
      <trkpt lat="43.17904" lon="-0.67338">
        <ele>289.5900032</ele>
        <time>2018-09-30T07:26:43.000Z</time>
      </trkpt>
      <trkpt lat="43.17908" lon="-0.67339">
        <ele>291</ele>
        <time>2018-09-30T07:26:45.000Z</time>
      </trkpt>
      <trkpt lat="43.17911" lon="-0.67343">
        <ele>292</ele>
        <time>2018-09-30T07:26:48.000Z</time>
      </trkpt>
      <trkpt lat="43.17914" lon="-0.67347">
        <ele>292</ele>
        <time>2018-09-30T07:26:51.000Z</time>
      </trkpt>
      <trkpt lat="43.17917" lon="-0.6735">
        <ele>292</ele>
        <time>2018-09-30T07:26:54.000Z</time>
      </trkpt>
      <trkpt lat="43.17921" lon="-0.67353">
        <ele>292.5900032</ele>
        <time>2018-09-30T07:26:57.000Z</time>
      </trkpt>
      <trkpt lat="43.17924" lon="-0.67357">
        <ele>293</ele>
        <time>2018-09-30T07:27:00.000Z</time>
      </trkpt>
      <trkpt lat="43.17928" lon="-0.67371">
        <ele>294</ele>
        <time>2018-09-30T07:27:08.000Z</time>
      </trkpt>
      <trkpt lat="43.17921" lon="-0.67384">
        <ele>296</ele>
        <time>2018-09-30T07:27:20.000Z</time>
      </trkpt>
      <trkpt lat="43.17916" lon="-0.67386">
        <ele>296</ele>
        <time>2018-09-30T07:27:23.000Z</time>
      </trkpt>
      <trkpt lat="43.17913" lon="-0.67392">
        <ele>298</ele>
        <time>2018-09-30T07:27:28.000Z</time>
      </trkpt>
      <trkpt lat="43.17908" lon="-0.67405">
        <ele>299</ele>
        <time>2018-09-30T07:27:36.000Z</time>
      </trkpt>
      <trkpt lat="43.17899" lon="-0.67413">
        <ele>299</ele>
        <time>2018-09-30T07:27:42.000Z</time>
      </trkpt>
      <trkpt lat="43.17889" lon="-0.67421">
        <ele>299</ele>
        <time>2018-09-30T07:27:49.000Z</time>
      </trkpt>
      <trkpt lat="43.17885" lon="-0.67437">
        <ele>300</ele>
        <time>2018-09-30T07:27:55.000Z</time>
      </trkpt>
      <trkpt lat="43.17886" lon="-0.67453">
        <ele>301</ele>
        <time>2018-09-30T07:28:00.000Z</time>
      </trkpt>
      <trkpt lat="43.17882" lon="-0.67467">
        <ele>304</ele>
        <time>2018-09-30T07:28:08.000Z</time>
      </trkpt>
      <trkpt lat="43.17877" lon="-0.67481">
        <ele>305</ele>
        <time>2018-09-30T07:28:16.000Z</time>
      </trkpt>
      <trkpt lat="43.17878" lon="-0.67498">
        <ele>306</ele>
        <time>2018-09-30T07:28:23.000Z</time>
      </trkpt>
      <trkpt lat="43.17877" lon="-0.67514">
        <ele>307</ele>
        <time>2018-09-30T07:28:28.000Z</time>
      </trkpt>
      <trkpt lat="43.17875" lon="-0.6753">
        <ele>308</ele>
        <time>2018-09-30T07:28:33.000Z</time>
      </trkpt>
      <trkpt lat="43.17875" lon="-0.67547">
        <ele>309</ele>
        <time>2018-09-30T07:28:39.000Z</time>
      </trkpt>
      <trkpt lat="43.17878" lon="-0.67564">
        <ele>310.43056</ele>
        <time>2018-09-30T07:28:44.000Z</time>
      </trkpt>
      <trkpt lat="43.17877" lon="-0.67581">
        <ele>311</ele>
        <time>2018-09-30T07:28:50.000Z</time>
      </trkpt>
      <trkpt lat="43.17875" lon="-0.67596">
        <ele>311</ele>
        <time>2018-09-30T07:28:56.000Z</time>
      </trkpt>
      <trkpt lat="43.17875" lon="-0.67612">
        <ele>312</ele>
        <time>2018-09-30T07:29:02.000Z</time>
      </trkpt>
      <trkpt lat="43.17876" lon="-0.67626">
        <ele>314</ele>
        <time>2018-09-30T07:29:10.000Z</time>
      </trkpt>
      <trkpt lat="43.17875" lon="-0.67642">
        <ele>316</ele>
        <time>2018-09-30T07:29:19.000Z</time>
      </trkpt>
      <trkpt lat="43.1787" lon="-0.67656">
        <ele>316</ele>
        <time>2018-09-30T07:29:27.000Z</time>
      </trkpt>
      <trkpt lat="43.17871" lon="-0.67672">
        <ele>317</ele>
        <time>2018-09-30T07:29:36.000Z</time>
      </trkpt>
      <trkpt lat="43.17871" lon="-0.67687">
        <ele>318</ele>
        <time>2018-09-30T07:29:44.000Z</time>
      </trkpt>
      <trkpt lat="43.1787" lon="-0.67702">
        <ele>319</ele>
        <time>2018-09-30T07:29:51.000Z</time>
      </trkpt>
      <trkpt lat="43.17872" lon="-0.67718">
        <ele>321</ele>
        <time>2018-09-30T07:29:58.000Z</time>
      </trkpt>
      <trkpt lat="43.17873" lon="-0.67733">
        <ele>322</ele>
        <time>2018-09-30T07:30:06.000Z</time>
      </trkpt>
      <trkpt lat="43.17876" lon="-0.67748">
        <ele>323.5900032</ele>
        <time>2018-09-30T07:30:14.000Z</time>
      </trkpt>
      <trkpt lat="43.17876" lon="-0.67766">
        <ele>325</ele>
        <time>2018-09-30T07:30:18.000Z</time>
      </trkpt>
      <trkpt lat="43.17874" lon="-0.67782">
        <ele>326</ele>
        <time>2018-09-30T07:30:25.000Z</time>
      </trkpt>
      <trkpt lat="43.17874" lon="-0.67798">
        <ele>328</ele>
        <time>2018-09-30T07:30:32.000Z</time>
      </trkpt>
      <trkpt lat="43.17871" lon="-0.67816">
        <ele>329</ele>
        <time>2018-09-30T07:30:39.000Z</time>
      </trkpt>
      <trkpt lat="43.17867" lon="-0.67831">
        <ele>329.5900032</ele>
        <time>2018-09-30T07:30:45.000Z</time>
      </trkpt>
      <trkpt lat="43.17864" lon="-0.67846">
        <ele>331</ele>
        <time>2018-09-30T07:30:51.000Z</time>
      </trkpt>
      <trkpt lat="43.17861" lon="-0.67861">
        <ele>332</ele>
        <time>2018-09-30T07:30:57.000Z</time>
      </trkpt>
      <trkpt lat="43.17859" lon="-0.67877">
        <ele>334</ele>
        <time>2018-09-30T07:31:03.000Z</time>
      </trkpt>
      <trkpt lat="43.17859" lon="-0.67896">
        <ele>334</ele>
        <time>2018-09-30T07:31:09.000Z</time>
      </trkpt>
      <trkpt lat="43.17859" lon="-0.67911">
        <ele>334.5900032</ele>
        <time>2018-09-30T07:31:13.000Z</time>
      </trkpt>
      <trkpt lat="43.17855" lon="-0.67926">
        <ele>335</ele>
        <time>2018-09-30T07:31:17.000Z</time>
      </trkpt>
      <trkpt lat="43.1785" lon="-0.67943">
        <ele>336</ele>
        <time>2018-09-30T07:31:21.000Z</time>
      </trkpt>
      <trkpt lat="43.17848" lon="-0.67962">
        <ele>336.5900032</ele>
        <time>2018-09-30T07:31:26.000Z</time>
      </trkpt>
      <trkpt lat="43.17844" lon="-0.67982">
        <ele>337</ele>
        <time>2018-09-30T07:31:31.000Z</time>
      </trkpt>
      <trkpt lat="43.17844" lon="-0.67989">
        <ele>337</ele>
        <time>2018-09-30T07:31:33.000Z</time>
      </trkpt>
      <trkpt lat="43.17844" lon="-0.67996">
        <ele>337</ele>
        <time>2018-09-30T07:31:35.000Z</time>
      </trkpt>
      <trkpt lat="43.17845" lon="-0.68002">
        <ele>338</ele>
        <time>2018-09-30T07:31:37.000Z</time>
      </trkpt>
      <trkpt lat="43.17846" lon="-0.68007">
        <ele>338.5900032</ele>
        <time>2018-09-30T07:31:39.000Z</time>
      </trkpt>
      <trkpt lat="43.17848" lon="-0.68012">
        <ele>339</ele>
        <time>2018-09-30T07:31:41.000Z</time>
      </trkpt>
      <trkpt lat="43.1785" lon="-0.68017">
        <ele>339</ele>
        <time>2018-09-30T07:31:43.000Z</time>
      </trkpt>
      <trkpt lat="43.17852" lon="-0.68023">
        <ele>339</ele>
        <time>2018-09-30T07:31:45.000Z</time>
      </trkpt>
      <trkpt lat="43.17854" lon="-0.68028">
        <ele>339</ele>
        <time>2018-09-30T07:31:47.000Z</time>
      </trkpt>
      <trkpt lat="43.17856" lon="-0.68033">
        <ele>340</ele>
        <time>2018-09-30T07:31:49.000Z</time>
      </trkpt>
      <trkpt lat="43.17857" lon="-0.68039">
        <ele>341</ele>
        <time>2018-09-30T07:31:51.000Z</time>
      </trkpt>
      <trkpt lat="43.17859" lon="-0.68045">
        <ele>341</ele>
        <time>2018-09-30T07:31:53.000Z</time>
      </trkpt>
      <trkpt lat="43.17859" lon="-0.6805">
        <ele>341</ele>
        <time>2018-09-30T07:31:55.000Z</time>
      </trkpt>
      <trkpt lat="43.1786" lon="-0.68056">
        <ele>341</ele>
        <time>2018-09-30T07:31:57.000Z</time>
      </trkpt>
      <trkpt lat="43.1786" lon="-0.68062">
        <ele>341</ele>
        <time>2018-09-30T07:31:59.000Z</time>
      </trkpt>
      <trkpt lat="43.1786" lon="-0.68069">
        <ele>341</ele>
        <time>2018-09-30T07:32:01.000Z</time>
      </trkpt>
      <trkpt lat="43.1786" lon="-0.68077">
        <ele>341</ele>
        <time>2018-09-30T07:32:03.000Z</time>
      </trkpt>
      <trkpt lat="43.17859" lon="-0.68086">
        <ele>341</ele>
        <time>2018-09-30T07:32:05.000Z</time>
      </trkpt>
      <trkpt lat="43.17859" lon="-0.68091">
        <ele>341</ele>
        <time>2018-09-30T07:32:06.000Z</time>
      </trkpt>
      <trkpt lat="43.17858" lon="-0.68097">
        <ele>341</ele>
        <time>2018-09-30T07:32:07.000Z</time>
      </trkpt>
      <trkpt lat="43.17857" lon="-0.68102">
        <ele>341</ele>
        <time>2018-09-30T07:32:08.000Z</time>
      </trkpt>
      <trkpt lat="43.17856" lon="-0.68108">
        <ele>340.54263204374</ele>
        <time>2018-09-30T07:32:09.000Z</time>
      </trkpt>
      <trkpt lat="43.17855" lon="-0.68114">
        <ele>340</ele>
        <time>2018-09-30T07:32:10.000Z</time>
      </trkpt>
      <trkpt lat="43.17854" lon="-0.68121">
        <ele>340</ele>
        <time>2018-09-30T07:32:11.000Z</time>
      </trkpt>
      <trkpt lat="43.17853" lon="-0.68127">
        <ele>340</ele>
        <time>2018-09-30T07:32:12.000Z</time>
      </trkpt>
      <trkpt lat="43.17851" lon="-0.68133">
        <ele>340</ele>
        <time>2018-09-30T07:32:13.000Z</time>
      </trkpt>
      <trkpt lat="43.17849" lon="-0.68139">
        <ele>340</ele>
        <time>2018-09-30T07:32:14.000Z</time>
      </trkpt>
      <trkpt lat="43.17847" lon="-0.68146">
        <ele>339.4099968</ele>
        <time>2018-09-30T07:32:15.000Z</time>
      </trkpt>
      <trkpt lat="43.17845" lon="-0.68152">
        <ele>339</ele>
        <time>2018-09-30T07:32:16.000Z</time>
      </trkpt>
      <trkpt lat="43.17842" lon="-0.68157">
        <ele>339</ele>
        <time>2018-09-30T07:32:17.000Z</time>
      </trkpt>
      <trkpt lat="43.17838" lon="-0.68162">
        <ele>339</ele>
        <time>2018-09-30T07:32:18.000Z</time>
      </trkpt>
      <trkpt lat="43.17834" lon="-0.68166">
        <ele>339</ele>
        <time>2018-09-30T07:32:19.000Z</time>
      </trkpt>
      <trkpt lat="43.17831" lon="-0.68169">
        <ele>339</ele>
        <time>2018-09-30T07:32:20.000Z</time>
      </trkpt>
      <trkpt lat="43.17828" lon="-0.68172">
        <ele>339</ele>
        <time>2018-09-30T07:32:21.000Z</time>
      </trkpt>
      <trkpt lat="43.17823" lon="-0.68178">
        <ele>339</ele>
        <time>2018-09-30T07:32:23.000Z</time>
      </trkpt>
      <trkpt lat="43.17817" lon="-0.68185">
        <ele>339</ele>
        <time>2018-09-30T07:32:25.000Z</time>
      </trkpt>
      <trkpt lat="43.17815" lon="-0.68188">
        <ele>339</ele>
        <time>2018-09-30T07:32:26.000Z</time>
      </trkpt>
      <trkpt lat="43.1781" lon="-0.68196">
        <ele>338</ele>
        <time>2018-09-30T07:32:28.000Z</time>
      </trkpt>
      <trkpt lat="43.17807" lon="-0.68203">
        <ele>338</ele>
        <time>2018-09-30T07:32:30.000Z</time>
      </trkpt>
      <trkpt lat="43.17804" lon="-0.68212">
        <ele>338</ele>
        <time>2018-09-30T07:32:32.000Z</time>
      </trkpt>
      <trkpt lat="43.17802" lon="-0.68217">
        <ele>338</ele>
        <time>2018-09-30T07:32:33.000Z</time>
      </trkpt>
      <trkpt lat="43.17801" lon="-0.68222">
        <ele>338</ele>
        <time>2018-09-30T07:32:34.000Z</time>
      </trkpt>
      <trkpt lat="43.178" lon="-0.68227">
        <ele>338</ele>
        <time>2018-09-30T07:32:35.000Z</time>
      </trkpt>
      <trkpt lat="43.178" lon="-0.68233">
        <ele>338</ele>
        <time>2018-09-30T07:32:36.000Z</time>
      </trkpt>
      <trkpt lat="43.17799" lon="-0.68239">
        <ele>338</ele>
        <time>2018-09-30T07:32:37.000Z</time>
      </trkpt>
      <trkpt lat="43.17799" lon="-0.68246">
        <ele>338</ele>
        <time>2018-09-30T07:32:38.000Z</time>
      </trkpt>
      <trkpt lat="43.178" lon="-0.68253">
        <ele>337.4099968</ele>
        <time>2018-09-30T07:32:39.000Z</time>
      </trkpt>
      <trkpt lat="43.178" lon="-0.68261">
        <ele>336.4099968</ele>
        <time>2018-09-30T07:32:40.000Z</time>
      </trkpt>
      <trkpt lat="43.178" lon="-0.68268">
        <ele>336</ele>
        <time>2018-09-30T07:32:41.000Z</time>
      </trkpt>
      <trkpt lat="43.17801" lon="-0.68275">
        <ele>336</ele>
        <time>2018-09-30T07:32:42.000Z</time>
      </trkpt>
      <trkpt lat="43.17801" lon="-0.68283">
        <ele>335.4099968</ele>
        <time>2018-09-30T07:32:43.000Z</time>
      </trkpt>
      <trkpt lat="43.17801" lon="-0.68291">
        <ele>335</ele>
        <time>2018-09-30T07:32:44.000Z</time>
      </trkpt>
      <trkpt lat="43.17801" lon="-0.68299">
        <ele>335</ele>
        <time>2018-09-30T07:32:45.000Z</time>
      </trkpt>
      <trkpt lat="43.17802" lon="-0.68308">
        <ele>335</ele>
        <time>2018-09-30T07:32:46.000Z</time>
      </trkpt>
      <trkpt lat="43.17802" lon="-0.68317">
        <ele>334.4099968</ele>
        <time>2018-09-30T07:32:47.000Z</time>
      </trkpt>
      <trkpt lat="43.17802" lon="-0.68326">
        <ele>334</ele>
        <time>2018-09-30T07:32:48.000Z</time>
      </trkpt>
      <trkpt lat="43.17801" lon="-0.68335">
        <ele>333.4099968</ele>
        <time>2018-09-30T07:32:49.000Z</time>
      </trkpt>
      <trkpt lat="43.17799" lon="-0.68342">
        <ele>332.54615361894</ele>
        <time>2018-09-30T07:32:50.000Z</time>
      </trkpt>
      <trkpt lat="43.17796" lon="-0.68349">
        <ele>331.17143013879</ele>
        <time>2018-09-30T07:32:51.000Z</time>
      </trkpt>
      <trkpt lat="43.17792" lon="-0.68355">
        <ele>330</ele>
        <time>2018-09-30T07:32:52.000Z</time>
      </trkpt>
      <trkpt lat="43.17788" lon="-0.6836">
        <ele>329.5857150694</ele>
        <time>2018-09-30T07:32:53.000Z</time>
      </trkpt>
      <trkpt lat="43.17783" lon="-0.68364">
        <ele>328.4099968</ele>
        <time>2018-09-30T07:32:54.000Z</time>
      </trkpt>
      <trkpt lat="43.17779" lon="-0.68368">
        <ele>327.4099968</ele>
        <time>2018-09-30T07:32:55.000Z</time>
      </trkpt>
      <trkpt lat="43.17773" lon="-0.68371">
        <ele>326.4099968</ele>
        <time>2018-09-30T07:32:56.000Z</time>
      </trkpt>
      <trkpt lat="43.1776" lon="-0.68379">
        <ele>323.4099968</ele>
        <time>2018-09-30T07:32:58.000Z</time>
      </trkpt>
      <trkpt lat="43.17745" lon="-0.68388">
        <ele>322.59420101658</ele>
        <time>2018-09-30T07:33:00.000Z</time>
      </trkpt>
      <trkpt lat="43.1773" lon="-0.68398">
        <ele>320</ele>
        <time>2018-09-30T07:33:02.000Z</time>
      </trkpt>
      <trkpt lat="43.17722" lon="-0.68404">
        <ele>320</ele>
        <time>2018-09-30T07:33:03.000Z</time>
      </trkpt>
      <trkpt lat="43.17715" lon="-0.68412">
        <ele>319.4099968</ele>
        <time>2018-09-30T07:33:04.000Z</time>
      </trkpt>
      <trkpt lat="43.17709" lon="-0.68419">
        <ele>318.4099968</ele>
        <time>2018-09-30T07:33:05.000Z</time>
      </trkpt>
      <trkpt lat="43.17698" lon="-0.68437">
        <ele>318</ele>
        <time>2018-09-30T07:33:07.000Z</time>
      </trkpt>
      <trkpt lat="43.17693" lon="-0.68447">
        <ele>318</ele>
        <time>2018-09-30T07:33:08.000Z</time>
      </trkpt>
      <trkpt lat="43.17691" lon="-0.68456">
        <ele>318</ele>
        <time>2018-09-30T07:33:09.000Z</time>
      </trkpt>
      <trkpt lat="43.1769" lon="-0.68465">
        <ele>318</ele>
        <time>2018-09-30T07:33:10.000Z</time>
      </trkpt>
      <trkpt lat="43.1769" lon="-0.68485">
        <ele>318</ele>
        <time>2018-09-30T07:33:12.000Z</time>
      </trkpt>
      <trkpt lat="43.17691" lon="-0.68505">
        <ele>317</ele>
        <time>2018-09-30T07:33:14.000Z</time>
      </trkpt>
      <trkpt lat="43.17691" lon="-0.68522">
        <ele>315.4099968</ele>
        <time>2018-09-30T07:33:16.000Z</time>
      </trkpt>
      <trkpt lat="43.17689" lon="-0.6854">
        <ele>314.4099968</ele>
        <time>2018-09-30T07:33:18.000Z</time>
      </trkpt>
      <trkpt lat="43.17684" lon="-0.68558">
        <ele>312.60293647059</ele>
        <time>2018-09-30T07:33:20.000Z</time>
      </trkpt>
      <trkpt lat="43.17682" lon="-0.68575">
        <ele>311.4099968</ele>
        <time>2018-09-30T07:33:22.000Z</time>
      </trkpt>
      <trkpt lat="43.17682" lon="-0.68584">
        <ele>311</ele>
        <time>2018-09-30T07:33:23.000Z</time>
      </trkpt>
      <trkpt lat="43.17684" lon="-0.68592">
        <ele>311</ele>
        <time>2018-09-30T07:33:24.000Z</time>
      </trkpt>
      <trkpt lat="43.17685" lon="-0.68601">
        <ele>311</ele>
        <time>2018-09-30T07:33:25.000Z</time>
      </trkpt>
      <trkpt lat="43.17688" lon="-0.6861">
        <ele>311</ele>
        <time>2018-09-30T07:33:26.000Z</time>
      </trkpt>
      <trkpt lat="43.1769" lon="-0.68619">
        <ele>311</ele>
        <time>2018-09-30T07:33:27.000Z</time>
      </trkpt>
      <trkpt lat="43.17692" lon="-0.68628">
        <ele>310.54263658193</ele>
        <time>2018-09-30T07:33:28.000Z</time>
      </trkpt>
      <trkpt lat="43.17695" lon="-0.68637">
        <ele>310</ele>
        <time>2018-09-30T07:33:29.000Z</time>
      </trkpt>
      <trkpt lat="43.17698" lon="-0.68646">
        <ele>310</ele>
        <time>2018-09-30T07:33:30.000Z</time>
      </trkpt>
      <trkpt lat="43.177" lon="-0.68655">
        <ele>310</ele>
        <time>2018-09-30T07:33:31.000Z</time>
      </trkpt>
      <trkpt lat="43.17702" lon="-0.68664">
        <ele>310</ele>
        <time>2018-09-30T07:33:32.000Z</time>
      </trkpt>
      <trkpt lat="43.17704" lon="-0.68673">
        <ele>309.4099968</ele>
        <time>2018-09-30T07:33:33.000Z</time>
      </trkpt>
      <trkpt lat="43.17706" lon="-0.68682">
        <ele>309</ele>
        <time>2018-09-30T07:33:34.000Z</time>
      </trkpt>
      <trkpt lat="43.17707" lon="-0.68691">
        <ele>309</ele>
        <time>2018-09-30T07:33:35.000Z</time>
      </trkpt>
      <trkpt lat="43.17709" lon="-0.687">
        <ele>309</ele>
        <time>2018-09-30T07:33:36.000Z</time>
      </trkpt>
      <trkpt lat="43.1771" lon="-0.68708">
        <ele>309</ele>
        <time>2018-09-30T07:33:37.000Z</time>
      </trkpt>
      <trkpt lat="43.17711" lon="-0.68715">
        <ele>308.4099968</ele>
        <time>2018-09-30T07:33:38.000Z</time>
      </trkpt>
      <trkpt lat="43.17711" lon="-0.68722">
        <ele>308</ele>
        <time>2018-09-30T07:33:39.000Z</time>
      </trkpt>
      <trkpt lat="43.17711" lon="-0.68728">
        <ele>308</ele>
        <time>2018-09-30T07:33:40.000Z</time>
      </trkpt>
      <trkpt lat="43.17711" lon="-0.68734">
        <ele>308</ele>
        <time>2018-09-30T07:33:41.000Z</time>
      </trkpt>
      <trkpt lat="43.1771" lon="-0.68743">
        <ele>308</ele>
        <time>2018-09-30T07:33:43.000Z</time>
      </trkpt>
      <trkpt lat="43.17708" lon="-0.68751">
        <ele>308.43056</ele>
        <time>2018-09-30T07:33:45.000Z</time>
      </trkpt>
      <trkpt lat="43.17706" lon="-0.68758">
        <ele>310</ele>
        <time>2018-09-30T07:33:47.000Z</time>
      </trkpt>
      <trkpt lat="43.17702" lon="-0.68765">
        <ele>310.5900032</ele>
        <time>2018-09-30T07:33:49.000Z</time>
      </trkpt>
      <trkpt lat="43.17699" lon="-0.68772">
        <ele>312</ele>
        <time>2018-09-30T07:33:51.000Z</time>
      </trkpt>
      <trkpt lat="43.17696" lon="-0.6878">
        <ele>312</ele>
        <time>2018-09-30T07:33:53.000Z</time>
      </trkpt>
      <trkpt lat="43.17693" lon="-0.68787">
        <ele>312</ele>
        <time>2018-09-30T07:33:55.000Z</time>
      </trkpt>
      <trkpt lat="43.1769" lon="-0.68794">
        <ele>312.5900032</ele>
        <time>2018-09-30T07:33:57.000Z</time>
      </trkpt>
      <trkpt lat="43.17687" lon="-0.688">
        <ele>313</ele>
        <time>2018-09-30T07:33:59.000Z</time>
      </trkpt>
      <trkpt lat="43.17683" lon="-0.68804">
        <ele>313</ele>
        <time>2018-09-30T07:34:01.000Z</time>
      </trkpt>
      <trkpt lat="43.17678" lon="-0.68808">
        <ele>314</ele>
        <time>2018-09-30T07:34:03.000Z</time>
      </trkpt>
      <trkpt lat="43.17672" lon="-0.6881">
        <ele>314</ele>
        <time>2018-09-30T07:34:05.000Z</time>
      </trkpt>
      <trkpt lat="43.17667" lon="-0.68811">
        <ele>315.42253191029</ele>
        <time>2018-09-30T07:34:07.000Z</time>
      </trkpt>
      <trkpt lat="43.17662" lon="-0.68813">
        <ele>316</ele>
        <time>2018-09-30T07:34:09.000Z</time>
      </trkpt>
      <trkpt lat="43.17657" lon="-0.68814">
        <ele>317</ele>
        <time>2018-09-30T07:34:11.000Z</time>
      </trkpt>
      <trkpt lat="43.17653" lon="-0.68816">
        <ele>318</ele>
        <time>2018-09-30T07:34:13.000Z</time>
      </trkpt>
      <trkpt lat="43.1765" lon="-0.68818">
        <ele>318</ele>
        <time>2018-09-30T07:34:15.000Z</time>
      </trkpt>
      <trkpt lat="43.17647" lon="-0.68821">
        <ele>318</ele>
        <time>2018-09-30T07:34:17.000Z</time>
      </trkpt>
      <trkpt lat="43.17644" lon="-0.68825">
        <ele>318</ele>
        <time>2018-09-30T07:34:19.000Z</time>
      </trkpt>
      <trkpt lat="43.17641" lon="-0.68829">
        <ele>318</ele>
        <time>2018-09-30T07:34:21.000Z</time>
      </trkpt>
      <trkpt lat="43.17639" lon="-0.68834">
        <ele>318</ele>
        <time>2018-09-30T07:34:23.000Z</time>
      </trkpt>
      <trkpt lat="43.17637" lon="-0.68839">
        <ele>318</ele>
        <time>2018-09-30T07:34:25.000Z</time>
      </trkpt>
      <trkpt lat="43.17635" lon="-0.68844">
        <ele>319</ele>
        <time>2018-09-30T07:34:27.000Z</time>
      </trkpt>
      <trkpt lat="43.17633" lon="-0.68849">
        <ele>319.5900032</ele>
        <time>2018-09-30T07:34:29.000Z</time>
      </trkpt>
      <trkpt lat="43.17632" lon="-0.68855">
        <ele>320</ele>
        <time>2018-09-30T07:34:31.000Z</time>
      </trkpt>
      <trkpt lat="43.17631" lon="-0.68861">
        <ele>320.5900032</ele>
        <time>2018-09-30T07:34:33.000Z</time>
      </trkpt>
      <trkpt lat="43.1763" lon="-0.68867">
        <ele>321</ele>
        <time>2018-09-30T07:34:35.000Z</time>
      </trkpt>
      <trkpt lat="43.17629" lon="-0.68872">
        <ele>321</ele>
        <time>2018-09-30T07:34:37.000Z</time>
      </trkpt>
      <trkpt lat="43.17628" lon="-0.68878">
        <ele>322</ele>
        <time>2018-09-30T07:34:39.000Z</time>
      </trkpt>
      <trkpt lat="43.17627" lon="-0.68883">
        <ele>322</ele>
        <time>2018-09-30T07:34:41.000Z</time>
      </trkpt>
      <trkpt lat="43.17628" lon="-0.68889">
        <ele>322</ele>
        <time>2018-09-30T07:34:43.000Z</time>
      </trkpt>
      <trkpt lat="43.17628" lon="-0.68895">
        <ele>322</ele>
        <time>2018-09-30T07:34:45.000Z</time>
      </trkpt>
      <trkpt lat="43.17629" lon="-0.689">
        <ele>322</ele>
        <time>2018-09-30T07:34:47.000Z</time>
      </trkpt>
      <trkpt lat="43.17629" lon="-0.68905">
        <ele>323</ele>
        <time>2018-09-30T07:34:49.000Z</time>
      </trkpt>
      <trkpt lat="43.17631" lon="-0.6891">
        <ele>323</ele>
        <time>2018-09-30T07:34:51.000Z</time>
      </trkpt>
      <trkpt lat="43.17633" lon="-0.68914">
        <ele>324</ele>
        <time>2018-09-30T07:34:53.000Z</time>
      </trkpt>
      <trkpt lat="43.17636" lon="-0.68917">
        <ele>324</ele>
        <time>2018-09-30T07:34:55.000Z</time>
      </trkpt>
      <trkpt lat="43.1764" lon="-0.68917">
        <ele>324</ele>
        <time>2018-09-30T07:34:57.000Z</time>
      </trkpt>
      <trkpt lat="43.17643" lon="-0.68915">
        <ele>324.5900032</ele>
        <time>2018-09-30T07:34:59.000Z</time>
      </trkpt>
      <trkpt lat="43.17646" lon="-0.68912">
        <ele>325.57732149219</ele>
        <time>2018-09-30T07:35:01.000Z</time>
      </trkpt>
      <trkpt lat="43.17648" lon="-0.68907">
        <ele>326</ele>
        <time>2018-09-30T07:35:03.000Z</time>
      </trkpt>
      <trkpt lat="43.17649" lon="-0.68902">
        <ele>326</ele>
        <time>2018-09-30T07:35:05.000Z</time>
      </trkpt>
      <trkpt lat="43.17648" lon="-0.68896">
        <ele>327</ele>
        <time>2018-09-30T07:35:07.000Z</time>
      </trkpt>
      <trkpt lat="43.17649" lon="-0.68892">
        <ele>327.5900032</ele>
        <time>2018-09-30T07:35:09.000Z</time>
      </trkpt>
      <trkpt lat="43.1765" lon="-0.68887">
        <ele>328</ele>
        <time>2018-09-30T07:35:11.000Z</time>
      </trkpt>
      <trkpt lat="43.17653" lon="-0.68882">
        <ele>328</ele>
        <time>2018-09-30T07:35:14.000Z</time>
      </trkpt>
      <trkpt lat="43.17655" lon="-0.68878">
        <ele>328.57732149219</ele>
        <time>2018-09-30T07:35:16.000Z</time>
      </trkpt>
      <trkpt lat="43.17658" lon="-0.68874">
        <ele>329</ele>
        <time>2018-09-30T07:35:18.000Z</time>
      </trkpt>
      <trkpt lat="43.17661" lon="-0.6887">
        <ele>329</ele>
        <time>2018-09-30T07:35:20.000Z</time>
      </trkpt>
      <trkpt lat="43.17664" lon="-0.68867">
        <ele>329</ele>
        <time>2018-09-30T07:35:22.000Z</time>
      </trkpt>
      <trkpt lat="43.17667" lon="-0.68864">
        <ele>329.5900032</ele>
        <time>2018-09-30T07:35:24.000Z</time>
      </trkpt>
      <trkpt lat="43.17671" lon="-0.68861">
        <ele>330</ele>
        <time>2018-09-30T07:35:26.000Z</time>
      </trkpt>
      <trkpt lat="43.17675" lon="-0.6886">
        <ele>330</ele>
        <time>2018-09-30T07:35:28.000Z</time>
      </trkpt>
      <trkpt lat="43.17678" lon="-0.68859">
        <ele>330</ele>
        <time>2018-09-30T07:35:30.000Z</time>
      </trkpt>
      <trkpt lat="43.17683" lon="-0.68859">
        <ele>330</ele>
        <time>2018-09-30T07:35:32.000Z</time>
      </trkpt>
      <trkpt lat="43.17687" lon="-0.68859">
        <ele>330.5900032</ele>
        <time>2018-09-30T07:35:34.000Z</time>
      </trkpt>
      <trkpt lat="43.17691" lon="-0.6886">
        <ele>331</ele>
        <time>2018-09-30T07:35:36.000Z</time>
      </trkpt>
      <trkpt lat="43.17695" lon="-0.68862">
        <ele>331</ele>
        <time>2018-09-30T07:35:38.000Z</time>
      </trkpt>
      <trkpt lat="43.17698" lon="-0.68865">
        <ele>331.43056</ele>
        <time>2018-09-30T07:35:40.000Z</time>
      </trkpt>
      <trkpt lat="43.17702" lon="-0.68869">
        <ele>332</ele>
        <time>2018-09-30T07:35:42.000Z</time>
      </trkpt>
      <trkpt lat="43.17705" lon="-0.68873">
        <ele>332.5900032</ele>
        <time>2018-09-30T07:35:44.000Z</time>
      </trkpt>
      <trkpt lat="43.17709" lon="-0.68877">
        <ele>333</ele>
        <time>2018-09-30T07:35:46.000Z</time>
      </trkpt>
      <trkpt lat="43.17711" lon="-0.6888">
        <ele>333.5900032</ele>
        <time>2018-09-30T07:35:48.000Z</time>
      </trkpt>
      <trkpt lat="43.17714" lon="-0.68884">
        <ele>334</ele>
        <time>2018-09-30T07:35:50.000Z</time>
      </trkpt>
      <trkpt lat="43.17717" lon="-0.68889">
        <ele>334</ele>
        <time>2018-09-30T07:35:52.000Z</time>
      </trkpt>
      <trkpt lat="43.17719" lon="-0.68895">
        <ele>334</ele>
        <time>2018-09-30T07:35:54.000Z</time>
      </trkpt>
      <trkpt lat="43.17721" lon="-0.68901">
        <ele>334</ele>
        <time>2018-09-30T07:35:56.000Z</time>
      </trkpt>
      <trkpt lat="43.17723" lon="-0.68906">
        <ele>334</ele>
        <time>2018-09-30T07:35:58.000Z</time>
      </trkpt>
      <trkpt lat="43.17724" lon="-0.68912">
        <ele>334</ele>
        <time>2018-09-30T07:36:00.000Z</time>
      </trkpt>
      <trkpt lat="43.17725" lon="-0.68918">
        <ele>334</ele>
        <time>2018-09-30T07:36:02.000Z</time>
      </trkpt>
      <trkpt lat="43.17727" lon="-0.68925">
        <ele>335</ele>
        <time>2018-09-30T07:36:04.000Z</time>
      </trkpt>
      <trkpt lat="43.17729" lon="-0.68932">
        <ele>335</ele>
        <time>2018-09-30T07:36:06.000Z</time>
      </trkpt>
      <trkpt lat="43.17729" lon="-0.68941">
        <ele>335.5900032</ele>
        <time>2018-09-30T07:36:08.000Z</time>
      </trkpt>
      <trkpt lat="43.1773" lon="-0.68949">
        <ele>336</ele>
        <time>2018-09-30T07:36:10.000Z</time>
      </trkpt>
      <trkpt lat="43.1773" lon="-0.68958">
        <ele>335</ele>
        <time>2018-09-30T07:36:12.000Z</time>
      </trkpt>
      <trkpt lat="43.1773" lon="-0.68963">
        <ele>335</ele>
        <time>2018-09-30T07:36:13.000Z</time>
      </trkpt>
      <trkpt lat="43.17729" lon="-0.68969">
        <ele>335</ele>
        <time>2018-09-30T07:36:14.000Z</time>
      </trkpt>
      <trkpt lat="43.17729" lon="-0.68975">
        <ele>335</ele>
        <time>2018-09-30T07:36:15.000Z</time>
      </trkpt>
      <trkpt lat="43.17728" lon="-0.6898">
        <ele>335</ele>
        <time>2018-09-30T07:36:16.000Z</time>
      </trkpt>
      <trkpt lat="43.17727" lon="-0.68986">
        <ele>335</ele>
        <time>2018-09-30T07:36:17.000Z</time>
      </trkpt>
      <trkpt lat="43.17725" lon="-0.68992">
        <ele>335</ele>
        <time>2018-09-30T07:36:18.000Z</time>
      </trkpt>
      <trkpt lat="43.17723" lon="-0.68999">
        <ele>334.54687</ele>
        <time>2018-09-30T07:36:19.000Z</time>
      </trkpt>
      <trkpt lat="43.17722" lon="-0.69006">
        <ele>334</ele>
        <time>2018-09-30T07:36:20.000Z</time>
      </trkpt>
      <trkpt lat="43.1772" lon="-0.69012">
        <ele>334</ele>
        <time>2018-09-30T07:36:21.000Z</time>
      </trkpt>
      <trkpt lat="43.17718" lon="-0.69019">
        <ele>334</ele>
        <time>2018-09-30T07:36:22.000Z</time>
      </trkpt>
      <trkpt lat="43.17716" lon="-0.69026">
        <ele>334</ele>
        <time>2018-09-30T07:36:23.000Z</time>
      </trkpt>
      <trkpt lat="43.17715" lon="-0.69032">
        <ele>334</ele>
        <time>2018-09-30T07:36:24.000Z</time>
      </trkpt>
      <trkpt lat="43.17713" lon="-0.6904">
        <ele>334</ele>
        <time>2018-09-30T07:36:25.000Z</time>
      </trkpt>
      <trkpt lat="43.17712" lon="-0.69046">
        <ele>334</ele>
        <time>2018-09-30T07:36:26.000Z</time>
      </trkpt>
      <trkpt lat="43.1771" lon="-0.69053">
        <ele>334</ele>
        <time>2018-09-30T07:36:27.000Z</time>
      </trkpt>
      <trkpt lat="43.17709" lon="-0.69059">
        <ele>334</ele>
        <time>2018-09-30T07:36:28.000Z</time>
      </trkpt>
      <trkpt lat="43.17707" lon="-0.69066">
        <ele>334</ele>
        <time>2018-09-30T07:36:29.000Z</time>
      </trkpt>
      <trkpt lat="43.17706" lon="-0.69072">
        <ele>334</ele>
        <time>2018-09-30T07:36:30.000Z</time>
      </trkpt>
      <trkpt lat="43.17704" lon="-0.69079">
        <ele>333.4099968</ele>
        <time>2018-09-30T07:36:31.000Z</time>
      </trkpt>
      <trkpt lat="43.17703" lon="-0.69085">
        <ele>333</ele>
        <time>2018-09-30T07:36:32.000Z</time>
      </trkpt>
      <trkpt lat="43.17702" lon="-0.69091">
        <ele>333.5900032</ele>
        <time>2018-09-30T07:36:33.000Z</time>
      </trkpt>
      <trkpt lat="43.177" lon="-0.69097">
        <ele>334</ele>
        <time>2018-09-30T07:36:34.000Z</time>
      </trkpt>
      <trkpt lat="43.17699" lon="-0.69102">
        <ele>334</ele>
        <time>2018-09-30T07:36:35.000Z</time>
      </trkpt>
      <trkpt lat="43.17697" lon="-0.69107">
        <ele>334</ele>
        <time>2018-09-30T07:36:36.000Z</time>
      </trkpt>
      <trkpt lat="43.17694" lon="-0.69116">
        <ele>334</ele>
        <time>2018-09-30T07:36:38.000Z</time>
      </trkpt>
      <trkpt lat="43.17691" lon="-0.69123">
        <ele>334</ele>
        <time>2018-09-30T07:36:40.000Z</time>
      </trkpt>
      <trkpt lat="43.17687" lon="-0.69131">
        <ele>334</ele>
        <time>2018-09-30T07:36:42.000Z</time>
      </trkpt>
      <trkpt lat="43.17684" lon="-0.69139">
        <ele>334</ele>
        <time>2018-09-30T07:36:44.000Z</time>
      </trkpt>
      <trkpt lat="43.1768" lon="-0.69151">
        <ele>335.5900032</ele>
        <time>2018-09-30T07:36:47.000Z</time>
      </trkpt>
      <trkpt lat="43.17677" lon="-0.69158">
        <ele>336</ele>
        <time>2018-09-30T07:36:49.000Z</time>
      </trkpt>
      <trkpt lat="43.17673" lon="-0.69175">
        <ele>337</ele>
        <time>2018-09-30T07:36:54.000Z</time>
      </trkpt>
      <trkpt lat="43.17671" lon="-0.69182">
        <ele>337</ele>
        <time>2018-09-30T07:36:56.000Z</time>
      </trkpt>
      <trkpt lat="43.17666" lon="-0.69197">
        <ele>338</ele>
        <time>2018-09-30T07:37:00.000Z</time>
      </trkpt>
      <trkpt lat="43.17664" lon="-0.69214">
        <ele>339</ele>
        <time>2018-09-30T07:37:05.000Z</time>
      </trkpt>
      <trkpt lat="43.17662" lon="-0.69231">
        <ele>340</ele>
        <time>2018-09-30T07:37:09.000Z</time>
      </trkpt>
      <trkpt lat="43.17665" lon="-0.69249">
        <ele>340.4142849306</ele>
        <time>2018-09-30T07:37:14.000Z</time>
      </trkpt>
      <trkpt lat="43.17666" lon="-0.69255">
        <ele>341</ele>
        <time>2018-09-30T07:37:16.000Z</time>
      </trkpt>
      <trkpt lat="43.17667" lon="-0.69262">
        <ele>342.5900032</ele>
        <time>2018-09-30T07:37:18.000Z</time>
      </trkpt>
      <trkpt lat="43.17669" lon="-0.69269">
        <ele>343</ele>
        <time>2018-09-30T07:37:20.000Z</time>
      </trkpt>
      <trkpt lat="43.1767" lon="-0.69283">
        <ele>343</ele>
        <time>2018-09-30T07:37:24.000Z</time>
      </trkpt>
      <trkpt lat="43.17672" lon="-0.69295">
        <ele>344</ele>
        <time>2018-09-30T07:37:27.000Z</time>
      </trkpt>
      <trkpt lat="43.17674" lon="-0.69302">
        <ele>344.5900032</ele>
        <time>2018-09-30T07:37:29.000Z</time>
      </trkpt>
      <trkpt lat="43.17676" lon="-0.69308">
        <ele>345</ele>
        <time>2018-09-30T07:37:31.000Z</time>
      </trkpt>
      <trkpt lat="43.17682" lon="-0.69321">
        <ele>346</ele>
        <time>2018-09-30T07:37:35.000Z</time>
      </trkpt>
      <trkpt lat="43.17686" lon="-0.69328">
        <ele>346</ele>
        <time>2018-09-30T07:37:37.000Z</time>
      </trkpt>
      <trkpt lat="43.1769" lon="-0.69334">
        <ele>346</ele>
        <time>2018-09-30T07:37:39.000Z</time>
      </trkpt>
      <trkpt lat="43.17693" lon="-0.6934">
        <ele>346</ele>
        <time>2018-09-30T07:37:41.000Z</time>
      </trkpt>
      <trkpt lat="43.17695" lon="-0.69347">
        <ele>346</ele>
        <time>2018-09-30T07:37:43.000Z</time>
      </trkpt>
      <trkpt lat="43.17696" lon="-0.69354">
        <ele>346</ele>
        <time>2018-09-30T07:37:45.000Z</time>
      </trkpt>
      <trkpt lat="43.17695" lon="-0.69362">
        <ele>346</ele>
        <time>2018-09-30T07:37:47.000Z</time>
      </trkpt>
      <trkpt lat="43.17693" lon="-0.69369">
        <ele>347</ele>
        <time>2018-09-30T07:37:49.000Z</time>
      </trkpt>
      <trkpt lat="43.17691" lon="-0.69377">
        <ele>347</ele>
        <time>2018-09-30T07:37:51.000Z</time>
      </trkpt>
      <trkpt lat="43.1769" lon="-0.69383">
        <ele>347</ele>
        <time>2018-09-30T07:37:53.000Z</time>
      </trkpt>
      <trkpt lat="43.17687" lon="-0.6939">
        <ele>347.43056</ele>
        <time>2018-09-30T07:37:55.000Z</time>
      </trkpt>
      <trkpt lat="43.17684" lon="-0.69397">
        <ele>348</ele>
        <time>2018-09-30T07:37:57.000Z</time>
      </trkpt>
      <trkpt lat="43.17681" lon="-0.69404">
        <ele>348</ele>
        <time>2018-09-30T07:37:59.000Z</time>
      </trkpt>
      <trkpt lat="43.17677" lon="-0.6941">
        <ele>348.5900032</ele>
        <time>2018-09-30T07:38:01.000Z</time>
      </trkpt>
      <trkpt lat="43.17674" lon="-0.69416">
        <ele>349</ele>
        <time>2018-09-30T07:38:03.000Z</time>
      </trkpt>
      <trkpt lat="43.1767" lon="-0.69422">
        <ele>350</ele>
        <time>2018-09-30T07:38:05.000Z</time>
      </trkpt>
      <trkpt lat="43.17667" lon="-0.69428">
        <ele>350.43056</ele>
        <time>2018-09-30T07:38:07.000Z</time>
      </trkpt>
      <trkpt lat="43.17663" lon="-0.69434">
        <ele>351</ele>
        <time>2018-09-30T07:38:09.000Z</time>
      </trkpt>
      <trkpt lat="43.1766" lon="-0.69439">
        <ele>351</ele>
        <time>2018-09-30T07:38:11.000Z</time>
      </trkpt>
      <trkpt lat="43.17656" lon="-0.69444">
        <ele>351.45736795626</ele>
        <time>2018-09-30T07:38:13.000Z</time>
      </trkpt>
      <trkpt lat="43.17652" lon="-0.6945">
        <ele>352</ele>
        <time>2018-09-30T07:38:15.000Z</time>
      </trkpt>
      <trkpt lat="43.17648" lon="-0.69455">
        <ele>352</ele>
        <time>2018-09-30T07:38:17.000Z</time>
      </trkpt>
      <trkpt lat="43.17645" lon="-0.6946">
        <ele>352</ele>
        <time>2018-09-30T07:38:19.000Z</time>
      </trkpt>
      <trkpt lat="43.17643" lon="-0.69465">
        <ele>353</ele>
        <time>2018-09-30T07:38:21.000Z</time>
      </trkpt>
      <trkpt lat="43.1764" lon="-0.69469">
        <ele>353</ele>
        <time>2018-09-30T07:38:23.000Z</time>
      </trkpt>
      <trkpt lat="43.17637" lon="-0.69473">
        <ele>353.58163318618</ele>
        <time>2018-09-30T07:38:25.000Z</time>
      </trkpt>
      <trkpt lat="43.17634" lon="-0.69476">
        <ele>355</ele>
        <time>2018-09-30T07:38:27.000Z</time>
      </trkpt>
      <trkpt lat="43.17632" lon="-0.6948">
        <ele>355</ele>
        <time>2018-09-30T07:38:29.000Z</time>
      </trkpt>
      <trkpt lat="43.17628" lon="-0.69484">
        <ele>355</ele>
        <time>2018-09-30T07:38:32.000Z</time>
      </trkpt>
      <trkpt lat="43.1762" lon="-0.69496">
        <ele>356</ele>
        <time>2018-09-30T07:38:38.000Z</time>
      </trkpt>
      <trkpt lat="43.17616" lon="-0.69504">
        <ele>357</ele>
        <time>2018-09-30T07:38:41.000Z</time>
      </trkpt>
      <trkpt lat="43.1761" lon="-0.69519">
        <ele>357</ele>
        <time>2018-09-30T07:38:46.000Z</time>
      </trkpt>
      <trkpt lat="43.17608" lon="-0.6953">
        <ele>358</ele>
        <time>2018-09-30T07:38:49.000Z</time>
      </trkpt>
      <trkpt lat="43.17611" lon="-0.69546">
        <ele>358</ele>
        <time>2018-09-30T07:38:54.000Z</time>
      </trkpt>
      <trkpt lat="43.17615" lon="-0.69558">
        <ele>358.5900032</ele>
        <time>2018-09-30T07:38:57.000Z</time>
      </trkpt>
      <trkpt lat="43.17618" lon="-0.69565">
        <ele>359</ele>
        <time>2018-09-30T07:38:59.000Z</time>
      </trkpt>
      <trkpt lat="43.17621" lon="-0.69572">
        <ele>359.5900032</ele>
        <time>2018-09-30T07:39:01.000Z</time>
      </trkpt>
      <trkpt lat="43.17622" lon="-0.69586">
        <ele>360</ele>
        <time>2018-09-30T07:39:05.000Z</time>
      </trkpt>
      <trkpt lat="43.1762" lon="-0.69601">
        <ele>360.43056</ele>
        <time>2018-09-30T07:39:09.000Z</time>
      </trkpt>
      <trkpt lat="43.17618" lon="-0.69618">
        <ele>361</ele>
        <time>2018-09-30T07:39:14.000Z</time>
      </trkpt>
      <trkpt lat="43.17613" lon="-0.69628">
        <ele>362</ele>
        <time>2018-09-30T07:39:17.000Z</time>
      </trkpt>
      <trkpt lat="43.17606" lon="-0.69641">
        <ele>363</ele>
        <time>2018-09-30T07:39:22.000Z</time>
      </trkpt>
      <trkpt lat="43.17604" lon="-0.69645">
        <ele>363</ele>
        <time>2018-09-30T07:39:23.000Z</time>
      </trkpt>
      <trkpt lat="43.17599" lon="-0.69652">
        <ele>363</ele>
        <time>2018-09-30T07:39:25.000Z</time>
      </trkpt>
      <trkpt lat="43.17595" lon="-0.69658">
        <ele>363</ele>
        <time>2018-09-30T07:39:27.000Z</time>
      </trkpt>
      <trkpt lat="43.17591" lon="-0.69664">
        <ele>363</ele>
        <time>2018-09-30T07:39:29.000Z</time>
      </trkpt>
      <trkpt lat="43.17587" lon="-0.69669">
        <ele>364</ele>
        <time>2018-09-30T07:39:31.000Z</time>
      </trkpt>
      <trkpt lat="43.17584" lon="-0.69672">
        <ele>364</ele>
        <time>2018-09-30T07:39:33.000Z</time>
      </trkpt>
      <trkpt lat="43.1758" lon="-0.69677">
        <ele>364.5900032</ele>
        <time>2018-09-30T07:39:35.000Z</time>
      </trkpt>
      <trkpt lat="43.17577" lon="-0.69681">
        <ele>365</ele>
        <time>2018-09-30T07:39:37.000Z</time>
      </trkpt>
      <trkpt lat="43.17567" lon="-0.69692">
        <ele>365</ele>
        <time>2018-09-30T07:39:42.000Z</time>
      </trkpt>
      <trkpt lat="43.1756" lon="-0.69704">
        <ele>366</ele>
        <time>2018-09-30T07:39:47.000Z</time>
      </trkpt>
      <trkpt lat="43.17553" lon="-0.69717">
        <ele>368</ele>
        <time>2018-09-30T07:39:53.000Z</time>
      </trkpt>
      <trkpt lat="43.17546" lon="-0.69731">
        <ele>369</ele>
        <time>2018-09-30T07:39:58.000Z</time>
      </trkpt>
      <trkpt lat="43.17539" lon="-0.69743">
        <ele>370</ele>
        <time>2018-09-30T07:40:03.000Z</time>
      </trkpt>
      <trkpt lat="43.17539" lon="-0.69758">
        <ele>370</ele>
        <time>2018-09-30T07:40:09.000Z</time>
      </trkpt>
      <trkpt lat="43.17541" lon="-0.69774">
        <ele>370</ele>
        <time>2018-09-30T07:40:13.000Z</time>
      </trkpt>
      <trkpt lat="43.17547" lon="-0.69788">
        <ele>372</ele>
        <time>2018-09-30T07:40:17.000Z</time>
      </trkpt>
      <trkpt lat="43.17552" lon="-0.6979">
        <ele>373</ele>
        <time>2018-09-30T07:40:19.000Z</time>
      </trkpt>
      <trkpt lat="43.17557" lon="-0.69791">
        <ele>373</ele>
        <time>2018-09-30T07:40:21.000Z</time>
      </trkpt>
      <trkpt lat="43.17562" lon="-0.69792">
        <ele>373</ele>
        <time>2018-09-30T07:40:23.000Z</time>
      </trkpt>
      <trkpt lat="43.17567" lon="-0.69792">
        <ele>373.5900032</ele>
        <time>2018-09-30T07:40:25.000Z</time>
      </trkpt>
      <trkpt lat="43.17573" lon="-0.69793">
        <ele>374</ele>
        <time>2018-09-30T07:40:27.000Z</time>
      </trkpt>
      <trkpt lat="43.17578" lon="-0.69795">
        <ele>375</ele>
        <time>2018-09-30T07:40:29.000Z</time>
      </trkpt>
      <trkpt lat="43.17583" lon="-0.69796">
        <ele>375</ele>
        <time>2018-09-30T07:40:31.000Z</time>
      </trkpt>
      <trkpt lat="43.17587" lon="-0.69798">
        <ele>376</ele>
        <time>2018-09-30T07:40:33.000Z</time>
      </trkpt>
      <trkpt lat="43.17592" lon="-0.698">
        <ele>376</ele>
        <time>2018-09-30T07:40:35.000Z</time>
      </trkpt>
      <trkpt lat="43.17596" lon="-0.69803">
        <ele>376</ele>
        <time>2018-09-30T07:40:37.000Z</time>
      </trkpt>
      <trkpt lat="43.17599" lon="-0.69807">
        <ele>376</ele>
        <time>2018-09-30T07:40:39.000Z</time>
      </trkpt>
      <trkpt lat="43.17603" lon="-0.69811">
        <ele>376</ele>
        <time>2018-09-30T07:40:41.000Z</time>
      </trkpt>
      <trkpt lat="43.17606" lon="-0.69816">
        <ele>377</ele>
        <time>2018-09-30T07:40:43.000Z</time>
      </trkpt>
      <trkpt lat="43.17609" lon="-0.69822">
        <ele>377</ele>
        <time>2018-09-30T07:40:45.000Z</time>
      </trkpt>
      <trkpt lat="43.17611" lon="-0.69828">
        <ele>377.43056</ele>
        <time>2018-09-30T07:40:47.000Z</time>
      </trkpt>
      <trkpt lat="43.17612" lon="-0.69835">
        <ele>378</ele>
        <time>2018-09-30T07:40:49.000Z</time>
      </trkpt>
      <trkpt lat="43.17613" lon="-0.69842">
        <ele>379</ele>
        <time>2018-09-30T07:40:51.000Z</time>
      </trkpt>
      <trkpt lat="43.17613" lon="-0.69848">
        <ele>379</ele>
        <time>2018-09-30T07:40:53.000Z</time>
      </trkpt>
      <trkpt lat="43.17614" lon="-0.69853">
        <ele>379</ele>
        <time>2018-09-30T07:40:55.000Z</time>
      </trkpt>
      <trkpt lat="43.17619" lon="-0.69868">
        <ele>380</ele>
        <time>2018-09-30T07:41:02.000Z</time>
      </trkpt>
      <trkpt lat="43.17624" lon="-0.69884">
        <ele>381</ele>
        <time>2018-09-30T07:41:06.000Z</time>
      </trkpt>
      <trkpt lat="43.17636" lon="-0.69892">
        <ele>381</ele>
        <time>2018-09-30T07:41:11.000Z</time>
      </trkpt>
      <trkpt lat="43.17648" lon="-0.69895">
        <ele>382</ele>
        <time>2018-09-30T07:41:15.000Z</time>
      </trkpt>
      <trkpt lat="43.1766" lon="-0.69899">
        <ele>382</ele>
        <time>2018-09-30T07:41:19.000Z</time>
      </trkpt>
      <trkpt lat="43.17671" lon="-0.699">
        <ele>382</ele>
        <time>2018-09-30T07:41:23.000Z</time>
      </trkpt>
      <trkpt lat="43.17683" lon="-0.69901">
        <ele>382</ele>
        <time>2018-09-30T07:41:27.000Z</time>
      </trkpt>
      <trkpt lat="43.17691" lon="-0.699">
        <ele>382</ele>
        <time>2018-09-30T07:41:30.000Z</time>
      </trkpt>
      <trkpt lat="43.17697" lon="-0.69899">
        <ele>382</ele>
        <time>2018-09-30T07:41:32.000Z</time>
      </trkpt>
      <trkpt lat="43.17703" lon="-0.69897">
        <ele>382</ele>
        <time>2018-09-30T07:41:34.000Z</time>
      </trkpt>
      <trkpt lat="43.17709" lon="-0.69896">
        <ele>382</ele>
        <time>2018-09-30T07:41:36.000Z</time>
      </trkpt>
      <trkpt lat="43.17715" lon="-0.69894">
        <ele>383</ele>
        <time>2018-09-30T07:41:38.000Z</time>
      </trkpt>
      <trkpt lat="43.1772" lon="-0.69893">
        <ele>383</ele>
        <time>2018-09-30T07:41:40.000Z</time>
      </trkpt>
      <trkpt lat="43.17726" lon="-0.6989">
        <ele>383</ele>
        <time>2018-09-30T07:41:42.000Z</time>
      </trkpt>
      <trkpt lat="43.17732" lon="-0.69887">
        <ele>383</ele>
        <time>2018-09-30T07:41:44.000Z</time>
      </trkpt>
      <trkpt lat="43.17738" lon="-0.69885">
        <ele>383</ele>
        <time>2018-09-30T07:41:46.000Z</time>
      </trkpt>
      <trkpt lat="43.17745" lon="-0.69882">
        <ele>383</ele>
        <time>2018-09-30T07:41:48.000Z</time>
      </trkpt>
      <trkpt lat="43.17751" lon="-0.69879">
        <ele>383</ele>
        <time>2018-09-30T07:41:50.000Z</time>
      </trkpt>
      <trkpt lat="43.1776" lon="-0.69875">
        <ele>383</ele>
        <time>2018-09-30T07:41:53.000Z</time>
      </trkpt>
      <trkpt lat="43.17766" lon="-0.69872">
        <ele>383</ele>
        <time>2018-09-30T07:41:55.000Z</time>
      </trkpt>
      <trkpt lat="43.17772" lon="-0.69869">
        <ele>383</ele>
        <time>2018-09-30T07:41:57.000Z</time>
      </trkpt>
      <trkpt lat="43.17782" lon="-0.6987">
        <ele>383</ele>
        <time>2018-09-30T07:42:00.000Z</time>
      </trkpt>
      <trkpt lat="43.17789" lon="-0.69873">
        <ele>383</ele>
        <time>2018-09-30T07:42:02.000Z</time>
      </trkpt>
      <trkpt lat="43.17794" lon="-0.69879">
        <ele>383</ele>
        <time>2018-09-30T07:42:04.000Z</time>
      </trkpt>
      <trkpt lat="43.17797" lon="-0.69882">
        <ele>383</ele>
        <time>2018-09-30T07:42:06.000Z</time>
      </trkpt>
      <trkpt lat="43.17801" lon="-0.69878">
        <ele>383</ele>
        <time>2018-09-30T07:42:10.000Z</time>
      </trkpt>
      <trkpt lat="43.17801" lon="-0.69873">
        <ele>383</ele>
        <time>2018-09-30T07:42:12.000Z</time>
      </trkpt>
      <trkpt lat="43.17803" lon="-0.69868">
        <ele>382</ele>
        <time>2018-09-30T07:42:14.000Z</time>
      </trkpt>
      <trkpt lat="43.17806" lon="-0.69863">
        <ele>382</ele>
        <time>2018-09-30T07:42:16.000Z</time>
      </trkpt>
      <trkpt lat="43.17811" lon="-0.69857">
        <ele>381.54263658193</ele>
        <time>2018-09-30T07:42:18.000Z</time>
      </trkpt>
      <trkpt lat="43.17813" lon="-0.69853">
        <ele>381</ele>
        <time>2018-09-30T07:42:19.000Z</time>
      </trkpt>
      <trkpt lat="43.17818" lon="-0.69847">
        <ele>380.5857150694</ele>
        <time>2018-09-30T07:42:21.000Z</time>
      </trkpt>
      <trkpt lat="43.17821" lon="-0.69844">
        <ele>379.4099968</ele>
        <time>2018-09-30T07:42:22.000Z</time>
      </trkpt>
      <trkpt lat="43.17832" lon="-0.69836">
        <ele>378</ele>
        <time>2018-09-30T07:42:24.000Z</time>
      </trkpt>
      <trkpt lat="43.17842" lon="-0.69826">
        <ele>376.4099968</ele>
        <time>2018-09-30T07:42:26.000Z</time>
      </trkpt>
      <trkpt lat="43.17846" lon="-0.6982">
        <ele>376</ele>
        <time>2018-09-30T07:42:27.000Z</time>
      </trkpt>
      <trkpt lat="43.1785" lon="-0.69813">
        <ele>375.5857150694</ele>
        <time>2018-09-30T07:42:28.000Z</time>
      </trkpt>
      <trkpt lat="43.17856" lon="-0.698">
        <ele>373.4099968</ele>
        <time>2018-09-30T07:42:30.000Z</time>
      </trkpt>
      <trkpt lat="43.1786" lon="-0.69787">
        <ele>370.4099968</ele>
        <time>2018-09-30T07:42:32.000Z</time>
      </trkpt>
      <trkpt lat="43.17862" lon="-0.6978">
        <ele>369.4099968</ele>
        <time>2018-09-30T07:42:33.000Z</time>
      </trkpt>
      <trkpt lat="43.17869" lon="-0.69769">
        <ele>367.4099968</ele>
        <time>2018-09-30T07:42:35.000Z</time>
      </trkpt>
      <trkpt lat="43.17884" lon="-0.69771">
        <ele>365.03048585366</ele>
        <time>2018-09-30T07:42:38.000Z</time>
      </trkpt>
      <trkpt lat="43.17893" lon="-0.6978">
        <ele>364</ele>
        <time>2018-09-30T07:42:40.000Z</time>
      </trkpt>
      <trkpt lat="43.17904" lon="-0.69793">
        <ele>364</ele>
        <time>2018-09-30T07:42:42.000Z</time>
      </trkpt>
      <trkpt lat="43.17913" lon="-0.69806">
        <ele>362.41414219774</ele>
        <time>2018-09-30T07:42:44.000Z</time>
      </trkpt>
      <trkpt lat="43.17921" lon="-0.69824">
        <ele>360.59420101658</ele>
        <time>2018-09-30T07:42:47.000Z</time>
      </trkpt>
      <trkpt lat="43.17935" lon="-0.69836">
        <ele>358</ele>
        <time>2018-09-30T07:42:50.000Z</time>
      </trkpt>
      <trkpt lat="43.17947" lon="-0.69844">
        <ele>356.4099968</ele>
        <time>2018-09-30T07:42:52.000Z</time>
      </trkpt>
      <trkpt lat="43.17957" lon="-0.69854">
        <ele>354.59420101658</ele>
        <time>2018-09-30T07:42:54.000Z</time>
      </trkpt>
      <trkpt lat="43.1797" lon="-0.69863">
        <ele>352.4099968</ele>
        <time>2018-09-30T07:42:56.000Z</time>
      </trkpt>
      <trkpt lat="43.17981" lon="-0.69869">
        <ele>351.54263658193</ele>
        <time>2018-09-30T07:42:58.000Z</time>
      </trkpt>
      <trkpt lat="43.17996" lon="-0.69874">
        <ele>346.8199936</ele>
        <time>2018-09-30T07:43:01.000Z</time>
      </trkpt>
      <trkpt lat="43.18006" lon="-0.69871">
        <ele>346</ele>
        <time>2018-09-30T07:43:04.000Z</time>
      </trkpt>
      <trkpt lat="43.18018" lon="-0.69866">
        <ele>343.4099968</ele>
        <time>2018-09-30T07:43:07.000Z</time>
      </trkpt>
      <trkpt lat="43.18032" lon="-0.69861">
        <ele>341.4099968</ele>
        <time>2018-09-30T07:43:09.000Z</time>
      </trkpt>
      <trkpt lat="43.18046" lon="-0.69858">
        <ele>339.4099968</ele>
        <time>2018-09-30T07:43:11.000Z</time>
      </trkpt>
      <trkpt lat="43.18062" lon="-0.69859">
        <ele>337.60293647059</ele>
        <time>2018-09-30T07:43:13.000Z</time>
      </trkpt>
      <trkpt lat="43.18075" lon="-0.69861">
        <ele>335.4099968</ele>
        <time>2018-09-30T07:43:15.000Z</time>
      </trkpt>
      <trkpt lat="43.18089" lon="-0.69857">
        <ele>334</ele>
        <time>2018-09-30T07:43:17.000Z</time>
      </trkpt>
      <trkpt lat="43.18104" lon="-0.69852">
        <ele>332.60293647059</ele>
        <time>2018-09-30T07:43:19.000Z</time>
      </trkpt>
      <trkpt lat="43.18111" lon="-0.69851">
        <ele>331.4099968</ele>
        <time>2018-09-30T07:43:20.000Z</time>
      </trkpt>
      <trkpt lat="43.18118" lon="-0.6985">
        <ele>331</ele>
        <time>2018-09-30T07:43:21.000Z</time>
      </trkpt>
      <trkpt lat="43.18131" lon="-0.69849">
        <ele>329.4099968</ele>
        <time>2018-09-30T07:43:23.000Z</time>
      </trkpt>
      <trkpt lat="43.18144" lon="-0.69849">
        <ele>327.55302787879</ele>
        <time>2018-09-30T07:43:25.000Z</time>
      </trkpt>
      <trkpt lat="43.18149" lon="-0.6985">
        <ele>327</ele>
        <time>2018-09-30T07:43:26.000Z</time>
      </trkpt>
      <trkpt lat="43.18154" lon="-0.6985">
        <ele>327</ele>
        <time>2018-09-30T07:43:27.000Z</time>
      </trkpt>
      <trkpt lat="43.1816" lon="-0.69851">
        <ele>326.4099968</ele>
        <time>2018-09-30T07:43:28.000Z</time>
      </trkpt>
      <trkpt lat="43.18165" lon="-0.69851">
        <ele>326</ele>
        <time>2018-09-30T07:43:29.000Z</time>
      </trkpt>
      <trkpt lat="43.1817" lon="-0.69852">
        <ele>326</ele>
        <time>2018-09-30T07:43:30.000Z</time>
      </trkpt>
      <trkpt lat="43.18176" lon="-0.69852">
        <ele>325.4099968</ele>
        <time>2018-09-30T07:43:31.000Z</time>
      </trkpt>
      <trkpt lat="43.18183" lon="-0.6985">
        <ele>325</ele>
        <time>2018-09-30T07:43:32.000Z</time>
      </trkpt>
      <trkpt lat="43.1819" lon="-0.69848">
        <ele>325</ele>
        <time>2018-09-30T07:43:33.000Z</time>
      </trkpt>
      <trkpt lat="43.18196" lon="-0.69846">
        <ele>324.54615361894</ele>
        <time>2018-09-30T07:43:34.000Z</time>
      </trkpt>
      <trkpt lat="43.18203" lon="-0.69844">
        <ele>324</ele>
        <time>2018-09-30T07:43:35.000Z</time>
      </trkpt>
      <trkpt lat="43.18209" lon="-0.69842">
        <ele>323.54615361894</ele>
        <time>2018-09-30T07:43:36.000Z</time>
      </trkpt>
      <trkpt lat="43.18214" lon="-0.69841">
        <ele>323</ele>
        <time>2018-09-30T07:43:37.000Z</time>
      </trkpt>
      <trkpt lat="43.1822" lon="-0.6984">
        <ele>323</ele>
        <time>2018-09-30T07:43:38.000Z</time>
      </trkpt>
      <trkpt lat="43.18226" lon="-0.69838">
        <ele>323</ele>
        <time>2018-09-30T07:43:39.000Z</time>
      </trkpt>
      <trkpt lat="43.1823" lon="-0.69836">
        <ele>322.41583656503</ele>
        <time>2018-09-30T07:43:40.000Z</time>
      </trkpt>
      <trkpt lat="43.18234" lon="-0.69834">
        <ele>322</ele>
        <time>2018-09-30T07:43:41.000Z</time>
      </trkpt>
      <trkpt lat="43.18237" lon="-0.69831">
        <ele>322</ele>
        <time>2018-09-30T07:43:42.000Z</time>
      </trkpt>
      <trkpt lat="43.18241" lon="-0.69829">
        <ele>322</ele>
        <time>2018-09-30T07:43:43.000Z</time>
      </trkpt>
      <trkpt lat="43.18244" lon="-0.69827">
        <ele>322</ele>
        <time>2018-09-30T07:43:44.000Z</time>
      </trkpt>
      <trkpt lat="43.18248" lon="-0.69825">
        <ele>322</ele>
        <time>2018-09-30T07:43:45.000Z</time>
      </trkpt>
      <trkpt lat="43.18253" lon="-0.69822">
        <ele>322</ele>
        <time>2018-09-30T07:43:46.000Z</time>
      </trkpt>
      <trkpt lat="43.18258" lon="-0.69819">
        <ele>322</ele>
        <time>2018-09-30T07:43:47.000Z</time>
      </trkpt>
      <trkpt lat="43.18264" lon="-0.69816">
        <ele>322</ele>
        <time>2018-09-30T07:43:48.000Z</time>
      </trkpt>
      <trkpt lat="43.18269" lon="-0.69812">
        <ele>322</ele>
        <time>2018-09-30T07:43:49.000Z</time>
      </trkpt>
      <trkpt lat="43.18275" lon="-0.69807">
        <ele>322</ele>
        <time>2018-09-30T07:43:50.000Z</time>
      </trkpt>
      <trkpt lat="43.18279" lon="-0.69803">
        <ele>322</ele>
        <time>2018-09-30T07:43:51.000Z</time>
      </trkpt>
      <trkpt lat="43.18284" lon="-0.69798">
        <ele>321.4099968</ele>
        <time>2018-09-30T07:43:52.000Z</time>
      </trkpt>
      <trkpt lat="43.18288" lon="-0.69794">
        <ele>321</ele>
        <time>2018-09-30T07:43:53.000Z</time>
      </trkpt>
      <trkpt lat="43.18291" lon="-0.69789">
        <ele>320.59420101658</ele>
        <time>2018-09-30T07:43:54.000Z</time>
      </trkpt>
      <trkpt lat="43.18295" lon="-0.69786">
        <ele>319.54615361894</ele>
        <time>2018-09-30T07:43:55.000Z</time>
      </trkpt>
      <trkpt lat="43.18298" lon="-0.69784">
        <ele>319</ele>
        <time>2018-09-30T07:43:56.000Z</time>
      </trkpt>
      <trkpt lat="43.18303" lon="-0.69782">
        <ele>318.4099968</ele>
        <time>2018-09-30T07:43:57.000Z</time>
      </trkpt>
      <trkpt lat="43.18308" lon="-0.69781">
        <ele>318</ele>
        <time>2018-09-30T07:43:58.000Z</time>
      </trkpt>
      <trkpt lat="43.18313" lon="-0.6978">
        <ele>318</ele>
        <time>2018-09-30T07:43:59.000Z</time>
      </trkpt>
      <trkpt lat="43.18319" lon="-0.69777">
        <ele>318</ele>
        <time>2018-09-30T07:44:00.000Z</time>
      </trkpt>
      <trkpt lat="43.18323" lon="-0.69774">
        <ele>317.4099968</ele>
        <time>2018-09-30T07:44:01.000Z</time>
      </trkpt>
      <trkpt lat="43.18326" lon="-0.6977">
        <ele>317</ele>
        <time>2018-09-30T07:44:02.000Z</time>
      </trkpt>
      <trkpt lat="43.18336" lon="-0.69766">
        <ele>317</ele>
        <time>2018-09-30T07:44:05.000Z</time>
      </trkpt>
      <trkpt lat="43.1835" lon="-0.69764">
        <ele>317</ele>
        <time>2018-09-30T07:44:07.000Z</time>
      </trkpt>
      <trkpt lat="43.18361" lon="-0.69763">
        <ele>316.4099968</ele>
        <time>2018-09-30T07:44:09.000Z</time>
      </trkpt>
      <trkpt lat="43.18372" lon="-0.69759">
        <ele>316</ele>
        <time>2018-09-30T07:44:12.000Z</time>
      </trkpt>
      <trkpt lat="43.18384" lon="-0.69751">
        <ele>316</ele>
        <time>2018-09-30T07:44:14.000Z</time>
      </trkpt>
      <trkpt lat="43.1839" lon="-0.69746">
        <ele>316</ele>
        <time>2018-09-30T07:44:15.000Z</time>
      </trkpt>
      <trkpt lat="43.18395" lon="-0.69742">
        <ele>316</ele>
        <time>2018-09-30T07:44:16.000Z</time>
      </trkpt>
      <trkpt lat="43.18405" lon="-0.69732">
        <ele>317</ele>
        <time>2018-09-30T07:44:18.000Z</time>
      </trkpt>
      <trkpt lat="43.1841" lon="-0.69727">
        <ele>317</ele>
        <time>2018-09-30T07:44:19.000Z</time>
      </trkpt>
      <trkpt lat="43.18415" lon="-0.69723">
        <ele>317</ele>
        <time>2018-09-30T07:44:20.000Z</time>
      </trkpt>
      <trkpt lat="43.18419" lon="-0.6972">
        <ele>317</ele>
        <time>2018-09-30T07:44:21.000Z</time>
      </trkpt>
      <trkpt lat="43.18423" lon="-0.69718">
        <ele>317</ele>
        <time>2018-09-30T07:44:22.000Z</time>
      </trkpt>
      <trkpt lat="43.18427" lon="-0.69716">
        <ele>317</ele>
        <time>2018-09-30T07:44:23.000Z</time>
      </trkpt>
      <trkpt lat="43.18431" lon="-0.69714">
        <ele>317</ele>
        <time>2018-09-30T07:44:24.000Z</time>
      </trkpt>
      <trkpt lat="43.18436" lon="-0.69712">
        <ele>317</ele>
        <time>2018-09-30T07:44:25.000Z</time>
      </trkpt>
      <trkpt lat="43.18441" lon="-0.69708">
        <ele>317</ele>
        <time>2018-09-30T07:44:26.000Z</time>
      </trkpt>
      <trkpt lat="43.18445" lon="-0.69705">
        <ele>316.4099968</ele>
        <time>2018-09-30T07:44:27.000Z</time>
      </trkpt>
      <trkpt lat="43.18448" lon="-0.69701">
        <ele>316</ele>
        <time>2018-09-30T07:44:28.000Z</time>
      </trkpt>
      <trkpt lat="43.18452" lon="-0.69697">
        <ele>315.4099968</ele>
        <time>2018-09-30T07:44:29.000Z</time>
      </trkpt>
      <trkpt lat="43.18456" lon="-0.69691">
        <ele>315</ele>
        <time>2018-09-30T07:44:30.000Z</time>
      </trkpt>
      <trkpt lat="43.1846" lon="-0.69686">
        <ele>314.4099968</ele>
        <time>2018-09-30T07:44:31.000Z</time>
      </trkpt>
      <trkpt lat="43.18463" lon="-0.6968">
        <ele>314</ele>
        <time>2018-09-30T07:44:32.000Z</time>
      </trkpt>
      <trkpt lat="43.18467" lon="-0.69673">
        <ele>313.70707109887</ele>
        <time>2018-09-30T07:44:33.000Z</time>
      </trkpt>
      <trkpt lat="43.18471" lon="-0.69666">
        <ele>312.15491535813</ele>
        <time>2018-09-30T07:44:34.000Z</time>
      </trkpt>
      <trkpt lat="43.18475" lon="-0.6966">
        <ele>311</ele>
        <time>2018-09-30T07:44:35.000Z</time>
      </trkpt>
      <trkpt lat="43.18478" lon="-0.69654">
        <ele>310.4099968</ele>
        <time>2018-09-30T07:44:36.000Z</time>
      </trkpt>
      <trkpt lat="43.18481" lon="-0.69648">
        <ele>310</ele>
        <time>2018-09-30T07:44:37.000Z</time>
      </trkpt>
      <trkpt lat="43.18484" lon="-0.69643">
        <ele>309.41414219774</ele>
        <time>2018-09-30T07:44:38.000Z</time>
      </trkpt>
      <trkpt lat="43.18487" lon="-0.69638">
        <ele>308.4099968</ele>
        <time>2018-09-30T07:44:39.000Z</time>
      </trkpt>
      <trkpt lat="43.18491" lon="-0.69632">
        <ele>308</ele>
        <time>2018-09-30T07:44:40.000Z</time>
      </trkpt>
      <trkpt lat="43.18494" lon="-0.69626">
        <ele>307.55302787879</ele>
        <time>2018-09-30T07:44:41.000Z</time>
      </trkpt>
      <trkpt lat="43.18496" lon="-0.69619">
        <ele>306.60293647059</ele>
        <time>2018-09-30T07:44:42.000Z</time>
      </trkpt>
      <trkpt lat="43.18499" lon="-0.69612">
        <ele>305.4099968</ele>
        <time>2018-09-30T07:44:43.000Z</time>
      </trkpt>
      <trkpt lat="43.18506" lon="-0.69599">
        <ele>305</ele>
        <time>2018-09-30T07:44:45.000Z</time>
      </trkpt>
      <trkpt lat="43.18514" lon="-0.69588">
        <ele>304</ele>
        <time>2018-09-30T07:44:47.000Z</time>
      </trkpt>
      <trkpt lat="43.18527" lon="-0.69577">
        <ele>303</ele>
        <time>2018-09-30T07:44:50.000Z</time>
      </trkpt>
      <trkpt lat="43.18537" lon="-0.69572">
        <ele>303</ele>
        <time>2018-09-30T07:44:52.000Z</time>
      </trkpt>
      <trkpt lat="43.18542" lon="-0.69569">
        <ele>303</ele>
        <time>2018-09-30T07:44:53.000Z</time>
      </trkpt>
      <trkpt lat="43.18546" lon="-0.69565">
        <ele>302.4099968</ele>
        <time>2018-09-30T07:44:54.000Z</time>
      </trkpt>
      <trkpt lat="43.1855" lon="-0.6956">
        <ele>301.4099968</ele>
        <time>2018-09-30T07:44:55.000Z</time>
      </trkpt>
      <trkpt lat="43.18553" lon="-0.69556">
        <ele>301</ele>
        <time>2018-09-30T07:44:56.000Z</time>
      </trkpt>
      <trkpt lat="43.18557" lon="-0.6955">
        <ele>301</ele>
        <time>2018-09-30T07:44:57.000Z</time>
      </trkpt>
      <trkpt lat="43.1856" lon="-0.69545">
        <ele>301</ele>
        <time>2018-09-30T07:44:58.000Z</time>
      </trkpt>
      <trkpt lat="43.18563" lon="-0.69541">
        <ele>301</ele>
        <time>2018-09-30T07:44:59.000Z</time>
      </trkpt>
      <trkpt lat="43.18566" lon="-0.69538">
        <ele>301</ele>
        <time>2018-09-30T07:45:00.000Z</time>
      </trkpt>
      <trkpt lat="43.1857" lon="-0.69535">
        <ele>301</ele>
        <time>2018-09-30T07:45:01.000Z</time>
      </trkpt>
      <trkpt lat="43.18576" lon="-0.69532">
        <ele>302</ele>
        <time>2018-09-30T07:45:03.000Z</time>
      </trkpt>
      <trkpt lat="43.1858" lon="-0.69531">
        <ele>302</ele>
        <time>2018-09-30T07:45:04.000Z</time>
      </trkpt>
      <trkpt lat="43.18583" lon="-0.6953">
        <ele>302.5900032</ele>
        <time>2018-09-30T07:45:05.000Z</time>
      </trkpt>
      <trkpt lat="43.18587" lon="-0.69528">
        <ele>303.5900032</ele>
        <time>2018-09-30T07:45:06.000Z</time>
      </trkpt>
      <trkpt lat="43.18591" lon="-0.69526">
        <ele>304</ele>
        <time>2018-09-30T07:45:07.000Z</time>
      </trkpt>
      <trkpt lat="43.18595" lon="-0.69525">
        <ele>304</ele>
        <time>2018-09-30T07:45:08.000Z</time>
      </trkpt>
      <trkpt lat="43.18599" lon="-0.69523">
        <ele>304</ele>
        <time>2018-09-30T07:45:09.000Z</time>
      </trkpt>
      <trkpt lat="43.18605" lon="-0.69522">
        <ele>304</ele>
        <time>2018-09-30T07:45:11.000Z</time>
      </trkpt>
      <trkpt lat="43.18611" lon="-0.69521">
        <ele>304</ele>
        <time>2018-09-30T07:45:13.000Z</time>
      </trkpt>
      <trkpt lat="43.18616" lon="-0.69522">
        <ele>304</ele>
        <time>2018-09-30T07:45:15.000Z</time>
      </trkpt>
      <trkpt lat="43.18619" lon="-0.69524">
        <ele>304</ele>
        <time>2018-09-30T07:45:17.000Z</time>
      </trkpt>
      <trkpt lat="43.18623" lon="-0.69525">
        <ele>304</ele>
        <time>2018-09-30T07:45:19.000Z</time>
      </trkpt>
      <trkpt lat="43.18638" lon="-0.69518">
        <ele>304</ele>
        <time>2018-09-30T07:45:23.000Z</time>
      </trkpt>
      <trkpt lat="43.18644" lon="-0.69512">
        <ele>304</ele>
        <time>2018-09-30T07:45:25.000Z</time>
      </trkpt>
      <trkpt lat="43.18652" lon="-0.69502">
        <ele>304</ele>
        <time>2018-09-30T07:45:28.000Z</time>
      </trkpt>
      <trkpt lat="43.18663" lon="-0.6949">
        <ele>301.57745767906</ele>
        <time>2018-09-30T07:45:32.000Z</time>
      </trkpt>
      <trkpt lat="43.18673" lon="-0.69481">
        <ele>300.4099968</ele>
        <time>2018-09-30T07:45:35.000Z</time>
      </trkpt>
      <trkpt lat="43.18683" lon="-0.6947">
        <ele>298.4099968</ele>
        <time>2018-09-30T07:45:37.000Z</time>
      </trkpt>
      <trkpt lat="43.18694" lon="-0.69463">
        <ele>298</ele>
        <time>2018-09-30T07:45:39.000Z</time>
      </trkpt>
      <trkpt lat="43.18706" lon="-0.6946">
        <ele>297</ele>
        <time>2018-09-30T07:45:41.000Z</time>
      </trkpt>
      <trkpt lat="43.18721" lon="-0.6946">
        <ele>295.4099968</ele>
        <time>2018-09-30T07:45:43.000Z</time>
      </trkpt>
      <trkpt lat="43.18735" lon="-0.69465">
        <ele>293.4099968</ele>
        <time>2018-09-30T07:45:45.000Z</time>
      </trkpt>
      <trkpt lat="43.18749" lon="-0.69469">
        <ele>292</ele>
        <time>2018-09-30T07:45:47.000Z</time>
      </trkpt>
      <trkpt lat="43.18764" lon="-0.69471">
        <ele>291.54263204374</ele>
        <time>2018-09-30T07:45:49.000Z</time>
      </trkpt>
      <trkpt lat="43.18775" lon="-0.6947">
        <ele>289.4099968</ele>
        <time>2018-09-30T07:45:51.000Z</time>
      </trkpt>
      <trkpt lat="43.18786" lon="-0.69465">
        <ele>287.4099968</ele>
        <time>2018-09-30T07:45:53.000Z</time>
      </trkpt>
      <trkpt lat="43.18796" lon="-0.69458">
        <ele>286</ele>
        <time>2018-09-30T07:45:55.000Z</time>
      </trkpt>
      <trkpt lat="43.18805" lon="-0.69446">
        <ele>284.4099968</ele>
        <time>2018-09-30T07:45:57.000Z</time>
      </trkpt>
      <trkpt lat="43.18808" lon="-0.6944">
        <ele>284</ele>
        <time>2018-09-30T07:45:58.000Z</time>
      </trkpt>
      <trkpt lat="43.18813" lon="-0.69423">
        <ele>282.4099968</ele>
        <time>2018-09-30T07:46:00.000Z</time>
      </trkpt>
      <trkpt lat="43.18816" lon="-0.69414">
        <ele>280.8543662777</ele>
        <time>2018-09-30T07:46:01.000Z</time>
      </trkpt>
      <trkpt lat="43.18819" lon="-0.69405">
        <ele>280</ele>
        <time>2018-09-30T07:46:02.000Z</time>
      </trkpt>
      <trkpt lat="43.18822" lon="-0.69396">
        <ele>279.5857150694</ele>
        <time>2018-09-30T07:46:03.000Z</time>
      </trkpt>
      <trkpt lat="43.18826" lon="-0.69388">
        <ele>279</ele>
        <time>2018-09-30T07:46:04.000Z</time>
      </trkpt>
      <trkpt lat="43.18831" lon="-0.6938">
        <ele>278.4099968</ele>
        <time>2018-09-30T07:46:05.000Z</time>
      </trkpt>
      <trkpt lat="43.18835" lon="-0.69372">
        <ele>277.4099968</ele>
        <time>2018-09-30T07:46:06.000Z</time>
      </trkpt>
      <trkpt lat="43.18839" lon="-0.69365">
        <ele>277</ele>
        <time>2018-09-30T07:46:07.000Z</time>
      </trkpt>
      <trkpt lat="43.18843" lon="-0.69359">
        <ele>276.54263658193</ele>
        <time>2018-09-30T07:46:08.000Z</time>
      </trkpt>
      <trkpt lat="43.18847" lon="-0.69353">
        <ele>275.57746808971</ele>
        <time>2018-09-30T07:46:09.000Z</time>
      </trkpt>
      <trkpt lat="43.18849" lon="-0.69348">
        <ele>275</ele>
        <time>2018-09-30T07:46:10.000Z</time>
      </trkpt>
      <trkpt lat="43.1885" lon="-0.69339">
        <ele>274</ele>
        <time>2018-09-30T07:46:12.000Z</time>
      </trkpt>
      <trkpt lat="43.18857" lon="-0.69351">
        <ele>273</ele>
        <time>2018-09-30T07:46:18.000Z</time>
      </trkpt>
      <trkpt lat="43.18858" lon="-0.69366">
        <ele>272</ele>
        <time>2018-09-30T07:46:20.000Z</time>
      </trkpt>
      <trkpt lat="43.18856" lon="-0.69381">
        <ele>271</ele>
        <time>2018-09-30T07:46:22.000Z</time>
      </trkpt>
      <trkpt lat="43.18851" lon="-0.69398">
        <ele>270.5857150694</ele>
        <time>2018-09-30T07:46:24.000Z</time>
      </trkpt>
      <trkpt lat="43.18843" lon="-0.69416">
        <ele>269</ele>
        <time>2018-09-30T07:46:26.000Z</time>
      </trkpt>
      <trkpt lat="43.18839" lon="-0.69438">
        <ele>268</ele>
        <time>2018-09-30T07:46:28.000Z</time>
      </trkpt>
      <trkpt lat="43.18834" lon="-0.69466">
        <ele>267.5857150694</ele>
        <time>2018-09-30T07:46:30.000Z</time>
      </trkpt>
      <trkpt lat="43.18835" lon="-0.69488">
        <ele>266.4099968</ele>
        <time>2018-09-30T07:46:32.000Z</time>
      </trkpt>
      <trkpt lat="43.18835" lon="-0.69509">
        <ele>262.8199936</ele>
        <time>2018-09-30T07:46:34.000Z</time>
      </trkpt>
      <trkpt lat="43.18832" lon="-0.6953">
        <ele>260.60293647059</ele>
        <time>2018-09-30T07:46:36.000Z</time>
      </trkpt>
      <trkpt lat="43.18825" lon="-0.69554">
        <ele>257.4099968</ele>
        <time>2018-09-30T07:46:38.000Z</time>
      </trkpt>
      <trkpt lat="43.18813" lon="-0.69577">
        <ele>255</ele>
        <time>2018-09-30T07:46:40.000Z</time>
      </trkpt>
      <trkpt lat="43.18803" lon="-0.69595">
        <ele>252.20587294118</ele>
        <time>2018-09-30T07:46:42.000Z</time>
      </trkpt>
      <trkpt lat="43.18792" lon="-0.69609">
        <ele>249</ele>
        <time>2018-09-30T07:46:44.000Z</time>
      </trkpt>
      <trkpt lat="43.18777" lon="-0.69624">
        <ele>246.08527316386</ele>
        <time>2018-09-30T07:46:46.000Z</time>
      </trkpt>
      <trkpt lat="43.18763" lon="-0.69638">
        <ele>242.20587294118</ele>
        <time>2018-09-30T07:46:48.000Z</time>
      </trkpt>
      <trkpt lat="43.18754" lon="-0.69647">
        <ele>237.8199936</ele>
        <time>2018-09-30T07:46:50.000Z</time>
      </trkpt>
      <trkpt lat="43.18746" lon="-0.69659">
        <ele>234.4099968</ele>
        <time>2018-09-30T07:46:54.000Z</time>
      </trkpt>
      <trkpt lat="43.18741" lon="-0.69675">
        <ele>232.4099968</ele>
        <time>2018-09-30T07:46:58.000Z</time>
      </trkpt>
      <trkpt lat="43.18752" lon="-0.69668">
        <ele>230</ele>
        <time>2018-09-30T07:47:10.000Z</time>
      </trkpt>
      <trkpt lat="43.18761" lon="-0.69655">
        <ele>230</ele>
        <time>2018-09-30T07:47:15.000Z</time>
      </trkpt>
      <trkpt lat="43.18774" lon="-0.69647">
        <ele>229.4099968</ele>
        <time>2018-09-30T07:47:18.000Z</time>
      </trkpt>
      <trkpt lat="43.1879" lon="-0.69642">
        <ele>229</ele>
        <time>2018-09-30T07:47:21.000Z</time>
      </trkpt>
      <trkpt lat="43.18805" lon="-0.69637">
        <ele>229</ele>
        <time>2018-09-30T07:47:23.000Z</time>
      </trkpt>
      <trkpt lat="43.18817" lon="-0.69633">
        <ele>228</ele>
        <time>2018-09-30T07:47:25.000Z</time>
      </trkpt>
      <trkpt lat="43.18829" lon="-0.69626">
        <ele>228</ele>
        <time>2018-09-30T07:47:27.000Z</time>
      </trkpt>
      <trkpt lat="43.18843" lon="-0.69615">
        <ele>227</ele>
        <time>2018-09-30T07:47:30.000Z</time>
      </trkpt>
      <trkpt lat="43.18854" lon="-0.69604">
        <ele>227</ele>
        <time>2018-09-30T07:47:33.000Z</time>
      </trkpt>
      <trkpt lat="43.18862" lon="-0.69591">
        <ele>227</ele>
        <time>2018-09-30T07:47:36.000Z</time>
      </trkpt>
      <trkpt lat="43.18869" lon="-0.69577">
        <ele>227</ele>
        <time>2018-09-30T07:47:38.000Z</time>
      </trkpt>
      <trkpt lat="43.18875" lon="-0.69562">
        <ele>227</ele>
        <time>2018-09-30T07:47:41.000Z</time>
      </trkpt>
      <trkpt lat="43.18879" lon="-0.69545">
        <ele>227</ele>
        <time>2018-09-30T07:47:44.000Z</time>
      </trkpt>
      <trkpt lat="43.1888" lon="-0.69539">
        <ele>226.4099968</ele>
        <time>2018-09-30T07:47:45.000Z</time>
      </trkpt>
      <trkpt lat="43.18881" lon="-0.69534">
        <ele>226</ele>
        <time>2018-09-30T07:47:46.000Z</time>
      </trkpt>
      <trkpt lat="43.18882" lon="-0.69526">
        <ele>225</ele>
        <time>2018-09-30T07:47:48.000Z</time>
      </trkpt>
      <trkpt lat="43.18885" lon="-0.69508">
        <ele>224</ele>
        <time>2018-09-30T07:47:53.000Z</time>
      </trkpt>
      <trkpt lat="43.1889" lon="-0.69495">
        <ele>225</ele>
        <time>2018-09-30T07:47:57.000Z</time>
      </trkpt>
      <trkpt lat="43.18891" lon="-0.69487">
        <ele>224.4099968</ele>
        <time>2018-09-30T07:47:59.000Z</time>
      </trkpt>
      <trkpt lat="43.18893" lon="-0.6948">
        <ele>224</ele>
        <time>2018-09-30T07:48:01.000Z</time>
      </trkpt>
      <trkpt lat="43.18894" lon="-0.69475">
        <ele>224.43056</ele>
        <time>2018-09-30T07:48:03.000Z</time>
      </trkpt>
      <trkpt lat="43.18895" lon="-0.69469">
        <ele>226</ele>
        <time>2018-09-30T07:48:06.000Z</time>
      </trkpt>
      <trkpt lat="43.18898" lon="-0.69463">
        <ele>226</ele>
        <time>2018-09-30T07:48:08.000Z</time>
      </trkpt>
      <trkpt lat="43.189" lon="-0.69457">
        <ele>226.5900032</ele>
        <time>2018-09-30T07:48:10.000Z</time>
      </trkpt>
      <trkpt lat="43.18902" lon="-0.69451">
        <ele>227.5900032</ele>
        <time>2018-09-30T07:48:12.000Z</time>
      </trkpt>
      <trkpt lat="43.18905" lon="-0.69447">
        <ele>229</ele>
        <time>2018-09-30T07:48:14.000Z</time>
      </trkpt>
      <trkpt lat="43.18907" lon="-0.69442">
        <ele>229</ele>
        <time>2018-09-30T07:48:16.000Z</time>
      </trkpt>
      <trkpt lat="43.18911" lon="-0.69437">
        <ele>229</ele>
        <time>2018-09-30T07:48:18.000Z</time>
      </trkpt>
      <trkpt lat="43.18915" lon="-0.69431">
        <ele>228.4099968</ele>
        <time>2018-09-30T07:48:20.000Z</time>
      </trkpt>
      <trkpt lat="43.18919" lon="-0.69424">
        <ele>227</ele>
        <time>2018-09-30T07:48:22.000Z</time>
      </trkpt>
      <trkpt lat="43.18926" lon="-0.6941">
        <ele>224.4099968</ele>
        <time>2018-09-30T07:48:26.000Z</time>
      </trkpt>
      <trkpt lat="43.18929" lon="-0.69402">
        <ele>224</ele>
        <time>2018-09-30T07:48:28.000Z</time>
      </trkpt>
      <trkpt lat="43.18932" lon="-0.69398">
        <ele>224</ele>
        <time>2018-09-30T07:48:29.000Z</time>
      </trkpt>
      <trkpt lat="43.18934" lon="-0.69394">
        <ele>224</ele>
        <time>2018-09-30T07:48:30.000Z</time>
      </trkpt>
      <trkpt lat="43.1894" lon="-0.69378">
        <ele>223</ele>
        <time>2018-09-30T07:48:34.000Z</time>
      </trkpt>
      <trkpt lat="43.18943" lon="-0.6937">
        <ele>223</ele>
        <time>2018-09-30T07:48:36.000Z</time>
      </trkpt>
      <trkpt lat="43.18948" lon="-0.69356">
        <ele>222.5900032</ele>
        <time>2018-09-30T07:48:39.000Z</time>
      </trkpt>
      <trkpt lat="43.18952" lon="-0.69346">
        <ele>223</ele>
        <time>2018-09-30T07:48:41.000Z</time>
      </trkpt>
      <trkpt lat="43.18953" lon="-0.69338">
        <ele>223</ele>
        <time>2018-09-30T07:48:43.000Z</time>
      </trkpt>
      <trkpt lat="43.18965" lon="-0.6933">
        <ele>222</ele>
        <time>2018-09-30T07:48:48.000Z</time>
      </trkpt>
      <trkpt lat="43.1897" lon="-0.69331">
        <ele>222</ele>
        <time>2018-09-30T07:48:50.000Z</time>
      </trkpt>
      <trkpt lat="43.18974" lon="-0.69332">
        <ele>222</ele>
        <time>2018-09-30T07:48:52.000Z</time>
      </trkpt>
      <trkpt lat="43.18978" lon="-0.69334">
        <ele>221</ele>
        <time>2018-09-30T07:48:59.000Z</time>
      </trkpt>
      <trkpt lat="43.18982" lon="-0.69339">
        <ele>220</ele>
        <time>2018-09-30T07:49:06.000Z</time>
      </trkpt>
      <trkpt lat="43.18984" lon="-0.69335">
        <ele>220</ele>
        <time>2018-09-30T07:49:15.000Z</time>
      </trkpt>
      <trkpt lat="43.18986" lon="-0.69339">
        <ele>220</ele>
        <time>2018-09-30T07:49:29.000Z</time>
      </trkpt>
      <trkpt lat="43.18991" lon="-0.69341">
        <ele>221.5900032</ele>
        <time>2018-09-30T07:49:34.000Z</time>
      </trkpt>
      <trkpt lat="43.18995" lon="-0.69343">
        <ele>222</ele>
        <time>2018-09-30T07:49:41.000Z</time>
      </trkpt>
      <trkpt lat="43.18999" lon="-0.69347">
        <ele>222</ele>
        <time>2018-09-30T07:49:44.000Z</time>
      </trkpt>
      <trkpt lat="43.19002" lon="-0.69351">
        <ele>222</ele>
        <time>2018-09-30T07:49:46.000Z</time>
      </trkpt>
      <trkpt lat="43.19006" lon="-0.69357">
        <ele>222</ele>
        <time>2018-09-30T07:49:48.000Z</time>
      </trkpt>
      <trkpt lat="43.19012" lon="-0.69362">
        <ele>222</ele>
        <time>2018-09-30T07:49:50.000Z</time>
      </trkpt>
      <trkpt lat="43.19017" lon="-0.69366">
        <ele>222</ele>
        <time>2018-09-30T07:49:52.000Z</time>
      </trkpt>
      <trkpt lat="43.19022" lon="-0.69371">
        <ele>222</ele>
        <time>2018-09-30T07:49:54.000Z</time>
      </trkpt>
      <trkpt lat="43.19027" lon="-0.69377">
        <ele>222</ele>
        <time>2018-09-30T07:49:56.000Z</time>
      </trkpt>
      <trkpt lat="43.19032" lon="-0.69382">
        <ele>222</ele>
        <time>2018-09-30T07:49:58.000Z</time>
      </trkpt>
      <trkpt lat="43.19037" lon="-0.69387">
        <ele>222</ele>
        <time>2018-09-30T07:50:00.000Z</time>
      </trkpt>
      <trkpt lat="43.19041" lon="-0.69391">
        <ele>222.43056</ele>
        <time>2018-09-30T07:50:02.000Z</time>
      </trkpt>
      <trkpt lat="43.19044" lon="-0.69394">
        <ele>223</ele>
        <time>2018-09-30T07:50:04.000Z</time>
      </trkpt>
      <trkpt lat="43.19048" lon="-0.69398">
        <ele>223</ele>
        <time>2018-09-30T07:50:23.000Z</time>
      </trkpt>
      <trkpt lat="43.19052" lon="-0.69403">
        <ele>223.5900032</ele>
        <time>2018-09-30T07:50:26.000Z</time>
      </trkpt>
      <trkpt lat="43.19055" lon="-0.69406">
        <ele>224</ele>
        <time>2018-09-30T07:50:28.000Z</time>
      </trkpt>
      <trkpt lat="43.19059" lon="-0.69409">
        <ele>224</ele>
        <time>2018-09-30T07:50:30.000Z</time>
      </trkpt>
      <trkpt lat="43.19063" lon="-0.69409">
        <ele>224.5900032</ele>
        <time>2018-09-30T07:50:32.000Z</time>
      </trkpt>
      <trkpt lat="43.19066" lon="-0.69405">
        <ele>225</ele>
        <time>2018-09-30T07:50:34.000Z</time>
      </trkpt>
      <trkpt lat="43.19069" lon="-0.69399">
        <ele>225</ele>
        <time>2018-09-30T07:50:36.000Z</time>
      </trkpt>
      <trkpt lat="43.19071" lon="-0.69393">
        <ele>225</ele>
        <time>2018-09-30T07:50:38.000Z</time>
      </trkpt>
      <trkpt lat="43.19073" lon="-0.69388">
        <ele>225</ele>
        <time>2018-09-30T07:50:40.000Z</time>
      </trkpt>
      <trkpt lat="43.19074" lon="-0.69382">
        <ele>225</ele>
        <time>2018-09-30T07:50:42.000Z</time>
      </trkpt>
      <trkpt lat="43.19075" lon="-0.69376">
        <ele>225</ele>
        <time>2018-09-30T07:50:44.000Z</time>
      </trkpt>
      <trkpt lat="43.19075" lon="-0.69368">
        <ele>224</ele>
        <time>2018-09-30T07:50:46.000Z</time>
      </trkpt>
      <trkpt lat="43.19075" lon="-0.69361">
        <ele>224</ele>
        <time>2018-09-30T07:50:48.000Z</time>
      </trkpt>
      <trkpt lat="43.19075" lon="-0.69352">
        <ele>225</ele>
        <time>2018-09-30T07:50:50.000Z</time>
      </trkpt>
      <trkpt lat="43.19075" lon="-0.69344">
        <ele>225</ele>
        <time>2018-09-30T07:50:52.000Z</time>
      </trkpt>
      <trkpt lat="43.19074" lon="-0.69335">
        <ele>225</ele>
        <time>2018-09-30T07:50:54.000Z</time>
      </trkpt>
      <trkpt lat="43.19074" lon="-0.69326">
        <ele>225</ele>
        <time>2018-09-30T07:50:56.000Z</time>
      </trkpt>
      <trkpt lat="43.19073" lon="-0.69317">
        <ele>225</ele>
        <time>2018-09-30T07:50:58.000Z</time>
      </trkpt>
      <trkpt lat="43.19073" lon="-0.69311">
        <ele>225</ele>
        <time>2018-09-30T07:50:59.000Z</time>
      </trkpt>
      <trkpt lat="43.19072" lon="-0.69306">
        <ele>225</ele>
        <time>2018-09-30T07:51:00.000Z</time>
      </trkpt>
      <trkpt lat="43.19071" lon="-0.693">
        <ele>225</ele>
        <time>2018-09-30T07:51:01.000Z</time>
      </trkpt>
      <trkpt lat="43.19071" lon="-0.69294">
        <ele>225</ele>
        <time>2018-09-30T07:51:02.000Z</time>
      </trkpt>
      <trkpt lat="43.1907" lon="-0.69288">
        <ele>225</ele>
        <time>2018-09-30T07:51:03.000Z</time>
      </trkpt>
      <trkpt lat="43.19069" lon="-0.69282">
        <ele>225</ele>
        <time>2018-09-30T07:51:04.000Z</time>
      </trkpt>
      <trkpt lat="43.19068" lon="-0.69276">
        <ele>225</ele>
        <time>2018-09-30T07:51:05.000Z</time>
      </trkpt>
      <trkpt lat="43.19067" lon="-0.6927">
        <ele>225</ele>
        <time>2018-09-30T07:51:06.000Z</time>
      </trkpt>
      <trkpt lat="43.19066" lon="-0.69264">
        <ele>225</ele>
        <time>2018-09-30T07:51:07.000Z</time>
      </trkpt>
      <trkpt lat="43.19065" lon="-0.69258">
        <ele>225</ele>
        <time>2018-09-30T07:51:08.000Z</time>
      </trkpt>
      <trkpt lat="43.19064" lon="-0.69252">
        <ele>225</ele>
        <time>2018-09-30T07:51:09.000Z</time>
      </trkpt>
      <trkpt lat="43.19063" lon="-0.69246">
        <ele>225</ele>
        <time>2018-09-30T07:51:10.000Z</time>
      </trkpt>
      <trkpt lat="43.19062" lon="-0.69241">
        <ele>225</ele>
        <time>2018-09-30T07:51:11.000Z</time>
      </trkpt>
      <trkpt lat="43.19062" lon="-0.69235">
        <ele>225</ele>
        <time>2018-09-30T07:51:12.000Z</time>
      </trkpt>
      <trkpt lat="43.19061" lon="-0.69229">
        <ele>225</ele>
        <time>2018-09-30T07:51:13.000Z</time>
      </trkpt>
      <trkpt lat="43.19061" lon="-0.69224">
        <ele>225</ele>
        <time>2018-09-30T07:51:14.000Z</time>
      </trkpt>
      <trkpt lat="43.19061" lon="-0.69218">
        <ele>225</ele>
        <time>2018-09-30T07:51:15.000Z</time>
      </trkpt>
      <trkpt lat="43.1906" lon="-0.69212">
        <ele>225</ele>
        <time>2018-09-30T07:51:16.000Z</time>
      </trkpt>
      <trkpt lat="43.1906" lon="-0.69206">
        <ele>225</ele>
        <time>2018-09-30T07:51:17.000Z</time>
      </trkpt>
      <trkpt lat="43.1906" lon="-0.692">
        <ele>225</ele>
        <time>2018-09-30T07:51:18.000Z</time>
      </trkpt>
      <trkpt lat="43.1906" lon="-0.69193">
        <ele>225</ele>
        <time>2018-09-30T07:51:19.000Z</time>
      </trkpt>
      <trkpt lat="43.1906" lon="-0.69187">
        <ele>225</ele>
        <time>2018-09-30T07:51:20.000Z</time>
      </trkpt>
      <trkpt lat="43.1906" lon="-0.6918">
        <ele>224.5857150694</ele>
        <time>2018-09-30T07:51:21.000Z</time>
      </trkpt>
      <trkpt lat="43.19061" lon="-0.69174">
        <ele>224</ele>
        <time>2018-09-30T07:51:22.000Z</time>
      </trkpt>
      <trkpt lat="43.19061" lon="-0.69168">
        <ele>224</ele>
        <time>2018-09-30T07:51:23.000Z</time>
      </trkpt>
      <trkpt lat="43.19062" lon="-0.69161">
        <ele>224</ele>
        <time>2018-09-30T07:51:24.000Z</time>
      </trkpt>
      <trkpt lat="43.19063" lon="-0.69155">
        <ele>224</ele>
        <time>2018-09-30T07:51:25.000Z</time>
      </trkpt>
      <trkpt lat="43.19064" lon="-0.69149">
        <ele>224</ele>
        <time>2018-09-30T07:51:26.000Z</time>
      </trkpt>
      <trkpt lat="43.19065" lon="-0.69143">
        <ele>224</ele>
        <time>2018-09-30T07:51:27.000Z</time>
      </trkpt>
      <trkpt lat="43.19067" lon="-0.69138">
        <ele>224</ele>
        <time>2018-09-30T07:51:28.000Z</time>
      </trkpt>
      <trkpt lat="43.19068" lon="-0.69133">
        <ele>224</ele>
        <time>2018-09-30T07:51:29.000Z</time>
      </trkpt>
      <trkpt lat="43.1907" lon="-0.69128">
        <ele>224</ele>
        <time>2018-09-30T07:51:30.000Z</time>
      </trkpt>
      <trkpt lat="43.19072" lon="-0.69123">
        <ele>224</ele>
        <time>2018-09-30T07:51:31.000Z</time>
      </trkpt>
      <trkpt lat="43.19076" lon="-0.69115">
        <ele>224</ele>
        <time>2018-09-30T07:51:33.000Z</time>
      </trkpt>
      <trkpt lat="43.19079" lon="-0.69107">
        <ele>224</ele>
        <time>2018-09-30T07:51:35.000Z</time>
      </trkpt>
      <trkpt lat="43.19082" lon="-0.69099">
        <ele>225</ele>
        <time>2018-09-30T07:51:37.000Z</time>
      </trkpt>
      <trkpt lat="43.19084" lon="-0.69092">
        <ele>225</ele>
        <time>2018-09-30T07:51:39.000Z</time>
      </trkpt>
      <trkpt lat="43.19086" lon="-0.69083">
        <ele>225</ele>
        <time>2018-09-30T07:51:41.000Z</time>
      </trkpt>
      <trkpt lat="43.19087" lon="-0.69075">
        <ele>225</ele>
        <time>2018-09-30T07:51:43.000Z</time>
      </trkpt>
      <trkpt lat="43.19087" lon="-0.69066">
        <ele>225</ele>
        <time>2018-09-30T07:51:45.000Z</time>
      </trkpt>
      <trkpt lat="43.19087" lon="-0.69056">
        <ele>225</ele>
        <time>2018-09-30T07:51:47.000Z</time>
      </trkpt>
      <trkpt lat="43.19088" lon="-0.69048">
        <ele>225</ele>
        <time>2018-09-30T07:51:49.000Z</time>
      </trkpt>
      <trkpt lat="43.19092" lon="-0.69042">
        <ele>225</ele>
        <time>2018-09-30T07:51:51.000Z</time>
      </trkpt>
      <trkpt lat="43.19099" lon="-0.69039">
        <ele>225</ele>
        <time>2018-09-30T07:51:53.000Z</time>
      </trkpt>
      <trkpt lat="43.19106" lon="-0.69037">
        <ele>225</ele>
        <time>2018-09-30T07:51:55.000Z</time>
      </trkpt>
      <trkpt lat="43.19109" lon="-0.69035">
        <ele>225</ele>
        <time>2018-09-30T07:51:56.000Z</time>
      </trkpt>
      <trkpt lat="43.19113" lon="-0.69034">
        <ele>225</ele>
        <time>2018-09-30T07:51:57.000Z</time>
      </trkpt>
      <trkpt lat="43.19116" lon="-0.69032">
        <ele>225</ele>
        <time>2018-09-30T07:51:58.000Z</time>
      </trkpt>
      <trkpt lat="43.19122" lon="-0.69027">
        <ele>225</ele>
        <time>2018-09-30T07:52:00.000Z</time>
      </trkpt>
      <trkpt lat="43.19128" lon="-0.69022">
        <ele>226</ele>
        <time>2018-09-30T07:52:02.000Z</time>
      </trkpt>
      <trkpt lat="43.19134" lon="-0.69017">
        <ele>226</ele>
        <time>2018-09-30T07:52:04.000Z</time>
      </trkpt>
      <trkpt lat="43.19139" lon="-0.69012">
        <ele>227</ele>
        <time>2018-09-30T07:52:06.000Z</time>
      </trkpt>
      <trkpt lat="43.19145" lon="-0.69006">
        <ele>227</ele>
        <time>2018-09-30T07:52:08.000Z</time>
      </trkpt>
      <trkpt lat="43.1915" lon="-0.69001">
        <ele>227</ele>
        <time>2018-09-30T07:52:10.000Z</time>
      </trkpt>
      <trkpt lat="43.19156" lon="-0.68995">
        <ele>228</ele>
        <time>2018-09-30T07:52:12.000Z</time>
      </trkpt>
      <trkpt lat="43.19161" lon="-0.6899">
        <ele>228</ele>
        <time>2018-09-30T07:52:14.000Z</time>
      </trkpt>
      <trkpt lat="43.19166" lon="-0.68984">
        <ele>228</ele>
        <time>2018-09-30T07:52:16.000Z</time>
      </trkpt>
      <trkpt lat="43.19172" lon="-0.68978">
        <ele>229</ele>
        <time>2018-09-30T07:52:18.000Z</time>
      </trkpt>
      <trkpt lat="43.19176" lon="-0.68972">
        <ele>229</ele>
        <time>2018-09-30T07:52:20.000Z</time>
      </trkpt>
      <trkpt lat="43.19181" lon="-0.68966">
        <ele>230</ele>
        <time>2018-09-30T07:52:22.000Z</time>
      </trkpt>
      <trkpt lat="43.19186" lon="-0.6896">
        <ele>230</ele>
        <time>2018-09-30T07:52:24.000Z</time>
      </trkpt>
      <trkpt lat="43.1919" lon="-0.68954">
        <ele>230</ele>
        <time>2018-09-30T07:52:26.000Z</time>
      </trkpt>
      <trkpt lat="43.19195" lon="-0.68948">
        <ele>230</ele>
        <time>2018-09-30T07:52:28.000Z</time>
      </trkpt>
      <trkpt lat="43.19199" lon="-0.68942">
        <ele>230</ele>
        <time>2018-09-30T07:52:30.000Z</time>
      </trkpt>
      <trkpt lat="43.19203" lon="-0.68936">
        <ele>230</ele>
        <time>2018-09-30T07:52:32.000Z</time>
      </trkpt>
      <trkpt lat="43.19208" lon="-0.6893">
        <ele>231</ele>
        <time>2018-09-30T07:52:34.000Z</time>
      </trkpt>
      <trkpt lat="43.19212" lon="-0.68924">
        <ele>231</ele>
        <time>2018-09-30T07:52:36.000Z</time>
      </trkpt>
      <trkpt lat="43.19216" lon="-0.68918">
        <ele>232</ele>
        <time>2018-09-30T07:52:38.000Z</time>
      </trkpt>
      <trkpt lat="43.1922" lon="-0.68911">
        <ele>232</ele>
        <time>2018-09-30T07:52:40.000Z</time>
      </trkpt>
      <trkpt lat="43.19224" lon="-0.68905">
        <ele>232.5900032</ele>
        <time>2018-09-30T07:52:42.000Z</time>
      </trkpt>
      <trkpt lat="43.19228" lon="-0.68899">
        <ele>233</ele>
        <time>2018-09-30T07:52:44.000Z</time>
      </trkpt>
      <trkpt lat="43.19233" lon="-0.68893">
        <ele>233.5900032</ele>
        <time>2018-09-30T07:52:46.000Z</time>
      </trkpt>
      <trkpt lat="43.19237" lon="-0.68889">
        <ele>234</ele>
        <time>2018-09-30T07:52:48.000Z</time>
      </trkpt>
      <trkpt lat="43.19242" lon="-0.68885">
        <ele>234</ele>
        <time>2018-09-30T07:52:50.000Z</time>
      </trkpt>
      <trkpt lat="43.19248" lon="-0.68882">
        <ele>234</ele>
        <time>2018-09-30T07:52:52.000Z</time>
      </trkpt>
      <trkpt lat="43.19254" lon="-0.68881">
        <ele>235</ele>
        <time>2018-09-30T07:52:54.000Z</time>
      </trkpt>
      <trkpt lat="43.1926" lon="-0.68879">
        <ele>235.5900032</ele>
        <time>2018-09-30T07:52:56.000Z</time>
      </trkpt>
      <trkpt lat="43.19266" lon="-0.68878">
        <ele>236</ele>
        <time>2018-09-30T07:52:58.000Z</time>
      </trkpt>
      <trkpt lat="43.19272" lon="-0.68876">
        <ele>236</ele>
        <time>2018-09-30T07:53:00.000Z</time>
      </trkpt>
      <trkpt lat="43.19278" lon="-0.68875">
        <ele>236</ele>
        <time>2018-09-30T07:53:02.000Z</time>
      </trkpt>
      <trkpt lat="43.19283" lon="-0.68874">
        <ele>236</ele>
        <time>2018-09-30T07:53:04.000Z</time>
      </trkpt>
      <trkpt lat="43.19289" lon="-0.68872">
        <ele>236.45384638106</ele>
        <time>2018-09-30T07:53:06.000Z</time>
      </trkpt>
      <trkpt lat="43.19294" lon="-0.6887">
        <ele>237.42254232094</ele>
        <time>2018-09-30T07:53:08.000Z</time>
      </trkpt>
      <trkpt lat="43.19299" lon="-0.68867">
        <ele>238</ele>
        <time>2018-09-30T07:53:10.000Z</time>
      </trkpt>
      <trkpt lat="43.19304" lon="-0.68863">
        <ele>238</ele>
        <time>2018-09-30T07:53:12.000Z</time>
      </trkpt>
      <trkpt lat="43.19308" lon="-0.68859">
        <ele>238.5900032</ele>
        <time>2018-09-30T07:53:14.000Z</time>
      </trkpt>
      <trkpt lat="43.19313" lon="-0.68855">
        <ele>239.5900032</ele>
        <time>2018-09-30T07:53:16.000Z</time>
      </trkpt>
      <trkpt lat="43.19317" lon="-0.6885">
        <ele>240</ele>
        <time>2018-09-30T07:53:18.000Z</time>
      </trkpt>
      <trkpt lat="43.19321" lon="-0.68846">
        <ele>241</ele>
        <time>2018-09-30T07:53:20.000Z</time>
      </trkpt>
      <trkpt lat="43.19326" lon="-0.68841">
        <ele>241</ele>
        <time>2018-09-30T07:53:22.000Z</time>
      </trkpt>
      <trkpt lat="43.19331" lon="-0.68837">
        <ele>241</ele>
        <time>2018-09-30T07:53:24.000Z</time>
      </trkpt>
      <trkpt lat="43.19336" lon="-0.68833">
        <ele>241.987504</ele>
        <time>2018-09-30T07:53:26.000Z</time>
      </trkpt>
      <trkpt lat="43.19341" lon="-0.68831">
        <ele>242</ele>
        <time>2018-09-30T07:53:28.000Z</time>
      </trkpt>
      <trkpt lat="43.19346" lon="-0.6883">
        <ele>242</ele>
        <time>2018-09-30T07:53:30.000Z</time>
      </trkpt>
      <trkpt lat="43.19352" lon="-0.68829">
        <ele>243.5900032</ele>
        <time>2018-09-30T07:53:32.000Z</time>
      </trkpt>
      <trkpt lat="43.19357" lon="-0.6883">
        <ele>244</ele>
        <time>2018-09-30T07:53:34.000Z</time>
      </trkpt>
      <trkpt lat="43.19363" lon="-0.6883">
        <ele>245</ele>
        <time>2018-09-30T07:53:36.000Z</time>
      </trkpt>
      <trkpt lat="43.19368" lon="-0.68827">
        <ele>246</ele>
        <time>2018-09-30T07:53:38.000Z</time>
      </trkpt>
      <trkpt lat="43.1937" lon="-0.68821">
        <ele>247</ele>
        <time>2018-09-30T07:53:40.000Z</time>
      </trkpt>
      <trkpt lat="43.19371" lon="-0.68814">
        <ele>247</ele>
        <time>2018-09-30T07:53:42.000Z</time>
      </trkpt>
      <trkpt lat="43.19371" lon="-0.68808">
        <ele>247</ele>
        <time>2018-09-30T07:53:44.000Z</time>
      </trkpt>
      <trkpt lat="43.19372" lon="-0.68801">
        <ele>247</ele>
        <time>2018-09-30T07:53:47.000Z</time>
      </trkpt>
      <trkpt lat="43.19373" lon="-0.68795">
        <ele>248</ele>
        <time>2018-09-30T07:53:50.000Z</time>
      </trkpt>
      <trkpt lat="43.19373" lon="-0.68789">
        <ele>248</ele>
        <time>2018-09-30T07:53:53.000Z</time>
      </trkpt>
      <trkpt lat="43.19373" lon="-0.68784">
        <ele>248.5900032</ele>
        <time>2018-09-30T07:53:56.000Z</time>
      </trkpt>
      <trkpt lat="43.19374" lon="-0.68779">
        <ele>249</ele>
        <time>2018-09-30T07:53:59.000Z</time>
      </trkpt>
      <trkpt lat="43.19375" lon="-0.68772">
        <ele>249</ele>
        <time>2018-09-30T07:54:02.000Z</time>
      </trkpt>
      <trkpt lat="43.19377" lon="-0.68766">
        <ele>249.5900032</ele>
        <time>2018-09-30T07:54:05.000Z</time>
      </trkpt>
      <trkpt lat="43.19378" lon="-0.68758">
        <ele>250</ele>
        <time>2018-09-30T07:54:08.000Z</time>
      </trkpt>
      <trkpt lat="43.19379" lon="-0.68753">
        <ele>251</ele>
        <time>2018-09-30T07:54:10.000Z</time>
      </trkpt>
      <trkpt lat="43.19379" lon="-0.68749">
        <ele>251</ele>
        <time>2018-09-30T07:54:12.000Z</time>
      </trkpt>
      <trkpt lat="43.1938" lon="-0.68743">
        <ele>252</ele>
        <time>2018-09-30T07:54:15.000Z</time>
      </trkpt>
      <trkpt lat="43.19381" lon="-0.68738">
        <ele>253</ele>
        <time>2018-09-30T07:54:17.000Z</time>
      </trkpt>
      <trkpt lat="43.19382" lon="-0.68733">
        <ele>253</ele>
        <time>2018-09-30T07:54:19.000Z</time>
      </trkpt>
      <trkpt lat="43.19383" lon="-0.68728">
        <ele>254</ele>
        <time>2018-09-30T07:54:21.000Z</time>
      </trkpt>
      <trkpt lat="43.19383" lon="-0.68723">
        <ele>254.43134853004</ele>
        <time>2018-09-30T07:54:23.000Z</time>
      </trkpt>
      <trkpt lat="43.19383" lon="-0.68719">
        <ele>255.5900032</ele>
        <time>2018-09-30T07:54:25.000Z</time>
      </trkpt>
      <trkpt lat="43.19383" lon="-0.68711">
        <ele>256</ele>
        <time>2018-09-30T07:54:28.000Z</time>
      </trkpt>
      <trkpt lat="43.19383" lon="-0.68706">
        <ele>256</ele>
        <time>2018-09-30T07:54:30.000Z</time>
      </trkpt>
      <trkpt lat="43.19383" lon="-0.68701">
        <ele>256.5900032</ele>
        <time>2018-09-30T07:54:32.000Z</time>
      </trkpt>
      <trkpt lat="43.19382" lon="-0.68694">
        <ele>258</ele>
        <time>2018-09-30T07:54:35.000Z</time>
      </trkpt>
      <trkpt lat="43.1938" lon="-0.68688">
        <ele>259.58416343497</ele>
        <time>2018-09-30T07:54:38.000Z</time>
      </trkpt>
      <trkpt lat="43.19379" lon="-0.68681">
        <ele>261</ele>
        <time>2018-09-30T07:54:41.000Z</time>
      </trkpt>
      <trkpt lat="43.19377" lon="-0.68675">
        <ele>261</ele>
        <time>2018-09-30T07:54:44.000Z</time>
      </trkpt>
      <trkpt lat="43.19376" lon="-0.6867">
        <ele>262</ele>
        <time>2018-09-30T07:54:46.000Z</time>
      </trkpt>
      <trkpt lat="43.19375" lon="-0.68665">
        <ele>263</ele>
        <time>2018-09-30T07:54:48.000Z</time>
      </trkpt>
      <trkpt lat="43.19374" lon="-0.6866">
        <ele>264</ele>
        <time>2018-09-30T07:54:50.000Z</time>
      </trkpt>
      <trkpt lat="43.19374" lon="-0.68655">
        <ele>264.5900032</ele>
        <time>2018-09-30T07:54:52.000Z</time>
      </trkpt>
      <trkpt lat="43.19373" lon="-0.6865">
        <ele>265.5900032</ele>
        <time>2018-09-30T07:54:54.000Z</time>
      </trkpt>
      <trkpt lat="43.19373" lon="-0.68644">
        <ele>266</ele>
        <time>2018-09-30T07:54:56.000Z</time>
      </trkpt>
      <trkpt lat="43.19373" lon="-0.68639">
        <ele>266</ele>
        <time>2018-09-30T07:54:58.000Z</time>
      </trkpt>
      <trkpt lat="43.19373" lon="-0.68632">
        <ele>266.45038302197</ele>
        <time>2018-09-30T07:55:00.000Z</time>
      </trkpt>
      <trkpt lat="43.19374" lon="-0.68626">
        <ele>267.5900032</ele>
        <time>2018-09-30T07:55:02.000Z</time>
      </trkpt>
      <trkpt lat="43.19374" lon="-0.6862">
        <ele>269</ele>
        <time>2018-09-30T07:55:04.000Z</time>
      </trkpt>
      <trkpt lat="43.19375" lon="-0.68614">
        <ele>269</ele>
        <time>2018-09-30T07:55:06.000Z</time>
      </trkpt>
      <trkpt lat="43.19375" lon="-0.68608">
        <ele>270</ele>
        <time>2018-09-30T07:55:08.000Z</time>
      </trkpt>
      <trkpt lat="43.19376" lon="-0.68602">
        <ele>270.5900032</ele>
        <time>2018-09-30T07:55:10.000Z</time>
      </trkpt>
      <trkpt lat="43.19376" lon="-0.68596">
        <ele>271</ele>
        <time>2018-09-30T07:55:12.000Z</time>
      </trkpt>
      <trkpt lat="43.19377" lon="-0.6859">
        <ele>271</ele>
        <time>2018-09-30T07:55:14.000Z</time>
      </trkpt>
      <trkpt lat="43.19377" lon="-0.68584">
        <ele>272</ele>
        <time>2018-09-30T07:55:16.000Z</time>
      </trkpt>
      <trkpt lat="43.19378" lon="-0.68578">
        <ele>272</ele>
        <time>2018-09-30T07:55:18.000Z</time>
      </trkpt>
      <trkpt lat="43.1938" lon="-0.68572">
        <ele>273.42254232094</ele>
        <time>2018-09-30T07:55:20.000Z</time>
      </trkpt>
      <trkpt lat="43.19381" lon="-0.68566">
        <ele>274</ele>
        <time>2018-09-30T07:55:22.000Z</time>
      </trkpt>
      <trkpt lat="43.19383" lon="-0.68561">
        <ele>274.5900032</ele>
        <time>2018-09-30T07:55:24.000Z</time>
      </trkpt>
      <trkpt lat="43.19384" lon="-0.68555">
        <ele>275</ele>
        <time>2018-09-30T07:55:27.000Z</time>
      </trkpt>
      <trkpt lat="43.19384" lon="-0.68548">
        <ele>274.4099968</ele>
        <time>2018-09-30T07:55:30.000Z</time>
      </trkpt>
      <trkpt lat="43.19384" lon="-0.68542">
        <ele>274</ele>
        <time>2018-09-30T07:55:32.000Z</time>
      </trkpt>
      <trkpt lat="43.19383" lon="-0.68536">
        <ele>274</ele>
        <time>2018-09-30T07:55:34.000Z</time>
      </trkpt>
      <trkpt lat="43.19383" lon="-0.6853">
        <ele>274</ele>
        <time>2018-09-30T07:55:36.000Z</time>
      </trkpt>
      <trkpt lat="43.19383" lon="-0.68525">
        <ele>273.54615361894</ele>
        <time>2018-09-30T07:55:38.000Z</time>
      </trkpt>
      <trkpt lat="43.19384" lon="-0.68518">
        <ele>273</ele>
        <time>2018-09-30T07:55:41.000Z</time>
      </trkpt>
      <trkpt lat="43.19384" lon="-0.68512">
        <ele>273</ele>
        <time>2018-09-30T07:55:43.000Z</time>
      </trkpt>
      <trkpt lat="43.19383" lon="-0.68505">
        <ele>273</ele>
        <time>2018-09-30T07:55:45.000Z</time>
      </trkpt>
      <trkpt lat="43.19384" lon="-0.68498">
        <ele>272</ele>
        <time>2018-09-30T07:55:47.000Z</time>
      </trkpt>
      <trkpt lat="43.19386" lon="-0.68491">
        <ele>272</ele>
        <time>2018-09-30T07:55:49.000Z</time>
      </trkpt>
      <trkpt lat="43.19389" lon="-0.68488">
        <ele>272</ele>
        <time>2018-09-30T07:55:51.000Z</time>
      </trkpt>
      <trkpt lat="43.19393" lon="-0.68485">
        <ele>272</ele>
        <time>2018-09-30T07:55:53.000Z</time>
      </trkpt>
      <trkpt lat="43.19397" lon="-0.68482">
        <ele>272.4142849306</ele>
        <time>2018-09-30T07:55:55.000Z</time>
      </trkpt>
      <trkpt lat="43.19401" lon="-0.6848">
        <ele>273</ele>
        <time>2018-09-30T07:55:57.000Z</time>
      </trkpt>
      <trkpt lat="43.19405" lon="-0.68479">
        <ele>273</ele>
        <time>2018-09-30T07:55:59.000Z</time>
      </trkpt>
      <trkpt lat="43.19409" lon="-0.68477">
        <ele>273.5900032</ele>
        <time>2018-09-30T07:56:01.000Z</time>
      </trkpt>
      <trkpt lat="43.19414" lon="-0.68476">
        <ele>274</ele>
        <time>2018-09-30T07:56:03.000Z</time>
      </trkpt>
      <trkpt lat="43.19418" lon="-0.68475">
        <ele>274.5900032</ele>
        <time>2018-09-30T07:56:05.000Z</time>
      </trkpt>
      <trkpt lat="43.19423" lon="-0.68474">
        <ele>275</ele>
        <time>2018-09-30T07:56:07.000Z</time>
      </trkpt>
      <trkpt lat="43.19427" lon="-0.68473">
        <ele>276</ele>
        <time>2018-09-30T07:56:09.000Z</time>
      </trkpt>
      <trkpt lat="43.19432" lon="-0.68473">
        <ele>276</ele>
        <time>2018-09-30T07:56:11.000Z</time>
      </trkpt>
      <trkpt lat="43.19436" lon="-0.68473">
        <ele>276.5900032</ele>
        <time>2018-09-30T07:56:13.000Z</time>
      </trkpt>
      <trkpt lat="43.1944" lon="-0.68473">
        <ele>277</ele>
        <time>2018-09-30T07:56:15.000Z</time>
      </trkpt>
      <trkpt lat="43.19444" lon="-0.68473">
        <ele>277</ele>
        <time>2018-09-30T07:56:17.000Z</time>
      </trkpt>
      <trkpt lat="43.19448" lon="-0.68473">
        <ele>277</ele>
        <time>2018-09-30T07:56:19.000Z</time>
      </trkpt>
      <trkpt lat="43.19452" lon="-0.68475">
        <ele>277.5900032</ele>
        <time>2018-09-30T07:56:21.000Z</time>
      </trkpt>
      <trkpt lat="43.19456" lon="-0.68477">
        <ele>278</ele>
        <time>2018-09-30T07:56:23.000Z</time>
      </trkpt>
      <trkpt lat="43.1946" lon="-0.68479">
        <ele>278</ele>
        <time>2018-09-30T07:56:25.000Z</time>
      </trkpt>
      <trkpt lat="43.19464" lon="-0.68483">
        <ele>278</ele>
        <time>2018-09-30T07:56:27.000Z</time>
      </trkpt>
      <trkpt lat="43.19468" lon="-0.68486">
        <ele>278</ele>
        <time>2018-09-30T07:56:29.000Z</time>
      </trkpt>
      <trkpt lat="43.19472" lon="-0.68491">
        <ele>278</ele>
        <time>2018-09-30T07:56:31.000Z</time>
      </trkpt>
      <trkpt lat="43.19477" lon="-0.68496">
        <ele>278</ele>
        <time>2018-09-30T07:56:33.000Z</time>
      </trkpt>
      <trkpt lat="43.19481" lon="-0.68503">
        <ele>278</ele>
        <time>2018-09-30T07:56:35.000Z</time>
      </trkpt>
      <trkpt lat="43.19486" lon="-0.6851">
        <ele>278</ele>
        <time>2018-09-30T07:56:37.000Z</time>
      </trkpt>
      <trkpt lat="43.19491" lon="-0.68517">
        <ele>278.5900032</ele>
        <time>2018-09-30T07:56:39.000Z</time>
      </trkpt>
      <trkpt lat="43.19497" lon="-0.68522">
        <ele>279</ele>
        <time>2018-09-30T07:56:41.000Z</time>
      </trkpt>
      <trkpt lat="43.195" lon="-0.68525">
        <ele>279</ele>
        <time>2018-09-30T07:56:42.000Z</time>
      </trkpt>
      <trkpt lat="43.19504" lon="-0.68527">
        <ele>279.5900032</ele>
        <time>2018-09-30T07:56:43.000Z</time>
      </trkpt>
      <trkpt lat="43.1951" lon="-0.6853">
        <ele>280</ele>
        <time>2018-09-30T07:56:45.000Z</time>
      </trkpt>
      <trkpt lat="43.19516" lon="-0.6853">
        <ele>280</ele>
        <time>2018-09-30T07:56:47.000Z</time>
      </trkpt>
      <trkpt lat="43.1952" lon="-0.6853">
        <ele>280</ele>
        <time>2018-09-30T07:56:48.000Z</time>
      </trkpt>
      <trkpt lat="43.19527" lon="-0.68528">
        <ele>281</ele>
        <time>2018-09-30T07:56:50.000Z</time>
      </trkpt>
      <trkpt lat="43.1953" lon="-0.68527">
        <ele>281</ele>
        <time>2018-09-30T07:56:51.000Z</time>
      </trkpt>
      <trkpt lat="43.19537" lon="-0.68527">
        <ele>281</ele>
        <time>2018-09-30T07:56:53.000Z</time>
      </trkpt>
      <trkpt lat="43.19544" lon="-0.68526">
        <ele>281</ele>
        <time>2018-09-30T07:56:55.000Z</time>
      </trkpt>
      <trkpt lat="43.19551" lon="-0.68524">
        <ele>282</ele>
        <time>2018-09-30T07:56:57.000Z</time>
      </trkpt>
      <trkpt lat="43.19558" lon="-0.68522">
        <ele>282.5900032</ele>
        <time>2018-09-30T07:56:59.000Z</time>
      </trkpt>
      <trkpt lat="43.19564" lon="-0.6852">
        <ele>283</ele>
        <time>2018-09-30T07:57:01.000Z</time>
      </trkpt>
      <trkpt lat="43.1957" lon="-0.68518">
        <ele>284</ele>
        <time>2018-09-30T07:57:03.000Z</time>
      </trkpt>
      <trkpt lat="43.19576" lon="-0.68517">
        <ele>284</ele>
        <time>2018-09-30T07:57:05.000Z</time>
      </trkpt>
      <trkpt lat="43.19582" lon="-0.68515">
        <ele>284</ele>
        <time>2018-09-30T07:57:07.000Z</time>
      </trkpt>
      <trkpt lat="43.19588" lon="-0.68514">
        <ele>284</ele>
        <time>2018-09-30T07:57:09.000Z</time>
      </trkpt>
      <trkpt lat="43.19594" lon="-0.68514">
        <ele>284</ele>
        <time>2018-09-30T07:57:11.000Z</time>
      </trkpt>
      <trkpt lat="43.196" lon="-0.68515">
        <ele>284</ele>
        <time>2018-09-30T07:57:13.000Z</time>
      </trkpt>
      <trkpt lat="43.19607" lon="-0.68517">
        <ele>284.5900032</ele>
        <time>2018-09-30T07:57:15.000Z</time>
      </trkpt>
      <trkpt lat="43.19613" lon="-0.68519">
        <ele>284.4099968</ele>
        <time>2018-09-30T07:57:17.000Z</time>
      </trkpt>
      <trkpt lat="43.19618" lon="-0.68523">
        <ele>284</ele>
        <time>2018-09-30T07:57:19.000Z</time>
      </trkpt>
      <trkpt lat="43.19624" lon="-0.68528">
        <ele>284.4142849306</ele>
        <time>2018-09-30T07:57:21.000Z</time>
      </trkpt>
      <trkpt lat="43.19629" lon="-0.68533">
        <ele>284.4099968</ele>
        <time>2018-09-30T07:57:23.000Z</time>
      </trkpt>
      <trkpt lat="43.19634" lon="-0.68538">
        <ele>284</ele>
        <time>2018-09-30T07:57:25.000Z</time>
      </trkpt>
      <trkpt lat="43.19638" lon="-0.68542">
        <ele>284</ele>
        <time>2018-09-30T07:57:27.000Z</time>
      </trkpt>
      <trkpt lat="43.19642" lon="-0.68546">
        <ele>285</ele>
        <time>2018-09-30T07:57:29.000Z</time>
      </trkpt>
      <trkpt lat="43.19647" lon="-0.6855">
        <ele>286</ele>
        <time>2018-09-30T07:57:31.000Z</time>
      </trkpt>
      <trkpt lat="43.19652" lon="-0.68555">
        <ele>286</ele>
        <time>2018-09-30T07:57:33.000Z</time>
      </trkpt>
      <trkpt lat="43.19656" lon="-0.68558">
        <ele>286</ele>
        <time>2018-09-30T07:57:35.000Z</time>
      </trkpt>
      <trkpt lat="43.19661" lon="-0.6856">
        <ele>287</ele>
        <time>2018-09-30T07:57:37.000Z</time>
      </trkpt>
      <trkpt lat="43.19667" lon="-0.68561">
        <ele>287</ele>
        <time>2018-09-30T07:57:39.000Z</time>
      </trkpt>
      <trkpt lat="43.19673" lon="-0.68562">
        <ele>288</ele>
        <time>2018-09-30T07:57:41.000Z</time>
      </trkpt>
      <trkpt lat="43.19679" lon="-0.68563">
        <ele>288</ele>
        <time>2018-09-30T07:57:43.000Z</time>
      </trkpt>
      <trkpt lat="43.19684" lon="-0.68564">
        <ele>288</ele>
        <time>2018-09-30T07:57:45.000Z</time>
      </trkpt>
      <trkpt lat="43.1969" lon="-0.68565">
        <ele>289</ele>
        <time>2018-09-30T07:57:47.000Z</time>
      </trkpt>
      <trkpt lat="43.19695" lon="-0.68566">
        <ele>289.58163318618</ele>
        <time>2018-09-30T07:57:49.000Z</time>
      </trkpt>
      <trkpt lat="43.197" lon="-0.68568">
        <ele>290</ele>
        <time>2018-09-30T07:57:51.000Z</time>
      </trkpt>
      <trkpt lat="43.19704" lon="-0.6857">
        <ele>290</ele>
        <time>2018-09-30T07:57:53.000Z</time>
      </trkpt>
      <trkpt lat="43.19709" lon="-0.68572">
        <ele>290</ele>
        <time>2018-09-30T07:57:55.000Z</time>
      </trkpt>
      <trkpt lat="43.19713" lon="-0.68574">
        <ele>290</ele>
        <time>2018-09-30T07:57:57.000Z</time>
      </trkpt>
      <trkpt lat="43.19717" lon="-0.68577">
        <ele>290</ele>
        <time>2018-09-30T07:57:59.000Z</time>
      </trkpt>
      <trkpt lat="43.1972" lon="-0.68578">
        <ele>290</ele>
        <time>2018-09-30T07:58:01.000Z</time>
      </trkpt>
      <trkpt lat="43.19725" lon="-0.68581">
        <ele>290</ele>
        <time>2018-09-30T07:58:04.000Z</time>
      </trkpt>
      <trkpt lat="43.1973" lon="-0.68583">
        <ele>290.5900032</ele>
        <time>2018-09-30T07:58:07.000Z</time>
      </trkpt>
      <trkpt lat="43.19735" lon="-0.68584">
        <ele>291</ele>
        <time>2018-09-30T07:58:10.000Z</time>
      </trkpt>
      <trkpt lat="43.19739" lon="-0.68586">
        <ele>291</ele>
        <time>2018-09-30T07:58:13.000Z</time>
      </trkpt>
      <trkpt lat="43.19742" lon="-0.68588">
        <ele>291</ele>
        <time>2018-09-30T07:58:17.000Z</time>
      </trkpt>
      <trkpt lat="43.19746" lon="-0.68589">
        <ele>292</ele>
        <time>2018-09-30T07:58:20.000Z</time>
      </trkpt>
      <trkpt lat="43.1975" lon="-0.6859">
        <ele>292</ele>
        <time>2018-09-30T07:58:23.000Z</time>
      </trkpt>
      <trkpt lat="43.19754" lon="-0.68591">
        <ele>292.5900032</ele>
        <time>2018-09-30T07:58:25.000Z</time>
      </trkpt>
      <trkpt lat="43.19758" lon="-0.68592">
        <ele>293</ele>
        <time>2018-09-30T07:58:28.000Z</time>
      </trkpt>
      <trkpt lat="43.19762" lon="-0.68594">
        <ele>293</ele>
        <time>2018-09-30T07:58:35.000Z</time>
      </trkpt>
      <trkpt lat="43.19766" lon="-0.68596">
        <ele>294</ele>
        <time>2018-09-30T07:58:41.000Z</time>
      </trkpt>
      <trkpt lat="43.19769" lon="-0.68597">
        <ele>294</ele>
        <time>2018-09-30T07:58:45.000Z</time>
      </trkpt>
      <trkpt lat="43.19773" lon="-0.68598">
        <ele>295</ele>
        <time>2018-09-30T07:58:53.000Z</time>
      </trkpt>
      <trkpt lat="43.19777" lon="-0.68598">
        <ele>295</ele>
        <time>2018-09-30T07:58:55.000Z</time>
      </trkpt>
      <trkpt lat="43.19781" lon="-0.68599">
        <ele>295</ele>
        <time>2018-09-30T07:58:57.000Z</time>
      </trkpt>
      <trkpt lat="43.19785" lon="-0.68599">
        <ele>296</ele>
        <time>2018-09-30T07:58:59.000Z</time>
      </trkpt>
      <trkpt lat="43.19789" lon="-0.686">
        <ele>296</ele>
        <time>2018-09-30T07:59:01.000Z</time>
      </trkpt>
      <trkpt lat="43.19794" lon="-0.68599">
        <ele>296</ele>
        <time>2018-09-30T07:59:03.000Z</time>
      </trkpt>
      <trkpt lat="43.19797" lon="-0.68598">
        <ele>296</ele>
        <time>2018-09-30T07:59:10.000Z</time>
      </trkpt>
      <trkpt lat="43.19803" lon="-0.68598">
        <ele>296</ele>
        <time>2018-09-30T07:59:14.000Z</time>
      </trkpt>
      <trkpt lat="43.19806" lon="-0.68597">
        <ele>296</ele>
        <time>2018-09-30T07:59:16.000Z</time>
      </trkpt>
      <trkpt lat="43.19812" lon="-0.68596">
        <ele>296</ele>
        <time>2018-09-30T07:59:19.000Z</time>
      </trkpt>
      <trkpt lat="43.19816" lon="-0.68595">
        <ele>296.5900032</ele>
        <time>2018-09-30T07:59:21.000Z</time>
      </trkpt>
      <trkpt lat="43.1982" lon="-0.68594">
        <ele>297</ele>
        <time>2018-09-30T07:59:24.000Z</time>
      </trkpt>
      <trkpt lat="43.19825" lon="-0.68593">
        <ele>297</ele>
        <time>2018-09-30T07:59:27.000Z</time>
      </trkpt>
      <trkpt lat="43.19829" lon="-0.68591">
        <ele>298</ele>
        <time>2018-09-30T07:59:30.000Z</time>
      </trkpt>
      <trkpt lat="43.19833" lon="-0.68591">
        <ele>299</ele>
        <time>2018-09-30T07:59:40.000Z</time>
      </trkpt>
      <trkpt lat="43.19837" lon="-0.6859">
        <ele>299</ele>
        <time>2018-09-30T07:59:42.000Z</time>
      </trkpt>
      <trkpt lat="43.19841" lon="-0.68589">
        <ele>300</ele>
        <time>2018-09-30T07:59:45.000Z</time>
      </trkpt>
      <trkpt lat="43.19845" lon="-0.68588">
        <ele>301</ele>
        <time>2018-09-30T07:59:49.000Z</time>
      </trkpt>
      <trkpt lat="43.19849" lon="-0.68587">
        <ele>302</ele>
        <time>2018-09-30T07:59:54.000Z</time>
      </trkpt>
      <trkpt lat="43.19853" lon="-0.68586">
        <ele>302</ele>
        <time>2018-09-30T07:59:56.000Z</time>
      </trkpt>
      <trkpt lat="43.19857" lon="-0.68585">
        <ele>302</ele>
        <time>2018-09-30T07:59:58.000Z</time>
      </trkpt>
      <trkpt lat="43.19864" lon="-0.68585">
        <ele>303</ele>
        <time>2018-09-30T08:00:01.000Z</time>
      </trkpt>
      <trkpt lat="43.19868" lon="-0.68587">
        <ele>303.5900032</ele>
        <time>2018-09-30T08:00:03.000Z</time>
      </trkpt>
      <trkpt lat="43.19872" lon="-0.68588">
        <ele>304.42253191029</ele>
        <time>2018-09-30T08:00:05.000Z</time>
      </trkpt>
      <trkpt lat="43.19875" lon="-0.68591">
        <ele>306</ele>
        <time>2018-09-30T08:00:07.000Z</time>
      </trkpt>
      <trkpt lat="43.19879" lon="-0.68593">
        <ele>306</ele>
        <time>2018-09-30T08:00:09.000Z</time>
      </trkpt>
      <trkpt lat="43.19882" lon="-0.68596">
        <ele>307</ele>
        <time>2018-09-30T08:00:12.000Z</time>
      </trkpt>
      <trkpt lat="43.19886" lon="-0.68599">
        <ele>307.5900032</ele>
        <time>2018-09-30T08:00:15.000Z</time>
      </trkpt>
      <trkpt lat="43.19889" lon="-0.68601">
        <ele>308</ele>
        <time>2018-09-30T08:00:17.000Z</time>
      </trkpt>
      <trkpt lat="43.19893" lon="-0.68603">
        <ele>308</ele>
        <time>2018-09-30T08:00:19.000Z</time>
      </trkpt>
      <trkpt lat="43.19897" lon="-0.68605">
        <ele>308</ele>
        <time>2018-09-30T08:00:21.000Z</time>
      </trkpt>
      <trkpt lat="43.19901" lon="-0.68607">
        <ele>309</ele>
        <time>2018-09-30T08:00:25.000Z</time>
      </trkpt>
      <trkpt lat="43.19906" lon="-0.68609">
        <ele>309</ele>
        <time>2018-09-30T08:00:31.000Z</time>
      </trkpt>
      <trkpt lat="43.19909" lon="-0.68613">
        <ele>309.43056</ele>
        <time>2018-09-30T08:00:34.000Z</time>
      </trkpt>
      <trkpt lat="43.19913" lon="-0.68614">
        <ele>310</ele>
        <time>2018-09-30T08:00:43.000Z</time>
      </trkpt>
      <trkpt lat="43.19917" lon="-0.68617">
        <ele>310</ele>
        <time>2018-09-30T08:00:46.000Z</time>
      </trkpt>
      <trkpt lat="43.1992" lon="-0.6862">
        <ele>311.57843088043</ele>
        <time>2018-09-30T08:00:53.000Z</time>
      </trkpt>
      <trkpt lat="43.19924" lon="-0.68621">
        <ele>312</ele>
        <time>2018-09-30T08:00:56.000Z</time>
      </trkpt>
      <trkpt lat="43.19928" lon="-0.68623">
        <ele>313</ele>
        <time>2018-09-30T08:01:00.000Z</time>
      </trkpt>
      <trkpt lat="43.19931" lon="-0.68625">
        <ele>314</ele>
        <time>2018-09-30T08:01:04.000Z</time>
      </trkpt>
      <trkpt lat="43.19935" lon="-0.68627">
        <ele>314</ele>
        <time>2018-09-30T08:01:08.000Z</time>
      </trkpt>
      <trkpt lat="43.19939" lon="-0.68629">
        <ele>314</ele>
        <time>2018-09-30T08:01:14.000Z</time>
      </trkpt>
      <trkpt lat="43.19942" lon="-0.68631">
        <ele>315</ele>
        <time>2018-09-30T08:01:18.000Z</time>
      </trkpt>
      <trkpt lat="43.19945" lon="-0.68635">
        <ele>316</ele>
        <time>2018-09-30T08:01:23.000Z</time>
      </trkpt>
      <trkpt lat="43.19949" lon="-0.68636">
        <ele>316.5900032</ele>
        <time>2018-09-30T08:01:26.000Z</time>
      </trkpt>
      <trkpt lat="43.19952" lon="-0.68637">
        <ele>317.4142849306</ele>
        <time>2018-09-30T08:01:29.000Z</time>
      </trkpt>
      <trkpt lat="43.19956" lon="-0.68639">
        <ele>319</ele>
        <time>2018-09-30T08:01:33.000Z</time>
      </trkpt>
      <trkpt lat="43.19959" lon="-0.68642">
        <ele>319.5900032</ele>
        <time>2018-09-30T08:01:37.000Z</time>
      </trkpt>
      <trkpt lat="43.19963" lon="-0.68644">
        <ele>320</ele>
        <time>2018-09-30T08:01:41.000Z</time>
      </trkpt>
      <trkpt lat="43.19966" lon="-0.68647">
        <ele>320</ele>
        <time>2018-09-30T08:01:46.000Z</time>
      </trkpt>
      <trkpt lat="43.19969" lon="-0.68649">
        <ele>321</ele>
        <time>2018-09-30T08:01:49.000Z</time>
      </trkpt>
      <trkpt lat="43.19973" lon="-0.68652">
        <ele>321</ele>
        <time>2018-09-30T08:01:53.000Z</time>
      </trkpt>
      <trkpt lat="43.19976" lon="-0.68654">
        <ele>322</ele>
        <time>2018-09-30T08:02:02.000Z</time>
      </trkpt>
      <trkpt lat="43.1998" lon="-0.68657">
        <ele>323.5900032</ele>
        <time>2018-09-30T08:02:05.000Z</time>
      </trkpt>
      <trkpt lat="43.19985" lon="-0.68658">
        <ele>324</ele>
        <time>2018-09-30T08:02:08.000Z</time>
      </trkpt>
      <trkpt lat="43.19988" lon="-0.68659">
        <ele>324</ele>
        <time>2018-09-30T08:02:11.000Z</time>
      </trkpt>
      <trkpt lat="43.19992" lon="-0.68659">
        <ele>324</ele>
        <time>2018-09-30T08:02:17.000Z</time>
      </trkpt>
      <trkpt lat="43.19996" lon="-0.68659">
        <ele>324</ele>
        <time>2018-09-30T08:02:24.000Z</time>
      </trkpt>
      <trkpt lat="43.2" lon="-0.6866">
        <ele>323</ele>
        <time>2018-09-30T08:02:32.000Z</time>
      </trkpt>
      <trkpt lat="43.20004" lon="-0.68657">
        <ele>322</ele>
        <time>2018-09-30T08:02:46.000Z</time>
      </trkpt>
      <trkpt lat="43.2" lon="-0.68657">
        <ele>322.5900032</ele>
        <time>2018-09-30T08:03:09.000Z</time>
      </trkpt>
      <trkpt lat="43.19997" lon="-0.68659">
        <ele>322.4099968</ele>
        <time>2018-09-30T08:03:24.000Z</time>
      </trkpt>
      <trkpt lat="43.19999" lon="-0.68654">
        <ele>322.41414219774</ele>
        <time>2018-09-30T08:04:24.000Z</time>
      </trkpt>
      <trkpt lat="43.20002" lon="-0.68653">
        <ele>322</ele>
        <time>2018-09-30T08:05:06.000Z</time>
      </trkpt>
      <trkpt lat="43.19998" lon="-0.68653">
        <ele>323</ele>
        <time>2018-09-30T08:05:40.000Z</time>
      </trkpt>
      <trkpt lat="43.19999" lon="-0.68658">
        <ele>322</ele>
        <time>2018-09-30T08:05:57.000Z</time>
      </trkpt>
      <trkpt lat="43.19996" lon="-0.68662">
        <ele>322</ele>
        <time>2018-09-30T08:06:10.000Z</time>
      </trkpt>
      <trkpt lat="43.19992" lon="-0.68664">
        <ele>323</ele>
        <time>2018-09-30T08:06:46.000Z</time>
      </trkpt>
      <trkpt lat="43.19996" lon="-0.68662">
        <ele>322</ele>
        <time>2018-09-30T08:07:07.000Z</time>
      </trkpt>
      <trkpt lat="43.19999" lon="-0.6866">
        <ele>322</ele>
        <time>2018-09-30T08:07:34.000Z</time>
      </trkpt>
      <trkpt lat="43.20003" lon="-0.68658">
        <ele>322</ele>
        <time>2018-09-30T08:08:56.000Z</time>
      </trkpt>
      <trkpt lat="43.20008" lon="-0.68658">
        <ele>322</ele>
        <time>2018-09-30T08:09:04.000Z</time>
      </trkpt>
      <trkpt lat="43.20012" lon="-0.68657">
        <ele>322</ele>
        <time>2018-09-30T08:09:08.000Z</time>
      </trkpt>
      <trkpt lat="43.20016" lon="-0.68654">
        <ele>322</ele>
        <time>2018-09-30T08:09:18.000Z</time>
      </trkpt>
      <trkpt lat="43.20014" lon="-0.6865">
        <ele>322</ele>
        <time>2018-09-30T08:09:48.000Z</time>
      </trkpt>
      <trkpt lat="43.20017" lon="-0.68646">
        <ele>321</ele>
        <time>2018-09-30T08:10:35.000Z</time>
      </trkpt>
      <trkpt lat="43.2003" lon="-0.68639">
        <ele>320</ele>
        <time>2018-09-30T08:10:40.000Z</time>
      </trkpt>
      <trkpt lat="43.20043" lon="-0.68632">
        <ele>320</ele>
        <time>2018-09-30T08:10:43.000Z</time>
      </trkpt>
      <trkpt lat="43.20057" lon="-0.68624">
        <ele>320</ele>
        <time>2018-09-30T08:10:46.000Z</time>
      </trkpt>
      <trkpt lat="43.20068" lon="-0.68619">
        <ele>319</ele>
        <time>2018-09-30T08:10:48.000Z</time>
      </trkpt>
      <trkpt lat="43.20078" lon="-0.68611">
        <ele>319</ele>
        <time>2018-09-30T08:10:50.000Z</time>
      </trkpt>
      <trkpt lat="43.20088" lon="-0.68602">
        <ele>318.5857150694</ele>
        <time>2018-09-30T08:10:52.000Z</time>
      </trkpt>
      <trkpt lat="43.20097" lon="-0.68593">
        <ele>316.4099968</ele>
        <time>2018-09-30T08:10:54.000Z</time>
      </trkpt>
      <trkpt lat="43.20107" lon="-0.68583">
        <ele>316</ele>
        <time>2018-09-30T08:10:56.000Z</time>
      </trkpt>
      <trkpt lat="43.20117" lon="-0.68572">
        <ele>316</ele>
        <time>2018-09-30T08:10:58.000Z</time>
      </trkpt>
      <trkpt lat="43.20121" lon="-0.68566">
        <ele>316</ele>
        <time>2018-09-30T08:10:59.000Z</time>
      </trkpt>
      <trkpt lat="43.20132" lon="-0.68559">
        <ele>314.59420101658</ele>
        <time>2018-09-30T08:11:01.000Z</time>
      </trkpt>
      <trkpt lat="43.20144" lon="-0.68553">
        <ele>314</ele>
        <time>2018-09-30T08:11:03.000Z</time>
      </trkpt>
      <trkpt lat="43.20157" lon="-0.68546">
        <ele>313.4099968</ele>
        <time>2018-09-30T08:11:05.000Z</time>
      </trkpt>
      <trkpt lat="43.20167" lon="-0.68538">
        <ele>311.4099968</ele>
        <time>2018-09-30T08:11:07.000Z</time>
      </trkpt>
      <trkpt lat="43.20175" lon="-0.68527">
        <ele>309</ele>
        <time>2018-09-30T08:11:11.000Z</time>
      </trkpt>
      <trkpt lat="43.20179" lon="-0.68519">
        <ele>308.41836681382</ele>
        <time>2018-09-30T08:11:13.000Z</time>
      </trkpt>
      <trkpt lat="43.20182" lon="-0.68514">
        <ele>308</ele>
        <time>2018-09-30T08:11:14.000Z</time>
      </trkpt>
      <trkpt lat="43.20184" lon="-0.68509">
        <ele>308</ele>
        <time>2018-09-30T08:11:15.000Z</time>
      </trkpt>
      <trkpt lat="43.20191" lon="-0.68491">
        <ele>308</ele>
        <time>2018-09-30T08:11:18.000Z</time>
      </trkpt>
      <trkpt lat="43.20196" lon="-0.6847">
        <ele>306.56944</ele>
        <time>2018-09-30T08:11:21.000Z</time>
      </trkpt>
      <trkpt lat="43.202" lon="-0.68454">
        <ele>305</ele>
        <time>2018-09-30T08:11:23.000Z</time>
      </trkpt>
      <trkpt lat="43.20205" lon="-0.68439">
        <ele>303.4099968</ele>
        <time>2018-09-30T08:11:25.000Z</time>
      </trkpt>
      <trkpt lat="43.20211" lon="-0.68423">
        <ele>303</ele>
        <time>2018-09-30T08:11:27.000Z</time>
      </trkpt>
      <trkpt lat="43.20216" lon="-0.68404">
        <ele>303</ele>
        <time>2018-09-30T08:11:29.000Z</time>
      </trkpt>
      <trkpt lat="43.20221" lon="-0.68387">
        <ele>302.4099968</ele>
        <time>2018-09-30T08:11:31.000Z</time>
      </trkpt>
      <trkpt lat="43.20225" lon="-0.68369">
        <ele>300.4099968</ele>
        <time>2018-09-30T08:11:34.000Z</time>
      </trkpt>
      <trkpt lat="43.20231" lon="-0.68354">
        <ele>299</ele>
        <time>2018-09-30T08:11:38.000Z</time>
      </trkpt>
      <trkpt lat="43.20231" lon="-0.68347">
        <ele>299</ele>
        <time>2018-09-30T08:11:40.000Z</time>
      </trkpt>
      <trkpt lat="43.20231" lon="-0.68339">
        <ele>299</ele>
        <time>2018-09-30T08:11:42.000Z</time>
      </trkpt>
      <trkpt lat="43.2023" lon="-0.68329">
        <ele>299</ele>
        <time>2018-09-30T08:11:44.000Z</time>
      </trkpt>
      <trkpt lat="43.2023" lon="-0.68319">
        <ele>299</ele>
        <time>2018-09-30T08:11:46.000Z</time>
      </trkpt>
      <trkpt lat="43.20231" lon="-0.68313">
        <ele>299</ele>
        <time>2018-09-30T08:11:47.000Z</time>
      </trkpt>
      <trkpt lat="43.20232" lon="-0.68308">
        <ele>299</ele>
        <time>2018-09-30T08:11:48.000Z</time>
      </trkpt>
      <trkpt lat="43.20233" lon="-0.68303">
        <ele>299</ele>
        <time>2018-09-30T08:11:49.000Z</time>
      </trkpt>
      <trkpt lat="43.20232" lon="-0.68294">
        <ele>299</ele>
        <time>2018-09-30T08:11:51.000Z</time>
      </trkpt>
      <trkpt lat="43.20233" lon="-0.68287">
        <ele>299</ele>
        <time>2018-09-30T08:11:53.000Z</time>
      </trkpt>
      <trkpt lat="43.20236" lon="-0.68273">
        <ele>298</ele>
        <time>2018-09-30T08:11:58.000Z</time>
      </trkpt>
      <trkpt lat="43.20237" lon="-0.68267">
        <ele>298</ele>
        <time>2018-09-30T08:12:01.000Z</time>
      </trkpt>
      <trkpt lat="43.20236" lon="-0.68262">
        <ele>299.5900032</ele>
        <time>2018-09-30T08:12:03.000Z</time>
      </trkpt>
      <trkpt lat="43.20237" lon="-0.68257">
        <ele>300</ele>
        <time>2018-09-30T08:12:07.000Z</time>
      </trkpt>
      <trkpt lat="43.20237" lon="-0.6825">
        <ele>301.5900032</ele>
        <time>2018-09-30T08:12:12.000Z</time>
      </trkpt>
      <trkpt lat="43.20237" lon="-0.68244">
        <ele>302</ele>
        <time>2018-09-30T08:12:14.000Z</time>
      </trkpt>
      <trkpt lat="43.20237" lon="-0.68238">
        <ele>302.5900032</ele>
        <time>2018-09-30T08:12:16.000Z</time>
      </trkpt>
      <trkpt lat="43.20239" lon="-0.68233">
        <ele>303</ele>
        <time>2018-09-30T08:12:18.000Z</time>
      </trkpt>
      <trkpt lat="43.2024" lon="-0.68226">
        <ele>303</ele>
        <time>2018-09-30T08:12:20.000Z</time>
      </trkpt>
      <trkpt lat="43.20241" lon="-0.6822">
        <ele>303</ele>
        <time>2018-09-30T08:12:22.000Z</time>
      </trkpt>
      <trkpt lat="43.20242" lon="-0.68214">
        <ele>303</ele>
        <time>2018-09-30T08:12:24.000Z</time>
      </trkpt>
      <trkpt lat="43.20245" lon="-0.68207">
        <ele>303</ele>
        <time>2018-09-30T08:12:26.000Z</time>
      </trkpt>
      <trkpt lat="43.20247" lon="-0.682">
        <ele>303</ele>
        <time>2018-09-30T08:12:28.000Z</time>
      </trkpt>
      <trkpt lat="43.20249" lon="-0.68193">
        <ele>302.42267850781</ele>
        <time>2018-09-30T08:12:30.000Z</time>
      </trkpt>
      <trkpt lat="43.20252" lon="-0.68186">
        <ele>302</ele>
        <time>2018-09-30T08:12:32.000Z</time>
      </trkpt>
      <trkpt lat="43.20253" lon="-0.68179">
        <ele>302</ele>
        <time>2018-09-30T08:12:34.000Z</time>
      </trkpt>
      <trkpt lat="43.20254" lon="-0.68171">
        <ele>302</ele>
        <time>2018-09-30T08:12:36.000Z</time>
      </trkpt>
      <trkpt lat="43.20256" lon="-0.68163">
        <ele>302</ele>
        <time>2018-09-30T08:12:38.000Z</time>
      </trkpt>
      <trkpt lat="43.2026" lon="-0.68156">
        <ele>301</ele>
        <time>2018-09-30T08:12:40.000Z</time>
      </trkpt>
      <trkpt lat="43.20261" lon="-0.6815">
        <ele>301</ele>
        <time>2018-09-30T08:12:42.000Z</time>
      </trkpt>
      <trkpt lat="43.20271" lon="-0.68137">
        <ele>296</ele>
        <time>2018-09-30T08:12:49.000Z</time>
      </trkpt>
      <trkpt lat="43.20282" lon="-0.68128">
        <ele>293.4099968</ele>
        <time>2018-09-30T08:12:53.000Z</time>
      </trkpt>
      <trkpt lat="43.2029" lon="-0.68115">
        <ele>291</ele>
        <time>2018-09-30T08:12:57.000Z</time>
      </trkpt>
      <trkpt lat="43.20292" lon="-0.68111">
        <ele>291</ele>
        <time>2018-09-30T08:12:58.000Z</time>
      </trkpt>
      <trkpt lat="43.20298" lon="-0.68107">
        <ele>289.59420101658</ele>
        <time>2018-09-30T08:13:00.000Z</time>
      </trkpt>
      <trkpt lat="43.20307" lon="-0.681">
        <ele>288</ele>
        <time>2018-09-30T08:13:03.000Z</time>
      </trkpt>
      <trkpt lat="43.20317" lon="-0.6809">
        <ele>287</ele>
        <time>2018-09-30T08:13:06.000Z</time>
      </trkpt>
      <trkpt lat="43.20321" lon="-0.68087">
        <ele>287</ele>
        <time>2018-09-30T08:13:07.000Z</time>
      </trkpt>
      <trkpt lat="43.20325" lon="-0.68084">
        <ele>287</ele>
        <time>2018-09-30T08:13:08.000Z</time>
      </trkpt>
      <trkpt lat="43.20329" lon="-0.68081">
        <ele>286.4099968</ele>
        <time>2018-09-30T08:13:09.000Z</time>
      </trkpt>
      <trkpt lat="43.20343" lon="-0.68069">
        <ele>285.5857150694</ele>
        <time>2018-09-30T08:13:12.000Z</time>
      </trkpt>
      <trkpt lat="43.20348" lon="-0.68064">
        <ele>285</ele>
        <time>2018-09-30T08:13:13.000Z</time>
      </trkpt>
      <trkpt lat="43.20353" lon="-0.6806">
        <ele>284.4099968</ele>
        <time>2018-09-30T08:13:14.000Z</time>
      </trkpt>
      <trkpt lat="43.20363" lon="-0.68051">
        <ele>284</ele>
        <time>2018-09-30T08:13:16.000Z</time>
      </trkpt>
      <trkpt lat="43.20368" lon="-0.68046">
        <ele>283.4099968</ele>
        <time>2018-09-30T08:13:17.000Z</time>
      </trkpt>
      <trkpt lat="43.20373" lon="-0.68041">
        <ele>282.4099968</ele>
        <time>2018-09-30T08:13:18.000Z</time>
      </trkpt>
      <trkpt lat="43.20378" lon="-0.68036">
        <ele>282</ele>
        <time>2018-09-30T08:13:19.000Z</time>
      </trkpt>
      <trkpt lat="43.20382" lon="-0.68032">
        <ele>282</ele>
        <time>2018-09-30T08:13:20.000Z</time>
      </trkpt>
      <trkpt lat="43.20387" lon="-0.68028">
        <ele>282</ele>
        <time>2018-09-30T08:13:21.000Z</time>
      </trkpt>
      <trkpt lat="43.2039" lon="-0.68025">
        <ele>282</ele>
        <time>2018-09-30T08:13:22.000Z</time>
      </trkpt>
      <trkpt lat="43.20394" lon="-0.68022">
        <ele>281.56164191405</ele>
        <time>2018-09-30T08:13:23.000Z</time>
      </trkpt>
      <trkpt lat="43.20398" lon="-0.68019">
        <ele>281</ele>
        <time>2018-09-30T08:13:24.000Z</time>
      </trkpt>
      <trkpt lat="43.20401" lon="-0.68016">
        <ele>281</ele>
        <time>2018-09-30T08:13:25.000Z</time>
      </trkpt>
      <trkpt lat="43.20404" lon="-0.68013">
        <ele>280.4099968</ele>
        <time>2018-09-30T08:13:26.000Z</time>
      </trkpt>
      <trkpt lat="43.20409" lon="-0.68009">
        <ele>280</ele>
        <time>2018-09-30T08:13:27.000Z</time>
      </trkpt>
      <trkpt lat="43.20413" lon="-0.68006">
        <ele>279.4099968</ele>
        <time>2018-09-30T08:13:28.000Z</time>
      </trkpt>
      <trkpt lat="43.20418" lon="-0.68002">
        <ele>279</ele>
        <time>2018-09-30T08:13:29.000Z</time>
      </trkpt>
      <trkpt lat="43.20423" lon="-0.67999">
        <ele>278.54263658193</ele>
        <time>2018-09-30T08:13:30.000Z</time>
      </trkpt>
      <trkpt lat="43.20427" lon="-0.67995">
        <ele>278</ele>
        <time>2018-09-30T08:13:31.000Z</time>
      </trkpt>
      <trkpt lat="43.20432" lon="-0.67992">
        <ele>278</ele>
        <time>2018-09-30T08:13:32.000Z</time>
      </trkpt>
      <trkpt lat="43.20438" lon="-0.67988">
        <ele>278</ele>
        <time>2018-09-30T08:13:33.000Z</time>
      </trkpt>
      <trkpt lat="43.20444" lon="-0.67984">
        <ele>277.4099968</ele>
        <time>2018-09-30T08:13:34.000Z</time>
      </trkpt>
      <trkpt lat="43.20449" lon="-0.67981">
        <ele>276.4099968</ele>
        <time>2018-09-30T08:13:35.000Z</time>
      </trkpt>
      <trkpt lat="43.20453" lon="-0.67977">
        <ele>275.4099968</ele>
        <time>2018-09-30T08:13:36.000Z</time>
      </trkpt>
      <trkpt lat="43.20457" lon="-0.67975">
        <ele>274.4099968</ele>
        <time>2018-09-30T08:13:37.000Z</time>
      </trkpt>
      <trkpt lat="43.20469" lon="-0.6797">
        <ele>272.5857150694</ele>
        <time>2018-09-30T08:13:40.000Z</time>
      </trkpt>
      <trkpt lat="43.2048" lon="-0.67969">
        <ele>270</ele>
        <time>2018-09-30T08:13:43.000Z</time>
      </trkpt>
      <trkpt lat="43.20485" lon="-0.67969">
        <ele>269.4099968</ele>
        <time>2018-09-30T08:13:45.000Z</time>
      </trkpt>
      <trkpt lat="43.20491" lon="-0.6797">
        <ele>269</ele>
        <time>2018-09-30T08:13:47.000Z</time>
      </trkpt>
      <trkpt lat="43.20494" lon="-0.67972">
        <ele>269.5900032</ele>
        <time>2018-09-30T08:13:49.000Z</time>
      </trkpt>
      <trkpt lat="43.20497" lon="-0.67977">
        <ele>270.5900032</ele>
        <time>2018-09-30T08:13:51.000Z</time>
      </trkpt>
      <trkpt lat="43.205" lon="-0.67983">
        <ele>271</ele>
        <time>2018-09-30T08:13:53.000Z</time>
      </trkpt>
      <trkpt lat="43.20506" lon="-0.67983">
        <ele>271</ele>
        <time>2018-09-30T08:13:55.000Z</time>
      </trkpt>
      <trkpt lat="43.20513" lon="-0.6798">
        <ele>271</ele>
        <time>2018-09-30T08:13:57.000Z</time>
      </trkpt>
      <trkpt lat="43.20517" lon="-0.67979">
        <ele>271</ele>
        <time>2018-09-30T08:13:58.000Z</time>
      </trkpt>
      <trkpt lat="43.20521" lon="-0.67978">
        <ele>271</ele>
        <time>2018-09-30T08:13:59.000Z</time>
      </trkpt>
      <trkpt lat="43.20525" lon="-0.67978">
        <ele>271</ele>
        <time>2018-09-30T08:14:00.000Z</time>
      </trkpt>
      <trkpt lat="43.20529" lon="-0.67976">
        <ele>271</ele>
        <time>2018-09-30T08:14:01.000Z</time>
      </trkpt>
      <trkpt lat="43.20532" lon="-0.67975">
        <ele>271</ele>
        <time>2018-09-30T08:14:02.000Z</time>
      </trkpt>
      <trkpt lat="43.20536" lon="-0.67974">
        <ele>271</ele>
        <time>2018-09-30T08:14:03.000Z</time>
      </trkpt>
      <trkpt lat="43.2054" lon="-0.67974">
        <ele>271</ele>
        <time>2018-09-30T08:14:04.000Z</time>
      </trkpt>
      <trkpt lat="43.20547" lon="-0.67972">
        <ele>271</ele>
        <time>2018-09-30T08:14:06.000Z</time>
      </trkpt>
      <trkpt lat="43.20553" lon="-0.67968">
        <ele>271</ele>
        <time>2018-09-30T08:14:08.000Z</time>
      </trkpt>
      <trkpt lat="43.20556" lon="-0.67966">
        <ele>271</ele>
        <time>2018-09-30T08:14:09.000Z</time>
      </trkpt>
      <trkpt lat="43.20559" lon="-0.67962">
        <ele>271</ele>
        <time>2018-09-30T08:14:10.000Z</time>
      </trkpt>
      <trkpt lat="43.20561" lon="-0.67958">
        <ele>271</ele>
        <time>2018-09-30T08:14:11.000Z</time>
      </trkpt>
      <trkpt lat="43.20563" lon="-0.67954">
        <ele>271</ele>
        <time>2018-09-30T08:14:12.000Z</time>
      </trkpt>
      <trkpt lat="43.20565" lon="-0.67949">
        <ele>270.41413684319</ele>
        <time>2018-09-30T08:14:13.000Z</time>
      </trkpt>
      <trkpt lat="43.20568" lon="-0.67945">
        <ele>270</ele>
        <time>2018-09-30T08:14:14.000Z</time>
      </trkpt>
      <trkpt lat="43.20571" lon="-0.67941">
        <ele>270</ele>
        <time>2018-09-30T08:14:15.000Z</time>
      </trkpt>
      <trkpt lat="43.20575" lon="-0.67939">
        <ele>270</ele>
        <time>2018-09-30T08:14:16.000Z</time>
      </trkpt>
      <trkpt lat="43.20579" lon="-0.67937">
        <ele>270</ele>
        <time>2018-09-30T08:14:17.000Z</time>
      </trkpt>
      <trkpt lat="43.20583" lon="-0.67935">
        <ele>270</ele>
        <time>2018-09-30T08:14:18.000Z</time>
      </trkpt>
      <trkpt lat="43.20587" lon="-0.67931">
        <ele>270</ele>
        <time>2018-09-30T08:14:19.000Z</time>
      </trkpt>
      <trkpt lat="43.20591" lon="-0.67926">
        <ele>270</ele>
        <time>2018-09-30T08:14:20.000Z</time>
      </trkpt>
      <trkpt lat="43.20594" lon="-0.67922">
        <ele>270</ele>
        <time>2018-09-30T08:14:21.000Z</time>
      </trkpt>
      <trkpt lat="43.20597" lon="-0.67917">
        <ele>269.5857150694</ele>
        <time>2018-09-30T08:14:22.000Z</time>
      </trkpt>
      <trkpt lat="43.20599" lon="-0.67912">
        <ele>268.4099968</ele>
        <time>2018-09-30T08:14:23.000Z</time>
      </trkpt>
      <trkpt lat="43.20601" lon="-0.67907">
        <ele>267.4099968</ele>
        <time>2018-09-30T08:14:24.000Z</time>
      </trkpt>
      <trkpt lat="43.20604" lon="-0.67902">
        <ele>267</ele>
        <time>2018-09-30T08:14:25.000Z</time>
      </trkpt>
      <trkpt lat="43.20607" lon="-0.67897">
        <ele>266.4099968</ele>
        <time>2018-09-30T08:14:26.000Z</time>
      </trkpt>
      <trkpt lat="43.2061" lon="-0.67892">
        <ele>265.4099968</ele>
        <time>2018-09-30T08:14:27.000Z</time>
      </trkpt>
      <trkpt lat="43.20613" lon="-0.67888">
        <ele>264.4099968</ele>
        <time>2018-09-30T08:14:28.000Z</time>
      </trkpt>
      <trkpt lat="43.20616" lon="-0.67884">
        <ele>264</ele>
        <time>2018-09-30T08:14:29.000Z</time>
      </trkpt>
      <trkpt lat="43.20619" lon="-0.67878">
        <ele>263.4099968</ele>
        <time>2018-09-30T08:14:30.000Z</time>
      </trkpt>
      <trkpt lat="43.20622" lon="-0.67873">
        <ele>263</ele>
        <time>2018-09-30T08:14:31.000Z</time>
      </trkpt>
      <trkpt lat="43.20625" lon="-0.67867">
        <ele>262.54615361894</ele>
        <time>2018-09-30T08:14:32.000Z</time>
      </trkpt>
      <trkpt lat="43.20628" lon="-0.6786">
        <ele>262</ele>
        <time>2018-09-30T08:14:33.000Z</time>
      </trkpt>
      <trkpt lat="43.20632" lon="-0.67852">
        <ele>261.4099968</ele>
        <time>2018-09-30T08:14:34.000Z</time>
      </trkpt>
      <trkpt lat="43.20636" lon="-0.67845">
        <ele>260.4099968</ele>
        <time>2018-09-30T08:14:35.000Z</time>
      </trkpt>
      <trkpt lat="43.20638" lon="-0.67837">
        <ele>259.4099968</ele>
        <time>2018-09-30T08:14:36.000Z</time>
      </trkpt>
      <trkpt lat="43.20641" lon="-0.67829">
        <ele>259</ele>
        <time>2018-09-30T08:14:37.000Z</time>
      </trkpt>
      <trkpt lat="43.20643" lon="-0.67821">
        <ele>259</ele>
        <time>2018-09-30T08:14:38.000Z</time>
      </trkpt>
      <trkpt lat="43.20645" lon="-0.67813">
        <ele>259</ele>
        <time>2018-09-30T08:14:39.000Z</time>
      </trkpt>
      <trkpt lat="43.20647" lon="-0.67806">
        <ele>259</ele>
        <time>2018-09-30T08:14:40.000Z</time>
      </trkpt>
      <trkpt lat="43.20655" lon="-0.6779">
        <ele>258.5857150694</ele>
        <time>2018-09-30T08:14:43.000Z</time>
      </trkpt>
      <trkpt lat="43.20667" lon="-0.67776">
        <ele>258</ele>
        <time>2018-09-30T08:14:46.000Z</time>
      </trkpt>
      <trkpt lat="43.20677" lon="-0.67765">
        <ele>258</ele>
        <time>2018-09-30T08:14:48.000Z</time>
      </trkpt>
      <trkpt lat="43.20687" lon="-0.67755">
        <ele>258</ele>
        <time>2018-09-30T08:14:50.000Z</time>
      </trkpt>
      <trkpt lat="43.20696" lon="-0.67746">
        <ele>258</ele>
        <time>2018-09-30T08:14:52.000Z</time>
      </trkpt>
      <trkpt lat="43.20708" lon="-0.67733">
        <ele>259</ele>
        <time>2018-09-30T08:14:55.000Z</time>
      </trkpt>
      <trkpt lat="43.20716" lon="-0.67726">
        <ele>260</ele>
        <time>2018-09-30T08:14:57.000Z</time>
      </trkpt>
      <trkpt lat="43.20722" lon="-0.67718">
        <ele>260</ele>
        <time>2018-09-30T08:14:59.000Z</time>
      </trkpt>
      <trkpt lat="43.20729" lon="-0.67708">
        <ele>261</ele>
        <time>2018-09-30T08:15:02.000Z</time>
      </trkpt>
      <trkpt lat="43.20733" lon="-0.67702">
        <ele>262</ele>
        <time>2018-09-30T08:15:04.000Z</time>
      </trkpt>
      <trkpt lat="43.20737" lon="-0.67696">
        <ele>262</ele>
        <time>2018-09-30T08:15:06.000Z</time>
      </trkpt>
      <trkpt lat="43.20741" lon="-0.67691">
        <ele>262</ele>
        <time>2018-09-30T08:15:08.000Z</time>
      </trkpt>
      <trkpt lat="43.20744" lon="-0.67686">
        <ele>262</ele>
        <time>2018-09-30T08:15:10.000Z</time>
      </trkpt>
      <trkpt lat="43.20748" lon="-0.67682">
        <ele>262</ele>
        <time>2018-09-30T08:15:12.000Z</time>
      </trkpt>
      <trkpt lat="43.20751" lon="-0.67678">
        <ele>262</ele>
        <time>2018-09-30T08:15:14.000Z</time>
      </trkpt>
      <trkpt lat="43.20754" lon="-0.67672">
        <ele>263</ele>
        <time>2018-09-30T08:15:16.000Z</time>
      </trkpt>
      <trkpt lat="43.20759" lon="-0.67666">
        <ele>263</ele>
        <time>2018-09-30T08:15:18.000Z</time>
      </trkpt>
      <trkpt lat="43.20763" lon="-0.67658">
        <ele>263</ele>
        <time>2018-09-30T08:15:20.000Z</time>
      </trkpt>
      <trkpt lat="43.20765" lon="-0.67653">
        <ele>263</ele>
        <time>2018-09-30T08:15:21.000Z</time>
      </trkpt>
      <trkpt lat="43.20766" lon="-0.67648">
        <ele>263</ele>
        <time>2018-09-30T08:15:22.000Z</time>
      </trkpt>
      <trkpt lat="43.20767" lon="-0.67642">
        <ele>262.4099968</ele>
        <time>2018-09-30T08:15:23.000Z</time>
      </trkpt>
      <trkpt lat="43.20767" lon="-0.67636">
        <ele>262</ele>
        <time>2018-09-30T08:15:24.000Z</time>
      </trkpt>
      <trkpt lat="43.20767" lon="-0.67629">
        <ele>262</ele>
        <time>2018-09-30T08:15:25.000Z</time>
      </trkpt>
      <trkpt lat="43.20767" lon="-0.67622">
        <ele>262</ele>
        <time>2018-09-30T08:15:26.000Z</time>
      </trkpt>
      <trkpt lat="43.20767" lon="-0.67614">
        <ele>261.4099968</ele>
        <time>2018-09-30T08:15:27.000Z</time>
      </trkpt>
      <trkpt lat="43.20768" lon="-0.67608">
        <ele>260.4099968</ele>
        <time>2018-09-30T08:15:28.000Z</time>
      </trkpt>
      <trkpt lat="43.2077" lon="-0.67603">
        <ele>259.54961697803</ele>
        <time>2018-09-30T08:15:29.000Z</time>
      </trkpt>
      <trkpt lat="43.20772" lon="-0.67599">
        <ele>259</ele>
        <time>2018-09-30T08:15:30.000Z</time>
      </trkpt>
      <trkpt lat="43.20776" lon="-0.67597">
        <ele>259</ele>
        <time>2018-09-30T08:15:31.000Z</time>
      </trkpt>
      <trkpt lat="43.2078" lon="-0.67596">
        <ele>258.4099968</ele>
        <time>2018-09-30T08:15:32.000Z</time>
      </trkpt>
      <trkpt lat="43.20785" lon="-0.67594">
        <ele>258</ele>
        <time>2018-09-30T08:15:33.000Z</time>
      </trkpt>
      <trkpt lat="43.2079" lon="-0.67593">
        <ele>257.4099968</ele>
        <time>2018-09-30T08:15:34.000Z</time>
      </trkpt>
      <trkpt lat="43.20795" lon="-0.67593">
        <ele>257</ele>
        <time>2018-09-30T08:15:35.000Z</time>
      </trkpt>
      <trkpt lat="43.20804" lon="-0.67592">
        <ele>256.56944</ele>
        <time>2018-09-30T08:15:36.000Z</time>
      </trkpt>
      <trkpt lat="43.20813" lon="-0.6759">
        <ele>256</ele>
        <time>2018-09-30T08:15:37.000Z</time>
      </trkpt>
      <trkpt lat="43.20821" lon="-0.67588">
        <ele>255.5857150694</ele>
        <time>2018-09-30T08:15:38.000Z</time>
      </trkpt>
      <trkpt lat="43.20828" lon="-0.67587">
        <ele>254.4099968</ele>
        <time>2018-09-30T08:15:39.000Z</time>
      </trkpt>
      <trkpt lat="43.20835" lon="-0.67587">
        <ele>253.4099968</ele>
        <time>2018-09-30T08:15:40.000Z</time>
      </trkpt>
      <trkpt lat="43.20844" lon="-0.67588">
        <ele>253</ele>
        <time>2018-09-30T08:15:41.000Z</time>
      </trkpt>
      <trkpt lat="43.20852" lon="-0.67591">
        <ele>253</ele>
        <time>2018-09-30T08:15:42.000Z</time>
      </trkpt>
      <trkpt lat="43.20859" lon="-0.67593">
        <ele>252.4099968</ele>
        <time>2018-09-30T08:15:43.000Z</time>
      </trkpt>
      <trkpt lat="43.20865" lon="-0.67594">
        <ele>252</ele>
        <time>2018-09-30T08:15:44.000Z</time>
      </trkpt>
      <trkpt lat="43.20869" lon="-0.67593">
        <ele>251.59420101658</ele>
        <time>2018-09-30T08:15:45.000Z</time>
      </trkpt>
      <trkpt lat="43.20875" lon="-0.67586">
        <ele>251</ele>
        <time>2018-09-30T08:15:47.000Z</time>
      </trkpt>
      <trkpt lat="43.20877" lon="-0.67581">
        <ele>251.5900032</ele>
        <time>2018-09-30T08:15:48.000Z</time>
      </trkpt>
      <trkpt lat="43.20879" lon="-0.67575">
        <ele>251.4099968</ele>
        <time>2018-09-30T08:15:49.000Z</time>
      </trkpt>
      <trkpt lat="43.20882" lon="-0.67567">
        <ele>251</ele>
        <time>2018-09-30T08:15:50.000Z</time>
      </trkpt>
      <trkpt lat="43.20884" lon="-0.6756">
        <ele>251</ele>
        <time>2018-09-30T08:15:51.000Z</time>
      </trkpt>
      <trkpt lat="43.20887" lon="-0.67553">
        <ele>250.4099968</ele>
        <time>2018-09-30T08:15:52.000Z</time>
      </trkpt>
      <trkpt lat="43.2089" lon="-0.67544">
        <ele>250</ele>
        <time>2018-09-30T08:15:53.000Z</time>
      </trkpt>
      <trkpt lat="43.20893" lon="-0.67536">
        <ele>250</ele>
        <time>2018-09-30T08:15:54.000Z</time>
      </trkpt>
      <trkpt lat="43.20897" lon="-0.67529">
        <ele>250</ele>
        <time>2018-09-30T08:15:55.000Z</time>
      </trkpt>
      <trkpt lat="43.20907" lon="-0.67513">
        <ele>248.4099968</ele>
        <time>2018-09-30T08:15:57.000Z</time>
      </trkpt>
      <trkpt lat="43.20914" lon="-0.67496">
        <ele>247.41836681382</ele>
        <time>2018-09-30T08:15:59.000Z</time>
      </trkpt>
      <trkpt lat="43.20917" lon="-0.67478">
        <ele>247</ele>
        <time>2018-09-30T08:16:01.000Z</time>
      </trkpt>
      <trkpt lat="43.20919" lon="-0.6747">
        <ele>247</ele>
        <time>2018-09-30T08:16:02.000Z</time>
      </trkpt>
      <trkpt lat="43.2092" lon="-0.67462">
        <ele>247</ele>
        <time>2018-09-30T08:16:03.000Z</time>
      </trkpt>
      <trkpt lat="43.20921" lon="-0.67455">
        <ele>247</ele>
        <time>2018-09-30T08:16:04.000Z</time>
      </trkpt>
      <trkpt lat="43.20923" lon="-0.67447">
        <ele>247</ele>
        <time>2018-09-30T08:16:05.000Z</time>
      </trkpt>
      <trkpt lat="43.20924" lon="-0.6744">
        <ele>247</ele>
        <time>2018-09-30T08:16:06.000Z</time>
      </trkpt>
      <trkpt lat="43.20925" lon="-0.67433">
        <ele>247</ele>
        <time>2018-09-30T08:16:07.000Z</time>
      </trkpt>
      <trkpt lat="43.20927" lon="-0.67419">
        <ele>247.5773214922</ele>
        <time>2018-09-30T08:16:09.000Z</time>
      </trkpt>
      <trkpt lat="43.20927" lon="-0.67413">
        <ele>248</ele>
        <time>2018-09-30T08:16:10.000Z</time>
      </trkpt>
      <trkpt lat="43.20927" lon="-0.67407">
        <ele>248.43056</ele>
        <time>2018-09-30T08:16:11.000Z</time>
      </trkpt>
      <trkpt lat="43.20928" lon="-0.67401">
        <ele>249</ele>
        <time>2018-09-30T08:16:12.000Z</time>
      </trkpt>
      <trkpt lat="43.2093" lon="-0.67396">
        <ele>249</ele>
        <time>2018-09-30T08:16:13.000Z</time>
      </trkpt>
      <trkpt lat="43.2093" lon="-0.6739">
        <ele>249</ele>
        <time>2018-09-30T08:16:14.000Z</time>
      </trkpt>
      <trkpt lat="43.20931" lon="-0.67384">
        <ele>249.5900032</ele>
        <time>2018-09-30T08:16:15.000Z</time>
      </trkpt>
      <trkpt lat="43.20932" lon="-0.67378">
        <ele>250</ele>
        <time>2018-09-30T08:16:16.000Z</time>
      </trkpt>
      <trkpt lat="43.20932" lon="-0.67372">
        <ele>250</ele>
        <time>2018-09-30T08:16:17.000Z</time>
      </trkpt>
      <trkpt lat="43.20933" lon="-0.67366">
        <ele>250</ele>
        <time>2018-09-30T08:16:18.000Z</time>
      </trkpt>
      <trkpt lat="43.20933" lon="-0.67361">
        <ele>250</ele>
        <time>2018-09-30T08:16:19.000Z</time>
      </trkpt>
      <trkpt lat="43.20934" lon="-0.67349">
        <ele>250</ele>
        <time>2018-09-30T08:16:21.000Z</time>
      </trkpt>
      <trkpt lat="43.20934" lon="-0.67343">
        <ele>250</ele>
        <time>2018-09-30T08:16:22.000Z</time>
      </trkpt>
      <trkpt lat="43.20934" lon="-0.67338">
        <ele>250</ele>
        <time>2018-09-30T08:16:23.000Z</time>
      </trkpt>
      <trkpt lat="43.20935" lon="-0.67332">
        <ele>250</ele>
        <time>2018-09-30T08:16:24.000Z</time>
      </trkpt>
      <trkpt lat="43.20935" lon="-0.67327">
        <ele>250</ele>
        <time>2018-09-30T08:16:25.000Z</time>
      </trkpt>
      <trkpt lat="43.20935" lon="-0.67318">
        <ele>251</ele>
        <time>2018-09-30T08:16:27.000Z</time>
      </trkpt>
      <trkpt lat="43.20935" lon="-0.67309">
        <ele>252</ele>
        <time>2018-09-30T08:16:29.000Z</time>
      </trkpt>
      <trkpt lat="43.20936" lon="-0.67301">
        <ele>252</ele>
        <time>2018-09-30T08:16:31.000Z</time>
      </trkpt>
      <trkpt lat="43.20938" lon="-0.67293">
        <ele>253</ele>
        <time>2018-09-30T08:16:33.000Z</time>
      </trkpt>
      <trkpt lat="43.20941" lon="-0.67286">
        <ele>254</ele>
        <time>2018-09-30T08:16:35.000Z</time>
      </trkpt>
      <trkpt lat="43.20944" lon="-0.67278">
        <ele>254</ele>
        <time>2018-09-30T08:16:37.000Z</time>
      </trkpt>
      <trkpt lat="43.20948" lon="-0.67272">
        <ele>254.43056</ele>
        <time>2018-09-30T08:16:39.000Z</time>
      </trkpt>
      <trkpt lat="43.2095" lon="-0.67267">
        <ele>255</ele>
        <time>2018-09-30T08:16:41.000Z</time>
      </trkpt>
      <trkpt lat="43.20952" lon="-0.67261">
        <ele>255</ele>
        <time>2018-09-30T08:16:43.000Z</time>
      </trkpt>
      <trkpt lat="43.20954" lon="-0.67255">
        <ele>255</ele>
        <time>2018-09-30T08:16:45.000Z</time>
      </trkpt>
      <trkpt lat="43.20957" lon="-0.67249">
        <ele>255</ele>
        <time>2018-09-30T08:16:47.000Z</time>
      </trkpt>
      <trkpt lat="43.20959" lon="-0.67241">
        <ele>255</ele>
        <time>2018-09-30T08:16:49.000Z</time>
      </trkpt>
      <trkpt lat="43.2096" lon="-0.67232">
        <ele>255</ele>
        <time>2018-09-30T08:16:51.000Z</time>
      </trkpt>
      <trkpt lat="43.20961" lon="-0.67227">
        <ele>255</ele>
        <time>2018-09-30T08:16:52.000Z</time>
      </trkpt>
      <trkpt lat="43.20964" lon="-0.67218">
        <ele>256</ele>
        <time>2018-09-30T08:16:54.000Z</time>
      </trkpt>
      <trkpt lat="43.20965" lon="-0.6721">
        <ele>256</ele>
        <time>2018-09-30T08:16:56.000Z</time>
      </trkpt>
      <trkpt lat="43.20967" lon="-0.67201">
        <ele>256</ele>
        <time>2018-09-30T08:16:58.000Z</time>
      </trkpt>
      <trkpt lat="43.2097" lon="-0.67192">
        <ele>256.5900032</ele>
        <time>2018-09-30T08:17:00.000Z</time>
      </trkpt>
      <trkpt lat="43.20972" lon="-0.67183">
        <ele>257</ele>
        <time>2018-09-30T08:17:02.000Z</time>
      </trkpt>
      <trkpt lat="43.20973" lon="-0.67178">
        <ele>257</ele>
        <time>2018-09-30T08:17:03.000Z</time>
      </trkpt>
      <trkpt lat="43.20974" lon="-0.67168">
        <ele>257</ele>
        <time>2018-09-30T08:17:05.000Z</time>
      </trkpt>
      <trkpt lat="43.20974" lon="-0.67163">
        <ele>257</ele>
        <time>2018-09-30T08:17:06.000Z</time>
      </trkpt>
      <trkpt lat="43.20975" lon="-0.67158">
        <ele>257</ele>
        <time>2018-09-30T08:17:07.000Z</time>
      </trkpt>
      <trkpt lat="43.20975" lon="-0.67153">
        <ele>257</ele>
        <time>2018-09-30T08:17:08.000Z</time>
      </trkpt>
      <trkpt lat="43.20975" lon="-0.67147">
        <ele>257</ele>
        <time>2018-09-30T08:17:09.000Z</time>
      </trkpt>
      <trkpt lat="43.20975" lon="-0.67142">
        <ele>257</ele>
        <time>2018-09-30T08:17:10.000Z</time>
      </trkpt>
      <trkpt lat="43.20974" lon="-0.67133">
        <ele>257</ele>
        <time>2018-09-30T08:17:12.000Z</time>
      </trkpt>
      <trkpt lat="43.20973" lon="-0.67124">
        <ele>257.5900032</ele>
        <time>2018-09-30T08:17:14.000Z</time>
      </trkpt>
      <trkpt lat="43.20971" lon="-0.67115">
        <ele>258</ele>
        <time>2018-09-30T08:17:16.000Z</time>
      </trkpt>
      <trkpt lat="43.20968" lon="-0.67106">
        <ele>258.5900032</ele>
        <time>2018-09-30T08:17:18.000Z</time>
      </trkpt>
      <trkpt lat="43.20966" lon="-0.67098">
        <ele>259</ele>
        <time>2018-09-30T08:17:20.000Z</time>
      </trkpt>
      <trkpt lat="43.20963" lon="-0.6709">
        <ele>259.58585780226</ele>
        <time>2018-09-30T08:17:22.000Z</time>
      </trkpt>
      <trkpt lat="43.20961" lon="-0.67083">
        <ele>260</ele>
        <time>2018-09-30T08:17:24.000Z</time>
      </trkpt>
      <trkpt lat="43.20961" lon="-0.67076">
        <ele>260</ele>
        <time>2018-09-30T08:17:26.000Z</time>
      </trkpt>
      <trkpt lat="43.20965" lon="-0.67073">
        <ele>261</ele>
        <time>2018-09-30T08:17:29.000Z</time>
      </trkpt>
      <trkpt lat="43.20967" lon="-0.67077">
        <ele>261.5900032</ele>
        <time>2018-09-30T08:17:31.000Z</time>
      </trkpt>
      <trkpt lat="43.2097" lon="-0.67081">
        <ele>262</ele>
        <time>2018-09-30T08:17:33.000Z</time>
      </trkpt>
      <trkpt lat="43.20973" lon="-0.67086">
        <ele>262</ele>
        <time>2018-09-30T08:17:35.000Z</time>
      </trkpt>
      <trkpt lat="43.20976" lon="-0.67091">
        <ele>262</ele>
        <time>2018-09-30T08:17:37.000Z</time>
      </trkpt>
      <trkpt lat="43.20978" lon="-0.67095">
        <ele>262</ele>
        <time>2018-09-30T08:17:39.000Z</time>
      </trkpt>
      <trkpt lat="43.2098" lon="-0.67101">
        <ele>262</ele>
        <time>2018-09-30T08:17:41.000Z</time>
      </trkpt>
      <trkpt lat="43.20982" lon="-0.67107">
        <ele>262</ele>
        <time>2018-09-30T08:17:43.000Z</time>
      </trkpt>
      <trkpt lat="43.20985" lon="-0.67113">
        <ele>262</ele>
        <time>2018-09-30T08:17:45.000Z</time>
      </trkpt>
      <trkpt lat="43.20988" lon="-0.67119">
        <ele>262</ele>
        <time>2018-09-30T08:17:47.000Z</time>
      </trkpt>
      <trkpt lat="43.20991" lon="-0.67125">
        <ele>262</ele>
        <time>2018-09-30T08:17:49.000Z</time>
      </trkpt>
      <trkpt lat="43.20994" lon="-0.67133">
        <ele>263</ele>
        <time>2018-09-30T08:17:51.000Z</time>
      </trkpt>
      <trkpt lat="43.20997" lon="-0.6714">
        <ele>263</ele>
        <time>2018-09-30T08:17:53.000Z</time>
      </trkpt>
      <trkpt lat="43.21" lon="-0.67146">
        <ele>263</ele>
        <time>2018-09-30T08:17:55.000Z</time>
      </trkpt>
      <trkpt lat="43.21003" lon="-0.67151">
        <ele>263</ele>
        <time>2018-09-30T08:17:57.000Z</time>
      </trkpt>
      <trkpt lat="43.21006" lon="-0.67156">
        <ele>264</ele>
        <time>2018-09-30T08:17:59.000Z</time>
      </trkpt>
      <trkpt lat="43.21008" lon="-0.67161">
        <ele>264</ele>
        <time>2018-09-30T08:18:01.000Z</time>
      </trkpt>
      <trkpt lat="43.21011" lon="-0.67166">
        <ele>264.5900032</ele>
        <time>2018-09-30T08:18:03.000Z</time>
      </trkpt>
      <trkpt lat="43.21013" lon="-0.6717">
        <ele>265</ele>
        <time>2018-09-30T08:18:05.000Z</time>
      </trkpt>
      <trkpt lat="43.21014" lon="-0.67176">
        <ele>266</ele>
        <time>2018-09-30T08:18:07.000Z</time>
      </trkpt>
      <trkpt lat="43.21016" lon="-0.67181">
        <ele>266.5900032</ele>
        <time>2018-09-30T08:18:09.000Z</time>
      </trkpt>
      <trkpt lat="43.21016" lon="-0.67186">
        <ele>267</ele>
        <time>2018-09-30T08:18:11.000Z</time>
      </trkpt>
      <trkpt lat="43.21016" lon="-0.67192">
        <ele>267</ele>
        <time>2018-09-30T08:18:13.000Z</time>
      </trkpt>
      <trkpt lat="43.21017" lon="-0.67198">
        <ele>268</ele>
        <time>2018-09-30T08:18:15.000Z</time>
      </trkpt>
      <trkpt lat="43.21018" lon="-0.67203">
        <ele>268</ele>
        <time>2018-09-30T08:18:17.000Z</time>
      </trkpt>
      <trkpt lat="43.2102" lon="-0.67209">
        <ele>268</ele>
        <time>2018-09-30T08:18:19.000Z</time>
      </trkpt>
      <trkpt lat="43.21021" lon="-0.67215">
        <ele>268.5900032</ele>
        <time>2018-09-30T08:18:21.000Z</time>
      </trkpt>
      <trkpt lat="43.21022" lon="-0.67221">
        <ele>269</ele>
        <time>2018-09-30T08:18:23.000Z</time>
      </trkpt>
      <trkpt lat="43.21024" lon="-0.67227">
        <ele>269</ele>
        <time>2018-09-30T08:18:25.000Z</time>
      </trkpt>
      <trkpt lat="43.21026" lon="-0.67232">
        <ele>269</ele>
        <time>2018-09-30T08:18:27.000Z</time>
      </trkpt>
      <trkpt lat="43.21029" lon="-0.67237">
        <ele>269</ele>
        <time>2018-09-30T08:18:29.000Z</time>
      </trkpt>
      <trkpt lat="43.21031" lon="-0.67243">
        <ele>269</ele>
        <time>2018-09-30T08:18:31.000Z</time>
      </trkpt>
      <trkpt lat="43.21033" lon="-0.67248">
        <ele>269</ele>
        <time>2018-09-30T08:18:33.000Z</time>
      </trkpt>
      <trkpt lat="43.21035" lon="-0.67253">
        <ele>269</ele>
        <time>2018-09-30T08:18:35.000Z</time>
      </trkpt>
      <trkpt lat="43.21037" lon="-0.67259">
        <ele>269.5900032</ele>
        <time>2018-09-30T08:18:37.000Z</time>
      </trkpt>
      <trkpt lat="43.21039" lon="-0.67266">
        <ele>270</ele>
        <time>2018-09-30T08:18:39.000Z</time>
      </trkpt>
      <trkpt lat="43.21041" lon="-0.67273">
        <ele>270</ele>
        <time>2018-09-30T08:18:41.000Z</time>
      </trkpt>
      <trkpt lat="43.21044" lon="-0.6728">
        <ele>270</ele>
        <time>2018-09-30T08:18:43.000Z</time>
      </trkpt>
      <trkpt lat="43.21046" lon="-0.67288">
        <ele>270</ele>
        <time>2018-09-30T08:18:45.000Z</time>
      </trkpt>
      <trkpt lat="43.21048" lon="-0.67295">
        <ele>271</ele>
        <time>2018-09-30T08:18:47.000Z</time>
      </trkpt>
      <trkpt lat="43.21048" lon="-0.673">
        <ele>271</ele>
        <time>2018-09-30T08:18:48.000Z</time>
      </trkpt>
      <trkpt lat="43.2105" lon="-0.67306">
        <ele>271</ele>
        <time>2018-09-30T08:18:49.000Z</time>
      </trkpt>
      <trkpt lat="43.21051" lon="-0.67311">
        <ele>271</ele>
        <time>2018-09-30T08:18:50.000Z</time>
      </trkpt>
      <trkpt lat="43.21051" lon="-0.67316">
        <ele>271</ele>
        <time>2018-09-30T08:18:51.000Z</time>
      </trkpt>
      <trkpt lat="43.21051" lon="-0.67321">
        <ele>270.4099968</ele>
        <time>2018-09-30T08:18:52.000Z</time>
      </trkpt>
      <trkpt lat="43.21052" lon="-0.67327">
        <ele>270</ele>
        <time>2018-09-30T08:18:53.000Z</time>
      </trkpt>
      <trkpt lat="43.21052" lon="-0.67332">
        <ele>270</ele>
        <time>2018-09-30T08:18:54.000Z</time>
      </trkpt>
      <trkpt lat="43.21053" lon="-0.67344">
        <ele>270</ele>
        <time>2018-09-30T08:18:56.000Z</time>
      </trkpt>
      <trkpt lat="43.21054" lon="-0.67349">
        <ele>270</ele>
        <time>2018-09-30T08:18:57.000Z</time>
      </trkpt>
      <trkpt lat="43.21055" lon="-0.67354">
        <ele>270</ele>
        <time>2018-09-30T08:18:58.000Z</time>
      </trkpt>
      <trkpt lat="43.21056" lon="-0.6736">
        <ele>270</ele>
        <time>2018-09-30T08:18:59.000Z</time>
      </trkpt>
      <trkpt lat="43.21057" lon="-0.67366">
        <ele>270</ele>
        <time>2018-09-30T08:19:00.000Z</time>
      </trkpt>
      <trkpt lat="43.21058" lon="-0.67371">
        <ele>270</ele>
        <time>2018-09-30T08:19:01.000Z</time>
      </trkpt>
      <trkpt lat="43.2106" lon="-0.67375">
        <ele>270</ele>
        <time>2018-09-30T08:19:02.000Z</time>
      </trkpt>
      <trkpt lat="43.21062" lon="-0.6738">
        <ele>270</ele>
        <time>2018-09-30T08:19:03.000Z</time>
      </trkpt>
      <trkpt lat="43.21064" lon="-0.67385">
        <ele>270</ele>
        <time>2018-09-30T08:19:04.000Z</time>
      </trkpt>
      <trkpt lat="43.21067" lon="-0.67389">
        <ele>270</ele>
        <time>2018-09-30T08:19:05.000Z</time>
      </trkpt>
      <trkpt lat="43.2107" lon="-0.67393">
        <ele>270</ele>
        <time>2018-09-30T08:19:06.000Z</time>
      </trkpt>
      <trkpt lat="43.21073" lon="-0.67396">
        <ele>270.5900032</ele>
        <time>2018-09-30T08:19:07.000Z</time>
      </trkpt>
      <trkpt lat="43.21076" lon="-0.67399">
        <ele>271</ele>
        <time>2018-09-30T08:19:08.000Z</time>
      </trkpt>
      <trkpt lat="43.21078" lon="-0.67402">
        <ele>271</ele>
        <time>2018-09-30T08:19:09.000Z</time>
      </trkpt>
      <trkpt lat="43.21081" lon="-0.67405">
        <ele>271</ele>
        <time>2018-09-30T08:19:10.000Z</time>
      </trkpt>
      <trkpt lat="43.21084" lon="-0.67409">
        <ele>271</ele>
        <time>2018-09-30T08:19:11.000Z</time>
      </trkpt>
      <trkpt lat="43.21088" lon="-0.67417">
        <ele>271</ele>
        <time>2018-09-30T08:19:13.000Z</time>
      </trkpt>
      <trkpt lat="43.21093" lon="-0.67424">
        <ele>272</ele>
        <time>2018-09-30T08:19:15.000Z</time>
      </trkpt>
      <trkpt lat="43.21097" lon="-0.67431">
        <ele>272</ele>
        <time>2018-09-30T08:19:17.000Z</time>
      </trkpt>
      <trkpt lat="43.21101" lon="-0.67436">
        <ele>272</ele>
        <time>2018-09-30T08:19:19.000Z</time>
      </trkpt>
      <trkpt lat="43.21107" lon="-0.67439">
        <ele>272.5900032</ele>
        <time>2018-09-30T08:19:21.000Z</time>
      </trkpt>
      <trkpt lat="43.21112" lon="-0.67438">
        <ele>273</ele>
        <time>2018-09-30T08:19:23.000Z</time>
      </trkpt>
      <trkpt lat="43.21117" lon="-0.67435">
        <ele>273</ele>
        <time>2018-09-30T08:19:26.000Z</time>
      </trkpt>
      <trkpt lat="43.21122" lon="-0.67435">
        <ele>273</ele>
        <time>2018-09-30T08:19:28.000Z</time>
      </trkpt>
      <trkpt lat="43.21129" lon="-0.67439">
        <ele>272</ele>
        <time>2018-09-30T08:19:30.000Z</time>
      </trkpt>
      <trkpt lat="43.21135" lon="-0.67442">
        <ele>272</ele>
        <time>2018-09-30T08:19:31.000Z</time>
      </trkpt>
      <trkpt lat="43.21141" lon="-0.67446">
        <ele>271.41583656503</ele>
        <time>2018-09-30T08:19:32.000Z</time>
      </trkpt>
      <trkpt lat="43.21146" lon="-0.67451">
        <ele>271</ele>
        <time>2018-09-30T08:19:33.000Z</time>
      </trkpt>
      <trkpt lat="43.21151" lon="-0.67458">
        <ele>271</ele>
        <time>2018-09-30T08:19:34.000Z</time>
      </trkpt>
      <trkpt lat="43.21155" lon="-0.67464">
        <ele>270.4099968</ele>
        <time>2018-09-30T08:19:35.000Z</time>
      </trkpt>
      <trkpt lat="43.21159" lon="-0.67471">
        <ele>270</ele>
        <time>2018-09-30T08:19:36.000Z</time>
      </trkpt>
      <trkpt lat="43.21162" lon="-0.67478">
        <ele>270</ele>
        <time>2018-09-30T08:19:37.000Z</time>
      </trkpt>
      <trkpt lat="43.21166" lon="-0.67485">
        <ele>270</ele>
        <time>2018-09-30T08:19:38.000Z</time>
      </trkpt>
      <trkpt lat="43.21169" lon="-0.67492">
        <ele>269.5857150694</ele>
        <time>2018-09-30T08:19:39.000Z</time>
      </trkpt>
      <trkpt lat="43.21173" lon="-0.675">
        <ele>269</ele>
        <time>2018-09-30T08:19:40.000Z</time>
      </trkpt>
      <trkpt lat="43.21177" lon="-0.67508">
        <ele>269</ele>
        <time>2018-09-30T08:19:41.000Z</time>
      </trkpt>
      <trkpt lat="43.21181" lon="-0.67516">
        <ele>269</ele>
        <time>2018-09-30T08:19:42.000Z</time>
      </trkpt>
      <trkpt lat="43.21184" lon="-0.67524">
        <ele>268.56944</ele>
        <time>2018-09-30T08:19:43.000Z</time>
      </trkpt>
      <trkpt lat="43.21189" lon="-0.67533">
        <ele>268</ele>
        <time>2018-09-30T08:19:44.000Z</time>
      </trkpt>
      <trkpt lat="43.21193" lon="-0.67542">
        <ele>267.55302787879</ele>
        <time>2018-09-30T08:19:45.000Z</time>
      </trkpt>
      <trkpt lat="43.21197" lon="-0.67551">
        <ele>266.60293647059</ele>
        <time>2018-09-30T08:19:46.000Z</time>
      </trkpt>
      <trkpt lat="43.21201" lon="-0.67561">
        <ele>266</ele>
        <time>2018-09-30T08:19:47.000Z</time>
      </trkpt>
      <trkpt lat="43.21205" lon="-0.67571">
        <ele>265.4099968</ele>
        <time>2018-09-30T08:19:48.000Z</time>
      </trkpt>
      <trkpt lat="43.21208" lon="-0.67582">
        <ele>264.4099968</ele>
        <time>2018-09-30T08:19:49.000Z</time>
      </trkpt>
      <trkpt lat="43.21215" lon="-0.67602">
        <ele>263.4099968</ele>
        <time>2018-09-30T08:19:51.000Z</time>
      </trkpt>
      <trkpt lat="43.21225" lon="-0.67621">
        <ele>263</ele>
        <time>2018-09-30T08:19:53.000Z</time>
      </trkpt>
      <trkpt lat="43.21229" lon="-0.67629">
        <ele>263</ele>
        <time>2018-09-30T08:19:54.000Z</time>
      </trkpt>
      <trkpt lat="43.21237" lon="-0.67645">
        <ele>262</ele>
        <time>2018-09-30T08:19:56.000Z</time>
      </trkpt>
      <trkpt lat="43.21247" lon="-0.67658">
        <ele>260</ele>
        <time>2018-09-30T08:19:59.000Z</time>
      </trkpt>
      <trkpt lat="43.21258" lon="-0.67656">
        <ele>260</ele>
        <time>2018-09-30T08:20:01.000Z</time>
      </trkpt>
      <trkpt lat="43.2127" lon="-0.67656">
        <ele>260</ele>
        <time>2018-09-30T08:20:03.000Z</time>
      </trkpt>
      <trkpt lat="43.21283" lon="-0.67661">
        <ele>260</ele>
        <time>2018-09-30T08:20:06.000Z</time>
      </trkpt>
      <trkpt lat="43.21293" lon="-0.67668">
        <ele>260</ele>
        <time>2018-09-30T08:20:08.000Z</time>
      </trkpt>
      <trkpt lat="43.21302" lon="-0.67678">
        <ele>260</ele>
        <time>2018-09-30T08:20:10.000Z</time>
      </trkpt>
      <trkpt lat="43.21311" lon="-0.67689">
        <ele>260</ele>
        <time>2018-09-30T08:20:12.000Z</time>
      </trkpt>
      <trkpt lat="43.21316" lon="-0.67699">
        <ele>260</ele>
        <time>2018-09-30T08:20:14.000Z</time>
      </trkpt>
      <trkpt lat="43.21327" lon="-0.67708">
        <ele>260</ele>
        <time>2018-09-30T08:20:19.000Z</time>
      </trkpt>
      <trkpt lat="43.21335" lon="-0.67709">
        <ele>259.01242626131</ele>
        <time>2018-09-30T08:20:21.000Z</time>
      </trkpt>
      <trkpt lat="43.2134" lon="-0.67709">
        <ele>259</ele>
        <time>2018-09-30T08:20:22.000Z</time>
      </trkpt>
      <trkpt lat="43.21352" lon="-0.6771">
        <ele>259</ele>
        <time>2018-09-30T08:20:24.000Z</time>
      </trkpt>
      <trkpt lat="43.21365" lon="-0.67715">
        <ele>259</ele>
        <time>2018-09-30T08:20:26.000Z</time>
      </trkpt>
      <trkpt lat="43.21379" lon="-0.67723">
        <ele>258</ele>
        <time>2018-09-30T08:20:28.000Z</time>
      </trkpt>
      <trkpt lat="43.21389" lon="-0.67732">
        <ele>256.59420101658</ele>
        <time>2018-09-30T08:20:30.000Z</time>
      </trkpt>
      <trkpt lat="43.21401" lon="-0.6774">
        <ele>254.4099968</ele>
        <time>2018-09-30T08:20:32.000Z</time>
      </trkpt>
      <trkpt lat="43.21413" lon="-0.67742">
        <ele>253</ele>
        <time>2018-09-30T08:20:34.000Z</time>
      </trkpt>
      <trkpt lat="43.2142" lon="-0.67741">
        <ele>252.4099968</ele>
        <time>2018-09-30T08:20:35.000Z</time>
      </trkpt>
      <trkpt lat="43.21432" lon="-0.67733">
        <ele>250.59420101658</ele>
        <time>2018-09-30T08:20:37.000Z</time>
      </trkpt>
      <trkpt lat="43.21443" lon="-0.67719">
        <ele>249.54263204374</ele>
        <time>2018-09-30T08:20:39.000Z</time>
      </trkpt>
      <trkpt lat="43.21456" lon="-0.67706">
        <ele>248</ele>
        <time>2018-09-30T08:20:41.000Z</time>
      </trkpt>
      <trkpt lat="43.21463" lon="-0.67702">
        <ele>247.54961697804</ele>
        <time>2018-09-30T08:20:42.000Z</time>
      </trkpt>
      <trkpt lat="43.21471" lon="-0.67699">
        <ele>247</ele>
        <time>2018-09-30T08:20:43.000Z</time>
      </trkpt>
      <trkpt lat="43.21478" lon="-0.67696">
        <ele>247</ele>
        <time>2018-09-30T08:20:44.000Z</time>
      </trkpt>
      <trkpt lat="43.21485" lon="-0.67693">
        <ele>247</ele>
        <time>2018-09-30T08:20:45.000Z</time>
      </trkpt>
      <trkpt lat="43.21492" lon="-0.67689">
        <ele>247</ele>
        <time>2018-09-30T08:20:46.000Z</time>
      </trkpt>
      <trkpt lat="43.21499" lon="-0.67687">
        <ele>246.4099968</ele>
        <time>2018-09-30T08:20:47.000Z</time>
      </trkpt>
      <trkpt lat="43.21505" lon="-0.67686">
        <ele>245.4099968</ele>
        <time>2018-09-30T08:20:48.000Z</time>
      </trkpt>
      <trkpt lat="43.21511" lon="-0.67687">
        <ele>244.42718313885</ele>
        <time>2018-09-30T08:20:49.000Z</time>
      </trkpt>
      <trkpt lat="43.21516" lon="-0.6769">
        <ele>244</ele>
        <time>2018-09-30T08:20:50.000Z</time>
      </trkpt>
      <trkpt lat="43.21521" lon="-0.67693">
        <ele>244</ele>
        <time>2018-09-30T08:20:51.000Z</time>
      </trkpt>
      <trkpt lat="43.21526" lon="-0.67695">
        <ele>244</ele>
        <time>2018-09-30T08:20:52.000Z</time>
      </trkpt>
      <trkpt lat="43.2153" lon="-0.67697">
        <ele>243.4226785078</ele>
        <time>2018-09-30T08:20:53.000Z</time>
      </trkpt>
      <trkpt lat="43.21534" lon="-0.67699">
        <ele>243</ele>
        <time>2018-09-30T08:20:54.000Z</time>
      </trkpt>
      <trkpt lat="43.21539" lon="-0.67702">
        <ele>243</ele>
        <time>2018-09-30T08:20:55.000Z</time>
      </trkpt>
      <trkpt lat="43.21543" lon="-0.67705">
        <ele>243</ele>
        <time>2018-09-30T08:20:56.000Z</time>
      </trkpt>
      <trkpt lat="43.21547" lon="-0.67707">
        <ele>243</ele>
        <time>2018-09-30T08:20:57.000Z</time>
      </trkpt>
      <trkpt lat="43.21551" lon="-0.67709">
        <ele>243</ele>
        <time>2018-09-30T08:20:58.000Z</time>
      </trkpt>
      <trkpt lat="43.21556" lon="-0.67711">
        <ele>242.56944</ele>
        <time>2018-09-30T08:20:59.000Z</time>
      </trkpt>
      <trkpt lat="43.21561" lon="-0.67712">
        <ele>242</ele>
        <time>2018-09-30T08:21:00.000Z</time>
      </trkpt>
      <trkpt lat="43.21565" lon="-0.67712">
        <ele>241.5857150694</ele>
        <time>2018-09-30T08:21:01.000Z</time>
      </trkpt>
      <trkpt lat="43.21569" lon="-0.67713">
        <ele>241</ele>
        <time>2018-09-30T08:21:02.000Z</time>
      </trkpt>
      <trkpt lat="43.21574" lon="-0.67713">
        <ele>240.4099968</ele>
        <time>2018-09-30T08:21:03.000Z</time>
      </trkpt>
      <trkpt lat="43.21579" lon="-0.67714">
        <ele>240</ele>
        <time>2018-09-30T08:21:04.000Z</time>
      </trkpt>
      <trkpt lat="43.21583" lon="-0.67715">
        <ele>240</ele>
        <time>2018-09-30T08:21:05.000Z</time>
      </trkpt>
      <trkpt lat="43.21588" lon="-0.67716">
        <ele>240</ele>
        <time>2018-09-30T08:21:06.000Z</time>
      </trkpt>
      <trkpt lat="43.21593" lon="-0.67717">
        <ele>239.41584396822</ele>
        <time>2018-09-30T08:21:07.000Z</time>
      </trkpt>
      <trkpt lat="43.21597" lon="-0.67718">
        <ele>238.41414219774</ele>
        <time>2018-09-30T08:21:08.000Z</time>
      </trkpt>
      <trkpt lat="43.21602" lon="-0.6772">
        <ele>238</ele>
        <time>2018-09-30T08:21:09.000Z</time>
      </trkpt>
      <trkpt lat="43.21607" lon="-0.6772">
        <ele>238</ele>
        <time>2018-09-30T08:21:10.000Z</time>
      </trkpt>
      <trkpt lat="43.21612" lon="-0.67721">
        <ele>237.54961697804</ele>
        <time>2018-09-30T08:21:11.000Z</time>
      </trkpt>
      <trkpt lat="43.21618" lon="-0.67723">
        <ele>237</ele>
        <time>2018-09-30T08:21:12.000Z</time>
      </trkpt>
      <trkpt lat="43.21624" lon="-0.67725">
        <ele>237</ele>
        <time>2018-09-30T08:21:13.000Z</time>
      </trkpt>
      <trkpt lat="43.2163" lon="-0.67727">
        <ele>237</ele>
        <time>2018-09-30T08:21:14.000Z</time>
      </trkpt>
      <trkpt lat="43.21636" lon="-0.67729">
        <ele>236.4099968</ele>
        <time>2018-09-30T08:21:15.000Z</time>
      </trkpt>
      <trkpt lat="43.21643" lon="-0.67729">
        <ele>236</ele>
        <time>2018-09-30T08:21:16.000Z</time>
      </trkpt>
      <trkpt lat="43.2165" lon="-0.67727">
        <ele>236</ele>
        <time>2018-09-30T08:21:17.000Z</time>
      </trkpt>
      <trkpt lat="43.21656" lon="-0.67724">
        <ele>235.56944</ele>
        <time>2018-09-30T08:21:18.000Z</time>
      </trkpt>
      <trkpt lat="43.21661" lon="-0.67719">
        <ele>235</ele>
        <time>2018-09-30T08:21:19.000Z</time>
      </trkpt>
      <trkpt lat="43.21666" lon="-0.67713">
        <ele>235</ele>
        <time>2018-09-30T08:21:20.000Z</time>
      </trkpt>
      <trkpt lat="43.2167" lon="-0.67707">
        <ele>234.4099968</ele>
        <time>2018-09-30T08:21:21.000Z</time>
      </trkpt>
      <trkpt lat="43.21673" lon="-0.67701">
        <ele>234</ele>
        <time>2018-09-30T08:21:22.000Z</time>
      </trkpt>
      <trkpt lat="43.21676" lon="-0.67694">
        <ele>233.4099968</ele>
        <time>2018-09-30T08:21:23.000Z</time>
      </trkpt>
      <trkpt lat="43.21679" lon="-0.67688">
        <ele>232.4099968</ele>
        <time>2018-09-30T08:21:24.000Z</time>
      </trkpt>
      <trkpt lat="43.21682" lon="-0.67681">
        <ele>232</ele>
        <time>2018-09-30T08:21:25.000Z</time>
      </trkpt>
      <trkpt lat="43.21685" lon="-0.67673">
        <ele>232</ele>
        <time>2018-09-30T08:21:26.000Z</time>
      </trkpt>
      <trkpt lat="43.21688" lon="-0.67665">
        <ele>232</ele>
        <time>2018-09-30T08:21:27.000Z</time>
      </trkpt>
      <trkpt lat="43.2169" lon="-0.67656">
        <ele>232</ele>
        <time>2018-09-30T08:21:28.000Z</time>
      </trkpt>
      <trkpt lat="43.21692" lon="-0.67647">
        <ele>232</ele>
        <time>2018-09-30T08:21:29.000Z</time>
      </trkpt>
      <trkpt lat="43.21694" lon="-0.67638">
        <ele>232</ele>
        <time>2018-09-30T08:21:30.000Z</time>
      </trkpt>
      <trkpt lat="43.21697" lon="-0.6763">
        <ele>231.4099968</ele>
        <time>2018-09-30T08:21:31.000Z</time>
      </trkpt>
      <trkpt lat="43.217" lon="-0.67623">
        <ele>231</ele>
        <time>2018-09-30T08:21:32.000Z</time>
      </trkpt>
      <trkpt lat="43.21703" lon="-0.67616">
        <ele>231</ele>
        <time>2018-09-30T08:21:33.000Z</time>
      </trkpt>
      <trkpt lat="43.21706" lon="-0.6761">
        <ele>231</ele>
        <time>2018-09-30T08:21:34.000Z</time>
      </trkpt>
      <trkpt lat="43.21709" lon="-0.67604">
        <ele>231</ele>
        <time>2018-09-30T08:21:35.000Z</time>
      </trkpt>
      <trkpt lat="43.21711" lon="-0.67599">
        <ele>231</ele>
        <time>2018-09-30T08:21:36.000Z</time>
      </trkpt>
      <trkpt lat="43.21714" lon="-0.67594">
        <ele>231</ele>
        <time>2018-09-30T08:21:37.000Z</time>
      </trkpt>
      <trkpt lat="43.21716" lon="-0.6759">
        <ele>231</ele>
        <time>2018-09-30T08:21:38.000Z</time>
      </trkpt>
      <trkpt lat="43.21719" lon="-0.67585">
        <ele>231</ele>
        <time>2018-09-30T08:21:39.000Z</time>
      </trkpt>
      <trkpt lat="43.21722" lon="-0.67581">
        <ele>231</ele>
        <time>2018-09-30T08:21:40.000Z</time>
      </trkpt>
      <trkpt lat="43.21725" lon="-0.67577">
        <ele>231</ele>
        <time>2018-09-30T08:21:41.000Z</time>
      </trkpt>
      <trkpt lat="43.21728" lon="-0.67574">
        <ele>231</ele>
        <time>2018-09-30T08:21:42.000Z</time>
      </trkpt>
      <trkpt lat="43.21731" lon="-0.6757">
        <ele>231</ele>
        <time>2018-09-30T08:21:43.000Z</time>
      </trkpt>
      <trkpt lat="43.21733" lon="-0.67567">
        <ele>231.5900032</ele>
        <time>2018-09-30T08:21:44.000Z</time>
      </trkpt>
      <trkpt lat="43.21736" lon="-0.67564">
        <ele>232</ele>
        <time>2018-09-30T08:21:45.000Z</time>
      </trkpt>
      <trkpt lat="43.21739" lon="-0.67561">
        <ele>232</ele>
        <time>2018-09-30T08:21:46.000Z</time>
      </trkpt>
      <trkpt lat="43.21742" lon="-0.67557">
        <ele>232</ele>
        <time>2018-09-30T08:21:47.000Z</time>
      </trkpt>
      <trkpt lat="43.21746" lon="-0.67553">
        <ele>232</ele>
        <time>2018-09-30T08:21:48.000Z</time>
      </trkpt>
      <trkpt lat="43.21748" lon="-0.67549">
        <ele>232</ele>
        <time>2018-09-30T08:21:49.000Z</time>
      </trkpt>
      <trkpt lat="43.21751" lon="-0.67545">
        <ele>232</ele>
        <time>2018-09-30T08:21:50.000Z</time>
      </trkpt>
      <trkpt lat="43.21754" lon="-0.67541">
        <ele>232</ele>
        <time>2018-09-30T08:21:51.000Z</time>
      </trkpt>
      <trkpt lat="43.21758" lon="-0.67538">
        <ele>232</ele>
        <time>2018-09-30T08:21:52.000Z</time>
      </trkpt>
      <trkpt lat="43.21761" lon="-0.67535">
        <ele>232</ele>
        <time>2018-09-30T08:21:53.000Z</time>
      </trkpt>
      <trkpt lat="43.21765" lon="-0.67531">
        <ele>232</ele>
        <time>2018-09-30T08:21:54.000Z</time>
      </trkpt>
      <trkpt lat="43.21768" lon="-0.67528">
        <ele>232</ele>
        <time>2018-09-30T08:21:55.000Z</time>
      </trkpt>
      <trkpt lat="43.21771" lon="-0.67524">
        <ele>232</ele>
        <time>2018-09-30T08:21:56.000Z</time>
      </trkpt>
      <trkpt lat="43.21774" lon="-0.67521">
        <ele>232</ele>
        <time>2018-09-30T08:21:57.000Z</time>
      </trkpt>
      <trkpt lat="43.21778" lon="-0.67519">
        <ele>232</ele>
        <time>2018-09-30T08:21:58.000Z</time>
      </trkpt>
      <trkpt lat="43.21782" lon="-0.67517">
        <ele>231.54263204374</ele>
        <time>2018-09-30T08:21:59.000Z</time>
      </trkpt>
      <trkpt lat="43.21786" lon="-0.67516">
        <ele>231</ele>
        <time>2018-09-30T08:22:00.000Z</time>
      </trkpt>
      <trkpt lat="43.21795" lon="-0.67515">
        <ele>230</ele>
        <time>2018-09-30T08:22:02.000Z</time>
      </trkpt>
      <trkpt lat="43.21799" lon="-0.67515">
        <ele>229.4099968</ele>
        <time>2018-09-30T08:22:03.000Z</time>
      </trkpt>
      <trkpt lat="43.21814" lon="-0.6752">
        <ele>227.4099968</ele>
        <time>2018-09-30T08:22:06.000Z</time>
      </trkpt>
      <trkpt lat="43.21828" lon="-0.67522">
        <ele>226.5900032</ele>
        <time>2018-09-30T08:22:09.000Z</time>
      </trkpt>
      <trkpt lat="43.21839" lon="-0.6752">
        <ele>226.5857150694</ele>
        <time>2018-09-30T08:22:11.000Z</time>
      </trkpt>
      <trkpt lat="43.21851" lon="-0.67514">
        <ele>226</ele>
        <time>2018-09-30T08:22:13.000Z</time>
      </trkpt>
      <trkpt lat="43.21865" lon="-0.67505">
        <ele>226</ele>
        <time>2018-09-30T08:22:15.000Z</time>
      </trkpt>
      <trkpt lat="43.2188" lon="-0.67496">
        <ele>226</ele>
        <time>2018-09-30T08:22:17.000Z</time>
      </trkpt>
      <trkpt lat="43.21893" lon="-0.67485">
        <ele>225</ele>
        <time>2018-09-30T08:22:19.000Z</time>
      </trkpt>
      <trkpt lat="43.21904" lon="-0.67475">
        <ele>225</ele>
        <time>2018-09-30T08:22:21.000Z</time>
      </trkpt>
      <trkpt lat="43.2191" lon="-0.6747">
        <ele>225</ele>
        <time>2018-09-30T08:22:22.000Z</time>
      </trkpt>
      <trkpt lat="43.21915" lon="-0.67466">
        <ele>225</ele>
        <time>2018-09-30T08:22:23.000Z</time>
      </trkpt>
      <trkpt lat="43.2192" lon="-0.67461">
        <ele>225</ele>
        <time>2018-09-30T08:22:24.000Z</time>
      </trkpt>
      <trkpt lat="43.21924" lon="-0.67456">
        <ele>225</ele>
        <time>2018-09-30T08:22:25.000Z</time>
      </trkpt>
      <trkpt lat="43.21934" lon="-0.67448">
        <ele>225</ele>
        <time>2018-09-30T08:22:27.000Z</time>
      </trkpt>
      <trkpt lat="43.21946" lon="-0.67439">
        <ele>223.4099968</ele>
        <time>2018-09-30T08:22:29.000Z</time>
      </trkpt>
      <trkpt lat="43.21957" lon="-0.67431">
        <ele>222.4099968</ele>
        <time>2018-09-30T08:22:31.000Z</time>
      </trkpt>
      <trkpt lat="43.21968" lon="-0.67425">
        <ele>222</ele>
        <time>2018-09-30T08:22:33.000Z</time>
      </trkpt>
      <trkpt lat="43.21981" lon="-0.6742">
        <ele>222</ele>
        <time>2018-09-30T08:22:35.000Z</time>
      </trkpt>
      <trkpt lat="43.21995" lon="-0.67415">
        <ele>222</ele>
        <time>2018-09-30T08:22:37.000Z</time>
      </trkpt>
      <trkpt lat="43.22009" lon="-0.67411">
        <ele>222</ele>
        <time>2018-09-30T08:22:39.000Z</time>
      </trkpt>
      <trkpt lat="43.22023" lon="-0.67407">
        <ele>221.5857150694</ele>
        <time>2018-09-30T08:22:41.000Z</time>
      </trkpt>
      <trkpt lat="43.22036" lon="-0.67402">
        <ele>221</ele>
        <time>2018-09-30T08:22:43.000Z</time>
      </trkpt>
      <trkpt lat="43.22049" lon="-0.67397">
        <ele>221</ele>
        <time>2018-09-30T08:22:45.000Z</time>
      </trkpt>
      <trkpt lat="43.22061" lon="-0.67393">
        <ele>221</ele>
        <time>2018-09-30T08:22:47.000Z</time>
      </trkpt>
      <trkpt lat="43.22074" lon="-0.6739">
        <ele>220.5857150694</ele>
        <time>2018-09-30T08:22:49.000Z</time>
      </trkpt>
      <trkpt lat="43.22087" lon="-0.67388">
        <ele>220</ele>
        <time>2018-09-30T08:22:51.000Z</time>
      </trkpt>
      <trkpt lat="43.22099" lon="-0.67384">
        <ele>220</ele>
        <time>2018-09-30T08:22:53.000Z</time>
      </trkpt>
      <trkpt lat="43.22111" lon="-0.67381">
        <ele>219</ele>
        <time>2018-09-30T08:22:55.000Z</time>
      </trkpt>
      <trkpt lat="43.22126" lon="-0.6738">
        <ele>218</ele>
        <time>2018-09-30T08:22:58.000Z</time>
      </trkpt>
      <trkpt lat="43.22138" lon="-0.6738">
        <ele>218</ele>
        <time>2018-09-30T08:23:00.000Z</time>
      </trkpt>
      <trkpt lat="43.22143" lon="-0.67381">
        <ele>218</ele>
        <time>2018-09-30T08:23:01.000Z</time>
      </trkpt>
      <trkpt lat="43.22151" lon="-0.67381">
        <ele>218</ele>
        <time>2018-09-30T08:23:02.000Z</time>
      </trkpt>
      <trkpt lat="43.22157" lon="-0.67382">
        <ele>218</ele>
        <time>2018-09-30T08:23:03.000Z</time>
      </trkpt>
      <trkpt lat="43.22163" lon="-0.67384">
        <ele>218</ele>
        <time>2018-09-30T08:23:04.000Z</time>
      </trkpt>
      <trkpt lat="43.22169" lon="-0.67385">
        <ele>218</ele>
        <time>2018-09-30T08:23:05.000Z</time>
      </trkpt>
      <trkpt lat="43.22175" lon="-0.67386">
        <ele>218</ele>
        <time>2018-09-30T08:23:06.000Z</time>
      </trkpt>
      <trkpt lat="43.22181" lon="-0.67387">
        <ele>218</ele>
        <time>2018-09-30T08:23:07.000Z</time>
      </trkpt>
      <trkpt lat="43.22187" lon="-0.67389">
        <ele>218</ele>
        <time>2018-09-30T08:23:08.000Z</time>
      </trkpt>
      <trkpt lat="43.22194" lon="-0.67391">
        <ele>218</ele>
        <time>2018-09-30T08:23:09.000Z</time>
      </trkpt>
      <trkpt lat="43.222" lon="-0.67393">
        <ele>218</ele>
        <time>2018-09-30T08:23:10.000Z</time>
      </trkpt>
      <trkpt lat="43.22206" lon="-0.67395">
        <ele>218</ele>
        <time>2018-09-30T08:23:11.000Z</time>
      </trkpt>
      <trkpt lat="43.22212" lon="-0.67397">
        <ele>218</ele>
        <time>2018-09-30T08:23:12.000Z</time>
      </trkpt>
      <trkpt lat="43.22218" lon="-0.674">
        <ele>218</ele>
        <time>2018-09-30T08:23:13.000Z</time>
      </trkpt>
      <trkpt lat="43.22223" lon="-0.67403">
        <ele>218</ele>
        <time>2018-09-30T08:23:14.000Z</time>
      </trkpt>
      <trkpt lat="43.22228" lon="-0.67406">
        <ele>218</ele>
        <time>2018-09-30T08:23:15.000Z</time>
      </trkpt>
      <trkpt lat="43.22233" lon="-0.67409">
        <ele>218</ele>
        <time>2018-09-30T08:23:16.000Z</time>
      </trkpt>
      <trkpt lat="43.22237" lon="-0.67412">
        <ele>217.4099968</ele>
        <time>2018-09-30T08:23:17.000Z</time>
      </trkpt>
      <trkpt lat="43.2224" lon="-0.67416">
        <ele>217</ele>
        <time>2018-09-30T08:23:18.000Z</time>
      </trkpt>
      <trkpt lat="43.22243" lon="-0.67421">
        <ele>217</ele>
        <time>2018-09-30T08:23:19.000Z</time>
      </trkpt>
      <trkpt lat="43.22245" lon="-0.67426">
        <ele>217</ele>
        <time>2018-09-30T08:23:20.000Z</time>
      </trkpt>
      <trkpt lat="43.22246" lon="-0.67432">
        <ele>217</ele>
        <time>2018-09-30T08:23:21.000Z</time>
      </trkpt>
      <trkpt lat="43.22246" lon="-0.67438">
        <ele>217.45736341807</ele>
        <time>2018-09-30T08:23:22.000Z</time>
      </trkpt>
      <trkpt lat="43.22246" lon="-0.67444">
        <ele>218</ele>
        <time>2018-09-30T08:23:23.000Z</time>
      </trkpt>
      <trkpt lat="43.22246" lon="-0.67449">
        <ele>218</ele>
        <time>2018-09-30T08:23:24.000Z</time>
      </trkpt>
      <trkpt lat="43.22245" lon="-0.67455">
        <ele>218.58163318618</ele>
        <time>2018-09-30T08:23:25.000Z</time>
      </trkpt>
      <trkpt lat="43.22246" lon="-0.6746">
        <ele>219</ele>
        <time>2018-09-30T08:23:26.000Z</time>
      </trkpt>
      <trkpt lat="43.22246" lon="-0.67466">
        <ele>219</ele>
        <time>2018-09-30T08:23:27.000Z</time>
      </trkpt>
      <trkpt lat="43.22246" lon="-0.67475">
        <ele>219</ele>
        <time>2018-09-30T08:23:29.000Z</time>
      </trkpt>
      <trkpt lat="43.22246" lon="-0.67482">
        <ele>219</ele>
        <time>2018-09-30T08:23:31.000Z</time>
      </trkpt>
      <trkpt lat="43.22246" lon="-0.67489">
        <ele>219</ele>
        <time>2018-09-30T08:23:33.000Z</time>
      </trkpt>
      <trkpt lat="43.22247" lon="-0.67497">
        <ele>219</ele>
        <time>2018-09-30T08:23:35.000Z</time>
      </trkpt>
      <trkpt lat="43.22247" lon="-0.67505">
        <ele>219</ele>
        <time>2018-09-30T08:23:37.000Z</time>
      </trkpt>
      <trkpt lat="43.2225" lon="-0.67513">
        <ele>219</ele>
        <time>2018-09-30T08:23:39.000Z</time>
      </trkpt>
      <trkpt lat="43.22254" lon="-0.67518">
        <ele>219</ele>
        <time>2018-09-30T08:23:41.000Z</time>
      </trkpt>
      <trkpt lat="43.2226" lon="-0.67521">
        <ele>219</ele>
        <time>2018-09-30T08:23:43.000Z</time>
      </trkpt>
      <trkpt lat="43.22264" lon="-0.67522">
        <ele>219</ele>
        <time>2018-09-30T08:23:44.000Z</time>
      </trkpt>
      <trkpt lat="43.22268" lon="-0.67523">
        <ele>219</ele>
        <time>2018-09-30T08:23:45.000Z</time>
      </trkpt>
      <trkpt lat="43.22272" lon="-0.67524">
        <ele>219</ele>
        <time>2018-09-30T08:23:46.000Z</time>
      </trkpt>
      <trkpt lat="43.22277" lon="-0.67525">
        <ele>219</ele>
        <time>2018-09-30T08:23:47.000Z</time>
      </trkpt>
      <trkpt lat="43.22281" lon="-0.67526">
        <ele>219</ele>
        <time>2018-09-30T08:23:48.000Z</time>
      </trkpt>
      <trkpt lat="43.22285" lon="-0.67527">
        <ele>219</ele>
        <time>2018-09-30T08:23:49.000Z</time>
      </trkpt>
      <trkpt lat="43.2229" lon="-0.67529">
        <ele>219</ele>
        <time>2018-09-30T08:23:50.000Z</time>
      </trkpt>
      <trkpt lat="43.22294" lon="-0.6753">
        <ele>219</ele>
        <time>2018-09-30T08:23:51.000Z</time>
      </trkpt>
      <trkpt lat="43.22299" lon="-0.67532">
        <ele>219</ele>
        <time>2018-09-30T08:23:52.000Z</time>
      </trkpt>
      <trkpt lat="43.22304" lon="-0.67533">
        <ele>219</ele>
        <time>2018-09-30T08:23:53.000Z</time>
      </trkpt>
      <trkpt lat="43.22308" lon="-0.67535">
        <ele>219</ele>
        <time>2018-09-30T08:23:54.000Z</time>
      </trkpt>
      <trkpt lat="43.22313" lon="-0.67537">
        <ele>219</ele>
        <time>2018-09-30T08:23:55.000Z</time>
      </trkpt>
      <trkpt lat="43.22317" lon="-0.67539">
        <ele>219</ele>
        <time>2018-09-30T08:23:56.000Z</time>
      </trkpt>
      <trkpt lat="43.22322" lon="-0.67541">
        <ele>219</ele>
        <time>2018-09-30T08:23:57.000Z</time>
      </trkpt>
      <trkpt lat="43.22326" lon="-0.67543">
        <ele>219</ele>
        <time>2018-09-30T08:23:58.000Z</time>
      </trkpt>
      <trkpt lat="43.22331" lon="-0.67544">
        <ele>219</ele>
        <time>2018-09-30T08:23:59.000Z</time>
      </trkpt>
      <trkpt lat="43.22335" lon="-0.67546">
        <ele>219</ele>
        <time>2018-09-30T08:24:00.000Z</time>
      </trkpt>
      <trkpt lat="43.22339" lon="-0.67548">
        <ele>219.45038302196</ele>
        <time>2018-09-30T08:24:01.000Z</time>
      </trkpt>
      <trkpt lat="43.22343" lon="-0.6755">
        <ele>220</ele>
        <time>2018-09-30T08:24:02.000Z</time>
      </trkpt>
      <trkpt lat="43.22348" lon="-0.67553">
        <ele>220</ele>
        <time>2018-09-30T08:24:03.000Z</time>
      </trkpt>
      <trkpt lat="43.22352" lon="-0.67556">
        <ele>220</ele>
        <time>2018-09-30T08:24:04.000Z</time>
      </trkpt>
      <trkpt lat="43.22356" lon="-0.67558">
        <ele>220</ele>
        <time>2018-09-30T08:24:05.000Z</time>
      </trkpt>
      <trkpt lat="43.2236" lon="-0.67561">
        <ele>220</ele>
        <time>2018-09-30T08:24:06.000Z</time>
      </trkpt>
      <trkpt lat="43.22365" lon="-0.67564">
        <ele>220</ele>
        <time>2018-09-30T08:24:07.000Z</time>
      </trkpt>
      <trkpt lat="43.22369" lon="-0.67567">
        <ele>220</ele>
        <time>2018-09-30T08:24:08.000Z</time>
      </trkpt>
      <trkpt lat="43.22374" lon="-0.67569">
        <ele>220</ele>
        <time>2018-09-30T08:24:09.000Z</time>
      </trkpt>
      <trkpt lat="43.22378" lon="-0.67572">
        <ele>220</ele>
        <time>2018-09-30T08:24:10.000Z</time>
      </trkpt>
      <trkpt lat="43.22383" lon="-0.67575">
        <ele>220</ele>
        <time>2018-09-30T08:24:11.000Z</time>
      </trkpt>
      <trkpt lat="43.22387" lon="-0.67577">
        <ele>220</ele>
        <time>2018-09-30T08:24:12.000Z</time>
      </trkpt>
      <trkpt lat="43.22391" lon="-0.67579">
        <ele>220</ele>
        <time>2018-09-30T08:24:13.000Z</time>
      </trkpt>
      <trkpt lat="43.22396" lon="-0.67581">
        <ele>220</ele>
        <time>2018-09-30T08:24:14.000Z</time>
      </trkpt>
      <trkpt lat="43.224" lon="-0.67583">
        <ele>220</ele>
        <time>2018-09-30T08:24:15.000Z</time>
      </trkpt>
      <trkpt lat="43.22404" lon="-0.67586">
        <ele>220</ele>
        <time>2018-09-30T08:24:16.000Z</time>
      </trkpt>
      <trkpt lat="43.22408" lon="-0.67588">
        <ele>220</ele>
        <time>2018-09-30T08:24:17.000Z</time>
      </trkpt>
      <trkpt lat="43.22412" lon="-0.67589">
        <ele>220.5900032</ele>
        <time>2018-09-30T08:24:18.000Z</time>
      </trkpt>
      <trkpt lat="43.22416" lon="-0.6759">
        <ele>221</ele>
        <time>2018-09-30T08:24:19.000Z</time>
      </trkpt>
      <trkpt lat="43.2242" lon="-0.67591">
        <ele>221</ele>
        <time>2018-09-30T08:24:20.000Z</time>
      </trkpt>
      <trkpt lat="43.22425" lon="-0.67592">
        <ele>220.4099968</ele>
        <time>2018-09-30T08:24:21.000Z</time>
      </trkpt>
      <trkpt lat="43.2243" lon="-0.67594">
        <ele>220</ele>
        <time>2018-09-30T08:24:22.000Z</time>
      </trkpt>
      <trkpt lat="43.22433" lon="-0.67599">
        <ele>219.55302787879</ele>
        <time>2018-09-30T08:24:23.000Z</time>
      </trkpt>
      <trkpt lat="43.22434" lon="-0.67604">
        <ele>219</ele>
        <time>2018-09-30T08:24:24.000Z</time>
      </trkpt>
      <trkpt lat="43.22435" lon="-0.67611">
        <ele>218.4099968</ele>
        <time>2018-09-30T08:24:25.000Z</time>
      </trkpt>
      <trkpt lat="43.22433" lon="-0.67618">
        <ele>218</ele>
        <time>2018-09-30T08:24:26.000Z</time>
      </trkpt>
      <trkpt lat="43.22432" lon="-0.67625">
        <ele>218</ele>
        <time>2018-09-30T08:24:27.000Z</time>
      </trkpt>
      <trkpt lat="43.22432" lon="-0.67632">
        <ele>218</ele>
        <time>2018-09-30T08:24:28.000Z</time>
      </trkpt>
      <trkpt lat="43.22434" lon="-0.67638">
        <ele>218</ele>
        <time>2018-09-30T08:24:29.000Z</time>
      </trkpt>
      <trkpt lat="43.22437" lon="-0.67644">
        <ele>217</ele>
        <time>2018-09-30T08:24:31.000Z</time>
      </trkpt>
      <trkpt lat="43.22443" lon="-0.67643">
        <ele>217</ele>
        <time>2018-09-30T08:24:33.000Z</time>
      </trkpt>
      <trkpt lat="43.22447" lon="-0.6764">
        <ele>217</ele>
        <time>2018-09-30T08:24:34.000Z</time>
      </trkpt>
      <trkpt lat="43.22452" lon="-0.67637">
        <ele>217</ele>
        <time>2018-09-30T08:24:35.000Z</time>
      </trkpt>
      <trkpt lat="43.22457" lon="-0.67634">
        <ele>217</ele>
        <time>2018-09-30T08:24:36.000Z</time>
      </trkpt>
      <trkpt lat="43.22462" lon="-0.67631">
        <ele>217</ele>
        <time>2018-09-30T08:24:37.000Z</time>
      </trkpt>
      <trkpt lat="43.22468" lon="-0.67628">
        <ele>217</ele>
        <time>2018-09-30T08:24:38.000Z</time>
      </trkpt>
      <trkpt lat="43.22473" lon="-0.67625">
        <ele>217</ele>
        <time>2018-09-30T08:24:39.000Z</time>
      </trkpt>
      <trkpt lat="43.22478" lon="-0.67621">
        <ele>217</ele>
        <time>2018-09-30T08:24:40.000Z</time>
      </trkpt>
      <trkpt lat="43.22484" lon="-0.67617">
        <ele>217</ele>
        <time>2018-09-30T08:24:41.000Z</time>
      </trkpt>
      <trkpt lat="43.22489" lon="-0.67613">
        <ele>217</ele>
        <time>2018-09-30T08:24:42.000Z</time>
      </trkpt>
      <trkpt lat="43.22494" lon="-0.6761">
        <ele>217</ele>
        <time>2018-09-30T08:24:43.000Z</time>
      </trkpt>
      <trkpt lat="43.22499" lon="-0.67607">
        <ele>217</ele>
        <time>2018-09-30T08:24:44.000Z</time>
      </trkpt>
      <trkpt lat="43.22505" lon="-0.67605">
        <ele>216.42718313885</ele>
        <time>2018-09-30T08:24:45.000Z</time>
      </trkpt>
      <trkpt lat="43.2251" lon="-0.67603">
        <ele>216</ele>
        <time>2018-09-30T08:24:46.000Z</time>
      </trkpt>
      <trkpt lat="43.22516" lon="-0.67602">
        <ele>216</ele>
        <time>2018-09-30T08:24:47.000Z</time>
      </trkpt>
      <trkpt lat="43.22521" lon="-0.676">
        <ele>216</ele>
        <time>2018-09-30T08:24:48.000Z</time>
      </trkpt>
      <trkpt lat="43.22527" lon="-0.67599">
        <ele>215.4099968</ele>
        <time>2018-09-30T08:24:49.000Z</time>
      </trkpt>
      <trkpt lat="43.22534" lon="-0.67598">
        <ele>215</ele>
        <time>2018-09-30T08:24:50.000Z</time>
      </trkpt>
      <trkpt lat="43.2254" lon="-0.67597">
        <ele>214.55302787879</ele>
        <time>2018-09-30T08:24:51.000Z</time>
      </trkpt>
      <trkpt lat="43.22547" lon="-0.67596">
        <ele>214</ele>
        <time>2018-09-30T08:24:52.000Z</time>
      </trkpt>
      <trkpt lat="43.22554" lon="-0.67596">
        <ele>214</ele>
        <time>2018-09-30T08:24:53.000Z</time>
      </trkpt>
      <trkpt lat="43.2256" lon="-0.67595">
        <ele>214</ele>
        <time>2018-09-30T08:24:54.000Z</time>
      </trkpt>
      <trkpt lat="43.22567" lon="-0.67593">
        <ele>214</ele>
        <time>2018-09-30T08:24:55.000Z</time>
      </trkpt>
      <trkpt lat="43.22575" lon="-0.67592">
        <ele>214</ele>
        <time>2018-09-30T08:24:56.000Z</time>
      </trkpt>
      <trkpt lat="43.22582" lon="-0.67591">
        <ele>213.4099968</ele>
        <time>2018-09-30T08:24:57.000Z</time>
      </trkpt>
      <trkpt lat="43.22588" lon="-0.67591">
        <ele>213</ele>
        <time>2018-09-30T08:24:58.000Z</time>
      </trkpt>
      <trkpt lat="43.22595" lon="-0.6759">
        <ele>213</ele>
        <time>2018-09-30T08:24:59.000Z</time>
      </trkpt>
      <trkpt lat="43.22602" lon="-0.67589">
        <ele>213</ele>
        <time>2018-09-30T08:25:00.000Z</time>
      </trkpt>
      <trkpt lat="43.22608" lon="-0.67588">
        <ele>213.5900032</ele>
        <time>2018-09-30T08:25:01.000Z</time>
      </trkpt>
      <trkpt lat="43.22614" lon="-0.67587">
        <ele>214</ele>
        <time>2018-09-30T08:25:02.000Z</time>
      </trkpt>
      <trkpt lat="43.2262" lon="-0.67586">
        <ele>214.5900032</ele>
        <time>2018-09-30T08:25:03.000Z</time>
      </trkpt>
      <trkpt lat="43.22624" lon="-0.67585">
        <ele>215</ele>
        <time>2018-09-30T08:25:04.000Z</time>
      </trkpt>
      <trkpt lat="43.2263" lon="-0.67584">
        <ele>215</ele>
        <time>2018-09-30T08:25:05.000Z</time>
      </trkpt>
      <trkpt lat="43.22635" lon="-0.67582">
        <ele>215.43056</ele>
        <time>2018-09-30T08:25:06.000Z</time>
      </trkpt>
      <trkpt lat="43.2264" lon="-0.6758">
        <ele>216</ele>
        <time>2018-09-30T08:25:07.000Z</time>
      </trkpt>
      <trkpt lat="43.22646" lon="-0.67579">
        <ele>216</ele>
        <time>2018-09-30T08:25:08.000Z</time>
      </trkpt>
      <trkpt lat="43.22652" lon="-0.67576">
        <ele>215.42156911957</ele>
        <time>2018-09-30T08:25:09.000Z</time>
      </trkpt>
      <trkpt lat="43.22657" lon="-0.67573">
        <ele>215</ele>
        <time>2018-09-30T08:25:10.000Z</time>
      </trkpt>
      <trkpt lat="43.22661" lon="-0.67571">
        <ele>215</ele>
        <time>2018-09-30T08:25:11.000Z</time>
      </trkpt>
      <trkpt lat="43.22665" lon="-0.6757">
        <ele>215</ele>
        <time>2018-09-30T08:25:12.000Z</time>
      </trkpt>
      <trkpt lat="43.2267" lon="-0.6757">
        <ele>214.4099968</ele>
        <time>2018-09-30T08:25:13.000Z</time>
      </trkpt>
      <trkpt lat="43.22675" lon="-0.67571">
        <ele>214</ele>
        <time>2018-09-30T08:25:14.000Z</time>
      </trkpt>
      <trkpt lat="43.22681" lon="-0.67571">
        <ele>214</ele>
        <time>2018-09-30T08:25:15.000Z</time>
      </trkpt>
      <trkpt lat="43.22685" lon="-0.67571">
        <ele>214</ele>
        <time>2018-09-30T08:25:16.000Z</time>
      </trkpt>
      <trkpt lat="43.22696" lon="-0.67572">
        <ele>214</ele>
        <time>2018-09-30T08:25:18.000Z</time>
      </trkpt>
      <trkpt lat="43.22712" lon="-0.67575">
        <ele>215</ele>
        <time>2018-09-30T08:25:21.000Z</time>
      </trkpt>
      <trkpt lat="43.22728" lon="-0.6758">
        <ele>215</ele>
        <time>2018-09-30T08:25:24.000Z</time>
      </trkpt>
      <trkpt lat="43.22734" lon="-0.67582">
        <ele>215.42253191029</ele>
        <time>2018-09-30T08:25:25.000Z</time>
      </trkpt>
      <trkpt lat="43.22743" lon="-0.67582">
        <ele>217</ele>
        <time>2018-09-30T08:25:27.000Z</time>
      </trkpt>
      <trkpt lat="43.22756" lon="-0.67581">
        <ele>217</ele>
        <time>2018-09-30T08:25:31.000Z</time>
      </trkpt>
      <trkpt lat="43.22768" lon="-0.67583">
        <ele>217</ele>
        <time>2018-09-30T08:25:35.000Z</time>
      </trkpt>
      <trkpt lat="43.22779" lon="-0.67585">
        <ele>217</ele>
        <time>2018-09-30T08:25:38.000Z</time>
      </trkpt>
      <trkpt lat="43.22792" lon="-0.67586">
        <ele>217</ele>
        <time>2018-09-30T08:25:42.000Z</time>
      </trkpt>
      <trkpt lat="43.22804" lon="-0.67586">
        <ele>217</ele>
        <time>2018-09-30T08:25:45.000Z</time>
      </trkpt>
      <trkpt lat="43.22814" lon="-0.67581">
        <ele>216.4099968</ele>
        <time>2018-09-30T08:25:48.000Z</time>
      </trkpt>
      <trkpt lat="43.22826" lon="-0.67574">
        <ele>215.4099968</ele>
        <time>2018-09-30T08:25:52.000Z</time>
      </trkpt>
      <trkpt lat="43.22839" lon="-0.67572">
        <ele>213</ele>
        <time>2018-09-30T08:25:57.000Z</time>
      </trkpt>
      <trkpt lat="43.2285" lon="-0.67563">
        <ele>211.4099968</ele>
        <time>2018-09-30T08:26:01.000Z</time>
      </trkpt>
      <trkpt lat="43.22861" lon="-0.67556">
        <ele>210.56944</ele>
        <time>2018-09-30T08:26:03.000Z</time>
      </trkpt>
      <trkpt lat="43.22875" lon="-0.67548">
        <ele>207.4099968</ele>
        <time>2018-09-30T08:26:06.000Z</time>
      </trkpt>
      <trkpt lat="43.22885" lon="-0.6754">
        <ele>206.5857150694</ele>
        <time>2018-09-30T08:26:08.000Z</time>
      </trkpt>
      <trkpt lat="43.2289" lon="-0.67536">
        <ele>205.4099968</ele>
        <time>2018-09-30T08:26:09.000Z</time>
      </trkpt>
      <trkpt lat="43.22893" lon="-0.67533">
        <ele>204.4099968</ele>
        <time>2018-09-30T08:26:10.000Z</time>
      </trkpt>
      <trkpt lat="43.22906" lon="-0.67524">
        <ele>204</ele>
        <time>2018-09-30T08:26:13.000Z</time>
      </trkpt>
      <trkpt lat="43.22911" lon="-0.67522">
        <ele>203.41583656503</ele>
        <time>2018-09-30T08:26:14.000Z</time>
      </trkpt>
      <trkpt lat="43.22915" lon="-0.67521">
        <ele>202.41413684319</ele>
        <time>2018-09-30T08:26:15.000Z</time>
      </trkpt>
      <trkpt lat="43.22919" lon="-0.67523">
        <ele>202</ele>
        <time>2018-09-30T08:26:16.000Z</time>
      </trkpt>
      <trkpt lat="43.22924" lon="-0.67527">
        <ele>201.4099968</ele>
        <time>2018-09-30T08:26:18.000Z</time>
      </trkpt>
      <trkpt lat="43.22928" lon="-0.67532">
        <ele>201</ele>
        <time>2018-09-30T08:26:20.000Z</time>
      </trkpt>
      <trkpt lat="43.22928" lon="-0.67538">
        <ele>201</ele>
        <time>2018-09-30T08:26:22.000Z</time>
      </trkpt>
      <trkpt lat="43.22926" lon="-0.67544">
        <ele>201</ele>
        <time>2018-09-30T08:26:24.000Z</time>
      </trkpt>
      <trkpt lat="43.22922" lon="-0.6755">
        <ele>202</ele>
        <time>2018-09-30T08:26:26.000Z</time>
      </trkpt>
      <trkpt lat="43.22919" lon="-0.67556">
        <ele>202.5900032</ele>
        <time>2018-09-30T08:26:28.000Z</time>
      </trkpt>
      <trkpt lat="43.22917" lon="-0.67563">
        <ele>203</ele>
        <time>2018-09-30T08:26:30.000Z</time>
      </trkpt>
      <trkpt lat="43.22914" lon="-0.6757">
        <ele>204</ele>
        <time>2018-09-30T08:26:32.000Z</time>
      </trkpt>
      <trkpt lat="43.22911" lon="-0.67577">
        <ele>205.5900032</ele>
        <time>2018-09-30T08:26:34.000Z</time>
      </trkpt>
      <trkpt lat="43.22909" lon="-0.67583">
        <ele>206</ele>
        <time>2018-09-30T08:26:36.000Z</time>
      </trkpt>
      <trkpt lat="43.22907" lon="-0.6759">
        <ele>206</ele>
        <time>2018-09-30T08:26:38.000Z</time>
      </trkpt>
      <trkpt lat="43.22905" lon="-0.67597">
        <ele>207.45384638106</ele>
        <time>2018-09-30T08:26:40.000Z</time>
      </trkpt>
      <trkpt lat="43.22902" lon="-0.67604">
        <ele>209</ele>
        <time>2018-09-30T08:26:42.000Z</time>
      </trkpt>
      <trkpt lat="43.229" lon="-0.67612">
        <ele>209</ele>
        <time>2018-09-30T08:26:44.000Z</time>
      </trkpt>
      <trkpt lat="43.22898" lon="-0.67619">
        <ele>210.5900032</ele>
        <time>2018-09-30T08:26:46.000Z</time>
      </trkpt>
      <trkpt lat="43.22896" lon="-0.67627">
        <ele>211</ele>
        <time>2018-09-30T08:26:48.000Z</time>
      </trkpt>
      <trkpt lat="43.22893" lon="-0.67634">
        <ele>212</ele>
        <time>2018-09-30T08:26:50.000Z</time>
      </trkpt>
      <trkpt lat="43.2289" lon="-0.67641">
        <ele>212</ele>
        <time>2018-09-30T08:26:52.000Z</time>
      </trkpt>
      <trkpt lat="43.22886" lon="-0.67647">
        <ele>213</ele>
        <time>2018-09-30T08:26:54.000Z</time>
      </trkpt>
      <trkpt lat="43.22883" lon="-0.67651">
        <ele>213</ele>
        <time>2018-09-30T08:26:55.000Z</time>
      </trkpt>
      <trkpt lat="43.22878" lon="-0.67656">
        <ele>213</ele>
        <time>2018-09-30T08:26:57.000Z</time>
      </trkpt>
      <trkpt lat="43.22874" lon="-0.6766">
        <ele>213</ele>
        <time>2018-09-30T08:26:59.000Z</time>
      </trkpt>
      <trkpt lat="43.22869" lon="-0.67664">
        <ele>213</ele>
        <time>2018-09-30T08:27:01.000Z</time>
      </trkpt>
      <trkpt lat="43.22864" lon="-0.67667">
        <ele>213.5900032</ele>
        <time>2018-09-30T08:27:03.000Z</time>
      </trkpt>
      <trkpt lat="43.22859" lon="-0.67672">
        <ele>214.5900032</ele>
        <time>2018-09-30T08:27:05.000Z</time>
      </trkpt>
      <trkpt lat="43.22854" lon="-0.67678">
        <ele>214.4099968</ele>
        <time>2018-09-30T08:27:07.000Z</time>
      </trkpt>
      <trkpt lat="43.22851" lon="-0.67684">
        <ele>214</ele>
        <time>2018-09-30T08:27:09.000Z</time>
      </trkpt>
      <trkpt lat="43.2285" lon="-0.67691">
        <ele>214</ele>
        <time>2018-09-30T08:27:11.000Z</time>
      </trkpt>
      <trkpt lat="43.22851" lon="-0.67698">
        <ele>214</ele>
        <time>2018-09-30T08:27:13.000Z</time>
      </trkpt>
      <trkpt lat="43.22853" lon="-0.67705">
        <ele>214</ele>
        <time>2018-09-30T08:27:15.000Z</time>
      </trkpt>
      <trkpt lat="43.22856" lon="-0.67712">
        <ele>214</ele>
        <time>2018-09-30T08:27:17.000Z</time>
      </trkpt>
      <trkpt lat="43.22859" lon="-0.6772">
        <ele>214</ele>
        <time>2018-09-30T08:27:19.000Z</time>
      </trkpt>
      <trkpt lat="43.22861" lon="-0.67724">
        <ele>214</ele>
        <time>2018-09-30T08:27:20.000Z</time>
      </trkpt>
      <trkpt lat="43.22864" lon="-0.67728">
        <ele>214</ele>
        <time>2018-09-30T08:27:21.000Z</time>
      </trkpt>
      <trkpt lat="43.22867" lon="-0.67732">
        <ele>214</ele>
        <time>2018-09-30T08:27:22.000Z</time>
      </trkpt>
      <trkpt lat="43.2287" lon="-0.67735">
        <ele>214</ele>
        <time>2018-09-30T08:27:23.000Z</time>
      </trkpt>
      <trkpt lat="43.22873" lon="-0.67738">
        <ele>213.4099968</ele>
        <time>2018-09-30T08:27:24.000Z</time>
      </trkpt>
      <trkpt lat="43.22878" lon="-0.67743">
        <ele>213</ele>
        <time>2018-09-30T08:27:26.000Z</time>
      </trkpt>
      <trkpt lat="43.22882" lon="-0.67749">
        <ele>213</ele>
        <time>2018-09-30T08:27:28.000Z</time>
      </trkpt>
      <trkpt lat="43.22886" lon="-0.67754">
        <ele>214</ele>
        <time>2018-09-30T08:27:30.000Z</time>
      </trkpt>
      <trkpt lat="43.2289" lon="-0.67757">
        <ele>214</ele>
        <time>2018-09-30T08:27:32.000Z</time>
      </trkpt>
      <trkpt lat="43.22894" lon="-0.6776">
        <ele>214</ele>
        <time>2018-09-30T08:27:34.000Z</time>
      </trkpt>
      <trkpt lat="43.22899" lon="-0.67765">
        <ele>214</ele>
        <time>2018-09-30T08:27:36.000Z</time>
      </trkpt>
      <trkpt lat="43.22903" lon="-0.6777">
        <ele>215</ele>
        <time>2018-09-30T08:27:38.000Z</time>
      </trkpt>
      <trkpt lat="43.22908" lon="-0.67775">
        <ele>215</ele>
        <time>2018-09-30T08:27:40.000Z</time>
      </trkpt>
      <trkpt lat="43.22914" lon="-0.67781">
        <ele>215</ele>
        <time>2018-09-30T08:27:42.000Z</time>
      </trkpt>
      <trkpt lat="43.22917" lon="-0.67785">
        <ele>215.5900032</ele>
        <time>2018-09-30T08:27:43.000Z</time>
      </trkpt>
      <trkpt lat="43.2292" lon="-0.67788">
        <ele>216</ele>
        <time>2018-09-30T08:27:44.000Z</time>
      </trkpt>
      <trkpt lat="43.22923" lon="-0.67792">
        <ele>216</ele>
        <time>2018-09-30T08:27:45.000Z</time>
      </trkpt>
      <trkpt lat="43.22926" lon="-0.67795">
        <ele>216</ele>
        <time>2018-09-30T08:27:46.000Z</time>
      </trkpt>
      <trkpt lat="43.22929" lon="-0.67799">
        <ele>216</ele>
        <time>2018-09-30T08:27:47.000Z</time>
      </trkpt>
      <trkpt lat="43.22932" lon="-0.67803">
        <ele>216</ele>
        <time>2018-09-30T08:27:48.000Z</time>
      </trkpt>
      <trkpt lat="43.22935" lon="-0.67806">
        <ele>216.5900032</ele>
        <time>2018-09-30T08:27:49.000Z</time>
      </trkpt>
      <trkpt lat="43.22939" lon="-0.6781">
        <ele>217</ele>
        <time>2018-09-30T08:27:50.000Z</time>
      </trkpt>
      <trkpt lat="43.22942" lon="-0.67813">
        <ele>217</ele>
        <time>2018-09-30T08:27:51.000Z</time>
      </trkpt>
      <trkpt lat="43.22945" lon="-0.67817">
        <ele>217</ele>
        <time>2018-09-30T08:27:52.000Z</time>
      </trkpt>
      <trkpt lat="43.22948" lon="-0.67821">
        <ele>217</ele>
        <time>2018-09-30T08:27:53.000Z</time>
      </trkpt>
      <trkpt lat="43.2295" lon="-0.67826">
        <ele>217</ele>
        <time>2018-09-30T08:27:54.000Z</time>
      </trkpt>
      <trkpt lat="43.22953" lon="-0.6783">
        <ele>217</ele>
        <time>2018-09-30T08:27:55.000Z</time>
      </trkpt>
      <trkpt lat="43.22957" lon="-0.67834">
        <ele>217</ele>
        <time>2018-09-30T08:27:56.000Z</time>
      </trkpt>
      <trkpt lat="43.2296" lon="-0.67837">
        <ele>217</ele>
        <time>2018-09-30T08:27:57.000Z</time>
      </trkpt>
      <trkpt lat="43.22964" lon="-0.67841">
        <ele>218</ele>
        <time>2018-09-30T08:27:58.000Z</time>
      </trkpt>
      <trkpt lat="43.22968" lon="-0.67844">
        <ele>218</ele>
        <time>2018-09-30T08:27:59.000Z</time>
      </trkpt>
      <trkpt lat="43.22971" lon="-0.67848">
        <ele>218</ele>
        <time>2018-09-30T08:28:00.000Z</time>
      </trkpt>
      <trkpt lat="43.22974" lon="-0.67852">
        <ele>217.41413684319</ele>
        <time>2018-09-30T08:28:01.000Z</time>
      </trkpt>
      <trkpt lat="43.22978" lon="-0.67855">
        <ele>217</ele>
        <time>2018-09-30T08:28:02.000Z</time>
      </trkpt>
      <trkpt lat="43.22982" lon="-0.67859">
        <ele>217</ele>
        <time>2018-09-30T08:28:03.000Z</time>
      </trkpt>
      <trkpt lat="43.22985" lon="-0.67864">
        <ele>217</ele>
        <time>2018-09-30T08:28:04.000Z</time>
      </trkpt>
      <trkpt lat="43.22988" lon="-0.67868">
        <ele>217</ele>
        <time>2018-09-30T08:28:05.000Z</time>
      </trkpt>
      <trkpt lat="43.22991" lon="-0.67873">
        <ele>217</ele>
        <time>2018-09-30T08:28:06.000Z</time>
      </trkpt>
      <trkpt lat="43.22994" lon="-0.67878">
        <ele>217</ele>
        <time>2018-09-30T08:28:07.000Z</time>
      </trkpt>
      <trkpt lat="43.22998" lon="-0.67882">
        <ele>217</ele>
        <time>2018-09-30T08:28:08.000Z</time>
      </trkpt>
      <trkpt lat="43.23001" lon="-0.67887">
        <ele>217</ele>
        <time>2018-09-30T08:28:09.000Z</time>
      </trkpt>
      <trkpt lat="43.23004" lon="-0.67891">
        <ele>216.4099968</ele>
        <time>2018-09-30T08:28:10.000Z</time>
      </trkpt>
      <trkpt lat="43.23008" lon="-0.67895">
        <ele>216</ele>
        <time>2018-09-30T08:28:11.000Z</time>
      </trkpt>
      <trkpt lat="43.23012" lon="-0.67899">
        <ele>216</ele>
        <time>2018-09-30T08:28:12.000Z</time>
      </trkpt>
      <trkpt lat="43.23017" lon="-0.67903">
        <ele>216</ele>
        <time>2018-09-30T08:28:13.000Z</time>
      </trkpt>
      <trkpt lat="43.23021" lon="-0.67906">
        <ele>216</ele>
        <time>2018-09-30T08:28:14.000Z</time>
      </trkpt>
      <trkpt lat="43.23026" lon="-0.6791">
        <ele>216</ele>
        <time>2018-09-30T08:28:15.000Z</time>
      </trkpt>
      <trkpt lat="43.2303" lon="-0.67914">
        <ele>216</ele>
        <time>2018-09-30T08:28:16.000Z</time>
      </trkpt>
      <trkpt lat="43.23035" lon="-0.67918">
        <ele>216</ele>
        <time>2018-09-30T08:28:17.000Z</time>
      </trkpt>
      <trkpt lat="43.23041" lon="-0.67922">
        <ele>215.5857150694</ele>
        <time>2018-09-30T08:28:18.000Z</time>
      </trkpt>
      <trkpt lat="43.23046" lon="-0.67927">
        <ele>214.4099968</ele>
        <time>2018-09-30T08:28:19.000Z</time>
      </trkpt>
      <trkpt lat="43.23051" lon="-0.67931">
        <ele>214</ele>
        <time>2018-09-30T08:28:20.000Z</time>
      </trkpt>
      <trkpt lat="43.23056" lon="-0.67936">
        <ele>214</ele>
        <time>2018-09-30T08:28:21.000Z</time>
      </trkpt>
      <trkpt lat="43.23061" lon="-0.67941">
        <ele>214</ele>
        <time>2018-09-30T08:28:22.000Z</time>
      </trkpt>
      <trkpt lat="43.23066" lon="-0.67946">
        <ele>214</ele>
        <time>2018-09-30T08:28:23.000Z</time>
      </trkpt>
      <trkpt lat="43.23071" lon="-0.6795">
        <ele>214</ele>
        <time>2018-09-30T08:28:24.000Z</time>
      </trkpt>
      <trkpt lat="43.23076" lon="-0.67955">
        <ele>214</ele>
        <time>2018-09-30T08:28:25.000Z</time>
      </trkpt>
      <trkpt lat="43.2308" lon="-0.6796">
        <ele>214</ele>
        <time>2018-09-30T08:28:26.000Z</time>
      </trkpt>
      <trkpt lat="43.23084" lon="-0.67966">
        <ele>214</ele>
        <time>2018-09-30T08:28:27.000Z</time>
      </trkpt>
      <trkpt lat="43.23088" lon="-0.67971">
        <ele>213.4226785078</ele>
        <time>2018-09-30T08:28:28.000Z</time>
      </trkpt>
      <trkpt lat="43.23091" lon="-0.67977">
        <ele>213</ele>
        <time>2018-09-30T08:28:29.000Z</time>
      </trkpt>
      <trkpt lat="43.23094" lon="-0.67983">
        <ele>212.4099968</ele>
        <time>2018-09-30T08:28:30.000Z</time>
      </trkpt>
      <trkpt lat="43.23098" lon="-0.67989">
        <ele>212</ele>
        <time>2018-09-30T08:28:31.000Z</time>
      </trkpt>
      <trkpt lat="43.23101" lon="-0.67995">
        <ele>212</ele>
        <time>2018-09-30T08:28:32.000Z</time>
      </trkpt>
      <trkpt lat="43.23103" lon="-0.68001">
        <ele>212</ele>
        <time>2018-09-30T08:28:33.000Z</time>
      </trkpt>
      <trkpt lat="43.23105" lon="-0.68007">
        <ele>211.64024195122</ele>
        <time>2018-09-30T08:28:34.000Z</time>
      </trkpt>
      <trkpt lat="43.23107" lon="-0.68013">
        <ele>211.03048585366</ele>
        <time>2018-09-30T08:28:35.000Z</time>
      </trkpt>
      <trkpt lat="43.23108" lon="-0.68017">
        <ele>211</ele>
        <time>2018-09-30T08:28:36.000Z</time>
      </trkpt>
      <trkpt lat="43.2311" lon="-0.68025">
        <ele>209.4099968</ele>
        <time>2018-09-30T08:28:38.000Z</time>
      </trkpt>
      <trkpt lat="43.23111" lon="-0.68031">
        <ele>207.4099968</ele>
        <time>2018-09-30T08:28:40.000Z</time>
      </trkpt>
      <trkpt lat="43.23112" lon="-0.68037">
        <ele>206</ele>
        <time>2018-09-30T08:28:42.000Z</time>
      </trkpt>
      <trkpt lat="43.23114" lon="-0.68045">
        <ele>206</ele>
        <time>2018-09-30T08:28:44.000Z</time>
      </trkpt>
      <trkpt lat="43.23115" lon="-0.68053">
        <ele>204.4099968</ele>
        <time>2018-09-30T08:28:46.000Z</time>
      </trkpt>
      <trkpt lat="43.23116" lon="-0.68062">
        <ele>203.4099968</ele>
        <time>2018-09-30T08:28:48.000Z</time>
      </trkpt>
      <trkpt lat="43.23117" lon="-0.68067">
        <ele>203</ele>
        <time>2018-09-30T08:28:49.000Z</time>
      </trkpt>
      <trkpt lat="43.23118" lon="-0.68072">
        <ele>202.54961697804</ele>
        <time>2018-09-30T08:28:50.000Z</time>
      </trkpt>
      <trkpt lat="43.23119" lon="-0.68077">
        <ele>201.59420101658</ele>
        <time>2018-09-30T08:28:51.000Z</time>
      </trkpt>
      <trkpt lat="43.23119" lon="-0.68082">
        <ele>200.4099968</ele>
        <time>2018-09-30T08:28:52.000Z</time>
      </trkpt>
      <trkpt lat="43.23121" lon="-0.68087">
        <ele>200</ele>
        <time>2018-09-30T08:28:53.000Z</time>
      </trkpt>
      <trkpt lat="43.23123" lon="-0.68092">
        <ele>200</ele>
        <time>2018-09-30T08:28:54.000Z</time>
      </trkpt>
      <trkpt lat="43.23128" lon="-0.68097">
        <ele>198.4099968</ele>
        <time>2018-09-30T08:28:56.000Z</time>
      </trkpt>
      <trkpt lat="43.23134" lon="-0.68102">
        <ele>198</ele>
        <time>2018-09-30T08:28:58.000Z</time>
      </trkpt>
      <trkpt lat="43.23143" lon="-0.68112">
        <ele>197</ele>
        <time>2018-09-30T08:29:01.000Z</time>
      </trkpt>
      <trkpt lat="43.23158" lon="-0.68122">
        <ele>197</ele>
        <time>2018-09-30T08:29:04.000Z</time>
      </trkpt>
      <trkpt lat="43.23171" lon="-0.68128">
        <ele>195.41414219774</ele>
        <time>2018-09-30T08:29:06.000Z</time>
      </trkpt>
      <trkpt lat="43.23185" lon="-0.68135">
        <ele>194.4099968</ele>
        <time>2018-09-30T08:29:08.000Z</time>
      </trkpt>
      <trkpt lat="43.23201" lon="-0.68142">
        <ele>194</ele>
        <time>2018-09-30T08:29:10.000Z</time>
      </trkpt>
      <trkpt lat="43.23216" lon="-0.68147">
        <ele>193</ele>
        <time>2018-09-30T08:29:12.000Z</time>
      </trkpt>
      <trkpt lat="43.23231" lon="-0.68154">
        <ele>193</ele>
        <time>2018-09-30T08:29:14.000Z</time>
      </trkpt>
      <trkpt lat="43.23246" lon="-0.68158">
        <ele>193</ele>
        <time>2018-09-30T08:29:16.000Z</time>
      </trkpt>
      <trkpt lat="43.23259" lon="-0.68161">
        <ele>194</ele>
        <time>2018-09-30T08:29:18.000Z</time>
      </trkpt>
      <trkpt lat="43.23272" lon="-0.68164">
        <ele>193.5900032</ele>
        <time>2018-09-30T08:29:20.000Z</time>
      </trkpt>
      <trkpt lat="43.23282" lon="-0.68171">
        <ele>194</ele>
        <time>2018-09-30T08:29:22.000Z</time>
      </trkpt>
      <trkpt lat="43.23287" lon="-0.68184">
        <ele>193</ele>
        <time>2018-09-30T08:29:24.000Z</time>
      </trkpt>
      <trkpt lat="43.23287" lon="-0.68194">
        <ele>193</ele>
        <time>2018-09-30T08:29:25.000Z</time>
      </trkpt>
      <trkpt lat="43.23287" lon="-0.68204">
        <ele>193</ele>
        <time>2018-09-30T08:29:26.000Z</time>
      </trkpt>
      <trkpt lat="43.23287" lon="-0.68214">
        <ele>193</ele>
        <time>2018-09-30T08:29:27.000Z</time>
      </trkpt>
      <trkpt lat="43.23287" lon="-0.68225">
        <ele>192.4099968</ele>
        <time>2018-09-30T08:29:28.000Z</time>
      </trkpt>
      <trkpt lat="43.23287" lon="-0.68235">
        <ele>191.4099968</ele>
        <time>2018-09-30T08:29:29.000Z</time>
      </trkpt>
      <trkpt lat="43.23286" lon="-0.68246">
        <ele>191</ele>
        <time>2018-09-30T08:29:30.000Z</time>
      </trkpt>
      <trkpt lat="43.23286" lon="-0.68256">
        <ele>191</ele>
        <time>2018-09-30T08:29:31.000Z</time>
      </trkpt>
      <trkpt lat="43.23286" lon="-0.68266">
        <ele>191</ele>
        <time>2018-09-30T08:29:32.000Z</time>
      </trkpt>
      <trkpt lat="43.23285" lon="-0.68276">
        <ele>191</ele>
        <time>2018-09-30T08:29:33.000Z</time>
      </trkpt>
      <trkpt lat="43.23285" lon="-0.68286">
        <ele>191</ele>
        <time>2018-09-30T08:29:34.000Z</time>
      </trkpt>
      <trkpt lat="43.23284" lon="-0.68295">
        <ele>191</ele>
        <time>2018-09-30T08:29:35.000Z</time>
      </trkpt>
      <trkpt lat="43.23283" lon="-0.68305">
        <ele>191</ele>
        <time>2018-09-30T08:29:36.000Z</time>
      </trkpt>
      <trkpt lat="43.23281" lon="-0.68314">
        <ele>191</ele>
        <time>2018-09-30T08:29:37.000Z</time>
      </trkpt>
      <trkpt lat="43.2328" lon="-0.68324">
        <ele>191</ele>
        <time>2018-09-30T08:29:38.000Z</time>
      </trkpt>
      <trkpt lat="43.23279" lon="-0.68333">
        <ele>191</ele>
        <time>2018-09-30T08:29:39.000Z</time>
      </trkpt>
      <trkpt lat="43.23278" lon="-0.68342">
        <ele>191</ele>
        <time>2018-09-30T08:29:40.000Z</time>
      </trkpt>
      <trkpt lat="43.23276" lon="-0.68352">
        <ele>191</ele>
        <time>2018-09-30T08:29:41.000Z</time>
      </trkpt>
      <trkpt lat="43.23275" lon="-0.68361">
        <ele>191</ele>
        <time>2018-09-30T08:29:42.000Z</time>
      </trkpt>
      <trkpt lat="43.23274" lon="-0.6837">
        <ele>191</ele>
        <time>2018-09-30T08:29:43.000Z</time>
      </trkpt>
      <trkpt lat="43.23274" lon="-0.68379">
        <ele>191</ele>
        <time>2018-09-30T08:29:44.000Z</time>
      </trkpt>
      <trkpt lat="43.23273" lon="-0.68389">
        <ele>191</ele>
        <time>2018-09-30T08:29:45.000Z</time>
      </trkpt>
      <trkpt lat="43.23273" lon="-0.68398">
        <ele>190.62121329661</ele>
        <time>2018-09-30T08:29:46.000Z</time>
      </trkpt>
      <trkpt lat="43.23273" lon="-0.68407">
        <ele>190</ele>
        <time>2018-09-30T08:29:47.000Z</time>
      </trkpt>
      <trkpt lat="43.23273" lon="-0.68417">
        <ele>190</ele>
        <time>2018-09-30T08:29:48.000Z</time>
      </trkpt>
      <trkpt lat="43.23273" lon="-0.68426">
        <ele>190</ele>
        <time>2018-09-30T08:29:49.000Z</time>
      </trkpt>
      <trkpt lat="43.23273" lon="-0.68435">
        <ele>190</ele>
        <time>2018-09-30T08:29:50.000Z</time>
      </trkpt>
      <trkpt lat="43.23273" lon="-0.68445">
        <ele>190</ele>
        <time>2018-09-30T08:29:51.000Z</time>
      </trkpt>
      <trkpt lat="43.23273" lon="-0.68454">
        <ele>190</ele>
        <time>2018-09-30T08:29:52.000Z</time>
      </trkpt>
      <trkpt lat="43.23274" lon="-0.68463">
        <ele>190</ele>
        <time>2018-09-30T08:29:53.000Z</time>
      </trkpt>
      <trkpt lat="43.23274" lon="-0.68472">
        <ele>190</ele>
        <time>2018-09-30T08:29:54.000Z</time>
      </trkpt>
      <trkpt lat="43.23274" lon="-0.68482">
        <ele>190</ele>
        <time>2018-09-30T08:29:55.000Z</time>
      </trkpt>
      <trkpt lat="43.23274" lon="-0.68491">
        <ele>190</ele>
        <time>2018-09-30T08:29:56.000Z</time>
      </trkpt>
      <trkpt lat="43.23275" lon="-0.685">
        <ele>190</ele>
        <time>2018-09-30T08:29:57.000Z</time>
      </trkpt>
      <trkpt lat="43.23276" lon="-0.68509">
        <ele>190</ele>
        <time>2018-09-30T08:29:58.000Z</time>
      </trkpt>
      <trkpt lat="43.23277" lon="-0.68519">
        <ele>190</ele>
        <time>2018-09-30T08:29:59.000Z</time>
      </trkpt>
      <trkpt lat="43.23279" lon="-0.68528">
        <ele>190</ele>
        <time>2018-09-30T08:30:00.000Z</time>
      </trkpt>
      <trkpt lat="43.2328" lon="-0.68538">
        <ele>190</ele>
        <time>2018-09-30T08:30:01.000Z</time>
      </trkpt>
      <trkpt lat="43.23282" lon="-0.68548">
        <ele>189.4099968</ele>
        <time>2018-09-30T08:30:02.000Z</time>
      </trkpt>
      <trkpt lat="43.23283" lon="-0.68557">
        <ele>189</ele>
        <time>2018-09-30T08:30:03.000Z</time>
      </trkpt>
      <trkpt lat="43.23285" lon="-0.68566">
        <ele>189</ele>
        <time>2018-09-30T08:30:04.000Z</time>
      </trkpt>
      <trkpt lat="43.23286" lon="-0.68575">
        <ele>189</ele>
        <time>2018-09-30T08:30:05.000Z</time>
      </trkpt>
      <trkpt lat="43.23287" lon="-0.68584">
        <ele>189</ele>
        <time>2018-09-30T08:30:06.000Z</time>
      </trkpt>
      <trkpt lat="43.23289" lon="-0.68592">
        <ele>189</ele>
        <time>2018-09-30T08:30:07.000Z</time>
      </trkpt>
      <trkpt lat="43.2329" lon="-0.68601">
        <ele>189</ele>
        <time>2018-09-30T08:30:08.000Z</time>
      </trkpt>
      <trkpt lat="43.23292" lon="-0.68609">
        <ele>189</ele>
        <time>2018-09-30T08:30:09.000Z</time>
      </trkpt>
      <trkpt lat="43.23294" lon="-0.68617">
        <ele>189</ele>
        <time>2018-09-30T08:30:10.000Z</time>
      </trkpt>
      <trkpt lat="43.23296" lon="-0.68624">
        <ele>189</ele>
        <time>2018-09-30T08:30:11.000Z</time>
      </trkpt>
      <trkpt lat="43.23299" lon="-0.68632">
        <ele>189</ele>
        <time>2018-09-30T08:30:12.000Z</time>
      </trkpt>
      <trkpt lat="43.23301" lon="-0.68639">
        <ele>189</ele>
        <time>2018-09-30T08:30:13.000Z</time>
      </trkpt>
      <trkpt lat="43.23304" lon="-0.68647">
        <ele>189</ele>
        <time>2018-09-30T08:30:14.000Z</time>
      </trkpt>
      <trkpt lat="43.23307" lon="-0.68654">
        <ele>189</ele>
        <time>2018-09-30T08:30:15.000Z</time>
      </trkpt>
      <trkpt lat="43.2331" lon="-0.68662">
        <ele>189</ele>
        <time>2018-09-30T08:30:16.000Z</time>
      </trkpt>
      <trkpt lat="43.23312" lon="-0.68669">
        <ele>189</ele>
        <time>2018-09-30T08:30:17.000Z</time>
      </trkpt>
      <trkpt lat="43.23315" lon="-0.68676">
        <ele>189</ele>
        <time>2018-09-30T08:30:18.000Z</time>
      </trkpt>
      <trkpt lat="43.23318" lon="-0.68684">
        <ele>189</ele>
        <time>2018-09-30T08:30:19.000Z</time>
      </trkpt>
      <trkpt lat="43.23321" lon="-0.68691">
        <ele>189</ele>
        <time>2018-09-30T08:30:20.000Z</time>
      </trkpt>
      <trkpt lat="43.23324" lon="-0.68699">
        <ele>189</ele>
        <time>2018-09-30T08:30:21.000Z</time>
      </trkpt>
      <trkpt lat="43.23327" lon="-0.68706">
        <ele>189</ele>
        <time>2018-09-30T08:30:22.000Z</time>
      </trkpt>
      <trkpt lat="43.2333" lon="-0.68714">
        <ele>189</ele>
        <time>2018-09-30T08:30:23.000Z</time>
      </trkpt>
      <trkpt lat="43.23333" lon="-0.68721">
        <ele>189</ele>
        <time>2018-09-30T08:30:24.000Z</time>
      </trkpt>
      <trkpt lat="43.23336" lon="-0.68729">
        <ele>189</ele>
        <time>2018-09-30T08:30:25.000Z</time>
      </trkpt>
      <trkpt lat="43.23338" lon="-0.68737">
        <ele>189</ele>
        <time>2018-09-30T08:30:26.000Z</time>
      </trkpt>
      <trkpt lat="43.23341" lon="-0.68745">
        <ele>189</ele>
        <time>2018-09-30T08:30:27.000Z</time>
      </trkpt>
      <trkpt lat="43.23344" lon="-0.68752">
        <ele>189</ele>
        <time>2018-09-30T08:30:28.000Z</time>
      </trkpt>
      <trkpt lat="43.23347" lon="-0.6876">
        <ele>189</ele>
        <time>2018-09-30T08:30:29.000Z</time>
      </trkpt>
      <trkpt lat="43.23349" lon="-0.68768">
        <ele>189</ele>
        <time>2018-09-30T08:30:30.000Z</time>
      </trkpt>
      <trkpt lat="43.23352" lon="-0.68775">
        <ele>189</ele>
        <time>2018-09-30T08:30:31.000Z</time>
      </trkpt>
      <trkpt lat="43.23355" lon="-0.68783">
        <ele>189</ele>
        <time>2018-09-30T08:30:32.000Z</time>
      </trkpt>
      <trkpt lat="43.23358" lon="-0.6879">
        <ele>189</ele>
        <time>2018-09-30T08:30:33.000Z</time>
      </trkpt>
      <trkpt lat="43.23362" lon="-0.68797">
        <ele>189</ele>
        <time>2018-09-30T08:30:34.000Z</time>
      </trkpt>
      <trkpt lat="43.23365" lon="-0.68804">
        <ele>189</ele>
        <time>2018-09-30T08:30:35.000Z</time>
      </trkpt>
      <trkpt lat="43.23369" lon="-0.68811">
        <ele>189</ele>
        <time>2018-09-30T08:30:36.000Z</time>
      </trkpt>
      <trkpt lat="43.23373" lon="-0.68818">
        <ele>189</ele>
        <time>2018-09-30T08:30:37.000Z</time>
      </trkpt>
      <trkpt lat="43.23377" lon="-0.68824">
        <ele>189</ele>
        <time>2018-09-30T08:30:38.000Z</time>
      </trkpt>
      <trkpt lat="43.23381" lon="-0.6883">
        <ele>189</ele>
        <time>2018-09-30T08:30:39.000Z</time>
      </trkpt>
      <trkpt lat="43.23384" lon="-0.68835">
        <ele>189</ele>
        <time>2018-09-30T08:30:40.000Z</time>
      </trkpt>
      <trkpt lat="43.23386" lon="-0.68841">
        <ele>189</ele>
        <time>2018-09-30T08:30:41.000Z</time>
      </trkpt>
      <trkpt lat="43.23387" lon="-0.68848">
        <ele>188.4099968</ele>
        <time>2018-09-30T08:30:42.000Z</time>
      </trkpt>
      <trkpt lat="43.23387" lon="-0.68854">
        <ele>188</ele>
        <time>2018-09-30T08:30:43.000Z</time>
      </trkpt>
      <trkpt lat="43.23385" lon="-0.68861">
        <ele>188</ele>
        <time>2018-09-30T08:30:44.000Z</time>
      </trkpt>
      <trkpt lat="43.23382" lon="-0.68867">
        <ele>188</ele>
        <time>2018-09-30T08:30:45.000Z</time>
      </trkpt>
      <trkpt lat="43.23379" lon="-0.68872">
        <ele>188</ele>
        <time>2018-09-30T08:30:46.000Z</time>
      </trkpt>
      <trkpt lat="43.23376" lon="-0.68878">
        <ele>188</ele>
        <time>2018-09-30T08:30:47.000Z</time>
      </trkpt>
      <trkpt lat="43.23372" lon="-0.68883">
        <ele>188</ele>
        <time>2018-09-30T08:30:48.000Z</time>
      </trkpt>
      <trkpt lat="43.23367" lon="-0.68888">
        <ele>188.45038302196</ele>
        <time>2018-09-30T08:30:49.000Z</time>
      </trkpt>
      <trkpt lat="43.23362" lon="-0.68893">
        <ele>189</ele>
        <time>2018-09-30T08:30:50.000Z</time>
      </trkpt>
      <trkpt lat="43.23357" lon="-0.68898">
        <ele>189</ele>
        <time>2018-09-30T08:30:51.000Z</time>
      </trkpt>
      <trkpt lat="43.23352" lon="-0.68903">
        <ele>189</ele>
        <time>2018-09-30T08:30:52.000Z</time>
      </trkpt>
      <trkpt lat="43.23347" lon="-0.68908">
        <ele>189</ele>
        <time>2018-09-30T08:30:53.000Z</time>
      </trkpt>
      <trkpt lat="43.23342" lon="-0.68914">
        <ele>188.4099968</ele>
        <time>2018-09-30T08:30:54.000Z</time>
      </trkpt>
      <trkpt lat="43.23337" lon="-0.68919">
        <ele>188</ele>
        <time>2018-09-30T08:30:55.000Z</time>
      </trkpt>
      <trkpt lat="43.23333" lon="-0.68925">
        <ele>188</ele>
        <time>2018-09-30T08:30:56.000Z</time>
      </trkpt>
      <trkpt lat="43.23329" lon="-0.68932">
        <ele>188</ele>
        <time>2018-09-30T08:30:57.000Z</time>
      </trkpt>
      <trkpt lat="43.23326" lon="-0.68939">
        <ele>188</ele>
        <time>2018-09-30T08:30:58.000Z</time>
      </trkpt>
      <trkpt lat="43.23323" lon="-0.68947">
        <ele>188</ele>
        <time>2018-09-30T08:30:59.000Z</time>
      </trkpt>
      <trkpt lat="43.23321" lon="-0.68954">
        <ele>188</ele>
        <time>2018-09-30T08:31:00.000Z</time>
      </trkpt>
      <trkpt lat="43.23319" lon="-0.68962">
        <ele>188</ele>
        <time>2018-09-30T08:31:01.000Z</time>
      </trkpt>
      <trkpt lat="43.23317" lon="-0.6897">
        <ele>188</ele>
        <time>2018-09-30T08:31:02.000Z</time>
      </trkpt>
      <trkpt lat="43.23316" lon="-0.68977">
        <ele>188</ele>
        <time>2018-09-30T08:31:03.000Z</time>
      </trkpt>
      <trkpt lat="43.23314" lon="-0.68985">
        <ele>188</ele>
        <time>2018-09-30T08:31:04.000Z</time>
      </trkpt>
      <trkpt lat="43.23311" lon="-0.68992">
        <ele>188</ele>
        <time>2018-09-30T08:31:05.000Z</time>
      </trkpt>
      <trkpt lat="43.23309" lon="-0.68998">
        <ele>188</ele>
        <time>2018-09-30T08:31:06.000Z</time>
      </trkpt>
      <trkpt lat="43.23306" lon="-0.69004">
        <ele>188</ele>
        <time>2018-09-30T08:31:07.000Z</time>
      </trkpt>
      <trkpt lat="43.23303" lon="-0.69009">
        <ele>188</ele>
        <time>2018-09-30T08:31:08.000Z</time>
      </trkpt>
      <trkpt lat="43.233" lon="-0.69015">
        <ele>188</ele>
        <time>2018-09-30T08:31:09.000Z</time>
      </trkpt>
      <trkpt lat="43.23297" lon="-0.69019">
        <ele>188.57843088043</ele>
        <time>2018-09-30T08:31:10.000Z</time>
      </trkpt>
      <trkpt lat="43.23294" lon="-0.69024">
        <ele>189</ele>
        <time>2018-09-30T08:31:11.000Z</time>
      </trkpt>
      <trkpt lat="43.23291" lon="-0.69028">
        <ele>189</ele>
        <time>2018-09-30T08:31:12.000Z</time>
      </trkpt>
      <trkpt lat="43.23288" lon="-0.69032">
        <ele>189</ele>
        <time>2018-09-30T08:31:13.000Z</time>
      </trkpt>
      <trkpt lat="43.23285" lon="-0.69036">
        <ele>189</ele>
        <time>2018-09-30T08:31:14.000Z</time>
      </trkpt>
      <trkpt lat="43.23282" lon="-0.69041">
        <ele>189</ele>
        <time>2018-09-30T08:31:15.000Z</time>
      </trkpt>
      <trkpt lat="43.23278" lon="-0.69045">
        <ele>189</ele>
        <time>2018-09-30T08:31:16.000Z</time>
      </trkpt>
      <trkpt lat="43.23275" lon="-0.6905">
        <ele>189</ele>
        <time>2018-09-30T08:31:17.000Z</time>
      </trkpt>
      <trkpt lat="43.23271" lon="-0.69055">
        <ele>189</ele>
        <time>2018-09-30T08:31:18.000Z</time>
      </trkpt>
      <trkpt lat="43.23267" lon="-0.69061">
        <ele>189</ele>
        <time>2018-09-30T08:31:19.000Z</time>
      </trkpt>
      <trkpt lat="43.23263" lon="-0.69066">
        <ele>189</ele>
        <time>2018-09-30T08:31:20.000Z</time>
      </trkpt>
      <trkpt lat="43.23259" lon="-0.69072">
        <ele>189</ele>
        <time>2018-09-30T08:31:21.000Z</time>
      </trkpt>
      <trkpt lat="43.23254" lon="-0.69078">
        <ele>189</ele>
        <time>2018-09-30T08:31:22.000Z</time>
      </trkpt>
      <trkpt lat="43.2325" lon="-0.69084">
        <ele>189</ele>
        <time>2018-09-30T08:31:23.000Z</time>
      </trkpt>
      <trkpt lat="43.23245" lon="-0.69089">
        <ele>189</ele>
        <time>2018-09-30T08:31:24.000Z</time>
      </trkpt>
      <trkpt lat="43.2324" lon="-0.69094">
        <ele>189</ele>
        <time>2018-09-30T08:31:25.000Z</time>
      </trkpt>
      <trkpt lat="43.23235" lon="-0.69099">
        <ele>189</ele>
        <time>2018-09-30T08:31:26.000Z</time>
      </trkpt>
      <trkpt lat="43.2323" lon="-0.69104">
        <ele>189</ele>
        <time>2018-09-30T08:31:27.000Z</time>
      </trkpt>
      <trkpt lat="43.23225" lon="-0.69108">
        <ele>189</ele>
        <time>2018-09-30T08:31:28.000Z</time>
      </trkpt>
      <trkpt lat="43.23221" lon="-0.69111">
        <ele>189</ele>
        <time>2018-09-30T08:31:29.000Z</time>
      </trkpt>
      <trkpt lat="43.23216" lon="-0.69115">
        <ele>189</ele>
        <time>2018-09-30T08:31:30.000Z</time>
      </trkpt>
      <trkpt lat="43.23212" lon="-0.69118">
        <ele>189</ele>
        <time>2018-09-30T08:31:31.000Z</time>
      </trkpt>
      <trkpt lat="43.23208" lon="-0.69122">
        <ele>189</ele>
        <time>2018-09-30T08:31:32.000Z</time>
      </trkpt>
      <trkpt lat="43.23204" lon="-0.69125">
        <ele>189</ele>
        <time>2018-09-30T08:31:33.000Z</time>
      </trkpt>
      <trkpt lat="43.23201" lon="-0.69128">
        <ele>189</ele>
        <time>2018-09-30T08:31:34.000Z</time>
      </trkpt>
      <trkpt lat="43.23198" lon="-0.69131">
        <ele>189</ele>
        <time>2018-09-30T08:31:35.000Z</time>
      </trkpt>
      <trkpt lat="43.23195" lon="-0.69134">
        <ele>189.43056</ele>
        <time>2018-09-30T08:31:36.000Z</time>
      </trkpt>
      <trkpt lat="43.23192" lon="-0.69137">
        <ele>190.58415603178</ele>
        <time>2018-09-30T08:31:37.000Z</time>
      </trkpt>
      <trkpt lat="43.23189" lon="-0.6914">
        <ele>191</ele>
        <time>2018-09-30T08:31:38.000Z</time>
      </trkpt>
      <trkpt lat="43.23186" lon="-0.69142">
        <ele>191</ele>
        <time>2018-09-30T08:31:39.000Z</time>
      </trkpt>
      <trkpt lat="43.23182" lon="-0.69145">
        <ele>191</ele>
        <time>2018-09-30T08:31:40.000Z</time>
      </trkpt>
      <trkpt lat="43.23179" lon="-0.69148">
        <ele>191</ele>
        <time>2018-09-30T08:31:41.000Z</time>
      </trkpt>
      <trkpt lat="43.23176" lon="-0.69151">
        <ele>191.5900032</ele>
        <time>2018-09-30T08:31:42.000Z</time>
      </trkpt>
      <trkpt lat="43.23173" lon="-0.69154">
        <ele>192</ele>
        <time>2018-09-30T08:31:43.000Z</time>
      </trkpt>
      <trkpt lat="43.2317" lon="-0.69157">
        <ele>192</ele>
        <time>2018-09-30T08:31:44.000Z</time>
      </trkpt>
      <trkpt lat="43.23167" lon="-0.69161">
        <ele>192</ele>
        <time>2018-09-30T08:31:45.000Z</time>
      </trkpt>
      <trkpt lat="43.23164" lon="-0.69164">
        <ele>192.5900032</ele>
        <time>2018-09-30T08:31:46.000Z</time>
      </trkpt>
      <trkpt lat="43.23161" lon="-0.69167">
        <ele>193</ele>
        <time>2018-09-30T08:31:47.000Z</time>
      </trkpt>
      <trkpt lat="43.23158" lon="-0.6917">
        <ele>193.5900032</ele>
        <time>2018-09-30T08:31:48.000Z</time>
      </trkpt>
      <trkpt lat="43.23155" lon="-0.69173">
        <ele>194</ele>
        <time>2018-09-30T08:31:49.000Z</time>
      </trkpt>
      <trkpt lat="43.23152" lon="-0.69176">
        <ele>194</ele>
        <time>2018-09-30T08:31:50.000Z</time>
      </trkpt>
      <trkpt lat="43.23148" lon="-0.6918">
        <ele>194.5900032</ele>
        <time>2018-09-30T08:31:51.000Z</time>
      </trkpt>
      <trkpt lat="43.23145" lon="-0.69183">
        <ele>195</ele>
        <time>2018-09-30T08:31:52.000Z</time>
      </trkpt>
      <trkpt lat="43.23142" lon="-0.69187">
        <ele>195</ele>
        <time>2018-09-30T08:31:53.000Z</time>
      </trkpt>
      <trkpt lat="43.23139" lon="-0.6919">
        <ele>195</ele>
        <time>2018-09-30T08:31:54.000Z</time>
      </trkpt>
      <trkpt lat="43.23136" lon="-0.69194">
        <ele>195</ele>
        <time>2018-09-30T08:31:55.000Z</time>
      </trkpt>
      <trkpt lat="43.23133" lon="-0.69197">
        <ele>195.5900032</ele>
        <time>2018-09-30T08:31:56.000Z</time>
      </trkpt>
      <trkpt lat="43.2313" lon="-0.692">
        <ele>196</ele>
        <time>2018-09-30T08:31:57.000Z</time>
      </trkpt>
      <trkpt lat="43.23127" lon="-0.69204">
        <ele>196</ele>
        <time>2018-09-30T08:31:58.000Z</time>
      </trkpt>
      <trkpt lat="43.23124" lon="-0.69208">
        <ele>196.5900032</ele>
        <time>2018-09-30T08:31:59.000Z</time>
      </trkpt>
      <trkpt lat="43.23121" lon="-0.69211">
        <ele>197</ele>
        <time>2018-09-30T08:32:00.000Z</time>
      </trkpt>
      <trkpt lat="43.23118" lon="-0.69214">
        <ele>197</ele>
        <time>2018-09-30T08:32:01.000Z</time>
      </trkpt>
      <trkpt lat="43.23111" lon="-0.69216">
        <ele>198</ele>
        <time>2018-09-30T08:32:03.000Z</time>
      </trkpt>
      <trkpt lat="43.23106" lon="-0.69217">
        <ele>198</ele>
        <time>2018-09-30T08:32:05.000Z</time>
      </trkpt>
      <trkpt lat="43.231" lon="-0.69215">
        <ele>198</ele>
        <time>2018-09-30T08:32:07.000Z</time>
      </trkpt>
      <trkpt lat="43.23093" lon="-0.69213">
        <ele>198</ele>
        <time>2018-09-30T08:32:09.000Z</time>
      </trkpt>
      <trkpt lat="43.2309" lon="-0.69212">
        <ele>197.4099968</ele>
        <time>2018-09-30T08:32:10.000Z</time>
      </trkpt>
      <trkpt lat="43.23085" lon="-0.69211">
        <ele>197</ele>
        <time>2018-09-30T08:32:11.000Z</time>
      </trkpt>
      <trkpt lat="43.23081" lon="-0.69209">
        <ele>197</ele>
        <time>2018-09-30T08:32:12.000Z</time>
      </trkpt>
      <trkpt lat="43.23077" lon="-0.69208">
        <ele>197</ele>
        <time>2018-09-30T08:32:13.000Z</time>
      </trkpt>
      <trkpt lat="43.23073" lon="-0.69207">
        <ele>197</ele>
        <time>2018-09-30T08:32:14.000Z</time>
      </trkpt>
      <trkpt lat="43.23069" lon="-0.69206">
        <ele>197</ele>
        <time>2018-09-30T08:32:15.000Z</time>
      </trkpt>
      <trkpt lat="43.23065" lon="-0.69205">
        <ele>197</ele>
        <time>2018-09-30T08:32:16.000Z</time>
      </trkpt>
      <trkpt lat="43.23061" lon="-0.69203">
        <ele>197</ele>
        <time>2018-09-30T08:32:17.000Z</time>
      </trkpt>
      <trkpt lat="43.23056" lon="-0.69202">
        <ele>197</ele>
        <time>2018-09-30T08:32:18.000Z</time>
      </trkpt>
      <trkpt lat="43.23051" lon="-0.692">
        <ele>197</ele>
        <time>2018-09-30T08:32:19.000Z</time>
      </trkpt>
      <trkpt lat="43.23046" lon="-0.69198">
        <ele>197</ele>
        <time>2018-09-30T08:32:20.000Z</time>
      </trkpt>
      <trkpt lat="43.23041" lon="-0.69197">
        <ele>197</ele>
        <time>2018-09-30T08:32:21.000Z</time>
      </trkpt>
      <trkpt lat="43.23035" lon="-0.69196">
        <ele>197</ele>
        <time>2018-09-30T08:32:22.000Z</time>
      </trkpt>
      <trkpt lat="43.23029" lon="-0.69194">
        <ele>197</ele>
        <time>2018-09-30T08:32:23.000Z</time>
      </trkpt>
      <trkpt lat="43.23023" lon="-0.69193">
        <ele>197</ele>
        <time>2018-09-30T08:32:24.000Z</time>
      </trkpt>
      <trkpt lat="43.23017" lon="-0.69193">
        <ele>197</ele>
        <time>2018-09-30T08:32:25.000Z</time>
      </trkpt>
      <trkpt lat="43.23011" lon="-0.69192">
        <ele>197</ele>
        <time>2018-09-30T08:32:26.000Z</time>
      </trkpt>
      <trkpt lat="43.23005" lon="-0.69191">
        <ele>197</ele>
        <time>2018-09-30T08:32:27.000Z</time>
      </trkpt>
      <trkpt lat="43.22998" lon="-0.6919">
        <ele>197</ele>
        <time>2018-09-30T08:32:28.000Z</time>
      </trkpt>
      <trkpt lat="43.22992" lon="-0.69189">
        <ele>197</ele>
        <time>2018-09-30T08:32:29.000Z</time>
      </trkpt>
      <trkpt lat="43.22985" lon="-0.69188">
        <ele>197</ele>
        <time>2018-09-30T08:32:30.000Z</time>
      </trkpt>
      <trkpt lat="43.22979" lon="-0.69188">
        <ele>197</ele>
        <time>2018-09-30T08:32:31.000Z</time>
      </trkpt>
      <trkpt lat="43.22972" lon="-0.69187">
        <ele>197</ele>
        <time>2018-09-30T08:32:32.000Z</time>
      </trkpt>
      <trkpt lat="43.22966" lon="-0.69186">
        <ele>196.56944</ele>
        <time>2018-09-30T08:32:33.000Z</time>
      </trkpt>
      <trkpt lat="43.2296" lon="-0.69185">
        <ele>196</ele>
        <time>2018-09-30T08:32:34.000Z</time>
      </trkpt>
      <trkpt lat="43.22953" lon="-0.69184">
        <ele>196</ele>
        <time>2018-09-30T08:32:35.000Z</time>
      </trkpt>
      <trkpt lat="43.22947" lon="-0.69183">
        <ele>196</ele>
        <time>2018-09-30T08:32:36.000Z</time>
      </trkpt>
      <trkpt lat="43.2294" lon="-0.69182">
        <ele>196</ele>
        <time>2018-09-30T08:32:37.000Z</time>
      </trkpt>
      <trkpt lat="43.22934" lon="-0.69181">
        <ele>196</ele>
        <time>2018-09-30T08:32:38.000Z</time>
      </trkpt>
      <trkpt lat="43.22928" lon="-0.6918">
        <ele>196</ele>
        <time>2018-09-30T08:32:39.000Z</time>
      </trkpt>
      <trkpt lat="43.22922" lon="-0.69179">
        <ele>196</ele>
        <time>2018-09-30T08:32:40.000Z</time>
      </trkpt>
      <trkpt lat="43.22916" lon="-0.69179">
        <ele>196</ele>
        <time>2018-09-30T08:32:41.000Z</time>
      </trkpt>
      <trkpt lat="43.22911" lon="-0.69178">
        <ele>196</ele>
        <time>2018-09-30T08:32:42.000Z</time>
      </trkpt>
      <trkpt lat="43.22905" lon="-0.69178">
        <ele>196</ele>
        <time>2018-09-30T08:32:43.000Z</time>
      </trkpt>
      <trkpt lat="43.229" lon="-0.69178">
        <ele>196</ele>
        <time>2018-09-30T08:32:44.000Z</time>
      </trkpt>
      <trkpt lat="43.22894" lon="-0.69177">
        <ele>196</ele>
        <time>2018-09-30T08:32:45.000Z</time>
      </trkpt>
      <trkpt lat="43.22888" lon="-0.69178">
        <ele>196</ele>
        <time>2018-09-30T08:32:46.000Z</time>
      </trkpt>
      <trkpt lat="43.22882" lon="-0.6918">
        <ele>196</ele>
        <time>2018-09-30T08:32:47.000Z</time>
      </trkpt>
      <trkpt lat="43.22875" lon="-0.69183">
        <ele>196</ele>
        <time>2018-09-30T08:32:48.000Z</time>
      </trkpt>
      <trkpt lat="43.22869" lon="-0.69187">
        <ele>196</ele>
        <time>2018-09-30T08:32:49.000Z</time>
      </trkpt>
      <trkpt lat="43.22863" lon="-0.69192">
        <ele>195.4099968</ele>
        <time>2018-09-30T08:32:50.000Z</time>
      </trkpt>
      <trkpt lat="43.22855" lon="-0.69196">
        <ele>195</ele>
        <time>2018-09-30T08:32:51.000Z</time>
      </trkpt>
      <trkpt lat="43.22848" lon="-0.692">
        <ele>195</ele>
        <time>2018-09-30T08:32:52.000Z</time>
      </trkpt>
      <trkpt lat="43.2284" lon="-0.69203">
        <ele>195</ele>
        <time>2018-09-30T08:32:53.000Z</time>
      </trkpt>
      <trkpt lat="43.22832" lon="-0.69204">
        <ele>195</ele>
        <time>2018-09-30T08:32:54.000Z</time>
      </trkpt>
      <trkpt lat="43.22825" lon="-0.69205">
        <ele>194.55302787879</ele>
        <time>2018-09-30T08:32:55.000Z</time>
      </trkpt>
      <trkpt lat="43.22817" lon="-0.69205">
        <ele>193.60293647059</ele>
        <time>2018-09-30T08:32:56.000Z</time>
      </trkpt>
      <trkpt lat="43.2281" lon="-0.69205">
        <ele>193</ele>
        <time>2018-09-30T08:32:57.000Z</time>
      </trkpt>
      <trkpt lat="43.22802" lon="-0.69205">
        <ele>193</ele>
        <time>2018-09-30T08:32:58.000Z</time>
      </trkpt>
      <trkpt lat="43.22794" lon="-0.69206">
        <ele>193</ele>
        <time>2018-09-30T08:32:59.000Z</time>
      </trkpt>
      <trkpt lat="43.22787" lon="-0.69208">
        <ele>193</ele>
        <time>2018-09-30T08:33:00.000Z</time>
      </trkpt>
      <trkpt lat="43.22779" lon="-0.69209">
        <ele>193</ele>
        <time>2018-09-30T08:33:01.000Z</time>
      </trkpt>
      <trkpt lat="43.22771" lon="-0.69209">
        <ele>193</ele>
        <time>2018-09-30T08:33:02.000Z</time>
      </trkpt>
      <trkpt lat="43.22764" lon="-0.6921">
        <ele>193</ele>
        <time>2018-09-30T08:33:03.000Z</time>
      </trkpt>
      <trkpt lat="43.22756" lon="-0.69212">
        <ele>192.4099968</ele>
        <time>2018-09-30T08:33:04.000Z</time>
      </trkpt>
      <trkpt lat="43.22748" lon="-0.69213">
        <ele>192</ele>
        <time>2018-09-30T08:33:05.000Z</time>
      </trkpt>
      <trkpt lat="43.2274" lon="-0.69214">
        <ele>192</ele>
        <time>2018-09-30T08:33:06.000Z</time>
      </trkpt>
      <trkpt lat="43.22733" lon="-0.69215">
        <ele>192</ele>
        <time>2018-09-30T08:33:07.000Z</time>
      </trkpt>
      <trkpt lat="43.22726" lon="-0.69216">
        <ele>192</ele>
        <time>2018-09-30T08:33:08.000Z</time>
      </trkpt>
      <trkpt lat="43.22718" lon="-0.69217">
        <ele>192</ele>
        <time>2018-09-30T08:33:09.000Z</time>
      </trkpt>
      <trkpt lat="43.22711" lon="-0.69219">
        <ele>192</ele>
        <time>2018-09-30T08:33:10.000Z</time>
      </trkpt>
      <trkpt lat="43.22703" lon="-0.6922">
        <ele>192</ele>
        <time>2018-09-30T08:33:11.000Z</time>
      </trkpt>
      <trkpt lat="43.22695" lon="-0.69222">
        <ele>192</ele>
        <time>2018-09-30T08:33:12.000Z</time>
      </trkpt>
      <trkpt lat="43.22686" lon="-0.69223">
        <ele>192</ele>
        <time>2018-09-30T08:33:13.000Z</time>
      </trkpt>
      <trkpt lat="43.22678" lon="-0.69225">
        <ele>191.55302787879</ele>
        <time>2018-09-30T08:33:14.000Z</time>
      </trkpt>
      <trkpt lat="43.2267" lon="-0.69227">
        <ele>191</ele>
        <time>2018-09-30T08:33:15.000Z</time>
      </trkpt>
      <trkpt lat="43.22662" lon="-0.69229">
        <ele>190.4099968</ele>
        <time>2018-09-30T08:33:16.000Z</time>
      </trkpt>
      <trkpt lat="43.22654" lon="-0.6923">
        <ele>190</ele>
        <time>2018-09-30T08:33:17.000Z</time>
      </trkpt>
      <trkpt lat="43.22646" lon="-0.69232">
        <ele>190</ele>
        <time>2018-09-30T08:33:18.000Z</time>
      </trkpt>
      <trkpt lat="43.2264" lon="-0.69233">
        <ele>190</ele>
        <time>2018-09-30T08:33:19.000Z</time>
      </trkpt>
      <trkpt lat="43.22633" lon="-0.69235">
        <ele>190.43056</ele>
        <time>2018-09-30T08:33:20.000Z</time>
      </trkpt>
      <trkpt lat="43.22628" lon="-0.69236">
        <ele>191</ele>
        <time>2018-09-30T08:33:21.000Z</time>
      </trkpt>
      <trkpt lat="43.22622" lon="-0.69237">
        <ele>191</ele>
        <time>2018-09-30T08:33:22.000Z</time>
      </trkpt>
      <trkpt lat="43.22616" lon="-0.69238">
        <ele>191</ele>
        <time>2018-09-30T08:33:23.000Z</time>
      </trkpt>
      <trkpt lat="43.2261" lon="-0.69239">
        <ele>191.5900032</ele>
        <time>2018-09-30T08:33:24.000Z</time>
      </trkpt>
      <trkpt lat="43.22604" lon="-0.6924">
        <ele>192</ele>
        <time>2018-09-30T08:33:25.000Z</time>
      </trkpt>
      <trkpt lat="43.22597" lon="-0.69241">
        <ele>192</ele>
        <time>2018-09-30T08:33:26.000Z</time>
      </trkpt>
      <trkpt lat="43.22591" lon="-0.69242">
        <ele>192</ele>
        <time>2018-09-30T08:33:27.000Z</time>
      </trkpt>
      <trkpt lat="43.22584" lon="-0.69243">
        <ele>192</ele>
        <time>2018-09-30T08:33:28.000Z</time>
      </trkpt>
      <trkpt lat="43.22578" lon="-0.69244">
        <ele>192</ele>
        <time>2018-09-30T08:33:29.000Z</time>
      </trkpt>
      <trkpt lat="43.22571" lon="-0.69246">
        <ele>192</ele>
        <time>2018-09-30T08:33:30.000Z</time>
      </trkpt>
      <trkpt lat="43.22565" lon="-0.69247">
        <ele>192</ele>
        <time>2018-09-30T08:33:31.000Z</time>
      </trkpt>
      <trkpt lat="43.22558" lon="-0.69249">
        <ele>192</ele>
        <time>2018-09-30T08:33:32.000Z</time>
      </trkpt>
      <trkpt lat="43.22552" lon="-0.6925">
        <ele>192</ele>
        <time>2018-09-30T08:33:33.000Z</time>
      </trkpt>
      <trkpt lat="43.22546" lon="-0.69252">
        <ele>192</ele>
        <time>2018-09-30T08:33:34.000Z</time>
      </trkpt>
      <trkpt lat="43.22539" lon="-0.69253">
        <ele>192</ele>
        <time>2018-09-30T08:33:35.000Z</time>
      </trkpt>
      <trkpt lat="43.22533" lon="-0.69255">
        <ele>191.4099968</ele>
        <time>2018-09-30T08:33:36.000Z</time>
      </trkpt>
      <trkpt lat="43.22527" lon="-0.69256">
        <ele>191</ele>
        <time>2018-09-30T08:33:37.000Z</time>
      </trkpt>
      <trkpt lat="43.2252" lon="-0.69257">
        <ele>191</ele>
        <time>2018-09-30T08:33:38.000Z</time>
      </trkpt>
      <trkpt lat="43.22514" lon="-0.69258">
        <ele>191.43056</ele>
        <time>2018-09-30T08:33:39.000Z</time>
      </trkpt>
      <trkpt lat="43.22508" lon="-0.6926">
        <ele>192</ele>
        <time>2018-09-30T08:33:40.000Z</time>
      </trkpt>
      <trkpt lat="43.22502" lon="-0.69261">
        <ele>192</ele>
        <time>2018-09-30T08:33:41.000Z</time>
      </trkpt>
      <trkpt lat="43.22496" lon="-0.69262">
        <ele>191.41583656503</ele>
        <time>2018-09-30T08:33:42.000Z</time>
      </trkpt>
      <trkpt lat="43.22491" lon="-0.69263">
        <ele>191</ele>
        <time>2018-09-30T08:33:43.000Z</time>
      </trkpt>
      <trkpt lat="43.22485" lon="-0.69265">
        <ele>191.5900032</ele>
        <time>2018-09-30T08:33:44.000Z</time>
      </trkpt>
      <trkpt lat="43.2248" lon="-0.69265">
        <ele>192</ele>
        <time>2018-09-30T08:33:45.000Z</time>
      </trkpt>
      <trkpt lat="43.22475" lon="-0.69266">
        <ele>192</ele>
        <time>2018-09-30T08:33:46.000Z</time>
      </trkpt>
      <trkpt lat="43.2247" lon="-0.69267">
        <ele>192</ele>
        <time>2018-09-30T08:33:47.000Z</time>
      </trkpt>
      <trkpt lat="43.22465" lon="-0.69268">
        <ele>192.5900032</ele>
        <time>2018-09-30T08:33:48.000Z</time>
      </trkpt>
      <trkpt lat="43.22461" lon="-0.69269">
        <ele>193</ele>
        <time>2018-09-30T08:33:49.000Z</time>
      </trkpt>
      <trkpt lat="43.22456" lon="-0.6927">
        <ele>193</ele>
        <time>2018-09-30T08:33:50.000Z</time>
      </trkpt>
      <trkpt lat="43.22452" lon="-0.69271">
        <ele>193.5900032</ele>
        <time>2018-09-30T08:33:51.000Z</time>
      </trkpt>
      <trkpt lat="43.22447" lon="-0.69271">
        <ele>194</ele>
        <time>2018-09-30T08:33:52.000Z</time>
      </trkpt>
      <trkpt lat="43.22443" lon="-0.69272">
        <ele>194</ele>
        <time>2018-09-30T08:33:53.000Z</time>
      </trkpt>
      <trkpt lat="43.22438" lon="-0.69273">
        <ele>194</ele>
        <time>2018-09-30T08:33:54.000Z</time>
      </trkpt>
      <trkpt lat="43.22434" lon="-0.69274">
        <ele>194</ele>
        <time>2018-09-30T08:33:55.000Z</time>
      </trkpt>
      <trkpt lat="43.22429" lon="-0.69275">
        <ele>194</ele>
        <time>2018-09-30T08:33:56.000Z</time>
      </trkpt>
      <trkpt lat="43.22425" lon="-0.69276">
        <ele>194</ele>
        <time>2018-09-30T08:33:57.000Z</time>
      </trkpt>
      <trkpt lat="43.2242" lon="-0.69277">
        <ele>194.43056</ele>
        <time>2018-09-30T08:33:58.000Z</time>
      </trkpt>
      <trkpt lat="43.22416" lon="-0.69278">
        <ele>195</ele>
        <time>2018-09-30T08:33:59.000Z</time>
      </trkpt>
      <trkpt lat="43.22412" lon="-0.69279">
        <ele>195</ele>
        <time>2018-09-30T08:34:00.000Z</time>
      </trkpt>
      <trkpt lat="43.22407" lon="-0.6928">
        <ele>195</ele>
        <time>2018-09-30T08:34:01.000Z</time>
      </trkpt>
      <trkpt lat="43.22403" lon="-0.69281">
        <ele>195</ele>
        <time>2018-09-30T08:34:02.000Z</time>
      </trkpt>
      <trkpt lat="43.22399" lon="-0.69282">
        <ele>195</ele>
        <time>2018-09-30T08:34:03.000Z</time>
      </trkpt>
      <trkpt lat="43.22394" lon="-0.69283">
        <ele>195</ele>
        <time>2018-09-30T08:34:04.000Z</time>
      </trkpt>
      <trkpt lat="43.22389" lon="-0.69284">
        <ele>195</ele>
        <time>2018-09-30T08:34:05.000Z</time>
      </trkpt>
      <trkpt lat="43.22385" lon="-0.69285">
        <ele>195</ele>
        <time>2018-09-30T08:34:06.000Z</time>
      </trkpt>
      <trkpt lat="43.2238" lon="-0.69285">
        <ele>195</ele>
        <time>2018-09-30T08:34:07.000Z</time>
      </trkpt>
      <trkpt lat="43.22376" lon="-0.69286">
        <ele>195</ele>
        <time>2018-09-30T08:34:08.000Z</time>
      </trkpt>
      <trkpt lat="43.22372" lon="-0.69286">
        <ele>195.5900032</ele>
        <time>2018-09-30T08:34:09.000Z</time>
      </trkpt>
      <trkpt lat="43.22368" lon="-0.69287">
        <ele>196</ele>
        <time>2018-09-30T08:34:10.000Z</time>
      </trkpt>
      <trkpt lat="43.22364" lon="-0.69287">
        <ele>196</ele>
        <time>2018-09-30T08:34:11.000Z</time>
      </trkpt>
      <trkpt lat="43.2236" lon="-0.69288">
        <ele>196</ele>
        <time>2018-09-30T08:34:12.000Z</time>
      </trkpt>
      <trkpt lat="43.22356" lon="-0.69289">
        <ele>196</ele>
        <time>2018-09-30T08:34:13.000Z</time>
      </trkpt>
      <trkpt lat="43.22352" lon="-0.69289">
        <ele>196</ele>
        <time>2018-09-30T08:34:14.000Z</time>
      </trkpt>
      <trkpt lat="43.22348" lon="-0.6929">
        <ele>196.5900032</ele>
        <time>2018-09-30T08:34:15.000Z</time>
      </trkpt>
      <trkpt lat="43.22344" lon="-0.69291">
        <ele>197.45736341807</ele>
        <time>2018-09-30T08:34:16.000Z</time>
      </trkpt>
      <trkpt lat="43.2234" lon="-0.69291">
        <ele>198</ele>
        <time>2018-09-30T08:34:17.000Z</time>
      </trkpt>
      <trkpt lat="43.22337" lon="-0.69292">
        <ele>198.5900032</ele>
        <time>2018-09-30T08:34:18.000Z</time>
      </trkpt>
      <trkpt lat="43.22333" lon="-0.69294">
        <ele>199</ele>
        <time>2018-09-30T08:34:19.000Z</time>
      </trkpt>
      <trkpt lat="43.2233" lon="-0.69295">
        <ele>199</ele>
        <time>2018-09-30T08:34:20.000Z</time>
      </trkpt>
      <trkpt lat="43.22323" lon="-0.69299">
        <ele>199</ele>
        <time>2018-09-30T08:34:22.000Z</time>
      </trkpt>
      <trkpt lat="43.22318" lon="-0.69303">
        <ele>199</ele>
        <time>2018-09-30T08:34:24.000Z</time>
      </trkpt>
      <trkpt lat="43.22316" lon="-0.69306">
        <ele>199</ele>
        <time>2018-09-30T08:34:25.000Z</time>
      </trkpt>
      <trkpt lat="43.22312" lon="-0.6931">
        <ele>199</ele>
        <time>2018-09-30T08:34:26.000Z</time>
      </trkpt>
      <trkpt lat="43.22309" lon="-0.69314">
        <ele>199</ele>
        <time>2018-09-30T08:34:27.000Z</time>
      </trkpt>
      <trkpt lat="43.22304" lon="-0.69319">
        <ele>199</ele>
        <time>2018-09-30T08:34:28.000Z</time>
      </trkpt>
      <trkpt lat="43.223" lon="-0.69324">
        <ele>199</ele>
        <time>2018-09-30T08:34:29.000Z</time>
      </trkpt>
      <trkpt lat="43.22296" lon="-0.6933">
        <ele>198.4099968</ele>
        <time>2018-09-30T08:34:30.000Z</time>
      </trkpt>
      <trkpt lat="43.22291" lon="-0.69336">
        <ele>198</ele>
        <time>2018-09-30T08:34:31.000Z</time>
      </trkpt>
      <trkpt lat="43.22285" lon="-0.69343">
        <ele>198</ele>
        <time>2018-09-30T08:34:32.000Z</time>
      </trkpt>
      <trkpt lat="43.22279" lon="-0.69349">
        <ele>197.4099968</ele>
        <time>2018-09-30T08:34:33.000Z</time>
      </trkpt>
      <trkpt lat="43.22273" lon="-0.69355">
        <ele>197</ele>
        <time>2018-09-30T08:34:34.000Z</time>
      </trkpt>
      <trkpt lat="43.22266" lon="-0.6936">
        <ele>197</ele>
        <time>2018-09-30T08:34:35.000Z</time>
      </trkpt>
      <trkpt lat="43.22258" lon="-0.69364">
        <ele>197</ele>
        <time>2018-09-30T08:34:36.000Z</time>
      </trkpt>
      <trkpt lat="43.2225" lon="-0.69367">
        <ele>197</ele>
        <time>2018-09-30T08:34:37.000Z</time>
      </trkpt>
      <trkpt lat="43.22242" lon="-0.69369">
        <ele>196.5857150694</ele>
        <time>2018-09-30T08:34:38.000Z</time>
      </trkpt>
      <trkpt lat="43.22234" lon="-0.69371">
        <ele>195.4099968</ele>
        <time>2018-09-30T08:34:39.000Z</time>
      </trkpt>
      <trkpt lat="43.22226" lon="-0.69373">
        <ele>195</ele>
        <time>2018-09-30T08:34:40.000Z</time>
      </trkpt>
      <trkpt lat="43.22218" lon="-0.69375">
        <ele>195</ele>
        <time>2018-09-30T08:34:41.000Z</time>
      </trkpt>
      <trkpt lat="43.22209" lon="-0.69377">
        <ele>195</ele>
        <time>2018-09-30T08:34:42.000Z</time>
      </trkpt>
      <trkpt lat="43.222" lon="-0.69379">
        <ele>195</ele>
        <time>2018-09-30T08:34:43.000Z</time>
      </trkpt>
      <trkpt lat="43.22191" lon="-0.69381">
        <ele>194.5857150694</ele>
        <time>2018-09-30T08:34:44.000Z</time>
      </trkpt>
      <trkpt lat="43.22183" lon="-0.69383">
        <ele>194</ele>
        <time>2018-09-30T08:34:45.000Z</time>
      </trkpt>
      <trkpt lat="43.22174" lon="-0.69386">
        <ele>194</ele>
        <time>2018-09-30T08:34:46.000Z</time>
      </trkpt>
      <trkpt lat="43.22165" lon="-0.69388">
        <ele>193.4099968</ele>
        <time>2018-09-30T08:34:47.000Z</time>
      </trkpt>
      <trkpt lat="43.22157" lon="-0.6939">
        <ele>193</ele>
        <time>2018-09-30T08:34:48.000Z</time>
      </trkpt>
      <trkpt lat="43.22148" lon="-0.69392">
        <ele>193</ele>
        <time>2018-09-30T08:34:49.000Z</time>
      </trkpt>
      <trkpt lat="43.22139" lon="-0.69394">
        <ele>192.5857150694</ele>
        <time>2018-09-30T08:34:50.000Z</time>
      </trkpt>
      <trkpt lat="43.2213" lon="-0.69396">
        <ele>192</ele>
        <time>2018-09-30T08:34:51.000Z</time>
      </trkpt>
      <trkpt lat="43.22122" lon="-0.69397">
        <ele>192</ele>
        <time>2018-09-30T08:34:52.000Z</time>
      </trkpt>
      <trkpt lat="43.22113" lon="-0.69396">
        <ele>192</ele>
        <time>2018-09-30T08:34:53.000Z</time>
      </trkpt>
      <trkpt lat="43.22105" lon="-0.69394">
        <ele>192</ele>
        <time>2018-09-30T08:34:54.000Z</time>
      </trkpt>
      <trkpt lat="43.22098" lon="-0.6939">
        <ele>192</ele>
        <time>2018-09-30T08:34:55.000Z</time>
      </trkpt>
      <trkpt lat="43.22091" lon="-0.69384">
        <ele>192</ele>
        <time>2018-09-30T08:34:56.000Z</time>
      </trkpt>
      <trkpt lat="43.22085" lon="-0.69377">
        <ele>191.4099968</ele>
        <time>2018-09-30T08:34:57.000Z</time>
      </trkpt>
      <trkpt lat="43.2208" lon="-0.6937">
        <ele>191</ele>
        <time>2018-09-30T08:34:58.000Z</time>
      </trkpt>
      <trkpt lat="43.22074" lon="-0.69364">
        <ele>191</ele>
        <time>2018-09-30T08:34:59.000Z</time>
      </trkpt>
      <trkpt lat="43.22069" lon="-0.69357">
        <ele>191</ele>
        <time>2018-09-30T08:35:00.000Z</time>
      </trkpt>
      <trkpt lat="43.22064" lon="-0.69351">
        <ele>191</ele>
        <time>2018-09-30T08:35:01.000Z</time>
      </trkpt>
      <trkpt lat="43.2206" lon="-0.69344">
        <ele>191</ele>
        <time>2018-09-30T08:35:02.000Z</time>
      </trkpt>
      <trkpt lat="43.22055" lon="-0.69339">
        <ele>191</ele>
        <time>2018-09-30T08:35:03.000Z</time>
      </trkpt>
      <trkpt lat="43.22051" lon="-0.69333">
        <ele>191</ele>
        <time>2018-09-30T08:35:04.000Z</time>
      </trkpt>
      <trkpt lat="43.22046" lon="-0.69328">
        <ele>191.5900032</ele>
        <time>2018-09-30T08:35:05.000Z</time>
      </trkpt>
      <trkpt lat="43.22041" lon="-0.69325">
        <ele>192</ele>
        <time>2018-09-30T08:35:06.000Z</time>
      </trkpt>
      <trkpt lat="43.22036" lon="-0.69322">
        <ele>192.45736795626</ele>
        <time>2018-09-30T08:35:07.000Z</time>
      </trkpt>
      <trkpt lat="43.22031" lon="-0.6932">
        <ele>193</ele>
        <time>2018-09-30T08:35:08.000Z</time>
      </trkpt>
      <trkpt lat="43.22026" lon="-0.69319">
        <ele>193</ele>
        <time>2018-09-30T08:35:09.000Z</time>
      </trkpt>
      <trkpt lat="43.22022" lon="-0.69319">
        <ele>193</ele>
        <time>2018-09-30T08:35:10.000Z</time>
      </trkpt>
      <trkpt lat="43.22017" lon="-0.6932">
        <ele>193</ele>
        <time>2018-09-30T08:35:11.000Z</time>
      </trkpt>
      <trkpt lat="43.22013" lon="-0.69323">
        <ele>193</ele>
        <time>2018-09-30T08:35:12.000Z</time>
      </trkpt>
      <trkpt lat="43.22011" lon="-0.69328">
        <ele>193.45313</ele>
        <time>2018-09-30T08:35:13.000Z</time>
      </trkpt>
      <trkpt lat="43.22009" lon="-0.69333">
        <ele>194</ele>
        <time>2018-09-30T08:35:14.000Z</time>
      </trkpt>
      <trkpt lat="43.22009" lon="-0.69338">
        <ele>194.5900032</ele>
        <time>2018-09-30T08:35:15.000Z</time>
      </trkpt>
      <trkpt lat="43.22009" lon="-0.69346">
        <ele>195</ele>
        <time>2018-09-30T08:35:17.000Z</time>
      </trkpt>
      <trkpt lat="43.22009" lon="-0.69353">
        <ele>195</ele>
        <time>2018-09-30T08:35:19.000Z</time>
      </trkpt>
      <trkpt lat="43.22008" lon="-0.6936">
        <ele>196</ele>
        <time>2018-09-30T08:35:21.000Z</time>
      </trkpt>
      <trkpt lat="43.22008" lon="-0.69366">
        <ele>196</ele>
        <time>2018-09-30T08:35:23.000Z</time>
      </trkpt>
      <trkpt lat="43.22008" lon="-0.69373">
        <ele>196</ele>
        <time>2018-09-30T08:35:25.000Z</time>
      </trkpt>
      <trkpt lat="43.22008" lon="-0.69379">
        <ele>196.5900032</ele>
        <time>2018-09-30T08:35:27.000Z</time>
      </trkpt>
      <trkpt lat="43.22007" lon="-0.69385">
        <ele>197.43056</ele>
        <time>2018-09-30T08:35:29.000Z</time>
      </trkpt>
      <trkpt lat="43.22008" lon="-0.69391">
        <ele>198</ele>
        <time>2018-09-30T08:35:31.000Z</time>
      </trkpt>
      <trkpt lat="43.22008" lon="-0.69397">
        <ele>198</ele>
        <time>2018-09-30T08:35:33.000Z</time>
      </trkpt>
      <trkpt lat="43.22008" lon="-0.69403">
        <ele>199</ele>
        <time>2018-09-30T08:35:35.000Z</time>
      </trkpt>
      <trkpt lat="43.22009" lon="-0.69409">
        <ele>199.5900032</ele>
        <time>2018-09-30T08:35:37.000Z</time>
      </trkpt>
      <trkpt lat="43.2201" lon="-0.69414">
        <ele>200</ele>
        <time>2018-09-30T08:35:39.000Z</time>
      </trkpt>
      <trkpt lat="43.22012" lon="-0.69419">
        <ele>200</ele>
        <time>2018-09-30T08:35:41.000Z</time>
      </trkpt>
      <trkpt lat="43.22013" lon="-0.69425">
        <ele>200.58415603178</ele>
        <time>2018-09-30T08:35:43.000Z</time>
      </trkpt>
      <trkpt lat="43.22014" lon="-0.69431">
        <ele>201</ele>
        <time>2018-09-30T08:35:45.000Z</time>
      </trkpt>
      <trkpt lat="43.22014" lon="-0.69438">
        <ele>201</ele>
        <time>2018-09-30T08:35:47.000Z</time>
      </trkpt>
      <trkpt lat="43.22015" lon="-0.69444">
        <ele>202</ele>
        <time>2018-09-30T08:35:49.000Z</time>
      </trkpt>
      <trkpt lat="43.22016" lon="-0.6945">
        <ele>203</ele>
        <time>2018-09-30T08:35:51.000Z</time>
      </trkpt>
      <trkpt lat="43.22016" lon="-0.69457">
        <ele>204</ele>
        <time>2018-09-30T08:35:53.000Z</time>
      </trkpt>
      <trkpt lat="43.22017" lon="-0.69463">
        <ele>204</ele>
        <time>2018-09-30T08:35:55.000Z</time>
      </trkpt>
      <trkpt lat="43.22017" lon="-0.6947">
        <ele>205</ele>
        <time>2018-09-30T08:35:57.000Z</time>
      </trkpt>
      <trkpt lat="43.22019" lon="-0.69476">
        <ele>205</ele>
        <time>2018-09-30T08:35:59.000Z</time>
      </trkpt>
      <trkpt lat="43.2202" lon="-0.69481">
        <ele>205.4099968</ele>
        <time>2018-09-30T08:36:01.000Z</time>
      </trkpt>
      <trkpt lat="43.22022" lon="-0.69486">
        <ele>205.58163318618</ele>
        <time>2018-09-30T08:36:03.000Z</time>
      </trkpt>
      <trkpt lat="43.22024" lon="-0.69492">
        <ele>206</ele>
        <time>2018-09-30T08:36:05.000Z</time>
      </trkpt>
      <trkpt lat="43.22026" lon="-0.69496">
        <ele>207</ele>
        <time>2018-09-30T08:36:07.000Z</time>
      </trkpt>
      <trkpt lat="43.22029" lon="-0.69501">
        <ele>208</ele>
        <time>2018-09-30T08:36:09.000Z</time>
      </trkpt>
      <trkpt lat="43.22031" lon="-0.69505">
        <ele>208.43056</ele>
        <time>2018-09-30T08:36:11.000Z</time>
      </trkpt>
      <trkpt lat="43.22031" lon="-0.6951">
        <ele>209</ele>
        <time>2018-09-30T08:36:13.000Z</time>
      </trkpt>
      <trkpt lat="43.22031" lon="-0.69516">
        <ele>209</ele>
        <time>2018-09-30T08:36:15.000Z</time>
      </trkpt>
      <trkpt lat="43.22032" lon="-0.69522">
        <ele>210.5900032</ele>
        <time>2018-09-30T08:36:17.000Z</time>
      </trkpt>
      <trkpt lat="43.22033" lon="-0.69528">
        <ele>211</ele>
        <time>2018-09-30T08:36:19.000Z</time>
      </trkpt>
      <trkpt lat="43.22033" lon="-0.69534">
        <ele>211</ele>
        <time>2018-09-30T08:36:21.000Z</time>
      </trkpt>
      <trkpt lat="43.22034" lon="-0.69539">
        <ele>211.5900032</ele>
        <time>2018-09-30T08:36:23.000Z</time>
      </trkpt>
      <trkpt lat="43.22035" lon="-0.69546">
        <ele>212</ele>
        <time>2018-09-30T08:36:25.000Z</time>
      </trkpt>
      <trkpt lat="43.22034" lon="-0.69552">
        <ele>212.58163318618</ele>
        <time>2018-09-30T08:36:27.000Z</time>
      </trkpt>
      <trkpt lat="43.22034" lon="-0.69558">
        <ele>213.45384638106</ele>
        <time>2018-09-30T08:36:29.000Z</time>
      </trkpt>
      <trkpt lat="43.22034" lon="-0.69565">
        <ele>214.5900032</ele>
        <time>2018-09-30T08:36:31.000Z</time>
      </trkpt>
      <trkpt lat="43.22034" lon="-0.69571">
        <ele>215</ele>
        <time>2018-09-30T08:36:33.000Z</time>
      </trkpt>
      <trkpt lat="43.22034" lon="-0.69577">
        <ele>215</ele>
        <time>2018-09-30T08:36:35.000Z</time>
      </trkpt>
      <trkpt lat="43.22034" lon="-0.69584">
        <ele>215.43056</ele>
        <time>2018-09-30T08:36:37.000Z</time>
      </trkpt>
      <trkpt lat="43.22034" lon="-0.6959">
        <ele>216</ele>
        <time>2018-09-30T08:36:39.000Z</time>
      </trkpt>
      <trkpt lat="43.22034" lon="-0.69597">
        <ele>216</ele>
        <time>2018-09-30T08:36:41.000Z</time>
      </trkpt>
      <trkpt lat="43.22033" lon="-0.69603">
        <ele>216</ele>
        <time>2018-09-30T08:36:43.000Z</time>
      </trkpt>
      <trkpt lat="43.22033" lon="-0.69609">
        <ele>217</ele>
        <time>2018-09-30T08:36:45.000Z</time>
      </trkpt>
      <trkpt lat="43.22031" lon="-0.69616">
        <ele>217.5900032</ele>
        <time>2018-09-30T08:36:47.000Z</time>
      </trkpt>
      <trkpt lat="43.2203" lon="-0.69622">
        <ele>218</ele>
        <time>2018-09-30T08:36:49.000Z</time>
      </trkpt>
      <trkpt lat="43.22029" lon="-0.69629">
        <ele>219</ele>
        <time>2018-09-30T08:36:51.000Z</time>
      </trkpt>
      <trkpt lat="43.22027" lon="-0.69635">
        <ele>219</ele>
        <time>2018-09-30T08:36:53.000Z</time>
      </trkpt>
      <trkpt lat="43.22026" lon="-0.6964">
        <ele>219</ele>
        <time>2018-09-30T08:36:55.000Z</time>
      </trkpt>
      <trkpt lat="43.22024" lon="-0.69645">
        <ele>219</ele>
        <time>2018-09-30T08:36:58.000Z</time>
      </trkpt>
      <trkpt lat="43.22025" lon="-0.6965">
        <ele>219</ele>
        <time>2018-09-30T08:37:01.000Z</time>
      </trkpt>
      <trkpt lat="43.22023" lon="-0.69656">
        <ele>219</ele>
        <time>2018-09-30T08:37:05.000Z</time>
      </trkpt>
      <trkpt lat="43.22021" lon="-0.69662">
        <ele>219</ele>
        <time>2018-09-30T08:37:09.000Z</time>
      </trkpt>
      <trkpt lat="43.22018" lon="-0.69667">
        <ele>219</ele>
        <time>2018-09-30T08:37:12.000Z</time>
      </trkpt>
      <trkpt lat="43.22014" lon="-0.69672">
        <ele>219</ele>
        <time>2018-09-30T08:37:15.000Z</time>
      </trkpt>
      <trkpt lat="43.22012" lon="-0.69678">
        <ele>219</ele>
        <time>2018-09-30T08:37:18.000Z</time>
      </trkpt>
      <trkpt lat="43.2201" lon="-0.69683">
        <ele>219</ele>
        <time>2018-09-30T08:37:21.000Z</time>
      </trkpt>
      <trkpt lat="43.22009" lon="-0.69689">
        <ele>219</ele>
        <time>2018-09-30T08:37:23.000Z</time>
      </trkpt>
      <trkpt lat="43.22006" lon="-0.69698">
        <ele>219</ele>
        <time>2018-09-30T08:37:25.000Z</time>
      </trkpt>
      <trkpt lat="43.22004" lon="-0.69704">
        <ele>219</ele>
        <time>2018-09-30T08:37:26.000Z</time>
      </trkpt>
      <trkpt lat="43.22003" lon="-0.6971">
        <ele>219</ele>
        <time>2018-09-30T08:37:27.000Z</time>
      </trkpt>
      <trkpt lat="43.22001" lon="-0.69716">
        <ele>219</ele>
        <time>2018-09-30T08:37:28.000Z</time>
      </trkpt>
      <trkpt lat="43.22" lon="-0.69722">
        <ele>219.5900032</ele>
        <time>2018-09-30T08:37:29.000Z</time>
      </trkpt>
      <trkpt lat="43.22" lon="-0.69728">
        <ele>220</ele>
        <time>2018-09-30T08:37:30.000Z</time>
      </trkpt>
      <trkpt lat="43.21999" lon="-0.69734">
        <ele>220</ele>
        <time>2018-09-30T08:37:31.000Z</time>
      </trkpt>
      <trkpt lat="43.21998" lon="-0.69739">
        <ele>220.5900032</ele>
        <time>2018-09-30T08:37:32.000Z</time>
      </trkpt>
      <trkpt lat="43.21997" lon="-0.69744">
        <ele>221</ele>
        <time>2018-09-30T08:37:33.000Z</time>
      </trkpt>
      <trkpt lat="43.21996" lon="-0.6975">
        <ele>221</ele>
        <time>2018-09-30T08:37:34.000Z</time>
      </trkpt>
      <trkpt lat="43.21996" lon="-0.69755">
        <ele>221</ele>
        <time>2018-09-30T08:37:35.000Z</time>
      </trkpt>
      <trkpt lat="43.21995" lon="-0.6976">
        <ele>221</ele>
        <time>2018-09-30T08:37:36.000Z</time>
      </trkpt>
      <trkpt lat="43.21995" lon="-0.69765">
        <ele>221</ele>
        <time>2018-09-30T08:37:37.000Z</time>
      </trkpt>
      <trkpt lat="43.21994" lon="-0.6977">
        <ele>221</ele>
        <time>2018-09-30T08:37:38.000Z</time>
      </trkpt>
      <trkpt lat="43.21994" lon="-0.69775">
        <ele>221</ele>
        <time>2018-09-30T08:37:39.000Z</time>
      </trkpt>
      <trkpt lat="43.21994" lon="-0.6978">
        <ele>221</ele>
        <time>2018-09-30T08:37:40.000Z</time>
      </trkpt>
      <trkpt lat="43.21993" lon="-0.69785">
        <ele>221</ele>
        <time>2018-09-30T08:37:41.000Z</time>
      </trkpt>
      <trkpt lat="43.21993" lon="-0.69791">
        <ele>221</ele>
        <time>2018-09-30T08:37:42.000Z</time>
      </trkpt>
      <trkpt lat="43.21992" lon="-0.69796">
        <ele>221</ele>
        <time>2018-09-30T08:37:43.000Z</time>
      </trkpt>
      <trkpt lat="43.21992" lon="-0.69801">
        <ele>221</ele>
        <time>2018-09-30T08:37:44.000Z</time>
      </trkpt>
      <trkpt lat="43.21991" lon="-0.69807">
        <ele>221</ele>
        <time>2018-09-30T08:37:45.000Z</time>
      </trkpt>
      <trkpt lat="43.21991" lon="-0.69812">
        <ele>221</ele>
        <time>2018-09-30T08:37:46.000Z</time>
      </trkpt>
      <trkpt lat="43.2199" lon="-0.69817">
        <ele>221</ele>
        <time>2018-09-30T08:37:47.000Z</time>
      </trkpt>
      <trkpt lat="43.21989" lon="-0.69822">
        <ele>221.5900032</ele>
        <time>2018-09-30T08:37:48.000Z</time>
      </trkpt>
      <trkpt lat="43.21989" lon="-0.69828">
        <ele>222</ele>
        <time>2018-09-30T08:37:49.000Z</time>
      </trkpt>
      <trkpt lat="43.21988" lon="-0.69833">
        <ele>222</ele>
        <time>2018-09-30T08:37:50.000Z</time>
      </trkpt>
      <trkpt lat="43.21987" lon="-0.69838">
        <ele>222</ele>
        <time>2018-09-30T08:37:51.000Z</time>
      </trkpt>
      <trkpt lat="43.21986" lon="-0.69843">
        <ele>222</ele>
        <time>2018-09-30T08:37:52.000Z</time>
      </trkpt>
      <trkpt lat="43.21985" lon="-0.69848">
        <ele>222.5900032</ele>
        <time>2018-09-30T08:37:53.000Z</time>
      </trkpt>
      <trkpt lat="43.21984" lon="-0.69853">
        <ele>223</ele>
        <time>2018-09-30T08:37:54.000Z</time>
      </trkpt>
      <trkpt lat="43.21984" lon="-0.69858">
        <ele>223</ele>
        <time>2018-09-30T08:37:55.000Z</time>
      </trkpt>
      <trkpt lat="43.21983" lon="-0.69863">
        <ele>223</ele>
        <time>2018-09-30T08:37:56.000Z</time>
      </trkpt>
      <trkpt lat="43.21981" lon="-0.69872">
        <ele>224</ele>
        <time>2018-09-30T08:37:58.000Z</time>
      </trkpt>
      <trkpt lat="43.2198" lon="-0.69881">
        <ele>224</ele>
        <time>2018-09-30T08:38:00.000Z</time>
      </trkpt>
      <trkpt lat="43.21978" lon="-0.69889">
        <ele>225</ele>
        <time>2018-09-30T08:38:02.000Z</time>
      </trkpt>
      <trkpt lat="43.21976" lon="-0.69897">
        <ele>226</ele>
        <time>2018-09-30T08:38:04.000Z</time>
      </trkpt>
      <trkpt lat="43.21975" lon="-0.69904">
        <ele>226.5900032</ele>
        <time>2018-09-30T08:38:06.000Z</time>
      </trkpt>
      <trkpt lat="43.21973" lon="-0.69911">
        <ele>227</ele>
        <time>2018-09-30T08:38:08.000Z</time>
      </trkpt>
      <trkpt lat="43.21972" lon="-0.69919">
        <ele>227</ele>
        <time>2018-09-30T08:38:10.000Z</time>
      </trkpt>
      <trkpt lat="43.2197" lon="-0.69926">
        <ele>228</ele>
        <time>2018-09-30T08:38:12.000Z</time>
      </trkpt>
      <trkpt lat="43.21968" lon="-0.69932">
        <ele>228</ele>
        <time>2018-09-30T08:38:14.000Z</time>
      </trkpt>
      <trkpt lat="43.21966" lon="-0.69938">
        <ele>228</ele>
        <time>2018-09-30T08:38:16.000Z</time>
      </trkpt>
      <trkpt lat="43.21965" lon="-0.69946">
        <ele>228</ele>
        <time>2018-09-30T08:38:18.000Z</time>
      </trkpt>
      <trkpt lat="43.21963" lon="-0.69954">
        <ele>228.5900032</ele>
        <time>2018-09-30T08:38:20.000Z</time>
      </trkpt>
      <trkpt lat="43.21961" lon="-0.69963">
        <ele>229</ele>
        <time>2018-09-30T08:38:22.000Z</time>
      </trkpt>
      <trkpt lat="43.2196" lon="-0.69972">
        <ele>229</ele>
        <time>2018-09-30T08:38:24.000Z</time>
      </trkpt>
      <trkpt lat="43.21959" lon="-0.69977">
        <ele>229</ele>
        <time>2018-09-30T08:38:25.000Z</time>
      </trkpt>
      <trkpt lat="43.21958" lon="-0.69987">
        <ele>229</ele>
        <time>2018-09-30T08:38:27.000Z</time>
      </trkpt>
      <trkpt lat="43.21958" lon="-0.69996">
        <ele>229</ele>
        <time>2018-09-30T08:38:29.000Z</time>
      </trkpt>
      <trkpt lat="43.21957" lon="-0.70002">
        <ele>229</ele>
        <time>2018-09-30T08:38:30.000Z</time>
      </trkpt>
      <trkpt lat="43.21957" lon="-0.70007">
        <ele>229</ele>
        <time>2018-09-30T08:38:31.000Z</time>
      </trkpt>
      <trkpt lat="43.21956" lon="-0.70012">
        <ele>229</ele>
        <time>2018-09-30T08:38:32.000Z</time>
      </trkpt>
      <trkpt lat="43.21956" lon="-0.70017">
        <ele>229</ele>
        <time>2018-09-30T08:38:33.000Z</time>
      </trkpt>
      <trkpt lat="43.21955" lon="-0.70022">
        <ele>229</ele>
        <time>2018-09-30T08:38:34.000Z</time>
      </trkpt>
      <trkpt lat="43.21955" lon="-0.70028">
        <ele>229.5900032</ele>
        <time>2018-09-30T08:38:35.000Z</time>
      </trkpt>
      <trkpt lat="43.21954" lon="-0.70033">
        <ele>230</ele>
        <time>2018-09-30T08:38:36.000Z</time>
      </trkpt>
      <trkpt lat="43.21954" lon="-0.70039">
        <ele>230</ele>
        <time>2018-09-30T08:38:37.000Z</time>
      </trkpt>
      <trkpt lat="43.21954" lon="-0.70044">
        <ele>230</ele>
        <time>2018-09-30T08:38:38.000Z</time>
      </trkpt>
      <trkpt lat="43.21953" lon="-0.70049">
        <ele>230</ele>
        <time>2018-09-30T08:38:39.000Z</time>
      </trkpt>
      <trkpt lat="43.21953" lon="-0.70054">
        <ele>230</ele>
        <time>2018-09-30T08:38:40.000Z</time>
      </trkpt>
      <trkpt lat="43.21952" lon="-0.70059">
        <ele>230</ele>
        <time>2018-09-30T08:38:41.000Z</time>
      </trkpt>
      <trkpt lat="43.21952" lon="-0.70069">
        <ele>230</ele>
        <time>2018-09-30T08:38:43.000Z</time>
      </trkpt>
      <trkpt lat="43.21951" lon="-0.70077">
        <ele>231</ele>
        <time>2018-09-30T08:38:45.000Z</time>
      </trkpt>
      <trkpt lat="43.21951" lon="-0.70086">
        <ele>231</ele>
        <time>2018-09-30T08:38:47.000Z</time>
      </trkpt>
      <trkpt lat="43.21951" lon="-0.70095">
        <ele>231</ele>
        <time>2018-09-30T08:38:49.000Z</time>
      </trkpt>
      <trkpt lat="43.21952" lon="-0.70103">
        <ele>231</ele>
        <time>2018-09-30T08:38:51.000Z</time>
      </trkpt>
      <trkpt lat="43.21952" lon="-0.70112">
        <ele>231</ele>
        <time>2018-09-30T08:38:53.000Z</time>
      </trkpt>
      <trkpt lat="43.21952" lon="-0.70121">
        <ele>231.58586315681</ele>
        <time>2018-09-30T08:38:55.000Z</time>
      </trkpt>
      <trkpt lat="43.21952" lon="-0.70129">
        <ele>232</ele>
        <time>2018-09-30T08:38:57.000Z</time>
      </trkpt>
      <trkpt lat="43.21952" lon="-0.70137">
        <ele>233</ele>
        <time>2018-09-30T08:38:59.000Z</time>
      </trkpt>
      <trkpt lat="43.21953" lon="-0.70146">
        <ele>233</ele>
        <time>2018-09-30T08:39:01.000Z</time>
      </trkpt>
      <trkpt lat="43.21953" lon="-0.70155">
        <ele>233</ele>
        <time>2018-09-30T08:39:03.000Z</time>
      </trkpt>
      <trkpt lat="43.21953" lon="-0.70164">
        <ele>233</ele>
        <time>2018-09-30T08:39:05.000Z</time>
      </trkpt>
      <trkpt lat="43.21953" lon="-0.70174">
        <ele>233</ele>
        <time>2018-09-30T08:39:07.000Z</time>
      </trkpt>
      <trkpt lat="43.21953" lon="-0.70183">
        <ele>233</ele>
        <time>2018-09-30T08:39:09.000Z</time>
      </trkpt>
      <trkpt lat="43.21954" lon="-0.70192">
        <ele>233</ele>
        <time>2018-09-30T08:39:11.000Z</time>
      </trkpt>
      <trkpt lat="43.21955" lon="-0.70198">
        <ele>233</ele>
        <time>2018-09-30T08:39:12.000Z</time>
      </trkpt>
      <trkpt lat="43.21955" lon="-0.70204">
        <ele>233</ele>
        <time>2018-09-30T08:39:13.000Z</time>
      </trkpt>
      <trkpt lat="43.21955" lon="-0.70209">
        <ele>233</ele>
        <time>2018-09-30T08:39:14.000Z</time>
      </trkpt>
      <trkpt lat="43.21956" lon="-0.70214">
        <ele>233</ele>
        <time>2018-09-30T08:39:15.000Z</time>
      </trkpt>
      <trkpt lat="43.21956" lon="-0.70219">
        <ele>233</ele>
        <time>2018-09-30T08:39:16.000Z</time>
      </trkpt>
      <trkpt lat="43.21957" lon="-0.70224">
        <ele>233</ele>
        <time>2018-09-30T08:39:17.000Z</time>
      </trkpt>
      <trkpt lat="43.21958" lon="-0.70229">
        <ele>233</ele>
        <time>2018-09-30T08:39:18.000Z</time>
      </trkpt>
      <trkpt lat="43.21959" lon="-0.70235">
        <ele>233</ele>
        <time>2018-09-30T08:39:19.000Z</time>
      </trkpt>
      <trkpt lat="43.2196" lon="-0.7024">
        <ele>233</ele>
        <time>2018-09-30T08:39:20.000Z</time>
      </trkpt>
      <trkpt lat="43.21961" lon="-0.70246">
        <ele>233</ele>
        <time>2018-09-30T08:39:21.000Z</time>
      </trkpt>
      <trkpt lat="43.21962" lon="-0.70252">
        <ele>233</ele>
        <time>2018-09-30T08:39:22.000Z</time>
      </trkpt>
      <trkpt lat="43.21962" lon="-0.70259">
        <ele>233</ele>
        <time>2018-09-30T08:39:23.000Z</time>
      </trkpt>
      <trkpt lat="43.21963" lon="-0.70265">
        <ele>233</ele>
        <time>2018-09-30T08:39:24.000Z</time>
      </trkpt>
      <trkpt lat="43.21964" lon="-0.70273">
        <ele>233</ele>
        <time>2018-09-30T08:39:25.000Z</time>
      </trkpt>
      <trkpt lat="43.21965" lon="-0.70279">
        <ele>232.4099968</ele>
        <time>2018-09-30T08:39:26.000Z</time>
      </trkpt>
      <trkpt lat="43.21966" lon="-0.70285">
        <ele>232</ele>
        <time>2018-09-30T08:39:27.000Z</time>
      </trkpt>
      <trkpt lat="43.21967" lon="-0.70293">
        <ele>232</ele>
        <time>2018-09-30T08:39:28.000Z</time>
      </trkpt>
      <trkpt lat="43.21968" lon="-0.703">
        <ele>232</ele>
        <time>2018-09-30T08:39:29.000Z</time>
      </trkpt>
      <trkpt lat="43.21968" lon="-0.70307">
        <ele>232</ele>
        <time>2018-09-30T08:39:30.000Z</time>
      </trkpt>
      <trkpt lat="43.21969" lon="-0.70316">
        <ele>232</ele>
        <time>2018-09-30T08:39:31.000Z</time>
      </trkpt>
      <trkpt lat="43.2197" lon="-0.70324">
        <ele>232</ele>
        <time>2018-09-30T08:39:32.000Z</time>
      </trkpt>
      <trkpt lat="43.21971" lon="-0.70332">
        <ele>232</ele>
        <time>2018-09-30T08:39:33.000Z</time>
      </trkpt>
      <trkpt lat="43.21972" lon="-0.7034">
        <ele>232</ele>
        <time>2018-09-30T08:39:34.000Z</time>
      </trkpt>
      <trkpt lat="43.21974" lon="-0.70346">
        <ele>232</ele>
        <time>2018-09-30T08:39:35.000Z</time>
      </trkpt>
      <trkpt lat="43.21976" lon="-0.70352">
        <ele>232</ele>
        <time>2018-09-30T08:39:36.000Z</time>
      </trkpt>
      <trkpt lat="43.21978" lon="-0.70357">
        <ele>232</ele>
        <time>2018-09-30T08:39:37.000Z</time>
      </trkpt>
      <trkpt lat="43.2198" lon="-0.70361">
        <ele>232.5900032</ele>
        <time>2018-09-30T08:39:38.000Z</time>
      </trkpt>
      <trkpt lat="43.21985" lon="-0.70368">
        <ele>233</ele>
        <time>2018-09-30T08:39:40.000Z</time>
      </trkpt>
      <trkpt lat="43.21988" lon="-0.70372">
        <ele>234</ele>
        <time>2018-09-30T08:39:42.000Z</time>
      </trkpt>
      <trkpt lat="43.21991" lon="-0.70376">
        <ele>235</ele>
        <time>2018-09-30T08:39:44.000Z</time>
      </trkpt>
      <trkpt lat="43.21995" lon="-0.7038">
        <ele>235</ele>
        <time>2018-09-30T08:39:46.000Z</time>
      </trkpt>
      <trkpt lat="43.21998" lon="-0.70383">
        <ele>236</ele>
        <time>2018-09-30T08:39:48.000Z</time>
      </trkpt>
      <trkpt lat="43.22001" lon="-0.70386">
        <ele>236</ele>
        <time>2018-09-30T08:39:50.000Z</time>
      </trkpt>
      <trkpt lat="43.22004" lon="-0.70389">
        <ele>236.5900032</ele>
        <time>2018-09-30T08:39:52.000Z</time>
      </trkpt>
      <trkpt lat="43.22007" lon="-0.70392">
        <ele>237</ele>
        <time>2018-09-30T08:39:54.000Z</time>
      </trkpt>
      <trkpt lat="43.22011" lon="-0.70394">
        <ele>237.58585780226</ele>
        <time>2018-09-30T08:39:56.000Z</time>
      </trkpt>
      <trkpt lat="43.22014" lon="-0.70397">
        <ele>238</ele>
        <time>2018-09-30T08:39:58.000Z</time>
      </trkpt>
      <trkpt lat="43.22017" lon="-0.704">
        <ele>238.5900032</ele>
        <time>2018-09-30T08:40:00.000Z</time>
      </trkpt>
      <trkpt lat="43.2202" lon="-0.70403">
        <ele>239</ele>
        <time>2018-09-30T08:40:02.000Z</time>
      </trkpt>
      <trkpt lat="43.22023" lon="-0.70407">
        <ele>240</ele>
        <time>2018-09-30T08:40:04.000Z</time>
      </trkpt>
      <trkpt lat="43.22026" lon="-0.7041">
        <ele>240</ele>
        <time>2018-09-30T08:40:06.000Z</time>
      </trkpt>
      <trkpt lat="43.22028" lon="-0.70414">
        <ele>240</ele>
        <time>2018-09-30T08:40:08.000Z</time>
      </trkpt>
      <trkpt lat="43.22031" lon="-0.70417">
        <ele>241</ele>
        <time>2018-09-30T08:40:10.000Z</time>
      </trkpt>
      <trkpt lat="43.22034" lon="-0.70421">
        <ele>242</ele>
        <time>2018-09-30T08:40:12.000Z</time>
      </trkpt>
      <trkpt lat="43.22037" lon="-0.70427">
        <ele>242</ele>
        <time>2018-09-30T08:40:15.000Z</time>
      </trkpt>
      <trkpt lat="43.22041" lon="-0.70431">
        <ele>242</ele>
        <time>2018-09-30T08:40:18.000Z</time>
      </trkpt>
      <trkpt lat="43.22044" lon="-0.70436">
        <ele>242</ele>
        <time>2018-09-30T08:40:21.000Z</time>
      </trkpt>
      <trkpt lat="43.22048" lon="-0.70441">
        <ele>242.5900032</ele>
        <time>2018-09-30T08:40:24.000Z</time>
      </trkpt>
      <trkpt lat="43.2205" lon="-0.70446">
        <ele>243</ele>
        <time>2018-09-30T08:40:26.000Z</time>
      </trkpt>
      <trkpt lat="43.22053" lon="-0.7045">
        <ele>243</ele>
        <time>2018-09-30T08:40:28.000Z</time>
      </trkpt>
      <trkpt lat="43.22055" lon="-0.70454">
        <ele>244</ele>
        <time>2018-09-30T08:40:30.000Z</time>
      </trkpt>
      <trkpt lat="43.22058" lon="-0.70459">
        <ele>244</ele>
        <time>2018-09-30T08:40:32.000Z</time>
      </trkpt>
      <trkpt lat="43.22061" lon="-0.70463">
        <ele>245</ele>
        <time>2018-09-30T08:40:34.000Z</time>
      </trkpt>
      <trkpt lat="43.22064" lon="-0.70469">
        <ele>244</ele>
        <time>2018-09-30T08:40:36.000Z</time>
      </trkpt>
      <trkpt lat="43.22068" lon="-0.70475">
        <ele>245</ele>
        <time>2018-09-30T08:40:38.000Z</time>
      </trkpt>
      <trkpt lat="43.22072" lon="-0.70481">
        <ele>245</ele>
        <time>2018-09-30T08:40:40.000Z</time>
      </trkpt>
      <trkpt lat="43.22076" lon="-0.70488">
        <ele>245</ele>
        <time>2018-09-30T08:40:42.000Z</time>
      </trkpt>
      <trkpt lat="43.22079" lon="-0.70495">
        <ele>245</ele>
        <time>2018-09-30T08:40:44.000Z</time>
      </trkpt>
      <trkpt lat="43.22083" lon="-0.70501">
        <ele>245</ele>
        <time>2018-09-30T08:40:46.000Z</time>
      </trkpt>
      <trkpt lat="43.22087" lon="-0.70508">
        <ele>245</ele>
        <time>2018-09-30T08:40:48.000Z</time>
      </trkpt>
      <trkpt lat="43.2209" lon="-0.70515">
        <ele>246</ele>
        <time>2018-09-30T08:40:50.000Z</time>
      </trkpt>
      <trkpt lat="43.22093" lon="-0.70521">
        <ele>246.4142849306</ele>
        <time>2018-09-30T08:40:52.000Z</time>
      </trkpt>
      <trkpt lat="43.22096" lon="-0.70527">
        <ele>247</ele>
        <time>2018-09-30T08:40:54.000Z</time>
      </trkpt>
      <trkpt lat="43.221" lon="-0.70533">
        <ele>247</ele>
        <time>2018-09-30T08:40:56.000Z</time>
      </trkpt>
      <trkpt lat="43.22103" lon="-0.70539">
        <ele>247</ele>
        <time>2018-09-30T08:40:58.000Z</time>
      </trkpt>
      <trkpt lat="43.22106" lon="-0.70546">
        <ele>247</ele>
        <time>2018-09-30T08:41:00.000Z</time>
      </trkpt>
      <trkpt lat="43.22108" lon="-0.70553">
        <ele>248</ele>
        <time>2018-09-30T08:41:02.000Z</time>
      </trkpt>
      <trkpt lat="43.22111" lon="-0.70558">
        <ele>248</ele>
        <time>2018-09-30T08:41:04.000Z</time>
      </trkpt>
      <trkpt lat="43.22112" lon="-0.70565">
        <ele>248</ele>
        <time>2018-09-30T08:41:06.000Z</time>
      </trkpt>
      <trkpt lat="43.22113" lon="-0.70571">
        <ele>248.5900032</ele>
        <time>2018-09-30T08:41:08.000Z</time>
      </trkpt>
      <trkpt lat="43.22115" lon="-0.70577">
        <ele>249</ele>
        <time>2018-09-30T08:41:10.000Z</time>
      </trkpt>
      <trkpt lat="43.22116" lon="-0.70583">
        <ele>249</ele>
        <time>2018-09-30T08:41:12.000Z</time>
      </trkpt>
      <trkpt lat="43.22117" lon="-0.70589">
        <ele>249</ele>
        <time>2018-09-30T08:41:14.000Z</time>
      </trkpt>
      <trkpt lat="43.22117" lon="-0.70595">
        <ele>250</ele>
        <time>2018-09-30T08:41:16.000Z</time>
      </trkpt>
      <trkpt lat="43.22117" lon="-0.70602">
        <ele>250</ele>
        <time>2018-09-30T08:41:18.000Z</time>
      </trkpt>
      <trkpt lat="43.22116" lon="-0.70609">
        <ele>250</ele>
        <time>2018-09-30T08:41:20.000Z</time>
      </trkpt>
      <trkpt lat="43.22116" lon="-0.70615">
        <ele>250.5900032</ele>
        <time>2018-09-30T08:41:22.000Z</time>
      </trkpt>
      <trkpt lat="43.22115" lon="-0.70622">
        <ele>251</ele>
        <time>2018-09-30T08:41:24.000Z</time>
      </trkpt>
      <trkpt lat="43.22115" lon="-0.70629">
        <ele>251</ele>
        <time>2018-09-30T08:41:26.000Z</time>
      </trkpt>
      <trkpt lat="43.22114" lon="-0.70636">
        <ele>251</ele>
        <time>2018-09-30T08:41:28.000Z</time>
      </trkpt>
      <trkpt lat="43.22113" lon="-0.70643">
        <ele>251</ele>
        <time>2018-09-30T08:41:30.000Z</time>
      </trkpt>
      <trkpt lat="43.22113" lon="-0.70651">
        <ele>251.40579898342</ele>
        <time>2018-09-30T08:41:32.000Z</time>
      </trkpt>
      <trkpt lat="43.22112" lon="-0.70658">
        <ele>252</ele>
        <time>2018-09-30T08:41:34.000Z</time>
      </trkpt>
      <trkpt lat="43.22111" lon="-0.70666">
        <ele>251.4099968</ele>
        <time>2018-09-30T08:41:36.000Z</time>
      </trkpt>
      <trkpt lat="43.2211" lon="-0.70673">
        <ele>251.5900032</ele>
        <time>2018-09-30T08:41:38.000Z</time>
      </trkpt>
      <trkpt lat="43.2211" lon="-0.70681">
        <ele>252</ele>
        <time>2018-09-30T08:41:40.000Z</time>
      </trkpt>
      <trkpt lat="43.22109" lon="-0.70689">
        <ele>252</ele>
        <time>2018-09-30T08:41:42.000Z</time>
      </trkpt>
      <trkpt lat="43.22109" lon="-0.70697">
        <ele>252</ele>
        <time>2018-09-30T08:41:44.000Z</time>
      </trkpt>
      <trkpt lat="43.22108" lon="-0.70705">
        <ele>252</ele>
        <time>2018-09-30T08:41:46.000Z</time>
      </trkpt>
      <trkpt lat="43.22108" lon="-0.70713">
        <ele>252</ele>
        <time>2018-09-30T08:41:48.000Z</time>
      </trkpt>
      <trkpt lat="43.22108" lon="-0.70721">
        <ele>252</ele>
        <time>2018-09-30T08:41:50.000Z</time>
      </trkpt>
      <trkpt lat="43.22109" lon="-0.70729">
        <ele>252</ele>
        <time>2018-09-30T08:41:52.000Z</time>
      </trkpt>
      <trkpt lat="43.22109" lon="-0.70738">
        <ele>252</ele>
        <time>2018-09-30T08:41:54.000Z</time>
      </trkpt>
      <trkpt lat="43.2211" lon="-0.70746">
        <ele>252</ele>
        <time>2018-09-30T08:41:56.000Z</time>
      </trkpt>
      <trkpt lat="43.2211" lon="-0.70755">
        <ele>252.57843088043</ele>
        <time>2018-09-30T08:41:58.000Z</time>
      </trkpt>
      <trkpt lat="43.2211" lon="-0.70764">
        <ele>253</ele>
        <time>2018-09-30T08:42:00.000Z</time>
      </trkpt>
      <trkpt lat="43.2211" lon="-0.70772">
        <ele>253</ele>
        <time>2018-09-30T08:42:02.000Z</time>
      </trkpt>
      <trkpt lat="43.2211" lon="-0.70781">
        <ele>254</ele>
        <time>2018-09-30T08:42:04.000Z</time>
      </trkpt>
      <trkpt lat="43.22111" lon="-0.70789">
        <ele>254</ele>
        <time>2018-09-30T08:42:06.000Z</time>
      </trkpt>
      <trkpt lat="43.22112" lon="-0.70798">
        <ele>254.5900032</ele>
        <time>2018-09-30T08:42:08.000Z</time>
      </trkpt>
      <trkpt lat="43.22113" lon="-0.70806">
        <ele>255</ele>
        <time>2018-09-30T08:42:10.000Z</time>
      </trkpt>
      <trkpt lat="43.22114" lon="-0.70815">
        <ele>255</ele>
        <time>2018-09-30T08:42:12.000Z</time>
      </trkpt>
      <trkpt lat="43.22115" lon="-0.70823">
        <ele>255</ele>
        <time>2018-09-30T08:42:14.000Z</time>
      </trkpt>
      <trkpt lat="43.22119" lon="-0.70832">
        <ele>255</ele>
        <time>2018-09-30T08:42:16.000Z</time>
      </trkpt>
      <trkpt lat="43.22123" lon="-0.70839">
        <ele>255</ele>
        <time>2018-09-30T08:42:18.000Z</time>
      </trkpt>
      <trkpt lat="43.22127" lon="-0.70845">
        <ele>256</ele>
        <time>2018-09-30T08:42:20.000Z</time>
      </trkpt>
      <trkpt lat="43.22132" lon="-0.70851">
        <ele>256</ele>
        <time>2018-09-30T08:42:22.000Z</time>
      </trkpt>
      <trkpt lat="43.22135" lon="-0.70859">
        <ele>256</ele>
        <time>2018-09-30T08:42:24.000Z</time>
      </trkpt>
      <trkpt lat="43.22139" lon="-0.70865">
        <ele>256</ele>
        <time>2018-09-30T08:42:26.000Z</time>
      </trkpt>
      <trkpt lat="43.22141" lon="-0.70869">
        <ele>256</ele>
        <time>2018-09-30T08:42:27.000Z</time>
      </trkpt>
      <trkpt lat="43.22143" lon="-0.70874">
        <ele>256</ele>
        <time>2018-09-30T08:42:28.000Z</time>
      </trkpt>
      <trkpt lat="43.22146" lon="-0.70879">
        <ele>255.4099968</ele>
        <time>2018-09-30T08:42:29.000Z</time>
      </trkpt>
      <trkpt lat="43.22149" lon="-0.70883">
        <ele>255</ele>
        <time>2018-09-30T08:42:30.000Z</time>
      </trkpt>
      <trkpt lat="43.22151" lon="-0.70888">
        <ele>255</ele>
        <time>2018-09-30T08:42:31.000Z</time>
      </trkpt>
      <trkpt lat="43.22153" lon="-0.70893">
        <ele>255</ele>
        <time>2018-09-30T08:42:32.000Z</time>
      </trkpt>
      <trkpt lat="43.22156" lon="-0.70899">
        <ele>255</ele>
        <time>2018-09-30T08:42:33.000Z</time>
      </trkpt>
      <trkpt lat="43.22159" lon="-0.70904">
        <ele>254.42156911957</ele>
        <time>2018-09-30T08:42:34.000Z</time>
      </trkpt>
      <trkpt lat="43.22162" lon="-0.70908">
        <ele>254</ele>
        <time>2018-09-30T08:42:35.000Z</time>
      </trkpt>
      <trkpt lat="43.22166" lon="-0.7091">
        <ele>254</ele>
        <time>2018-09-30T08:42:36.000Z</time>
      </trkpt>
      <trkpt lat="43.2217" lon="-0.70913">
        <ele>254</ele>
        <time>2018-09-30T08:42:37.000Z</time>
      </trkpt>
      <trkpt lat="43.22174" lon="-0.70914">
        <ele>254</ele>
        <time>2018-09-30T08:42:38.000Z</time>
      </trkpt>
      <trkpt lat="43.22179" lon="-0.70916">
        <ele>254</ele>
        <time>2018-09-30T08:42:39.000Z</time>
      </trkpt>
      <trkpt lat="43.22184" lon="-0.70918">
        <ele>254</ele>
        <time>2018-09-30T08:42:40.000Z</time>
      </trkpt>
      <trkpt lat="43.22188" lon="-0.7092">
        <ele>254</ele>
        <time>2018-09-30T08:42:41.000Z</time>
      </trkpt>
      <trkpt lat="43.22193" lon="-0.70921">
        <ele>254</ele>
        <time>2018-09-30T08:42:42.000Z</time>
      </trkpt>
      <trkpt lat="43.22198" lon="-0.70922">
        <ele>254.45038302196</ele>
        <time>2018-09-30T08:42:43.000Z</time>
      </trkpt>
      <trkpt lat="43.22204" lon="-0.70923">
        <ele>255</ele>
        <time>2018-09-30T08:42:44.000Z</time>
      </trkpt>
      <trkpt lat="43.22209" lon="-0.70924">
        <ele>255.5900032</ele>
        <time>2018-09-30T08:42:45.000Z</time>
      </trkpt>
      <trkpt lat="43.22214" lon="-0.70924">
        <ele>256</ele>
        <time>2018-09-30T08:42:46.000Z</time>
      </trkpt>
      <trkpt lat="43.22219" lon="-0.70925">
        <ele>255.4099968</ele>
        <time>2018-09-30T08:42:47.000Z</time>
      </trkpt>
      <trkpt lat="43.22224" lon="-0.70925">
        <ele>255</ele>
        <time>2018-09-30T08:42:48.000Z</time>
      </trkpt>
      <trkpt lat="43.22229" lon="-0.70925">
        <ele>255</ele>
        <time>2018-09-30T08:42:49.000Z</time>
      </trkpt>
      <trkpt lat="43.22233" lon="-0.70925">
        <ele>255</ele>
        <time>2018-09-30T08:42:50.000Z</time>
      </trkpt>
      <trkpt lat="43.22238" lon="-0.70924">
        <ele>255</ele>
        <time>2018-09-30T08:42:51.000Z</time>
      </trkpt>
      <trkpt lat="43.22242" lon="-0.70924">
        <ele>255</ele>
        <time>2018-09-30T08:42:52.000Z</time>
      </trkpt>
      <trkpt lat="43.22246" lon="-0.70924">
        <ele>255</ele>
        <time>2018-09-30T08:42:53.000Z</time>
      </trkpt>
      <trkpt lat="43.22251" lon="-0.70924">
        <ele>255.42254232094</ele>
        <time>2018-09-30T08:42:54.000Z</time>
      </trkpt>
      <trkpt lat="43.22256" lon="-0.70923">
        <ele>256</ele>
        <time>2018-09-30T08:42:55.000Z</time>
      </trkpt>
      <trkpt lat="43.22261" lon="-0.70922">
        <ele>256</ele>
        <time>2018-09-30T08:42:56.000Z</time>
      </trkpt>
      <trkpt lat="43.22265" lon="-0.70922">
        <ele>256</ele>
        <time>2018-09-30T08:42:57.000Z</time>
      </trkpt>
      <trkpt lat="43.2227" lon="-0.70922">
        <ele>256</ele>
        <time>2018-09-30T08:42:58.000Z</time>
      </trkpt>
      <trkpt lat="43.22274" lon="-0.70923">
        <ele>256</ele>
        <time>2018-09-30T08:42:59.000Z</time>
      </trkpt>
      <trkpt lat="43.22278" lon="-0.70923">
        <ele>256</ele>
        <time>2018-09-30T08:43:00.000Z</time>
      </trkpt>
      <trkpt lat="43.22282" lon="-0.70924">
        <ele>256</ele>
        <time>2018-09-30T08:43:01.000Z</time>
      </trkpt>
      <trkpt lat="43.22286" lon="-0.70925">
        <ele>256</ele>
        <time>2018-09-30T08:43:02.000Z</time>
      </trkpt>
      <trkpt lat="43.22291" lon="-0.70926">
        <ele>256</ele>
        <time>2018-09-30T08:43:03.000Z</time>
      </trkpt>
      <trkpt lat="43.22296" lon="-0.70927">
        <ele>256.5900032</ele>
        <time>2018-09-30T08:43:04.000Z</time>
      </trkpt>
      <trkpt lat="43.223" lon="-0.70928">
        <ele>257</ele>
        <time>2018-09-30T08:43:05.000Z</time>
      </trkpt>
      <trkpt lat="43.22304" lon="-0.70929">
        <ele>257</ele>
        <time>2018-09-30T08:43:06.000Z</time>
      </trkpt>
      <trkpt lat="43.22308" lon="-0.7093">
        <ele>257</ele>
        <time>2018-09-30T08:43:07.000Z</time>
      </trkpt>
      <trkpt lat="43.22312" lon="-0.70931">
        <ele>257</ele>
        <time>2018-09-30T08:43:08.000Z</time>
      </trkpt>
      <trkpt lat="43.22315" lon="-0.7093">
        <ele>257.43056</ele>
        <time>2018-09-30T08:43:09.000Z</time>
      </trkpt>
      <trkpt lat="43.22322" lon="-0.70929">
        <ele>258</ele>
        <time>2018-09-30T08:43:11.000Z</time>
      </trkpt>
      <trkpt lat="43.22326" lon="-0.70927">
        <ele>258</ele>
        <time>2018-09-30T08:43:12.000Z</time>
      </trkpt>
      <trkpt lat="43.22329" lon="-0.70926">
        <ele>258</ele>
        <time>2018-09-30T08:43:13.000Z</time>
      </trkpt>
      <trkpt lat="43.22333" lon="-0.70925">
        <ele>258</ele>
        <time>2018-09-30T08:43:14.000Z</time>
      </trkpt>
      <trkpt lat="43.2234" lon="-0.70922">
        <ele>259.5900032</ele>
        <time>2018-09-30T08:43:16.000Z</time>
      </trkpt>
      <trkpt lat="43.22346" lon="-0.70922">
        <ele>260</ele>
        <time>2018-09-30T08:43:18.000Z</time>
      </trkpt>
      <trkpt lat="43.22352" lon="-0.70922">
        <ele>260</ele>
        <time>2018-09-30T08:43:20.000Z</time>
      </trkpt>
      <trkpt lat="43.22358" lon="-0.70923">
        <ele>260</ele>
        <time>2018-09-30T08:43:22.000Z</time>
      </trkpt>
      <trkpt lat="43.22364" lon="-0.70926">
        <ele>260</ele>
        <time>2018-09-30T08:43:24.000Z</time>
      </trkpt>
      <trkpt lat="43.22367" lon="-0.70927">
        <ele>260</ele>
        <time>2018-09-30T08:43:25.000Z</time>
      </trkpt>
      <trkpt lat="43.22371" lon="-0.7093">
        <ele>260</ele>
        <time>2018-09-30T08:43:26.000Z</time>
      </trkpt>
      <trkpt lat="43.22375" lon="-0.70933">
        <ele>260</ele>
        <time>2018-09-30T08:43:27.000Z</time>
      </trkpt>
      <trkpt lat="43.22379" lon="-0.70936">
        <ele>260</ele>
        <time>2018-09-30T08:43:28.000Z</time>
      </trkpt>
      <trkpt lat="43.22384" lon="-0.7094">
        <ele>260</ele>
        <time>2018-09-30T08:43:29.000Z</time>
      </trkpt>
      <trkpt lat="43.22388" lon="-0.70945">
        <ele>260</ele>
        <time>2018-09-30T08:43:30.000Z</time>
      </trkpt>
      <trkpt lat="43.22393" lon="-0.7095">
        <ele>260</ele>
        <time>2018-09-30T08:43:31.000Z</time>
      </trkpt>
      <trkpt lat="43.22397" lon="-0.70955">
        <ele>260</ele>
        <time>2018-09-30T08:43:32.000Z</time>
      </trkpt>
      <trkpt lat="43.224" lon="-0.70961">
        <ele>259.4099968</ele>
        <time>2018-09-30T08:43:33.000Z</time>
      </trkpt>
      <trkpt lat="43.22403" lon="-0.70967">
        <ele>259</ele>
        <time>2018-09-30T08:43:34.000Z</time>
      </trkpt>
      <trkpt lat="43.22406" lon="-0.70973">
        <ele>259</ele>
        <time>2018-09-30T08:43:35.000Z</time>
      </trkpt>
      <trkpt lat="43.2241" lon="-0.70979">
        <ele>259</ele>
        <time>2018-09-30T08:43:36.000Z</time>
      </trkpt>
      <trkpt lat="43.22413" lon="-0.70986">
        <ele>259</ele>
        <time>2018-09-30T08:43:37.000Z</time>
      </trkpt>
      <trkpt lat="43.22417" lon="-0.70993">
        <ele>259</ele>
        <time>2018-09-30T08:43:38.000Z</time>
      </trkpt>
      <trkpt lat="43.22421" lon="-0.71">
        <ele>259</ele>
        <time>2018-09-30T08:43:39.000Z</time>
      </trkpt>
      <trkpt lat="43.22424" lon="-0.71007">
        <ele>259</ele>
        <time>2018-09-30T08:43:40.000Z</time>
      </trkpt>
      <trkpt lat="43.22428" lon="-0.71014">
        <ele>258.4099968</ele>
        <time>2018-09-30T08:43:41.000Z</time>
      </trkpt>
      <trkpt lat="43.22433" lon="-0.71021">
        <ele>258</ele>
        <time>2018-09-30T08:43:42.000Z</time>
      </trkpt>
      <trkpt lat="43.22437" lon="-0.71029">
        <ele>258</ele>
        <time>2018-09-30T08:43:43.000Z</time>
      </trkpt>
      <trkpt lat="43.22442" lon="-0.71036">
        <ele>257.4099968</ele>
        <time>2018-09-30T08:43:44.000Z</time>
      </trkpt>
      <trkpt lat="43.22446" lon="-0.71042">
        <ele>257</ele>
        <time>2018-09-30T08:43:45.000Z</time>
      </trkpt>
      <trkpt lat="43.22452" lon="-0.71045">
        <ele>257</ele>
        <time>2018-09-30T08:43:46.000Z</time>
      </trkpt>
      <trkpt lat="43.22458" lon="-0.71047">
        <ele>257</ele>
        <time>2018-09-30T08:43:47.000Z</time>
      </trkpt>
      <trkpt lat="43.22466" lon="-0.71046">
        <ele>257</ele>
        <time>2018-09-30T08:43:48.000Z</time>
      </trkpt>
      <trkpt lat="43.22473" lon="-0.71043">
        <ele>257</ele>
        <time>2018-09-30T08:43:49.000Z</time>
      </trkpt>
      <trkpt lat="43.22478" lon="-0.71041">
        <ele>257</ele>
        <time>2018-09-30T08:43:50.000Z</time>
      </trkpt>
      <trkpt lat="43.22484" lon="-0.71039">
        <ele>256.4099968</ele>
        <time>2018-09-30T08:43:51.000Z</time>
      </trkpt>
      <trkpt lat="43.22493" lon="-0.71038">
        <ele>256</ele>
        <time>2018-09-30T08:43:53.000Z</time>
      </trkpt>
      <trkpt lat="43.22497" lon="-0.71037">
        <ele>256.5900032</ele>
        <time>2018-09-30T08:43:54.000Z</time>
      </trkpt>
      <trkpt lat="43.22501" lon="-0.71036">
        <ele>257</ele>
        <time>2018-09-30T08:43:55.000Z</time>
      </trkpt>
      <trkpt lat="43.22505" lon="-0.71035">
        <ele>257</ele>
        <time>2018-09-30T08:43:56.000Z</time>
      </trkpt>
      <trkpt lat="43.22509" lon="-0.71034">
        <ele>257</ele>
        <time>2018-09-30T08:43:57.000Z</time>
      </trkpt>
      <trkpt lat="43.22515" lon="-0.71032">
        <ele>256</ele>
        <time>2018-09-30T08:43:59.000Z</time>
      </trkpt>
      <trkpt lat="43.2252" lon="-0.7103">
        <ele>256</ele>
        <time>2018-09-30T08:44:01.000Z</time>
      </trkpt>
      <trkpt lat="43.22525" lon="-0.71028">
        <ele>256</ele>
        <time>2018-09-30T08:44:03.000Z</time>
      </trkpt>
      <trkpt lat="43.2253" lon="-0.71027">
        <ele>256</ele>
        <time>2018-09-30T08:44:05.000Z</time>
      </trkpt>
      <trkpt lat="43.22533" lon="-0.71026">
        <ele>256</ele>
        <time>2018-09-30T08:44:07.000Z</time>
      </trkpt>
      <trkpt lat="43.22537" lon="-0.71024">
        <ele>255.4099968</ele>
        <time>2018-09-30T08:44:10.000Z</time>
      </trkpt>
      <trkpt lat="43.22533" lon="-0.71025">
        <ele>255</ele>
        <time>2018-09-30T08:44:25.000Z</time>
      </trkpt>
      <trkpt lat="43.2253" lon="-0.71025">
        <ele>256</ele>
        <time>2018-09-30T08:44:29.000Z</time>
      </trkpt>
      <trkpt lat="43.22527" lon="-0.71022">
        <ele>255</ele>
        <time>2018-09-30T08:45:08.000Z</time>
      </trkpt>
      <trkpt lat="43.2253" lon="-0.71024">
        <ele>255</ele>
        <time>2018-09-30T08:47:51.000Z</time>
      </trkpt>
      <trkpt lat="43.22534" lon="-0.71025">
        <ele>255</ele>
        <time>2018-09-30T08:48:59.000Z</time>
      </trkpt>
      <trkpt lat="43.2253" lon="-0.71024">
        <ele>255</ele>
        <time>2018-09-30T08:49:13.000Z</time>
      </trkpt>
      <trkpt lat="43.22527" lon="-0.71024">
        <ele>255</ele>
        <time>2018-09-30T08:49:19.000Z</time>
      </trkpt>
      <trkpt lat="43.22531" lon="-0.71024">
        <ele>255</ele>
        <time>2018-09-30T08:49:52.000Z</time>
      </trkpt>
      <trkpt lat="43.22535" lon="-0.71023">
        <ele>255</ele>
        <time>2018-09-30T08:49:57.000Z</time>
      </trkpt>
      <trkpt lat="43.22539" lon="-0.71022">
        <ele>255</ele>
        <time>2018-09-30T08:50:45.000Z</time>
      </trkpt>
      <trkpt lat="43.22543" lon="-0.7102">
        <ele>255</ele>
        <time>2018-09-30T08:50:48.000Z</time>
      </trkpt>
      <trkpt lat="43.22545" lon="-0.71025">
        <ele>255</ele>
        <time>2018-09-30T08:50:52.000Z</time>
      </trkpt>
      <trkpt lat="43.22542" lon="-0.7103">
        <ele>255</ele>
        <time>2018-09-30T08:50:55.000Z</time>
      </trkpt>
      <trkpt lat="43.22539" lon="-0.71035">
        <ele>255</ele>
        <time>2018-09-30T08:50:57.000Z</time>
      </trkpt>
      <trkpt lat="43.22536" lon="-0.71041">
        <ele>255</ele>
        <time>2018-09-30T08:50:59.000Z</time>
      </trkpt>
      <trkpt lat="43.22533" lon="-0.71048">
        <ele>255</ele>
        <time>2018-09-30T08:51:01.000Z</time>
      </trkpt>
      <trkpt lat="43.2253" lon="-0.71054">
        <ele>255</ele>
        <time>2018-09-30T08:51:03.000Z</time>
      </trkpt>
      <trkpt lat="43.22526" lon="-0.7106">
        <ele>255</ele>
        <time>2018-09-30T08:51:05.000Z</time>
      </trkpt>
      <trkpt lat="43.22522" lon="-0.71068">
        <ele>255</ele>
        <time>2018-09-30T08:51:07.000Z</time>
      </trkpt>
      <trkpt lat="43.2252" lon="-0.71072">
        <ele>255</ele>
        <time>2018-09-30T08:51:08.000Z</time>
      </trkpt>
      <trkpt lat="43.22516" lon="-0.7108">
        <ele>255</ele>
        <time>2018-09-30T08:51:10.000Z</time>
      </trkpt>
      <trkpt lat="43.22511" lon="-0.71087">
        <ele>256</ele>
        <time>2018-09-30T08:51:12.000Z</time>
      </trkpt>
      <trkpt lat="43.22509" lon="-0.7109">
        <ele>256</ele>
        <time>2018-09-30T08:51:13.000Z</time>
      </trkpt>
      <trkpt lat="43.22504" lon="-0.71097">
        <ele>256</ele>
        <time>2018-09-30T08:51:15.000Z</time>
      </trkpt>
      <trkpt lat="43.22499" lon="-0.71105">
        <ele>255</ele>
        <time>2018-09-30T08:51:17.000Z</time>
      </trkpt>
      <trkpt lat="43.22497" lon="-0.71108">
        <ele>255</ele>
        <time>2018-09-30T08:51:18.000Z</time>
      </trkpt>
      <trkpt lat="43.22492" lon="-0.71114">
        <ele>255</ele>
        <time>2018-09-30T08:51:20.000Z</time>
      </trkpt>
      <trkpt lat="43.22489" lon="-0.71118">
        <ele>255</ele>
        <time>2018-09-30T08:51:21.000Z</time>
      </trkpt>
      <trkpt lat="43.22486" lon="-0.71123">
        <ele>255</ele>
        <time>2018-09-30T08:51:22.000Z</time>
      </trkpt>
      <trkpt lat="43.22483" lon="-0.71127">
        <ele>255.43056</ele>
        <time>2018-09-30T08:51:23.000Z</time>
      </trkpt>
      <trkpt lat="43.2248" lon="-0.71131">
        <ele>256</ele>
        <time>2018-09-30T08:51:24.000Z</time>
      </trkpt>
      <trkpt lat="43.22477" lon="-0.71135">
        <ele>256</ele>
        <time>2018-09-30T08:51:25.000Z</time>
      </trkpt>
      <trkpt lat="43.22475" lon="-0.7114">
        <ele>256</ele>
        <time>2018-09-30T08:51:26.000Z</time>
      </trkpt>
      <trkpt lat="43.22472" lon="-0.71144">
        <ele>256</ele>
        <time>2018-09-30T08:51:27.000Z</time>
      </trkpt>
      <trkpt lat="43.2247" lon="-0.71148">
        <ele>256</ele>
        <time>2018-09-30T08:51:28.000Z</time>
      </trkpt>
      <trkpt lat="43.22467" lon="-0.71153">
        <ele>256</ele>
        <time>2018-09-30T08:51:29.000Z</time>
      </trkpt>
      <trkpt lat="43.22465" lon="-0.71157">
        <ele>256</ele>
        <time>2018-09-30T08:51:30.000Z</time>
      </trkpt>
      <trkpt lat="43.22463" lon="-0.71162">
        <ele>256</ele>
        <time>2018-09-30T08:51:31.000Z</time>
      </trkpt>
      <trkpt lat="43.2246" lon="-0.71167">
        <ele>256</ele>
        <time>2018-09-30T08:51:32.000Z</time>
      </trkpt>
      <trkpt lat="43.22458" lon="-0.71172">
        <ele>256</ele>
        <time>2018-09-30T08:51:33.000Z</time>
      </trkpt>
      <trkpt lat="43.22456" lon="-0.71177">
        <ele>256.5900032</ele>
        <time>2018-09-30T08:51:34.000Z</time>
      </trkpt>
      <trkpt lat="43.22453" lon="-0.71182">
        <ele>257</ele>
        <time>2018-09-30T08:51:35.000Z</time>
      </trkpt>
      <trkpt lat="43.22451" lon="-0.71188">
        <ele>257.5900032</ele>
        <time>2018-09-30T08:51:36.000Z</time>
      </trkpt>
      <trkpt lat="43.2245" lon="-0.71193">
        <ele>258</ele>
        <time>2018-09-30T08:51:37.000Z</time>
      </trkpt>
      <trkpt lat="43.22448" lon="-0.71198">
        <ele>258</ele>
        <time>2018-09-30T08:51:38.000Z</time>
      </trkpt>
      <trkpt lat="43.22447" lon="-0.71203">
        <ele>258</ele>
        <time>2018-09-30T08:51:39.000Z</time>
      </trkpt>
      <trkpt lat="43.22445" lon="-0.71208">
        <ele>258</ele>
        <time>2018-09-30T08:51:40.000Z</time>
      </trkpt>
      <trkpt lat="43.22444" lon="-0.71213">
        <ele>258</ele>
        <time>2018-09-30T08:51:41.000Z</time>
      </trkpt>
      <trkpt lat="43.22442" lon="-0.71217">
        <ele>258</ele>
        <time>2018-09-30T08:51:42.000Z</time>
      </trkpt>
      <trkpt lat="43.2244" lon="-0.71222">
        <ele>259</ele>
        <time>2018-09-30T08:51:43.000Z</time>
      </trkpt>
      <trkpt lat="43.22438" lon="-0.71227">
        <ele>259.5900032</ele>
        <time>2018-09-30T08:51:44.000Z</time>
      </trkpt>
      <trkpt lat="43.22436" lon="-0.71231">
        <ele>260.57281686115</ele>
        <time>2018-09-30T08:51:45.000Z</time>
      </trkpt>
      <trkpt lat="43.22433" lon="-0.71239">
        <ele>261.5900032</ele>
        <time>2018-09-30T08:51:47.000Z</time>
      </trkpt>
      <trkpt lat="43.2243" lon="-0.71247">
        <ele>263</ele>
        <time>2018-09-30T08:51:49.000Z</time>
      </trkpt>
      <trkpt lat="43.22428" lon="-0.71251">
        <ele>263</ele>
        <time>2018-09-30T08:51:50.000Z</time>
      </trkpt>
      <trkpt lat="43.22424" lon="-0.71259">
        <ele>264</ele>
        <time>2018-09-30T08:51:52.000Z</time>
      </trkpt>
      <trkpt lat="43.2242" lon="-0.71266">
        <ele>264</ele>
        <time>2018-09-30T08:51:54.000Z</time>
      </trkpt>
      <trkpt lat="43.22416" lon="-0.71273">
        <ele>264</ele>
        <time>2018-09-30T08:51:56.000Z</time>
      </trkpt>
      <trkpt lat="43.22412" lon="-0.7128">
        <ele>264</ele>
        <time>2018-09-30T08:51:58.000Z</time>
      </trkpt>
      <trkpt lat="43.22407" lon="-0.71287">
        <ele>264</ele>
        <time>2018-09-30T08:52:00.000Z</time>
      </trkpt>
      <trkpt lat="43.22402" lon="-0.71294">
        <ele>264</ele>
        <time>2018-09-30T08:52:02.000Z</time>
      </trkpt>
      <trkpt lat="43.22399" lon="-0.71297">
        <ele>264</ele>
        <time>2018-09-30T08:52:03.000Z</time>
      </trkpt>
      <trkpt lat="43.22396" lon="-0.71301">
        <ele>264</ele>
        <time>2018-09-30T08:52:04.000Z</time>
      </trkpt>
      <trkpt lat="43.22393" lon="-0.71304">
        <ele>264</ele>
        <time>2018-09-30T08:52:05.000Z</time>
      </trkpt>
      <trkpt lat="43.22389" lon="-0.71308">
        <ele>264</ele>
        <time>2018-09-30T08:52:06.000Z</time>
      </trkpt>
      <trkpt lat="43.22386" lon="-0.71311">
        <ele>264</ele>
        <time>2018-09-30T08:52:07.000Z</time>
      </trkpt>
      <trkpt lat="43.22382" lon="-0.71315">
        <ele>264</ele>
        <time>2018-09-30T08:52:08.000Z</time>
      </trkpt>
      <trkpt lat="43.22378" lon="-0.71318">
        <ele>264</ele>
        <time>2018-09-30T08:52:09.000Z</time>
      </trkpt>
      <trkpt lat="43.22375" lon="-0.71321">
        <ele>264</ele>
        <time>2018-09-30T08:52:10.000Z</time>
      </trkpt>
      <trkpt lat="43.22371" lon="-0.71325">
        <ele>264</ele>
        <time>2018-09-30T08:52:11.000Z</time>
      </trkpt>
      <trkpt lat="43.22367" lon="-0.71328">
        <ele>264</ele>
        <time>2018-09-30T08:52:12.000Z</time>
      </trkpt>
      <trkpt lat="43.22363" lon="-0.71331">
        <ele>264</ele>
        <time>2018-09-30T08:52:13.000Z</time>
      </trkpt>
      <trkpt lat="43.22359" lon="-0.71335">
        <ele>264</ele>
        <time>2018-09-30T08:52:14.000Z</time>
      </trkpt>
      <trkpt lat="43.22355" lon="-0.71338">
        <ele>264</ele>
        <time>2018-09-30T08:52:15.000Z</time>
      </trkpt>
      <trkpt lat="43.22351" lon="-0.71341">
        <ele>264</ele>
        <time>2018-09-30T08:52:16.000Z</time>
      </trkpt>
      <trkpt lat="43.22347" lon="-0.71344">
        <ele>264</ele>
        <time>2018-09-30T08:52:17.000Z</time>
      </trkpt>
      <trkpt lat="43.22342" lon="-0.71347">
        <ele>264</ele>
        <time>2018-09-30T08:52:18.000Z</time>
      </trkpt>
      <trkpt lat="43.22338" lon="-0.7135">
        <ele>264</ele>
        <time>2018-09-30T08:52:19.000Z</time>
      </trkpt>
      <trkpt lat="43.22333" lon="-0.71353">
        <ele>264</ele>
        <time>2018-09-30T08:52:20.000Z</time>
      </trkpt>
      <trkpt lat="43.22329" lon="-0.71356">
        <ele>264</ele>
        <time>2018-09-30T08:52:21.000Z</time>
      </trkpt>
      <trkpt lat="43.22324" lon="-0.7136">
        <ele>264</ele>
        <time>2018-09-30T08:52:22.000Z</time>
      </trkpt>
      <trkpt lat="43.2232" lon="-0.71363">
        <ele>264</ele>
        <time>2018-09-30T08:52:23.000Z</time>
      </trkpt>
      <trkpt lat="43.22315" lon="-0.71367">
        <ele>264</ele>
        <time>2018-09-30T08:52:24.000Z</time>
      </trkpt>
      <trkpt lat="43.22311" lon="-0.7137">
        <ele>264</ele>
        <time>2018-09-30T08:52:25.000Z</time>
      </trkpt>
      <trkpt lat="43.22306" lon="-0.71373">
        <ele>264</ele>
        <time>2018-09-30T08:52:26.000Z</time>
      </trkpt>
      <trkpt lat="43.22302" lon="-0.71376">
        <ele>264</ele>
        <time>2018-09-30T08:52:27.000Z</time>
      </trkpt>
      <trkpt lat="43.22297" lon="-0.71379">
        <ele>264</ele>
        <time>2018-09-30T08:52:28.000Z</time>
      </trkpt>
      <trkpt lat="43.22292" lon="-0.71381">
        <ele>264</ele>
        <time>2018-09-30T08:52:29.000Z</time>
      </trkpt>
      <trkpt lat="43.22286" lon="-0.71383">
        <ele>264</ele>
        <time>2018-09-30T08:52:30.000Z</time>
      </trkpt>
      <trkpt lat="43.22281" lon="-0.71385">
        <ele>264</ele>
        <time>2018-09-30T08:52:31.000Z</time>
      </trkpt>
      <trkpt lat="43.22275" lon="-0.71387">
        <ele>264</ele>
        <time>2018-09-30T08:52:32.000Z</time>
      </trkpt>
      <trkpt lat="43.22269" lon="-0.71389">
        <ele>264</ele>
        <time>2018-09-30T08:52:33.000Z</time>
      </trkpt>
      <trkpt lat="43.22263" lon="-0.71391">
        <ele>264</ele>
        <time>2018-09-30T08:52:34.000Z</time>
      </trkpt>
      <trkpt lat="43.22257" lon="-0.71393">
        <ele>264</ele>
        <time>2018-09-30T08:52:35.000Z</time>
      </trkpt>
      <trkpt lat="43.2225" lon="-0.71394">
        <ele>263.4099968</ele>
        <time>2018-09-30T08:52:36.000Z</time>
      </trkpt>
      <trkpt lat="43.22244" lon="-0.71395">
        <ele>263</ele>
        <time>2018-09-30T08:52:37.000Z</time>
      </trkpt>
      <trkpt lat="43.22238" lon="-0.71397">
        <ele>263</ele>
        <time>2018-09-30T08:52:38.000Z</time>
      </trkpt>
      <trkpt lat="43.22232" lon="-0.71398">
        <ele>263</ele>
        <time>2018-09-30T08:52:39.000Z</time>
      </trkpt>
      <trkpt lat="43.22226" lon="-0.71401">
        <ele>263</ele>
        <time>2018-09-30T08:52:40.000Z</time>
      </trkpt>
      <trkpt lat="43.22221" lon="-0.71405">
        <ele>263.5900032</ele>
        <time>2018-09-30T08:52:41.000Z</time>
      </trkpt>
      <trkpt lat="43.22216" lon="-0.7141">
        <ele>264</ele>
        <time>2018-09-30T08:52:42.000Z</time>
      </trkpt>
      <trkpt lat="43.22212" lon="-0.71416">
        <ele>264.5900032</ele>
        <time>2018-09-30T08:52:43.000Z</time>
      </trkpt>
      <trkpt lat="43.22209" lon="-0.71422">
        <ele>265</ele>
        <time>2018-09-30T08:52:44.000Z</time>
      </trkpt>
      <trkpt lat="43.22205" lon="-0.71429">
        <ele>265</ele>
        <time>2018-09-30T08:52:45.000Z</time>
      </trkpt>
      <trkpt lat="43.22202" lon="-0.71436">
        <ele>265</ele>
        <time>2018-09-30T08:52:46.000Z</time>
      </trkpt>
      <trkpt lat="43.222" lon="-0.71442">
        <ele>265</ele>
        <time>2018-09-30T08:52:47.000Z</time>
      </trkpt>
      <trkpt lat="43.22197" lon="-0.71449">
        <ele>265</ele>
        <time>2018-09-30T08:52:48.000Z</time>
      </trkpt>
      <trkpt lat="43.22194" lon="-0.71456">
        <ele>264.4099968</ele>
        <time>2018-09-30T08:52:49.000Z</time>
      </trkpt>
      <trkpt lat="43.22192" lon="-0.71463">
        <ele>264.5900032</ele>
        <time>2018-09-30T08:52:50.000Z</time>
      </trkpt>
      <trkpt lat="43.22189" lon="-0.7147">
        <ele>265</ele>
        <time>2018-09-30T08:52:51.000Z</time>
      </trkpt>
      <trkpt lat="43.22187" lon="-0.71475">
        <ele>265</ele>
        <time>2018-09-30T08:52:52.000Z</time>
      </trkpt>
      <trkpt lat="43.22185" lon="-0.71481">
        <ele>265</ele>
        <time>2018-09-30T08:52:53.000Z</time>
      </trkpt>
      <trkpt lat="43.22183" lon="-0.71485">
        <ele>265.5900032</ele>
        <time>2018-09-30T08:52:54.000Z</time>
      </trkpt>
      <trkpt lat="43.22181" lon="-0.7149">
        <ele>266</ele>
        <time>2018-09-30T08:52:55.000Z</time>
      </trkpt>
      <trkpt lat="43.22179" lon="-0.71494">
        <ele>266</ele>
        <time>2018-09-30T08:52:56.000Z</time>
      </trkpt>
      <trkpt lat="43.22177" lon="-0.71499">
        <ele>266</ele>
        <time>2018-09-30T08:52:57.000Z</time>
      </trkpt>
      <trkpt lat="43.22175" lon="-0.71504">
        <ele>266.39706352941</ele>
        <time>2018-09-30T08:52:58.000Z</time>
      </trkpt>
      <trkpt lat="43.22173" lon="-0.7151">
        <ele>267</ele>
        <time>2018-09-30T08:52:59.000Z</time>
      </trkpt>
      <trkpt lat="43.22172" lon="-0.71515">
        <ele>267.5900032</ele>
        <time>2018-09-30T08:53:00.000Z</time>
      </trkpt>
      <trkpt lat="43.2217" lon="-0.7152">
        <ele>268</ele>
        <time>2018-09-30T08:53:01.000Z</time>
      </trkpt>
      <trkpt lat="43.22169" lon="-0.71525">
        <ele>268</ele>
        <time>2018-09-30T08:53:02.000Z</time>
      </trkpt>
      <trkpt lat="43.22168" lon="-0.71529">
        <ele>268.5900032</ele>
        <time>2018-09-30T08:53:03.000Z</time>
      </trkpt>
      <trkpt lat="43.22165" lon="-0.71538">
        <ele>269</ele>
        <time>2018-09-30T08:53:05.000Z</time>
      </trkpt>
      <trkpt lat="43.22162" lon="-0.71544">
        <ele>269</ele>
        <time>2018-09-30T08:53:07.000Z</time>
      </trkpt>
      <trkpt lat="43.2216" lon="-0.71551">
        <ele>270</ele>
        <time>2018-09-30T08:53:09.000Z</time>
      </trkpt>
      <trkpt lat="43.22156" lon="-0.71559">
        <ele>270</ele>
        <time>2018-09-30T08:53:11.000Z</time>
      </trkpt>
      <trkpt lat="43.22153" lon="-0.71566">
        <ele>270</ele>
        <time>2018-09-30T08:53:13.000Z</time>
      </trkpt>
      <trkpt lat="43.22149" lon="-0.71574">
        <ele>271</ele>
        <time>2018-09-30T08:53:15.000Z</time>
      </trkpt>
      <trkpt lat="43.22147" lon="-0.71579">
        <ele>271.45384638106</ele>
        <time>2018-09-30T08:53:16.000Z</time>
      </trkpt>
      <trkpt lat="43.22146" lon="-0.71583">
        <ele>272.4142849306</ele>
        <time>2018-09-30T08:53:17.000Z</time>
      </trkpt>
      <trkpt lat="43.22145" lon="-0.71588">
        <ele>273</ele>
        <time>2018-09-30T08:53:18.000Z</time>
      </trkpt>
      <trkpt lat="43.22144" lon="-0.71593">
        <ele>273</ele>
        <time>2018-09-30T08:53:19.000Z</time>
      </trkpt>
      <trkpt lat="43.22143" lon="-0.71598">
        <ele>273.57281686115</ele>
        <time>2018-09-30T08:53:20.000Z</time>
      </trkpt>
      <trkpt lat="43.22142" lon="-0.71604">
        <ele>274</ele>
        <time>2018-09-30T08:53:21.000Z</time>
      </trkpt>
      <trkpt lat="43.22142" lon="-0.71608">
        <ele>274.5900032</ele>
        <time>2018-09-30T08:53:22.000Z</time>
      </trkpt>
      <trkpt lat="43.22142" lon="-0.71618">
        <ele>275</ele>
        <time>2018-09-30T08:53:24.000Z</time>
      </trkpt>
      <trkpt lat="43.22142" lon="-0.71627">
        <ele>275.58163318618</ele>
        <time>2018-09-30T08:53:26.000Z</time>
      </trkpt>
      <trkpt lat="43.22143" lon="-0.71637">
        <ele>276</ele>
        <time>2018-09-30T08:53:28.000Z</time>
      </trkpt>
      <trkpt lat="43.22144" lon="-0.71644">
        <ele>276</ele>
        <time>2018-09-30T08:53:30.000Z</time>
      </trkpt>
      <trkpt lat="43.22145" lon="-0.71652">
        <ele>276</ele>
        <time>2018-09-30T08:53:32.000Z</time>
      </trkpt>
      <trkpt lat="43.22147" lon="-0.7166">
        <ele>276</ele>
        <time>2018-09-30T08:53:34.000Z</time>
      </trkpt>
      <trkpt lat="43.22149" lon="-0.71669">
        <ele>276.42254232094</ele>
        <time>2018-09-30T08:53:36.000Z</time>
      </trkpt>
      <trkpt lat="43.2215" lon="-0.71678">
        <ele>277</ele>
        <time>2018-09-30T08:53:38.000Z</time>
      </trkpt>
      <trkpt lat="43.22151" lon="-0.71683">
        <ele>277</ele>
        <time>2018-09-30T08:53:39.000Z</time>
      </trkpt>
      <trkpt lat="43.22152" lon="-0.71688">
        <ele>277</ele>
        <time>2018-09-30T08:53:40.000Z</time>
      </trkpt>
      <trkpt lat="43.22153" lon="-0.71693">
        <ele>277.5900032</ele>
        <time>2018-09-30T08:53:41.000Z</time>
      </trkpt>
      <trkpt lat="43.22154" lon="-0.71698">
        <ele>278</ele>
        <time>2018-09-30T08:53:42.000Z</time>
      </trkpt>
      <trkpt lat="43.22155" lon="-0.71703">
        <ele>278</ele>
        <time>2018-09-30T08:53:43.000Z</time>
      </trkpt>
      <trkpt lat="43.22155" lon="-0.71713">
        <ele>278.5900032</ele>
        <time>2018-09-30T08:53:45.000Z</time>
      </trkpt>
      <trkpt lat="43.22155" lon="-0.71718">
        <ele>279</ele>
        <time>2018-09-30T08:53:46.000Z</time>
      </trkpt>
      <trkpt lat="43.22155" lon="-0.71727">
        <ele>279.5900032</ele>
        <time>2018-09-30T08:53:48.000Z</time>
      </trkpt>
      <trkpt lat="43.22155" lon="-0.71732">
        <ele>280</ele>
        <time>2018-09-30T08:53:49.000Z</time>
      </trkpt>
      <trkpt lat="43.22155" lon="-0.71737">
        <ele>280</ele>
        <time>2018-09-30T08:53:50.000Z</time>
      </trkpt>
      <trkpt lat="43.22154" lon="-0.71742">
        <ele>280</ele>
        <time>2018-09-30T08:53:51.000Z</time>
      </trkpt>
      <trkpt lat="43.22153" lon="-0.71747">
        <ele>280</ele>
        <time>2018-09-30T08:53:52.000Z</time>
      </trkpt>
      <trkpt lat="43.22153" lon="-0.71753">
        <ele>280</ele>
        <time>2018-09-30T08:53:53.000Z</time>
      </trkpt>
      <trkpt lat="43.22151" lon="-0.71758">
        <ele>280.45384638106</ele>
        <time>2018-09-30T08:53:54.000Z</time>
      </trkpt>
      <trkpt lat="43.2215" lon="-0.71763">
        <ele>281</ele>
        <time>2018-09-30T08:53:55.000Z</time>
      </trkpt>
      <trkpt lat="43.22149" lon="-0.71768">
        <ele>281</ele>
        <time>2018-09-30T08:53:56.000Z</time>
      </trkpt>
      <trkpt lat="43.22147" lon="-0.71773">
        <ele>281</ele>
        <time>2018-09-30T08:53:57.000Z</time>
      </trkpt>
      <trkpt lat="43.22145" lon="-0.71777">
        <ele>281</ele>
        <time>2018-09-30T08:53:58.000Z</time>
      </trkpt>
      <trkpt lat="43.22144" lon="-0.71783">
        <ele>281</ele>
        <time>2018-09-30T08:53:59.000Z</time>
      </trkpt>
      <trkpt lat="43.22142" lon="-0.71787">
        <ele>281</ele>
        <time>2018-09-30T08:54:00.000Z</time>
      </trkpt>
      <trkpt lat="43.22141" lon="-0.71793">
        <ele>281</ele>
        <time>2018-09-30T08:54:01.000Z</time>
      </trkpt>
      <trkpt lat="43.22139" lon="-0.71798">
        <ele>281</ele>
        <time>2018-09-30T08:54:02.000Z</time>
      </trkpt>
      <trkpt lat="43.22137" lon="-0.71803">
        <ele>281</ele>
        <time>2018-09-30T08:54:03.000Z</time>
      </trkpt>
      <trkpt lat="43.22135" lon="-0.71808">
        <ele>281</ele>
        <time>2018-09-30T08:54:04.000Z</time>
      </trkpt>
      <trkpt lat="43.22134" lon="-0.71814">
        <ele>281</ele>
        <time>2018-09-30T08:54:05.000Z</time>
      </trkpt>
      <trkpt lat="43.22132" lon="-0.71818">
        <ele>281</ele>
        <time>2018-09-30T08:54:06.000Z</time>
      </trkpt>
      <trkpt lat="43.2213" lon="-0.71823">
        <ele>281</ele>
        <time>2018-09-30T08:54:07.000Z</time>
      </trkpt>
      <trkpt lat="43.22128" lon="-0.71828">
        <ele>281</ele>
        <time>2018-09-30T08:54:08.000Z</time>
      </trkpt>
      <trkpt lat="43.22127" lon="-0.71833">
        <ele>281</ele>
        <time>2018-09-30T08:54:09.000Z</time>
      </trkpt>
      <trkpt lat="43.22125" lon="-0.71838">
        <ele>281</ele>
        <time>2018-09-30T08:54:10.000Z</time>
      </trkpt>
      <trkpt lat="43.22123" lon="-0.71843">
        <ele>281</ele>
        <time>2018-09-30T08:54:11.000Z</time>
      </trkpt>
      <trkpt lat="43.22121" lon="-0.71848">
        <ele>281</ele>
        <time>2018-09-30T08:54:12.000Z</time>
      </trkpt>
      <trkpt lat="43.22119" lon="-0.71852">
        <ele>281</ele>
        <time>2018-09-30T08:54:13.000Z</time>
      </trkpt>
      <trkpt lat="43.22118" lon="-0.71857">
        <ele>281</ele>
        <time>2018-09-30T08:54:14.000Z</time>
      </trkpt>
      <trkpt lat="43.22116" lon="-0.71862">
        <ele>281.5900032</ele>
        <time>2018-09-30T08:54:15.000Z</time>
      </trkpt>
      <trkpt lat="43.22114" lon="-0.71866">
        <ele>282</ele>
        <time>2018-09-30T08:54:16.000Z</time>
      </trkpt>
      <trkpt lat="43.22113" lon="-0.71871">
        <ele>282</ele>
        <time>2018-09-30T08:54:17.000Z</time>
      </trkpt>
      <trkpt lat="43.22111" lon="-0.71875">
        <ele>282</ele>
        <time>2018-09-30T08:54:18.000Z</time>
      </trkpt>
      <trkpt lat="43.22109" lon="-0.7188">
        <ele>282</ele>
        <time>2018-09-30T08:54:19.000Z</time>
      </trkpt>
      <trkpt lat="43.22107" lon="-0.71884">
        <ele>282</ele>
        <time>2018-09-30T08:54:20.000Z</time>
      </trkpt>
      <trkpt lat="43.22105" lon="-0.71889">
        <ele>282</ele>
        <time>2018-09-30T08:54:21.000Z</time>
      </trkpt>
      <trkpt lat="43.22104" lon="-0.71893">
        <ele>282.5900032</ele>
        <time>2018-09-30T08:54:22.000Z</time>
      </trkpt>
      <trkpt lat="43.221" lon="-0.71901">
        <ele>283</ele>
        <time>2018-09-30T08:54:24.000Z</time>
      </trkpt>
      <trkpt lat="43.22096" lon="-0.71909">
        <ele>283.5900032</ele>
        <time>2018-09-30T08:54:26.000Z</time>
      </trkpt>
      <trkpt lat="43.22092" lon="-0.71916">
        <ele>284.5900032</ele>
        <time>2018-09-30T08:54:28.000Z</time>
      </trkpt>
      <trkpt lat="43.22087" lon="-0.71923">
        <ele>285</ele>
        <time>2018-09-30T08:54:30.000Z</time>
      </trkpt>
      <trkpt lat="43.22082" lon="-0.71929">
        <ele>285</ele>
        <time>2018-09-30T08:54:32.000Z</time>
      </trkpt>
      <trkpt lat="43.22076" lon="-0.71934">
        <ele>285</ele>
        <time>2018-09-30T08:54:34.000Z</time>
      </trkpt>
      <trkpt lat="43.2207" lon="-0.71939">
        <ele>286</ele>
        <time>2018-09-30T08:54:36.000Z</time>
      </trkpt>
      <trkpt lat="43.22067" lon="-0.71942">
        <ele>286</ele>
        <time>2018-09-30T08:54:37.000Z</time>
      </trkpt>
      <trkpt lat="43.22063" lon="-0.71949">
        <ele>286</ele>
        <time>2018-09-30T08:54:39.000Z</time>
      </trkpt>
      <trkpt lat="43.2206" lon="-0.71953">
        <ele>286</ele>
        <time>2018-09-30T08:54:40.000Z</time>
      </trkpt>
      <trkpt lat="43.22058" lon="-0.71957">
        <ele>286</ele>
        <time>2018-09-30T08:54:41.000Z</time>
      </trkpt>
      <trkpt lat="43.22054" lon="-0.71964">
        <ele>286</ele>
        <time>2018-09-30T08:54:43.000Z</time>
      </trkpt>
      <trkpt lat="43.22049" lon="-0.71971">
        <ele>286.5900032</ele>
        <time>2018-09-30T08:54:45.000Z</time>
      </trkpt>
      <trkpt lat="43.22043" lon="-0.71978">
        <ele>287</ele>
        <time>2018-09-30T08:54:47.000Z</time>
      </trkpt>
      <trkpt lat="43.2204" lon="-0.71981">
        <ele>287</ele>
        <time>2018-09-30T08:54:48.000Z</time>
      </trkpt>
      <trkpt lat="43.22038" lon="-0.71985">
        <ele>287</ele>
        <time>2018-09-30T08:54:49.000Z</time>
      </trkpt>
      <trkpt lat="43.22035" lon="-0.71989">
        <ele>287</ele>
        <time>2018-09-30T08:54:50.000Z</time>
      </trkpt>
      <trkpt lat="43.22032" lon="-0.71992">
        <ele>287</ele>
        <time>2018-09-30T08:54:51.000Z</time>
      </trkpt>
      <trkpt lat="43.22029" lon="-0.71995">
        <ele>287</ele>
        <time>2018-09-30T08:54:52.000Z</time>
      </trkpt>
      <trkpt lat="43.22025" lon="-0.71997">
        <ele>287</ele>
        <time>2018-09-30T08:54:53.000Z</time>
      </trkpt>
      <trkpt lat="43.22022" lon="-0.72001">
        <ele>287</ele>
        <time>2018-09-30T08:54:54.000Z</time>
      </trkpt>
      <trkpt lat="43.22019" lon="-0.72004">
        <ele>286.4099968</ele>
        <time>2018-09-30T08:54:55.000Z</time>
      </trkpt>
      <trkpt lat="43.22017" lon="-0.72007">
        <ele>286</ele>
        <time>2018-09-30T08:54:56.000Z</time>
      </trkpt>
      <trkpt lat="43.22014" lon="-0.72011">
        <ele>286</ele>
        <time>2018-09-30T08:54:57.000Z</time>
      </trkpt>
      <trkpt lat="43.22012" lon="-0.72015">
        <ele>286</ele>
        <time>2018-09-30T08:54:58.000Z</time>
      </trkpt>
      <trkpt lat="43.22009" lon="-0.72023">
        <ele>286</ele>
        <time>2018-09-30T08:55:00.000Z</time>
      </trkpt>
      <trkpt lat="43.22007" lon="-0.72027">
        <ele>286</ele>
        <time>2018-09-30T08:55:02.000Z</time>
      </trkpt>
      <trkpt lat="43.22003" lon="-0.7203">
        <ele>286</ele>
        <time>2018-09-30T08:55:04.000Z</time>
      </trkpt>
      <trkpt lat="43.21998" lon="-0.72035">
        <ele>286</ele>
        <time>2018-09-30T08:55:06.000Z</time>
      </trkpt>
      <trkpt lat="43.21995" lon="-0.72043">
        <ele>286</ele>
        <time>2018-09-30T08:55:08.000Z</time>
      </trkpt>
      <trkpt lat="43.21993" lon="-0.72052">
        <ele>287</ele>
        <time>2018-09-30T08:55:10.000Z</time>
      </trkpt>
      <trkpt lat="43.21991" lon="-0.7206">
        <ele>287</ele>
        <time>2018-09-30T08:55:12.000Z</time>
      </trkpt>
      <trkpt lat="43.21989" lon="-0.72068">
        <ele>287</ele>
        <time>2018-09-30T08:55:14.000Z</time>
      </trkpt>
      <trkpt lat="43.21988" lon="-0.72073">
        <ele>287</ele>
        <time>2018-09-30T08:55:15.000Z</time>
      </trkpt>
      <trkpt lat="43.21986" lon="-0.72082">
        <ele>287</ele>
        <time>2018-09-30T08:55:17.000Z</time>
      </trkpt>
      <trkpt lat="43.21984" lon="-0.7209">
        <ele>287</ele>
        <time>2018-09-30T08:55:19.000Z</time>
      </trkpt>
      <trkpt lat="43.21983" lon="-0.72097">
        <ele>288</ele>
        <time>2018-09-30T08:55:21.000Z</time>
      </trkpt>
      <trkpt lat="43.21982" lon="-0.72104">
        <ele>288</ele>
        <time>2018-09-30T08:55:23.000Z</time>
      </trkpt>
      <trkpt lat="43.21981" lon="-0.72112">
        <ele>288.5900032</ele>
        <time>2018-09-30T08:55:25.000Z</time>
      </trkpt>
      <trkpt lat="43.21981" lon="-0.72121">
        <ele>289</ele>
        <time>2018-09-30T08:55:27.000Z</time>
      </trkpt>
      <trkpt lat="43.21982" lon="-0.72128">
        <ele>289</ele>
        <time>2018-09-30T08:55:29.000Z</time>
      </trkpt>
      <trkpt lat="43.21982" lon="-0.72134">
        <ele>289</ele>
        <time>2018-09-30T08:55:32.000Z</time>
      </trkpt>
      <trkpt lat="43.21982" lon="-0.7214">
        <ele>289</ele>
        <time>2018-09-30T08:55:35.000Z</time>
      </trkpt>
      <trkpt lat="43.21986" lon="-0.72141">
        <ele>289</ele>
        <time>2018-09-30T08:55:39.000Z</time>
      </trkpt>
      <trkpt lat="43.21987" lon="-0.72148">
        <ele>289</ele>
        <time>2018-09-30T08:55:43.000Z</time>
      </trkpt>
      <trkpt lat="43.21986" lon="-0.72154">
        <ele>289</ele>
        <time>2018-09-30T08:55:45.000Z</time>
      </trkpt>
      <trkpt lat="43.21987" lon="-0.7216">
        <ele>288.4099968</ele>
        <time>2018-09-30T08:55:47.000Z</time>
      </trkpt>
      <trkpt lat="43.21988" lon="-0.72168">
        <ele>288</ele>
        <time>2018-09-30T08:55:49.000Z</time>
      </trkpt>
      <trkpt lat="43.21987" lon="-0.72177">
        <ele>288</ele>
        <time>2018-09-30T08:55:51.000Z</time>
      </trkpt>
      <trkpt lat="43.21987" lon="-0.72183">
        <ele>288</ele>
        <time>2018-09-30T08:55:52.000Z</time>
      </trkpt>
      <trkpt lat="43.21987" lon="-0.72188">
        <ele>288</ele>
        <time>2018-09-30T08:55:53.000Z</time>
      </trkpt>
      <trkpt lat="43.21987" lon="-0.72193">
        <ele>288</ele>
        <time>2018-09-30T08:55:54.000Z</time>
      </trkpt>
      <trkpt lat="43.21987" lon="-0.72198">
        <ele>288</ele>
        <time>2018-09-30T08:55:55.000Z</time>
      </trkpt>
      <trkpt lat="43.21989" lon="-0.72203">
        <ele>288</ele>
        <time>2018-09-30T08:55:56.000Z</time>
      </trkpt>
      <trkpt lat="43.2199" lon="-0.72208">
        <ele>288</ele>
        <time>2018-09-30T08:55:57.000Z</time>
      </trkpt>
      <trkpt lat="43.21992" lon="-0.72217">
        <ele>287</ele>
        <time>2018-09-30T08:55:59.000Z</time>
      </trkpt>
      <trkpt lat="43.21992" lon="-0.72226">
        <ele>287</ele>
        <time>2018-09-30T08:56:01.000Z</time>
      </trkpt>
      <trkpt lat="43.21991" lon="-0.72235">
        <ele>287</ele>
        <time>2018-09-30T08:56:03.000Z</time>
      </trkpt>
      <trkpt lat="43.21989" lon="-0.72242">
        <ele>287</ele>
        <time>2018-09-30T08:56:05.000Z</time>
      </trkpt>
      <trkpt lat="43.21989" lon="-0.7225">
        <ele>287</ele>
        <time>2018-09-30T08:56:07.000Z</time>
      </trkpt>
      <trkpt lat="43.21989" lon="-0.72258">
        <ele>287</ele>
        <time>2018-09-30T08:56:09.000Z</time>
      </trkpt>
      <trkpt lat="43.21991" lon="-0.72265">
        <ele>287</ele>
        <time>2018-09-30T08:56:11.000Z</time>
      </trkpt>
      <trkpt lat="43.2199" lon="-0.72273">
        <ele>287</ele>
        <time>2018-09-30T08:56:13.000Z</time>
      </trkpt>
      <trkpt lat="43.21986" lon="-0.7228">
        <ele>287</ele>
        <time>2018-09-30T08:56:15.000Z</time>
      </trkpt>
      <trkpt lat="43.21984" lon="-0.72284">
        <ele>287</ele>
        <time>2018-09-30T08:56:16.000Z</time>
      </trkpt>
      <trkpt lat="43.21982" lon="-0.72289">
        <ele>287</ele>
        <time>2018-09-30T08:56:17.000Z</time>
      </trkpt>
      <trkpt lat="43.2198" lon="-0.72294">
        <ele>287</ele>
        <time>2018-09-30T08:56:18.000Z</time>
      </trkpt>
      <trkpt lat="43.21979" lon="-0.72299">
        <ele>287</ele>
        <time>2018-09-30T08:56:19.000Z</time>
      </trkpt>
      <trkpt lat="43.21978" lon="-0.72305">
        <ele>287</ele>
        <time>2018-09-30T08:56:20.000Z</time>
      </trkpt>
      <trkpt lat="43.21978" lon="-0.7231">
        <ele>287</ele>
        <time>2018-09-30T08:56:21.000Z</time>
      </trkpt>
      <trkpt lat="43.21979" lon="-0.72317">
        <ele>287</ele>
        <time>2018-09-30T08:56:22.000Z</time>
      </trkpt>
      <trkpt lat="43.21979" lon="-0.72323">
        <ele>287</ele>
        <time>2018-09-30T08:56:23.000Z</time>
      </trkpt>
      <trkpt lat="43.2198" lon="-0.7233">
        <ele>287</ele>
        <time>2018-09-30T08:56:24.000Z</time>
      </trkpt>
      <trkpt lat="43.2198" lon="-0.72337">
        <ele>287</ele>
        <time>2018-09-30T08:56:25.000Z</time>
      </trkpt>
      <trkpt lat="43.2198" lon="-0.72343">
        <ele>287</ele>
        <time>2018-09-30T08:56:26.000Z</time>
      </trkpt>
      <trkpt lat="43.2198" lon="-0.72351">
        <ele>287</ele>
        <time>2018-09-30T08:56:27.000Z</time>
      </trkpt>
      <trkpt lat="43.2198" lon="-0.72358">
        <ele>287</ele>
        <time>2018-09-30T08:56:28.000Z</time>
      </trkpt>
      <trkpt lat="43.21979" lon="-0.72365">
        <ele>287</ele>
        <time>2018-09-30T08:56:29.000Z</time>
      </trkpt>
      <trkpt lat="43.21978" lon="-0.72372">
        <ele>287</ele>
        <time>2018-09-30T08:56:30.000Z</time>
      </trkpt>
      <trkpt lat="43.21977" lon="-0.7238">
        <ele>287</ele>
        <time>2018-09-30T08:56:31.000Z</time>
      </trkpt>
      <trkpt lat="43.21975" lon="-0.72387">
        <ele>287</ele>
        <time>2018-09-30T08:56:32.000Z</time>
      </trkpt>
      <trkpt lat="43.21972" lon="-0.72394">
        <ele>286.4099968</ele>
        <time>2018-09-30T08:56:33.000Z</time>
      </trkpt>
      <trkpt lat="43.21969" lon="-0.72401">
        <ele>286</ele>
        <time>2018-09-30T08:56:34.000Z</time>
      </trkpt>
      <trkpt lat="43.21966" lon="-0.72406">
        <ele>286</ele>
        <time>2018-09-30T08:56:35.000Z</time>
      </trkpt>
      <trkpt lat="43.21962" lon="-0.72412">
        <ele>286</ele>
        <time>2018-09-30T08:56:36.000Z</time>
      </trkpt>
      <trkpt lat="43.21958" lon="-0.72417">
        <ele>286</ele>
        <time>2018-09-30T08:56:37.000Z</time>
      </trkpt>
      <trkpt lat="43.21954" lon="-0.72422">
        <ele>286</ele>
        <time>2018-09-30T08:56:38.000Z</time>
      </trkpt>
      <trkpt lat="43.2195" lon="-0.72425">
        <ele>286</ele>
        <time>2018-09-30T08:56:39.000Z</time>
      </trkpt>
      <trkpt lat="43.21946" lon="-0.72429">
        <ele>286</ele>
        <time>2018-09-30T08:56:40.000Z</time>
      </trkpt>
      <trkpt lat="43.21942" lon="-0.72433">
        <ele>286</ele>
        <time>2018-09-30T08:56:41.000Z</time>
      </trkpt>
      <trkpt lat="43.21938" lon="-0.72436">
        <ele>286</ele>
        <time>2018-09-30T08:56:42.000Z</time>
      </trkpt>
      <trkpt lat="43.21934" lon="-0.72439">
        <ele>286</ele>
        <time>2018-09-30T08:56:43.000Z</time>
      </trkpt>
      <trkpt lat="43.2193" lon="-0.72441">
        <ele>286</ele>
        <time>2018-09-30T08:56:44.000Z</time>
      </trkpt>
      <trkpt lat="43.21926" lon="-0.72444">
        <ele>286</ele>
        <time>2018-09-30T08:56:45.000Z</time>
      </trkpt>
      <trkpt lat="43.21921" lon="-0.72446">
        <ele>286</ele>
        <time>2018-09-30T08:56:46.000Z</time>
      </trkpt>
      <trkpt lat="43.21917" lon="-0.72449">
        <ele>286.5900032</ele>
        <time>2018-09-30T08:56:47.000Z</time>
      </trkpt>
      <trkpt lat="43.21913" lon="-0.72451">
        <ele>287</ele>
        <time>2018-09-30T08:56:48.000Z</time>
      </trkpt>
      <trkpt lat="43.21909" lon="-0.72452">
        <ele>286.4099968</ele>
        <time>2018-09-30T08:56:49.000Z</time>
      </trkpt>
      <trkpt lat="43.21905" lon="-0.72454">
        <ele>286</ele>
        <time>2018-09-30T08:56:50.000Z</time>
      </trkpt>
      <trkpt lat="43.21901" lon="-0.72456">
        <ele>286</ele>
        <time>2018-09-30T08:56:51.000Z</time>
      </trkpt>
      <trkpt lat="43.21897" lon="-0.72458">
        <ele>286</ele>
        <time>2018-09-30T08:56:52.000Z</time>
      </trkpt>
      <trkpt lat="43.21893" lon="-0.7246">
        <ele>286.5900032</ele>
        <time>2018-09-30T08:56:53.000Z</time>
      </trkpt>
      <trkpt lat="43.21889" lon="-0.72463">
        <ele>287</ele>
        <time>2018-09-30T08:56:54.000Z</time>
      </trkpt>
      <trkpt lat="43.21885" lon="-0.72466">
        <ele>287</ele>
        <time>2018-09-30T08:56:55.000Z</time>
      </trkpt>
      <trkpt lat="43.21882" lon="-0.72469">
        <ele>287</ele>
        <time>2018-09-30T08:56:56.000Z</time>
      </trkpt>
      <trkpt lat="43.21878" lon="-0.72472">
        <ele>287</ele>
        <time>2018-09-30T08:56:57.000Z</time>
      </trkpt>
      <trkpt lat="43.21875" lon="-0.72475">
        <ele>287</ele>
        <time>2018-09-30T08:56:58.000Z</time>
      </trkpt>
      <trkpt lat="43.21871" lon="-0.7248">
        <ele>287</ele>
        <time>2018-09-30T08:56:59.000Z</time>
      </trkpt>
      <trkpt lat="43.21868" lon="-0.72484">
        <ele>287</ele>
        <time>2018-09-30T08:57:00.000Z</time>
      </trkpt>
      <trkpt lat="43.21866" lon="-0.72488">
        <ele>287</ele>
        <time>2018-09-30T08:57:01.000Z</time>
      </trkpt>
      <trkpt lat="43.21864" lon="-0.72493">
        <ele>287</ele>
        <time>2018-09-30T08:57:02.000Z</time>
      </trkpt>
      <trkpt lat="43.21862" lon="-0.72498">
        <ele>287</ele>
        <time>2018-09-30T08:57:03.000Z</time>
      </trkpt>
      <trkpt lat="43.21861" lon="-0.72503">
        <ele>287</ele>
        <time>2018-09-30T08:57:04.000Z</time>
      </trkpt>
      <trkpt lat="43.21859" lon="-0.72512">
        <ele>287</ele>
        <time>2018-09-30T08:57:06.000Z</time>
      </trkpt>
      <trkpt lat="43.21858" lon="-0.72522">
        <ele>287.5900032</ele>
        <time>2018-09-30T08:57:08.000Z</time>
      </trkpt>
      <trkpt lat="43.21858" lon="-0.72532">
        <ele>288</ele>
        <time>2018-09-30T08:57:10.000Z</time>
      </trkpt>
      <trkpt lat="43.21857" lon="-0.72541">
        <ele>289</ele>
        <time>2018-09-30T08:57:12.000Z</time>
      </trkpt>
      <trkpt lat="43.21856" lon="-0.7255">
        <ele>289</ele>
        <time>2018-09-30T08:57:14.000Z</time>
      </trkpt>
      <trkpt lat="43.21855" lon="-0.7256">
        <ele>289</ele>
        <time>2018-09-30T08:57:16.000Z</time>
      </trkpt>
      <trkpt lat="43.21854" lon="-0.72569">
        <ele>289.5900032</ele>
        <time>2018-09-30T08:57:18.000Z</time>
      </trkpt>
      <trkpt lat="43.21853" lon="-0.72574">
        <ele>290</ele>
        <time>2018-09-30T08:57:19.000Z</time>
      </trkpt>
      <trkpt lat="43.21852" lon="-0.72579">
        <ele>290</ele>
        <time>2018-09-30T08:57:20.000Z</time>
      </trkpt>
      <trkpt lat="43.21852" lon="-0.72584">
        <ele>290.5900032</ele>
        <time>2018-09-30T08:57:21.000Z</time>
      </trkpt>
      <trkpt lat="43.21851" lon="-0.72589">
        <ele>291</ele>
        <time>2018-09-30T08:57:22.000Z</time>
      </trkpt>
      <trkpt lat="43.21851" lon="-0.72594">
        <ele>291</ele>
        <time>2018-09-30T08:57:23.000Z</time>
      </trkpt>
      <trkpt lat="43.2185" lon="-0.726">
        <ele>291</ele>
        <time>2018-09-30T08:57:24.000Z</time>
      </trkpt>
      <trkpt lat="43.2185" lon="-0.72605">
        <ele>291</ele>
        <time>2018-09-30T08:57:25.000Z</time>
      </trkpt>
      <trkpt lat="43.21849" lon="-0.7261">
        <ele>291</ele>
        <time>2018-09-30T08:57:26.000Z</time>
      </trkpt>
      <trkpt lat="43.21848" lon="-0.72615">
        <ele>290.4099968</ele>
        <time>2018-09-30T08:57:27.000Z</time>
      </trkpt>
      <trkpt lat="43.21848" lon="-0.7262">
        <ele>290</ele>
        <time>2018-09-30T08:57:28.000Z</time>
      </trkpt>
      <trkpt lat="43.21848" lon="-0.72625">
        <ele>290</ele>
        <time>2018-09-30T08:57:29.000Z</time>
      </trkpt>
      <trkpt lat="43.21848" lon="-0.7263">
        <ele>290.5900032</ele>
        <time>2018-09-30T08:57:30.000Z</time>
      </trkpt>
      <trkpt lat="43.21848" lon="-0.72636">
        <ele>291</ele>
        <time>2018-09-30T08:57:31.000Z</time>
      </trkpt>
      <trkpt lat="43.21849" lon="-0.72641">
        <ele>291</ele>
        <time>2018-09-30T08:57:32.000Z</time>
      </trkpt>
      <trkpt lat="43.21849" lon="-0.72646">
        <ele>291</ele>
        <time>2018-09-30T08:57:33.000Z</time>
      </trkpt>
      <trkpt lat="43.21849" lon="-0.72652">
        <ele>291</ele>
        <time>2018-09-30T08:57:34.000Z</time>
      </trkpt>
      <trkpt lat="43.2185" lon="-0.72661">
        <ele>291</ele>
        <time>2018-09-30T08:57:36.000Z</time>
      </trkpt>
      <trkpt lat="43.2185" lon="-0.72671">
        <ele>291</ele>
        <time>2018-09-30T08:57:38.000Z</time>
      </trkpt>
      <trkpt lat="43.21851" lon="-0.72676">
        <ele>292</ele>
        <time>2018-09-30T08:57:39.000Z</time>
      </trkpt>
      <trkpt lat="43.21852" lon="-0.72681">
        <ele>292</ele>
        <time>2018-09-30T08:57:40.000Z</time>
      </trkpt>
      <trkpt lat="43.21853" lon="-0.72691">
        <ele>292</ele>
        <time>2018-09-30T08:57:42.000Z</time>
      </trkpt>
      <trkpt lat="43.21855" lon="-0.727">
        <ele>292</ele>
        <time>2018-09-30T08:57:44.000Z</time>
      </trkpt>
      <trkpt lat="43.21857" lon="-0.72705">
        <ele>292</ele>
        <time>2018-09-30T08:57:45.000Z</time>
      </trkpt>
      <trkpt lat="43.2186" lon="-0.72711">
        <ele>292</ele>
        <time>2018-09-30T08:57:46.000Z</time>
      </trkpt>
      <trkpt lat="43.21864" lon="-0.72716">
        <ele>292</ele>
        <time>2018-09-30T08:57:47.000Z</time>
      </trkpt>
      <trkpt lat="43.21867" lon="-0.7272">
        <ele>292</ele>
        <time>2018-09-30T08:57:48.000Z</time>
      </trkpt>
      <trkpt lat="43.2187" lon="-0.72724">
        <ele>292.4142849306</ele>
        <time>2018-09-30T08:57:49.000Z</time>
      </trkpt>
      <trkpt lat="43.21874" lon="-0.72728">
        <ele>293</ele>
        <time>2018-09-30T08:57:50.000Z</time>
      </trkpt>
      <trkpt lat="43.21877" lon="-0.72732">
        <ele>293</ele>
        <time>2018-09-30T08:57:51.000Z</time>
      </trkpt>
      <trkpt lat="43.2188" lon="-0.72736">
        <ele>293.5900032</ele>
        <time>2018-09-30T08:57:52.000Z</time>
      </trkpt>
      <trkpt lat="43.21883" lon="-0.72739">
        <ele>294</ele>
        <time>2018-09-30T08:57:53.000Z</time>
      </trkpt>
      <trkpt lat="43.21886" lon="-0.72743">
        <ele>294</ele>
        <time>2018-09-30T08:57:54.000Z</time>
      </trkpt>
      <trkpt lat="43.21888" lon="-0.72747">
        <ele>294.5900032</ele>
        <time>2018-09-30T08:57:55.000Z</time>
      </trkpt>
      <trkpt lat="43.2189" lon="-0.72752">
        <ele>295</ele>
        <time>2018-09-30T08:57:56.000Z</time>
      </trkpt>
      <trkpt lat="43.21892" lon="-0.72757">
        <ele>295</ele>
        <time>2018-09-30T08:57:57.000Z</time>
      </trkpt>
      <trkpt lat="43.21894" lon="-0.72761">
        <ele>295</ele>
        <time>2018-09-30T08:57:58.000Z</time>
      </trkpt>
      <trkpt lat="43.21895" lon="-0.72767">
        <ele>295</ele>
        <time>2018-09-30T08:57:59.000Z</time>
      </trkpt>
      <trkpt lat="43.21895" lon="-0.72772">
        <ele>295</ele>
        <time>2018-09-30T08:58:00.000Z</time>
      </trkpt>
      <trkpt lat="43.21895" lon="-0.72778">
        <ele>295</ele>
        <time>2018-09-30T08:58:01.000Z</time>
      </trkpt>
      <trkpt lat="43.21895" lon="-0.72783">
        <ele>295</ele>
        <time>2018-09-30T08:58:02.000Z</time>
      </trkpt>
      <trkpt lat="43.21895" lon="-0.72789">
        <ele>295</ele>
        <time>2018-09-30T08:58:03.000Z</time>
      </trkpt>
      <trkpt lat="43.21894" lon="-0.72795">
        <ele>295</ele>
        <time>2018-09-30T08:58:04.000Z</time>
      </trkpt>
      <trkpt lat="43.21893" lon="-0.72802">
        <ele>295</ele>
        <time>2018-09-30T08:58:05.000Z</time>
      </trkpt>
      <trkpt lat="43.21892" lon="-0.72808">
        <ele>295</ele>
        <time>2018-09-30T08:58:06.000Z</time>
      </trkpt>
      <trkpt lat="43.21891" lon="-0.72814">
        <ele>295</ele>
        <time>2018-09-30T08:58:07.000Z</time>
      </trkpt>
      <trkpt lat="43.21891" lon="-0.7282">
        <ele>295</ele>
        <time>2018-09-30T08:58:08.000Z</time>
      </trkpt>
      <trkpt lat="43.2189" lon="-0.72827">
        <ele>295</ele>
        <time>2018-09-30T08:58:09.000Z</time>
      </trkpt>
      <trkpt lat="43.2189" lon="-0.72833">
        <ele>295</ele>
        <time>2018-09-30T08:58:10.000Z</time>
      </trkpt>
      <trkpt lat="43.2189" lon="-0.7284">
        <ele>295</ele>
        <time>2018-09-30T08:58:11.000Z</time>
      </trkpt>
      <trkpt lat="43.2189" lon="-0.72846">
        <ele>295</ele>
        <time>2018-09-30T08:58:12.000Z</time>
      </trkpt>
      <trkpt lat="43.2189" lon="-0.72853">
        <ele>295</ele>
        <time>2018-09-30T08:58:13.000Z</time>
      </trkpt>
      <trkpt lat="43.2189" lon="-0.72859">
        <ele>295</ele>
        <time>2018-09-30T08:58:14.000Z</time>
      </trkpt>
      <trkpt lat="43.2189" lon="-0.72866">
        <ele>295</ele>
        <time>2018-09-30T08:58:15.000Z</time>
      </trkpt>
      <trkpt lat="43.2189" lon="-0.72872">
        <ele>295</ele>
        <time>2018-09-30T08:58:16.000Z</time>
      </trkpt>
      <trkpt lat="43.2189" lon="-0.72878">
        <ele>295</ele>
        <time>2018-09-30T08:58:17.000Z</time>
      </trkpt>
      <trkpt lat="43.21889" lon="-0.72885">
        <ele>295</ele>
        <time>2018-09-30T08:58:18.000Z</time>
      </trkpt>
      <trkpt lat="43.21888" lon="-0.7289">
        <ele>295</ele>
        <time>2018-09-30T08:58:19.000Z</time>
      </trkpt>
      <trkpt lat="43.21888" lon="-0.72896">
        <ele>295</ele>
        <time>2018-09-30T08:58:20.000Z</time>
      </trkpt>
      <trkpt lat="43.21888" lon="-0.72901">
        <ele>295</ele>
        <time>2018-09-30T08:58:21.000Z</time>
      </trkpt>
      <trkpt lat="43.21887" lon="-0.72907">
        <ele>295</ele>
        <time>2018-09-30T08:58:22.000Z</time>
      </trkpt>
      <trkpt lat="43.21887" lon="-0.72912">
        <ele>295</ele>
        <time>2018-09-30T08:58:23.000Z</time>
      </trkpt>
      <trkpt lat="43.21886" lon="-0.72917">
        <ele>295</ele>
        <time>2018-09-30T08:58:24.000Z</time>
      </trkpt>
      <trkpt lat="43.21885" lon="-0.72922">
        <ele>295</ele>
        <time>2018-09-30T08:58:25.000Z</time>
      </trkpt>
      <trkpt lat="43.21884" lon="-0.72928">
        <ele>295.5900032</ele>
        <time>2018-09-30T08:58:26.000Z</time>
      </trkpt>
      <trkpt lat="43.21884" lon="-0.72933">
        <ele>296</ele>
        <time>2018-09-30T08:58:27.000Z</time>
      </trkpt>
      <trkpt lat="43.21884" lon="-0.72938">
        <ele>296</ele>
        <time>2018-09-30T08:58:28.000Z</time>
      </trkpt>
      <trkpt lat="43.21884" lon="-0.72948">
        <ele>296</ele>
        <time>2018-09-30T08:58:30.000Z</time>
      </trkpt>
      <trkpt lat="43.21884" lon="-0.72957">
        <ele>297</ele>
        <time>2018-09-30T08:58:32.000Z</time>
      </trkpt>
      <trkpt lat="43.21884" lon="-0.72966">
        <ele>297</ele>
        <time>2018-09-30T08:58:34.000Z</time>
      </trkpt>
      <trkpt lat="43.21884" lon="-0.72971">
        <ele>297</ele>
        <time>2018-09-30T08:58:35.000Z</time>
      </trkpt>
      <trkpt lat="43.21884" lon="-0.72976">
        <ele>297</ele>
        <time>2018-09-30T08:58:36.000Z</time>
      </trkpt>
      <trkpt lat="43.21886" lon="-0.72985">
        <ele>297</ele>
        <time>2018-09-30T08:58:38.000Z</time>
      </trkpt>
      <trkpt lat="43.21888" lon="-0.72995">
        <ele>297</ele>
        <time>2018-09-30T08:58:40.000Z</time>
      </trkpt>
      <trkpt lat="43.21888" lon="-0.73">
        <ele>297</ele>
        <time>2018-09-30T08:58:41.000Z</time>
      </trkpt>
      <trkpt lat="43.21889" lon="-0.73006">
        <ele>296.4099968</ele>
        <time>2018-09-30T08:58:42.000Z</time>
      </trkpt>
      <trkpt lat="43.21889" lon="-0.73011">
        <ele>296</ele>
        <time>2018-09-30T08:58:43.000Z</time>
      </trkpt>
      <trkpt lat="43.21889" lon="-0.73017">
        <ele>296</ele>
        <time>2018-09-30T08:58:44.000Z</time>
      </trkpt>
      <trkpt lat="43.21889" lon="-0.73023">
        <ele>296</ele>
        <time>2018-09-30T08:58:45.000Z</time>
      </trkpt>
      <trkpt lat="43.21889" lon="-0.73028">
        <ele>295.4099968</ele>
        <time>2018-09-30T08:58:46.000Z</time>
      </trkpt>
      <trkpt lat="43.21893" lon="-0.73035">
        <ele>295</ele>
        <time>2018-09-30T08:58:48.000Z</time>
      </trkpt>
      <trkpt lat="43.21899" lon="-0.73038">
        <ele>294.55638750409</ele>
        <time>2018-09-30T08:58:50.000Z</time>
      </trkpt>
      <trkpt lat="43.21902" lon="-0.73038">
        <ele>293.61193259972</ele>
        <time>2018-09-30T08:58:51.000Z</time>
      </trkpt>
      <trkpt lat="43.21907" lon="-0.73037">
        <ele>292.4099968</ele>
        <time>2018-09-30T08:58:52.000Z</time>
      </trkpt>
      <trkpt lat="43.21918" lon="-0.73037">
        <ele>292</ele>
        <time>2018-09-30T08:58:54.000Z</time>
      </trkpt>
      <trkpt lat="43.21932" lon="-0.73038">
        <ele>289.4099968</ele>
        <time>2018-09-30T08:58:56.000Z</time>
      </trkpt>
      <trkpt lat="43.21944" lon="-0.73039">
        <ele>288.54263658193</ele>
        <time>2018-09-30T08:58:58.000Z</time>
      </trkpt>
      <trkpt lat="43.21955" lon="-0.73037">
        <ele>287</ele>
        <time>2018-09-30T08:59:00.000Z</time>
      </trkpt>
      <trkpt lat="43.21968" lon="-0.73035">
        <ele>285</ele>
        <time>2018-09-30T08:59:02.000Z</time>
      </trkpt>
      <trkpt lat="43.21979" lon="-0.73039">
        <ele>283.4099968</ele>
        <time>2018-09-30T08:59:04.000Z</time>
      </trkpt>
      <trkpt lat="43.21991" lon="-0.73046">
        <ele>283</ele>
        <time>2018-09-30T08:59:06.000Z</time>
      </trkpt>
      <trkpt lat="43.22001" lon="-0.73054">
        <ele>282</ele>
        <time>2018-09-30T08:59:08.000Z</time>
      </trkpt>
      <trkpt lat="43.22013" lon="-0.73061">
        <ele>281.4099968</ele>
        <time>2018-09-30T08:59:10.000Z</time>
      </trkpt>
      <trkpt lat="43.22023" lon="-0.73069">
        <ele>280</ele>
        <time>2018-09-30T08:59:12.000Z</time>
      </trkpt>
      <trkpt lat="43.22034" lon="-0.73082">
        <ele>277.4099968</ele>
        <time>2018-09-30T08:59:15.000Z</time>
      </trkpt>
      <trkpt lat="43.22038" lon="-0.73086">
        <ele>277</ele>
        <time>2018-09-30T08:59:16.000Z</time>
      </trkpt>
      <trkpt lat="43.22042" lon="-0.73088">
        <ele>277</ele>
        <time>2018-09-30T08:59:17.000Z</time>
      </trkpt>
      <trkpt lat="43.22045" lon="-0.73091">
        <ele>276.56944</ele>
        <time>2018-09-30T08:59:18.000Z</time>
      </trkpt>
      <trkpt lat="43.22048" lon="-0.73094">
        <ele>276</ele>
        <time>2018-09-30T08:59:19.000Z</time>
      </trkpt>
      <trkpt lat="43.22052" lon="-0.73097">
        <ele>276</ele>
        <time>2018-09-30T08:59:20.000Z</time>
      </trkpt>
      <trkpt lat="43.22065" lon="-0.73105">
        <ele>275.4099968</ele>
        <time>2018-09-30T08:59:23.000Z</time>
      </trkpt>
      <trkpt lat="43.22076" lon="-0.73109">
        <ele>275</ele>
        <time>2018-09-30T08:59:25.000Z</time>
      </trkpt>
      <trkpt lat="43.22093" lon="-0.73112">
        <ele>273</ele>
        <time>2018-09-30T08:59:28.000Z</time>
      </trkpt>
      <trkpt lat="43.22103" lon="-0.73116">
        <ele>273</ele>
        <time>2018-09-30T08:59:30.000Z</time>
      </trkpt>
      <trkpt lat="43.22114" lon="-0.73122">
        <ele>272.4099968</ele>
        <time>2018-09-30T08:59:32.000Z</time>
      </trkpt>
      <trkpt lat="43.22125" lon="-0.73125">
        <ele>271</ele>
        <time>2018-09-30T08:59:34.000Z</time>
      </trkpt>
      <trkpt lat="43.22136" lon="-0.73127">
        <ele>271</ele>
        <time>2018-09-30T08:59:36.000Z</time>
      </trkpt>
      <trkpt lat="43.22151" lon="-0.73128">
        <ele>271</ele>
        <time>2018-09-30T08:59:39.000Z</time>
      </trkpt>
      <trkpt lat="43.22163" lon="-0.73131">
        <ele>270</ele>
        <time>2018-09-30T08:59:41.000Z</time>
      </trkpt>
      <trkpt lat="43.22168" lon="-0.73133">
        <ele>270</ele>
        <time>2018-09-30T08:59:42.000Z</time>
      </trkpt>
      <trkpt lat="43.22172" lon="-0.73134">
        <ele>270</ele>
        <time>2018-09-30T08:59:43.000Z</time>
      </trkpt>
      <trkpt lat="43.22176" lon="-0.73134">
        <ele>270</ele>
        <time>2018-09-30T08:59:44.000Z</time>
      </trkpt>
      <trkpt lat="43.2218" lon="-0.73132">
        <ele>270</ele>
        <time>2018-09-30T08:59:45.000Z</time>
      </trkpt>
      <trkpt lat="43.22185" lon="-0.7313">
        <ele>270</ele>
        <time>2018-09-30T08:59:46.000Z</time>
      </trkpt>
      <trkpt lat="43.22189" lon="-0.73127">
        <ele>270</ele>
        <time>2018-09-30T08:59:47.000Z</time>
      </trkpt>
      <trkpt lat="43.22193" lon="-0.73124">
        <ele>270</ele>
        <time>2018-09-30T08:59:48.000Z</time>
      </trkpt>
      <trkpt lat="43.22197" lon="-0.73121">
        <ele>270</ele>
        <time>2018-09-30T08:59:49.000Z</time>
      </trkpt>
      <trkpt lat="43.22201" lon="-0.73119">
        <ele>270</ele>
        <time>2018-09-30T08:59:50.000Z</time>
      </trkpt>
      <trkpt lat="43.22205" lon="-0.73117">
        <ele>270</ele>
        <time>2018-09-30T08:59:51.000Z</time>
      </trkpt>
      <trkpt lat="43.22211" lon="-0.73114">
        <ele>270</ele>
        <time>2018-09-30T08:59:53.000Z</time>
      </trkpt>
      <trkpt lat="43.22215" lon="-0.73108">
        <ele>270</ele>
        <time>2018-09-30T08:59:55.000Z</time>
      </trkpt>
      <trkpt lat="43.22218" lon="-0.73102">
        <ele>270</ele>
        <time>2018-09-30T08:59:57.000Z</time>
      </trkpt>
      <trkpt lat="43.22222" lon="-0.73093">
        <ele>270</ele>
        <time>2018-09-30T08:59:59.000Z</time>
      </trkpt>
      <trkpt lat="43.22225" lon="-0.7309">
        <ele>270</ele>
        <time>2018-09-30T09:00:01.000Z</time>
      </trkpt>
      <trkpt lat="43.22229" lon="-0.7309">
        <ele>270</ele>
        <time>2018-09-30T09:00:02.000Z</time>
      </trkpt>
      <trkpt lat="43.22233" lon="-0.73092">
        <ele>270.5900032</ele>
        <time>2018-09-30T09:00:03.000Z</time>
      </trkpt>
      <trkpt lat="43.22237" lon="-0.73094">
        <ele>271.5900032</ele>
        <time>2018-09-30T09:00:04.000Z</time>
      </trkpt>
      <trkpt lat="43.22242" lon="-0.73096">
        <ele>272</ele>
        <time>2018-09-30T09:00:05.000Z</time>
      </trkpt>
      <trkpt lat="43.22246" lon="-0.73098">
        <ele>272</ele>
        <time>2018-09-30T09:00:06.000Z</time>
      </trkpt>
      <trkpt lat="43.22254" lon="-0.73102">
        <ele>271.4099968</ele>
        <time>2018-09-30T09:00:08.000Z</time>
      </trkpt>
      <trkpt lat="43.22258" lon="-0.73105">
        <ele>271</ele>
        <time>2018-09-30T09:00:09.000Z</time>
      </trkpt>
      <trkpt lat="43.22262" lon="-0.73108">
        <ele>270.4099968</ele>
        <time>2018-09-30T09:00:10.000Z</time>
      </trkpt>
      <trkpt lat="43.22275" lon="-0.73121">
        <ele>268.57746808971</ele>
        <time>2018-09-30T09:00:13.000Z</time>
      </trkpt>
      <trkpt lat="43.22283" lon="-0.73135">
        <ele>267.60293647059</ele>
        <time>2018-09-30T09:00:15.000Z</time>
      </trkpt>
      <trkpt lat="43.22287" lon="-0.7314">
        <ele>267</ele>
        <time>2018-09-30T09:00:16.000Z</time>
      </trkpt>
      <trkpt lat="43.22292" lon="-0.73144">
        <ele>267</ele>
        <time>2018-09-30T09:00:17.000Z</time>
      </trkpt>
      <trkpt lat="43.22296" lon="-0.73148">
        <ele>266.4099968</ele>
        <time>2018-09-30T09:00:18.000Z</time>
      </trkpt>
      <trkpt lat="43.223" lon="-0.7315">
        <ele>266</ele>
        <time>2018-09-30T09:00:19.000Z</time>
      </trkpt>
      <trkpt lat="43.22313" lon="-0.73152">
        <ele>265</ele>
        <time>2018-09-30T09:00:22.000Z</time>
      </trkpt>
      <trkpt lat="43.22319" lon="-0.7315">
        <ele>265</ele>
        <time>2018-09-30T09:00:23.000Z</time>
      </trkpt>
      <trkpt lat="43.22333" lon="-0.73149">
        <ele>265</ele>
        <time>2018-09-30T09:00:25.000Z</time>
      </trkpt>
      <trkpt lat="43.22349" lon="-0.7315">
        <ele>265</ele>
        <time>2018-09-30T09:00:27.000Z</time>
      </trkpt>
      <trkpt lat="43.22363" lon="-0.73153">
        <ele>265</ele>
        <time>2018-09-30T09:00:29.000Z</time>
      </trkpt>
      <trkpt lat="43.22379" lon="-0.73156">
        <ele>264</ele>
        <time>2018-09-30T09:00:31.000Z</time>
      </trkpt>
      <trkpt lat="43.22386" lon="-0.73158">
        <ele>264</ele>
        <time>2018-09-30T09:00:32.000Z</time>
      </trkpt>
      <trkpt lat="43.22394" lon="-0.73159">
        <ele>264</ele>
        <time>2018-09-30T09:00:33.000Z</time>
      </trkpt>
      <trkpt lat="43.22401" lon="-0.7316">
        <ele>264</ele>
        <time>2018-09-30T09:00:34.000Z</time>
      </trkpt>
      <trkpt lat="43.22408" lon="-0.7316">
        <ele>264</ele>
        <time>2018-09-30T09:00:35.000Z</time>
      </trkpt>
      <trkpt lat="43.22415" lon="-0.7316">
        <ele>264</ele>
        <time>2018-09-30T09:00:36.000Z</time>
      </trkpt>
      <trkpt lat="43.22421" lon="-0.7316">
        <ele>264.5900032</ele>
        <time>2018-09-30T09:00:37.000Z</time>
      </trkpt>
      <trkpt lat="43.22426" lon="-0.73161">
        <ele>265.5900032</ele>
        <time>2018-09-30T09:00:38.000Z</time>
      </trkpt>
      <trkpt lat="43.22431" lon="-0.73162">
        <ele>266</ele>
        <time>2018-09-30T09:00:39.000Z</time>
      </trkpt>
      <trkpt lat="43.22435" lon="-0.73164">
        <ele>266</ele>
        <time>2018-09-30T09:00:40.000Z</time>
      </trkpt>
      <trkpt lat="43.22438" lon="-0.73167">
        <ele>266</ele>
        <time>2018-09-30T09:00:41.000Z</time>
      </trkpt>
      <trkpt lat="43.22442" lon="-0.7317">
        <ele>266</ele>
        <time>2018-09-30T09:00:42.000Z</time>
      </trkpt>
      <trkpt lat="43.22446" lon="-0.73172">
        <ele>266</ele>
        <time>2018-09-30T09:00:43.000Z</time>
      </trkpt>
      <trkpt lat="43.22451" lon="-0.73173">
        <ele>266</ele>
        <time>2018-09-30T09:00:44.000Z</time>
      </trkpt>
      <trkpt lat="43.22456" lon="-0.73175">
        <ele>266</ele>
        <time>2018-09-30T09:00:45.000Z</time>
      </trkpt>
      <trkpt lat="43.22462" lon="-0.73176">
        <ele>266</ele>
        <time>2018-09-30T09:00:46.000Z</time>
      </trkpt>
      <trkpt lat="43.22467" lon="-0.73176">
        <ele>266</ele>
        <time>2018-09-30T09:00:47.000Z</time>
      </trkpt>
      <trkpt lat="43.22473" lon="-0.73176">
        <ele>265.4099968</ele>
        <time>2018-09-30T09:00:48.000Z</time>
      </trkpt>
      <trkpt lat="43.22479" lon="-0.73175">
        <ele>265</ele>
        <time>2018-09-30T09:00:49.000Z</time>
      </trkpt>
      <trkpt lat="43.22485" lon="-0.73173">
        <ele>264.4099968</ele>
        <time>2018-09-30T09:00:50.000Z</time>
      </trkpt>
      <trkpt lat="43.22491" lon="-0.73169">
        <ele>264</ele>
        <time>2018-09-30T09:00:51.000Z</time>
      </trkpt>
      <trkpt lat="43.22503" lon="-0.73159">
        <ele>264</ele>
        <time>2018-09-30T09:00:53.000Z</time>
      </trkpt>
      <trkpt lat="43.22514" lon="-0.7315">
        <ele>263</ele>
        <time>2018-09-30T09:00:55.000Z</time>
      </trkpt>
      <trkpt lat="43.22526" lon="-0.73148">
        <ele>263</ele>
        <time>2018-09-30T09:00:57.000Z</time>
      </trkpt>
      <trkpt lat="43.22539" lon="-0.73151">
        <ele>261.4099968</ele>
        <time>2018-09-30T09:00:59.000Z</time>
      </trkpt>
      <trkpt lat="43.22552" lon="-0.73154">
        <ele>261</ele>
        <time>2018-09-30T09:01:01.000Z</time>
      </trkpt>
      <trkpt lat="43.22565" lon="-0.7316">
        <ele>261</ele>
        <time>2018-09-30T09:01:03.000Z</time>
      </trkpt>
      <trkpt lat="43.22578" lon="-0.73166">
        <ele>260</ele>
        <time>2018-09-30T09:01:05.000Z</time>
      </trkpt>
      <trkpt lat="43.22586" lon="-0.7317">
        <ele>260</ele>
        <time>2018-09-30T09:01:06.000Z</time>
      </trkpt>
      <trkpt lat="43.22593" lon="-0.73172">
        <ele>259.55302787879</ele>
        <time>2018-09-30T09:01:07.000Z</time>
      </trkpt>
      <trkpt lat="43.22599" lon="-0.73172">
        <ele>259</ele>
        <time>2018-09-30T09:01:08.000Z</time>
      </trkpt>
      <trkpt lat="43.22605" lon="-0.7317">
        <ele>259</ele>
        <time>2018-09-30T09:01:09.000Z</time>
      </trkpt>
      <trkpt lat="43.22611" lon="-0.73168">
        <ele>259</ele>
        <time>2018-09-30T09:01:10.000Z</time>
      </trkpt>
      <trkpt lat="43.22616" lon="-0.73167">
        <ele>259.45736795626</ele>
        <time>2018-09-30T09:01:11.000Z</time>
      </trkpt>
      <trkpt lat="43.22622" lon="-0.73168">
        <ele>260</ele>
        <time>2018-09-30T09:01:12.000Z</time>
      </trkpt>
      <trkpt lat="43.22626" lon="-0.7317">
        <ele>260</ele>
        <time>2018-09-30T09:01:13.000Z</time>
      </trkpt>
      <trkpt lat="43.22631" lon="-0.73173">
        <ele>260.5900032</ele>
        <time>2018-09-30T09:01:14.000Z</time>
      </trkpt>
      <trkpt lat="43.22635" lon="-0.73177">
        <ele>261</ele>
        <time>2018-09-30T09:01:15.000Z</time>
      </trkpt>
      <trkpt lat="43.2264" lon="-0.73181">
        <ele>261</ele>
        <time>2018-09-30T09:01:16.000Z</time>
      </trkpt>
      <trkpt lat="43.22645" lon="-0.73186">
        <ele>261</ele>
        <time>2018-09-30T09:01:17.000Z</time>
      </trkpt>
      <trkpt lat="43.22649" lon="-0.73191">
        <ele>261</ele>
        <time>2018-09-30T09:01:18.000Z</time>
      </trkpt>
      <trkpt lat="43.22654" lon="-0.73196">
        <ele>261</ele>
        <time>2018-09-30T09:01:19.000Z</time>
      </trkpt>
      <trkpt lat="43.22658" lon="-0.732">
        <ele>261</ele>
        <time>2018-09-30T09:01:20.000Z</time>
      </trkpt>
      <trkpt lat="43.22663" lon="-0.73204">
        <ele>261</ele>
        <time>2018-09-30T09:01:21.000Z</time>
      </trkpt>
      <trkpt lat="43.22668" lon="-0.73208">
        <ele>261</ele>
        <time>2018-09-30T09:01:22.000Z</time>
      </trkpt>
      <trkpt lat="43.22674" lon="-0.73212">
        <ele>261</ele>
        <time>2018-09-30T09:01:23.000Z</time>
      </trkpt>
      <trkpt lat="43.22679" lon="-0.73215">
        <ele>261</ele>
        <time>2018-09-30T09:01:24.000Z</time>
      </trkpt>
      <trkpt lat="43.22684" lon="-0.73218">
        <ele>261</ele>
        <time>2018-09-30T09:01:25.000Z</time>
      </trkpt>
      <trkpt lat="43.22689" lon="-0.7322">
        <ele>261.4142849306</ele>
        <time>2018-09-30T09:01:26.000Z</time>
      </trkpt>
      <trkpt lat="43.22694" lon="-0.73222">
        <ele>262</ele>
        <time>2018-09-30T09:01:27.000Z</time>
      </trkpt>
      <trkpt lat="43.22699" lon="-0.73223">
        <ele>262</ele>
        <time>2018-09-30T09:01:28.000Z</time>
      </trkpt>
      <trkpt lat="43.22703" lon="-0.73225">
        <ele>262</ele>
        <time>2018-09-30T09:01:29.000Z</time>
      </trkpt>
      <trkpt lat="43.22708" lon="-0.73227">
        <ele>262</ele>
        <time>2018-09-30T09:01:30.000Z</time>
      </trkpt>
      <trkpt lat="43.22713" lon="-0.73228">
        <ele>262</ele>
        <time>2018-09-30T09:01:31.000Z</time>
      </trkpt>
      <trkpt lat="43.22717" lon="-0.73229">
        <ele>262</ele>
        <time>2018-09-30T09:01:32.000Z</time>
      </trkpt>
      <trkpt lat="43.22722" lon="-0.73232">
        <ele>262</ele>
        <time>2018-09-30T09:01:33.000Z</time>
      </trkpt>
      <trkpt lat="43.22726" lon="-0.73234">
        <ele>262</ele>
        <time>2018-09-30T09:01:34.000Z</time>
      </trkpt>
      <trkpt lat="43.22731" lon="-0.73236">
        <ele>262</ele>
        <time>2018-09-30T09:01:35.000Z</time>
      </trkpt>
      <trkpt lat="43.22736" lon="-0.73238">
        <ele>262</ele>
        <time>2018-09-30T09:01:36.000Z</time>
      </trkpt>
      <trkpt lat="43.2274" lon="-0.73239">
        <ele>262</ele>
        <time>2018-09-30T09:01:37.000Z</time>
      </trkpt>
      <trkpt lat="43.22745" lon="-0.73239">
        <ele>262</ele>
        <time>2018-09-30T09:01:38.000Z</time>
      </trkpt>
      <trkpt lat="43.22749" lon="-0.73238">
        <ele>262</ele>
        <time>2018-09-30T09:01:39.000Z</time>
      </trkpt>
      <trkpt lat="43.22753" lon="-0.73236">
        <ele>262</ele>
        <time>2018-09-30T09:01:40.000Z</time>
      </trkpt>
      <trkpt lat="43.22756" lon="-0.73233">
        <ele>262</ele>
        <time>2018-09-30T09:01:41.000Z</time>
      </trkpt>
      <trkpt lat="43.22759" lon="-0.73231">
        <ele>262</ele>
        <time>2018-09-30T09:01:42.000Z</time>
      </trkpt>
      <trkpt lat="43.22763" lon="-0.73229">
        <ele>262.5900032</ele>
        <time>2018-09-30T09:01:43.000Z</time>
      </trkpt>
      <trkpt lat="43.22767" lon="-0.73228">
        <ele>263</ele>
        <time>2018-09-30T09:01:44.000Z</time>
      </trkpt>
      <trkpt lat="43.22771" lon="-0.73227">
        <ele>263</ele>
        <time>2018-09-30T09:01:45.000Z</time>
      </trkpt>
      <trkpt lat="43.22778" lon="-0.73231">
        <ele>263</ele>
        <time>2018-09-30T09:01:47.000Z</time>
      </trkpt>
      <trkpt lat="43.22781" lon="-0.73233">
        <ele>263.43056</ele>
        <time>2018-09-30T09:01:48.000Z</time>
      </trkpt>
      <trkpt lat="43.22785" lon="-0.73237">
        <ele>264</ele>
        <time>2018-09-30T09:01:49.000Z</time>
      </trkpt>
      <trkpt lat="43.22789" lon="-0.73242">
        <ele>263.56944</ele>
        <time>2018-09-30T09:01:50.000Z</time>
      </trkpt>
      <trkpt lat="43.22792" lon="-0.73246">
        <ele>263</ele>
        <time>2018-09-30T09:01:51.000Z</time>
      </trkpt>
      <trkpt lat="43.22796" lon="-0.73251">
        <ele>263</ele>
        <time>2018-09-30T09:01:52.000Z</time>
      </trkpt>
      <trkpt lat="43.22799" lon="-0.73255">
        <ele>263</ele>
        <time>2018-09-30T09:01:53.000Z</time>
      </trkpt>
      <trkpt lat="43.22803" lon="-0.73259">
        <ele>263</ele>
        <time>2018-09-30T09:01:54.000Z</time>
      </trkpt>
      <trkpt lat="43.22807" lon="-0.73263">
        <ele>263</ele>
        <time>2018-09-30T09:01:55.000Z</time>
      </trkpt>
      <trkpt lat="43.22811" lon="-0.73266">
        <ele>263</ele>
        <time>2018-09-30T09:01:56.000Z</time>
      </trkpt>
      <trkpt lat="43.22815" lon="-0.73269">
        <ele>263</ele>
        <time>2018-09-30T09:01:57.000Z</time>
      </trkpt>
      <trkpt lat="43.22818" lon="-0.73272">
        <ele>263.5900032</ele>
        <time>2018-09-30T09:01:58.000Z</time>
      </trkpt>
      <trkpt lat="43.22823" lon="-0.73278">
        <ele>264</ele>
        <time>2018-09-30T09:02:00.000Z</time>
      </trkpt>
      <trkpt lat="43.22825" lon="-0.73286">
        <ele>264</ele>
        <time>2018-09-30T09:02:02.000Z</time>
      </trkpt>
      <trkpt lat="43.22826" lon="-0.73295">
        <ele>264</ele>
        <time>2018-09-30T09:02:04.000Z</time>
      </trkpt>
      <trkpt lat="43.22825" lon="-0.73304">
        <ele>264</ele>
        <time>2018-09-30T09:02:06.000Z</time>
      </trkpt>
      <trkpt lat="43.22825" lon="-0.73314">
        <ele>264</ele>
        <time>2018-09-30T09:02:08.000Z</time>
      </trkpt>
      <trkpt lat="43.22825" lon="-0.73319">
        <ele>264</ele>
        <time>2018-09-30T09:02:09.000Z</time>
      </trkpt>
      <trkpt lat="43.22825" lon="-0.73324">
        <ele>264</ele>
        <time>2018-09-30T09:02:10.000Z</time>
      </trkpt>
      <trkpt lat="43.22825" lon="-0.73329">
        <ele>264</ele>
        <time>2018-09-30T09:02:11.000Z</time>
      </trkpt>
      <trkpt lat="43.22825" lon="-0.73334">
        <ele>264</ele>
        <time>2018-09-30T09:02:12.000Z</time>
      </trkpt>
      <trkpt lat="43.22825" lon="-0.73339">
        <ele>264</ele>
        <time>2018-09-30T09:02:13.000Z</time>
      </trkpt>
      <trkpt lat="43.22826" lon="-0.73344">
        <ele>264</ele>
        <time>2018-09-30T09:02:14.000Z</time>
      </trkpt>
      <trkpt lat="43.22825" lon="-0.7335">
        <ele>264</ele>
        <time>2018-09-30T09:02:15.000Z</time>
      </trkpt>
      <trkpt lat="43.22826" lon="-0.73355">
        <ele>264</ele>
        <time>2018-09-30T09:02:16.000Z</time>
      </trkpt>
      <trkpt lat="43.22826" lon="-0.73361">
        <ele>264</ele>
        <time>2018-09-30T09:02:17.000Z</time>
      </trkpt>
      <trkpt lat="43.22826" lon="-0.73367">
        <ele>264.5900032</ele>
        <time>2018-09-30T09:02:18.000Z</time>
      </trkpt>
      <trkpt lat="43.22826" lon="-0.73373">
        <ele>265</ele>
        <time>2018-09-30T09:02:19.000Z</time>
      </trkpt>
      <trkpt lat="43.22826" lon="-0.73379">
        <ele>265</ele>
        <time>2018-09-30T09:02:20.000Z</time>
      </trkpt>
      <trkpt lat="43.22826" lon="-0.73385">
        <ele>265</ele>
        <time>2018-09-30T09:02:21.000Z</time>
      </trkpt>
      <trkpt lat="43.22826" lon="-0.73391">
        <ele>265</ele>
        <time>2018-09-30T09:02:22.000Z</time>
      </trkpt>
      <trkpt lat="43.22826" lon="-0.73397">
        <ele>265</ele>
        <time>2018-09-30T09:02:23.000Z</time>
      </trkpt>
      <trkpt lat="43.22826" lon="-0.73402">
        <ele>265</ele>
        <time>2018-09-30T09:02:24.000Z</time>
      </trkpt>
      <trkpt lat="43.22825" lon="-0.73408">
        <ele>265</ele>
        <time>2018-09-30T09:02:25.000Z</time>
      </trkpt>
      <trkpt lat="43.22826" lon="-0.73414">
        <ele>265</ele>
        <time>2018-09-30T09:02:26.000Z</time>
      </trkpt>
      <trkpt lat="43.22826" lon="-0.73419">
        <ele>265</ele>
        <time>2018-09-30T09:02:27.000Z</time>
      </trkpt>
      <trkpt lat="43.22826" lon="-0.73425">
        <ele>265.41511914544</ele>
        <time>2018-09-30T09:02:28.000Z</time>
      </trkpt>
      <trkpt lat="43.22825" lon="-0.73431">
        <ele>266</ele>
        <time>2018-09-30T09:02:29.000Z</time>
      </trkpt>
      <trkpt lat="43.22825" lon="-0.73436">
        <ele>266</ele>
        <time>2018-09-30T09:02:30.000Z</time>
      </trkpt>
      <trkpt lat="43.22825" lon="-0.73441">
        <ele>266.5900032</ele>
        <time>2018-09-30T09:02:31.000Z</time>
      </trkpt>
      <trkpt lat="43.22824" lon="-0.73447">
        <ele>267</ele>
        <time>2018-09-30T09:02:32.000Z</time>
      </trkpt>
      <trkpt lat="43.22823" lon="-0.73453">
        <ele>267</ele>
        <time>2018-09-30T09:02:33.000Z</time>
      </trkpt>
      <trkpt lat="43.22822" lon="-0.73459">
        <ele>267</ele>
        <time>2018-09-30T09:02:34.000Z</time>
      </trkpt>
      <trkpt lat="43.22821" lon="-0.73464">
        <ele>267.5900032</ele>
        <time>2018-09-30T09:02:35.000Z</time>
      </trkpt>
      <trkpt lat="43.2282" lon="-0.7347">
        <ele>268</ele>
        <time>2018-09-30T09:02:36.000Z</time>
      </trkpt>
      <trkpt lat="43.22818" lon="-0.73475">
        <ele>268</ele>
        <time>2018-09-30T09:02:37.000Z</time>
      </trkpt>
      <trkpt lat="43.22816" lon="-0.7348">
        <ele>268</ele>
        <time>2018-09-30T09:02:38.000Z</time>
      </trkpt>
      <trkpt lat="43.22814" lon="-0.73485">
        <ele>268</ele>
        <time>2018-09-30T09:02:39.000Z</time>
      </trkpt>
      <trkpt lat="43.22811" lon="-0.73491">
        <ele>268</ele>
        <time>2018-09-30T09:02:40.000Z</time>
      </trkpt>
      <trkpt lat="43.2281" lon="-0.73497">
        <ele>268</ele>
        <time>2018-09-30T09:02:41.000Z</time>
      </trkpt>
      <trkpt lat="43.22808" lon="-0.73504">
        <ele>268</ele>
        <time>2018-09-30T09:02:42.000Z</time>
      </trkpt>
      <trkpt lat="43.22808" lon="-0.73511">
        <ele>268</ele>
        <time>2018-09-30T09:02:43.000Z</time>
      </trkpt>
      <trkpt lat="43.22808" lon="-0.73517">
        <ele>268</ele>
        <time>2018-09-30T09:02:44.000Z</time>
      </trkpt>
      <trkpt lat="43.22809" lon="-0.73523">
        <ele>268</ele>
        <time>2018-09-30T09:02:45.000Z</time>
      </trkpt>
      <trkpt lat="43.2281" lon="-0.73528">
        <ele>268.45736341807</ele>
        <time>2018-09-30T09:02:46.000Z</time>
      </trkpt>
      <trkpt lat="43.22816" lon="-0.73533">
        <ele>269</ele>
        <time>2018-09-30T09:02:48.000Z</time>
      </trkpt>
      <trkpt lat="43.22821" lon="-0.73532">
        <ele>269</ele>
        <time>2018-09-30T09:02:50.000Z</time>
      </trkpt>
      <trkpt lat="43.22824" lon="-0.73526">
        <ele>269</ele>
        <time>2018-09-30T09:02:52.000Z</time>
      </trkpt>
      <trkpt lat="43.22826" lon="-0.73517">
        <ele>269</ele>
        <time>2018-09-30T09:02:54.000Z</time>
      </trkpt>
      <trkpt lat="43.22828" lon="-0.73508">
        <ele>270</ele>
        <time>2018-09-30T09:02:56.000Z</time>
      </trkpt>
      <trkpt lat="43.2283" lon="-0.73499">
        <ele>270.5900032</ele>
        <time>2018-09-30T09:02:58.000Z</time>
      </trkpt>
      <trkpt lat="43.22833" lon="-0.73493">
        <ele>271</ele>
        <time>2018-09-30T09:03:00.000Z</time>
      </trkpt>
      <trkpt lat="43.22837" lon="-0.73488">
        <ele>272</ele>
        <time>2018-09-30T09:03:02.000Z</time>
      </trkpt>
      <trkpt lat="43.22842" lon="-0.73485">
        <ele>273</ele>
        <time>2018-09-30T09:03:04.000Z</time>
      </trkpt>
      <trkpt lat="43.22856" lon="-0.73484">
        <ele>274</ele>
        <time>2018-09-30T09:03:08.000Z</time>
      </trkpt>
      <trkpt lat="43.22869" lon="-0.73486">
        <ele>274</ele>
        <time>2018-09-30T09:03:12.000Z</time>
      </trkpt>
      <trkpt lat="43.2288" lon="-0.73487">
        <ele>274</ele>
        <time>2018-09-30T09:03:18.000Z</time>
      </trkpt>
      <trkpt lat="43.22889" lon="-0.73484">
        <ele>274</ele>
        <time>2018-09-30T09:03:21.000Z</time>
      </trkpt>
      <trkpt lat="43.22898" lon="-0.73483">
        <ele>273.58488085456</ele>
        <time>2018-09-30T09:03:23.000Z</time>
      </trkpt>
      <trkpt lat="43.22914" lon="-0.73478">
        <ele>271</ele>
        <time>2018-09-30T09:03:26.000Z</time>
      </trkpt>
      <trkpt lat="43.2292" lon="-0.73475">
        <ele>271</ele>
        <time>2018-09-30T09:03:27.000Z</time>
      </trkpt>
      <trkpt lat="43.22927" lon="-0.73472">
        <ele>270.42718313885</ele>
        <time>2018-09-30T09:03:28.000Z</time>
      </trkpt>
      <trkpt lat="43.22941" lon="-0.73465">
        <ele>269</ele>
        <time>2018-09-30T09:03:30.000Z</time>
      </trkpt>
      <trkpt lat="43.22958" lon="-0.73459">
        <ele>267.60293647059</ele>
        <time>2018-09-30T09:03:32.000Z</time>
      </trkpt>
      <trkpt lat="43.22973" lon="-0.73455">
        <ele>264.4099968</ele>
        <time>2018-09-30T09:03:34.000Z</time>
      </trkpt>
      <trkpt lat="43.22989" lon="-0.73455">
        <ele>263</ele>
        <time>2018-09-30T09:03:36.000Z</time>
      </trkpt>
      <trkpt lat="43.22998" lon="-0.73457">
        <ele>262.58488085456</ele>
        <time>2018-09-30T09:03:37.000Z</time>
      </trkpt>
      <trkpt lat="43.23006" lon="-0.73461">
        <ele>261.4099968</ele>
        <time>2018-09-30T09:03:38.000Z</time>
      </trkpt>
      <trkpt lat="43.23015" lon="-0.73466">
        <ele>260.4099968</ele>
        <time>2018-09-30T09:03:39.000Z</time>
      </trkpt>
      <trkpt lat="43.23023" lon="-0.73473">
        <ele>259.4099968</ele>
        <time>2018-09-30T09:03:40.000Z</time>
      </trkpt>
      <trkpt lat="43.23031" lon="-0.73481">
        <ele>258.54927346332</ele>
        <time>2018-09-30T09:03:41.000Z</time>
      </trkpt>
      <trkpt lat="43.23039" lon="-0.73491">
        <ele>257.59334247184</ele>
        <time>2018-09-30T09:03:42.000Z</time>
      </trkpt>
      <trkpt lat="43.23045" lon="-0.73502">
        <ele>257</ele>
        <time>2018-09-30T09:03:43.000Z</time>
      </trkpt>
      <trkpt lat="43.23051" lon="-0.73513">
        <ele>256.56944</ele>
        <time>2018-09-30T09:03:44.000Z</time>
      </trkpt>
      <trkpt lat="43.23057" lon="-0.73526">
        <ele>255.4099968</ele>
        <time>2018-09-30T09:03:45.000Z</time>
      </trkpt>
      <trkpt lat="43.23062" lon="-0.73539">
        <ele>254.54927346332</ele>
        <time>2018-09-30T09:03:46.000Z</time>
      </trkpt>
      <trkpt lat="43.23067" lon="-0.73552">
        <ele>253.59334247184</ele>
        <time>2018-09-30T09:03:47.000Z</time>
      </trkpt>
      <trkpt lat="43.23072" lon="-0.73565">
        <ele>252.4099968</ele>
        <time>2018-09-30T09:03:48.000Z</time>
      </trkpt>
      <trkpt lat="43.23077" lon="-0.73579">
        <ele>251.4099968</ele>
        <time>2018-09-30T09:03:49.000Z</time>
      </trkpt>
      <trkpt lat="43.23081" lon="-0.73591">
        <ele>251</ele>
        <time>2018-09-30T09:03:50.000Z</time>
      </trkpt>
      <trkpt lat="43.23087" lon="-0.73603">
        <ele>251</ele>
        <time>2018-09-30T09:03:51.000Z</time>
      </trkpt>
      <trkpt lat="43.23092" lon="-0.73616">
        <ele>251</ele>
        <time>2018-09-30T09:03:52.000Z</time>
      </trkpt>
      <trkpt lat="43.23096" lon="-0.73628">
        <ele>250.4099968</ele>
        <time>2018-09-30T09:03:53.000Z</time>
      </trkpt>
      <trkpt lat="43.23106" lon="-0.73652">
        <ele>250</ele>
        <time>2018-09-30T09:03:55.000Z</time>
      </trkpt>
      <trkpt lat="43.23111" lon="-0.73663">
        <ele>250</ele>
        <time>2018-09-30T09:03:56.000Z</time>
      </trkpt>
      <trkpt lat="43.23116" lon="-0.73673">
        <ele>250</ele>
        <time>2018-09-30T09:03:57.000Z</time>
      </trkpt>
      <trkpt lat="43.23121" lon="-0.73683">
        <ele>250</ele>
        <time>2018-09-30T09:03:58.000Z</time>
      </trkpt>
      <trkpt lat="43.23127" lon="-0.73692">
        <ele>250</ele>
        <time>2018-09-30T09:03:59.000Z</time>
      </trkpt>
      <trkpt lat="43.23133" lon="-0.737">
        <ele>250</ele>
        <time>2018-09-30T09:04:00.000Z</time>
      </trkpt>
      <trkpt lat="43.23138" lon="-0.73707">
        <ele>250</ele>
        <time>2018-09-30T09:04:01.000Z</time>
      </trkpt>
      <trkpt lat="43.23143" lon="-0.73714">
        <ele>250.35779488931</ele>
        <time>2018-09-30T09:04:02.000Z</time>
      </trkpt>
      <trkpt lat="43.23148" lon="-0.7372">
        <ele>250.96422361598</ele>
        <time>2018-09-30T09:04:03.000Z</time>
      </trkpt>
      <trkpt lat="43.23153" lon="-0.73725">
        <ele>251</ele>
        <time>2018-09-30T09:04:04.000Z</time>
      </trkpt>
      <trkpt lat="43.23157" lon="-0.73731">
        <ele>251</ele>
        <time>2018-09-30T09:04:05.000Z</time>
      </trkpt>
      <trkpt lat="43.23161" lon="-0.73735">
        <ele>251</ele>
        <time>2018-09-30T09:04:06.000Z</time>
      </trkpt>
      <trkpt lat="43.23165" lon="-0.7374">
        <ele>251</ele>
        <time>2018-09-30T09:04:07.000Z</time>
      </trkpt>
      <trkpt lat="43.23169" lon="-0.73744">
        <ele>251</ele>
        <time>2018-09-30T09:04:08.000Z</time>
      </trkpt>
      <trkpt lat="43.23173" lon="-0.73748">
        <ele>251.5900032</ele>
        <time>2018-09-30T09:04:09.000Z</time>
      </trkpt>
      <trkpt lat="43.23177" lon="-0.73752">
        <ele>252</ele>
        <time>2018-09-30T09:04:10.000Z</time>
      </trkpt>
      <trkpt lat="43.2318" lon="-0.73757">
        <ele>252</ele>
        <time>2018-09-30T09:04:11.000Z</time>
      </trkpt>
      <trkpt lat="43.23183" lon="-0.73763">
        <ele>252</ele>
        <time>2018-09-30T09:04:12.000Z</time>
      </trkpt>
      <trkpt lat="43.23185" lon="-0.73769">
        <ele>252</ele>
        <time>2018-09-30T09:04:13.000Z</time>
      </trkpt>
      <trkpt lat="43.23186" lon="-0.73775">
        <ele>252</ele>
        <time>2018-09-30T09:04:14.000Z</time>
      </trkpt>
      <trkpt lat="43.23186" lon="-0.73782">
        <ele>252</ele>
        <time>2018-09-30T09:04:15.000Z</time>
      </trkpt>
      <trkpt lat="43.23185" lon="-0.73789">
        <ele>252</ele>
        <time>2018-09-30T09:04:16.000Z</time>
      </trkpt>
      <trkpt lat="43.23185" lon="-0.73795">
        <ele>251.4099968</ele>
        <time>2018-09-30T09:04:17.000Z</time>
      </trkpt>
      <trkpt lat="43.23185" lon="-0.73802">
        <ele>251</ele>
        <time>2018-09-30T09:04:18.000Z</time>
      </trkpt>
      <trkpt lat="43.23185" lon="-0.73809">
        <ele>251</ele>
        <time>2018-09-30T09:04:19.000Z</time>
      </trkpt>
      <trkpt lat="43.23186" lon="-0.73816">
        <ele>251</ele>
        <time>2018-09-30T09:04:20.000Z</time>
      </trkpt>
      <trkpt lat="43.23186" lon="-0.73823">
        <ele>251</ele>
        <time>2018-09-30T09:04:21.000Z</time>
      </trkpt>
      <trkpt lat="43.23186" lon="-0.7383">
        <ele>251</ele>
        <time>2018-09-30T09:04:22.000Z</time>
      </trkpt>
      <trkpt lat="43.23186" lon="-0.73837">
        <ele>251</ele>
        <time>2018-09-30T09:04:23.000Z</time>
      </trkpt>
      <trkpt lat="43.23186" lon="-0.73844">
        <ele>251</ele>
        <time>2018-09-30T09:04:24.000Z</time>
      </trkpt>
      <trkpt lat="43.23186" lon="-0.73851">
        <ele>251</ele>
        <time>2018-09-30T09:04:25.000Z</time>
      </trkpt>
      <trkpt lat="43.23186" lon="-0.73858">
        <ele>251</ele>
        <time>2018-09-30T09:04:26.000Z</time>
      </trkpt>
      <trkpt lat="43.23186" lon="-0.73866">
        <ele>250.4099968</ele>
        <time>2018-09-30T09:04:27.000Z</time>
      </trkpt>
      <trkpt lat="43.23186" lon="-0.73874">
        <ele>250</ele>
        <time>2018-09-30T09:04:28.000Z</time>
      </trkpt>
      <trkpt lat="43.23186" lon="-0.73881">
        <ele>250</ele>
        <time>2018-09-30T09:04:29.000Z</time>
      </trkpt>
      <trkpt lat="43.23186" lon="-0.7389">
        <ele>250</ele>
        <time>2018-09-30T09:04:30.000Z</time>
      </trkpt>
      <trkpt lat="43.23186" lon="-0.73898">
        <ele>249.59334247184</ele>
        <time>2018-09-30T09:04:31.000Z</time>
      </trkpt>
      <trkpt lat="43.23186" lon="-0.73906">
        <ele>249</ele>
        <time>2018-09-30T09:04:32.000Z</time>
      </trkpt>
      <trkpt lat="43.23186" lon="-0.73915">
        <ele>248.4099968</ele>
        <time>2018-09-30T09:04:33.000Z</time>
      </trkpt>
      <trkpt lat="43.23187" lon="-0.73924">
        <ele>248</ele>
        <time>2018-09-30T09:04:34.000Z</time>
      </trkpt>
      <trkpt lat="43.23187" lon="-0.73932">
        <ele>248</ele>
        <time>2018-09-30T09:04:35.000Z</time>
      </trkpt>
      <trkpt lat="43.23187" lon="-0.73941">
        <ele>248</ele>
        <time>2018-09-30T09:04:36.000Z</time>
      </trkpt>
      <trkpt lat="43.23188" lon="-0.7395">
        <ele>247.4099968</ele>
        <time>2018-09-30T09:04:37.000Z</time>
      </trkpt>
      <trkpt lat="43.2319" lon="-0.7396">
        <ele>247</ele>
        <time>2018-09-30T09:04:38.000Z</time>
      </trkpt>
      <trkpt lat="43.23191" lon="-0.73968">
        <ele>247</ele>
        <time>2018-09-30T09:04:39.000Z</time>
      </trkpt>
      <trkpt lat="43.23192" lon="-0.73977">
        <ele>247</ele>
        <time>2018-09-30T09:04:40.000Z</time>
      </trkpt>
      <trkpt lat="43.23194" lon="-0.73986">
        <ele>247</ele>
        <time>2018-09-30T09:04:41.000Z</time>
      </trkpt>
      <trkpt lat="43.23196" lon="-0.73994">
        <ele>247</ele>
        <time>2018-09-30T09:04:42.000Z</time>
      </trkpt>
      <trkpt lat="43.23199" lon="-0.74003">
        <ele>247</ele>
        <time>2018-09-30T09:04:43.000Z</time>
      </trkpt>
      <trkpt lat="43.23201" lon="-0.7401">
        <ele>246.4099968</ele>
        <time>2018-09-30T09:04:44.000Z</time>
      </trkpt>
      <trkpt lat="43.23204" lon="-0.74018">
        <ele>246</ele>
        <time>2018-09-30T09:04:45.000Z</time>
      </trkpt>
      <trkpt lat="43.23208" lon="-0.74025">
        <ele>246</ele>
        <time>2018-09-30T09:04:46.000Z</time>
      </trkpt>
      <trkpt lat="43.23211" lon="-0.74032">
        <ele>246</ele>
        <time>2018-09-30T09:04:47.000Z</time>
      </trkpt>
      <trkpt lat="43.23215" lon="-0.74039">
        <ele>246</ele>
        <time>2018-09-30T09:04:48.000Z</time>
      </trkpt>
      <trkpt lat="43.2322" lon="-0.74045">
        <ele>246</ele>
        <time>2018-09-30T09:04:49.000Z</time>
      </trkpt>
      <trkpt lat="43.23224" lon="-0.74051">
        <ele>246</ele>
        <time>2018-09-30T09:04:50.000Z</time>
      </trkpt>
      <trkpt lat="43.23228" lon="-0.74056">
        <ele>246</ele>
        <time>2018-09-30T09:04:51.000Z</time>
      </trkpt>
      <trkpt lat="43.23233" lon="-0.74061">
        <ele>246</ele>
        <time>2018-09-30T09:04:52.000Z</time>
      </trkpt>
      <trkpt lat="43.23237" lon="-0.74065">
        <ele>246</ele>
        <time>2018-09-30T09:04:53.000Z</time>
      </trkpt>
      <trkpt lat="43.23241" lon="-0.7407">
        <ele>246</ele>
        <time>2018-09-30T09:04:54.000Z</time>
      </trkpt>
      <trkpt lat="43.23245" lon="-0.74074">
        <ele>246</ele>
        <time>2018-09-30T09:04:55.000Z</time>
      </trkpt>
      <trkpt lat="43.2325" lon="-0.74078">
        <ele>246</ele>
        <time>2018-09-30T09:04:56.000Z</time>
      </trkpt>
      <trkpt lat="43.23254" lon="-0.74082">
        <ele>246</ele>
        <time>2018-09-30T09:04:57.000Z</time>
      </trkpt>
      <trkpt lat="43.23258" lon="-0.74087">
        <ele>246</ele>
        <time>2018-09-30T09:04:58.000Z</time>
      </trkpt>
      <trkpt lat="43.23262" lon="-0.74091">
        <ele>246</ele>
        <time>2018-09-30T09:04:59.000Z</time>
      </trkpt>
      <trkpt lat="43.23266" lon="-0.74095">
        <ele>246</ele>
        <time>2018-09-30T09:05:00.000Z</time>
      </trkpt>
      <trkpt lat="43.23269" lon="-0.74099">
        <ele>246</ele>
        <time>2018-09-30T09:05:01.000Z</time>
      </trkpt>
      <trkpt lat="43.23273" lon="-0.74104">
        <ele>246.5900032</ele>
        <time>2018-09-30T09:05:02.000Z</time>
      </trkpt>
      <trkpt lat="43.23276" lon="-0.74108">
        <ele>247</ele>
        <time>2018-09-30T09:05:03.000Z</time>
      </trkpt>
      <trkpt lat="43.2328" lon="-0.74113">
        <ele>247</ele>
        <time>2018-09-30T09:05:04.000Z</time>
      </trkpt>
      <trkpt lat="43.23283" lon="-0.74117">
        <ele>247.45736795626</ele>
        <time>2018-09-30T09:05:05.000Z</time>
      </trkpt>
      <trkpt lat="43.23286" lon="-0.74122">
        <ele>248</ele>
        <time>2018-09-30T09:05:06.000Z</time>
      </trkpt>
      <trkpt lat="43.23289" lon="-0.74126">
        <ele>248.44697212121</ele>
        <time>2018-09-30T09:05:07.000Z</time>
      </trkpt>
      <trkpt lat="43.23292" lon="-0.7413">
        <ele>249</ele>
        <time>2018-09-30T09:05:08.000Z</time>
      </trkpt>
      <trkpt lat="43.23294" lon="-0.74135">
        <ele>249</ele>
        <time>2018-09-30T09:05:09.000Z</time>
      </trkpt>
      <trkpt lat="43.23297" lon="-0.74139">
        <ele>249</ele>
        <time>2018-09-30T09:05:10.000Z</time>
      </trkpt>
      <trkpt lat="43.233" lon="-0.74144">
        <ele>249</ele>
        <time>2018-09-30T09:05:11.000Z</time>
      </trkpt>
      <trkpt lat="43.23303" lon="-0.74149">
        <ele>249.58585780226</ele>
        <time>2018-09-30T09:05:12.000Z</time>
      </trkpt>
      <trkpt lat="43.23306" lon="-0.74153">
        <ele>250</ele>
        <time>2018-09-30T09:05:13.000Z</time>
      </trkpt>
      <trkpt lat="43.23309" lon="-0.74158">
        <ele>250</ele>
        <time>2018-09-30T09:05:14.000Z</time>
      </trkpt>
      <trkpt lat="43.23311" lon="-0.74162">
        <ele>250</ele>
        <time>2018-09-30T09:05:15.000Z</time>
      </trkpt>
      <trkpt lat="43.23314" lon="-0.74167">
        <ele>250</ele>
        <time>2018-09-30T09:05:16.000Z</time>
      </trkpt>
      <trkpt lat="43.23317" lon="-0.74171">
        <ele>250</ele>
        <time>2018-09-30T09:05:17.000Z</time>
      </trkpt>
      <trkpt lat="43.23319" lon="-0.74176">
        <ele>250.45736341807</ele>
        <time>2018-09-30T09:05:18.000Z</time>
      </trkpt>
      <trkpt lat="43.23322" lon="-0.74181">
        <ele>251</ele>
        <time>2018-09-30T09:05:19.000Z</time>
      </trkpt>
      <trkpt lat="43.23324" lon="-0.74185">
        <ele>251</ele>
        <time>2018-09-30T09:05:20.000Z</time>
      </trkpt>
      <trkpt lat="43.23327" lon="-0.7419">
        <ele>251</ele>
        <time>2018-09-30T09:05:21.000Z</time>
      </trkpt>
      <trkpt lat="43.23329" lon="-0.74195">
        <ele>251</ele>
        <time>2018-09-30T09:05:22.000Z</time>
      </trkpt>
      <trkpt lat="43.23331" lon="-0.742">
        <ele>251</ele>
        <time>2018-09-30T09:05:23.000Z</time>
      </trkpt>
      <trkpt lat="43.23333" lon="-0.74205">
        <ele>251</ele>
        <time>2018-09-30T09:05:24.000Z</time>
      </trkpt>
      <trkpt lat="43.23335" lon="-0.74211">
        <ele>251</ele>
        <time>2018-09-30T09:05:25.000Z</time>
      </trkpt>
      <trkpt lat="43.23337" lon="-0.74216">
        <ele>251</ele>
        <time>2018-09-30T09:05:26.000Z</time>
      </trkpt>
      <trkpt lat="43.23338" lon="-0.74222">
        <ele>251</ele>
        <time>2018-09-30T09:05:27.000Z</time>
      </trkpt>
      <trkpt lat="43.2334" lon="-0.74228">
        <ele>251</ele>
        <time>2018-09-30T09:05:28.000Z</time>
      </trkpt>
      <trkpt lat="43.23342" lon="-0.74234">
        <ele>251</ele>
        <time>2018-09-30T09:05:29.000Z</time>
      </trkpt>
      <trkpt lat="43.23343" lon="-0.7424">
        <ele>251</ele>
        <time>2018-09-30T09:05:30.000Z</time>
      </trkpt>
      <trkpt lat="43.23344" lon="-0.74247">
        <ele>251</ele>
        <time>2018-09-30T09:05:31.000Z</time>
      </trkpt>
      <trkpt lat="43.23345" lon="-0.74254">
        <ele>251</ele>
        <time>2018-09-30T09:05:32.000Z</time>
      </trkpt>
      <trkpt lat="43.23346" lon="-0.74261">
        <ele>251</ele>
        <time>2018-09-30T09:05:33.000Z</time>
      </trkpt>
      <trkpt lat="43.23347" lon="-0.74269">
        <ele>250.4099968</ele>
        <time>2018-09-30T09:05:34.000Z</time>
      </trkpt>
      <trkpt lat="43.23348" lon="-0.74277">
        <ele>250</ele>
        <time>2018-09-30T09:05:35.000Z</time>
      </trkpt>
      <trkpt lat="43.23348" lon="-0.74285">
        <ele>250</ele>
        <time>2018-09-30T09:05:36.000Z</time>
      </trkpt>
      <trkpt lat="43.23349" lon="-0.74293">
        <ele>250</ele>
        <time>2018-09-30T09:05:37.000Z</time>
      </trkpt>
      <trkpt lat="43.23349" lon="-0.74302">
        <ele>250</ele>
        <time>2018-09-30T09:05:38.000Z</time>
      </trkpt>
      <trkpt lat="43.23349" lon="-0.74311">
        <ele>250</ele>
        <time>2018-09-30T09:05:39.000Z</time>
      </trkpt>
      <trkpt lat="43.23349" lon="-0.7432">
        <ele>249.4099968</ele>
        <time>2018-09-30T09:05:40.000Z</time>
      </trkpt>
      <trkpt lat="43.23349" lon="-0.74329">
        <ele>248.41584396822</ele>
        <time>2018-09-30T09:05:41.000Z</time>
      </trkpt>
      <trkpt lat="43.23349" lon="-0.74339">
        <ele>248</ele>
        <time>2018-09-30T09:05:42.000Z</time>
      </trkpt>
      <trkpt lat="43.23349" lon="-0.74349">
        <ele>248</ele>
        <time>2018-09-30T09:05:43.000Z</time>
      </trkpt>
      <trkpt lat="43.2335" lon="-0.74358">
        <ele>248</ele>
        <time>2018-09-30T09:05:44.000Z</time>
      </trkpt>
      <trkpt lat="43.2335" lon="-0.74367">
        <ele>247.5857150694</ele>
        <time>2018-09-30T09:05:45.000Z</time>
      </trkpt>
      <trkpt lat="43.23352" lon="-0.74375">
        <ele>247</ele>
        <time>2018-09-30T09:05:46.000Z</time>
      </trkpt>
      <trkpt lat="43.23354" lon="-0.74383">
        <ele>246.41836681382</ele>
        <time>2018-09-30T09:05:47.000Z</time>
      </trkpt>
      <trkpt lat="43.23358" lon="-0.74389">
        <ele>246</ele>
        <time>2018-09-30T09:05:48.000Z</time>
      </trkpt>
      <trkpt lat="43.23362" lon="-0.74394">
        <ele>246</ele>
        <time>2018-09-30T09:05:49.000Z</time>
      </trkpt>
      <trkpt lat="43.23367" lon="-0.74398">
        <ele>245.4099968</ele>
        <time>2018-09-30T09:05:50.000Z</time>
      </trkpt>
      <trkpt lat="43.23372" lon="-0.74401">
        <ele>245</ele>
        <time>2018-09-30T09:05:51.000Z</time>
      </trkpt>
      <trkpt lat="43.23378" lon="-0.74403">
        <ele>245</ele>
        <time>2018-09-30T09:05:52.000Z</time>
      </trkpt>
      <trkpt lat="43.23383" lon="-0.74405">
        <ele>245</ele>
        <time>2018-09-30T09:05:53.000Z</time>
      </trkpt>
      <trkpt lat="43.23389" lon="-0.74405">
        <ele>245</ele>
        <time>2018-09-30T09:05:54.000Z</time>
      </trkpt>
      <trkpt lat="43.23396" lon="-0.74405">
        <ele>245</ele>
        <time>2018-09-30T09:05:55.000Z</time>
      </trkpt>
      <trkpt lat="43.23402" lon="-0.74405">
        <ele>244.54263658193</ele>
        <time>2018-09-30T09:05:56.000Z</time>
      </trkpt>
      <trkpt lat="43.23408" lon="-0.74405">
        <ele>244</ele>
        <time>2018-09-30T09:05:57.000Z</time>
      </trkpt>
      <trkpt lat="43.23415" lon="-0.74405">
        <ele>244</ele>
        <time>2018-09-30T09:05:58.000Z</time>
      </trkpt>
      <trkpt lat="43.23422" lon="-0.74405">
        <ele>243.4099968</ele>
        <time>2018-09-30T09:05:59.000Z</time>
      </trkpt>
      <trkpt lat="43.2343" lon="-0.74405">
        <ele>243</ele>
        <time>2018-09-30T09:06:00.000Z</time>
      </trkpt>
      <trkpt lat="43.23437" lon="-0.74405">
        <ele>242.59420101658</ele>
        <time>2018-09-30T09:06:01.000Z</time>
      </trkpt>
      <trkpt lat="43.23444" lon="-0.74404">
        <ele>242</ele>
        <time>2018-09-30T09:06:02.000Z</time>
      </trkpt>
      <trkpt lat="43.23454" lon="-0.74403">
        <ele>241.4099968</ele>
        <time>2018-09-30T09:06:03.000Z</time>
      </trkpt>
      <trkpt lat="43.23463" lon="-0.74401">
        <ele>240.4099968</ele>
        <time>2018-09-30T09:06:04.000Z</time>
      </trkpt>
      <trkpt lat="43.23471" lon="-0.74399">
        <ele>239.4099968</ele>
        <time>2018-09-30T09:06:05.000Z</time>
      </trkpt>
      <trkpt lat="43.23479" lon="-0.74397">
        <ele>239</ele>
        <time>2018-09-30T09:06:06.000Z</time>
      </trkpt>
      <trkpt lat="43.23486" lon="-0.74396">
        <ele>238.57746808971</ele>
        <time>2018-09-30T09:06:07.000Z</time>
      </trkpt>
      <trkpt lat="43.23493" lon="-0.74394">
        <ele>238</ele>
        <time>2018-09-30T09:06:08.000Z</time>
      </trkpt>
      <trkpt lat="43.235" lon="-0.74392">
        <ele>238</ele>
        <time>2018-09-30T09:06:09.000Z</time>
      </trkpt>
      <trkpt lat="43.23507" lon="-0.74391">
        <ele>238</ele>
        <time>2018-09-30T09:06:10.000Z</time>
      </trkpt>
      <trkpt lat="43.23522" lon="-0.74386">
        <ele>238</ele>
        <time>2018-09-30T09:06:12.000Z</time>
      </trkpt>
      <trkpt lat="43.23529" lon="-0.74385">
        <ele>238</ele>
        <time>2018-09-30T09:06:13.000Z</time>
      </trkpt>
      <trkpt lat="43.23537" lon="-0.74383">
        <ele>238</ele>
        <time>2018-09-30T09:06:14.000Z</time>
      </trkpt>
      <trkpt lat="43.23544" lon="-0.74382">
        <ele>238</ele>
        <time>2018-09-30T09:06:15.000Z</time>
      </trkpt>
      <trkpt lat="43.2355" lon="-0.74382">
        <ele>238</ele>
        <time>2018-09-30T09:06:16.000Z</time>
      </trkpt>
      <trkpt lat="43.23557" lon="-0.74382">
        <ele>238</ele>
        <time>2018-09-30T09:06:17.000Z</time>
      </trkpt>
      <trkpt lat="43.23564" lon="-0.74382">
        <ele>238</ele>
        <time>2018-09-30T09:06:18.000Z</time>
      </trkpt>
      <trkpt lat="43.2357" lon="-0.74383">
        <ele>238</ele>
        <time>2018-09-30T09:06:19.000Z</time>
      </trkpt>
      <trkpt lat="43.23576" lon="-0.74383">
        <ele>238</ele>
        <time>2018-09-30T09:06:20.000Z</time>
      </trkpt>
      <trkpt lat="43.23582" lon="-0.74383">
        <ele>238</ele>
        <time>2018-09-30T09:06:21.000Z</time>
      </trkpt>
      <trkpt lat="43.23587" lon="-0.74384">
        <ele>238</ele>
        <time>2018-09-30T09:06:22.000Z</time>
      </trkpt>
      <trkpt lat="43.23593" lon="-0.74384">
        <ele>238</ele>
        <time>2018-09-30T09:06:23.000Z</time>
      </trkpt>
      <trkpt lat="43.23598" lon="-0.74384">
        <ele>238</ele>
        <time>2018-09-30T09:06:24.000Z</time>
      </trkpt>
      <trkpt lat="43.23604" lon="-0.74383">
        <ele>238</ele>
        <time>2018-09-30T09:06:25.000Z</time>
      </trkpt>
      <trkpt lat="43.23609" lon="-0.74383">
        <ele>238</ele>
        <time>2018-09-30T09:06:26.000Z</time>
      </trkpt>
      <trkpt lat="43.23614" lon="-0.74382">
        <ele>238</ele>
        <time>2018-09-30T09:06:27.000Z</time>
      </trkpt>
      <trkpt lat="43.23619" lon="-0.74381">
        <ele>238</ele>
        <time>2018-09-30T09:06:28.000Z</time>
      </trkpt>
      <trkpt lat="43.23624" lon="-0.7438">
        <ele>238.5900032</ele>
        <time>2018-09-30T09:06:29.000Z</time>
      </trkpt>
      <trkpt lat="43.23629" lon="-0.74379">
        <ele>239</ele>
        <time>2018-09-30T09:06:30.000Z</time>
      </trkpt>
      <trkpt lat="43.23634" lon="-0.74378">
        <ele>239</ele>
        <time>2018-09-30T09:06:31.000Z</time>
      </trkpt>
      <trkpt lat="43.23639" lon="-0.74376">
        <ele>239</ele>
        <time>2018-09-30T09:06:32.000Z</time>
      </trkpt>
      <trkpt lat="43.23644" lon="-0.74375">
        <ele>239.5900032</ele>
        <time>2018-09-30T09:06:33.000Z</time>
      </trkpt>
      <trkpt lat="43.23649" lon="-0.74373">
        <ele>240</ele>
        <time>2018-09-30T09:06:34.000Z</time>
      </trkpt>
      <trkpt lat="43.23653" lon="-0.74372">
        <ele>240</ele>
        <time>2018-09-30T09:06:35.000Z</time>
      </trkpt>
      <trkpt lat="43.23658" lon="-0.74371">
        <ele>240.5900032</ele>
        <time>2018-09-30T09:06:36.000Z</time>
      </trkpt>
      <trkpt lat="43.23662" lon="-0.74369">
        <ele>241</ele>
        <time>2018-09-30T09:06:37.000Z</time>
      </trkpt>
      <trkpt lat="43.23666" lon="-0.74367">
        <ele>241.5900032</ele>
        <time>2018-09-30T09:06:38.000Z</time>
      </trkpt>
      <trkpt lat="43.23671" lon="-0.74366">
        <ele>242.5900032</ele>
        <time>2018-09-30T09:06:39.000Z</time>
      </trkpt>
      <trkpt lat="43.23674" lon="-0.74364">
        <ele>243</ele>
        <time>2018-09-30T09:06:40.000Z</time>
      </trkpt>
      <trkpt lat="43.23678" lon="-0.74363">
        <ele>243</ele>
        <time>2018-09-30T09:06:41.000Z</time>
      </trkpt>
      <trkpt lat="43.23685" lon="-0.7436">
        <ele>243.4142849306</ele>
        <time>2018-09-30T09:06:43.000Z</time>
      </trkpt>
      <trkpt lat="43.23688" lon="-0.74358">
        <ele>244</ele>
        <time>2018-09-30T09:06:44.000Z</time>
      </trkpt>
      <trkpt lat="43.23692" lon="-0.74356">
        <ele>244</ele>
        <time>2018-09-30T09:06:45.000Z</time>
      </trkpt>
      <trkpt lat="43.23696" lon="-0.74355">
        <ele>244</ele>
        <time>2018-09-30T09:06:46.000Z</time>
      </trkpt>
      <trkpt lat="43.23699" lon="-0.74353">
        <ele>244</ele>
        <time>2018-09-30T09:06:47.000Z</time>
      </trkpt>
      <trkpt lat="43.23703" lon="-0.74351">
        <ele>244.5900032</ele>
        <time>2018-09-30T09:06:48.000Z</time>
      </trkpt>
      <trkpt lat="43.23706" lon="-0.74349">
        <ele>245</ele>
        <time>2018-09-30T09:06:49.000Z</time>
      </trkpt>
      <trkpt lat="43.2371" lon="-0.74347">
        <ele>245.5900032</ele>
        <time>2018-09-30T09:06:50.000Z</time>
      </trkpt>
      <trkpt lat="43.23716" lon="-0.74345">
        <ele>246</ele>
        <time>2018-09-30T09:06:52.000Z</time>
      </trkpt>
      <trkpt lat="43.23723" lon="-0.74342">
        <ele>246</ele>
        <time>2018-09-30T09:06:54.000Z</time>
      </trkpt>
      <trkpt lat="43.2373" lon="-0.74341">
        <ele>247</ele>
        <time>2018-09-30T09:06:56.000Z</time>
      </trkpt>
      <trkpt lat="43.23733" lon="-0.7434">
        <ele>247.57843088043</ele>
        <time>2018-09-30T09:06:57.000Z</time>
      </trkpt>
      <trkpt lat="43.2374" lon="-0.7434">
        <ele>248</ele>
        <time>2018-09-30T09:06:59.000Z</time>
      </trkpt>
      <trkpt lat="43.23746" lon="-0.74343">
        <ele>248</ele>
        <time>2018-09-30T09:07:01.000Z</time>
      </trkpt>
      <trkpt lat="43.2375" lon="-0.74345">
        <ele>248</ele>
        <time>2018-09-30T09:07:02.000Z</time>
      </trkpt>
      <trkpt lat="43.23753" lon="-0.74347">
        <ele>248.5900032</ele>
        <time>2018-09-30T09:07:03.000Z</time>
      </trkpt>
      <trkpt lat="43.23756" lon="-0.74351">
        <ele>249</ele>
        <time>2018-09-30T09:07:04.000Z</time>
      </trkpt>
      <trkpt lat="43.23759" lon="-0.74354">
        <ele>249</ele>
        <time>2018-09-30T09:07:05.000Z</time>
      </trkpt>
      <trkpt lat="43.23762" lon="-0.74358">
        <ele>249</ele>
        <time>2018-09-30T09:07:06.000Z</time>
      </trkpt>
      <trkpt lat="43.23764" lon="-0.74362">
        <ele>249</ele>
        <time>2018-09-30T09:07:07.000Z</time>
      </trkpt>
      <trkpt lat="43.23767" lon="-0.74366">
        <ele>249</ele>
        <time>2018-09-30T09:07:08.000Z</time>
      </trkpt>
      <trkpt lat="43.2377" lon="-0.74371">
        <ele>249</ele>
        <time>2018-09-30T09:07:09.000Z</time>
      </trkpt>
      <trkpt lat="43.23772" lon="-0.74375">
        <ele>249</ele>
        <time>2018-09-30T09:07:10.000Z</time>
      </trkpt>
      <trkpt lat="43.23774" lon="-0.7438">
        <ele>249</ele>
        <time>2018-09-30T09:07:11.000Z</time>
      </trkpt>
      <trkpt lat="43.23776" lon="-0.74384">
        <ele>249</ele>
        <time>2018-09-30T09:07:12.000Z</time>
      </trkpt>
      <trkpt lat="43.2378" lon="-0.74392">
        <ele>249</ele>
        <time>2018-09-30T09:07:14.000Z</time>
      </trkpt>
      <trkpt lat="43.23784" lon="-0.744">
        <ele>249.5900032</ele>
        <time>2018-09-30T09:07:16.000Z</time>
      </trkpt>
      <trkpt lat="43.23787" lon="-0.74404">
        <ele>250</ele>
        <time>2018-09-30T09:07:17.000Z</time>
      </trkpt>
      <trkpt lat="43.23789" lon="-0.74408">
        <ele>250</ele>
        <time>2018-09-30T09:07:18.000Z</time>
      </trkpt>
      <trkpt lat="43.23793" lon="-0.74416">
        <ele>249.5900032</ele>
        <time>2018-09-30T09:07:20.000Z</time>
      </trkpt>
      <trkpt lat="43.23797" lon="-0.74424">
        <ele>250</ele>
        <time>2018-09-30T09:07:22.000Z</time>
      </trkpt>
      <trkpt lat="43.238" lon="-0.74427">
        <ele>250</ele>
        <time>2018-09-30T09:07:23.000Z</time>
      </trkpt>
      <trkpt lat="43.23802" lon="-0.74431">
        <ele>250</ele>
        <time>2018-09-30T09:07:24.000Z</time>
      </trkpt>
      <trkpt lat="43.23805" lon="-0.74435">
        <ele>250</ele>
        <time>2018-09-30T09:07:25.000Z</time>
      </trkpt>
      <trkpt lat="43.23808" lon="-0.74438">
        <ele>250</ele>
        <time>2018-09-30T09:07:26.000Z</time>
      </trkpt>
      <trkpt lat="43.23811" lon="-0.74441">
        <ele>250</ele>
        <time>2018-09-30T09:07:27.000Z</time>
      </trkpt>
      <trkpt lat="43.23814" lon="-0.74444">
        <ele>250</ele>
        <time>2018-09-30T09:07:28.000Z</time>
      </trkpt>
      <trkpt lat="43.23818" lon="-0.74447">
        <ele>250</ele>
        <time>2018-09-30T09:07:29.000Z</time>
      </trkpt>
      <trkpt lat="43.23821" lon="-0.74449">
        <ele>250</ele>
        <time>2018-09-30T09:07:30.000Z</time>
      </trkpt>
      <trkpt lat="43.23825" lon="-0.74452">
        <ele>250.45736795626</ele>
        <time>2018-09-30T09:07:31.000Z</time>
      </trkpt>
      <trkpt lat="43.23829" lon="-0.74453">
        <ele>251</ele>
        <time>2018-09-30T09:07:32.000Z</time>
      </trkpt>
      <trkpt lat="43.23833" lon="-0.74454">
        <ele>251</ele>
        <time>2018-09-30T09:07:33.000Z</time>
      </trkpt>
      <trkpt lat="43.23837" lon="-0.74456">
        <ele>251</ele>
        <time>2018-09-30T09:07:34.000Z</time>
      </trkpt>
      <trkpt lat="43.23841" lon="-0.74457">
        <ele>251</ele>
        <time>2018-09-30T09:07:35.000Z</time>
      </trkpt>
      <trkpt lat="43.23845" lon="-0.74458">
        <ele>251.43056</ele>
        <time>2018-09-30T09:07:36.000Z</time>
      </trkpt>
      <trkpt lat="43.23849" lon="-0.74459">
        <ele>252.5900032</ele>
        <time>2018-09-30T09:07:37.000Z</time>
      </trkpt>
      <trkpt lat="43.23853" lon="-0.7446">
        <ele>253</ele>
        <time>2018-09-30T09:07:38.000Z</time>
      </trkpt>
      <trkpt lat="43.23857" lon="-0.74461">
        <ele>253</ele>
        <time>2018-09-30T09:07:39.000Z</time>
      </trkpt>
      <trkpt lat="43.23861" lon="-0.74462">
        <ele>253</ele>
        <time>2018-09-30T09:07:40.000Z</time>
      </trkpt>
      <trkpt lat="43.23865" lon="-0.74463">
        <ele>253</ele>
        <time>2018-09-30T09:07:41.000Z</time>
      </trkpt>
      <trkpt lat="43.23869" lon="-0.74464">
        <ele>253.5900032</ele>
        <time>2018-09-30T09:07:42.000Z</time>
      </trkpt>
      <trkpt lat="43.23873" lon="-0.74465">
        <ele>254</ele>
        <time>2018-09-30T09:07:43.000Z</time>
      </trkpt>
      <trkpt lat="43.23878" lon="-0.74466">
        <ele>254</ele>
        <time>2018-09-30T09:07:44.000Z</time>
      </trkpt>
      <trkpt lat="43.23882" lon="-0.74467">
        <ele>254</ele>
        <time>2018-09-30T09:07:45.000Z</time>
      </trkpt>
      <trkpt lat="43.23886" lon="-0.74467">
        <ele>254.5900032</ele>
        <time>2018-09-30T09:07:46.000Z</time>
      </trkpt>
      <trkpt lat="43.2389" lon="-0.74468">
        <ele>255</ele>
        <time>2018-09-30T09:07:47.000Z</time>
      </trkpt>
      <trkpt lat="43.23894" lon="-0.74469">
        <ele>255</ele>
        <time>2018-09-30T09:07:48.000Z</time>
      </trkpt>
      <trkpt lat="43.23899" lon="-0.7447">
        <ele>255</ele>
        <time>2018-09-30T09:07:49.000Z</time>
      </trkpt>
      <trkpt lat="43.23903" lon="-0.74471">
        <ele>255</ele>
        <time>2018-09-30T09:07:50.000Z</time>
      </trkpt>
      <trkpt lat="43.23907" lon="-0.74472">
        <ele>255</ele>
        <time>2018-09-30T09:07:51.000Z</time>
      </trkpt>
      <trkpt lat="43.2391" lon="-0.74473">
        <ele>255</ele>
        <time>2018-09-30T09:07:52.000Z</time>
      </trkpt>
      <trkpt lat="43.23914" lon="-0.74474">
        <ele>255.5900032</ele>
        <time>2018-09-30T09:07:53.000Z</time>
      </trkpt>
      <trkpt lat="43.23921" lon="-0.74477">
        <ele>256</ele>
        <time>2018-09-30T09:07:55.000Z</time>
      </trkpt>
      <trkpt lat="43.23928" lon="-0.74479">
        <ele>256</ele>
        <time>2018-09-30T09:07:57.000Z</time>
      </trkpt>
      <trkpt lat="43.23934" lon="-0.74482">
        <ele>256.5900032</ele>
        <time>2018-09-30T09:07:59.000Z</time>
      </trkpt>
      <trkpt lat="43.2394" lon="-0.74485">
        <ele>257.4142849306</ele>
        <time>2018-09-30T09:08:01.000Z</time>
      </trkpt>
      <trkpt lat="43.23946" lon="-0.74488">
        <ele>258</ele>
        <time>2018-09-30T09:08:03.000Z</time>
      </trkpt>
      <trkpt lat="43.23952" lon="-0.7449">
        <ele>258</ele>
        <time>2018-09-30T09:08:05.000Z</time>
      </trkpt>
      <trkpt lat="43.23957" lon="-0.74492">
        <ele>259</ele>
        <time>2018-09-30T09:08:07.000Z</time>
      </trkpt>
      <trkpt lat="43.23962" lon="-0.74495">
        <ele>259</ele>
        <time>2018-09-30T09:08:09.000Z</time>
      </trkpt>
      <trkpt lat="43.23969" lon="-0.74499">
        <ele>258</ele>
        <time>2018-09-30T09:08:11.000Z</time>
      </trkpt>
      <trkpt lat="43.23975" lon="-0.74502">
        <ele>257</ele>
        <time>2018-09-30T09:08:13.000Z</time>
      </trkpt>
      <trkpt lat="43.2398" lon="-0.74504">
        <ele>256</ele>
        <time>2018-09-30T09:08:15.000Z</time>
      </trkpt>
      <trkpt lat="43.23985" lon="-0.74503">
        <ele>256</ele>
        <time>2018-09-30T09:08:17.000Z</time>
      </trkpt>
      <trkpt lat="43.2399" lon="-0.74499">
        <ele>256</ele>
        <time>2018-09-30T09:08:19.000Z</time>
      </trkpt>
      <trkpt lat="43.23993" lon="-0.74495">
        <ele>256</ele>
        <time>2018-09-30T09:08:21.000Z</time>
      </trkpt>
      <trkpt lat="43.23993" lon="-0.7449">
        <ele>256</ele>
        <time>2018-09-30T09:08:23.000Z</time>
      </trkpt>
      <trkpt lat="43.23994" lon="-0.74483">
        <ele>255.42718313885</ele>
        <time>2018-09-30T09:08:25.000Z</time>
      </trkpt>
      <trkpt lat="43.23996" lon="-0.74476">
        <ele>255</ele>
        <time>2018-09-30T09:08:27.000Z</time>
      </trkpt>
      <trkpt lat="43.23999" lon="-0.74468">
        <ele>255</ele>
        <time>2018-09-30T09:08:29.000Z</time>
      </trkpt>
      <trkpt lat="43.24" lon="-0.74463">
        <ele>255</ele>
        <time>2018-09-30T09:08:30.000Z</time>
      </trkpt>
      <trkpt lat="43.24002" lon="-0.74458">
        <ele>255</ele>
        <time>2018-09-30T09:08:31.000Z</time>
      </trkpt>
      <trkpt lat="43.24004" lon="-0.74452">
        <ele>255</ele>
        <time>2018-09-30T09:08:32.000Z</time>
      </trkpt>
      <trkpt lat="43.24006" lon="-0.74446">
        <ele>255</ele>
        <time>2018-09-30T09:08:33.000Z</time>
      </trkpt>
      <trkpt lat="43.24009" lon="-0.74439">
        <ele>255</ele>
        <time>2018-09-30T09:08:34.000Z</time>
      </trkpt>
      <trkpt lat="43.24012" lon="-0.74433">
        <ele>255</ele>
        <time>2018-09-30T09:08:35.000Z</time>
      </trkpt>
      <trkpt lat="43.24015" lon="-0.74426">
        <ele>255</ele>
        <time>2018-09-30T09:08:36.000Z</time>
      </trkpt>
      <trkpt lat="43.24019" lon="-0.74419">
        <ele>255</ele>
        <time>2018-09-30T09:08:37.000Z</time>
      </trkpt>
      <trkpt lat="43.24024" lon="-0.74413">
        <ele>255</ele>
        <time>2018-09-30T09:08:38.000Z</time>
      </trkpt>
      <trkpt lat="43.24028" lon="-0.74406">
        <ele>255</ele>
        <time>2018-09-30T09:08:39.000Z</time>
      </trkpt>
      <trkpt lat="43.24033" lon="-0.744">
        <ele>255</ele>
        <time>2018-09-30T09:08:40.000Z</time>
      </trkpt>
      <trkpt lat="43.24038" lon="-0.74395">
        <ele>255</ele>
        <time>2018-09-30T09:08:41.000Z</time>
      </trkpt>
      <trkpt lat="43.24043" lon="-0.74389">
        <ele>255</ele>
        <time>2018-09-30T09:08:42.000Z</time>
      </trkpt>
      <trkpt lat="43.24049" lon="-0.74384">
        <ele>255</ele>
        <time>2018-09-30T09:08:43.000Z</time>
      </trkpt>
      <trkpt lat="43.24054" lon="-0.74379">
        <ele>255</ele>
        <time>2018-09-30T09:08:44.000Z</time>
      </trkpt>
      <trkpt lat="43.2406" lon="-0.74374">
        <ele>255</ele>
        <time>2018-09-30T09:08:45.000Z</time>
      </trkpt>
      <trkpt lat="43.24065" lon="-0.74369">
        <ele>255</ele>
        <time>2018-09-30T09:08:46.000Z</time>
      </trkpt>
      <trkpt lat="43.2407" lon="-0.74363">
        <ele>255</ele>
        <time>2018-09-30T09:08:47.000Z</time>
      </trkpt>
      <trkpt lat="43.24076" lon="-0.74358">
        <ele>255</ele>
        <time>2018-09-30T09:08:48.000Z</time>
      </trkpt>
      <trkpt lat="43.2408" lon="-0.74353">
        <ele>255</ele>
        <time>2018-09-30T09:08:49.000Z</time>
      </trkpt>
      <trkpt lat="43.24085" lon="-0.74347">
        <ele>255</ele>
        <time>2018-09-30T09:08:50.000Z</time>
      </trkpt>
      <trkpt lat="43.24089" lon="-0.74342">
        <ele>255</ele>
        <time>2018-09-30T09:08:51.000Z</time>
      </trkpt>
      <trkpt lat="43.24094" lon="-0.74337">
        <ele>255</ele>
        <time>2018-09-30T09:08:52.000Z</time>
      </trkpt>
      <trkpt lat="43.24098" lon="-0.74331">
        <ele>255</ele>
        <time>2018-09-30T09:08:53.000Z</time>
      </trkpt>
      <trkpt lat="43.24102" lon="-0.74325">
        <ele>255</ele>
        <time>2018-09-30T09:08:54.000Z</time>
      </trkpt>
      <trkpt lat="43.24106" lon="-0.74318">
        <ele>255</ele>
        <time>2018-09-30T09:08:55.000Z</time>
      </trkpt>
      <trkpt lat="43.24111" lon="-0.74311">
        <ele>255</ele>
        <time>2018-09-30T09:08:56.000Z</time>
      </trkpt>
      <trkpt lat="43.24115" lon="-0.74303">
        <ele>255</ele>
        <time>2018-09-30T09:08:57.000Z</time>
      </trkpt>
      <trkpt lat="43.24118" lon="-0.74295">
        <ele>254.5857150694</ele>
        <time>2018-09-30T09:08:58.000Z</time>
      </trkpt>
      <trkpt lat="43.24121" lon="-0.74287">
        <ele>254</ele>
        <time>2018-09-30T09:08:59.000Z</time>
      </trkpt>
      <trkpt lat="43.24125" lon="-0.74278">
        <ele>254</ele>
        <time>2018-09-30T09:09:00.000Z</time>
      </trkpt>
      <trkpt lat="43.24129" lon="-0.7427">
        <ele>253.4099968</ele>
        <time>2018-09-30T09:09:01.000Z</time>
      </trkpt>
      <trkpt lat="43.24132" lon="-0.74261">
        <ele>253</ele>
        <time>2018-09-30T09:09:02.000Z</time>
      </trkpt>
      <trkpt lat="43.24136" lon="-0.74252">
        <ele>253</ele>
        <time>2018-09-30T09:09:03.000Z</time>
      </trkpt>
      <trkpt lat="43.24139" lon="-0.74243">
        <ele>252.5857150694</ele>
        <time>2018-09-30T09:09:04.000Z</time>
      </trkpt>
      <trkpt lat="43.24143" lon="-0.74234">
        <ele>252</ele>
        <time>2018-09-30T09:09:05.000Z</time>
      </trkpt>
      <trkpt lat="43.24147" lon="-0.74226">
        <ele>251.54263658193</ele>
        <time>2018-09-30T09:09:06.000Z</time>
      </trkpt>
      <trkpt lat="43.24152" lon="-0.74219">
        <ele>251</ele>
        <time>2018-09-30T09:09:07.000Z</time>
      </trkpt>
      <trkpt lat="43.24156" lon="-0.74212">
        <ele>251</ele>
        <time>2018-09-30T09:09:08.000Z</time>
      </trkpt>
      <trkpt lat="43.2416" lon="-0.74206">
        <ele>251</ele>
        <time>2018-09-30T09:09:09.000Z</time>
      </trkpt>
      <trkpt lat="43.24165" lon="-0.74199">
        <ele>251</ele>
        <time>2018-09-30T09:09:10.000Z</time>
      </trkpt>
      <trkpt lat="43.2417" lon="-0.74193">
        <ele>251</ele>
        <time>2018-09-30T09:09:11.000Z</time>
      </trkpt>
      <trkpt lat="43.24174" lon="-0.74187">
        <ele>251</ele>
        <time>2018-09-30T09:09:12.000Z</time>
      </trkpt>
      <trkpt lat="43.24179" lon="-0.74181">
        <ele>251</ele>
        <time>2018-09-30T09:09:13.000Z</time>
      </trkpt>
      <trkpt lat="43.24184" lon="-0.74176">
        <ele>251</ele>
        <time>2018-09-30T09:09:14.000Z</time>
      </trkpt>
      <trkpt lat="43.24189" lon="-0.74171">
        <ele>251</ele>
        <time>2018-09-30T09:09:15.000Z</time>
      </trkpt>
      <trkpt lat="43.24194" lon="-0.74166">
        <ele>251</ele>
        <time>2018-09-30T09:09:16.000Z</time>
      </trkpt>
      <trkpt lat="43.24199" lon="-0.74162">
        <ele>251</ele>
        <time>2018-09-30T09:09:17.000Z</time>
      </trkpt>
      <trkpt lat="43.24203" lon="-0.74157">
        <ele>251</ele>
        <time>2018-09-30T09:09:18.000Z</time>
      </trkpt>
      <trkpt lat="43.24208" lon="-0.74153">
        <ele>251</ele>
        <time>2018-09-30T09:09:19.000Z</time>
      </trkpt>
      <trkpt lat="43.24212" lon="-0.74149">
        <ele>251.4142849306</ele>
        <time>2018-09-30T09:09:20.000Z</time>
      </trkpt>
      <trkpt lat="43.24216" lon="-0.74145">
        <ele>252</ele>
        <time>2018-09-30T09:09:21.000Z</time>
      </trkpt>
      <trkpt lat="43.24221" lon="-0.74141">
        <ele>252</ele>
        <time>2018-09-30T09:09:22.000Z</time>
      </trkpt>
      <trkpt lat="43.24225" lon="-0.74137">
        <ele>252</ele>
        <time>2018-09-30T09:09:23.000Z</time>
      </trkpt>
      <trkpt lat="43.24229" lon="-0.7413">
        <ele>252</ele>
        <time>2018-09-30T09:09:24.000Z</time>
      </trkpt>
      <trkpt lat="43.24233" lon="-0.74123">
        <ele>251.54263204374</ele>
        <time>2018-09-30T09:09:25.000Z</time>
      </trkpt>
      <trkpt lat="43.24237" lon="-0.74114">
        <ele>250.57745767906</ele>
        <time>2018-09-30T09:09:26.000Z</time>
      </trkpt>
      <trkpt lat="43.24239" lon="-0.74105">
        <ele>250</ele>
        <time>2018-09-30T09:09:27.000Z</time>
      </trkpt>
      <trkpt lat="43.2424" lon="-0.74094">
        <ele>250</ele>
        <time>2018-09-30T09:09:28.000Z</time>
      </trkpt>
      <trkpt lat="43.24241" lon="-0.74084">
        <ele>250</ele>
        <time>2018-09-30T09:09:29.000Z</time>
      </trkpt>
      <trkpt lat="43.24243" lon="-0.74074">
        <ele>249.4099968</ele>
        <time>2018-09-30T09:09:30.000Z</time>
      </trkpt>
      <trkpt lat="43.24245" lon="-0.74064">
        <ele>248.4099968</ele>
        <time>2018-09-30T09:09:31.000Z</time>
      </trkpt>
      <trkpt lat="43.24246" lon="-0.74053">
        <ele>248</ele>
        <time>2018-09-30T09:09:32.000Z</time>
      </trkpt>
      <trkpt lat="43.24248" lon="-0.74042">
        <ele>247.4099968</ele>
        <time>2018-09-30T09:09:33.000Z</time>
      </trkpt>
      <trkpt lat="43.24251" lon="-0.74031">
        <ele>247</ele>
        <time>2018-09-30T09:09:34.000Z</time>
      </trkpt>
      <trkpt lat="43.24255" lon="-0.7402">
        <ele>246.59420101658</ele>
        <time>2018-09-30T09:09:35.000Z</time>
      </trkpt>
      <trkpt lat="43.2426" lon="-0.7401">
        <ele>245.4099968</ele>
        <time>2018-09-30T09:09:36.000Z</time>
      </trkpt>
      <trkpt lat="43.24264" lon="-0.74">
        <ele>245</ele>
        <time>2018-09-30T09:09:37.000Z</time>
      </trkpt>
      <trkpt lat="43.24268" lon="-0.73991">
        <ele>245</ele>
        <time>2018-09-30T09:09:38.000Z</time>
      </trkpt>
      <trkpt lat="43.24273" lon="-0.73984">
        <ele>244.4099968</ele>
        <time>2018-09-30T09:09:39.000Z</time>
      </trkpt>
      <trkpt lat="43.24278" lon="-0.73977">
        <ele>244</ele>
        <time>2018-09-30T09:09:40.000Z</time>
      </trkpt>
      <trkpt lat="43.24284" lon="-0.7397">
        <ele>244</ele>
        <time>2018-09-30T09:09:41.000Z</time>
      </trkpt>
      <trkpt lat="43.24289" lon="-0.73964">
        <ele>243.42718313885</ele>
        <time>2018-09-30T09:09:42.000Z</time>
      </trkpt>
      <trkpt lat="43.243" lon="-0.73954">
        <ele>243</ele>
        <time>2018-09-30T09:09:44.000Z</time>
      </trkpt>
      <trkpt lat="43.24305" lon="-0.73948">
        <ele>243.43056</ele>
        <time>2018-09-30T09:09:45.000Z</time>
      </trkpt>
      <trkpt lat="43.2431" lon="-0.73943">
        <ele>244</ele>
        <time>2018-09-30T09:09:46.000Z</time>
      </trkpt>
      <trkpt lat="43.24315" lon="-0.73938">
        <ele>244</ele>
        <time>2018-09-30T09:09:47.000Z</time>
      </trkpt>
      <trkpt lat="43.24319" lon="-0.73933">
        <ele>244</ele>
        <time>2018-09-30T09:09:48.000Z</time>
      </trkpt>
      <trkpt lat="43.24324" lon="-0.73928">
        <ele>244</ele>
        <time>2018-09-30T09:09:49.000Z</time>
      </trkpt>
      <trkpt lat="43.24328" lon="-0.73923">
        <ele>244</ele>
        <time>2018-09-30T09:09:50.000Z</time>
      </trkpt>
      <trkpt lat="43.24332" lon="-0.73917">
        <ele>244</ele>
        <time>2018-09-30T09:09:51.000Z</time>
      </trkpt>
      <trkpt lat="43.24336" lon="-0.73911">
        <ele>244</ele>
        <time>2018-09-30T09:09:52.000Z</time>
      </trkpt>
      <trkpt lat="43.2434" lon="-0.73905">
        <ele>243.4099968</ele>
        <time>2018-09-30T09:09:53.000Z</time>
      </trkpt>
      <trkpt lat="43.24343" lon="-0.73898">
        <ele>243</ele>
        <time>2018-09-30T09:09:54.000Z</time>
      </trkpt>
      <trkpt lat="43.24346" lon="-0.73891">
        <ele>243</ele>
        <time>2018-09-30T09:09:55.000Z</time>
      </trkpt>
      <trkpt lat="43.24348" lon="-0.73882">
        <ele>243</ele>
        <time>2018-09-30T09:09:56.000Z</time>
      </trkpt>
      <trkpt lat="43.2435" lon="-0.73873">
        <ele>243</ele>
        <time>2018-09-30T09:09:57.000Z</time>
      </trkpt>
      <trkpt lat="43.24351" lon="-0.73864">
        <ele>243</ele>
        <time>2018-09-30T09:09:58.000Z</time>
      </trkpt>
      <trkpt lat="43.24351" lon="-0.73854">
        <ele>242.4099968</ele>
        <time>2018-09-30T09:09:59.000Z</time>
      </trkpt>
      <trkpt lat="43.24351" lon="-0.73843">
        <ele>242</ele>
        <time>2018-09-30T09:10:00.000Z</time>
      </trkpt>
      <trkpt lat="43.24352" lon="-0.73831">
        <ele>241.4099968</ele>
        <time>2018-09-30T09:10:01.000Z</time>
      </trkpt>
      <trkpt lat="43.24352" lon="-0.7382">
        <ele>241</ele>
        <time>2018-09-30T09:10:02.000Z</time>
      </trkpt>
      <trkpt lat="43.24352" lon="-0.73808">
        <ele>241</ele>
        <time>2018-09-30T09:10:03.000Z</time>
      </trkpt>
      <trkpt lat="43.24352" lon="-0.73796">
        <ele>241</ele>
        <time>2018-09-30T09:10:04.000Z</time>
      </trkpt>
      <trkpt lat="43.24353" lon="-0.73784">
        <ele>241</ele>
        <time>2018-09-30T09:10:05.000Z</time>
      </trkpt>
      <trkpt lat="43.24353" lon="-0.73773">
        <ele>240.4099968</ele>
        <time>2018-09-30T09:10:06.000Z</time>
      </trkpt>
      <trkpt lat="43.24354" lon="-0.73761">
        <ele>240</ele>
        <time>2018-09-30T09:10:07.000Z</time>
      </trkpt>
      <trkpt lat="43.24354" lon="-0.7375">
        <ele>239.54961697804</ele>
        <time>2018-09-30T09:10:08.000Z</time>
      </trkpt>
      <trkpt lat="43.24355" lon="-0.73738">
        <ele>239</ele>
        <time>2018-09-30T09:10:09.000Z</time>
      </trkpt>
      <trkpt lat="43.24355" lon="-0.73726">
        <ele>238.4099968</ele>
        <time>2018-09-30T09:10:10.000Z</time>
      </trkpt>
      <trkpt lat="43.24356" lon="-0.73714">
        <ele>237.4099968</ele>
        <time>2018-09-30T09:10:11.000Z</time>
      </trkpt>
      <trkpt lat="43.24357" lon="-0.73702">
        <ele>237</ele>
        <time>2018-09-30T09:10:12.000Z</time>
      </trkpt>
      <trkpt lat="43.24357" lon="-0.7369">
        <ele>236.4099968</ele>
        <time>2018-09-30T09:10:13.000Z</time>
      </trkpt>
      <trkpt lat="43.24359" lon="-0.73678">
        <ele>236</ele>
        <time>2018-09-30T09:10:14.000Z</time>
      </trkpt>
      <trkpt lat="43.2436" lon="-0.73667">
        <ele>236</ele>
        <time>2018-09-30T09:10:15.000Z</time>
      </trkpt>
      <trkpt lat="43.24362" lon="-0.73655">
        <ele>236</ele>
        <time>2018-09-30T09:10:16.000Z</time>
      </trkpt>
      <trkpt lat="43.24364" lon="-0.73644">
        <ele>236</ele>
        <time>2018-09-30T09:10:17.000Z</time>
      </trkpt>
      <trkpt lat="43.24367" lon="-0.73633">
        <ele>236</ele>
        <time>2018-09-30T09:10:18.000Z</time>
      </trkpt>
      <trkpt lat="43.24369" lon="-0.73622">
        <ele>236</ele>
        <time>2018-09-30T09:10:19.000Z</time>
      </trkpt>
      <trkpt lat="43.24371" lon="-0.73612">
        <ele>236</ele>
        <time>2018-09-30T09:10:20.000Z</time>
      </trkpt>
      <trkpt lat="43.24373" lon="-0.73601">
        <ele>236</ele>
        <time>2018-09-30T09:10:21.000Z</time>
      </trkpt>
      <trkpt lat="43.24375" lon="-0.73592">
        <ele>236</ele>
        <time>2018-09-30T09:10:22.000Z</time>
      </trkpt>
      <trkpt lat="43.24378" lon="-0.73582">
        <ele>235.56944</ele>
        <time>2018-09-30T09:10:23.000Z</time>
      </trkpt>
      <trkpt lat="43.2438" lon="-0.73573">
        <ele>235</ele>
        <time>2018-09-30T09:10:24.000Z</time>
      </trkpt>
      <trkpt lat="43.24382" lon="-0.73565">
        <ele>235</ele>
        <time>2018-09-30T09:10:25.000Z</time>
      </trkpt>
      <trkpt lat="43.24383" lon="-0.73557">
        <ele>235</ele>
        <time>2018-09-30T09:10:26.000Z</time>
      </trkpt>
      <trkpt lat="43.24385" lon="-0.73549">
        <ele>235</ele>
        <time>2018-09-30T09:10:27.000Z</time>
      </trkpt>
      <trkpt lat="43.24387" lon="-0.73541">
        <ele>235</ele>
        <time>2018-09-30T09:10:28.000Z</time>
      </trkpt>
      <trkpt lat="43.24388" lon="-0.73533">
        <ele>235</ele>
        <time>2018-09-30T09:10:29.000Z</time>
      </trkpt>
      <trkpt lat="43.2439" lon="-0.73525">
        <ele>235</ele>
        <time>2018-09-30T09:10:30.000Z</time>
      </trkpt>
      <trkpt lat="43.24391" lon="-0.73518">
        <ele>235.5900032</ele>
        <time>2018-09-30T09:10:31.000Z</time>
      </trkpt>
      <trkpt lat="43.24393" lon="-0.7351">
        <ele>236</ele>
        <time>2018-09-30T09:10:32.000Z</time>
      </trkpt>
      <trkpt lat="43.24394" lon="-0.73503">
        <ele>236</ele>
        <time>2018-09-30T09:10:33.000Z</time>
      </trkpt>
      <trkpt lat="43.24396" lon="-0.73496">
        <ele>236</ele>
        <time>2018-09-30T09:10:34.000Z</time>
      </trkpt>
      <trkpt lat="43.24397" lon="-0.73489">
        <ele>236</ele>
        <time>2018-09-30T09:10:35.000Z</time>
      </trkpt>
      <trkpt lat="43.24398" lon="-0.73482">
        <ele>236</ele>
        <time>2018-09-30T09:10:36.000Z</time>
      </trkpt>
      <trkpt lat="43.244" lon="-0.73475">
        <ele>236</ele>
        <time>2018-09-30T09:10:37.000Z</time>
      </trkpt>
      <trkpt lat="43.24401" lon="-0.73467">
        <ele>236</ele>
        <time>2018-09-30T09:10:38.000Z</time>
      </trkpt>
      <trkpt lat="43.24403" lon="-0.73459">
        <ele>235.4099968</ele>
        <time>2018-09-30T09:10:39.000Z</time>
      </trkpt>
      <trkpt lat="43.24404" lon="-0.73451">
        <ele>235</ele>
        <time>2018-09-30T09:10:40.000Z</time>
      </trkpt>
      <trkpt lat="43.24406" lon="-0.73442">
        <ele>235</ele>
        <time>2018-09-30T09:10:41.000Z</time>
      </trkpt>
      <trkpt lat="43.24407" lon="-0.73432">
        <ele>235</ele>
        <time>2018-09-30T09:10:42.000Z</time>
      </trkpt>
      <trkpt lat="43.24408" lon="-0.73422">
        <ele>235</ele>
        <time>2018-09-30T09:10:43.000Z</time>
      </trkpt>
      <trkpt lat="43.24409" lon="-0.73411">
        <ele>234.55302787879</ele>
        <time>2018-09-30T09:10:44.000Z</time>
      </trkpt>
      <trkpt lat="43.2441" lon="-0.73401">
        <ele>233.60293647059</ele>
        <time>2018-09-30T09:10:45.000Z</time>
      </trkpt>
      <trkpt lat="43.24411" lon="-0.73392">
        <ele>232.4099968</ele>
        <time>2018-09-30T09:10:46.000Z</time>
      </trkpt>
      <trkpt lat="43.24412" lon="-0.73382">
        <ele>232</ele>
        <time>2018-09-30T09:10:47.000Z</time>
      </trkpt>
      <trkpt lat="43.24413" lon="-0.73372">
        <ele>232</ele>
        <time>2018-09-30T09:10:48.000Z</time>
      </trkpt>
      <trkpt lat="43.24415" lon="-0.73363">
        <ele>232</ele>
        <time>2018-09-30T09:10:49.000Z</time>
      </trkpt>
      <trkpt lat="43.24416" lon="-0.73353">
        <ele>232.5900032</ele>
        <time>2018-09-30T09:10:50.000Z</time>
      </trkpt>
      <trkpt lat="43.24418" lon="-0.73343">
        <ele>233</ele>
        <time>2018-09-30T09:10:51.000Z</time>
      </trkpt>
      <trkpt lat="43.24422" lon="-0.73334">
        <ele>233</ele>
        <time>2018-09-30T09:10:52.000Z</time>
      </trkpt>
      <trkpt lat="43.24425" lon="-0.73325">
        <ele>233</ele>
        <time>2018-09-30T09:10:53.000Z</time>
      </trkpt>
      <trkpt lat="43.24428" lon="-0.73317">
        <ele>233</ele>
        <time>2018-09-30T09:10:54.000Z</time>
      </trkpt>
      <trkpt lat="43.24431" lon="-0.73308">
        <ele>233</ele>
        <time>2018-09-30T09:10:55.000Z</time>
      </trkpt>
      <trkpt lat="43.24434" lon="-0.73299">
        <ele>233</ele>
        <time>2018-09-30T09:10:56.000Z</time>
      </trkpt>
      <trkpt lat="43.24437" lon="-0.73291">
        <ele>232.4099968</ele>
        <time>2018-09-30T09:10:57.000Z</time>
      </trkpt>
      <trkpt lat="43.24439" lon="-0.73283">
        <ele>232</ele>
        <time>2018-09-30T09:10:58.000Z</time>
      </trkpt>
      <trkpt lat="43.24442" lon="-0.73276">
        <ele>232</ele>
        <time>2018-09-30T09:10:59.000Z</time>
      </trkpt>
      <trkpt lat="43.24444" lon="-0.73268">
        <ele>232</ele>
        <time>2018-09-30T09:11:00.000Z</time>
      </trkpt>
      <trkpt lat="43.24446" lon="-0.73261">
        <ele>232</ele>
        <time>2018-09-30T09:11:01.000Z</time>
      </trkpt>
      <trkpt lat="43.24448" lon="-0.73254">
        <ele>232.5900032</ele>
        <time>2018-09-30T09:11:02.000Z</time>
      </trkpt>
      <trkpt lat="43.24451" lon="-0.73247">
        <ele>233</ele>
        <time>2018-09-30T09:11:03.000Z</time>
      </trkpt>
      <trkpt lat="43.24452" lon="-0.7324">
        <ele>233</ele>
        <time>2018-09-30T09:11:04.000Z</time>
      </trkpt>
      <trkpt lat="43.24455" lon="-0.73234">
        <ele>233.5900032</ele>
        <time>2018-09-30T09:11:05.000Z</time>
      </trkpt>
      <trkpt lat="43.24457" lon="-0.73228">
        <ele>234</ele>
        <time>2018-09-30T09:11:06.000Z</time>
      </trkpt>
      <trkpt lat="43.24459" lon="-0.73223">
        <ele>234.44697212121</ele>
        <time>2018-09-30T09:11:07.000Z</time>
      </trkpt>
      <trkpt lat="43.24461" lon="-0.73217">
        <ele>235.39706352941</ele>
        <time>2018-09-30T09:11:08.000Z</time>
      </trkpt>
      <trkpt lat="43.24463" lon="-0.73211">
        <ele>236</ele>
        <time>2018-09-30T09:11:09.000Z</time>
      </trkpt>
      <trkpt lat="43.24464" lon="-0.73205">
        <ele>236</ele>
        <time>2018-09-30T09:11:10.000Z</time>
      </trkpt>
      <trkpt lat="43.24466" lon="-0.73199">
        <ele>236</ele>
        <time>2018-09-30T09:11:11.000Z</time>
      </trkpt>
      <trkpt lat="43.24468" lon="-0.73193">
        <ele>236</ele>
        <time>2018-09-30T09:11:12.000Z</time>
      </trkpt>
      <trkpt lat="43.2447" lon="-0.73187">
        <ele>236</ele>
        <time>2018-09-30T09:11:13.000Z</time>
      </trkpt>
      <trkpt lat="43.24472" lon="-0.7318">
        <ele>236</ele>
        <time>2018-09-30T09:11:14.000Z</time>
      </trkpt>
      <trkpt lat="43.24474" lon="-0.73173">
        <ele>236.5900032</ele>
        <time>2018-09-30T09:11:15.000Z</time>
      </trkpt>
      <trkpt lat="43.24476" lon="-0.73165">
        <ele>237</ele>
        <time>2018-09-30T09:11:16.000Z</time>
      </trkpt>
      <trkpt lat="43.24478" lon="-0.73158">
        <ele>237</ele>
        <time>2018-09-30T09:11:17.000Z</time>
      </trkpt>
      <trkpt lat="43.2448" lon="-0.7315">
        <ele>237.4142849306</ele>
        <time>2018-09-30T09:11:18.000Z</time>
      </trkpt>
      <trkpt lat="43.24482" lon="-0.73142">
        <ele>238</ele>
        <time>2018-09-30T09:11:19.000Z</time>
      </trkpt>
      <trkpt lat="43.24484" lon="-0.73134">
        <ele>238.43056</ele>
        <time>2018-09-30T09:11:20.000Z</time>
      </trkpt>
      <trkpt lat="43.24487" lon="-0.73127">
        <ele>239</ele>
        <time>2018-09-30T09:11:21.000Z</time>
      </trkpt>
      <trkpt lat="43.24489" lon="-0.73119">
        <ele>239</ele>
        <time>2018-09-30T09:11:22.000Z</time>
      </trkpt>
      <trkpt lat="43.24491" lon="-0.73112">
        <ele>239</ele>
        <time>2018-09-30T09:11:23.000Z</time>
      </trkpt>
      <trkpt lat="43.24493" lon="-0.73103">
        <ele>239</ele>
        <time>2018-09-30T09:11:24.000Z</time>
      </trkpt>
      <trkpt lat="43.24495" lon="-0.73095">
        <ele>239</ele>
        <time>2018-09-30T09:11:25.000Z</time>
      </trkpt>
      <trkpt lat="43.24497" lon="-0.73088">
        <ele>239</ele>
        <time>2018-09-30T09:11:26.000Z</time>
      </trkpt>
      <trkpt lat="43.24499" lon="-0.7308">
        <ele>239</ele>
        <time>2018-09-30T09:11:27.000Z</time>
      </trkpt>
      <trkpt lat="43.245" lon="-0.73072">
        <ele>239</ele>
        <time>2018-09-30T09:11:28.000Z</time>
      </trkpt>
      <trkpt lat="43.24502" lon="-0.73063">
        <ele>239</ele>
        <time>2018-09-30T09:11:29.000Z</time>
      </trkpt>
      <trkpt lat="43.24504" lon="-0.73054">
        <ele>239</ele>
        <time>2018-09-30T09:11:30.000Z</time>
      </trkpt>
      <trkpt lat="43.24505" lon="-0.73045">
        <ele>239</ele>
        <time>2018-09-30T09:11:31.000Z</time>
      </trkpt>
      <trkpt lat="43.24507" lon="-0.73035">
        <ele>238.4099968</ele>
        <time>2018-09-30T09:11:32.000Z</time>
      </trkpt>
      <trkpt lat="43.24508" lon="-0.73026">
        <ele>238</ele>
        <time>2018-09-30T09:11:33.000Z</time>
      </trkpt>
      <trkpt lat="43.24509" lon="-0.73016">
        <ele>238</ele>
        <time>2018-09-30T09:11:34.000Z</time>
      </trkpt>
      <trkpt lat="43.2451" lon="-0.73007">
        <ele>238</ele>
        <time>2018-09-30T09:11:35.000Z</time>
      </trkpt>
      <trkpt lat="43.24511" lon="-0.72997">
        <ele>237.4099968</ele>
        <time>2018-09-30T09:11:36.000Z</time>
      </trkpt>
      <trkpt lat="43.24512" lon="-0.72987">
        <ele>237</ele>
        <time>2018-09-30T09:11:37.000Z</time>
      </trkpt>
      <trkpt lat="43.24513" lon="-0.72978">
        <ele>237</ele>
        <time>2018-09-30T09:11:38.000Z</time>
      </trkpt>
      <trkpt lat="43.24515" lon="-0.72968">
        <ele>236.56944</ele>
        <time>2018-09-30T09:11:39.000Z</time>
      </trkpt>
      <trkpt lat="43.24516" lon="-0.72957">
        <ele>236</ele>
        <time>2018-09-30T09:11:40.000Z</time>
      </trkpt>
      <trkpt lat="43.24518" lon="-0.72947">
        <ele>236</ele>
        <time>2018-09-30T09:11:41.000Z</time>
      </trkpt>
      <trkpt lat="43.2452" lon="-0.72937">
        <ele>236</ele>
        <time>2018-09-30T09:11:42.000Z</time>
      </trkpt>
      <trkpt lat="43.24523" lon="-0.72927">
        <ele>235.4099968</ele>
        <time>2018-09-30T09:11:43.000Z</time>
      </trkpt>
      <trkpt lat="43.24526" lon="-0.72917">
        <ele>234.4099968</ele>
        <time>2018-09-30T09:11:44.000Z</time>
      </trkpt>
      <trkpt lat="43.24529" lon="-0.72907">
        <ele>234</ele>
        <time>2018-09-30T09:11:45.000Z</time>
      </trkpt>
      <trkpt lat="43.24533" lon="-0.72896">
        <ele>233.55302787879</ele>
        <time>2018-09-30T09:11:46.000Z</time>
      </trkpt>
      <trkpt lat="43.24537" lon="-0.72885">
        <ele>233</ele>
        <time>2018-09-30T09:11:47.000Z</time>
      </trkpt>
      <trkpt lat="43.24541" lon="-0.72875">
        <ele>232.4099968</ele>
        <time>2018-09-30T09:11:48.000Z</time>
      </trkpt>
      <trkpt lat="43.24545" lon="-0.72864">
        <ele>231.4099968</ele>
        <time>2018-09-30T09:11:49.000Z</time>
      </trkpt>
      <trkpt lat="43.24549" lon="-0.72854">
        <ele>231</ele>
        <time>2018-09-30T09:11:50.000Z</time>
      </trkpt>
      <trkpt lat="43.24553" lon="-0.72843">
        <ele>230.55302787879</ele>
        <time>2018-09-30T09:11:51.000Z</time>
      </trkpt>
      <trkpt lat="43.24558" lon="-0.72833">
        <ele>229.60293647059</ele>
        <time>2018-09-30T09:11:52.000Z</time>
      </trkpt>
      <trkpt lat="43.24562" lon="-0.72823">
        <ele>229</ele>
        <time>2018-09-30T09:11:53.000Z</time>
      </trkpt>
      <trkpt lat="43.24566" lon="-0.72812">
        <ele>229</ele>
        <time>2018-09-30T09:11:54.000Z</time>
      </trkpt>
      <trkpt lat="43.24571" lon="-0.72801">
        <ele>229</ele>
        <time>2018-09-30T09:11:55.000Z</time>
      </trkpt>
      <trkpt lat="43.24575" lon="-0.7279">
        <ele>229</ele>
        <time>2018-09-30T09:11:56.000Z</time>
      </trkpt>
      <trkpt lat="43.24579" lon="-0.72779">
        <ele>229</ele>
        <time>2018-09-30T09:11:57.000Z</time>
      </trkpt>
      <trkpt lat="43.24583" lon="-0.72769">
        <ele>229</ele>
        <time>2018-09-30T09:11:58.000Z</time>
      </trkpt>
      <trkpt lat="43.24587" lon="-0.72759">
        <ele>228</ele>
        <time>2018-09-30T09:11:59.000Z</time>
      </trkpt>
      <trkpt lat="43.24591" lon="-0.72749">
        <ele>227.4099968</ele>
        <time>2018-09-30T09:12:00.000Z</time>
      </trkpt>
      <trkpt lat="43.24595" lon="-0.72739">
        <ele>226.4099968</ele>
        <time>2018-09-30T09:12:01.000Z</time>
      </trkpt>
      <trkpt lat="43.24599" lon="-0.72728">
        <ele>226</ele>
        <time>2018-09-30T09:12:02.000Z</time>
      </trkpt>
      <trkpt lat="43.24603" lon="-0.72718">
        <ele>225.55302787879</ele>
        <time>2018-09-30T09:12:03.000Z</time>
      </trkpt>
      <trkpt lat="43.24607" lon="-0.72708">
        <ele>224.60293647059</ele>
        <time>2018-09-30T09:12:04.000Z</time>
      </trkpt>
      <trkpt lat="43.24611" lon="-0.72697">
        <ele>223.4099968</ele>
        <time>2018-09-30T09:12:05.000Z</time>
      </trkpt>
      <trkpt lat="43.24615" lon="-0.72687">
        <ele>223</ele>
        <time>2018-09-30T09:12:06.000Z</time>
      </trkpt>
      <trkpt lat="43.24619" lon="-0.72677">
        <ele>223</ele>
        <time>2018-09-30T09:12:07.000Z</time>
      </trkpt>
      <trkpt lat="43.24623" lon="-0.72667">
        <ele>223</ele>
        <time>2018-09-30T09:12:08.000Z</time>
      </trkpt>
      <trkpt lat="43.24627" lon="-0.72657">
        <ele>223</ele>
        <time>2018-09-30T09:12:09.000Z</time>
      </trkpt>
      <trkpt lat="43.24632" lon="-0.72647">
        <ele>222.5857150694</ele>
        <time>2018-09-30T09:12:10.000Z</time>
      </trkpt>
      <trkpt lat="43.24636" lon="-0.72638">
        <ele>221.4099968</ele>
        <time>2018-09-30T09:12:11.000Z</time>
      </trkpt>
      <trkpt lat="43.24641" lon="-0.72629">
        <ele>221</ele>
        <time>2018-09-30T09:12:12.000Z</time>
      </trkpt>
      <trkpt lat="43.24645" lon="-0.72619">
        <ele>221</ele>
        <time>2018-09-30T09:12:13.000Z</time>
      </trkpt>
      <trkpt lat="43.2465" lon="-0.72609">
        <ele>220.4099968</ele>
        <time>2018-09-30T09:12:14.000Z</time>
      </trkpt>
      <trkpt lat="43.24655" lon="-0.726">
        <ele>220</ele>
        <time>2018-09-30T09:12:15.000Z</time>
      </trkpt>
      <trkpt lat="43.24661" lon="-0.7259">
        <ele>220</ele>
        <time>2018-09-30T09:12:16.000Z</time>
      </trkpt>
      <trkpt lat="43.24667" lon="-0.72582">
        <ele>219.56944</ele>
        <time>2018-09-30T09:12:17.000Z</time>
      </trkpt>
      <trkpt lat="43.24674" lon="-0.72574">
        <ele>219</ele>
        <time>2018-09-30T09:12:18.000Z</time>
      </trkpt>
      <trkpt lat="43.24682" lon="-0.72567">
        <ele>218.4099968</ele>
        <time>2018-09-30T09:12:19.000Z</time>
      </trkpt>
      <trkpt lat="43.2469" lon="-0.7256">
        <ele>218</ele>
        <time>2018-09-30T09:12:20.000Z</time>
      </trkpt>
      <trkpt lat="43.24698" lon="-0.72554">
        <ele>218</ele>
        <time>2018-09-30T09:12:21.000Z</time>
      </trkpt>
      <trkpt lat="43.24706" lon="-0.72547">
        <ele>217.4099968</ele>
        <time>2018-09-30T09:12:22.000Z</time>
      </trkpt>
      <trkpt lat="43.24714" lon="-0.72541">
        <ele>217</ele>
        <time>2018-09-30T09:12:23.000Z</time>
      </trkpt>
      <trkpt lat="43.24722" lon="-0.72534">
        <ele>216.4099968</ele>
        <time>2018-09-30T09:12:24.000Z</time>
      </trkpt>
      <trkpt lat="43.2473" lon="-0.72527">
        <ele>216</ele>
        <time>2018-09-30T09:12:25.000Z</time>
      </trkpt>
      <trkpt lat="43.24737" lon="-0.7252">
        <ele>215.54961697804</ele>
        <time>2018-09-30T09:12:26.000Z</time>
      </trkpt>
      <trkpt lat="43.24745" lon="-0.72514">
        <ele>214.59420101658</ele>
        <time>2018-09-30T09:12:27.000Z</time>
      </trkpt>
      <trkpt lat="43.24753" lon="-0.72507">
        <ele>213.4099968</ele>
        <time>2018-09-30T09:12:28.000Z</time>
      </trkpt>
      <trkpt lat="43.2476" lon="-0.725">
        <ele>213</ele>
        <time>2018-09-30T09:12:29.000Z</time>
      </trkpt>
      <trkpt lat="43.24767" lon="-0.72494">
        <ele>213</ele>
        <time>2018-09-30T09:12:30.000Z</time>
      </trkpt>
      <trkpt lat="43.24775" lon="-0.72488">
        <ele>213</ele>
        <time>2018-09-30T09:12:31.000Z</time>
      </trkpt>
      <trkpt lat="43.24782" lon="-0.72481">
        <ele>213</ele>
        <time>2018-09-30T09:12:32.000Z</time>
      </trkpt>
      <trkpt lat="43.2479" lon="-0.72475">
        <ele>213</ele>
        <time>2018-09-30T09:12:33.000Z</time>
      </trkpt>
      <trkpt lat="43.24797" lon="-0.72469">
        <ele>213</ele>
        <time>2018-09-30T09:12:34.000Z</time>
      </trkpt>
      <trkpt lat="43.24804" lon="-0.72462">
        <ele>213</ele>
        <time>2018-09-30T09:12:35.000Z</time>
      </trkpt>
      <trkpt lat="43.24811" lon="-0.72456">
        <ele>213</ele>
        <time>2018-09-30T09:12:36.000Z</time>
      </trkpt>
      <trkpt lat="43.24819" lon="-0.72449">
        <ele>212.64024195122</ele>
        <time>2018-09-30T09:12:37.000Z</time>
      </trkpt>
      <trkpt lat="43.24826" lon="-0.72443">
        <ele>212.03048585366</ele>
        <time>2018-09-30T09:12:38.000Z</time>
      </trkpt>
      <trkpt lat="43.24833" lon="-0.72437">
        <ele>212</ele>
        <time>2018-09-30T09:12:39.000Z</time>
      </trkpt>
      <trkpt lat="43.2484" lon="-0.72431">
        <ele>212</ele>
        <time>2018-09-30T09:12:40.000Z</time>
      </trkpt>
      <trkpt lat="43.24847" lon="-0.72425">
        <ele>212</ele>
        <time>2018-09-30T09:12:41.000Z</time>
      </trkpt>
      <trkpt lat="43.24853" lon="-0.7242">
        <ele>212</ele>
        <time>2018-09-30T09:12:42.000Z</time>
      </trkpt>
      <trkpt lat="43.2486" lon="-0.72414">
        <ele>212</ele>
        <time>2018-09-30T09:12:43.000Z</time>
      </trkpt>
      <trkpt lat="43.24867" lon="-0.72409">
        <ele>211.5857150694</ele>
        <time>2018-09-30T09:12:44.000Z</time>
      </trkpt>
      <trkpt lat="43.24873" lon="-0.72403">
        <ele>211</ele>
        <time>2018-09-30T09:12:45.000Z</time>
      </trkpt>
      <trkpt lat="43.24879" lon="-0.72398">
        <ele>211</ele>
        <time>2018-09-30T09:12:46.000Z</time>
      </trkpt>
      <trkpt lat="43.24885" lon="-0.72393">
        <ele>211</ele>
        <time>2018-09-30T09:12:47.000Z</time>
      </trkpt>
      <trkpt lat="43.24892" lon="-0.72388">
        <ele>211</ele>
        <time>2018-09-30T09:12:48.000Z</time>
      </trkpt>
      <trkpt lat="43.24898" lon="-0.72383">
        <ele>211</ele>
        <time>2018-09-30T09:12:49.000Z</time>
      </trkpt>
      <trkpt lat="43.24904" lon="-0.72378">
        <ele>211</ele>
        <time>2018-09-30T09:12:50.000Z</time>
      </trkpt>
      <trkpt lat="43.2491" lon="-0.72373">
        <ele>210.5857150694</ele>
        <time>2018-09-30T09:12:51.000Z</time>
      </trkpt>
      <trkpt lat="43.24915" lon="-0.72368">
        <ele>210</ele>
        <time>2018-09-30T09:12:52.000Z</time>
      </trkpt>
      <trkpt lat="43.24921" lon="-0.72363">
        <ele>210</ele>
        <time>2018-09-30T09:12:53.000Z</time>
      </trkpt>
      <trkpt lat="43.24927" lon="-0.72358">
        <ele>210</ele>
        <time>2018-09-30T09:12:54.000Z</time>
      </trkpt>
      <trkpt lat="43.24933" lon="-0.72353">
        <ele>210</ele>
        <time>2018-09-30T09:12:55.000Z</time>
      </trkpt>
      <trkpt lat="43.24938" lon="-0.72348">
        <ele>210</ele>
        <time>2018-09-30T09:12:56.000Z</time>
      </trkpt>
      <trkpt lat="43.24944" lon="-0.72344">
        <ele>210</ele>
        <time>2018-09-30T09:12:57.000Z</time>
      </trkpt>
      <trkpt lat="43.24949" lon="-0.72339">
        <ele>210</ele>
        <time>2018-09-30T09:12:58.000Z</time>
      </trkpt>
      <trkpt lat="43.24955" lon="-0.72334">
        <ele>210</ele>
        <time>2018-09-30T09:12:59.000Z</time>
      </trkpt>
      <trkpt lat="43.2496" lon="-0.72328">
        <ele>209.4099968</ele>
        <time>2018-09-30T09:13:00.000Z</time>
      </trkpt>
      <trkpt lat="43.24965" lon="-0.72322">
        <ele>209</ele>
        <time>2018-09-30T09:13:01.000Z</time>
      </trkpt>
      <trkpt lat="43.2497" lon="-0.72317">
        <ele>209</ele>
        <time>2018-09-30T09:13:02.000Z</time>
      </trkpt>
      <trkpt lat="43.24976" lon="-0.72311">
        <ele>209</ele>
        <time>2018-09-30T09:13:03.000Z</time>
      </trkpt>
      <trkpt lat="43.24981" lon="-0.72305">
        <ele>209</ele>
        <time>2018-09-30T09:13:04.000Z</time>
      </trkpt>
      <trkpt lat="43.24987" lon="-0.72299">
        <ele>209</ele>
        <time>2018-09-30T09:13:05.000Z</time>
      </trkpt>
      <trkpt lat="43.24993" lon="-0.72293">
        <ele>209</ele>
        <time>2018-09-30T09:13:06.000Z</time>
      </trkpt>
      <trkpt lat="43.24999" lon="-0.72287">
        <ele>208.4099968</ele>
        <time>2018-09-30T09:13:07.000Z</time>
      </trkpt>
      <trkpt lat="43.25005" lon="-0.7228">
        <ele>207.4099968</ele>
        <time>2018-09-30T09:13:08.000Z</time>
      </trkpt>
      <trkpt lat="43.25011" lon="-0.72273">
        <ele>206.4099968</ele>
        <time>2018-09-30T09:13:09.000Z</time>
      </trkpt>
      <trkpt lat="43.25018" lon="-0.72266">
        <ele>206</ele>
        <time>2018-09-30T09:13:10.000Z</time>
      </trkpt>
      <trkpt lat="43.25025" lon="-0.72258">
        <ele>205.55302787879</ele>
        <time>2018-09-30T09:13:11.000Z</time>
      </trkpt>
      <trkpt lat="43.25033" lon="-0.72251">
        <ele>205</ele>
        <time>2018-09-30T09:13:12.000Z</time>
      </trkpt>
      <trkpt lat="43.2504" lon="-0.72243">
        <ele>204.54263204374</ele>
        <time>2018-09-30T09:13:13.000Z</time>
      </trkpt>
      <trkpt lat="43.25048" lon="-0.72235">
        <ele>204</ele>
        <time>2018-09-30T09:13:14.000Z</time>
      </trkpt>
      <trkpt lat="43.25055" lon="-0.72228">
        <ele>204</ele>
        <time>2018-09-30T09:13:15.000Z</time>
      </trkpt>
      <trkpt lat="43.25063" lon="-0.7222">
        <ele>203.55302787879</ele>
        <time>2018-09-30T09:13:16.000Z</time>
      </trkpt>
      <trkpt lat="43.2507" lon="-0.72213">
        <ele>203</ele>
        <time>2018-09-30T09:13:17.000Z</time>
      </trkpt>
      <trkpt lat="43.25078" lon="-0.72205">
        <ele>202.4099968</ele>
        <time>2018-09-30T09:13:18.000Z</time>
      </trkpt>
      <trkpt lat="43.25086" lon="-0.72197">
        <ele>202</ele>
        <time>2018-09-30T09:13:19.000Z</time>
      </trkpt>
      <trkpt lat="43.25093" lon="-0.72189">
        <ele>201.4099968</ele>
        <time>2018-09-30T09:13:20.000Z</time>
      </trkpt>
      <trkpt lat="43.25101" lon="-0.72181">
        <ele>201</ele>
        <time>2018-09-30T09:13:21.000Z</time>
      </trkpt>
      <trkpt lat="43.25108" lon="-0.72173">
        <ele>201</ele>
        <time>2018-09-30T09:13:22.000Z</time>
      </trkpt>
      <trkpt lat="43.25115" lon="-0.72165">
        <ele>200.5857150694</ele>
        <time>2018-09-30T09:13:23.000Z</time>
      </trkpt>
      <trkpt lat="43.25122" lon="-0.72158">
        <ele>200</ele>
        <time>2018-09-30T09:13:24.000Z</time>
      </trkpt>
      <trkpt lat="43.25129" lon="-0.72151">
        <ele>199.4099968</ele>
        <time>2018-09-30T09:13:25.000Z</time>
      </trkpt>
      <trkpt lat="43.25134" lon="-0.72145">
        <ele>199</ele>
        <time>2018-09-30T09:13:26.000Z</time>
      </trkpt>
      <trkpt lat="43.25139" lon="-0.7214">
        <ele>198.4099968</ele>
        <time>2018-09-30T09:13:27.000Z</time>
      </trkpt>
      <trkpt lat="43.25143" lon="-0.72136">
        <ele>197.4099968</ele>
        <time>2018-09-30T09:13:28.000Z</time>
      </trkpt>
      <trkpt lat="43.25146" lon="-0.72134">
        <ele>197</ele>
        <time>2018-09-30T09:13:29.000Z</time>
      </trkpt>
      <trkpt lat="43.25151" lon="-0.72134">
        <ele>196.56944</ele>
        <time>2018-09-30T09:13:31.000Z</time>
      </trkpt>
      <trkpt lat="43.25153" lon="-0.72137">
        <ele>196</ele>
        <time>2018-09-30T09:13:34.000Z</time>
      </trkpt>
      <trkpt lat="43.25157" lon="-0.7214">
        <ele>196</ele>
        <time>2018-09-30T09:13:44.000Z</time>
      </trkpt>
      <trkpt lat="43.25154" lon="-0.72137">
        <ele>196</ele>
        <time>2018-09-30T09:14:33.000Z</time>
      </trkpt>
      <trkpt lat="43.25156" lon="-0.72141">
        <ele>196</ele>
        <time>2018-09-30T09:18:20.000Z</time>
      </trkpt>
      <trkpt lat="43.25157" lon="-0.72146">
        <ele>196</ele>
        <time>2018-09-30T09:19:40.000Z</time>
      </trkpt>
      <trkpt lat="43.25161" lon="-0.7215">
        <ele>196</ele>
        <time>2018-09-30T09:19:43.000Z</time>
      </trkpt>
      <trkpt lat="43.25164" lon="-0.72154">
        <ele>196</ele>
        <time>2018-09-30T09:19:45.000Z</time>
      </trkpt>
      <trkpt lat="43.25168" lon="-0.72159">
        <ele>196</ele>
        <time>2018-09-30T09:19:47.000Z</time>
      </trkpt>
      <trkpt lat="43.25172" lon="-0.72163">
        <ele>196</ele>
        <time>2018-09-30T09:19:49.000Z</time>
      </trkpt>
      <trkpt lat="43.25177" lon="-0.72168">
        <ele>196</ele>
        <time>2018-09-30T09:19:51.000Z</time>
      </trkpt>
      <trkpt lat="43.25181" lon="-0.72174">
        <ele>196</ele>
        <time>2018-09-30T09:19:53.000Z</time>
      </trkpt>
      <trkpt lat="43.25187" lon="-0.7218">
        <ele>196</ele>
        <time>2018-09-30T09:19:55.000Z</time>
      </trkpt>
      <trkpt lat="43.2519" lon="-0.72184">
        <ele>196</ele>
        <time>2018-09-30T09:19:56.000Z</time>
      </trkpt>
      <trkpt lat="43.25193" lon="-0.72187">
        <ele>196</ele>
        <time>2018-09-30T09:19:57.000Z</time>
      </trkpt>
      <trkpt lat="43.25196" lon="-0.72191">
        <ele>196</ele>
        <time>2018-09-30T09:19:58.000Z</time>
      </trkpt>
      <trkpt lat="43.25198" lon="-0.72195">
        <ele>195.4099968</ele>
        <time>2018-09-30T09:19:59.000Z</time>
      </trkpt>
      <trkpt lat="43.25201" lon="-0.72198">
        <ele>195</ele>
        <time>2018-09-30T09:20:00.000Z</time>
      </trkpt>
      <trkpt lat="43.25205" lon="-0.72202">
        <ele>195</ele>
        <time>2018-09-30T09:20:01.000Z</time>
      </trkpt>
      <trkpt lat="43.25208" lon="-0.72206">
        <ele>195</ele>
        <time>2018-09-30T09:20:02.000Z</time>
      </trkpt>
      <trkpt lat="43.25211" lon="-0.7221">
        <ele>195</ele>
        <time>2018-09-30T09:20:03.000Z</time>
      </trkpt>
      <trkpt lat="43.25215" lon="-0.72214">
        <ele>195</ele>
        <time>2018-09-30T09:20:04.000Z</time>
      </trkpt>
      <trkpt lat="43.25218" lon="-0.72219">
        <ele>195</ele>
        <time>2018-09-30T09:20:05.000Z</time>
      </trkpt>
      <trkpt lat="43.25222" lon="-0.72223">
        <ele>195</ele>
        <time>2018-09-30T09:20:06.000Z</time>
      </trkpt>
      <trkpt lat="43.25225" lon="-0.72227">
        <ele>195</ele>
        <time>2018-09-30T09:20:07.000Z</time>
      </trkpt>
      <trkpt lat="43.25229" lon="-0.72231">
        <ele>195</ele>
        <time>2018-09-30T09:20:08.000Z</time>
      </trkpt>
      <trkpt lat="43.25232" lon="-0.72236">
        <ele>195</ele>
        <time>2018-09-30T09:20:09.000Z</time>
      </trkpt>
      <trkpt lat="43.25236" lon="-0.7224">
        <ele>195</ele>
        <time>2018-09-30T09:20:10.000Z</time>
      </trkpt>
      <trkpt lat="43.25239" lon="-0.72245">
        <ele>194.54615361894</ele>
        <time>2018-09-30T09:20:11.000Z</time>
      </trkpt>
      <trkpt lat="43.25243" lon="-0.72249">
        <ele>194</ele>
        <time>2018-09-30T09:20:12.000Z</time>
      </trkpt>
      <trkpt lat="43.25247" lon="-0.72254">
        <ele>194</ele>
        <time>2018-09-30T09:20:13.000Z</time>
      </trkpt>
      <trkpt lat="43.2525" lon="-0.72258">
        <ele>194</ele>
        <time>2018-09-30T09:20:14.000Z</time>
      </trkpt>
      <trkpt lat="43.25254" lon="-0.72262">
        <ele>194</ele>
        <time>2018-09-30T09:20:15.000Z</time>
      </trkpt>
      <trkpt lat="43.25258" lon="-0.72266">
        <ele>194</ele>
        <time>2018-09-30T09:20:16.000Z</time>
      </trkpt>
      <trkpt lat="43.25262" lon="-0.7227">
        <ele>194</ele>
        <time>2018-09-30T09:20:17.000Z</time>
      </trkpt>
      <trkpt lat="43.25266" lon="-0.72273">
        <ele>194</ele>
        <time>2018-09-30T09:20:18.000Z</time>
      </trkpt>
      <trkpt lat="43.25271" lon="-0.72276">
        <ele>194</ele>
        <time>2018-09-30T09:20:19.000Z</time>
      </trkpt>
      <trkpt lat="43.25275" lon="-0.72279">
        <ele>194</ele>
        <time>2018-09-30T09:20:20.000Z</time>
      </trkpt>
      <trkpt lat="43.25279" lon="-0.72281">
        <ele>194</ele>
        <time>2018-09-30T09:20:21.000Z</time>
      </trkpt>
      <trkpt lat="43.25283" lon="-0.72284">
        <ele>194</ele>
        <time>2018-09-30T09:20:22.000Z</time>
      </trkpt>
      <trkpt lat="43.25287" lon="-0.72287">
        <ele>194</ele>
        <time>2018-09-30T09:20:23.000Z</time>
      </trkpt>
      <trkpt lat="43.25291" lon="-0.7229">
        <ele>194</ele>
        <time>2018-09-30T09:20:24.000Z</time>
      </trkpt>
      <trkpt lat="43.25296" lon="-0.72294">
        <ele>194</ele>
        <time>2018-09-30T09:20:25.000Z</time>
      </trkpt>
      <trkpt lat="43.253" lon="-0.72298">
        <ele>193.5857150694</ele>
        <time>2018-09-30T09:20:26.000Z</time>
      </trkpt>
      <trkpt lat="43.25304" lon="-0.72302">
        <ele>193</ele>
        <time>2018-09-30T09:20:27.000Z</time>
      </trkpt>
      <trkpt lat="43.25308" lon="-0.72306">
        <ele>193</ele>
        <time>2018-09-30T09:20:28.000Z</time>
      </trkpt>
      <trkpt lat="43.25312" lon="-0.7231">
        <ele>193</ele>
        <time>2018-09-30T09:20:29.000Z</time>
      </trkpt>
      <trkpt lat="43.25315" lon="-0.72314">
        <ele>193.45736341807</ele>
        <time>2018-09-30T09:20:30.000Z</time>
      </trkpt>
      <trkpt lat="43.25319" lon="-0.72318">
        <ele>194</ele>
        <time>2018-09-30T09:20:31.000Z</time>
      </trkpt>
      <trkpt lat="43.25323" lon="-0.72322">
        <ele>194</ele>
        <time>2018-09-30T09:20:32.000Z</time>
      </trkpt>
      <trkpt lat="43.25327" lon="-0.72325">
        <ele>194</ele>
        <time>2018-09-30T09:20:33.000Z</time>
      </trkpt>
      <trkpt lat="43.25332" lon="-0.72329">
        <ele>193.4099968</ele>
        <time>2018-09-30T09:20:34.000Z</time>
      </trkpt>
      <trkpt lat="43.25336" lon="-0.72333">
        <ele>193</ele>
        <time>2018-09-30T09:20:35.000Z</time>
      </trkpt>
      <trkpt lat="43.2534" lon="-0.72336">
        <ele>193</ele>
        <time>2018-09-30T09:20:36.000Z</time>
      </trkpt>
      <trkpt lat="43.25344" lon="-0.7234">
        <ele>193</ele>
        <time>2018-09-30T09:20:37.000Z</time>
      </trkpt>
      <trkpt lat="43.25348" lon="-0.72344">
        <ele>193</ele>
        <time>2018-09-30T09:20:38.000Z</time>
      </trkpt>
      <trkpt lat="43.25352" lon="-0.72347">
        <ele>193</ele>
        <time>2018-09-30T09:20:39.000Z</time>
      </trkpt>
      <trkpt lat="43.25356" lon="-0.72351">
        <ele>193</ele>
        <time>2018-09-30T09:20:40.000Z</time>
      </trkpt>
      <trkpt lat="43.2536" lon="-0.72355">
        <ele>193</ele>
        <time>2018-09-30T09:20:41.000Z</time>
      </trkpt>
      <trkpt lat="43.25364" lon="-0.72358">
        <ele>193</ele>
        <time>2018-09-30T09:20:42.000Z</time>
      </trkpt>
      <trkpt lat="43.25368" lon="-0.72362">
        <ele>193</ele>
        <time>2018-09-30T09:20:43.000Z</time>
      </trkpt>
      <trkpt lat="43.25372" lon="-0.72365">
        <ele>193</ele>
        <time>2018-09-30T09:20:44.000Z</time>
      </trkpt>
      <trkpt lat="43.25376" lon="-0.72369">
        <ele>193</ele>
        <time>2018-09-30T09:20:45.000Z</time>
      </trkpt>
      <trkpt lat="43.2538" lon="-0.72372">
        <ele>193</ele>
        <time>2018-09-30T09:20:46.000Z</time>
      </trkpt>
      <trkpt lat="43.25384" lon="-0.72375">
        <ele>193</ele>
        <time>2018-09-30T09:20:47.000Z</time>
      </trkpt>
      <trkpt lat="43.25388" lon="-0.72378">
        <ele>193</ele>
        <time>2018-09-30T09:20:48.000Z</time>
      </trkpt>
      <trkpt lat="43.25392" lon="-0.72382">
        <ele>193</ele>
        <time>2018-09-30T09:20:49.000Z</time>
      </trkpt>
      <trkpt lat="43.25396" lon="-0.72385">
        <ele>193</ele>
        <time>2018-09-30T09:20:50.000Z</time>
      </trkpt>
      <trkpt lat="43.254" lon="-0.72389">
        <ele>193</ele>
        <time>2018-09-30T09:20:51.000Z</time>
      </trkpt>
      <trkpt lat="43.25404" lon="-0.72392">
        <ele>193</ele>
        <time>2018-09-30T09:20:52.000Z</time>
      </trkpt>
      <trkpt lat="43.25408" lon="-0.72395">
        <ele>193</ele>
        <time>2018-09-30T09:20:53.000Z</time>
      </trkpt>
      <trkpt lat="43.25412" lon="-0.72398">
        <ele>193</ele>
        <time>2018-09-30T09:20:54.000Z</time>
      </trkpt>
      <trkpt lat="43.25416" lon="-0.72402">
        <ele>193</ele>
        <time>2018-09-30T09:20:55.000Z</time>
      </trkpt>
      <trkpt lat="43.25419" lon="-0.72405">
        <ele>193</ele>
        <time>2018-09-30T09:20:56.000Z</time>
      </trkpt>
      <trkpt lat="43.25423" lon="-0.72407">
        <ele>193</ele>
        <time>2018-09-30T09:20:57.000Z</time>
      </trkpt>
      <trkpt lat="43.25427" lon="-0.7241">
        <ele>193</ele>
        <time>2018-09-30T09:20:58.000Z</time>
      </trkpt>
      <trkpt lat="43.2543" lon="-0.72413">
        <ele>193</ele>
        <time>2018-09-30T09:20:59.000Z</time>
      </trkpt>
      <trkpt lat="43.25434" lon="-0.72416">
        <ele>193</ele>
        <time>2018-09-30T09:21:00.000Z</time>
      </trkpt>
      <trkpt lat="43.25438" lon="-0.7242">
        <ele>193</ele>
        <time>2018-09-30T09:21:01.000Z</time>
      </trkpt>
      <trkpt lat="43.25442" lon="-0.72423">
        <ele>193</ele>
        <time>2018-09-30T09:21:02.000Z</time>
      </trkpt>
      <trkpt lat="43.25446" lon="-0.72425">
        <ele>193</ele>
        <time>2018-09-30T09:21:03.000Z</time>
      </trkpt>
      <trkpt lat="43.2545" lon="-0.72428">
        <ele>193</ele>
        <time>2018-09-30T09:21:04.000Z</time>
      </trkpt>
      <trkpt lat="43.25454" lon="-0.7243">
        <ele>193</ele>
        <time>2018-09-30T09:21:05.000Z</time>
      </trkpt>
      <trkpt lat="43.25458" lon="-0.72433">
        <ele>193</ele>
        <time>2018-09-30T09:21:06.000Z</time>
      </trkpt>
      <trkpt lat="43.25462" lon="-0.72435">
        <ele>193</ele>
        <time>2018-09-30T09:21:07.000Z</time>
      </trkpt>
      <trkpt lat="43.25466" lon="-0.72437">
        <ele>193</ele>
        <time>2018-09-30T09:21:08.000Z</time>
      </trkpt>
      <trkpt lat="43.2547" lon="-0.7244">
        <ele>193</ele>
        <time>2018-09-30T09:21:09.000Z</time>
      </trkpt>
      <trkpt lat="43.25474" lon="-0.72442">
        <ele>193</ele>
        <time>2018-09-30T09:21:10.000Z</time>
      </trkpt>
      <trkpt lat="43.25478" lon="-0.72444">
        <ele>193</ele>
        <time>2018-09-30T09:21:11.000Z</time>
      </trkpt>
      <trkpt lat="43.25483" lon="-0.72446">
        <ele>193</ele>
        <time>2018-09-30T09:21:12.000Z</time>
      </trkpt>
      <trkpt lat="43.25487" lon="-0.72448">
        <ele>193</ele>
        <time>2018-09-30T09:21:13.000Z</time>
      </trkpt>
      <trkpt lat="43.25491" lon="-0.7245">
        <ele>193</ele>
        <time>2018-09-30T09:21:14.000Z</time>
      </trkpt>
      <trkpt lat="43.25495" lon="-0.72453">
        <ele>193</ele>
        <time>2018-09-30T09:21:15.000Z</time>
      </trkpt>
      <trkpt lat="43.25499" lon="-0.72455">
        <ele>193</ele>
        <time>2018-09-30T09:21:16.000Z</time>
      </trkpt>
      <trkpt lat="43.25503" lon="-0.72457">
        <ele>193</ele>
        <time>2018-09-30T09:21:17.000Z</time>
      </trkpt>
      <trkpt lat="43.25508" lon="-0.7246">
        <ele>193</ele>
        <time>2018-09-30T09:21:18.000Z</time>
      </trkpt>
      <trkpt lat="43.25512" lon="-0.72462">
        <ele>193</ele>
        <time>2018-09-30T09:21:19.000Z</time>
      </trkpt>
      <trkpt lat="43.25516" lon="-0.72465">
        <ele>193</ele>
        <time>2018-09-30T09:21:20.000Z</time>
      </trkpt>
      <trkpt lat="43.2552" lon="-0.72467">
        <ele>193</ele>
        <time>2018-09-30T09:21:21.000Z</time>
      </trkpt>
      <trkpt lat="43.25525" lon="-0.7247">
        <ele>193</ele>
        <time>2018-09-30T09:21:22.000Z</time>
      </trkpt>
      <trkpt lat="43.25529" lon="-0.72472">
        <ele>193</ele>
        <time>2018-09-30T09:21:23.000Z</time>
      </trkpt>
      <trkpt lat="43.25533" lon="-0.72475">
        <ele>193</ele>
        <time>2018-09-30T09:21:24.000Z</time>
      </trkpt>
      <trkpt lat="43.25538" lon="-0.72478">
        <ele>193</ele>
        <time>2018-09-30T09:21:25.000Z</time>
      </trkpt>
      <trkpt lat="43.25542" lon="-0.7248">
        <ele>193</ele>
        <time>2018-09-30T09:21:26.000Z</time>
      </trkpt>
      <trkpt lat="43.25547" lon="-0.72483">
        <ele>193</ele>
        <time>2018-09-30T09:21:27.000Z</time>
      </trkpt>
      <trkpt lat="43.25551" lon="-0.72486">
        <ele>193</ele>
        <time>2018-09-30T09:21:28.000Z</time>
      </trkpt>
      <trkpt lat="43.25555" lon="-0.72488">
        <ele>193</ele>
        <time>2018-09-30T09:21:29.000Z</time>
      </trkpt>
      <trkpt lat="43.2556" lon="-0.72491">
        <ele>193</ele>
        <time>2018-09-30T09:21:30.000Z</time>
      </trkpt>
      <trkpt lat="43.25564" lon="-0.72493">
        <ele>193</ele>
        <time>2018-09-30T09:21:31.000Z</time>
      </trkpt>
      <trkpt lat="43.25569" lon="-0.72495">
        <ele>193</ele>
        <time>2018-09-30T09:21:32.000Z</time>
      </trkpt>
      <trkpt lat="43.25573" lon="-0.72497">
        <ele>193</ele>
        <time>2018-09-30T09:21:33.000Z</time>
      </trkpt>
      <trkpt lat="43.25577" lon="-0.725">
        <ele>193</ele>
        <time>2018-09-30T09:21:34.000Z</time>
      </trkpt>
      <trkpt lat="43.25582" lon="-0.72503">
        <ele>193</ele>
        <time>2018-09-30T09:21:35.000Z</time>
      </trkpt>
      <trkpt lat="43.25586" lon="-0.72505">
        <ele>193</ele>
        <time>2018-09-30T09:21:36.000Z</time>
      </trkpt>
      <trkpt lat="43.25591" lon="-0.72508">
        <ele>193</ele>
        <time>2018-09-30T09:21:37.000Z</time>
      </trkpt>
      <trkpt lat="43.25595" lon="-0.72511">
        <ele>193</ele>
        <time>2018-09-30T09:21:38.000Z</time>
      </trkpt>
      <trkpt lat="43.25599" lon="-0.72513">
        <ele>193</ele>
        <time>2018-09-30T09:21:39.000Z</time>
      </trkpt>
      <trkpt lat="43.25603" lon="-0.72516">
        <ele>193</ele>
        <time>2018-09-30T09:21:40.000Z</time>
      </trkpt>
      <trkpt lat="43.25608" lon="-0.72519">
        <ele>193</ele>
        <time>2018-09-30T09:21:41.000Z</time>
      </trkpt>
      <trkpt lat="43.25612" lon="-0.72522">
        <ele>193</ele>
        <time>2018-09-30T09:21:42.000Z</time>
      </trkpt>
      <trkpt lat="43.25616" lon="-0.72525">
        <ele>193</ele>
        <time>2018-09-30T09:21:43.000Z</time>
      </trkpt>
      <trkpt lat="43.2562" lon="-0.72528">
        <ele>193</ele>
        <time>2018-09-30T09:21:44.000Z</time>
      </trkpt>
      <trkpt lat="43.25624" lon="-0.7253">
        <ele>193</ele>
        <time>2018-09-30T09:21:45.000Z</time>
      </trkpt>
      <trkpt lat="43.25628" lon="-0.72532">
        <ele>193</ele>
        <time>2018-09-30T09:21:46.000Z</time>
      </trkpt>
      <trkpt lat="43.25632" lon="-0.72535">
        <ele>193</ele>
        <time>2018-09-30T09:21:47.000Z</time>
      </trkpt>
      <trkpt lat="43.25636" lon="-0.72537">
        <ele>193.5900032</ele>
        <time>2018-09-30T09:21:48.000Z</time>
      </trkpt>
      <trkpt lat="43.2564" lon="-0.72539">
        <ele>194</ele>
        <time>2018-09-30T09:21:49.000Z</time>
      </trkpt>
      <trkpt lat="43.25645" lon="-0.7254">
        <ele>193.4099968</ele>
        <time>2018-09-30T09:21:50.000Z</time>
      </trkpt>
      <trkpt lat="43.25649" lon="-0.72541">
        <ele>193</ele>
        <time>2018-09-30T09:21:51.000Z</time>
      </trkpt>
      <trkpt lat="43.25654" lon="-0.72543">
        <ele>193</ele>
        <time>2018-09-30T09:21:52.000Z</time>
      </trkpt>
      <trkpt lat="43.25657" lon="-0.72545">
        <ele>193</ele>
        <time>2018-09-30T09:21:53.000Z</time>
      </trkpt>
      <trkpt lat="43.25659" lon="-0.72552">
        <ele>193</ele>
        <time>2018-09-30T09:21:55.000Z</time>
      </trkpt>
      <trkpt lat="43.25658" lon="-0.72556">
        <ele>193</ele>
        <time>2018-09-30T09:21:56.000Z</time>
      </trkpt>
      <trkpt lat="43.25656" lon="-0.72561">
        <ele>193</ele>
        <time>2018-09-30T09:21:57.000Z</time>
      </trkpt>
      <trkpt lat="43.25653" lon="-0.72567">
        <ele>193</ele>
        <time>2018-09-30T09:21:58.000Z</time>
      </trkpt>
      <trkpt lat="43.25652" lon="-0.72572">
        <ele>193</ele>
        <time>2018-09-30T09:21:59.000Z</time>
      </trkpt>
      <trkpt lat="43.2565" lon="-0.72577">
        <ele>193</ele>
        <time>2018-09-30T09:22:00.000Z</time>
      </trkpt>
      <trkpt lat="43.25648" lon="-0.72583">
        <ele>193</ele>
        <time>2018-09-30T09:22:01.000Z</time>
      </trkpt>
      <trkpt lat="43.25646" lon="-0.72588">
        <ele>193</ele>
        <time>2018-09-30T09:22:02.000Z</time>
      </trkpt>
      <trkpt lat="43.25644" lon="-0.72593">
        <ele>193</ele>
        <time>2018-09-30T09:22:03.000Z</time>
      </trkpt>
      <trkpt lat="43.25642" lon="-0.72598">
        <ele>193</ele>
        <time>2018-09-30T09:22:04.000Z</time>
      </trkpt>
      <trkpt lat="43.2564" lon="-0.72603">
        <ele>193</ele>
        <time>2018-09-30T09:22:05.000Z</time>
      </trkpt>
      <trkpt lat="43.25638" lon="-0.72608">
        <ele>193</ele>
        <time>2018-09-30T09:22:06.000Z</time>
      </trkpt>
      <trkpt lat="43.25636" lon="-0.72614">
        <ele>193.5900032</ele>
        <time>2018-09-30T09:22:07.000Z</time>
      </trkpt>
      <trkpt lat="43.25634" lon="-0.72619">
        <ele>194</ele>
        <time>2018-09-30T09:22:08.000Z</time>
      </trkpt>
      <trkpt lat="43.25632" lon="-0.72624">
        <ele>194</ele>
        <time>2018-09-30T09:22:09.000Z</time>
      </trkpt>
      <trkpt lat="43.2563" lon="-0.72629">
        <ele>194</ele>
        <time>2018-09-30T09:22:10.000Z</time>
      </trkpt>
      <trkpt lat="43.25628" lon="-0.72634">
        <ele>194</ele>
        <time>2018-09-30T09:22:11.000Z</time>
      </trkpt>
      <trkpt lat="43.25626" lon="-0.7264">
        <ele>194</ele>
        <time>2018-09-30T09:22:12.000Z</time>
      </trkpt>
      <trkpt lat="43.25624" lon="-0.72645">
        <ele>194</ele>
        <time>2018-09-30T09:22:13.000Z</time>
      </trkpt>
      <trkpt lat="43.25622" lon="-0.7265">
        <ele>194</ele>
        <time>2018-09-30T09:22:14.000Z</time>
      </trkpt>
      <trkpt lat="43.2562" lon="-0.72655">
        <ele>194.5900032</ele>
        <time>2018-09-30T09:22:15.000Z</time>
      </trkpt>
      <trkpt lat="43.25618" lon="-0.7266">
        <ele>195</ele>
        <time>2018-09-30T09:22:16.000Z</time>
      </trkpt>
      <trkpt lat="43.25616" lon="-0.72665">
        <ele>195</ele>
        <time>2018-09-30T09:22:17.000Z</time>
      </trkpt>
      <trkpt lat="43.25614" lon="-0.7267">
        <ele>195</ele>
        <time>2018-09-30T09:22:18.000Z</time>
      </trkpt>
      <trkpt lat="43.25611" lon="-0.72675">
        <ele>195</ele>
        <time>2018-09-30T09:22:19.000Z</time>
      </trkpt>
      <trkpt lat="43.25609" lon="-0.7268">
        <ele>195</ele>
        <time>2018-09-30T09:22:20.000Z</time>
      </trkpt>
      <trkpt lat="43.25607" lon="-0.72685">
        <ele>195</ele>
        <time>2018-09-30T09:22:21.000Z</time>
      </trkpt>
      <trkpt lat="43.25605" lon="-0.72689">
        <ele>195</ele>
        <time>2018-09-30T09:22:22.000Z</time>
      </trkpt>
      <trkpt lat="43.25603" lon="-0.72694">
        <ele>195</ele>
        <time>2018-09-30T09:22:23.000Z</time>
      </trkpt>
      <trkpt lat="43.25601" lon="-0.72699">
        <ele>195</ele>
        <time>2018-09-30T09:22:24.000Z</time>
      </trkpt>
      <trkpt lat="43.25599" lon="-0.72704">
        <ele>195.43056</ele>
        <time>2018-09-30T09:22:25.000Z</time>
      </trkpt>
      <trkpt lat="43.25596" lon="-0.72708">
        <ele>196</ele>
        <time>2018-09-30T09:22:26.000Z</time>
      </trkpt>
      <trkpt lat="43.25594" lon="-0.72713">
        <ele>196</ele>
        <time>2018-09-30T09:22:27.000Z</time>
      </trkpt>
      <trkpt lat="43.25592" lon="-0.72718">
        <ele>196</ele>
        <time>2018-09-30T09:22:28.000Z</time>
      </trkpt>
      <trkpt lat="43.2559" lon="-0.72723">
        <ele>196</ele>
        <time>2018-09-30T09:22:29.000Z</time>
      </trkpt>
      <trkpt lat="43.25588" lon="-0.72728">
        <ele>196.58163318618</ele>
        <time>2018-09-30T09:22:30.000Z</time>
      </trkpt>
      <trkpt lat="43.25585" lon="-0.72733">
        <ele>197</ele>
        <time>2018-09-30T09:22:31.000Z</time>
      </trkpt>
      <trkpt lat="43.25583" lon="-0.72738">
        <ele>197</ele>
        <time>2018-09-30T09:22:32.000Z</time>
      </trkpt>
      <trkpt lat="43.25581" lon="-0.72743">
        <ele>197.5900032</ele>
        <time>2018-09-30T09:22:33.000Z</time>
      </trkpt>
      <trkpt lat="43.25579" lon="-0.72748">
        <ele>198</ele>
        <time>2018-09-30T09:22:34.000Z</time>
      </trkpt>
      <trkpt lat="43.25577" lon="-0.72753">
        <ele>198</ele>
        <time>2018-09-30T09:22:35.000Z</time>
      </trkpt>
      <trkpt lat="43.25574" lon="-0.72758">
        <ele>198</ele>
        <time>2018-09-30T09:22:36.000Z</time>
      </trkpt>
      <trkpt lat="43.25572" lon="-0.72762">
        <ele>198</ele>
        <time>2018-09-30T09:22:37.000Z</time>
      </trkpt>
      <trkpt lat="43.2557" lon="-0.72767">
        <ele>198</ele>
        <time>2018-09-30T09:22:38.000Z</time>
      </trkpt>
      <trkpt lat="43.25569" lon="-0.72772">
        <ele>198</ele>
        <time>2018-09-30T09:22:39.000Z</time>
      </trkpt>
      <trkpt lat="43.25568" lon="-0.72778">
        <ele>198</ele>
        <time>2018-09-30T09:22:40.000Z</time>
      </trkpt>
      <trkpt lat="43.25568" lon="-0.72784">
        <ele>198</ele>
        <time>2018-09-30T09:22:41.000Z</time>
      </trkpt>
      <trkpt lat="43.25569" lon="-0.72789">
        <ele>198</ele>
        <time>2018-09-30T09:22:42.000Z</time>
      </trkpt>
      <trkpt lat="43.25572" lon="-0.72794">
        <ele>198</ele>
        <time>2018-09-30T09:22:43.000Z</time>
      </trkpt>
      <trkpt lat="43.25574" lon="-0.72798">
        <ele>198.43056</ele>
        <time>2018-09-30T09:22:44.000Z</time>
      </trkpt>
      <trkpt lat="43.25577" lon="-0.72802">
        <ele>199</ele>
        <time>2018-09-30T09:22:45.000Z</time>
      </trkpt>
      <trkpt lat="43.2558" lon="-0.72807">
        <ele>199</ele>
        <time>2018-09-30T09:22:46.000Z</time>
      </trkpt>
      <trkpt lat="43.25583" lon="-0.72811">
        <ele>199</ele>
        <time>2018-09-30T09:22:47.000Z</time>
      </trkpt>
      <trkpt lat="43.25585" lon="-0.72816">
        <ele>199</ele>
        <time>2018-09-30T09:22:48.000Z</time>
      </trkpt>
      <trkpt lat="43.25586" lon="-0.72821">
        <ele>199</ele>
        <time>2018-09-30T09:22:49.000Z</time>
      </trkpt>
      <trkpt lat="43.25585" lon="-0.72826">
        <ele>199</ele>
        <time>2018-09-30T09:22:50.000Z</time>
      </trkpt>
      <trkpt lat="43.25582" lon="-0.7283">
        <ele>199</ele>
        <time>2018-09-30T09:22:51.000Z</time>
      </trkpt>
      <trkpt lat="43.25579" lon="-0.72834">
        <ele>199</ele>
        <time>2018-09-30T09:22:52.000Z</time>
      </trkpt>
      <trkpt lat="43.25575" lon="-0.72837">
        <ele>199</ele>
        <time>2018-09-30T09:22:53.000Z</time>
      </trkpt>
      <trkpt lat="43.25572" lon="-0.72841">
        <ele>199</ele>
        <time>2018-09-30T09:22:54.000Z</time>
      </trkpt>
      <trkpt lat="43.25568" lon="-0.72844">
        <ele>199.58163318618</ele>
        <time>2018-09-30T09:22:55.000Z</time>
      </trkpt>
      <trkpt lat="43.25565" lon="-0.72848">
        <ele>200</ele>
        <time>2018-09-30T09:22:56.000Z</time>
      </trkpt>
      <trkpt lat="43.25562" lon="-0.72852">
        <ele>200.5900032</ele>
        <time>2018-09-30T09:22:57.000Z</time>
      </trkpt>
      <trkpt lat="43.25559" lon="-0.72855">
        <ele>201</ele>
        <time>2018-09-30T09:22:58.000Z</time>
      </trkpt>
      <trkpt lat="43.25556" lon="-0.72859">
        <ele>201</ele>
        <time>2018-09-30T09:22:59.000Z</time>
      </trkpt>
      <trkpt lat="43.25553" lon="-0.72862">
        <ele>201.5900032</ele>
        <time>2018-09-30T09:23:00.000Z</time>
      </trkpt>
      <trkpt lat="43.2555" lon="-0.72865">
        <ele>202</ele>
        <time>2018-09-30T09:23:01.000Z</time>
      </trkpt>
      <trkpt lat="43.25546" lon="-0.72869">
        <ele>202</ele>
        <time>2018-09-30T09:23:02.000Z</time>
      </trkpt>
      <trkpt lat="43.25543" lon="-0.72872">
        <ele>202</ele>
        <time>2018-09-30T09:23:03.000Z</time>
      </trkpt>
      <trkpt lat="43.2554" lon="-0.72875">
        <ele>202.45384638106</ele>
        <time>2018-09-30T09:23:04.000Z</time>
      </trkpt>
      <trkpt lat="43.25536" lon="-0.72879">
        <ele>203</ele>
        <time>2018-09-30T09:23:05.000Z</time>
      </trkpt>
      <trkpt lat="43.25533" lon="-0.72883">
        <ele>203</ele>
        <time>2018-09-30T09:23:06.000Z</time>
      </trkpt>
      <trkpt lat="43.2553" lon="-0.72887">
        <ele>203</ele>
        <time>2018-09-30T09:23:07.000Z</time>
      </trkpt>
      <trkpt lat="43.25526" lon="-0.72891">
        <ele>203</ele>
        <time>2018-09-30T09:23:08.000Z</time>
      </trkpt>
      <trkpt lat="43.25522" lon="-0.72894">
        <ele>203</ele>
        <time>2018-09-30T09:23:09.000Z</time>
      </trkpt>
      <trkpt lat="43.25517" lon="-0.72897">
        <ele>203</ele>
        <time>2018-09-30T09:23:10.000Z</time>
      </trkpt>
      <trkpt lat="43.25512" lon="-0.729">
        <ele>202.4099968</ele>
        <time>2018-09-30T09:23:11.000Z</time>
      </trkpt>
      <trkpt lat="43.25506" lon="-0.72902">
        <ele>202</ele>
        <time>2018-09-30T09:23:12.000Z</time>
      </trkpt>
      <trkpt lat="43.25501" lon="-0.72904">
        <ele>201.4099968</ele>
        <time>2018-09-30T09:23:13.000Z</time>
      </trkpt>
      <trkpt lat="43.25496" lon="-0.72905">
        <ele>200.54961697804</ele>
        <time>2018-09-30T09:23:14.000Z</time>
      </trkpt>
      <trkpt lat="43.25491" lon="-0.72907">
        <ele>199.59420101658</ele>
        <time>2018-09-30T09:23:15.000Z</time>
      </trkpt>
      <trkpt lat="43.25486" lon="-0.72908">
        <ele>197.8199936</ele>
        <time>2018-09-30T09:23:16.000Z</time>
      </trkpt>
      <trkpt lat="43.2548" lon="-0.72909">
        <ele>197</ele>
        <time>2018-09-30T09:23:17.000Z</time>
      </trkpt>
      <trkpt lat="43.25475" lon="-0.72911">
        <ele>196.4099968</ele>
        <time>2018-09-30T09:23:18.000Z</time>
      </trkpt>
      <trkpt lat="43.25469" lon="-0.72914">
        <ele>196</ele>
        <time>2018-09-30T09:23:19.000Z</time>
      </trkpt>
      <trkpt lat="43.25464" lon="-0.72918">
        <ele>196</ele>
        <time>2018-09-30T09:23:20.000Z</time>
      </trkpt>
      <trkpt lat="43.2546" lon="-0.72922">
        <ele>195.54263204374</ele>
        <time>2018-09-30T09:23:21.000Z</time>
      </trkpt>
      <trkpt lat="43.25457" lon="-0.72927">
        <ele>195</ele>
        <time>2018-09-30T09:23:22.000Z</time>
      </trkpt>
      <trkpt lat="43.25453" lon="-0.72931">
        <ele>194.55302787879</ele>
        <time>2018-09-30T09:23:23.000Z</time>
      </trkpt>
      <trkpt lat="43.25449" lon="-0.72936">
        <ele>193.60293647059</ele>
        <time>2018-09-30T09:23:24.000Z</time>
      </trkpt>
      <trkpt lat="43.25446" lon="-0.7294">
        <ele>192.4099968</ele>
        <time>2018-09-30T09:23:25.000Z</time>
      </trkpt>
      <trkpt lat="43.25436" lon="-0.72951">
        <ele>190.4099968</ele>
        <time>2018-09-30T09:23:28.000Z</time>
      </trkpt>
      <trkpt lat="43.25425" lon="-0.72963">
        <ele>188.4099968</ele>
        <time>2018-09-30T09:23:32.000Z</time>
      </trkpt>
      <trkpt lat="43.25415" lon="-0.72975">
        <ele>186</ele>
        <time>2018-09-30T09:23:35.000Z</time>
      </trkpt>
      <trkpt lat="43.25407" lon="-0.72994">
        <ele>184</ele>
        <time>2018-09-30T09:23:38.000Z</time>
      </trkpt>
      <trkpt lat="43.25403" lon="-0.73011">
        <ele>183.54615361894</ele>
        <time>2018-09-30T09:23:40.000Z</time>
      </trkpt>
      <trkpt lat="43.254" lon="-0.7303">
        <ele>181.10605575758</ele>
        <time>2018-09-30T09:23:42.000Z</time>
      </trkpt>
      <trkpt lat="43.25399" lon="-0.73041">
        <ele>179.60293647059</ele>
        <time>2018-09-30T09:23:43.000Z</time>
      </trkpt>
      <trkpt lat="43.25399" lon="-0.73052">
        <ele>178.4099968</ele>
        <time>2018-09-30T09:23:44.000Z</time>
      </trkpt>
      <trkpt lat="43.254" lon="-0.73064">
        <ele>178</ele>
        <time>2018-09-30T09:23:45.000Z</time>
      </trkpt>
      <trkpt lat="43.25401" lon="-0.73074">
        <ele>177.4099968</ele>
        <time>2018-09-30T09:23:46.000Z</time>
      </trkpt>
      <trkpt lat="43.25402" lon="-0.73084">
        <ele>176.4099968</ele>
        <time>2018-09-30T09:23:47.000Z</time>
      </trkpt>
      <trkpt lat="43.25403" lon="-0.73093">
        <ele>175.4099968</ele>
        <time>2018-09-30T09:23:48.000Z</time>
      </trkpt>
      <trkpt lat="43.25405" lon="-0.731">
        <ele>174.4099968</ele>
        <time>2018-09-30T09:23:49.000Z</time>
      </trkpt>
      <trkpt lat="43.25406" lon="-0.73107">
        <ele>173.55302787879</ele>
        <time>2018-09-30T09:23:50.000Z</time>
      </trkpt>
      <trkpt lat="43.25407" lon="-0.73115">
        <ele>172.60293647059</ele>
        <time>2018-09-30T09:23:51.000Z</time>
      </trkpt>
      <trkpt lat="43.25409" lon="-0.73122">
        <ele>172</ele>
        <time>2018-09-30T09:23:52.000Z</time>
      </trkpt>
      <trkpt lat="43.25411" lon="-0.73129">
        <ele>171.4099968</ele>
        <time>2018-09-30T09:23:53.000Z</time>
      </trkpt>
      <trkpt lat="43.25414" lon="-0.73135">
        <ele>170.4099968</ele>
        <time>2018-09-30T09:23:54.000Z</time>
      </trkpt>
      <trkpt lat="43.25417" lon="-0.73141">
        <ele>169.4099968</ele>
        <time>2018-09-30T09:23:55.000Z</time>
      </trkpt>
      <trkpt lat="43.25419" lon="-0.73146">
        <ele>168.4099968</ele>
        <time>2018-09-30T09:23:56.000Z</time>
      </trkpt>
      <trkpt lat="43.25421" lon="-0.73153">
        <ele>166.41836681382</ele>
        <time>2018-09-30T09:23:58.000Z</time>
      </trkpt>
      <trkpt lat="43.25422" lon="-0.73158">
        <ele>166</ele>
        <time>2018-09-30T09:24:00.000Z</time>
      </trkpt>
      <trkpt lat="43.25422" lon="-0.73164">
        <ele>166</ele>
        <time>2018-09-30T09:24:03.000Z</time>
      </trkpt>
      <trkpt lat="43.25423" lon="-0.73169">
        <ele>165</ele>
        <time>2018-09-30T09:24:10.000Z</time>
      </trkpt>
      <trkpt lat="43.25424" lon="-0.73173">
        <ele>164</ele>
        <time>2018-09-30T09:24:26.000Z</time>
      </trkpt>
      <trkpt lat="43.25425" lon="-0.73181">
        <ele>164</ele>
        <time>2018-09-30T09:24:30.000Z</time>
      </trkpt>
      <trkpt lat="43.25426" lon="-0.73189">
        <ele>164</ele>
        <time>2018-09-30T09:24:32.000Z</time>
      </trkpt>
      <trkpt lat="43.25427" lon="-0.73195">
        <ele>164</ele>
        <time>2018-09-30T09:24:33.000Z</time>
      </trkpt>
      <trkpt lat="43.25428" lon="-0.73201">
        <ele>164</ele>
        <time>2018-09-30T09:24:34.000Z</time>
      </trkpt>
      <trkpt lat="43.25428" lon="-0.73206">
        <ele>163.4099968</ele>
        <time>2018-09-30T09:24:35.000Z</time>
      </trkpt>
      <trkpt lat="43.25429" lon="-0.73214">
        <ele>162.54615361894</ele>
        <time>2018-09-30T09:24:37.000Z</time>
      </trkpt>
      <trkpt lat="43.25427" lon="-0.73218">
        <ele>162</ele>
        <time>2018-09-30T09:24:39.000Z</time>
      </trkpt>
      <trkpt lat="43.25423" lon="-0.73223">
        <ele>162</ele>
        <time>2018-09-30T09:24:41.000Z</time>
      </trkpt>
      <trkpt lat="43.25419" lon="-0.73232">
        <ele>161</ele>
        <time>2018-09-30T09:24:43.000Z</time>
      </trkpt>
      <trkpt lat="43.25417" lon="-0.73237">
        <ele>161</ele>
        <time>2018-09-30T09:24:44.000Z</time>
      </trkpt>
      <trkpt lat="43.25415" lon="-0.73241">
        <ele>161</ele>
        <time>2018-09-30T09:24:45.000Z</time>
      </trkpt>
      <trkpt lat="43.25413" lon="-0.73247">
        <ele>160.4099968</ele>
        <time>2018-09-30T09:24:46.000Z</time>
      </trkpt>
      <trkpt lat="43.25413" lon="-0.73252">
        <ele>160</ele>
        <time>2018-09-30T09:24:47.000Z</time>
      </trkpt>
      <trkpt lat="43.25412" lon="-0.73257">
        <ele>160</ele>
        <time>2018-09-30T09:24:48.000Z</time>
      </trkpt>
      <trkpt lat="43.25411" lon="-0.73266">
        <ele>160</ele>
        <time>2018-09-30T09:24:50.000Z</time>
      </trkpt>
      <trkpt lat="43.25409" lon="-0.73272">
        <ele>160</ele>
        <time>2018-09-30T09:24:52.000Z</time>
      </trkpt>
      <trkpt lat="43.25408" lon="-0.73278">
        <ele>160</ele>
        <time>2018-09-30T09:24:54.000Z</time>
      </trkpt>
      <trkpt lat="43.25407" lon="-0.73283">
        <ele>160</ele>
        <time>2018-09-30T09:24:56.000Z</time>
      </trkpt>
      <trkpt lat="43.25409" lon="-0.7329">
        <ele>160</ele>
        <time>2018-09-30T09:24:59.000Z</time>
      </trkpt>
      <trkpt lat="43.25413" lon="-0.73289">
        <ele>159.5900032</ele>
        <time>2018-09-30T09:25:08.000Z</time>
      </trkpt>
      <trkpt lat="43.25415" lon="-0.73293">
        <ele>160</ele>
        <time>2018-09-30T09:25:30.000Z</time>
      </trkpt>
      <trkpt lat="43.25418" lon="-0.73296">
        <ele>160</ele>
        <time>2018-09-30T09:25:36.000Z</time>
      </trkpt>
      <trkpt lat="43.2542" lon="-0.73301">
        <ele>160</ele>
        <time>2018-09-30T09:25:43.000Z</time>
      </trkpt>
      <trkpt lat="43.25422" lon="-0.73305">
        <ele>160</ele>
        <time>2018-09-30T09:25:51.000Z</time>
      </trkpt>
      <trkpt lat="43.25421" lon="-0.7331">
        <ele>160</ele>
        <time>2018-09-30T09:25:57.000Z</time>
      </trkpt>
      <trkpt lat="43.2542" lon="-0.73316">
        <ele>160</ele>
        <time>2018-09-30T09:26:10.000Z</time>
      </trkpt>
      <trkpt lat="43.25422" lon="-0.73321">
        <ele>160</ele>
        <time>2018-09-30T09:26:13.000Z</time>
      </trkpt>
      <trkpt lat="43.25423" lon="-0.73326">
        <ele>160</ele>
        <time>2018-09-30T09:26:15.000Z</time>
      </trkpt>
      <trkpt lat="43.25424" lon="-0.73333">
        <ele>160</ele>
        <time>2018-09-30T09:26:17.000Z</time>
      </trkpt>
      <trkpt lat="43.25427" lon="-0.73341">
        <ele>160</ele>
        <time>2018-09-30T09:26:19.000Z</time>
      </trkpt>
      <trkpt lat="43.2543" lon="-0.73346">
        <ele>160</ele>
        <time>2018-09-30T09:26:20.000Z</time>
      </trkpt>
      <trkpt lat="43.25432" lon="-0.7335">
        <ele>159.4099968</ele>
        <time>2018-09-30T09:26:21.000Z</time>
      </trkpt>
      <trkpt lat="43.25439" lon="-0.73365">
        <ele>159</ele>
        <time>2018-09-30T09:26:24.000Z</time>
      </trkpt>
      <trkpt lat="43.25452" lon="-0.73372">
        <ele>158</ele>
        <time>2018-09-30T09:26:28.000Z</time>
      </trkpt>
      <trkpt lat="43.25463" lon="-0.73376">
        <ele>157</ele>
        <time>2018-09-30T09:26:31.000Z</time>
      </trkpt>
      <trkpt lat="43.25474" lon="-0.73383">
        <ele>156.4099968</ele>
        <time>2018-09-30T09:26:34.000Z</time>
      </trkpt>
      <trkpt lat="43.25484" lon="-0.73391">
        <ele>155.56944</ele>
        <time>2018-09-30T09:26:37.000Z</time>
      </trkpt>
      <trkpt lat="43.25493" lon="-0.73405">
        <ele>155</ele>
        <time>2018-09-30T09:26:41.000Z</time>
      </trkpt>
      <trkpt lat="43.255" lon="-0.73417">
        <ele>155</ele>
        <time>2018-09-30T09:26:43.000Z</time>
      </trkpt>
      <trkpt lat="43.25507" lon="-0.73429">
        <ele>154.4099968</ele>
        <time>2018-09-30T09:26:46.000Z</time>
      </trkpt>
      <trkpt lat="43.25516" lon="-0.73442">
        <ele>154</ele>
        <time>2018-09-30T09:26:51.000Z</time>
      </trkpt>
      <trkpt lat="43.25518" lon="-0.73452">
        <ele>154</ele>
        <time>2018-09-30T09:27:03.000Z</time>
      </trkpt>
      <trkpt lat="43.25524" lon="-0.7346">
        <ele>154</ele>
        <time>2018-09-30T09:27:21.000Z</time>
      </trkpt>
      <trkpt lat="43.25522" lon="-0.73477">
        <ele>154</ele>
        <time>2018-09-30T09:27:27.000Z</time>
      </trkpt>
      <trkpt lat="43.25521" lon="-0.73493">
        <ele>154</ele>
        <time>2018-09-30T09:27:31.000Z</time>
      </trkpt>
      <trkpt lat="43.25518" lon="-0.73508">
        <ele>150</ele>
        <time>2018-09-30T09:27:39.000Z</time>
      </trkpt>
      <trkpt lat="43.2552" lon="-0.73527">
        <ele>151.5900032</ele>
        <time>2018-09-30T09:27:53.000Z</time>
      </trkpt>
      <trkpt lat="43.2552" lon="-0.73545">
        <ele>152</ele>
        <time>2018-09-30T09:27:57.000Z</time>
      </trkpt>
      <trkpt lat="43.25522" lon="-0.73561">
        <ele>153.39706352941</ele>
        <time>2018-09-30T09:28:00.000Z</time>
      </trkpt>
      <trkpt lat="43.25521" lon="-0.73577">
        <ele>154</ele>
        <time>2018-09-30T09:28:03.000Z</time>
      </trkpt>
      <trkpt lat="43.25524" lon="-0.73593">
        <ele>154</ele>
        <time>2018-09-30T09:28:08.000Z</time>
      </trkpt>
      <trkpt lat="43.25522" lon="-0.73608">
        <ele>154</ele>
        <time>2018-09-30T09:28:12.000Z</time>
      </trkpt>
      <trkpt lat="43.25525" lon="-0.73627">
        <ele>153</ele>
        <time>2018-09-30T09:28:16.000Z</time>
      </trkpt>
      <trkpt lat="43.25531" lon="-0.73649">
        <ele>150.4099968</ele>
        <time>2018-09-30T09:28:19.000Z</time>
      </trkpt>
      <trkpt lat="43.25535" lon="-0.73663">
        <ele>150</ele>
        <time>2018-09-30T09:28:21.000Z</time>
      </trkpt>
      <trkpt lat="43.25542" lon="-0.73681">
        <ele>149.4099968</ele>
        <time>2018-09-30T09:28:24.000Z</time>
      </trkpt>
      <trkpt lat="43.2555" lon="-0.73694">
        <ele>149</ele>
        <time>2018-09-30T09:28:27.000Z</time>
      </trkpt>
      <trkpt lat="43.25558" lon="-0.73705">
        <ele>149</ele>
        <time>2018-09-30T09:28:31.000Z</time>
      </trkpt>
      <trkpt lat="43.25567" lon="-0.73715">
        <ele>150</ele>
        <time>2018-09-30T09:28:39.000Z</time>
      </trkpt>
      <trkpt lat="43.25578" lon="-0.73724">
        <ele>152</ele>
        <time>2018-09-30T09:28:51.000Z</time>
      </trkpt>
      <trkpt lat="43.25587" lon="-0.73736">
        <ele>153</ele>
        <time>2018-09-30T09:28:59.000Z</time>
      </trkpt>
      <trkpt lat="43.25593" lon="-0.7375">
        <ele>153</ele>
        <time>2018-09-30T09:29:02.000Z</time>
      </trkpt>
      <trkpt lat="43.25595" lon="-0.73765">
        <ele>153</ele>
        <time>2018-09-30T09:29:05.000Z</time>
      </trkpt>
      <trkpt lat="43.256" lon="-0.7378">
        <ele>153</ele>
        <time>2018-09-30T09:29:09.000Z</time>
      </trkpt>
      <trkpt lat="43.25608" lon="-0.73793">
        <ele>151.40579898342</ele>
        <time>2018-09-30T09:29:14.000Z</time>
      </trkpt>
      <trkpt lat="43.25617" lon="-0.73802">
        <ele>152</ele>
        <time>2018-09-30T09:29:19.000Z</time>
      </trkpt>
      <trkpt lat="43.2562" lon="-0.7382">
        <ele>151</ele>
        <time>2018-09-30T09:29:24.000Z</time>
      </trkpt>
      <trkpt lat="43.25621" lon="-0.73835">
        <ele>150</ele>
        <time>2018-09-30T09:29:27.000Z</time>
      </trkpt>
      <trkpt lat="43.25622" lon="-0.73856">
        <ele>148.5857150694</ele>
        <time>2018-09-30T09:29:30.000Z</time>
      </trkpt>
      <trkpt lat="43.25624" lon="-0.73871">
        <ele>147.4099968</ele>
        <time>2018-09-30T09:29:34.000Z</time>
      </trkpt>
      <trkpt lat="43.25628" lon="-0.73887">
        <ele>147</ele>
        <time>2018-09-30T09:29:40.000Z</time>
      </trkpt>
      <trkpt lat="43.25633" lon="-0.73901">
        <ele>146</ele>
        <time>2018-09-30T09:29:46.000Z</time>
      </trkpt>
      <trkpt lat="43.25636" lon="-0.73916">
        <ele>145.5900032</ele>
        <time>2018-09-30T09:29:51.000Z</time>
      </trkpt>
      <trkpt lat="43.2564" lon="-0.73933">
        <ele>146</ele>
        <time>2018-09-30T09:29:55.000Z</time>
      </trkpt>
      <trkpt lat="43.25643" lon="-0.73949">
        <ele>145.4099968</ele>
        <time>2018-09-30T09:29:59.000Z</time>
      </trkpt>
      <trkpt lat="43.25644" lon="-0.73963">
        <ele>141</ele>
        <time>2018-09-30T09:30:06.000Z</time>
      </trkpt>
      <trkpt lat="43.25646" lon="-0.73978">
        <ele>139</ele>
        <time>2018-09-30T09:30:25.000Z</time>
      </trkpt>
      <trkpt lat="43.2565" lon="-0.73992">
        <ele>139</ele>
        <time>2018-09-30T09:30:34.000Z</time>
      </trkpt>
      <trkpt lat="43.25652" lon="-0.73998">
        <ele>139</ele>
        <time>2018-09-30T09:30:37.000Z</time>
      </trkpt>
      <trkpt lat="43.25655" lon="-0.74004">
        <ele>140</ele>
        <time>2018-09-30T09:30:44.000Z</time>
      </trkpt>
      <trkpt lat="43.25657" lon="-0.74011">
        <ele>140</ele>
        <time>2018-09-30T09:30:47.000Z</time>
      </trkpt>
      <trkpt lat="43.25659" lon="-0.74017">
        <ele>140</ele>
        <time>2018-09-30T09:30:49.000Z</time>
      </trkpt>
      <trkpt lat="43.25662" lon="-0.74024">
        <ele>139.4099968</ele>
        <time>2018-09-30T09:30:51.000Z</time>
      </trkpt>
      <trkpt lat="43.25664" lon="-0.7403">
        <ele>139</ele>
        <time>2018-09-30T09:30:53.000Z</time>
      </trkpt>
      <trkpt lat="43.25666" lon="-0.74038">
        <ele>139</ele>
        <time>2018-09-30T09:30:55.000Z</time>
      </trkpt>
      <trkpt lat="43.25667" lon="-0.74046">
        <ele>139</ele>
        <time>2018-09-30T09:30:57.000Z</time>
      </trkpt>
      <trkpt lat="43.25669" lon="-0.7405">
        <ele>139</ele>
        <time>2018-09-30T09:30:58.000Z</time>
      </trkpt>
      <trkpt lat="43.25673" lon="-0.74057">
        <ele>140</ele>
        <time>2018-09-30T09:31:00.000Z</time>
      </trkpt>
      <trkpt lat="43.25677" lon="-0.74064">
        <ele>141</ele>
        <time>2018-09-30T09:31:02.000Z</time>
      </trkpt>
      <trkpt lat="43.25682" lon="-0.74069">
        <ele>141</ele>
        <time>2018-09-30T09:31:04.000Z</time>
      </trkpt>
      <trkpt lat="43.25686" lon="-0.74074">
        <ele>141</ele>
        <time>2018-09-30T09:31:06.000Z</time>
      </trkpt>
      <trkpt lat="43.25691" lon="-0.74082">
        <ele>141</ele>
        <time>2018-09-30T09:31:08.000Z</time>
      </trkpt>
      <trkpt lat="43.25694" lon="-0.74086">
        <ele>141</ele>
        <time>2018-09-30T09:31:09.000Z</time>
      </trkpt>
      <trkpt lat="43.25697" lon="-0.7409">
        <ele>141</ele>
        <time>2018-09-30T09:31:10.000Z</time>
      </trkpt>
      <trkpt lat="43.25699" lon="-0.74093">
        <ele>141</ele>
        <time>2018-09-30T09:31:11.000Z</time>
      </trkpt>
      <trkpt lat="43.25702" lon="-0.74098">
        <ele>141</ele>
        <time>2018-09-30T09:31:12.000Z</time>
      </trkpt>
      <trkpt lat="43.25705" lon="-0.74102">
        <ele>141</ele>
        <time>2018-09-30T09:31:13.000Z</time>
      </trkpt>
      <trkpt lat="43.25707" lon="-0.74107">
        <ele>141</ele>
        <time>2018-09-30T09:31:14.000Z</time>
      </trkpt>
      <trkpt lat="43.2571" lon="-0.74111">
        <ele>141</ele>
        <time>2018-09-30T09:31:15.000Z</time>
      </trkpt>
      <trkpt lat="43.25713" lon="-0.74115">
        <ele>141</ele>
        <time>2018-09-30T09:31:16.000Z</time>
      </trkpt>
      <trkpt lat="43.25716" lon="-0.7412">
        <ele>141.43056</ele>
        <time>2018-09-30T09:31:17.000Z</time>
      </trkpt>
      <trkpt lat="43.25719" lon="-0.74123">
        <ele>142</ele>
        <time>2018-09-30T09:31:18.000Z</time>
      </trkpt>
      <trkpt lat="43.25723" lon="-0.7413">
        <ele>142</ele>
        <time>2018-09-30T09:31:20.000Z</time>
      </trkpt>
      <trkpt lat="43.2572" lon="-0.74138">
        <ele>142</ele>
        <time>2018-09-30T09:31:22.000Z</time>
      </trkpt>
      <trkpt lat="43.25716" lon="-0.7414">
        <ele>142</ele>
        <time>2018-09-30T09:31:23.000Z</time>
      </trkpt>
      <trkpt lat="43.25712" lon="-0.74141">
        <ele>142.44881524708</ele>
        <time>2018-09-30T09:31:24.000Z</time>
      </trkpt>
      <trkpt lat="43.25707" lon="-0.74141">
        <ele>143</ele>
        <time>2018-09-30T09:31:25.000Z</time>
      </trkpt>
      <trkpt lat="43.25701" lon="-0.74142">
        <ele>143</ele>
        <time>2018-09-30T09:31:26.000Z</time>
      </trkpt>
      <trkpt lat="43.25696" lon="-0.74141">
        <ele>143</ele>
        <time>2018-09-30T09:31:27.000Z</time>
      </trkpt>
      <trkpt lat="43.2569" lon="-0.74142">
        <ele>143</ele>
        <time>2018-09-30T09:31:28.000Z</time>
      </trkpt>
      <trkpt lat="43.25684" lon="-0.74142">
        <ele>142.4099968</ele>
        <time>2018-09-30T09:31:29.000Z</time>
      </trkpt>
      <trkpt lat="43.25678" lon="-0.74141">
        <ele>142</ele>
        <time>2018-09-30T09:31:30.000Z</time>
      </trkpt>
      <trkpt lat="43.25672" lon="-0.74141">
        <ele>142</ele>
        <time>2018-09-30T09:31:31.000Z</time>
      </trkpt>
      <trkpt lat="43.25667" lon="-0.74141">
        <ele>142</ele>
        <time>2018-09-30T09:31:32.000Z</time>
      </trkpt>
      <trkpt lat="43.25661" lon="-0.74141">
        <ele>142</ele>
        <time>2018-09-30T09:31:33.000Z</time>
      </trkpt>
      <trkpt lat="43.25655" lon="-0.74141">
        <ele>142</ele>
        <time>2018-09-30T09:31:34.000Z</time>
      </trkpt>
      <trkpt lat="43.2565" lon="-0.74142">
        <ele>142</ele>
        <time>2018-09-30T09:31:35.000Z</time>
      </trkpt>
      <trkpt lat="43.25645" lon="-0.74142">
        <ele>142</ele>
        <time>2018-09-30T09:31:36.000Z</time>
      </trkpt>
      <trkpt lat="43.2564" lon="-0.74142">
        <ele>141.41584396822</ele>
        <time>2018-09-30T09:31:37.000Z</time>
      </trkpt>
      <trkpt lat="43.25635" lon="-0.74143">
        <ele>141</ele>
        <time>2018-09-30T09:31:38.000Z</time>
      </trkpt>
      <trkpt lat="43.25631" lon="-0.74143">
        <ele>141</ele>
        <time>2018-09-30T09:31:39.000Z</time>
      </trkpt>
      <trkpt lat="43.25626" lon="-0.74143">
        <ele>141</ele>
        <time>2018-09-30T09:31:40.000Z</time>
      </trkpt>
      <trkpt lat="43.25621" lon="-0.74143">
        <ele>141</ele>
        <time>2018-09-30T09:31:41.000Z</time>
      </trkpt>
      <trkpt lat="43.25616" lon="-0.74143">
        <ele>141</ele>
        <time>2018-09-30T09:31:42.000Z</time>
      </trkpt>
      <trkpt lat="43.25611" lon="-0.74144">
        <ele>141</ele>
        <time>2018-09-30T09:31:43.000Z</time>
      </trkpt>
      <trkpt lat="43.25607" lon="-0.74144">
        <ele>141</ele>
        <time>2018-09-30T09:31:44.000Z</time>
      </trkpt>
      <trkpt lat="43.25601" lon="-0.74144">
        <ele>141</ele>
        <time>2018-09-30T09:31:45.000Z</time>
      </trkpt>
      <trkpt lat="43.25596" lon="-0.74144">
        <ele>141</ele>
        <time>2018-09-30T09:31:46.000Z</time>
      </trkpt>
      <trkpt lat="43.25591" lon="-0.74145">
        <ele>141</ele>
        <time>2018-09-30T09:31:47.000Z</time>
      </trkpt>
      <trkpt lat="43.25586" lon="-0.74146">
        <ele>141</ele>
        <time>2018-09-30T09:31:48.000Z</time>
      </trkpt>
      <trkpt lat="43.25582" lon="-0.74147">
        <ele>141</ele>
        <time>2018-09-30T09:31:49.000Z</time>
      </trkpt>
      <trkpt lat="43.25577" lon="-0.74148">
        <ele>141</ele>
        <time>2018-09-30T09:31:50.000Z</time>
      </trkpt>
      <trkpt lat="43.25572" lon="-0.74149">
        <ele>141</ele>
        <time>2018-09-30T09:31:51.000Z</time>
      </trkpt>
      <trkpt lat="43.25567" lon="-0.74151">
        <ele>141</ele>
        <time>2018-09-30T09:31:52.000Z</time>
      </trkpt>
      <trkpt lat="43.25563" lon="-0.74152">
        <ele>141.44697212121</ele>
        <time>2018-09-30T09:31:53.000Z</time>
      </trkpt>
      <trkpt lat="43.25558" lon="-0.74154">
        <ele>142</ele>
        <time>2018-09-30T09:31:54.000Z</time>
      </trkpt>
      <trkpt lat="43.25553" lon="-0.74156">
        <ele>142</ele>
        <time>2018-09-30T09:31:55.000Z</time>
      </trkpt>
      <trkpt lat="43.25549" lon="-0.74159">
        <ele>142</ele>
        <time>2018-09-30T09:31:56.000Z</time>
      </trkpt>
      <trkpt lat="43.25544" lon="-0.74162">
        <ele>142</ele>
        <time>2018-09-30T09:31:57.000Z</time>
      </trkpt>
      <trkpt lat="43.25539" lon="-0.74164">
        <ele>142.5900032</ele>
        <time>2018-09-30T09:31:58.000Z</time>
      </trkpt>
      <trkpt lat="43.25535" lon="-0.74167">
        <ele>143</ele>
        <time>2018-09-30T09:31:59.000Z</time>
      </trkpt>
      <trkpt lat="43.25531" lon="-0.7417">
        <ele>143</ele>
        <time>2018-09-30T09:32:00.000Z</time>
      </trkpt>
      <trkpt lat="43.25528" lon="-0.74173">
        <ele>143</ele>
        <time>2018-09-30T09:32:01.000Z</time>
      </trkpt>
      <trkpt lat="43.25524" lon="-0.74177">
        <ele>143</ele>
        <time>2018-09-30T09:32:02.000Z</time>
      </trkpt>
      <trkpt lat="43.2552" lon="-0.74181">
        <ele>143</ele>
        <time>2018-09-30T09:32:03.000Z</time>
      </trkpt>
      <trkpt lat="43.25515" lon="-0.74185">
        <ele>143.43056</ele>
        <time>2018-09-30T09:32:04.000Z</time>
      </trkpt>
      <trkpt lat="43.25511" lon="-0.74189">
        <ele>144</ele>
        <time>2018-09-30T09:32:05.000Z</time>
      </trkpt>
      <trkpt lat="43.25507" lon="-0.74193">
        <ele>144</ele>
        <time>2018-09-30T09:32:06.000Z</time>
      </trkpt>
      <trkpt lat="43.25503" lon="-0.74198">
        <ele>144</ele>
        <time>2018-09-30T09:32:07.000Z</time>
      </trkpt>
      <trkpt lat="43.25499" lon="-0.74204">
        <ele>144</ele>
        <time>2018-09-30T09:32:08.000Z</time>
      </trkpt>
      <trkpt lat="43.25495" lon="-0.74209">
        <ele>144</ele>
        <time>2018-09-30T09:32:09.000Z</time>
      </trkpt>
      <trkpt lat="43.25492" lon="-0.74214">
        <ele>144</ele>
        <time>2018-09-30T09:32:10.000Z</time>
      </trkpt>
      <trkpt lat="43.25488" lon="-0.7422">
        <ele>144</ele>
        <time>2018-09-30T09:32:11.000Z</time>
      </trkpt>
      <trkpt lat="43.25485" lon="-0.74227">
        <ele>144</ele>
        <time>2018-09-30T09:32:12.000Z</time>
      </trkpt>
      <trkpt lat="43.25482" lon="-0.74233">
        <ele>144</ele>
        <time>2018-09-30T09:32:13.000Z</time>
      </trkpt>
      <trkpt lat="43.2548" lon="-0.74239">
        <ele>144</ele>
        <time>2018-09-30T09:32:14.000Z</time>
      </trkpt>
      <trkpt lat="43.25477" lon="-0.74246">
        <ele>144</ele>
        <time>2018-09-30T09:32:15.000Z</time>
      </trkpt>
      <trkpt lat="43.25475" lon="-0.74252">
        <ele>144</ele>
        <time>2018-09-30T09:32:16.000Z</time>
      </trkpt>
      <trkpt lat="43.25473" lon="-0.74259">
        <ele>144</ele>
        <time>2018-09-30T09:32:17.000Z</time>
      </trkpt>
      <trkpt lat="43.25471" lon="-0.74266">
        <ele>144</ele>
        <time>2018-09-30T09:32:18.000Z</time>
      </trkpt>
      <trkpt lat="43.25469" lon="-0.74273">
        <ele>144</ele>
        <time>2018-09-30T09:32:19.000Z</time>
      </trkpt>
      <trkpt lat="43.25467" lon="-0.7428">
        <ele>144</ele>
        <time>2018-09-30T09:32:20.000Z</time>
      </trkpt>
      <trkpt lat="43.25465" lon="-0.74287">
        <ele>144</ele>
        <time>2018-09-30T09:32:21.000Z</time>
      </trkpt>
      <trkpt lat="43.25463" lon="-0.74294">
        <ele>144</ele>
        <time>2018-09-30T09:32:22.000Z</time>
      </trkpt>
      <trkpt lat="43.25461" lon="-0.74301">
        <ele>144</ele>
        <time>2018-09-30T09:32:23.000Z</time>
      </trkpt>
      <trkpt lat="43.2546" lon="-0.74307">
        <ele>144</ele>
        <time>2018-09-30T09:32:24.000Z</time>
      </trkpt>
      <trkpt lat="43.25459" lon="-0.74314">
        <ele>144</ele>
        <time>2018-09-30T09:32:25.000Z</time>
      </trkpt>
      <trkpt lat="43.25457" lon="-0.7432">
        <ele>144</ele>
        <time>2018-09-30T09:32:26.000Z</time>
      </trkpt>
      <trkpt lat="43.25456" lon="-0.74327">
        <ele>144</ele>
        <time>2018-09-30T09:32:27.000Z</time>
      </trkpt>
      <trkpt lat="43.25454" lon="-0.74333">
        <ele>144</ele>
        <time>2018-09-30T09:32:28.000Z</time>
      </trkpt>
      <trkpt lat="43.25452" lon="-0.74339">
        <ele>144</ele>
        <time>2018-09-30T09:32:29.000Z</time>
      </trkpt>
      <trkpt lat="43.2545" lon="-0.74345">
        <ele>144</ele>
        <time>2018-09-30T09:32:30.000Z</time>
      </trkpt>
      <trkpt lat="43.25448" lon="-0.74352">
        <ele>144</ele>
        <time>2018-09-30T09:32:31.000Z</time>
      </trkpt>
      <trkpt lat="43.25446" lon="-0.74358">
        <ele>144</ele>
        <time>2018-09-30T09:32:32.000Z</time>
      </trkpt>
      <trkpt lat="43.25444" lon="-0.74365">
        <ele>144</ele>
        <time>2018-09-30T09:32:33.000Z</time>
      </trkpt>
      <trkpt lat="43.25442" lon="-0.7437">
        <ele>144</ele>
        <time>2018-09-30T09:32:34.000Z</time>
      </trkpt>
      <trkpt lat="43.2544" lon="-0.74376">
        <ele>144</ele>
        <time>2018-09-30T09:32:35.000Z</time>
      </trkpt>
      <trkpt lat="43.25438" lon="-0.74382">
        <ele>144</ele>
        <time>2018-09-30T09:32:36.000Z</time>
      </trkpt>
      <trkpt lat="43.25436" lon="-0.74389">
        <ele>144</ele>
        <time>2018-09-30T09:32:37.000Z</time>
      </trkpt>
      <trkpt lat="43.25434" lon="-0.74396">
        <ele>144</ele>
        <time>2018-09-30T09:32:38.000Z</time>
      </trkpt>
      <trkpt lat="43.25432" lon="-0.74403">
        <ele>144</ele>
        <time>2018-09-30T09:32:39.000Z</time>
      </trkpt>
      <trkpt lat="43.2543" lon="-0.74409">
        <ele>144</ele>
        <time>2018-09-30T09:32:40.000Z</time>
      </trkpt>
      <trkpt lat="43.25428" lon="-0.74416">
        <ele>144</ele>
        <time>2018-09-30T09:32:41.000Z</time>
      </trkpt>
      <trkpt lat="43.25425" lon="-0.74423">
        <ele>144</ele>
        <time>2018-09-30T09:32:42.000Z</time>
      </trkpt>
      <trkpt lat="43.25423" lon="-0.7443">
        <ele>144</ele>
        <time>2018-09-30T09:32:43.000Z</time>
      </trkpt>
      <trkpt lat="43.25421" lon="-0.74436">
        <ele>144</ele>
        <time>2018-09-30T09:32:44.000Z</time>
      </trkpt>
      <trkpt lat="43.2542" lon="-0.74442">
        <ele>144</ele>
        <time>2018-09-30T09:32:45.000Z</time>
      </trkpt>
      <trkpt lat="43.25419" lon="-0.74448">
        <ele>144</ele>
        <time>2018-09-30T09:32:46.000Z</time>
      </trkpt>
      <trkpt lat="43.25414" lon="-0.74465">
        <ele>144</ele>
        <time>2018-09-30T09:32:49.000Z</time>
      </trkpt>
      <trkpt lat="43.25408" lon="-0.74479">
        <ele>144</ele>
        <time>2018-09-30T09:32:52.000Z</time>
      </trkpt>
      <trkpt lat="43.25401" lon="-0.74495">
        <ele>144</ele>
        <time>2018-09-30T09:32:55.000Z</time>
      </trkpt>
      <trkpt lat="43.25393" lon="-0.74513">
        <ele>144</ele>
        <time>2018-09-30T09:32:58.000Z</time>
      </trkpt>
      <trkpt lat="43.25382" lon="-0.74531">
        <ele>144</ele>
        <time>2018-09-30T09:33:01.000Z</time>
      </trkpt>
      <trkpt lat="43.25374" lon="-0.74543">
        <ele>144</ele>
        <time>2018-09-30T09:33:03.000Z</time>
      </trkpt>
      <trkpt lat="43.25366" lon="-0.74554">
        <ele>144</ele>
        <time>2018-09-30T09:33:05.000Z</time>
      </trkpt>
      <trkpt lat="43.25358" lon="-0.74566">
        <ele>144</ele>
        <time>2018-09-30T09:33:07.000Z</time>
      </trkpt>
      <trkpt lat="43.25353" lon="-0.74571">
        <ele>144</ele>
        <time>2018-09-30T09:33:08.000Z</time>
      </trkpt>
      <trkpt lat="43.25345" lon="-0.74582">
        <ele>144</ele>
        <time>2018-09-30T09:33:10.000Z</time>
      </trkpt>
      <trkpt lat="43.25341" lon="-0.74587">
        <ele>144</ele>
        <time>2018-09-30T09:33:11.000Z</time>
      </trkpt>
      <trkpt lat="43.25337" lon="-0.74592">
        <ele>144</ele>
        <time>2018-09-30T09:33:12.000Z</time>
      </trkpt>
      <trkpt lat="43.25334" lon="-0.74597">
        <ele>144</ele>
        <time>2018-09-30T09:33:13.000Z</time>
      </trkpt>
      <trkpt lat="43.25331" lon="-0.74601">
        <ele>144</ele>
        <time>2018-09-30T09:33:14.000Z</time>
      </trkpt>
      <trkpt lat="43.25327" lon="-0.74606">
        <ele>144</ele>
        <time>2018-09-30T09:33:15.000Z</time>
      </trkpt>
      <trkpt lat="43.25323" lon="-0.74611">
        <ele>144</ele>
        <time>2018-09-30T09:33:16.000Z</time>
      </trkpt>
      <trkpt lat="43.25319" lon="-0.74616">
        <ele>144</ele>
        <time>2018-09-30T09:33:17.000Z</time>
      </trkpt>
      <trkpt lat="43.25315" lon="-0.7462">
        <ele>144</ele>
        <time>2018-09-30T09:33:18.000Z</time>
      </trkpt>
      <trkpt lat="43.25311" lon="-0.74625">
        <ele>144</ele>
        <time>2018-09-30T09:33:19.000Z</time>
      </trkpt>
      <trkpt lat="43.25307" lon="-0.74628">
        <ele>144</ele>
        <time>2018-09-30T09:33:20.000Z</time>
      </trkpt>
      <trkpt lat="43.25304" lon="-0.74632">
        <ele>144</ele>
        <time>2018-09-30T09:33:21.000Z</time>
      </trkpt>
      <trkpt lat="43.25301" lon="-0.74636">
        <ele>144</ele>
        <time>2018-09-30T09:33:22.000Z</time>
      </trkpt>
      <trkpt lat="43.25297" lon="-0.7464">
        <ele>144</ele>
        <time>2018-09-30T09:33:23.000Z</time>
      </trkpt>
      <trkpt lat="43.25293" lon="-0.74644">
        <ele>144</ele>
        <time>2018-09-30T09:33:24.000Z</time>
      </trkpt>
      <trkpt lat="43.2529" lon="-0.74648">
        <ele>144</ele>
        <time>2018-09-30T09:33:25.000Z</time>
      </trkpt>
      <trkpt lat="43.25287" lon="-0.74652">
        <ele>144</ele>
        <time>2018-09-30T09:33:26.000Z</time>
      </trkpt>
      <trkpt lat="43.25284" lon="-0.74656">
        <ele>144</ele>
        <time>2018-09-30T09:33:27.000Z</time>
      </trkpt>
      <trkpt lat="43.25281" lon="-0.7466">
        <ele>144</ele>
        <time>2018-09-30T09:33:28.000Z</time>
      </trkpt>
      <trkpt lat="43.25277" lon="-0.74664">
        <ele>144</ele>
        <time>2018-09-30T09:33:29.000Z</time>
      </trkpt>
      <trkpt lat="43.25268" lon="-0.74675">
        <ele>144</ele>
        <time>2018-09-30T09:33:32.000Z</time>
      </trkpt>
      <trkpt lat="43.25257" lon="-0.74688">
        <ele>144</ele>
        <time>2018-09-30T09:33:35.000Z</time>
      </trkpt>
      <trkpt lat="43.2525" lon="-0.74697">
        <ele>144.5900032</ele>
        <time>2018-09-30T09:33:37.000Z</time>
      </trkpt>
      <trkpt lat="43.25246" lon="-0.74701">
        <ele>145</ele>
        <time>2018-09-30T09:33:38.000Z</time>
      </trkpt>
      <trkpt lat="43.25242" lon="-0.74705">
        <ele>145</ele>
        <time>2018-09-30T09:33:39.000Z</time>
      </trkpt>
      <trkpt lat="43.25237" lon="-0.74709">
        <ele>145</ele>
        <time>2018-09-30T09:33:40.000Z</time>
      </trkpt>
      <trkpt lat="43.25233" lon="-0.74714">
        <ele>145</ele>
        <time>2018-09-30T09:33:41.000Z</time>
      </trkpt>
      <trkpt lat="43.25228" lon="-0.74718">
        <ele>145</ele>
        <time>2018-09-30T09:33:42.000Z</time>
      </trkpt>
      <trkpt lat="43.25223" lon="-0.74722">
        <ele>145.4142849306</ele>
        <time>2018-09-30T09:33:43.000Z</time>
      </trkpt>
      <trkpt lat="43.25219" lon="-0.74726">
        <ele>146</ele>
        <time>2018-09-30T09:33:44.000Z</time>
      </trkpt>
      <trkpt lat="43.25215" lon="-0.7473">
        <ele>146</ele>
        <time>2018-09-30T09:33:45.000Z</time>
      </trkpt>
      <trkpt lat="43.25211" lon="-0.74734">
        <ele>146</ele>
        <time>2018-09-30T09:33:46.000Z</time>
      </trkpt>
      <trkpt lat="43.25207" lon="-0.74739">
        <ele>146</ele>
        <time>2018-09-30T09:33:47.000Z</time>
      </trkpt>
      <trkpt lat="43.25202" lon="-0.74743">
        <ele>146</ele>
        <time>2018-09-30T09:33:48.000Z</time>
      </trkpt>
      <trkpt lat="43.25197" lon="-0.74747">
        <ele>146</ele>
        <time>2018-09-30T09:33:49.000Z</time>
      </trkpt>
      <trkpt lat="43.25193" lon="-0.74752">
        <ele>146</ele>
        <time>2018-09-30T09:33:50.000Z</time>
      </trkpt>
      <trkpt lat="43.25189" lon="-0.74756">
        <ele>146</ele>
        <time>2018-09-30T09:33:51.000Z</time>
      </trkpt>
      <trkpt lat="43.25184" lon="-0.74761">
        <ele>146</ele>
        <time>2018-09-30T09:33:52.000Z</time>
      </trkpt>
      <trkpt lat="43.2518" lon="-0.74765">
        <ele>146</ele>
        <time>2018-09-30T09:33:53.000Z</time>
      </trkpt>
      <trkpt lat="43.25176" lon="-0.74769">
        <ele>146</ele>
        <time>2018-09-30T09:33:54.000Z</time>
      </trkpt>
      <trkpt lat="43.25172" lon="-0.74773">
        <ele>146</ele>
        <time>2018-09-30T09:33:55.000Z</time>
      </trkpt>
      <trkpt lat="43.25161" lon="-0.74786">
        <ele>146</ele>
        <time>2018-09-30T09:33:58.000Z</time>
      </trkpt>
      <trkpt lat="43.25149" lon="-0.74799">
        <ele>146</ele>
        <time>2018-09-30T09:34:01.000Z</time>
      </trkpt>
      <trkpt lat="43.2514" lon="-0.7481">
        <ele>146</ele>
        <time>2018-09-30T09:34:03.000Z</time>
      </trkpt>
      <trkpt lat="43.25133" lon="-0.74822">
        <ele>146</ele>
        <time>2018-09-30T09:34:05.000Z</time>
      </trkpt>
      <trkpt lat="43.25126" lon="-0.74836">
        <ele>146</ele>
        <time>2018-09-30T09:34:07.000Z</time>
      </trkpt>
      <trkpt lat="43.25122" lon="-0.74853">
        <ele>146</ele>
        <time>2018-09-30T09:34:09.000Z</time>
      </trkpt>
      <trkpt lat="43.25119" lon="-0.74868">
        <ele>146.4142849306</ele>
        <time>2018-09-30T09:34:11.000Z</time>
      </trkpt>
      <trkpt lat="43.25118" lon="-0.74883">
        <ele>147</ele>
        <time>2018-09-30T09:34:13.000Z</time>
      </trkpt>
      <trkpt lat="43.25118" lon="-0.74899">
        <ele>147</ele>
        <time>2018-09-30T09:34:15.000Z</time>
      </trkpt>
      <trkpt lat="43.25119" lon="-0.74906">
        <ele>147</ele>
        <time>2018-09-30T09:34:16.000Z</time>
      </trkpt>
      <trkpt lat="43.25119" lon="-0.74913">
        <ele>147</ele>
        <time>2018-09-30T09:34:17.000Z</time>
      </trkpt>
      <trkpt lat="43.2512" lon="-0.7492">
        <ele>147</ele>
        <time>2018-09-30T09:34:18.000Z</time>
      </trkpt>
      <trkpt lat="43.25121" lon="-0.74926">
        <ele>147</ele>
        <time>2018-09-30T09:34:19.000Z</time>
      </trkpt>
      <trkpt lat="43.25123" lon="-0.74932">
        <ele>147</ele>
        <time>2018-09-30T09:34:20.000Z</time>
      </trkpt>
      <trkpt lat="43.25124" lon="-0.74937">
        <ele>147</ele>
        <time>2018-09-30T09:34:21.000Z</time>
      </trkpt>
      <trkpt lat="43.25126" lon="-0.74943">
        <ele>147</ele>
        <time>2018-09-30T09:34:22.000Z</time>
      </trkpt>
      <trkpt lat="43.25127" lon="-0.74947">
        <ele>147</ele>
        <time>2018-09-30T09:34:23.000Z</time>
      </trkpt>
      <trkpt lat="43.25129" lon="-0.74957">
        <ele>147</ele>
        <time>2018-09-30T09:34:25.000Z</time>
      </trkpt>
      <trkpt lat="43.2513" lon="-0.74966">
        <ele>147</ele>
        <time>2018-09-30T09:34:27.000Z</time>
      </trkpt>
      <trkpt lat="43.2513" lon="-0.74971">
        <ele>147</ele>
        <time>2018-09-30T09:34:28.000Z</time>
      </trkpt>
      <trkpt lat="43.25131" lon="-0.74977">
        <ele>146.4099968</ele>
        <time>2018-09-30T09:34:29.000Z</time>
      </trkpt>
      <trkpt lat="43.25132" lon="-0.74982">
        <ele>146</ele>
        <time>2018-09-30T09:34:30.000Z</time>
      </trkpt>
      <trkpt lat="43.25134" lon="-0.74988">
        <ele>146</ele>
        <time>2018-09-30T09:34:31.000Z</time>
      </trkpt>
      <trkpt lat="43.25137" lon="-0.74993">
        <ele>146</ele>
        <time>2018-09-30T09:34:32.000Z</time>
      </trkpt>
      <trkpt lat="43.2514" lon="-0.74998">
        <ele>145.4099968</ele>
        <time>2018-09-30T09:34:33.000Z</time>
      </trkpt>
      <trkpt lat="43.25142" lon="-0.75003">
        <ele>145</ele>
        <time>2018-09-30T09:34:34.000Z</time>
      </trkpt>
      <trkpt lat="43.25143" lon="-0.75009">
        <ele>145</ele>
        <time>2018-09-30T09:34:35.000Z</time>
      </trkpt>
      <trkpt lat="43.25142" lon="-0.75015">
        <ele>144.4099968</ele>
        <time>2018-09-30T09:34:36.000Z</time>
      </trkpt>
      <trkpt lat="43.25141" lon="-0.75019">
        <ele>144</ele>
        <time>2018-09-30T09:34:37.000Z</time>
      </trkpt>
      <trkpt lat="43.25138" lon="-0.75025">
        <ele>144</ele>
        <time>2018-09-30T09:34:38.000Z</time>
      </trkpt>
      <trkpt lat="43.25135" lon="-0.7503">
        <ele>144</ele>
        <time>2018-09-30T09:34:39.000Z</time>
      </trkpt>
      <trkpt lat="43.25132" lon="-0.75037">
        <ele>144</ele>
        <time>2018-09-30T09:34:40.000Z</time>
      </trkpt>
      <trkpt lat="43.2513" lon="-0.75043">
        <ele>144</ele>
        <time>2018-09-30T09:34:41.000Z</time>
      </trkpt>
      <trkpt lat="43.25127" lon="-0.7505">
        <ele>144</ele>
        <time>2018-09-30T09:34:42.000Z</time>
      </trkpt>
      <trkpt lat="43.25124" lon="-0.75057">
        <ele>144</ele>
        <time>2018-09-30T09:34:43.000Z</time>
      </trkpt>
      <trkpt lat="43.25122" lon="-0.75064">
        <ele>144</ele>
        <time>2018-09-30T09:34:44.000Z</time>
      </trkpt>
      <trkpt lat="43.2512" lon="-0.7507">
        <ele>144</ele>
        <time>2018-09-30T09:34:45.000Z</time>
      </trkpt>
      <trkpt lat="43.25118" lon="-0.75077">
        <ele>144</ele>
        <time>2018-09-30T09:34:46.000Z</time>
      </trkpt>
      <trkpt lat="43.25116" lon="-0.75083">
        <ele>144</ele>
        <time>2018-09-30T09:34:47.000Z</time>
      </trkpt>
      <trkpt lat="43.25114" lon="-0.75088">
        <ele>144</ele>
        <time>2018-09-30T09:34:48.000Z</time>
      </trkpt>
      <trkpt lat="43.25112" lon="-0.75092">
        <ele>144</ele>
        <time>2018-09-30T09:34:49.000Z</time>
      </trkpt>
      <trkpt lat="43.25105" lon="-0.75095">
        <ele>144.5900032</ele>
        <time>2018-09-30T09:34:51.000Z</time>
      </trkpt>
      <trkpt lat="43.25101" lon="-0.75094">
        <ele>145</ele>
        <time>2018-09-30T09:34:52.000Z</time>
      </trkpt>
      <trkpt lat="43.25097" lon="-0.75093">
        <ele>145</ele>
        <time>2018-09-30T09:34:53.000Z</time>
      </trkpt>
      <trkpt lat="43.25093" lon="-0.75093">
        <ele>145</ele>
        <time>2018-09-30T09:34:54.000Z</time>
      </trkpt>
      <trkpt lat="43.25081" lon="-0.7509">
        <ele>145</ele>
        <time>2018-09-30T09:34:58.000Z</time>
      </trkpt>
      <trkpt lat="43.25076" lon="-0.75087">
        <ele>145</ele>
        <time>2018-09-30T09:35:00.000Z</time>
      </trkpt>
      <trkpt lat="43.25071" lon="-0.75087">
        <ele>145</ele>
        <time>2018-09-30T09:35:02.000Z</time>
      </trkpt>
      <trkpt lat="43.25064" lon="-0.75092">
        <ele>146</ele>
        <time>2018-09-30T09:35:05.000Z</time>
      </trkpt>
      <trkpt lat="43.25061" lon="-0.75095">
        <ele>146.58416343497</ele>
        <time>2018-09-30T09:35:06.000Z</time>
      </trkpt>
      <trkpt lat="43.25058" lon="-0.75099">
        <ele>147</ele>
        <time>2018-09-30T09:35:07.000Z</time>
      </trkpt>
      <trkpt lat="43.25054" lon="-0.75105">
        <ele>147</ele>
        <time>2018-09-30T09:35:09.000Z</time>
      </trkpt>
      <trkpt lat="43.25052" lon="-0.7511">
        <ele>147</ele>
        <time>2018-09-30T09:35:10.000Z</time>
      </trkpt>
      <trkpt lat="43.25049" lon="-0.75115">
        <ele>147</ele>
        <time>2018-09-30T09:35:11.000Z</time>
      </trkpt>
      <trkpt lat="43.25047" lon="-0.7512">
        <ele>147</ele>
        <time>2018-09-30T09:35:12.000Z</time>
      </trkpt>
      <trkpt lat="43.25045" lon="-0.75125">
        <ele>147</ele>
        <time>2018-09-30T09:35:13.000Z</time>
      </trkpt>
      <trkpt lat="43.25042" lon="-0.7513">
        <ele>147</ele>
        <time>2018-09-30T09:35:14.000Z</time>
      </trkpt>
      <trkpt lat="43.25035" lon="-0.75142">
        <ele>147</ele>
        <time>2018-09-30T09:35:17.000Z</time>
      </trkpt>
      <trkpt lat="43.25025" lon="-0.75154">
        <ele>147</ele>
        <time>2018-09-30T09:35:20.000Z</time>
      </trkpt>
      <trkpt lat="43.25021" lon="-0.75157">
        <ele>147</ele>
        <time>2018-09-30T09:35:21.000Z</time>
      </trkpt>
      <trkpt lat="43.25009" lon="-0.75166">
        <ele>147</ele>
        <time>2018-09-30T09:35:24.000Z</time>
      </trkpt>
      <trkpt lat="43.24994" lon="-0.75171">
        <ele>147</ele>
        <time>2018-09-30T09:35:27.000Z</time>
      </trkpt>
      <trkpt lat="43.2498" lon="-0.75176">
        <ele>147</ele>
        <time>2018-09-30T09:35:30.000Z</time>
      </trkpt>
      <trkpt lat="43.24976" lon="-0.75178">
        <ele>147</ele>
        <time>2018-09-30T09:35:31.000Z</time>
      </trkpt>
      <trkpt lat="43.24972" lon="-0.75179">
        <ele>147</ele>
        <time>2018-09-30T09:35:32.000Z</time>
      </trkpt>
      <trkpt lat="43.2496" lon="-0.75184">
        <ele>147.5900032</ele>
        <time>2018-09-30T09:35:35.000Z</time>
      </trkpt>
      <trkpt lat="43.24957" lon="-0.75187">
        <ele>148</ele>
        <time>2018-09-30T09:35:36.000Z</time>
      </trkpt>
      <trkpt lat="43.24948" lon="-0.75197">
        <ele>148</ele>
        <time>2018-09-30T09:35:39.000Z</time>
      </trkpt>
      <trkpt lat="43.24938" lon="-0.75206">
        <ele>148</ele>
        <time>2018-09-30T09:35:42.000Z</time>
      </trkpt>
      <trkpt lat="43.24928" lon="-0.75218">
        <ele>149</ele>
        <time>2018-09-30T09:35:45.000Z</time>
      </trkpt>
      <trkpt lat="43.24918" lon="-0.75228">
        <ele>149.5900032</ele>
        <time>2018-09-30T09:35:48.000Z</time>
      </trkpt>
      <trkpt lat="43.24907" lon="-0.75238">
        <ele>150</ele>
        <time>2018-09-30T09:35:52.000Z</time>
      </trkpt>
      <trkpt lat="43.24897" lon="-0.75243">
        <ele>150</ele>
        <time>2018-09-30T09:35:55.000Z</time>
      </trkpt>
      <trkpt lat="43.24884" lon="-0.7525">
        <ele>151</ele>
        <time>2018-09-30T09:35:59.000Z</time>
      </trkpt>
      <trkpt lat="43.24871" lon="-0.75258">
        <ele>152</ele>
        <time>2018-09-30T09:36:03.000Z</time>
      </trkpt>
      <trkpt lat="43.24858" lon="-0.75265">
        <ele>152</ele>
        <time>2018-09-30T09:36:06.000Z</time>
      </trkpt>
      <trkpt lat="43.24845" lon="-0.75269">
        <ele>153</ele>
        <time>2018-09-30T09:36:10.000Z</time>
      </trkpt>
      <trkpt lat="43.24834" lon="-0.75272">
        <ele>153</ele>
        <time>2018-09-30T09:36:13.000Z</time>
      </trkpt>
      <trkpt lat="43.24823" lon="-0.75276">
        <ele>153</ele>
        <time>2018-09-30T09:36:16.000Z</time>
      </trkpt>
      <trkpt lat="43.24812" lon="-0.75281">
        <ele>153</ele>
        <time>2018-09-30T09:36:19.000Z</time>
      </trkpt>
      <trkpt lat="43.24799" lon="-0.75284">
        <ele>153</ele>
        <time>2018-09-30T09:36:22.000Z</time>
      </trkpt>
      <trkpt lat="43.24789" lon="-0.75287">
        <ele>154</ele>
        <time>2018-09-30T09:36:25.000Z</time>
      </trkpt>
      <trkpt lat="43.24775" lon="-0.75289">
        <ele>154</ele>
        <time>2018-09-30T09:36:28.000Z</time>
      </trkpt>
      <trkpt lat="43.2477" lon="-0.75289">
        <ele>154</ele>
        <time>2018-09-30T09:36:29.000Z</time>
      </trkpt>
      <trkpt lat="43.24766" lon="-0.7529">
        <ele>154</ele>
        <time>2018-09-30T09:36:30.000Z</time>
      </trkpt>
      <trkpt lat="43.24762" lon="-0.75292">
        <ele>154</ele>
        <time>2018-09-30T09:36:31.000Z</time>
      </trkpt>
      <trkpt lat="43.24755" lon="-0.75295">
        <ele>154</ele>
        <time>2018-09-30T09:36:33.000Z</time>
      </trkpt>
      <trkpt lat="43.24751" lon="-0.75297">
        <ele>154</ele>
        <time>2018-09-30T09:36:34.000Z</time>
      </trkpt>
      <trkpt lat="43.24741" lon="-0.75304">
        <ele>154</ele>
        <time>2018-09-30T09:36:37.000Z</time>
      </trkpt>
      <trkpt lat="43.24736" lon="-0.75308">
        <ele>154</ele>
        <time>2018-09-30T09:36:39.000Z</time>
      </trkpt>
      <trkpt lat="43.24727" lon="-0.75318">
        <ele>154</ele>
        <time>2018-09-30T09:36:43.000Z</time>
      </trkpt>
      <trkpt lat="43.2472" lon="-0.7533">
        <ele>154.5900032</ele>
        <time>2018-09-30T09:36:47.000Z</time>
      </trkpt>
      <trkpt lat="43.24717" lon="-0.75335">
        <ele>155</ele>
        <time>2018-09-30T09:36:49.000Z</time>
      </trkpt>
      <trkpt lat="43.24714" lon="-0.75342">
        <ele>155</ele>
        <time>2018-09-30T09:36:51.000Z</time>
      </trkpt>
      <trkpt lat="43.24712" lon="-0.75347">
        <ele>156</ele>
        <time>2018-09-30T09:36:53.000Z</time>
      </trkpt>
      <trkpt lat="43.2471" lon="-0.75352">
        <ele>156</ele>
        <time>2018-09-30T09:36:55.000Z</time>
      </trkpt>
      <trkpt lat="43.24707" lon="-0.75356">
        <ele>157</ele>
        <time>2018-09-30T09:36:57.000Z</time>
      </trkpt>
      <trkpt lat="43.24704" lon="-0.75359">
        <ele>158</ele>
        <time>2018-09-30T09:36:59.000Z</time>
      </trkpt>
      <trkpt lat="43.24701" lon="-0.75363">
        <ele>158.58416343497</ele>
        <time>2018-09-30T09:37:02.000Z</time>
      </trkpt>
      <trkpt lat="43.24698" lon="-0.75366">
        <ele>160</ele>
        <time>2018-09-30T09:37:06.000Z</time>
      </trkpt>
      <trkpt lat="43.24694" lon="-0.7537">
        <ele>160</ele>
        <time>2018-09-30T09:37:09.000Z</time>
      </trkpt>
      <trkpt lat="43.2469" lon="-0.75373">
        <ele>160.5900032</ele>
        <time>2018-09-30T09:37:11.000Z</time>
      </trkpt>
      <trkpt lat="43.24686" lon="-0.75377">
        <ele>161</ele>
        <time>2018-09-30T09:37:13.000Z</time>
      </trkpt>
      <trkpt lat="43.24684" lon="-0.75382">
        <ele>162.58586315681</ele>
        <time>2018-09-30T09:37:15.000Z</time>
      </trkpt>
      <trkpt lat="43.24681" lon="-0.75385">
        <ele>163.45736795626</ele>
        <time>2018-09-30T09:37:17.000Z</time>
      </trkpt>
      <trkpt lat="43.24678" lon="-0.75389">
        <ele>165.5900032</ele>
        <time>2018-09-30T09:37:19.000Z</time>
      </trkpt>
      <trkpt lat="43.24676" lon="-0.75392">
        <ele>166</ele>
        <time>2018-09-30T09:37:21.000Z</time>
      </trkpt>
      <trkpt lat="43.24673" lon="-0.75396">
        <ele>166</ele>
        <time>2018-09-30T09:37:23.000Z</time>
      </trkpt>
      <trkpt lat="43.2467" lon="-0.754">
        <ele>166</ele>
        <time>2018-09-30T09:37:25.000Z</time>
      </trkpt>
      <trkpt lat="43.24667" lon="-0.75406">
        <ele>166.5900032</ele>
        <time>2018-09-30T09:37:28.000Z</time>
      </trkpt>
      <trkpt lat="43.24664" lon="-0.75411">
        <ele>167</ele>
        <time>2018-09-30T09:37:31.000Z</time>
      </trkpt>
      <trkpt lat="43.24662" lon="-0.75415">
        <ele>167.5900032</ele>
        <time>2018-09-30T09:37:33.000Z</time>
      </trkpt>
      <trkpt lat="43.2466" lon="-0.7542">
        <ele>168</ele>
        <time>2018-09-30T09:37:35.000Z</time>
      </trkpt>
      <trkpt lat="43.24659" lon="-0.75425">
        <ele>168.43056</ele>
        <time>2018-09-30T09:37:37.000Z</time>
      </trkpt>
      <trkpt lat="43.24657" lon="-0.75431">
        <ele>169</ele>
        <time>2018-09-30T09:37:39.000Z</time>
      </trkpt>
      <trkpt lat="43.24654" lon="-0.75437">
        <ele>169</ele>
        <time>2018-09-30T09:37:41.000Z</time>
      </trkpt>
      <trkpt lat="43.24651" lon="-0.75443">
        <ele>169</ele>
        <time>2018-09-30T09:37:43.000Z</time>
      </trkpt>
      <trkpt lat="43.24647" lon="-0.75448">
        <ele>169</ele>
        <time>2018-09-30T09:37:45.000Z</time>
      </trkpt>
      <trkpt lat="43.24643" lon="-0.75455">
        <ele>169</ele>
        <time>2018-09-30T09:37:47.000Z</time>
      </trkpt>
      <trkpt lat="43.24637" lon="-0.75459">
        <ele>169</ele>
        <time>2018-09-30T09:37:49.000Z</time>
      </trkpt>
      <trkpt lat="43.24631" lon="-0.75463">
        <ele>169.5900032</ele>
        <time>2018-09-30T09:37:51.000Z</time>
      </trkpt>
      <trkpt lat="43.24626" lon="-0.75466">
        <ele>170.57281686115</ele>
        <time>2018-09-30T09:37:53.000Z</time>
      </trkpt>
      <trkpt lat="43.2462" lon="-0.75469">
        <ele>172</ele>
        <time>2018-09-30T09:37:55.000Z</time>
      </trkpt>
      <trkpt lat="43.24615" lon="-0.75472">
        <ele>172</ele>
        <time>2018-09-30T09:37:57.000Z</time>
      </trkpt>
      <trkpt lat="43.24611" lon="-0.75476">
        <ele>172.5900032</ele>
        <time>2018-09-30T09:37:59.000Z</time>
      </trkpt>
      <trkpt lat="43.24606" lon="-0.7548">
        <ele>173</ele>
        <time>2018-09-30T09:38:01.000Z</time>
      </trkpt>
      <trkpt lat="43.24602" lon="-0.75485">
        <ele>174</ele>
        <time>2018-09-30T09:38:03.000Z</time>
      </trkpt>
      <trkpt lat="43.24598" lon="-0.75488">
        <ele>174</ele>
        <time>2018-09-30T09:38:05.000Z</time>
      </trkpt>
      <trkpt lat="43.24595" lon="-0.75492">
        <ele>174</ele>
        <time>2018-09-30T09:38:06.000Z</time>
      </trkpt>
      <trkpt lat="43.2459" lon="-0.75497">
        <ele>174</ele>
        <time>2018-09-30T09:38:08.000Z</time>
      </trkpt>
      <trkpt lat="43.24586" lon="-0.75501">
        <ele>174</ele>
        <time>2018-09-30T09:38:10.000Z</time>
      </trkpt>
      <trkpt lat="43.24582" lon="-0.75507">
        <ele>174</ele>
        <time>2018-09-30T09:38:12.000Z</time>
      </trkpt>
      <trkpt lat="43.24575" lon="-0.75515">
        <ele>174</ele>
        <time>2018-09-30T09:38:14.000Z</time>
      </trkpt>
      <trkpt lat="43.24571" lon="-0.75519">
        <ele>174</ele>
        <time>2018-09-30T09:38:15.000Z</time>
      </trkpt>
      <trkpt lat="43.24566" lon="-0.75522">
        <ele>174</ele>
        <time>2018-09-30T09:38:16.000Z</time>
      </trkpt>
      <trkpt lat="43.24561" lon="-0.75526">
        <ele>173.5857150694</ele>
        <time>2018-09-30T09:38:17.000Z</time>
      </trkpt>
      <trkpt lat="43.24548" lon="-0.75538">
        <ele>172</ele>
        <time>2018-09-30T09:38:19.000Z</time>
      </trkpt>
      <trkpt lat="43.2454" lon="-0.75547">
        <ele>172</ele>
        <time>2018-09-30T09:38:21.000Z</time>
      </trkpt>
      <trkpt lat="43.24532" lon="-0.75559">
        <ele>174</ele>
        <time>2018-09-30T09:38:24.000Z</time>
      </trkpt>
      <trkpt lat="43.24521" lon="-0.75571">
        <ele>175</ele>
        <time>2018-09-30T09:38:28.000Z</time>
      </trkpt>
      <trkpt lat="43.24515" lon="-0.75575">
        <ele>175.5900032</ele>
        <time>2018-09-30T09:38:30.000Z</time>
      </trkpt>
      <trkpt lat="43.2451" lon="-0.75581">
        <ele>176</ele>
        <time>2018-09-30T09:38:32.000Z</time>
      </trkpt>
      <trkpt lat="43.24504" lon="-0.75584">
        <ele>176</ele>
        <time>2018-09-30T09:38:34.000Z</time>
      </trkpt>
      <trkpt lat="43.24498" lon="-0.75585">
        <ele>177</ele>
        <time>2018-09-30T09:38:36.000Z</time>
      </trkpt>
      <trkpt lat="43.24491" lon="-0.75584">
        <ele>177</ele>
        <time>2018-09-30T09:38:38.000Z</time>
      </trkpt>
      <trkpt lat="43.24486" lon="-0.75581">
        <ele>177</ele>
        <time>2018-09-30T09:38:40.000Z</time>
      </trkpt>
      <trkpt lat="43.24482" lon="-0.75579">
        <ele>177</ele>
        <time>2018-09-30T09:38:42.000Z</time>
      </trkpt>
      <trkpt lat="43.24479" lon="-0.75576">
        <ele>177</ele>
        <time>2018-09-30T09:38:44.000Z</time>
      </trkpt>
      <trkpt lat="43.24474" lon="-0.75573">
        <ele>177</ele>
        <time>2018-09-30T09:38:46.000Z</time>
      </trkpt>
      <trkpt lat="43.2447" lon="-0.75567">
        <ele>177</ele>
        <time>2018-09-30T09:38:48.000Z</time>
      </trkpt>
      <trkpt lat="43.24467" lon="-0.75563">
        <ele>177</ele>
        <time>2018-09-30T09:38:49.000Z</time>
      </trkpt>
      <trkpt lat="43.24464" lon="-0.75559">
        <ele>176.4099968</ele>
        <time>2018-09-30T09:38:50.000Z</time>
      </trkpt>
      <trkpt lat="43.24459" lon="-0.75555">
        <ele>176</ele>
        <time>2018-09-30T09:38:51.000Z</time>
      </trkpt>
      <trkpt lat="43.24454" lon="-0.75552">
        <ele>176</ele>
        <time>2018-09-30T09:38:52.000Z</time>
      </trkpt>
      <trkpt lat="43.2445" lon="-0.75549">
        <ele>175.56164191405</ele>
        <time>2018-09-30T09:38:53.000Z</time>
      </trkpt>
      <trkpt lat="43.24445" lon="-0.75547">
        <ele>175</ele>
        <time>2018-09-30T09:38:54.000Z</time>
      </trkpt>
      <trkpt lat="43.2444" lon="-0.75546">
        <ele>175</ele>
        <time>2018-09-30T09:38:55.000Z</time>
      </trkpt>
      <trkpt lat="43.24435" lon="-0.75547">
        <ele>175</ele>
        <time>2018-09-30T09:38:56.000Z</time>
      </trkpt>
      <trkpt lat="43.24431" lon="-0.75548">
        <ele>174.4099968</ele>
        <time>2018-09-30T09:38:57.000Z</time>
      </trkpt>
      <trkpt lat="43.24426" lon="-0.7555">
        <ele>174</ele>
        <time>2018-09-30T09:38:58.000Z</time>
      </trkpt>
      <trkpt lat="43.24422" lon="-0.75551">
        <ele>174</ele>
        <time>2018-09-30T09:38:59.000Z</time>
      </trkpt>
      <trkpt lat="43.24418" lon="-0.75553">
        <ele>174</ele>
        <time>2018-09-30T09:39:00.000Z</time>
      </trkpt>
      <trkpt lat="43.24414" lon="-0.75555">
        <ele>174</ele>
        <time>2018-09-30T09:39:01.000Z</time>
      </trkpt>
      <trkpt lat="43.24409" lon="-0.75558">
        <ele>174</ele>
        <time>2018-09-30T09:39:02.000Z</time>
      </trkpt>
      <trkpt lat="43.24405" lon="-0.75561">
        <ele>174</ele>
        <time>2018-09-30T09:39:03.000Z</time>
      </trkpt>
      <trkpt lat="43.24402" lon="-0.75564">
        <ele>174</ele>
        <time>2018-09-30T09:39:04.000Z</time>
      </trkpt>
      <trkpt lat="43.24399" lon="-0.75567">
        <ele>173.4099968</ele>
        <time>2018-09-30T09:39:05.000Z</time>
      </trkpt>
      <trkpt lat="43.24387" lon="-0.75578">
        <ele>171.56944</ele>
        <time>2018-09-30T09:39:09.000Z</time>
      </trkpt>
      <trkpt lat="43.24381" lon="-0.75583">
        <ele>169.54687</ele>
        <time>2018-09-30T09:39:11.000Z</time>
      </trkpt>
      <trkpt lat="43.24376" lon="-0.75583">
        <ele>168</ele>
        <time>2018-09-30T09:39:13.000Z</time>
      </trkpt>
      <trkpt lat="43.24366" lon="-0.75574">
        <ele>164.4099968</ele>
        <time>2018-09-30T09:39:18.000Z</time>
      </trkpt>
      <trkpt lat="43.24357" lon="-0.7556">
        <ele>161.4099968</ele>
        <time>2018-09-30T09:39:22.000Z</time>
      </trkpt>
      <trkpt lat="43.24347" lon="-0.75552">
        <ele>160</ele>
        <time>2018-09-30T09:39:25.000Z</time>
      </trkpt>
      <trkpt lat="43.24337" lon="-0.75558">
        <ele>157</ele>
        <time>2018-09-30T09:39:33.000Z</time>
      </trkpt>
      <trkpt lat="43.24325" lon="-0.75559">
        <ele>158</ele>
        <time>2018-09-30T09:39:38.000Z</time>
      </trkpt>
      <trkpt lat="43.2431" lon="-0.75556">
        <ele>158</ele>
        <time>2018-09-30T09:39:42.000Z</time>
      </trkpt>
      <trkpt lat="43.24297" lon="-0.75553">
        <ele>158</ele>
        <time>2018-09-30T09:39:45.000Z</time>
      </trkpt>
      <trkpt lat="43.24286" lon="-0.75562">
        <ele>159</ele>
        <time>2018-09-30T09:39:49.000Z</time>
      </trkpt>
      <trkpt lat="43.24275" lon="-0.75555">
        <ele>159</ele>
        <time>2018-09-30T09:39:53.000Z</time>
      </trkpt>
      <trkpt lat="43.24264" lon="-0.75537">
        <ele>159</ele>
        <time>2018-09-30T09:39:56.000Z</time>
      </trkpt>
      <trkpt lat="43.24258" lon="-0.75524">
        <ele>159</ele>
        <time>2018-09-30T09:39:58.000Z</time>
      </trkpt>
      <trkpt lat="43.24254" lon="-0.75518">
        <ele>159</ele>
        <time>2018-09-30T09:39:59.000Z</time>
      </trkpt>
      <trkpt lat="43.24243" lon="-0.75508">
        <ele>158</ele>
        <time>2018-09-30T09:40:02.000Z</time>
      </trkpt>
      <trkpt lat="43.24228" lon="-0.75511">
        <ele>158</ele>
        <time>2018-09-30T09:40:05.000Z</time>
      </trkpt>
      <trkpt lat="43.24213" lon="-0.75511">
        <ele>158</ele>
        <time>2018-09-30T09:40:08.000Z</time>
      </trkpt>
      <trkpt lat="43.242" lon="-0.7551">
        <ele>157.4099968</ele>
        <time>2018-09-30T09:40:11.000Z</time>
      </trkpt>
      <trkpt lat="43.24186" lon="-0.75511">
        <ele>156.42156911957</ele>
        <time>2018-09-30T09:40:14.000Z</time>
      </trkpt>
      <trkpt lat="43.24174" lon="-0.75511">
        <ele>154.56944</ele>
        <time>2018-09-30T09:40:17.000Z</time>
      </trkpt>
      <trkpt lat="43.24162" lon="-0.75524">
        <ele>153.5900032</ele>
        <time>2018-09-30T09:40:21.000Z</time>
      </trkpt>
      <trkpt lat="43.24151" lon="-0.75535">
        <ele>154.5900032</ele>
        <time>2018-09-30T09:40:25.000Z</time>
      </trkpt>
      <trkpt lat="43.2414" lon="-0.75541">
        <ele>155</ele>
        <time>2018-09-30T09:40:28.000Z</time>
      </trkpt>
      <trkpt lat="43.24136" lon="-0.75544">
        <ele>155</ele>
        <time>2018-09-30T09:40:29.000Z</time>
      </trkpt>
      <trkpt lat="43.24124" lon="-0.75551">
        <ele>156</ele>
        <time>2018-09-30T09:40:33.000Z</time>
      </trkpt>
      <trkpt lat="43.24111" lon="-0.75547">
        <ele>156</ele>
        <time>2018-09-30T09:40:37.000Z</time>
      </trkpt>
      <trkpt lat="43.24099" lon="-0.7554">
        <ele>156</ele>
        <time>2018-09-30T09:40:40.000Z</time>
      </trkpt>
      <trkpt lat="43.24091" lon="-0.75534">
        <ele>156</ele>
        <time>2018-09-30T09:40:42.000Z</time>
      </trkpt>
      <trkpt lat="43.24087" lon="-0.75531">
        <ele>156</ele>
        <time>2018-09-30T09:40:43.000Z</time>
      </trkpt>
      <trkpt lat="43.24075" lon="-0.75522">
        <ele>155</ele>
        <time>2018-09-30T09:40:46.000Z</time>
      </trkpt>
      <trkpt lat="43.24064" lon="-0.75517">
        <ele>155</ele>
        <time>2018-09-30T09:40:48.000Z</time>
      </trkpt>
      <trkpt lat="43.24048" lon="-0.75516">
        <ele>154</ele>
        <time>2018-09-30T09:40:51.000Z</time>
      </trkpt>
      <trkpt lat="43.24034" lon="-0.75518">
        <ele>154</ele>
        <time>2018-09-30T09:40:54.000Z</time>
      </trkpt>
      <trkpt lat="43.24023" lon="-0.7552">
        <ele>154</ele>
        <time>2018-09-30T09:40:57.000Z</time>
      </trkpt>
      <trkpt lat="43.24021" lon="-0.75515">
        <ele>153</ele>
        <time>2018-09-30T09:41:01.000Z</time>
      </trkpt>
      <trkpt lat="43.24024" lon="-0.75511">
        <ele>153</ele>
        <time>2018-09-30T09:41:04.000Z</time>
      </trkpt>
      <trkpt lat="43.24028" lon="-0.75508">
        <ele>152</ele>
        <time>2018-09-30T09:41:09.000Z</time>
      </trkpt>
      <trkpt lat="43.24031" lon="-0.75504">
        <ele>152</ele>
        <time>2018-09-30T09:41:11.000Z</time>
      </trkpt>
      <trkpt lat="43.24034" lon="-0.755">
        <ele>151.4099968</ele>
        <time>2018-09-30T09:41:13.000Z</time>
      </trkpt>
      <trkpt lat="43.24039" lon="-0.75497">
        <ele>151</ele>
        <time>2018-09-30T09:41:16.000Z</time>
      </trkpt>
      <trkpt lat="43.24042" lon="-0.75494">
        <ele>152</ele>
        <time>2018-09-30T09:41:19.000Z</time>
      </trkpt>
      <trkpt lat="43.24047" lon="-0.7549">
        <ele>152.42254232094</ele>
        <time>2018-09-30T09:41:22.000Z</time>
      </trkpt>
      <trkpt lat="43.2405" lon="-0.75486">
        <ele>153.45736341807</ele>
        <time>2018-09-30T09:41:24.000Z</time>
      </trkpt>
      <trkpt lat="43.24052" lon="-0.7548">
        <ele>154</ele>
        <time>2018-09-30T09:41:26.000Z</time>
      </trkpt>
      <trkpt lat="43.24052" lon="-0.75472">
        <ele>154</ele>
        <time>2018-09-30T09:41:28.000Z</time>
      </trkpt>
      <trkpt lat="43.24049" lon="-0.75467">
        <ele>154</ele>
        <time>2018-09-30T09:41:30.000Z</time>
      </trkpt>
      <trkpt lat="43.24045" lon="-0.75464">
        <ele>155</ele>
        <time>2018-09-30T09:41:32.000Z</time>
      </trkpt>
      <trkpt lat="43.24039" lon="-0.75462">
        <ele>156</ele>
        <time>2018-09-30T09:41:34.000Z</time>
      </trkpt>
      <trkpt lat="43.24035" lon="-0.7546">
        <ele>156</ele>
        <time>2018-09-30T09:41:36.000Z</time>
      </trkpt>
      <trkpt lat="43.24033" lon="-0.75454">
        <ele>156</ele>
        <time>2018-09-30T09:41:39.000Z</time>
      </trkpt>
      <trkpt lat="43.24034" lon="-0.75448">
        <ele>156.5900032</ele>
        <time>2018-09-30T09:41:42.000Z</time>
      </trkpt>
      <trkpt lat="43.24035" lon="-0.75443">
        <ele>157</ele>
        <time>2018-09-30T09:41:45.000Z</time>
      </trkpt>
      <trkpt lat="43.24037" lon="-0.75437">
        <ele>158</ele>
        <time>2018-09-30T09:41:48.000Z</time>
      </trkpt>
      <trkpt lat="43.24036" lon="-0.75431">
        <ele>159</ele>
        <time>2018-09-30T09:41:50.000Z</time>
      </trkpt>
      <trkpt lat="43.24034" lon="-0.75426">
        <ele>159.5900032</ele>
        <time>2018-09-30T09:41:52.000Z</time>
      </trkpt>
      <trkpt lat="43.24032" lon="-0.75422">
        <ele>160</ele>
        <time>2018-09-30T09:41:54.000Z</time>
      </trkpt>
      <trkpt lat="43.2403" lon="-0.75417">
        <ele>160.5900032</ele>
        <time>2018-09-30T09:41:56.000Z</time>
      </trkpt>
      <trkpt lat="43.2403" lon="-0.75411">
        <ele>161</ele>
        <time>2018-09-30T09:41:58.000Z</time>
      </trkpt>
      <trkpt lat="43.24032" lon="-0.75404">
        <ele>162.5900032</ele>
        <time>2018-09-30T09:42:01.000Z</time>
      </trkpt>
      <trkpt lat="43.24034" lon="-0.75399">
        <ele>164</ele>
        <time>2018-09-30T09:42:04.000Z</time>
      </trkpt>
      <trkpt lat="43.24036" lon="-0.75395">
        <ele>165</ele>
        <time>2018-09-30T09:42:08.000Z</time>
      </trkpt>
      <trkpt lat="43.2404" lon="-0.75393">
        <ele>166</ele>
        <time>2018-09-30T09:42:12.000Z</time>
      </trkpt>
      <trkpt lat="43.24044" lon="-0.75393">
        <ele>166.5900032</ele>
        <time>2018-09-30T09:42:15.000Z</time>
      </trkpt>
      <trkpt lat="43.24049" lon="-0.75394">
        <ele>167</ele>
        <time>2018-09-30T09:42:18.000Z</time>
      </trkpt>
      <trkpt lat="43.24052" lon="-0.75394">
        <ele>167</ele>
        <time>2018-09-30T09:42:21.000Z</time>
      </trkpt>
      <trkpt lat="43.24057" lon="-0.75395">
        <ele>168</ele>
        <time>2018-09-30T09:42:24.000Z</time>
      </trkpt>
      <trkpt lat="43.24062" lon="-0.75394">
        <ele>168</ele>
        <time>2018-09-30T09:42:27.000Z</time>
      </trkpt>
      <trkpt lat="43.24066" lon="-0.7539">
        <ele>168</ele>
        <time>2018-09-30T09:42:29.000Z</time>
      </trkpt>
      <trkpt lat="43.2407" lon="-0.75388">
        <ele>168.5900032</ele>
        <time>2018-09-30T09:42:31.000Z</time>
      </trkpt>
      <trkpt lat="43.24075" lon="-0.75387">
        <ele>169</ele>
        <time>2018-09-30T09:42:33.000Z</time>
      </trkpt>
      <trkpt lat="43.24081" lon="-0.75386">
        <ele>170.57843088043</ele>
        <time>2018-09-30T09:42:35.000Z</time>
      </trkpt>
      <trkpt lat="43.24086" lon="-0.75385">
        <ele>172</ele>
        <time>2018-09-30T09:42:37.000Z</time>
      </trkpt>
      <trkpt lat="43.24091" lon="-0.75383">
        <ele>172</ele>
        <time>2018-09-30T09:42:39.000Z</time>
      </trkpt>
      <trkpt lat="43.24096" lon="-0.75382">
        <ele>172</ele>
        <time>2018-09-30T09:42:42.000Z</time>
      </trkpt>
      <trkpt lat="43.24099" lon="-0.7538">
        <ele>173</ele>
        <time>2018-09-30T09:42:46.000Z</time>
      </trkpt>
      <trkpt lat="43.24102" lon="-0.75376">
        <ele>174</ele>
        <time>2018-09-30T09:42:49.000Z</time>
      </trkpt>
      <trkpt lat="43.24105" lon="-0.75371">
        <ele>175</ele>
        <time>2018-09-30T09:42:51.000Z</time>
      </trkpt>
      <trkpt lat="43.24107" lon="-0.75367">
        <ele>176</ele>
        <time>2018-09-30T09:42:53.000Z</time>
      </trkpt>
      <trkpt lat="43.24109" lon="-0.75362">
        <ele>177</ele>
        <time>2018-09-30T09:42:55.000Z</time>
      </trkpt>
      <trkpt lat="43.24111" lon="-0.75357">
        <ele>178</ele>
        <time>2018-09-30T09:42:58.000Z</time>
      </trkpt>
      <trkpt lat="43.24114" lon="-0.75351">
        <ele>178</ele>
        <time>2018-09-30T09:43:01.000Z</time>
      </trkpt>
      <trkpt lat="43.24117" lon="-0.75348">
        <ele>178</ele>
        <time>2018-09-30T09:43:03.000Z</time>
      </trkpt>
      <trkpt lat="43.24118" lon="-0.75343">
        <ele>179</ele>
        <time>2018-09-30T09:43:06.000Z</time>
      </trkpt>
      <trkpt lat="43.24114" lon="-0.75341">
        <ele>180</ele>
        <time>2018-09-30T09:43:10.000Z</time>
      </trkpt>
      <trkpt lat="43.24109" lon="-0.75342">
        <ele>181</ele>
        <time>2018-09-30T09:43:13.000Z</time>
      </trkpt>
      <trkpt lat="43.24106" lon="-0.75342">
        <ele>182</ele>
        <time>2018-09-30T09:43:16.000Z</time>
      </trkpt>
      <trkpt lat="43.24102" lon="-0.75343">
        <ele>182</ele>
        <time>2018-09-30T09:43:19.000Z</time>
      </trkpt>
      <trkpt lat="43.24098" lon="-0.75342">
        <ele>183</ele>
        <time>2018-09-30T09:43:22.000Z</time>
      </trkpt>
      <trkpt lat="43.24094" lon="-0.75339">
        <ele>183.5900032</ele>
        <time>2018-09-30T09:43:25.000Z</time>
      </trkpt>
      <trkpt lat="43.24092" lon="-0.75335">
        <ele>185</ele>
        <time>2018-09-30T09:43:29.000Z</time>
      </trkpt>
      <trkpt lat="43.2409" lon="-0.7533">
        <ele>186</ele>
        <time>2018-09-30T09:43:31.000Z</time>
      </trkpt>
      <trkpt lat="43.24086" lon="-0.75328">
        <ele>186</ele>
        <time>2018-09-30T09:43:33.000Z</time>
      </trkpt>
      <trkpt lat="43.24082" lon="-0.75325">
        <ele>186.5900032</ele>
        <time>2018-09-30T09:43:35.000Z</time>
      </trkpt>
      <trkpt lat="43.24078" lon="-0.75323">
        <ele>187</ele>
        <time>2018-09-30T09:43:38.000Z</time>
      </trkpt>
      <trkpt lat="43.24074" lon="-0.75321">
        <ele>188</ele>
        <time>2018-09-30T09:43:41.000Z</time>
      </trkpt>
      <trkpt lat="43.24071" lon="-0.75316">
        <ele>189</ele>
        <time>2018-09-30T09:43:45.000Z</time>
      </trkpt>
      <trkpt lat="43.24069" lon="-0.75311">
        <ele>190.5900032</ele>
        <time>2018-09-30T09:43:49.000Z</time>
      </trkpt>
      <trkpt lat="43.24067" lon="-0.75305">
        <ele>191</ele>
        <time>2018-09-30T09:43:52.000Z</time>
      </trkpt>
      <trkpt lat="43.24066" lon="-0.75299">
        <ele>192.5900032</ele>
        <time>2018-09-30T09:43:55.000Z</time>
      </trkpt>
      <trkpt lat="43.24067" lon="-0.75294">
        <ele>193.5900032</ele>
        <time>2018-09-30T09:43:58.000Z</time>
      </trkpt>
      <trkpt lat="43.24068" lon="-0.7529">
        <ele>194.5900032</ele>
        <time>2018-09-30T09:44:00.000Z</time>
      </trkpt>
      <trkpt lat="43.2407" lon="-0.75283">
        <ele>196.5900032</ele>
        <time>2018-09-30T09:44:03.000Z</time>
      </trkpt>
      <trkpt lat="43.24071" lon="-0.75279">
        <ele>197</ele>
        <time>2018-09-30T09:44:05.000Z</time>
      </trkpt>
      <trkpt lat="43.24071" lon="-0.75273">
        <ele>199</ele>
        <time>2018-09-30T09:44:08.000Z</time>
      </trkpt>
      <trkpt lat="43.24072" lon="-0.75267">
        <ele>201.5900032</ele>
        <time>2018-09-30T09:44:11.000Z</time>
      </trkpt>
      <trkpt lat="43.24073" lon="-0.75263">
        <ele>203</ele>
        <time>2018-09-30T09:44:13.000Z</time>
      </trkpt>
      <trkpt lat="43.24074" lon="-0.75257">
        <ele>203</ele>
        <time>2018-09-30T09:44:15.000Z</time>
      </trkpt>
      <trkpt lat="43.24076" lon="-0.75251">
        <ele>204.5900032</ele>
        <time>2018-09-30T09:44:17.000Z</time>
      </trkpt>
      <trkpt lat="43.24077" lon="-0.75246">
        <ele>205.43056</ele>
        <time>2018-09-30T09:44:19.000Z</time>
      </trkpt>
      <trkpt lat="43.2408" lon="-0.75241">
        <ele>206</ele>
        <time>2018-09-30T09:44:21.000Z</time>
      </trkpt>
      <trkpt lat="43.24085" lon="-0.75236">
        <ele>206</ele>
        <time>2018-09-30T09:44:24.000Z</time>
      </trkpt>
      <trkpt lat="43.24088" lon="-0.75232">
        <ele>206.5900032</ele>
        <time>2018-09-30T09:44:26.000Z</time>
      </trkpt>
      <trkpt lat="43.2409" lon="-0.75228">
        <ele>207</ele>
        <time>2018-09-30T09:44:28.000Z</time>
      </trkpt>
      <trkpt lat="43.24089" lon="-0.75223">
        <ele>206</ele>
        <time>2018-09-30T09:44:52.000Z</time>
      </trkpt>
      <trkpt lat="43.24091" lon="-0.75219">
        <ele>207</ele>
        <time>2018-09-30T09:45:05.000Z</time>
      </trkpt>
      <trkpt lat="43.24093" lon="-0.75214">
        <ele>207</ele>
        <time>2018-09-30T09:45:09.000Z</time>
      </trkpt>
      <trkpt lat="43.24095" lon="-0.75209">
        <ele>207.45736341807</ele>
        <time>2018-09-30T09:45:12.000Z</time>
      </trkpt>
      <trkpt lat="43.24097" lon="-0.75202">
        <ele>208</ele>
        <time>2018-09-30T09:45:15.000Z</time>
      </trkpt>
      <trkpt lat="43.24098" lon="-0.75195">
        <ele>208</ele>
        <time>2018-09-30T09:45:18.000Z</time>
      </trkpt>
      <trkpt lat="43.241" lon="-0.7519">
        <ele>208</ele>
        <time>2018-09-30T09:45:20.000Z</time>
      </trkpt>
      <trkpt lat="43.24101" lon="-0.75184">
        <ele>208.5900032</ele>
        <time>2018-09-30T09:45:22.000Z</time>
      </trkpt>
      <trkpt lat="43.24104" lon="-0.75179">
        <ele>209</ele>
        <time>2018-09-30T09:45:25.000Z</time>
      </trkpt>
      <trkpt lat="43.24106" lon="-0.75176">
        <ele>210</ele>
        <time>2018-09-30T09:45:27.000Z</time>
      </trkpt>
      <trkpt lat="43.2411" lon="-0.75172">
        <ele>211</ele>
        <time>2018-09-30T09:45:30.000Z</time>
      </trkpt>
      <trkpt lat="43.24115" lon="-0.75169">
        <ele>211.43056</ele>
        <time>2018-09-30T09:45:32.000Z</time>
      </trkpt>
      <trkpt lat="43.24119" lon="-0.75165">
        <ele>212</ele>
        <time>2018-09-30T09:45:34.000Z</time>
      </trkpt>
      <trkpt lat="43.24123" lon="-0.75161">
        <ele>212.5900032</ele>
        <time>2018-09-30T09:45:36.000Z</time>
      </trkpt>
      <trkpt lat="43.24127" lon="-0.75158">
        <ele>213.5900032</ele>
        <time>2018-09-30T09:45:38.000Z</time>
      </trkpt>
      <trkpt lat="43.24132" lon="-0.75154">
        <ele>214.5900032</ele>
        <time>2018-09-30T09:45:40.000Z</time>
      </trkpt>
      <trkpt lat="43.24135" lon="-0.7515">
        <ele>215</ele>
        <time>2018-09-30T09:45:42.000Z</time>
      </trkpt>
      <trkpt lat="43.24139" lon="-0.75146">
        <ele>215</ele>
        <time>2018-09-30T09:45:44.000Z</time>
      </trkpt>
      <trkpt lat="43.24142" lon="-0.75142">
        <ele>216.5900032</ele>
        <time>2018-09-30T09:45:46.000Z</time>
      </trkpt>
      <trkpt lat="43.24146" lon="-0.75136">
        <ele>217.5900032</ele>
        <time>2018-09-30T09:45:48.000Z</time>
      </trkpt>
      <trkpt lat="43.24149" lon="-0.75131">
        <ele>218</ele>
        <time>2018-09-30T09:45:50.000Z</time>
      </trkpt>
      <trkpt lat="43.24152" lon="-0.75126">
        <ele>219.5900032</ele>
        <time>2018-09-30T09:45:52.000Z</time>
      </trkpt>
      <trkpt lat="43.24155" lon="-0.75121">
        <ele>220</ele>
        <time>2018-09-30T09:45:54.000Z</time>
      </trkpt>
      <trkpt lat="43.24158" lon="-0.75117">
        <ele>220.5900032</ele>
        <time>2018-09-30T09:45:56.000Z</time>
      </trkpt>
      <trkpt lat="43.24161" lon="-0.75112">
        <ele>221</ele>
        <time>2018-09-30T09:45:58.000Z</time>
      </trkpt>
      <trkpt lat="43.24164" lon="-0.75108">
        <ele>222</ele>
        <time>2018-09-30T09:46:00.000Z</time>
      </trkpt>
      <trkpt lat="43.24167" lon="-0.75105">
        <ele>223</ele>
        <time>2018-09-30T09:46:02.000Z</time>
      </trkpt>
      <trkpt lat="43.24171" lon="-0.75101">
        <ele>224</ele>
        <time>2018-09-30T09:46:05.000Z</time>
      </trkpt>
      <trkpt lat="43.24174" lon="-0.75098">
        <ele>224.5900032</ele>
        <time>2018-09-30T09:46:07.000Z</time>
      </trkpt>
      <trkpt lat="43.24176" lon="-0.75094">
        <ele>225</ele>
        <time>2018-09-30T09:46:10.000Z</time>
      </trkpt>
      <trkpt lat="43.2418" lon="-0.75092">
        <ele>226.5900032</ele>
        <time>2018-09-30T09:46:13.000Z</time>
      </trkpt>
      <trkpt lat="43.24184" lon="-0.75089">
        <ele>227</ele>
        <time>2018-09-30T09:46:15.000Z</time>
      </trkpt>
      <trkpt lat="43.24188" lon="-0.75086">
        <ele>228</ele>
        <time>2018-09-30T09:46:17.000Z</time>
      </trkpt>
      <trkpt lat="43.24191" lon="-0.75082">
        <ele>228</ele>
        <time>2018-09-30T09:46:19.000Z</time>
      </trkpt>
      <trkpt lat="43.24194" lon="-0.75079">
        <ele>228</ele>
        <time>2018-09-30T09:46:21.000Z</time>
      </trkpt>
      <trkpt lat="43.24198" lon="-0.75073">
        <ele>228.5900032</ele>
        <time>2018-09-30T09:46:23.000Z</time>
      </trkpt>
      <trkpt lat="43.24202" lon="-0.75067">
        <ele>230</ele>
        <time>2018-09-30T09:46:25.000Z</time>
      </trkpt>
      <trkpt lat="43.24205" lon="-0.75062">
        <ele>230</ele>
        <time>2018-09-30T09:46:27.000Z</time>
      </trkpt>
      <trkpt lat="43.24207" lon="-0.75057">
        <ele>230</ele>
        <time>2018-09-30T09:46:29.000Z</time>
      </trkpt>
      <trkpt lat="43.24208" lon="-0.75052">
        <ele>231.5900032</ele>
        <time>2018-09-30T09:46:31.000Z</time>
      </trkpt>
      <trkpt lat="43.24209" lon="-0.75045">
        <ele>232</ele>
        <time>2018-09-30T09:46:33.000Z</time>
      </trkpt>
      <trkpt lat="43.24209" lon="-0.75039">
        <ele>232.5900032</ele>
        <time>2018-09-30T09:46:35.000Z</time>
      </trkpt>
      <trkpt lat="43.2421" lon="-0.75034">
        <ele>234</ele>
        <time>2018-09-30T09:46:37.000Z</time>
      </trkpt>
      <trkpt lat="43.2421" lon="-0.75029">
        <ele>234</ele>
        <time>2018-09-30T09:46:39.000Z</time>
      </trkpt>
      <trkpt lat="43.24209" lon="-0.75022">
        <ele>234</ele>
        <time>2018-09-30T09:46:41.000Z</time>
      </trkpt>
      <trkpt lat="43.24209" lon="-0.75016">
        <ele>234</ele>
        <time>2018-09-30T09:46:43.000Z</time>
      </trkpt>
      <trkpt lat="43.24209" lon="-0.7501">
        <ele>234</ele>
        <time>2018-09-30T09:46:45.000Z</time>
      </trkpt>
      <trkpt lat="43.2421" lon="-0.75005">
        <ele>234</ele>
        <time>2018-09-30T09:46:47.000Z</time>
      </trkpt>
      <trkpt lat="43.24211" lon="-0.75">
        <ele>234.5900032</ele>
        <time>2018-09-30T09:46:49.000Z</time>
      </trkpt>
      <trkpt lat="43.24212" lon="-0.74994">
        <ele>235</ele>
        <time>2018-09-30T09:46:51.000Z</time>
      </trkpt>
      <trkpt lat="43.24214" lon="-0.74987">
        <ele>235.43056</ele>
        <time>2018-09-30T09:46:53.000Z</time>
      </trkpt>
      <trkpt lat="43.24216" lon="-0.74982">
        <ele>236</ele>
        <time>2018-09-30T09:46:55.000Z</time>
      </trkpt>
      <trkpt lat="43.2422" lon="-0.74977">
        <ele>236</ele>
        <time>2018-09-30T09:46:57.000Z</time>
      </trkpt>
      <trkpt lat="43.24223" lon="-0.74971">
        <ele>236</ele>
        <time>2018-09-30T09:46:59.000Z</time>
      </trkpt>
      <trkpt lat="43.24225" lon="-0.74966">
        <ele>237</ele>
        <time>2018-09-30T09:47:01.000Z</time>
      </trkpt>
      <trkpt lat="43.24228" lon="-0.74961">
        <ele>237.5900032</ele>
        <time>2018-09-30T09:47:03.000Z</time>
      </trkpt>
      <trkpt lat="43.2423" lon="-0.74956">
        <ele>238</ele>
        <time>2018-09-30T09:47:05.000Z</time>
      </trkpt>
      <trkpt lat="43.24233" lon="-0.7495">
        <ele>239</ele>
        <time>2018-09-30T09:47:07.000Z</time>
      </trkpt>
      <trkpt lat="43.24236" lon="-0.74943">
        <ele>239</ele>
        <time>2018-09-30T09:47:09.000Z</time>
      </trkpt>
      <trkpt lat="43.24239" lon="-0.74938">
        <ele>239.5900032</ele>
        <time>2018-09-30T09:47:11.000Z</time>
      </trkpt>
      <trkpt lat="43.24241" lon="-0.74931">
        <ele>240</ele>
        <time>2018-09-30T09:47:13.000Z</time>
      </trkpt>
      <trkpt lat="43.24243" lon="-0.74925">
        <ele>240</ele>
        <time>2018-09-30T09:47:15.000Z</time>
      </trkpt>
      <trkpt lat="43.24244" lon="-0.74919">
        <ele>240.5900032</ele>
        <time>2018-09-30T09:47:17.000Z</time>
      </trkpt>
      <trkpt lat="43.24245" lon="-0.74911">
        <ele>241</ele>
        <time>2018-09-30T09:47:19.000Z</time>
      </trkpt>
      <trkpt lat="43.24244" lon="-0.74905">
        <ele>241</ele>
        <time>2018-09-30T09:47:21.000Z</time>
      </trkpt>
      <trkpt lat="43.24244" lon="-0.74898">
        <ele>241.5900032</ele>
        <time>2018-09-30T09:47:23.000Z</time>
      </trkpt>
      <trkpt lat="43.24244" lon="-0.74892">
        <ele>242</ele>
        <time>2018-09-30T09:47:25.000Z</time>
      </trkpt>
      <trkpt lat="43.24244" lon="-0.74884">
        <ele>242.5900032</ele>
        <time>2018-09-30T09:47:27.000Z</time>
      </trkpt>
      <trkpt lat="43.24243" lon="-0.74877">
        <ele>243.5900032</ele>
        <time>2018-09-30T09:47:29.000Z</time>
      </trkpt>
      <trkpt lat="43.24241" lon="-0.74869">
        <ele>244</ele>
        <time>2018-09-30T09:47:31.000Z</time>
      </trkpt>
      <trkpt lat="43.24239" lon="-0.74862">
        <ele>244</ele>
        <time>2018-09-30T09:47:33.000Z</time>
      </trkpt>
      <trkpt lat="43.24237" lon="-0.74854">
        <ele>244</ele>
        <time>2018-09-30T09:47:35.000Z</time>
      </trkpt>
      <trkpt lat="43.24236" lon="-0.74847">
        <ele>245</ele>
        <time>2018-09-30T09:47:37.000Z</time>
      </trkpt>
      <trkpt lat="43.24235" lon="-0.74839">
        <ele>245</ele>
        <time>2018-09-30T09:47:39.000Z</time>
      </trkpt>
      <trkpt lat="43.24233" lon="-0.74831">
        <ele>245</ele>
        <time>2018-09-30T09:47:41.000Z</time>
      </trkpt>
      <trkpt lat="43.24229" lon="-0.74823">
        <ele>245</ele>
        <time>2018-09-30T09:47:43.000Z</time>
      </trkpt>
      <trkpt lat="43.24227" lon="-0.74818">
        <ele>245</ele>
        <time>2018-09-30T09:47:44.000Z</time>
      </trkpt>
      <trkpt lat="43.24224" lon="-0.74814">
        <ele>245</ele>
        <time>2018-09-30T09:47:45.000Z</time>
      </trkpt>
      <trkpt lat="43.24221" lon="-0.74808">
        <ele>244.54615361894</ele>
        <time>2018-09-30T09:47:46.000Z</time>
      </trkpt>
      <trkpt lat="43.24217" lon="-0.74801">
        <ele>244</ele>
        <time>2018-09-30T09:47:47.000Z</time>
      </trkpt>
      <trkpt lat="43.24213" lon="-0.74794">
        <ele>243.4099968</ele>
        <time>2018-09-30T09:47:48.000Z</time>
      </trkpt>
      <trkpt lat="43.24209" lon="-0.74786">
        <ele>242.4099968</ele>
        <time>2018-09-30T09:47:49.000Z</time>
      </trkpt>
      <trkpt lat="43.24206" lon="-0.74778">
        <ele>242</ele>
        <time>2018-09-30T09:47:50.000Z</time>
      </trkpt>
      <trkpt lat="43.24201" lon="-0.74772">
        <ele>242</ele>
        <time>2018-09-30T09:47:51.000Z</time>
      </trkpt>
      <trkpt lat="43.24189" lon="-0.74763">
        <ele>241.55639177341</ele>
        <time>2018-09-30T09:47:53.000Z</time>
      </trkpt>
      <trkpt lat="43.24183" lon="-0.74761">
        <ele>241</ele>
        <time>2018-09-30T09:47:54.000Z</time>
      </trkpt>
      <trkpt lat="43.24177" lon="-0.74758">
        <ele>241</ele>
        <time>2018-09-30T09:47:55.000Z</time>
      </trkpt>
      <trkpt lat="43.24172" lon="-0.74756">
        <ele>241</ele>
        <time>2018-09-30T09:47:56.000Z</time>
      </trkpt>
      <trkpt lat="43.24167" lon="-0.74753">
        <ele>241</ele>
        <time>2018-09-30T09:47:57.000Z</time>
      </trkpt>
      <trkpt lat="43.24162" lon="-0.7475">
        <ele>241</ele>
        <time>2018-09-30T09:47:58.000Z</time>
      </trkpt>
      <trkpt lat="43.24158" lon="-0.74748">
        <ele>241</ele>
        <time>2018-09-30T09:47:59.000Z</time>
      </trkpt>
      <trkpt lat="43.24153" lon="-0.74746">
        <ele>241</ele>
        <time>2018-09-30T09:48:00.000Z</time>
      </trkpt>
      <trkpt lat="43.2415" lon="-0.74744">
        <ele>241</ele>
        <time>2018-09-30T09:48:01.000Z</time>
      </trkpt>
      <trkpt lat="43.24146" lon="-0.74742">
        <ele>241</ele>
        <time>2018-09-30T09:48:02.000Z</time>
      </trkpt>
      <trkpt lat="43.24143" lon="-0.74741">
        <ele>241</ele>
        <time>2018-09-30T09:48:03.000Z</time>
      </trkpt>
      <trkpt lat="43.24137" lon="-0.74739">
        <ele>241</ele>
        <time>2018-09-30T09:48:05.000Z</time>
      </trkpt>
      <trkpt lat="43.24129" lon="-0.74737">
        <ele>241</ele>
        <time>2018-09-30T09:48:08.000Z</time>
      </trkpt>
      <trkpt lat="43.24123" lon="-0.74734">
        <ele>242</ele>
        <time>2018-09-30T09:48:10.000Z</time>
      </trkpt>
      <trkpt lat="43.24117" lon="-0.74732">
        <ele>242</ele>
        <time>2018-09-30T09:48:12.000Z</time>
      </trkpt>
      <trkpt lat="43.24112" lon="-0.74728">
        <ele>242.5900032</ele>
        <time>2018-09-30T09:48:14.000Z</time>
      </trkpt>
      <trkpt lat="43.24107" lon="-0.74723">
        <ele>243.5900032</ele>
        <time>2018-09-30T09:48:16.000Z</time>
      </trkpt>
      <trkpt lat="43.24103" lon="-0.74717">
        <ele>244.5900032</ele>
        <time>2018-09-30T09:48:18.000Z</time>
      </trkpt>
      <trkpt lat="43.241" lon="-0.74713">
        <ele>245</ele>
        <time>2018-09-30T09:48:20.000Z</time>
      </trkpt>
      <trkpt lat="43.24097" lon="-0.74708">
        <ele>245.45384638106</ele>
        <time>2018-09-30T09:48:22.000Z</time>
      </trkpt>
      <trkpt lat="43.24094" lon="-0.74701">
        <ele>246</ele>
        <time>2018-09-30T09:48:24.000Z</time>
      </trkpt>
      <trkpt lat="43.2409" lon="-0.74693">
        <ele>246</ele>
        <time>2018-09-30T09:48:26.000Z</time>
      </trkpt>
      <trkpt lat="43.24085" lon="-0.74686">
        <ele>246</ele>
        <time>2018-09-30T09:48:28.000Z</time>
      </trkpt>
      <trkpt lat="43.24079" lon="-0.74681">
        <ele>246</ele>
        <time>2018-09-30T09:48:30.000Z</time>
      </trkpt>
      <trkpt lat="43.24074" lon="-0.74677">
        <ele>246</ele>
        <time>2018-09-30T09:48:32.000Z</time>
      </trkpt>
      <trkpt lat="43.24067" lon="-0.74675">
        <ele>247</ele>
        <time>2018-09-30T09:48:34.000Z</time>
      </trkpt>
      <trkpt lat="43.24061" lon="-0.74674">
        <ele>247</ele>
        <time>2018-09-30T09:48:36.000Z</time>
      </trkpt>
      <trkpt lat="43.24055" lon="-0.74674">
        <ele>248</ele>
        <time>2018-09-30T09:48:38.000Z</time>
      </trkpt>
      <trkpt lat="43.24049" lon="-0.74674">
        <ele>248</ele>
        <time>2018-09-30T09:48:40.000Z</time>
      </trkpt>
      <trkpt lat="43.24043" lon="-0.74674">
        <ele>249</ele>
        <time>2018-09-30T09:48:42.000Z</time>
      </trkpt>
      <trkpt lat="43.24037" lon="-0.74674">
        <ele>249</ele>
        <time>2018-09-30T09:48:44.000Z</time>
      </trkpt>
      <trkpt lat="43.24031" lon="-0.74674">
        <ele>249.5900032</ele>
        <time>2018-09-30T09:48:46.000Z</time>
      </trkpt>
      <trkpt lat="43.24026" lon="-0.74675">
        <ele>250</ele>
        <time>2018-09-30T09:48:48.000Z</time>
      </trkpt>
      <trkpt lat="43.2402" lon="-0.74676">
        <ele>250</ele>
        <time>2018-09-30T09:48:50.000Z</time>
      </trkpt>
      <trkpt lat="43.24015" lon="-0.74676">
        <ele>250</ele>
        <time>2018-09-30T09:48:52.000Z</time>
      </trkpt>
      <trkpt lat="43.24009" lon="-0.74678">
        <ele>250</ele>
        <time>2018-09-30T09:48:54.000Z</time>
      </trkpt>
      <trkpt lat="43.24004" lon="-0.74678">
        <ele>250</ele>
        <time>2018-09-30T09:48:56.000Z</time>
      </trkpt>
      <trkpt lat="43.23999" lon="-0.74674">
        <ele>250.58163318618</ele>
        <time>2018-09-30T09:48:58.000Z</time>
      </trkpt>
      <trkpt lat="43.23995" lon="-0.74668">
        <ele>251</ele>
        <time>2018-09-30T09:49:00.000Z</time>
      </trkpt>
      <trkpt lat="43.23991" lon="-0.74662">
        <ele>251</ele>
        <time>2018-09-30T09:49:02.000Z</time>
      </trkpt>
      <trkpt lat="43.23987" lon="-0.74655">
        <ele>251</ele>
        <time>2018-09-30T09:49:04.000Z</time>
      </trkpt>
      <trkpt lat="43.23984" lon="-0.74649">
        <ele>250</ele>
        <time>2018-09-30T09:49:06.000Z</time>
      </trkpt>
      <trkpt lat="43.2398" lon="-0.74641">
        <ele>250</ele>
        <time>2018-09-30T09:49:08.000Z</time>
      </trkpt>
      <trkpt lat="43.23976" lon="-0.74633">
        <ele>250</ele>
        <time>2018-09-30T09:49:10.000Z</time>
      </trkpt>
      <trkpt lat="43.23971" lon="-0.74626">
        <ele>250</ele>
        <time>2018-09-30T09:49:12.000Z</time>
      </trkpt>
      <trkpt lat="43.23967" lon="-0.74619">
        <ele>250</ele>
        <time>2018-09-30T09:49:14.000Z</time>
      </trkpt>
      <trkpt lat="43.23966" lon="-0.74611">
        <ele>250</ele>
        <time>2018-09-30T09:49:16.000Z</time>
      </trkpt>
      <trkpt lat="43.23966" lon="-0.74603">
        <ele>250</ele>
        <time>2018-09-30T09:49:18.000Z</time>
      </trkpt>
      <trkpt lat="43.23967" lon="-0.74596">
        <ele>251</ele>
        <time>2018-09-30T09:49:20.000Z</time>
      </trkpt>
      <trkpt lat="43.23967" lon="-0.74589">
        <ele>251</ele>
        <time>2018-09-30T09:49:22.000Z</time>
      </trkpt>
      <trkpt lat="43.23968" lon="-0.74582">
        <ele>251</ele>
        <time>2018-09-30T09:49:24.000Z</time>
      </trkpt>
      <trkpt lat="43.23968" lon="-0.74576">
        <ele>251.5900032</ele>
        <time>2018-09-30T09:49:26.000Z</time>
      </trkpt>
      <trkpt lat="43.23969" lon="-0.74569">
        <ele>252</ele>
        <time>2018-09-30T09:49:28.000Z</time>
      </trkpt>
      <trkpt lat="43.2397" lon="-0.74562">
        <ele>252</ele>
        <time>2018-09-30T09:49:30.000Z</time>
      </trkpt>
      <trkpt lat="43.23971" lon="-0.74555">
        <ele>252</ele>
        <time>2018-09-30T09:49:32.000Z</time>
      </trkpt>
      <trkpt lat="43.23972" lon="-0.74548">
        <ele>252</ele>
        <time>2018-09-30T09:49:34.000Z</time>
      </trkpt>
      <trkpt lat="43.23973" lon="-0.74541">
        <ele>252</ele>
        <time>2018-09-30T09:49:36.000Z</time>
      </trkpt>
      <trkpt lat="43.23975" lon="-0.74535">
        <ele>252.45736341807</ele>
        <time>2018-09-30T09:49:38.000Z</time>
      </trkpt>
      <trkpt lat="43.23976" lon="-0.74528">
        <ele>253</ele>
        <time>2018-09-30T09:49:40.000Z</time>
      </trkpt>
      <trkpt lat="43.23978" lon="-0.74521">
        <ele>253</ele>
        <time>2018-09-30T09:49:42.000Z</time>
      </trkpt>
      <trkpt lat="43.23981" lon="-0.74514">
        <ele>253</ele>
        <time>2018-09-30T09:49:44.000Z</time>
      </trkpt>
      <trkpt lat="43.23983" lon="-0.74508">
        <ele>253</ele>
        <time>2018-09-30T09:49:46.000Z</time>
      </trkpt>
      <trkpt lat="43.23985" lon="-0.74501">
        <ele>253</ele>
        <time>2018-09-30T09:49:48.000Z</time>
      </trkpt>
      <trkpt lat="43.23987" lon="-0.74494">
        <ele>253.43056</ele>
        <time>2018-09-30T09:49:50.000Z</time>
      </trkpt>
      <trkpt lat="43.2399" lon="-0.74487">
        <ele>254</ele>
        <time>2018-09-30T09:49:52.000Z</time>
      </trkpt>
      <trkpt lat="43.23992" lon="-0.74479">
        <ele>254</ele>
        <time>2018-09-30T09:49:54.000Z</time>
      </trkpt>
      <trkpt lat="43.23995" lon="-0.7447">
        <ele>254</ele>
        <time>2018-09-30T09:49:56.000Z</time>
      </trkpt>
      <trkpt lat="43.23996" lon="-0.74465">
        <ele>254</ele>
        <time>2018-09-30T09:49:57.000Z</time>
      </trkpt>
      <trkpt lat="43.23998" lon="-0.7446">
        <ele>254</ele>
        <time>2018-09-30T09:49:58.000Z</time>
      </trkpt>
      <trkpt lat="43.24" lon="-0.74455">
        <ele>254</ele>
        <time>2018-09-30T09:49:59.000Z</time>
      </trkpt>
      <trkpt lat="43.24002" lon="-0.7445">
        <ele>254</ele>
        <time>2018-09-30T09:50:00.000Z</time>
      </trkpt>
      <trkpt lat="43.24004" lon="-0.74444">
        <ele>253.4099968</ele>
        <time>2018-09-30T09:50:01.000Z</time>
      </trkpt>
      <trkpt lat="43.24006" lon="-0.74439">
        <ele>253</ele>
        <time>2018-09-30T09:50:02.000Z</time>
      </trkpt>
      <trkpt lat="43.24008" lon="-0.74433">
        <ele>253</ele>
        <time>2018-09-30T09:50:03.000Z</time>
      </trkpt>
      <trkpt lat="43.24011" lon="-0.74428">
        <ele>253</ele>
        <time>2018-09-30T09:50:04.000Z</time>
      </trkpt>
      <trkpt lat="43.24014" lon="-0.74422">
        <ele>253</ele>
        <time>2018-09-30T09:50:05.000Z</time>
      </trkpt>
      <trkpt lat="43.24017" lon="-0.74417">
        <ele>253</ele>
        <time>2018-09-30T09:50:06.000Z</time>
      </trkpt>
      <trkpt lat="43.2402" lon="-0.74412">
        <ele>253</ele>
        <time>2018-09-30T09:50:07.000Z</time>
      </trkpt>
      <trkpt lat="43.24024" lon="-0.74407">
        <ele>253</ele>
        <time>2018-09-30T09:50:08.000Z</time>
      </trkpt>
      <trkpt lat="43.24028" lon="-0.74402">
        <ele>253</ele>
        <time>2018-09-30T09:50:09.000Z</time>
      </trkpt>
      <trkpt lat="43.24032" lon="-0.74397">
        <ele>253</ele>
        <time>2018-09-30T09:50:10.000Z</time>
      </trkpt>
      <trkpt lat="43.24036" lon="-0.74392">
        <ele>253</ele>
        <time>2018-09-30T09:50:11.000Z</time>
      </trkpt>
      <trkpt lat="43.2404" lon="-0.74388">
        <ele>253</ele>
        <time>2018-09-30T09:50:12.000Z</time>
      </trkpt>
      <trkpt lat="43.24045" lon="-0.74384">
        <ele>253</ele>
        <time>2018-09-30T09:50:13.000Z</time>
      </trkpt>
      <trkpt lat="43.24049" lon="-0.74379">
        <ele>253</ele>
        <time>2018-09-30T09:50:14.000Z</time>
      </trkpt>
      <trkpt lat="43.24053" lon="-0.74375">
        <ele>253</ele>
        <time>2018-09-30T09:50:15.000Z</time>
      </trkpt>
      <trkpt lat="43.24058" lon="-0.74371">
        <ele>253</ele>
        <time>2018-09-30T09:50:16.000Z</time>
      </trkpt>
      <trkpt lat="43.24062" lon="-0.74367">
        <ele>253</ele>
        <time>2018-09-30T09:50:17.000Z</time>
      </trkpt>
      <trkpt lat="43.24066" lon="-0.74363">
        <ele>253</ele>
        <time>2018-09-30T09:50:18.000Z</time>
      </trkpt>
      <trkpt lat="43.2407" lon="-0.74359">
        <ele>253</ele>
        <time>2018-09-30T09:50:19.000Z</time>
      </trkpt>
      <trkpt lat="43.24074" lon="-0.74355">
        <ele>253</ele>
        <time>2018-09-30T09:50:20.000Z</time>
      </trkpt>
      <trkpt lat="43.24078" lon="-0.74352">
        <ele>253</ele>
        <time>2018-09-30T09:50:21.000Z</time>
      </trkpt>
      <trkpt lat="43.24082" lon="-0.74348">
        <ele>253</ele>
        <time>2018-09-30T09:50:22.000Z</time>
      </trkpt>
      <trkpt lat="43.24086" lon="-0.74344">
        <ele>253</ele>
        <time>2018-09-30T09:50:23.000Z</time>
      </trkpt>
      <trkpt lat="43.24089" lon="-0.7434">
        <ele>253</ele>
        <time>2018-09-30T09:50:24.000Z</time>
      </trkpt>
      <trkpt lat="43.24093" lon="-0.74336">
        <ele>253</ele>
        <time>2018-09-30T09:50:25.000Z</time>
      </trkpt>
      <trkpt lat="43.24096" lon="-0.74331">
        <ele>253</ele>
        <time>2018-09-30T09:50:26.000Z</time>
      </trkpt>
      <trkpt lat="43.24099" lon="-0.74327">
        <ele>253.5900032</ele>
        <time>2018-09-30T09:50:27.000Z</time>
      </trkpt>
      <trkpt lat="43.24103" lon="-0.74322">
        <ele>254</ele>
        <time>2018-09-30T09:50:28.000Z</time>
      </trkpt>
      <trkpt lat="43.24107" lon="-0.74316">
        <ele>254</ele>
        <time>2018-09-30T09:50:29.000Z</time>
      </trkpt>
      <trkpt lat="43.24111" lon="-0.74311">
        <ele>253.4099968</ele>
        <time>2018-09-30T09:50:30.000Z</time>
      </trkpt>
      <trkpt lat="43.24115" lon="-0.74305">
        <ele>253</ele>
        <time>2018-09-30T09:50:31.000Z</time>
      </trkpt>
      <trkpt lat="43.24119" lon="-0.74298">
        <ele>253</ele>
        <time>2018-09-30T09:50:32.000Z</time>
      </trkpt>
      <trkpt lat="43.24121" lon="-0.7429">
        <ele>253</ele>
        <time>2018-09-30T09:50:33.000Z</time>
      </trkpt>
      <trkpt lat="43.24125" lon="-0.74281">
        <ele>253</ele>
        <time>2018-09-30T09:50:34.000Z</time>
      </trkpt>
      <trkpt lat="43.24128" lon="-0.74272">
        <ele>253</ele>
        <time>2018-09-30T09:50:35.000Z</time>
      </trkpt>
      <trkpt lat="43.24131" lon="-0.74263">
        <ele>252.56944</ele>
        <time>2018-09-30T09:50:36.000Z</time>
      </trkpt>
      <trkpt lat="43.24134" lon="-0.74254">
        <ele>252</ele>
        <time>2018-09-30T09:50:37.000Z</time>
      </trkpt>
      <trkpt lat="43.24137" lon="-0.74245">
        <ele>252</ele>
        <time>2018-09-30T09:50:38.000Z</time>
      </trkpt>
      <trkpt lat="43.24141" lon="-0.74236">
        <ele>252</ele>
        <time>2018-09-30T09:50:39.000Z</time>
      </trkpt>
      <trkpt lat="43.24145" lon="-0.74228">
        <ele>252</ele>
        <time>2018-09-30T09:50:40.000Z</time>
      </trkpt>
      <trkpt lat="43.24148" lon="-0.7422">
        <ele>252</ele>
        <time>2018-09-30T09:50:41.000Z</time>
      </trkpt>
      <trkpt lat="43.24153" lon="-0.74212">
        <ele>251.4099968</ele>
        <time>2018-09-30T09:50:42.000Z</time>
      </trkpt>
      <trkpt lat="43.24158" lon="-0.74205">
        <ele>251</ele>
        <time>2018-09-30T09:50:43.000Z</time>
      </trkpt>
      <trkpt lat="43.24162" lon="-0.74198">
        <ele>251</ele>
        <time>2018-09-30T09:50:44.000Z</time>
      </trkpt>
      <trkpt lat="43.24167" lon="-0.74191">
        <ele>251</ele>
        <time>2018-09-30T09:50:45.000Z</time>
      </trkpt>
      <trkpt lat="43.24172" lon="-0.74185">
        <ele>250.5857150694</ele>
        <time>2018-09-30T09:50:46.000Z</time>
      </trkpt>
      <trkpt lat="43.24178" lon="-0.74179">
        <ele>250</ele>
        <time>2018-09-30T09:50:47.000Z</time>
      </trkpt>
      <trkpt lat="43.24183" lon="-0.74174">
        <ele>250</ele>
        <time>2018-09-30T09:50:48.000Z</time>
      </trkpt>
      <trkpt lat="43.24189" lon="-0.74168">
        <ele>250</ele>
        <time>2018-09-30T09:50:49.000Z</time>
      </trkpt>
      <trkpt lat="43.24194" lon="-0.74163">
        <ele>250</ele>
        <time>2018-09-30T09:50:50.000Z</time>
      </trkpt>
      <trkpt lat="43.24199" lon="-0.74158">
        <ele>250.5900032</ele>
        <time>2018-09-30T09:50:51.000Z</time>
      </trkpt>
      <trkpt lat="43.24204" lon="-0.74154">
        <ele>251</ele>
        <time>2018-09-30T09:50:52.000Z</time>
      </trkpt>
      <trkpt lat="43.24209" lon="-0.74149">
        <ele>251</ele>
        <time>2018-09-30T09:50:53.000Z</time>
      </trkpt>
      <trkpt lat="43.24214" lon="-0.74145">
        <ele>251</ele>
        <time>2018-09-30T09:50:54.000Z</time>
      </trkpt>
      <trkpt lat="43.24219" lon="-0.74141">
        <ele>251</ele>
        <time>2018-09-30T09:50:55.000Z</time>
      </trkpt>
      <trkpt lat="43.24224" lon="-0.74135">
        <ele>251</ele>
        <time>2018-09-30T09:50:56.000Z</time>
      </trkpt>
      <trkpt lat="43.24229" lon="-0.74129">
        <ele>251</ele>
        <time>2018-09-30T09:50:57.000Z</time>
      </trkpt>
      <trkpt lat="43.24232" lon="-0.74121">
        <ele>251</ele>
        <time>2018-09-30T09:50:58.000Z</time>
      </trkpt>
      <trkpt lat="43.24235" lon="-0.74112">
        <ele>250.4099968</ele>
        <time>2018-09-30T09:50:59.000Z</time>
      </trkpt>
      <trkpt lat="43.24236" lon="-0.74102">
        <ele>249.55302787879</ele>
        <time>2018-09-30T09:51:00.000Z</time>
      </trkpt>
      <trkpt lat="43.24238" lon="-0.74092">
        <ele>248.60293647059</ele>
        <time>2018-09-30T09:51:01.000Z</time>
      </trkpt>
      <trkpt lat="43.24239" lon="-0.74082">
        <ele>248</ele>
        <time>2018-09-30T09:51:02.000Z</time>
      </trkpt>
      <trkpt lat="43.2424" lon="-0.74071">
        <ele>247.4099968</ele>
        <time>2018-09-30T09:51:03.000Z</time>
      </trkpt>
      <trkpt lat="43.24242" lon="-0.7406">
        <ele>247</ele>
        <time>2018-09-30T09:51:04.000Z</time>
      </trkpt>
      <trkpt lat="43.24244" lon="-0.74048">
        <ele>247</ele>
        <time>2018-09-30T09:51:05.000Z</time>
      </trkpt>
      <trkpt lat="43.24247" lon="-0.74036">
        <ele>247</ele>
        <time>2018-09-30T09:51:06.000Z</time>
      </trkpt>
      <trkpt lat="43.2425" lon="-0.74024">
        <ele>247</ele>
        <time>2018-09-30T09:51:07.000Z</time>
      </trkpt>
      <trkpt lat="43.24254" lon="-0.74013">
        <ele>246.4099968</ele>
        <time>2018-09-30T09:51:08.000Z</time>
      </trkpt>
      <trkpt lat="43.24259" lon="-0.74001">
        <ele>246</ele>
        <time>2018-09-30T09:51:09.000Z</time>
      </trkpt>
      <trkpt lat="43.24264" lon="-0.73991">
        <ele>245.4099968</ele>
        <time>2018-09-30T09:51:10.000Z</time>
      </trkpt>
      <trkpt lat="43.24269" lon="-0.73982">
        <ele>245</ele>
        <time>2018-09-30T09:51:11.000Z</time>
      </trkpt>
      <trkpt lat="43.24276" lon="-0.73975">
        <ele>245</ele>
        <time>2018-09-30T09:51:12.000Z</time>
      </trkpt>
      <trkpt lat="43.24283" lon="-0.73968">
        <ele>244.7100032</ele>
        <time>2018-09-30T09:51:13.000Z</time>
      </trkpt>
      <trkpt lat="43.24289" lon="-0.73961">
        <ele>244</ele>
        <time>2018-09-30T09:51:14.000Z</time>
      </trkpt>
      <trkpt lat="43.24296" lon="-0.73956">
        <ele>244</ele>
        <time>2018-09-30T09:51:15.000Z</time>
      </trkpt>
      <trkpt lat="43.24302" lon="-0.73951">
        <ele>244</ele>
        <time>2018-09-30T09:51:16.000Z</time>
      </trkpt>
      <trkpt lat="43.24308" lon="-0.73946">
        <ele>244</ele>
        <time>2018-09-30T09:51:17.000Z</time>
      </trkpt>
      <trkpt lat="43.24313" lon="-0.73941">
        <ele>244</ele>
        <time>2018-09-30T09:51:18.000Z</time>
      </trkpt>
      <trkpt lat="43.24317" lon="-0.73936">
        <ele>244</ele>
        <time>2018-09-30T09:51:19.000Z</time>
      </trkpt>
      <trkpt lat="43.24322" lon="-0.73931">
        <ele>244</ele>
        <time>2018-09-30T09:51:20.000Z</time>
      </trkpt>
      <trkpt lat="43.24325" lon="-0.73926">
        <ele>244</ele>
        <time>2018-09-30T09:51:21.000Z</time>
      </trkpt>
      <trkpt lat="43.24329" lon="-0.73921">
        <ele>243.4099968</ele>
        <time>2018-09-30T09:51:22.000Z</time>
      </trkpt>
      <trkpt lat="43.24333" lon="-0.73917">
        <ele>242.4099968</ele>
        <time>2018-09-30T09:51:23.000Z</time>
      </trkpt>
      <trkpt lat="43.24336" lon="-0.73911">
        <ele>242</ele>
        <time>2018-09-30T09:51:24.000Z</time>
      </trkpt>
      <trkpt lat="43.2434" lon="-0.73905">
        <ele>242</ele>
        <time>2018-09-30T09:51:25.000Z</time>
      </trkpt>
      <trkpt lat="43.24343" lon="-0.73899">
        <ele>242</ele>
        <time>2018-09-30T09:51:26.000Z</time>
      </trkpt>
      <trkpt lat="43.24346" lon="-0.73892">
        <ele>242</ele>
        <time>2018-09-30T09:51:27.000Z</time>
      </trkpt>
      <trkpt lat="43.24349" lon="-0.73885">
        <ele>242</ele>
        <time>2018-09-30T09:51:28.000Z</time>
      </trkpt>
      <trkpt lat="43.24351" lon="-0.73877">
        <ele>242</ele>
        <time>2018-09-30T09:51:29.000Z</time>
      </trkpt>
      <trkpt lat="43.24352" lon="-0.73868">
        <ele>242</ele>
        <time>2018-09-30T09:51:30.000Z</time>
      </trkpt>
      <trkpt lat="43.24353" lon="-0.73858">
        <ele>242</ele>
        <time>2018-09-30T09:51:31.000Z</time>
      </trkpt>
      <trkpt lat="43.24353" lon="-0.73848">
        <ele>241.54615361894</ele>
        <time>2018-09-30T09:51:32.000Z</time>
      </trkpt>
      <trkpt lat="43.24353" lon="-0.73838">
        <ele>241</ele>
        <time>2018-09-30T09:51:33.000Z</time>
      </trkpt>
      <trkpt lat="43.24353" lon="-0.73827">
        <ele>240.4099968</ele>
        <time>2018-09-30T09:51:34.000Z</time>
      </trkpt>
      <trkpt lat="43.24353" lon="-0.73816">
        <ele>239.54961697804</ele>
        <time>2018-09-30T09:51:35.000Z</time>
      </trkpt>
      <trkpt lat="43.24354" lon="-0.73805">
        <ele>239</ele>
        <time>2018-09-30T09:51:36.000Z</time>
      </trkpt>
      <trkpt lat="43.24354" lon="-0.73793">
        <ele>238.4099968</ele>
        <time>2018-09-30T09:51:37.000Z</time>
      </trkpt>
      <trkpt lat="43.24354" lon="-0.73782">
        <ele>238</ele>
        <time>2018-09-30T09:51:38.000Z</time>
      </trkpt>
      <trkpt lat="43.24354" lon="-0.7377">
        <ele>238</ele>
        <time>2018-09-30T09:51:39.000Z</time>
      </trkpt>
      <trkpt lat="43.24354" lon="-0.73758">
        <ele>238</ele>
        <time>2018-09-30T09:51:40.000Z</time>
      </trkpt>
      <trkpt lat="43.24355" lon="-0.73746">
        <ele>238</ele>
        <time>2018-09-30T09:51:41.000Z</time>
      </trkpt>
      <trkpt lat="43.24355" lon="-0.73734">
        <ele>238</ele>
        <time>2018-09-30T09:51:42.000Z</time>
      </trkpt>
      <trkpt lat="43.24356" lon="-0.73721">
        <ele>238</ele>
        <time>2018-09-30T09:51:43.000Z</time>
      </trkpt>
      <trkpt lat="43.24357" lon="-0.73708">
        <ele>237.41836681382</ele>
        <time>2018-09-30T09:51:44.000Z</time>
      </trkpt>
      <trkpt lat="43.24357" lon="-0.73696">
        <ele>236.4099968</ele>
        <time>2018-09-30T09:51:45.000Z</time>
      </trkpt>
      <trkpt lat="43.24358" lon="-0.73683">
        <ele>236</ele>
        <time>2018-09-30T09:51:46.000Z</time>
      </trkpt>
      <trkpt lat="43.2436" lon="-0.73671">
        <ele>236</ele>
        <time>2018-09-30T09:51:47.000Z</time>
      </trkpt>
      <trkpt lat="43.24362" lon="-0.73658">
        <ele>236</ele>
        <time>2018-09-30T09:51:48.000Z</time>
      </trkpt>
      <trkpt lat="43.24364" lon="-0.73646">
        <ele>236</ele>
        <time>2018-09-30T09:51:49.000Z</time>
      </trkpt>
      <trkpt lat="43.24366" lon="-0.73634">
        <ele>236</ele>
        <time>2018-09-30T09:51:50.000Z</time>
      </trkpt>
      <trkpt lat="43.24369" lon="-0.73623">
        <ele>236</ele>
        <time>2018-09-30T09:51:51.000Z</time>
      </trkpt>
      <trkpt lat="43.24371" lon="-0.73611">
        <ele>235.70192</ele>
        <time>2018-09-30T09:51:52.000Z</time>
      </trkpt>
      <trkpt lat="43.24374" lon="-0.736">
        <ele>235</ele>
        <time>2018-09-30T09:51:53.000Z</time>
      </trkpt>
      <trkpt lat="43.24376" lon="-0.7359">
        <ele>235</ele>
        <time>2018-09-30T09:51:54.000Z</time>
      </trkpt>
      <trkpt lat="43.24378" lon="-0.73579">
        <ele>235</ele>
        <time>2018-09-30T09:51:55.000Z</time>
      </trkpt>
      <trkpt lat="43.24381" lon="-0.73569">
        <ele>235</ele>
        <time>2018-09-30T09:51:56.000Z</time>
      </trkpt>
      <trkpt lat="43.24383" lon="-0.73559">
        <ele>235</ele>
        <time>2018-09-30T09:51:57.000Z</time>
      </trkpt>
      <trkpt lat="43.24385" lon="-0.73549">
        <ele>235</ele>
        <time>2018-09-30T09:51:58.000Z</time>
      </trkpt>
      <trkpt lat="43.24387" lon="-0.7354">
        <ele>235</ele>
        <time>2018-09-30T09:51:59.000Z</time>
      </trkpt>
      <trkpt lat="43.24388" lon="-0.73531">
        <ele>235</ele>
        <time>2018-09-30T09:52:00.000Z</time>
      </trkpt>
      <trkpt lat="43.2439" lon="-0.73522">
        <ele>235</ele>
        <time>2018-09-30T09:52:01.000Z</time>
      </trkpt>
      <trkpt lat="43.24392" lon="-0.73514">
        <ele>235</ele>
        <time>2018-09-30T09:52:02.000Z</time>
      </trkpt>
      <trkpt lat="43.24393" lon="-0.73506">
        <ele>235</ele>
        <time>2018-09-30T09:52:03.000Z</time>
      </trkpt>
      <trkpt lat="43.24395" lon="-0.73498">
        <ele>234.4099968</ele>
        <time>2018-09-30T09:52:04.000Z</time>
      </trkpt>
      <trkpt lat="43.24396" lon="-0.7349">
        <ele>234</ele>
        <time>2018-09-30T09:52:05.000Z</time>
      </trkpt>
      <trkpt lat="43.24398" lon="-0.73482">
        <ele>234</ele>
        <time>2018-09-30T09:52:06.000Z</time>
      </trkpt>
      <trkpt lat="43.244" lon="-0.73474">
        <ele>234</ele>
        <time>2018-09-30T09:52:07.000Z</time>
      </trkpt>
      <trkpt lat="43.24401" lon="-0.73466">
        <ele>234</ele>
        <time>2018-09-30T09:52:08.000Z</time>
      </trkpt>
      <trkpt lat="43.24403" lon="-0.73457">
        <ele>234</ele>
        <time>2018-09-30T09:52:09.000Z</time>
      </trkpt>
      <trkpt lat="43.24405" lon="-0.73447">
        <ele>234</ele>
        <time>2018-09-30T09:52:10.000Z</time>
      </trkpt>
      <trkpt lat="43.24406" lon="-0.73437">
        <ele>234</ele>
        <time>2018-09-30T09:52:11.000Z</time>
      </trkpt>
      <trkpt lat="43.24408" lon="-0.73427">
        <ele>233.4099968</ele>
        <time>2018-09-30T09:52:12.000Z</time>
      </trkpt>
      <trkpt lat="43.24409" lon="-0.73416">
        <ele>233</ele>
        <time>2018-09-30T09:52:13.000Z</time>
      </trkpt>
      <trkpt lat="43.2441" lon="-0.73404">
        <ele>232.5857150694</ele>
        <time>2018-09-30T09:52:14.000Z</time>
      </trkpt>
      <trkpt lat="43.24411" lon="-0.73393">
        <ele>231.4099968</ele>
        <time>2018-09-30T09:52:15.000Z</time>
      </trkpt>
      <trkpt lat="43.24412" lon="-0.73382">
        <ele>231</ele>
        <time>2018-09-30T09:52:16.000Z</time>
      </trkpt>
      <trkpt lat="43.24414" lon="-0.73371">
        <ele>231</ele>
        <time>2018-09-30T09:52:17.000Z</time>
      </trkpt>
      <trkpt lat="43.24415" lon="-0.7336">
        <ele>231</ele>
        <time>2018-09-30T09:52:18.000Z</time>
      </trkpt>
      <trkpt lat="43.24417" lon="-0.7335">
        <ele>231</ele>
        <time>2018-09-30T09:52:19.000Z</time>
      </trkpt>
      <trkpt lat="43.2442" lon="-0.73341">
        <ele>231</ele>
        <time>2018-09-30T09:52:20.000Z</time>
      </trkpt>
      <trkpt lat="43.24423" lon="-0.73331">
        <ele>231</ele>
        <time>2018-09-30T09:52:21.000Z</time>
      </trkpt>
      <trkpt lat="43.24426" lon="-0.73322">
        <ele>231</ele>
        <time>2018-09-30T09:52:22.000Z</time>
      </trkpt>
      <trkpt lat="43.24429" lon="-0.73313">
        <ele>231.5900032</ele>
        <time>2018-09-30T09:52:23.000Z</time>
      </trkpt>
      <trkpt lat="43.24431" lon="-0.73304">
        <ele>232</ele>
        <time>2018-09-30T09:52:24.000Z</time>
      </trkpt>
      <trkpt lat="43.24434" lon="-0.73295">
        <ele>232</ele>
        <time>2018-09-30T09:52:25.000Z</time>
      </trkpt>
      <trkpt lat="43.24435" lon="-0.73286">
        <ele>232</ele>
        <time>2018-09-30T09:52:26.000Z</time>
      </trkpt>
      <trkpt lat="43.24438" lon="-0.73278">
        <ele>232</ele>
        <time>2018-09-30T09:52:27.000Z</time>
      </trkpt>
      <trkpt lat="43.2444" lon="-0.7327">
        <ele>232</ele>
        <time>2018-09-30T09:52:28.000Z</time>
      </trkpt>
      <trkpt lat="43.24442" lon="-0.73262">
        <ele>232</ele>
        <time>2018-09-30T09:52:29.000Z</time>
      </trkpt>
      <trkpt lat="43.24444" lon="-0.73255">
        <ele>232</ele>
        <time>2018-09-30T09:52:30.000Z</time>
      </trkpt>
      <trkpt lat="43.24447" lon="-0.73248">
        <ele>232</ele>
        <time>2018-09-30T09:52:31.000Z</time>
      </trkpt>
      <trkpt lat="43.24449" lon="-0.73242">
        <ele>232</ele>
        <time>2018-09-30T09:52:32.000Z</time>
      </trkpt>
      <trkpt lat="43.24452" lon="-0.73236">
        <ele>232</ele>
        <time>2018-09-30T09:52:33.000Z</time>
      </trkpt>
      <trkpt lat="43.24454" lon="-0.73231">
        <ele>232</ele>
        <time>2018-09-30T09:52:34.000Z</time>
      </trkpt>
      <trkpt lat="43.24456" lon="-0.73226">
        <ele>232</ele>
        <time>2018-09-30T09:52:35.000Z</time>
      </trkpt>
      <trkpt lat="43.24458" lon="-0.7322">
        <ele>232</ele>
        <time>2018-09-30T09:52:36.000Z</time>
      </trkpt>
      <trkpt lat="43.24461" lon="-0.73215">
        <ele>232.4142849306</ele>
        <time>2018-09-30T09:52:37.000Z</time>
      </trkpt>
      <trkpt lat="43.24463" lon="-0.7321">
        <ele>233.5900032</ele>
        <time>2018-09-30T09:52:38.000Z</time>
      </trkpt>
      <trkpt lat="43.24465" lon="-0.73204">
        <ele>234</ele>
        <time>2018-09-30T09:52:39.000Z</time>
      </trkpt>
      <trkpt lat="43.24467" lon="-0.73198">
        <ele>234</ele>
        <time>2018-09-30T09:52:40.000Z</time>
      </trkpt>
      <trkpt lat="43.24469" lon="-0.73192">
        <ele>234</ele>
        <time>2018-09-30T09:52:41.000Z</time>
      </trkpt>
      <trkpt lat="43.24471" lon="-0.73186">
        <ele>234.5900032</ele>
        <time>2018-09-30T09:52:42.000Z</time>
      </trkpt>
      <trkpt lat="43.24473" lon="-0.7318">
        <ele>235</ele>
        <time>2018-09-30T09:52:43.000Z</time>
      </trkpt>
      <trkpt lat="43.24474" lon="-0.73174">
        <ele>235</ele>
        <time>2018-09-30T09:52:44.000Z</time>
      </trkpt>
      <trkpt lat="43.24476" lon="-0.73168">
        <ele>235.5900032</ele>
        <time>2018-09-30T09:52:45.000Z</time>
      </trkpt>
      <trkpt lat="43.24478" lon="-0.73162">
        <ele>236</ele>
        <time>2018-09-30T09:52:46.000Z</time>
      </trkpt>
      <trkpt lat="43.24479" lon="-0.73156">
        <ele>236</ele>
        <time>2018-09-30T09:52:47.000Z</time>
      </trkpt>
      <trkpt lat="43.24481" lon="-0.7315">
        <ele>236</ele>
        <time>2018-09-30T09:52:48.000Z</time>
      </trkpt>
      <trkpt lat="43.24482" lon="-0.73144">
        <ele>236.40579898342</ele>
        <time>2018-09-30T09:52:49.000Z</time>
      </trkpt>
      <trkpt lat="43.24483" lon="-0.73139">
        <ele>237</ele>
        <time>2018-09-30T09:52:50.000Z</time>
      </trkpt>
      <trkpt lat="43.24485" lon="-0.73133">
        <ele>237</ele>
        <time>2018-09-30T09:52:51.000Z</time>
      </trkpt>
      <trkpt lat="43.24486" lon="-0.73128">
        <ele>237</ele>
        <time>2018-09-30T09:52:52.000Z</time>
      </trkpt>
      <trkpt lat="43.24488" lon="-0.73122">
        <ele>237</ele>
        <time>2018-09-30T09:52:53.000Z</time>
      </trkpt>
      <trkpt lat="43.24489" lon="-0.73116">
        <ele>237</ele>
        <time>2018-09-30T09:52:54.000Z</time>
      </trkpt>
      <trkpt lat="43.24491" lon="-0.7311">
        <ele>237.5900032</ele>
        <time>2018-09-30T09:52:55.000Z</time>
      </trkpt>
      <trkpt lat="43.24492" lon="-0.73104">
        <ele>238</ele>
        <time>2018-09-30T09:52:56.000Z</time>
      </trkpt>
      <trkpt lat="43.24494" lon="-0.73098">
        <ele>238</ele>
        <time>2018-09-30T09:52:57.000Z</time>
      </trkpt>
      <trkpt lat="43.24495" lon="-0.73092">
        <ele>238</ele>
        <time>2018-09-30T09:52:58.000Z</time>
      </trkpt>
      <trkpt lat="43.24497" lon="-0.73086">
        <ele>238</ele>
        <time>2018-09-30T09:52:59.000Z</time>
      </trkpt>
      <trkpt lat="43.24498" lon="-0.7308">
        <ele>238.5900032</ele>
        <time>2018-09-30T09:53:00.000Z</time>
      </trkpt>
      <trkpt lat="43.24499" lon="-0.73074">
        <ele>239</ele>
        <time>2018-09-30T09:53:01.000Z</time>
      </trkpt>
      <trkpt lat="43.245" lon="-0.73068">
        <ele>239</ele>
        <time>2018-09-30T09:53:02.000Z</time>
      </trkpt>
      <trkpt lat="43.24501" lon="-0.73062">
        <ele>239</ele>
        <time>2018-09-30T09:53:03.000Z</time>
      </trkpt>
      <trkpt lat="43.24503" lon="-0.73055">
        <ele>238.4099968</ele>
        <time>2018-09-30T09:53:04.000Z</time>
      </trkpt>
      <trkpt lat="43.24504" lon="-0.73047">
        <ele>238</ele>
        <time>2018-09-30T09:53:05.000Z</time>
      </trkpt>
      <trkpt lat="43.24505" lon="-0.73039">
        <ele>238</ele>
        <time>2018-09-30T09:53:06.000Z</time>
      </trkpt>
      <trkpt lat="43.24506" lon="-0.7303">
        <ele>237.64242438347</ele>
        <time>2018-09-30T09:53:07.000Z</time>
      </trkpt>
      <trkpt lat="43.24507" lon="-0.73021">
        <ele>237.03636730356</ele>
        <time>2018-09-30T09:53:08.000Z</time>
      </trkpt>
      <trkpt lat="43.24508" lon="-0.73013">
        <ele>237</ele>
        <time>2018-09-30T09:53:09.000Z</time>
      </trkpt>
      <trkpt lat="43.24509" lon="-0.73003">
        <ele>237</ele>
        <time>2018-09-30T09:53:10.000Z</time>
      </trkpt>
      <trkpt lat="43.2451" lon="-0.72994">
        <ele>236.4099968</ele>
        <time>2018-09-30T09:53:11.000Z</time>
      </trkpt>
      <trkpt lat="43.24511" lon="-0.72984">
        <ele>236</ele>
        <time>2018-09-30T09:53:12.000Z</time>
      </trkpt>
      <trkpt lat="43.24512" lon="-0.72974">
        <ele>236</ele>
        <time>2018-09-30T09:53:13.000Z</time>
      </trkpt>
      <trkpt lat="43.24514" lon="-0.72964">
        <ele>236</ele>
        <time>2018-09-30T09:53:14.000Z</time>
      </trkpt>
      <trkpt lat="43.24515" lon="-0.72954">
        <ele>236</ele>
        <time>2018-09-30T09:53:15.000Z</time>
      </trkpt>
      <trkpt lat="43.24517" lon="-0.72943">
        <ele>235.4099968</ele>
        <time>2018-09-30T09:53:16.000Z</time>
      </trkpt>
      <trkpt lat="43.2452" lon="-0.72933">
        <ele>234.4099968</ele>
        <time>2018-09-30T09:53:17.000Z</time>
      </trkpt>
      <trkpt lat="43.24523" lon="-0.72922">
        <ele>234</ele>
        <time>2018-09-30T09:53:18.000Z</time>
      </trkpt>
      <trkpt lat="43.24526" lon="-0.72911">
        <ele>233.4099968</ele>
        <time>2018-09-30T09:53:19.000Z</time>
      </trkpt>
      <trkpt lat="43.2453" lon="-0.729">
        <ele>232.55302787879</ele>
        <time>2018-09-30T09:53:20.000Z</time>
      </trkpt>
      <trkpt lat="43.24535" lon="-0.72888">
        <ele>231.60293647059</ele>
        <time>2018-09-30T09:53:21.000Z</time>
      </trkpt>
      <trkpt lat="43.24539" lon="-0.72876">
        <ele>230.4099968</ele>
        <time>2018-09-30T09:53:22.000Z</time>
      </trkpt>
      <trkpt lat="43.24544" lon="-0.72864">
        <ele>230</ele>
        <time>2018-09-30T09:53:23.000Z</time>
      </trkpt>
      <trkpt lat="43.24549" lon="-0.72852">
        <ele>230</ele>
        <time>2018-09-30T09:53:24.000Z</time>
      </trkpt>
      <trkpt lat="43.24554" lon="-0.7284">
        <ele>230</ele>
        <time>2018-09-30T09:53:25.000Z</time>
      </trkpt>
      <trkpt lat="43.24559" lon="-0.72827">
        <ele>230</ele>
        <time>2018-09-30T09:53:26.000Z</time>
      </trkpt>
      <trkpt lat="43.24564" lon="-0.72815">
        <ele>230</ele>
        <time>2018-09-30T09:53:27.000Z</time>
      </trkpt>
      <trkpt lat="43.24569" lon="-0.72802">
        <ele>229.4099968</ele>
        <time>2018-09-30T09:53:28.000Z</time>
      </trkpt>
      <trkpt lat="43.24574" lon="-0.72789">
        <ele>229</ele>
        <time>2018-09-30T09:53:29.000Z</time>
      </trkpt>
      <trkpt lat="43.24579" lon="-0.72777">
        <ele>228.63247489224</ele>
        <time>2018-09-30T09:53:30.000Z</time>
      </trkpt>
      <trkpt lat="43.24584" lon="-0.72764">
        <ele>227.61193259973</ele>
        <time>2018-09-30T09:53:31.000Z</time>
      </trkpt>
      <trkpt lat="43.24588" lon="-0.72752">
        <ele>226.4099968</ele>
        <time>2018-09-30T09:53:32.000Z</time>
      </trkpt>
      <trkpt lat="43.24593" lon="-0.72739">
        <ele>226</ele>
        <time>2018-09-30T09:53:33.000Z</time>
      </trkpt>
      <trkpt lat="43.24598" lon="-0.72727">
        <ele>226</ele>
        <time>2018-09-30T09:53:34.000Z</time>
      </trkpt>
      <trkpt lat="43.24603" lon="-0.72714">
        <ele>225.54961697804</ele>
        <time>2018-09-30T09:53:35.000Z</time>
      </trkpt>
      <trkpt lat="43.24608" lon="-0.72702">
        <ele>225</ele>
        <time>2018-09-30T09:53:36.000Z</time>
      </trkpt>
      <trkpt lat="43.24613" lon="-0.7269">
        <ele>224.4099968</ele>
        <time>2018-09-30T09:53:37.000Z</time>
      </trkpt>
      <trkpt lat="43.24617" lon="-0.72678">
        <ele>224</ele>
        <time>2018-09-30T09:53:38.000Z</time>
      </trkpt>
      <trkpt lat="43.24622" lon="-0.72666">
        <ele>223.4099968</ele>
        <time>2018-09-30T09:53:39.000Z</time>
      </trkpt>
      <trkpt lat="43.24627" lon="-0.72654">
        <ele>222.55302787879</ele>
        <time>2018-09-30T09:53:40.000Z</time>
      </trkpt>
      <trkpt lat="43.24631" lon="-0.72644">
        <ele>222</ele>
        <time>2018-09-30T09:53:41.000Z</time>
      </trkpt>
      <trkpt lat="43.24636" lon="-0.72634">
        <ele>221.4099968</ele>
        <time>2018-09-30T09:53:42.000Z</time>
      </trkpt>
      <trkpt lat="43.2464" lon="-0.72625">
        <ele>220.4099968</ele>
        <time>2018-09-30T09:53:43.000Z</time>
      </trkpt>
      <trkpt lat="43.24644" lon="-0.72616">
        <ele>219.4099968</ele>
        <time>2018-09-30T09:53:44.000Z</time>
      </trkpt>
      <trkpt lat="43.24649" lon="-0.72608">
        <ele>218.54263204374</ele>
        <time>2018-09-30T09:53:45.000Z</time>
      </trkpt>
      <trkpt lat="43.24653" lon="-0.72599">
        <ele>218</ele>
        <time>2018-09-30T09:53:46.000Z</time>
      </trkpt>
      <trkpt lat="43.24658" lon="-0.72591">
        <ele>218</ele>
        <time>2018-09-30T09:53:47.000Z</time>
      </trkpt>
      <trkpt lat="43.24663" lon="-0.72583">
        <ele>217.4099968</ele>
        <time>2018-09-30T09:53:48.000Z</time>
      </trkpt>
      <trkpt lat="43.24669" lon="-0.72576">
        <ele>217</ele>
        <time>2018-09-30T09:53:49.000Z</time>
      </trkpt>
      <trkpt lat="43.24675" lon="-0.72569">
        <ele>217</ele>
        <time>2018-09-30T09:53:50.000Z</time>
      </trkpt>
      <trkpt lat="43.24681" lon="-0.72563">
        <ele>217</ele>
        <time>2018-09-30T09:53:51.000Z</time>
      </trkpt>
      <trkpt lat="43.24688" lon="-0.72558">
        <ele>217</ele>
        <time>2018-09-30T09:53:52.000Z</time>
      </trkpt>
      <trkpt lat="43.24695" lon="-0.72552">
        <ele>217</ele>
        <time>2018-09-30T09:53:53.000Z</time>
      </trkpt>
      <trkpt lat="43.24701" lon="-0.72547">
        <ele>216.4099968</ele>
        <time>2018-09-30T09:53:54.000Z</time>
      </trkpt>
      <trkpt lat="43.24708" lon="-0.72542">
        <ele>215.4099968</ele>
        <time>2018-09-30T09:53:55.000Z</time>
      </trkpt>
      <trkpt lat="43.24714" lon="-0.72536">
        <ele>214.4099968</ele>
        <time>2018-09-30T09:53:56.000Z</time>
      </trkpt>
      <trkpt lat="43.2472" lon="-0.72531">
        <ele>213.4099968</ele>
        <time>2018-09-30T09:53:57.000Z</time>
      </trkpt>
      <trkpt lat="43.24726" lon="-0.72525">
        <ele>213</ele>
        <time>2018-09-30T09:53:58.000Z</time>
      </trkpt>
      <trkpt lat="43.24733" lon="-0.7252">
        <ele>213</ele>
        <time>2018-09-30T09:53:59.000Z</time>
      </trkpt>
      <trkpt lat="43.24739" lon="-0.72515">
        <ele>212.59420101658</ele>
        <time>2018-09-30T09:54:00.000Z</time>
      </trkpt>
      <trkpt lat="43.24745" lon="-0.7251">
        <ele>212</ele>
        <time>2018-09-30T09:54:01.000Z</time>
      </trkpt>
      <trkpt lat="43.24751" lon="-0.72505">
        <ele>212</ele>
        <time>2018-09-30T09:54:02.000Z</time>
      </trkpt>
      <trkpt lat="43.24756" lon="-0.725">
        <ele>212</ele>
        <time>2018-09-30T09:54:03.000Z</time>
      </trkpt>
      <trkpt lat="43.24762" lon="-0.72495">
        <ele>212</ele>
        <time>2018-09-30T09:54:04.000Z</time>
      </trkpt>
      <trkpt lat="43.24768" lon="-0.7249">
        <ele>212</ele>
        <time>2018-09-30T09:54:05.000Z</time>
      </trkpt>
      <trkpt lat="43.24774" lon="-0.72485">
        <ele>212</ele>
        <time>2018-09-30T09:54:06.000Z</time>
      </trkpt>
      <trkpt lat="43.24779" lon="-0.7248">
        <ele>212</ele>
        <time>2018-09-30T09:54:07.000Z</time>
      </trkpt>
      <trkpt lat="43.24785" lon="-0.72476">
        <ele>212</ele>
        <time>2018-09-30T09:54:08.000Z</time>
      </trkpt>
      <trkpt lat="43.2479" lon="-0.72471">
        <ele>212</ele>
        <time>2018-09-30T09:54:09.000Z</time>
      </trkpt>
      <trkpt lat="43.24795" lon="-0.72467">
        <ele>211.4099968</ele>
        <time>2018-09-30T09:54:10.000Z</time>
      </trkpt>
      <trkpt lat="43.248" lon="-0.72462">
        <ele>211</ele>
        <time>2018-09-30T09:54:11.000Z</time>
      </trkpt>
      <trkpt lat="43.24806" lon="-0.72458">
        <ele>211</ele>
        <time>2018-09-30T09:54:12.000Z</time>
      </trkpt>
      <trkpt lat="43.24811" lon="-0.72454">
        <ele>211</ele>
        <time>2018-09-30T09:54:13.000Z</time>
      </trkpt>
      <trkpt lat="43.24816" lon="-0.72449">
        <ele>211</ele>
        <time>2018-09-30T09:54:14.000Z</time>
      </trkpt>
      <trkpt lat="43.24821" lon="-0.72445">
        <ele>211</ele>
        <time>2018-09-30T09:54:15.000Z</time>
      </trkpt>
      <trkpt lat="43.24826" lon="-0.72441">
        <ele>211</ele>
        <time>2018-09-30T09:54:16.000Z</time>
      </trkpt>
      <trkpt lat="43.24831" lon="-0.72437">
        <ele>211</ele>
        <time>2018-09-30T09:54:17.000Z</time>
      </trkpt>
      <trkpt lat="43.24835" lon="-0.72432">
        <ele>211</ele>
        <time>2018-09-30T09:54:18.000Z</time>
      </trkpt>
      <trkpt lat="43.2484" lon="-0.72428">
        <ele>211</ele>
        <time>2018-09-30T09:54:19.000Z</time>
      </trkpt>
      <trkpt lat="43.24845" lon="-0.72423">
        <ele>211</ele>
        <time>2018-09-30T09:54:20.000Z</time>
      </trkpt>
      <trkpt lat="43.2485" lon="-0.72419">
        <ele>210.42156911957</ele>
        <time>2018-09-30T09:54:21.000Z</time>
      </trkpt>
      <trkpt lat="43.24855" lon="-0.72415">
        <ele>210</ele>
        <time>2018-09-30T09:54:22.000Z</time>
      </trkpt>
      <trkpt lat="43.2486" lon="-0.72411">
        <ele>210</ele>
        <time>2018-09-30T09:54:23.000Z</time>
      </trkpt>
      <trkpt lat="43.24865" lon="-0.72407">
        <ele>210</ele>
        <time>2018-09-30T09:54:24.000Z</time>
      </trkpt>
      <trkpt lat="43.2487" lon="-0.72402">
        <ele>210</ele>
        <time>2018-09-30T09:54:25.000Z</time>
      </trkpt>
      <trkpt lat="43.24875" lon="-0.72398">
        <ele>210</ele>
        <time>2018-09-30T09:54:26.000Z</time>
      </trkpt>
      <trkpt lat="43.2488" lon="-0.72394">
        <ele>210</ele>
        <time>2018-09-30T09:54:27.000Z</time>
      </trkpt>
      <trkpt lat="43.24885" lon="-0.72389">
        <ele>210</ele>
        <time>2018-09-30T09:54:28.000Z</time>
      </trkpt>
      <trkpt lat="43.2489" lon="-0.72385">
        <ele>210</ele>
        <time>2018-09-30T09:54:29.000Z</time>
      </trkpt>
      <trkpt lat="43.24895" lon="-0.72381">
        <ele>210</ele>
        <time>2018-09-30T09:54:30.000Z</time>
      </trkpt>
      <trkpt lat="43.249" lon="-0.72376">
        <ele>210</ele>
        <time>2018-09-30T09:54:31.000Z</time>
      </trkpt>
      <trkpt lat="43.24905" lon="-0.72372">
        <ele>209.56944</ele>
        <time>2018-09-30T09:54:32.000Z</time>
      </trkpt>
      <trkpt lat="43.2491" lon="-0.72369">
        <ele>209</ele>
        <time>2018-09-30T09:54:33.000Z</time>
      </trkpt>
      <trkpt lat="43.24915" lon="-0.72364">
        <ele>209</ele>
        <time>2018-09-30T09:54:34.000Z</time>
      </trkpt>
      <trkpt lat="43.2492" lon="-0.7236">
        <ele>209</ele>
        <time>2018-09-30T09:54:35.000Z</time>
      </trkpt>
      <trkpt lat="43.24925" lon="-0.72355">
        <ele>209</ele>
        <time>2018-09-30T09:54:36.000Z</time>
      </trkpt>
      <trkpt lat="43.24929" lon="-0.72351">
        <ele>209</ele>
        <time>2018-09-30T09:54:37.000Z</time>
      </trkpt>
      <trkpt lat="43.24934" lon="-0.72347">
        <ele>209</ele>
        <time>2018-09-30T09:54:38.000Z</time>
      </trkpt>
      <trkpt lat="43.24939" lon="-0.72343">
        <ele>209</ele>
        <time>2018-09-30T09:54:39.000Z</time>
      </trkpt>
      <trkpt lat="43.24944" lon="-0.72339">
        <ele>209</ele>
        <time>2018-09-30T09:54:40.000Z</time>
      </trkpt>
      <trkpt lat="43.24949" lon="-0.72334">
        <ele>209</ele>
        <time>2018-09-30T09:54:41.000Z</time>
      </trkpt>
      <trkpt lat="43.24954" lon="-0.7233">
        <ele>209</ele>
        <time>2018-09-30T09:54:42.000Z</time>
      </trkpt>
      <trkpt lat="43.24958" lon="-0.72325">
        <ele>208.56944</ele>
        <time>2018-09-30T09:54:43.000Z</time>
      </trkpt>
      <trkpt lat="43.24963" lon="-0.7232">
        <ele>208.5900032</ele>
        <time>2018-09-30T09:54:44.000Z</time>
      </trkpt>
      <trkpt lat="43.24968" lon="-0.72315">
        <ele>208.4099968</ele>
        <time>2018-09-30T09:54:45.000Z</time>
      </trkpt>
      <trkpt lat="43.24972" lon="-0.7231">
        <ele>208</ele>
        <time>2018-09-30T09:54:46.000Z</time>
      </trkpt>
      <trkpt lat="43.24977" lon="-0.72306">
        <ele>208</ele>
        <time>2018-09-30T09:54:47.000Z</time>
      </trkpt>
      <trkpt lat="43.24982" lon="-0.723">
        <ele>208</ele>
        <time>2018-09-30T09:54:48.000Z</time>
      </trkpt>
      <trkpt lat="43.24987" lon="-0.72295">
        <ele>207.5857150694</ele>
        <time>2018-09-30T09:54:49.000Z</time>
      </trkpt>
      <trkpt lat="43.24992" lon="-0.72289">
        <ele>206.4099968</ele>
        <time>2018-09-30T09:54:50.000Z</time>
      </trkpt>
      <trkpt lat="43.24998" lon="-0.72284">
        <ele>206</ele>
        <time>2018-09-30T09:54:51.000Z</time>
      </trkpt>
      <trkpt lat="43.25003" lon="-0.72278">
        <ele>206</ele>
        <time>2018-09-30T09:54:52.000Z</time>
      </trkpt>
      <trkpt lat="43.25009" lon="-0.72273">
        <ele>205.4099968</ele>
        <time>2018-09-30T09:54:53.000Z</time>
      </trkpt>
      <trkpt lat="43.25015" lon="-0.72267">
        <ele>205</ele>
        <time>2018-09-30T09:54:54.000Z</time>
      </trkpt>
      <trkpt lat="43.25021" lon="-0.7226">
        <ele>205</ele>
        <time>2018-09-30T09:54:55.000Z</time>
      </trkpt>
      <trkpt lat="43.25027" lon="-0.72254">
        <ele>205</ele>
        <time>2018-09-30T09:54:56.000Z</time>
      </trkpt>
      <trkpt lat="43.25033" lon="-0.72247">
        <ele>205</ele>
        <time>2018-09-30T09:54:57.000Z</time>
      </trkpt>
      <trkpt lat="43.2504" lon="-0.72241">
        <ele>204.4099968</ele>
        <time>2018-09-30T09:54:58.000Z</time>
      </trkpt>
      <trkpt lat="43.25045" lon="-0.72235">
        <ele>203.4099968</ele>
        <time>2018-09-30T09:54:59.000Z</time>
      </trkpt>
      <trkpt lat="43.25051" lon="-0.72229">
        <ele>203</ele>
        <time>2018-09-30T09:55:00.000Z</time>
      </trkpt>
      <trkpt lat="43.25057" lon="-0.72223">
        <ele>203</ele>
        <time>2018-09-30T09:55:01.000Z</time>
      </trkpt>
      <trkpt lat="43.25063" lon="-0.72217">
        <ele>203</ele>
        <time>2018-09-30T09:55:02.000Z</time>
      </trkpt>
      <trkpt lat="43.25069" lon="-0.72211">
        <ele>203</ele>
        <time>2018-09-30T09:55:03.000Z</time>
      </trkpt>
      <trkpt lat="43.25074" lon="-0.72206">
        <ele>201.8199936</ele>
        <time>2018-09-30T09:55:04.000Z</time>
      </trkpt>
      <trkpt lat="43.2508" lon="-0.722">
        <ele>200.4099968</ele>
        <time>2018-09-30T09:55:05.000Z</time>
      </trkpt>
      <trkpt lat="43.25085" lon="-0.72195">
        <ele>200</ele>
        <time>2018-09-30T09:55:06.000Z</time>
      </trkpt>
      <trkpt lat="43.2509" lon="-0.72189">
        <ele>200</ele>
        <time>2018-09-30T09:55:07.000Z</time>
      </trkpt>
      <trkpt lat="43.25096" lon="-0.72184">
        <ele>200</ele>
        <time>2018-09-30T09:55:08.000Z</time>
      </trkpt>
      <trkpt lat="43.25101" lon="-0.72178">
        <ele>200</ele>
        <time>2018-09-30T09:55:09.000Z</time>
      </trkpt>
      <trkpt lat="43.25106" lon="-0.72173">
        <ele>199.55302787879</ele>
        <time>2018-09-30T09:55:10.000Z</time>
      </trkpt>
      <trkpt lat="43.25111" lon="-0.72168">
        <ele>199</ele>
        <time>2018-09-30T09:55:11.000Z</time>
      </trkpt>
      <trkpt lat="43.25116" lon="-0.72163">
        <ele>199</ele>
        <time>2018-09-30T09:55:12.000Z</time>
      </trkpt>
      <trkpt lat="43.25121" lon="-0.72159">
        <ele>198.4099968</ele>
        <time>2018-09-30T09:55:13.000Z</time>
      </trkpt>
      <trkpt lat="43.25126" lon="-0.72154">
        <ele>198</ele>
        <time>2018-09-30T09:55:14.000Z</time>
      </trkpt>
      <trkpt lat="43.2513" lon="-0.72149">
        <ele>198</ele>
        <time>2018-09-30T09:55:15.000Z</time>
      </trkpt>
      <trkpt lat="43.25134" lon="-0.72145">
        <ele>198</ele>
        <time>2018-09-30T09:55:16.000Z</time>
      </trkpt>
      <trkpt lat="43.25138" lon="-0.72141">
        <ele>198</ele>
        <time>2018-09-30T09:55:17.000Z</time>
      </trkpt>
      <trkpt lat="43.25141" lon="-0.72137">
        <ele>198</ele>
        <time>2018-09-30T09:55:18.000Z</time>
      </trkpt>
      <trkpt lat="43.25145" lon="-0.72134">
        <ele>197.4099968</ele>
        <time>2018-09-30T09:55:19.000Z</time>
      </trkpt>
      <trkpt lat="43.2515" lon="-0.72131">
        <ele>197</ele>
        <time>2018-09-30T09:55:21.000Z</time>
      </trkpt>
      <trkpt lat="43.25152" lon="-0.72134">
        <ele>196</ele>
        <time>2018-09-30T09:56:00.000Z</time>
      </trkpt>
      <trkpt lat="43.25154" lon="-0.72138">
        <ele>197</ele>
        <time>2018-09-30T09:58:38.000Z</time>
      </trkpt>
      <trkpt lat="43.25152" lon="-0.72134">
        <ele>196</ele>
        <time>2018-09-30T10:03:47.000Z</time>
      </trkpt>
      <trkpt lat="43.25151" lon="-0.72129">
        <ele>197</ele>
        <time>2018-09-30T10:04:03.000Z</time>
      </trkpt>
      <trkpt lat="43.25153" lon="-0.72124">
        <ele>196</ele>
        <time>2018-09-30T10:04:06.000Z</time>
      </trkpt>
      <trkpt lat="43.25157" lon="-0.72121">
        <ele>196</ele>
        <time>2018-09-30T10:04:08.000Z</time>
      </trkpt>
      <trkpt lat="43.25161" lon="-0.72117">
        <ele>196</ele>
        <time>2018-09-30T10:04:10.000Z</time>
      </trkpt>
      <trkpt lat="43.25166" lon="-0.72112">
        <ele>196</ele>
        <time>2018-09-30T10:04:12.000Z</time>
      </trkpt>
      <trkpt lat="43.25172" lon="-0.72106">
        <ele>196</ele>
        <time>2018-09-30T10:04:14.000Z</time>
      </trkpt>
      <trkpt lat="43.25175" lon="-0.72103">
        <ele>196</ele>
        <time>2018-09-30T10:04:15.000Z</time>
      </trkpt>
      <trkpt lat="43.25178" lon="-0.721">
        <ele>196</ele>
        <time>2018-09-30T10:04:16.000Z</time>
      </trkpt>
      <trkpt lat="43.25182" lon="-0.72097">
        <ele>196</ele>
        <time>2018-09-30T10:04:17.000Z</time>
      </trkpt>
      <trkpt lat="43.25185" lon="-0.72093">
        <ele>196</ele>
        <time>2018-09-30T10:04:18.000Z</time>
      </trkpt>
      <trkpt lat="43.25189" lon="-0.72089">
        <ele>196</ele>
        <time>2018-09-30T10:04:19.000Z</time>
      </trkpt>
      <trkpt lat="43.25193" lon="-0.72085">
        <ele>195.4099968</ele>
        <time>2018-09-30T10:04:20.000Z</time>
      </trkpt>
      <trkpt lat="43.25197" lon="-0.72081">
        <ele>195</ele>
        <time>2018-09-30T10:04:21.000Z</time>
      </trkpt>
      <trkpt lat="43.252" lon="-0.72077">
        <ele>195</ele>
        <time>2018-09-30T10:04:22.000Z</time>
      </trkpt>
      <trkpt lat="43.25204" lon="-0.72072">
        <ele>195</ele>
        <time>2018-09-30T10:04:23.000Z</time>
      </trkpt>
      <trkpt lat="43.25208" lon="-0.72068">
        <ele>195</ele>
        <time>2018-09-30T10:04:24.000Z</time>
      </trkpt>
      <trkpt lat="43.25212" lon="-0.72063">
        <ele>194.55302787879</ele>
        <time>2018-09-30T10:04:25.000Z</time>
      </trkpt>
      <trkpt lat="43.25216" lon="-0.72058">
        <ele>194</ele>
        <time>2018-09-30T10:04:26.000Z</time>
      </trkpt>
      <trkpt lat="43.25219" lon="-0.72053">
        <ele>194</ele>
        <time>2018-09-30T10:04:27.000Z</time>
      </trkpt>
      <trkpt lat="43.25223" lon="-0.72048">
        <ele>194</ele>
        <time>2018-09-30T10:04:28.000Z</time>
      </trkpt>
      <trkpt lat="43.25226" lon="-0.72042">
        <ele>194</ele>
        <time>2018-09-30T10:04:29.000Z</time>
      </trkpt>
      <trkpt lat="43.2523" lon="-0.72037">
        <ele>194</ele>
        <time>2018-09-30T10:04:30.000Z</time>
      </trkpt>
      <trkpt lat="43.25233" lon="-0.72032">
        <ele>194</ele>
        <time>2018-09-30T10:04:31.000Z</time>
      </trkpt>
      <trkpt lat="43.25237" lon="-0.72026">
        <ele>194</ele>
        <time>2018-09-30T10:04:32.000Z</time>
      </trkpt>
      <trkpt lat="43.2524" lon="-0.72021">
        <ele>194</ele>
        <time>2018-09-30T10:04:33.000Z</time>
      </trkpt>
      <trkpt lat="43.25243" lon="-0.72016">
        <ele>194</ele>
        <time>2018-09-30T10:04:34.000Z</time>
      </trkpt>
      <trkpt lat="43.25247" lon="-0.72011">
        <ele>194</ele>
        <time>2018-09-30T10:04:35.000Z</time>
      </trkpt>
      <trkpt lat="43.2525" lon="-0.72005">
        <ele>193.59420101658</ele>
        <time>2018-09-30T10:04:36.000Z</time>
      </trkpt>
      <trkpt lat="43.25253" lon="-0.72">
        <ele>193</ele>
        <time>2018-09-30T10:04:37.000Z</time>
      </trkpt>
      <trkpt lat="43.25257" lon="-0.71995">
        <ele>193</ele>
        <time>2018-09-30T10:04:38.000Z</time>
      </trkpt>
      <trkpt lat="43.2526" lon="-0.7199">
        <ele>193</ele>
        <time>2018-09-30T10:04:39.000Z</time>
      </trkpt>
      <trkpt lat="43.25263" lon="-0.71985">
        <ele>193</ele>
        <time>2018-09-30T10:04:40.000Z</time>
      </trkpt>
      <trkpt lat="43.25265" lon="-0.7198">
        <ele>193</ele>
        <time>2018-09-30T10:04:41.000Z</time>
      </trkpt>
      <trkpt lat="43.25268" lon="-0.71975">
        <ele>193</ele>
        <time>2018-09-30T10:04:42.000Z</time>
      </trkpt>
      <trkpt lat="43.25271" lon="-0.71969">
        <ele>193</ele>
        <time>2018-09-30T10:04:43.000Z</time>
      </trkpt>
      <trkpt lat="43.25272" lon="-0.71963">
        <ele>193.5900032</ele>
        <time>2018-09-30T10:04:44.000Z</time>
      </trkpt>
      <trkpt lat="43.25271" lon="-0.71958">
        <ele>194</ele>
        <time>2018-09-30T10:04:45.000Z</time>
      </trkpt>
      <trkpt lat="43.25269" lon="-0.71953">
        <ele>194</ele>
        <time>2018-09-30T10:04:46.000Z</time>
      </trkpt>
      <trkpt lat="43.25265" lon="-0.71949">
        <ele>194</ele>
        <time>2018-09-30T10:04:47.000Z</time>
      </trkpt>
      <trkpt lat="43.25262" lon="-0.71945">
        <ele>194</ele>
        <time>2018-09-30T10:04:48.000Z</time>
      </trkpt>
      <trkpt lat="43.25258" lon="-0.71941">
        <ele>194</ele>
        <time>2018-09-30T10:04:49.000Z</time>
      </trkpt>
      <trkpt lat="43.25254" lon="-0.71936">
        <ele>194</ele>
        <time>2018-09-30T10:04:50.000Z</time>
      </trkpt>
      <trkpt lat="43.25251" lon="-0.71932">
        <ele>194</ele>
        <time>2018-09-30T10:04:51.000Z</time>
      </trkpt>
      <trkpt lat="43.25247" lon="-0.71928">
        <ele>194</ele>
        <time>2018-09-30T10:04:52.000Z</time>
      </trkpt>
      <trkpt lat="43.25243" lon="-0.71924">
        <ele>194.5900032</ele>
        <time>2018-09-30T10:04:53.000Z</time>
      </trkpt>
      <trkpt lat="43.2524" lon="-0.71919">
        <ele>195</ele>
        <time>2018-09-30T10:04:54.000Z</time>
      </trkpt>
      <trkpt lat="43.25236" lon="-0.71914">
        <ele>195</ele>
        <time>2018-09-30T10:04:55.000Z</time>
      </trkpt>
      <trkpt lat="43.25232" lon="-0.71909">
        <ele>195</ele>
        <time>2018-09-30T10:04:56.000Z</time>
      </trkpt>
      <trkpt lat="43.25228" lon="-0.71904">
        <ele>195</ele>
        <time>2018-09-30T10:04:57.000Z</time>
      </trkpt>
      <trkpt lat="43.25224" lon="-0.71899">
        <ele>195</ele>
        <time>2018-09-30T10:04:58.000Z</time>
      </trkpt>
      <trkpt lat="43.2522" lon="-0.71894">
        <ele>195</ele>
        <time>2018-09-30T10:04:59.000Z</time>
      </trkpt>
      <trkpt lat="43.25216" lon="-0.71889">
        <ele>195</ele>
        <time>2018-09-30T10:05:00.000Z</time>
      </trkpt>
      <trkpt lat="43.25213" lon="-0.71884">
        <ele>195</ele>
        <time>2018-09-30T10:05:01.000Z</time>
      </trkpt>
      <trkpt lat="43.25209" lon="-0.71879">
        <ele>195</ele>
        <time>2018-09-30T10:05:02.000Z</time>
      </trkpt>
      <trkpt lat="43.25205" lon="-0.71874">
        <ele>195</ele>
        <time>2018-09-30T10:05:03.000Z</time>
      </trkpt>
      <trkpt lat="43.25201" lon="-0.71869">
        <ele>195</ele>
        <time>2018-09-30T10:05:04.000Z</time>
      </trkpt>
      <trkpt lat="43.25197" lon="-0.71864">
        <ele>195</ele>
        <time>2018-09-30T10:05:05.000Z</time>
      </trkpt>
      <trkpt lat="43.25193" lon="-0.71859">
        <ele>195</ele>
        <time>2018-09-30T10:05:06.000Z</time>
      </trkpt>
      <trkpt lat="43.25189" lon="-0.71854">
        <ele>195</ele>
        <time>2018-09-30T10:05:07.000Z</time>
      </trkpt>
      <trkpt lat="43.25185" lon="-0.71849">
        <ele>195</ele>
        <time>2018-09-30T10:05:08.000Z</time>
      </trkpt>
      <trkpt lat="43.25181" lon="-0.71844">
        <ele>195</ele>
        <time>2018-09-30T10:05:09.000Z</time>
      </trkpt>
      <trkpt lat="43.25177" lon="-0.71838">
        <ele>195</ele>
        <time>2018-09-30T10:05:10.000Z</time>
      </trkpt>
      <trkpt lat="43.25174" lon="-0.71832">
        <ele>195</ele>
        <time>2018-09-30T10:05:11.000Z</time>
      </trkpt>
      <trkpt lat="43.25171" lon="-0.71827">
        <ele>195</ele>
        <time>2018-09-30T10:05:12.000Z</time>
      </trkpt>
      <trkpt lat="43.25168" lon="-0.71821">
        <ele>195</ele>
        <time>2018-09-30T10:05:13.000Z</time>
      </trkpt>
      <trkpt lat="43.25166" lon="-0.71814">
        <ele>195</ele>
        <time>2018-09-30T10:05:14.000Z</time>
      </trkpt>
      <trkpt lat="43.25163" lon="-0.71808">
        <ele>195</ele>
        <time>2018-09-30T10:05:15.000Z</time>
      </trkpt>
      <trkpt lat="43.2516" lon="-0.71802">
        <ele>195</ele>
        <time>2018-09-30T10:05:16.000Z</time>
      </trkpt>
      <trkpt lat="43.25156" lon="-0.71796">
        <ele>195</ele>
        <time>2018-09-30T10:05:17.000Z</time>
      </trkpt>
      <trkpt lat="43.25153" lon="-0.7179">
        <ele>195.5900032</ele>
        <time>2018-09-30T10:05:18.000Z</time>
      </trkpt>
      <trkpt lat="43.25149" lon="-0.71785">
        <ele>196</ele>
        <time>2018-09-30T10:05:19.000Z</time>
      </trkpt>
      <trkpt lat="43.25145" lon="-0.71779">
        <ele>196</ele>
        <time>2018-09-30T10:05:20.000Z</time>
      </trkpt>
      <trkpt lat="43.25141" lon="-0.71774">
        <ele>196</ele>
        <time>2018-09-30T10:05:21.000Z</time>
      </trkpt>
      <trkpt lat="43.25137" lon="-0.7177">
        <ele>196</ele>
        <time>2018-09-30T10:05:22.000Z</time>
      </trkpt>
      <trkpt lat="43.25134" lon="-0.71765">
        <ele>196</ele>
        <time>2018-09-30T10:05:23.000Z</time>
      </trkpt>
      <trkpt lat="43.2513" lon="-0.7176">
        <ele>196</ele>
        <time>2018-09-30T10:05:24.000Z</time>
      </trkpt>
      <trkpt lat="43.25126" lon="-0.71755">
        <ele>196.4142849306</ele>
        <time>2018-09-30T10:05:25.000Z</time>
      </trkpt>
      <trkpt lat="43.25122" lon="-0.7175">
        <ele>197</ele>
        <time>2018-09-30T10:05:26.000Z</time>
      </trkpt>
      <trkpt lat="43.25119" lon="-0.71746">
        <ele>197</ele>
        <time>2018-09-30T10:05:27.000Z</time>
      </trkpt>
      <trkpt lat="43.25115" lon="-0.71741">
        <ele>197</ele>
        <time>2018-09-30T10:05:28.000Z</time>
      </trkpt>
      <trkpt lat="43.25112" lon="-0.71736">
        <ele>197</ele>
        <time>2018-09-30T10:05:29.000Z</time>
      </trkpt>
      <trkpt lat="43.25109" lon="-0.71731">
        <ele>197</ele>
        <time>2018-09-30T10:05:30.000Z</time>
      </trkpt>
      <trkpt lat="43.25105" lon="-0.71726">
        <ele>197</ele>
        <time>2018-09-30T10:05:31.000Z</time>
      </trkpt>
      <trkpt lat="43.25102" lon="-0.71722">
        <ele>197</ele>
        <time>2018-09-30T10:05:32.000Z</time>
      </trkpt>
      <trkpt lat="43.25098" lon="-0.71717">
        <ele>197</ele>
        <time>2018-09-30T10:05:33.000Z</time>
      </trkpt>
      <trkpt lat="43.25094" lon="-0.71713">
        <ele>197</ele>
        <time>2018-09-30T10:05:34.000Z</time>
      </trkpt>
      <trkpt lat="43.25091" lon="-0.71709">
        <ele>197</ele>
        <time>2018-09-30T10:05:35.000Z</time>
      </trkpt>
      <trkpt lat="43.25087" lon="-0.71704">
        <ele>197</ele>
        <time>2018-09-30T10:05:36.000Z</time>
      </trkpt>
      <trkpt lat="43.25083" lon="-0.717">
        <ele>197</ele>
        <time>2018-09-30T10:05:37.000Z</time>
      </trkpt>
      <trkpt lat="43.2508" lon="-0.71696">
        <ele>197</ele>
        <time>2018-09-30T10:05:38.000Z</time>
      </trkpt>
      <trkpt lat="43.25076" lon="-0.71692">
        <ele>197</ele>
        <time>2018-09-30T10:05:39.000Z</time>
      </trkpt>
      <trkpt lat="43.25073" lon="-0.71688">
        <ele>197</ele>
        <time>2018-09-30T10:05:40.000Z</time>
      </trkpt>
      <trkpt lat="43.25069" lon="-0.71684">
        <ele>197</ele>
        <time>2018-09-30T10:05:41.000Z</time>
      </trkpt>
      <trkpt lat="43.25066" lon="-0.71679">
        <ele>197</ele>
        <time>2018-09-30T10:05:42.000Z</time>
      </trkpt>
      <trkpt lat="43.25062" lon="-0.71675">
        <ele>197</ele>
        <time>2018-09-30T10:05:43.000Z</time>
      </trkpt>
      <trkpt lat="43.25058" lon="-0.71671">
        <ele>197</ele>
        <time>2018-09-30T10:05:44.000Z</time>
      </trkpt>
      <trkpt lat="43.25055" lon="-0.71666">
        <ele>197</ele>
        <time>2018-09-30T10:05:45.000Z</time>
      </trkpt>
      <trkpt lat="43.25051" lon="-0.71662">
        <ele>197</ele>
        <time>2018-09-30T10:05:46.000Z</time>
      </trkpt>
      <trkpt lat="43.25046" lon="-0.71658">
        <ele>197</ele>
        <time>2018-09-30T10:05:47.000Z</time>
      </trkpt>
      <trkpt lat="43.25042" lon="-0.71654">
        <ele>197</ele>
        <time>2018-09-30T10:05:48.000Z</time>
      </trkpt>
      <trkpt lat="43.25038" lon="-0.7165">
        <ele>197</ele>
        <time>2018-09-30T10:05:49.000Z</time>
      </trkpt>
      <trkpt lat="43.25034" lon="-0.71646">
        <ele>197.5900032</ele>
        <time>2018-09-30T10:05:50.000Z</time>
      </trkpt>
      <trkpt lat="43.25031" lon="-0.71641">
        <ele>198</ele>
        <time>2018-09-30T10:05:51.000Z</time>
      </trkpt>
      <trkpt lat="43.25027" lon="-0.71637">
        <ele>198</ele>
        <time>2018-09-30T10:05:52.000Z</time>
      </trkpt>
      <trkpt lat="43.25023" lon="-0.71633">
        <ele>198</ele>
        <time>2018-09-30T10:05:53.000Z</time>
      </trkpt>
      <trkpt lat="43.25019" lon="-0.71628">
        <ele>198</ele>
        <time>2018-09-30T10:05:54.000Z</time>
      </trkpt>
      <trkpt lat="43.25015" lon="-0.71624">
        <ele>198</ele>
        <time>2018-09-30T10:05:55.000Z</time>
      </trkpt>
      <trkpt lat="43.25011" lon="-0.71619">
        <ele>198</ele>
        <time>2018-09-30T10:05:56.000Z</time>
      </trkpt>
      <trkpt lat="43.25007" lon="-0.71615">
        <ele>198</ele>
        <time>2018-09-30T10:05:57.000Z</time>
      </trkpt>
      <trkpt lat="43.25003" lon="-0.71611">
        <ele>198</ele>
        <time>2018-09-30T10:05:58.000Z</time>
      </trkpt>
      <trkpt lat="43.24998" lon="-0.71606">
        <ele>198</ele>
        <time>2018-09-30T10:05:59.000Z</time>
      </trkpt>
      <trkpt lat="43.24994" lon="-0.71602">
        <ele>198</ele>
        <time>2018-09-30T10:06:00.000Z</time>
      </trkpt>
      <trkpt lat="43.2499" lon="-0.71599">
        <ele>198</ele>
        <time>2018-09-30T10:06:01.000Z</time>
      </trkpt>
      <trkpt lat="43.24986" lon="-0.71595">
        <ele>198</ele>
        <time>2018-09-30T10:06:02.000Z</time>
      </trkpt>
      <trkpt lat="43.24981" lon="-0.71591">
        <ele>198</ele>
        <time>2018-09-30T10:06:03.000Z</time>
      </trkpt>
      <trkpt lat="43.24976" lon="-0.71588">
        <ele>198</ele>
        <time>2018-09-30T10:06:04.000Z</time>
      </trkpt>
      <trkpt lat="43.24972" lon="-0.71584">
        <ele>198</ele>
        <time>2018-09-30T10:06:05.000Z</time>
      </trkpt>
      <trkpt lat="43.24967" lon="-0.71581">
        <ele>197.54615361894</ele>
        <time>2018-09-30T10:06:06.000Z</time>
      </trkpt>
      <trkpt lat="43.24962" lon="-0.71578">
        <ele>197</ele>
        <time>2018-09-30T10:06:07.000Z</time>
      </trkpt>
      <trkpt lat="43.24957" lon="-0.71576">
        <ele>197</ele>
        <time>2018-09-30T10:06:08.000Z</time>
      </trkpt>
      <trkpt lat="43.24952" lon="-0.71573">
        <ele>197</ele>
        <time>2018-09-30T10:06:09.000Z</time>
      </trkpt>
      <trkpt lat="43.24947" lon="-0.7157">
        <ele>197</ele>
        <time>2018-09-30T10:06:10.000Z</time>
      </trkpt>
      <trkpt lat="43.24942" lon="-0.71568">
        <ele>197</ele>
        <time>2018-09-30T10:06:11.000Z</time>
      </trkpt>
      <trkpt lat="43.24938" lon="-0.71565">
        <ele>197</ele>
        <time>2018-09-30T10:06:12.000Z</time>
      </trkpt>
      <trkpt lat="43.24933" lon="-0.71562">
        <ele>197</ele>
        <time>2018-09-30T10:06:13.000Z</time>
      </trkpt>
      <trkpt lat="43.24928" lon="-0.71559">
        <ele>197</ele>
        <time>2018-09-30T10:06:14.000Z</time>
      </trkpt>
      <trkpt lat="43.24924" lon="-0.71557">
        <ele>197</ele>
        <time>2018-09-30T10:06:15.000Z</time>
      </trkpt>
      <trkpt lat="43.24919" lon="-0.71555">
        <ele>197</ele>
        <time>2018-09-30T10:06:16.000Z</time>
      </trkpt>
      <trkpt lat="43.24914" lon="-0.71553">
        <ele>197</ele>
        <time>2018-09-30T10:06:17.000Z</time>
      </trkpt>
      <trkpt lat="43.2491" lon="-0.71552">
        <ele>197</ele>
        <time>2018-09-30T10:06:18.000Z</time>
      </trkpt>
      <trkpt lat="43.24905" lon="-0.7155">
        <ele>197</ele>
        <time>2018-09-30T10:06:19.000Z</time>
      </trkpt>
      <trkpt lat="43.249" lon="-0.71547">
        <ele>197</ele>
        <time>2018-09-30T10:06:20.000Z</time>
      </trkpt>
      <trkpt lat="43.24895" lon="-0.71544">
        <ele>197</ele>
        <time>2018-09-30T10:06:21.000Z</time>
      </trkpt>
      <trkpt lat="43.24889" lon="-0.7154">
        <ele>197</ele>
        <time>2018-09-30T10:06:22.000Z</time>
      </trkpt>
      <trkpt lat="43.24884" lon="-0.71537">
        <ele>197</ele>
        <time>2018-09-30T10:06:23.000Z</time>
      </trkpt>
      <trkpt lat="43.2488" lon="-0.71533">
        <ele>197</ele>
        <time>2018-09-30T10:06:24.000Z</time>
      </trkpt>
      <trkpt lat="43.24875" lon="-0.71529">
        <ele>197</ele>
        <time>2018-09-30T10:06:25.000Z</time>
      </trkpt>
      <trkpt lat="43.24871" lon="-0.71525">
        <ele>197</ele>
        <time>2018-09-30T10:06:26.000Z</time>
      </trkpt>
      <trkpt lat="43.24866" lon="-0.71521">
        <ele>197</ele>
        <time>2018-09-30T10:06:27.000Z</time>
      </trkpt>
      <trkpt lat="43.24862" lon="-0.71517">
        <ele>197</ele>
        <time>2018-09-30T10:06:28.000Z</time>
      </trkpt>
      <trkpt lat="43.24857" lon="-0.71512">
        <ele>197</ele>
        <time>2018-09-30T10:06:29.000Z</time>
      </trkpt>
      <trkpt lat="43.24852" lon="-0.71507">
        <ele>197</ele>
        <time>2018-09-30T10:06:30.000Z</time>
      </trkpt>
      <trkpt lat="43.24848" lon="-0.71501">
        <ele>197</ele>
        <time>2018-09-30T10:06:31.000Z</time>
      </trkpt>
      <trkpt lat="43.24844" lon="-0.71493">
        <ele>196.55302787879</ele>
        <time>2018-09-30T10:06:32.000Z</time>
      </trkpt>
      <trkpt lat="43.24839" lon="-0.71486">
        <ele>196</ele>
        <time>2018-09-30T10:06:33.000Z</time>
      </trkpt>
      <trkpt lat="43.24835" lon="-0.71478">
        <ele>196</ele>
        <time>2018-09-30T10:06:34.000Z</time>
      </trkpt>
      <trkpt lat="43.24831" lon="-0.7147">
        <ele>195.4099968</ele>
        <time>2018-09-30T10:06:35.000Z</time>
      </trkpt>
      <trkpt lat="43.24827" lon="-0.71462">
        <ele>194.4099968</ele>
        <time>2018-09-30T10:06:36.000Z</time>
      </trkpt>
      <trkpt lat="43.24824" lon="-0.71454">
        <ele>193.4099968</ele>
        <time>2018-09-30T10:06:37.000Z</time>
      </trkpt>
      <trkpt lat="43.2482" lon="-0.71447">
        <ele>192.4099968</ele>
        <time>2018-09-30T10:06:38.000Z</time>
      </trkpt>
      <trkpt lat="43.24817" lon="-0.71439">
        <ele>191.55302787879</ele>
        <time>2018-09-30T10:06:39.000Z</time>
      </trkpt>
      <trkpt lat="43.24814" lon="-0.71431">
        <ele>191</ele>
        <time>2018-09-30T10:06:40.000Z</time>
      </trkpt>
      <trkpt lat="43.24811" lon="-0.71423">
        <ele>190.4099968</ele>
        <time>2018-09-30T10:06:41.000Z</time>
      </trkpt>
      <trkpt lat="43.24809" lon="-0.71414">
        <ele>190</ele>
        <time>2018-09-30T10:06:42.000Z</time>
      </trkpt>
      <trkpt lat="43.24808" lon="-0.71404">
        <ele>190.5900032</ele>
        <time>2018-09-30T10:06:43.000Z</time>
      </trkpt>
      <trkpt lat="43.24807" lon="-0.71395">
        <ele>190.54615361894</ele>
        <time>2018-09-30T10:06:44.000Z</time>
      </trkpt>
      <trkpt lat="43.24806" lon="-0.71385">
        <ele>189.5857150694</ele>
        <time>2018-09-30T10:06:45.000Z</time>
      </trkpt>
      <trkpt lat="43.24803" lon="-0.71376">
        <ele>189</ele>
        <time>2018-09-30T10:06:46.000Z</time>
      </trkpt>
      <trkpt lat="43.248" lon="-0.71366">
        <ele>188.17143013879</ele>
        <time>2018-09-30T10:06:47.000Z</time>
      </trkpt>
      <trkpt lat="43.24796" lon="-0.71358">
        <ele>186.4099968</ele>
        <time>2018-09-30T10:06:48.000Z</time>
      </trkpt>
      <trkpt lat="43.24791" lon="-0.71349">
        <ele>185.4099968</ele>
        <time>2018-09-30T10:06:49.000Z</time>
      </trkpt>
      <trkpt lat="43.24786" lon="-0.71342">
        <ele>185</ele>
        <time>2018-09-30T10:06:50.000Z</time>
      </trkpt>
      <trkpt lat="43.2478" lon="-0.71336">
        <ele>185</ele>
        <time>2018-09-30T10:06:51.000Z</time>
      </trkpt>
      <trkpt lat="43.24773" lon="-0.71332">
        <ele>184.4099968</ele>
        <time>2018-09-30T10:06:52.000Z</time>
      </trkpt>
      <trkpt lat="43.24765" lon="-0.7133">
        <ele>183.55302787879</ele>
        <time>2018-09-30T10:06:53.000Z</time>
      </trkpt>
      <trkpt lat="43.24757" lon="-0.7133">
        <ele>182.20587294118</ele>
        <time>2018-09-30T10:06:54.000Z</time>
      </trkpt>
      <trkpt lat="43.2475" lon="-0.71328">
        <ele>180.4099968</ele>
        <time>2018-09-30T10:06:55.000Z</time>
      </trkpt>
      <trkpt lat="43.24745" lon="-0.71325">
        <ele>179.4099968</ele>
        <time>2018-09-30T10:06:56.000Z</time>
      </trkpt>
      <trkpt lat="43.24741" lon="-0.71318">
        <ele>179</ele>
        <time>2018-09-30T10:06:57.000Z</time>
      </trkpt>
      <trkpt lat="43.2474" lon="-0.7131">
        <ele>178.4099968</ele>
        <time>2018-09-30T10:06:58.000Z</time>
      </trkpt>
      <trkpt lat="43.2474" lon="-0.71301">
        <ele>178</ele>
        <time>2018-09-30T10:06:59.000Z</time>
      </trkpt>
      <trkpt lat="43.24739" lon="-0.71293">
        <ele>177.54961697804</ele>
        <time>2018-09-30T10:07:00.000Z</time>
      </trkpt>
      <trkpt lat="43.24736" lon="-0.71285">
        <ele>177</ele>
        <time>2018-09-30T10:07:01.000Z</time>
      </trkpt>
      <trkpt lat="43.24731" lon="-0.71278">
        <ele>177</ele>
        <time>2018-09-30T10:07:02.000Z</time>
      </trkpt>
      <trkpt lat="43.24724" lon="-0.71274">
        <ele>177</ele>
        <time>2018-09-30T10:07:03.000Z</time>
      </trkpt>
      <trkpt lat="43.24717" lon="-0.71271">
        <ele>176.56944</ele>
        <time>2018-09-30T10:07:04.000Z</time>
      </trkpt>
      <trkpt lat="43.2471" lon="-0.71269">
        <ele>176</ele>
        <time>2018-09-30T10:07:05.000Z</time>
      </trkpt>
      <trkpt lat="43.24702" lon="-0.71265">
        <ele>176</ele>
        <time>2018-09-30T10:07:06.000Z</time>
      </trkpt>
      <trkpt lat="43.24695" lon="-0.71262">
        <ele>176</ele>
        <time>2018-09-30T10:07:07.000Z</time>
      </trkpt>
      <trkpt lat="43.24687" lon="-0.71258">
        <ele>175.5857150694</ele>
        <time>2018-09-30T10:07:08.000Z</time>
      </trkpt>
      <trkpt lat="43.2468" lon="-0.71253">
        <ele>175</ele>
        <time>2018-09-30T10:07:09.000Z</time>
      </trkpt>
      <trkpt lat="43.24674" lon="-0.71247">
        <ele>175</ele>
        <time>2018-09-30T10:07:10.000Z</time>
      </trkpt>
      <trkpt lat="43.24669" lon="-0.71241">
        <ele>175</ele>
        <time>2018-09-30T10:07:11.000Z</time>
      </trkpt>
      <trkpt lat="43.24664" lon="-0.71234">
        <ele>175</ele>
        <time>2018-09-30T10:07:12.000Z</time>
      </trkpt>
      <trkpt lat="43.2466" lon="-0.71227">
        <ele>175</ele>
        <time>2018-09-30T10:07:13.000Z</time>
      </trkpt>
      <trkpt lat="43.24656" lon="-0.7122">
        <ele>175</ele>
        <time>2018-09-30T10:07:14.000Z</time>
      </trkpt>
      <trkpt lat="43.24651" lon="-0.71213">
        <ele>175</ele>
        <time>2018-09-30T10:07:15.000Z</time>
      </trkpt>
      <trkpt lat="43.24647" lon="-0.71207">
        <ele>175</ele>
        <time>2018-09-30T10:07:16.000Z</time>
      </trkpt>
      <trkpt lat="43.24643" lon="-0.71201">
        <ele>175</ele>
        <time>2018-09-30T10:07:17.000Z</time>
      </trkpt>
      <trkpt lat="43.24639" lon="-0.71195">
        <ele>175.5900032</ele>
        <time>2018-09-30T10:07:18.000Z</time>
      </trkpt>
      <trkpt lat="43.24635" lon="-0.71188">
        <ele>176</ele>
        <time>2018-09-30T10:07:19.000Z</time>
      </trkpt>
      <trkpt lat="43.24632" lon="-0.7118">
        <ele>176</ele>
        <time>2018-09-30T10:07:20.000Z</time>
      </trkpt>
      <trkpt lat="43.2463" lon="-0.71172">
        <ele>176</ele>
        <time>2018-09-30T10:07:21.000Z</time>
      </trkpt>
      <trkpt lat="43.24628" lon="-0.71163">
        <ele>176</ele>
        <time>2018-09-30T10:07:22.000Z</time>
      </trkpt>
      <trkpt lat="43.24626" lon="-0.71155">
        <ele>176</ele>
        <time>2018-09-30T10:07:23.000Z</time>
      </trkpt>
      <trkpt lat="43.24624" lon="-0.71146">
        <ele>176</ele>
        <time>2018-09-30T10:07:24.000Z</time>
      </trkpt>
      <trkpt lat="43.24622" lon="-0.71138">
        <ele>176</ele>
        <time>2018-09-30T10:07:25.000Z</time>
      </trkpt>
      <trkpt lat="43.2462" lon="-0.7113">
        <ele>176</ele>
        <time>2018-09-30T10:07:26.000Z</time>
      </trkpt>
      <trkpt lat="43.24619" lon="-0.71121">
        <ele>176</ele>
        <time>2018-09-30T10:07:27.000Z</time>
      </trkpt>
      <trkpt lat="43.24618" lon="-0.71113">
        <ele>176</ele>
        <time>2018-09-30T10:07:28.000Z</time>
      </trkpt>
      <trkpt lat="43.24618" lon="-0.71105">
        <ele>176</ele>
        <time>2018-09-30T10:07:29.000Z</time>
      </trkpt>
      <trkpt lat="43.24617" lon="-0.71098">
        <ele>176</ele>
        <time>2018-09-30T10:07:30.000Z</time>
      </trkpt>
      <trkpt lat="43.24617" lon="-0.7109">
        <ele>176</ele>
        <time>2018-09-30T10:07:31.000Z</time>
      </trkpt>
      <trkpt lat="43.24616" lon="-0.71082">
        <ele>176</ele>
        <time>2018-09-30T10:07:32.000Z</time>
      </trkpt>
      <trkpt lat="43.24616" lon="-0.71075">
        <ele>176</ele>
        <time>2018-09-30T10:07:33.000Z</time>
      </trkpt>
      <trkpt lat="43.24614" lon="-0.71067">
        <ele>176</ele>
        <time>2018-09-30T10:07:34.000Z</time>
      </trkpt>
      <trkpt lat="43.24613" lon="-0.7106">
        <ele>176</ele>
        <time>2018-09-30T10:07:35.000Z</time>
      </trkpt>
      <trkpt lat="43.24611" lon="-0.71053">
        <ele>176</ele>
        <time>2018-09-30T10:07:36.000Z</time>
      </trkpt>
      <trkpt lat="43.24609" lon="-0.71046">
        <ele>176</ele>
        <time>2018-09-30T10:07:37.000Z</time>
      </trkpt>
      <trkpt lat="43.24607" lon="-0.71039">
        <ele>176</ele>
        <time>2018-09-30T10:07:38.000Z</time>
      </trkpt>
      <trkpt lat="43.24605" lon="-0.71032">
        <ele>176</ele>
        <time>2018-09-30T10:07:39.000Z</time>
      </trkpt>
      <trkpt lat="43.24602" lon="-0.71025">
        <ele>176</ele>
        <time>2018-09-30T10:07:40.000Z</time>
      </trkpt>
      <trkpt lat="43.24599" lon="-0.71018">
        <ele>176</ele>
        <time>2018-09-30T10:07:41.000Z</time>
      </trkpt>
      <trkpt lat="43.24597" lon="-0.71011">
        <ele>176</ele>
        <time>2018-09-30T10:07:42.000Z</time>
      </trkpt>
      <trkpt lat="43.24594" lon="-0.71004">
        <ele>176</ele>
        <time>2018-09-30T10:07:43.000Z</time>
      </trkpt>
      <trkpt lat="43.24591" lon="-0.70997">
        <ele>176</ele>
        <time>2018-09-30T10:07:44.000Z</time>
      </trkpt>
      <trkpt lat="43.24587" lon="-0.70991">
        <ele>176</ele>
        <time>2018-09-30T10:07:45.000Z</time>
      </trkpt>
      <trkpt lat="43.24584" lon="-0.70984">
        <ele>176</ele>
        <time>2018-09-30T10:07:46.000Z</time>
      </trkpt>
      <trkpt lat="43.2458" lon="-0.70978">
        <ele>176</ele>
        <time>2018-09-30T10:07:47.000Z</time>
      </trkpt>
      <trkpt lat="43.24577" lon="-0.70972">
        <ele>176</ele>
        <time>2018-09-30T10:07:48.000Z</time>
      </trkpt>
      <trkpt lat="43.24573" lon="-0.70966">
        <ele>176</ele>
        <time>2018-09-30T10:07:49.000Z</time>
      </trkpt>
      <trkpt lat="43.2457" lon="-0.7096">
        <ele>176</ele>
        <time>2018-09-30T10:07:50.000Z</time>
      </trkpt>
      <trkpt lat="43.24567" lon="-0.70954">
        <ele>176</ele>
        <time>2018-09-30T10:07:51.000Z</time>
      </trkpt>
      <trkpt lat="43.24563" lon="-0.70949">
        <ele>176</ele>
        <time>2018-09-30T10:07:52.000Z</time>
      </trkpt>
      <trkpt lat="43.2456" lon="-0.70943">
        <ele>176</ele>
        <time>2018-09-30T10:07:53.000Z</time>
      </trkpt>
      <trkpt lat="43.24557" lon="-0.70937">
        <ele>176</ele>
        <time>2018-09-30T10:07:54.000Z</time>
      </trkpt>
      <trkpt lat="43.24553" lon="-0.70932">
        <ele>176</ele>
        <time>2018-09-30T10:07:55.000Z</time>
      </trkpt>
      <trkpt lat="43.2455" lon="-0.70926">
        <ele>176</ele>
        <time>2018-09-30T10:07:56.000Z</time>
      </trkpt>
      <trkpt lat="43.24547" lon="-0.7092">
        <ele>176</ele>
        <time>2018-09-30T10:07:57.000Z</time>
      </trkpt>
      <trkpt lat="43.24543" lon="-0.70914">
        <ele>176</ele>
        <time>2018-09-30T10:07:58.000Z</time>
      </trkpt>
      <trkpt lat="43.2454" lon="-0.70908">
        <ele>176</ele>
        <time>2018-09-30T10:07:59.000Z</time>
      </trkpt>
      <trkpt lat="43.24538" lon="-0.70902">
        <ele>176</ele>
        <time>2018-09-30T10:08:00.000Z</time>
      </trkpt>
      <trkpt lat="43.24535" lon="-0.70895">
        <ele>176</ele>
        <time>2018-09-30T10:08:01.000Z</time>
      </trkpt>
      <trkpt lat="43.24532" lon="-0.70888">
        <ele>176</ele>
        <time>2018-09-30T10:08:02.000Z</time>
      </trkpt>
      <trkpt lat="43.2453" lon="-0.70881">
        <ele>176</ele>
        <time>2018-09-30T10:08:03.000Z</time>
      </trkpt>
      <trkpt lat="43.24528" lon="-0.70874">
        <ele>176</ele>
        <time>2018-09-30T10:08:04.000Z</time>
      </trkpt>
      <trkpt lat="43.24526" lon="-0.70867">
        <ele>176</ele>
        <time>2018-09-30T10:08:05.000Z</time>
      </trkpt>
      <trkpt lat="43.24526" lon="-0.70859">
        <ele>176</ele>
        <time>2018-09-30T10:08:06.000Z</time>
      </trkpt>
      <trkpt lat="43.24525" lon="-0.70851">
        <ele>176</ele>
        <time>2018-09-30T10:08:07.000Z</time>
      </trkpt>
      <trkpt lat="43.24526" lon="-0.70843">
        <ele>176.5900032</ele>
        <time>2018-09-30T10:08:08.000Z</time>
      </trkpt>
      <trkpt lat="43.24526" lon="-0.70835">
        <ele>177</ele>
        <time>2018-09-30T10:08:09.000Z</time>
      </trkpt>
      <trkpt lat="43.24527" lon="-0.70827">
        <ele>177</ele>
        <time>2018-09-30T10:08:10.000Z</time>
      </trkpt>
      <trkpt lat="43.24528" lon="-0.70819">
        <ele>177</ele>
        <time>2018-09-30T10:08:11.000Z</time>
      </trkpt>
      <trkpt lat="43.24529" lon="-0.7081">
        <ele>177</ele>
        <time>2018-09-30T10:08:12.000Z</time>
      </trkpt>
      <trkpt lat="43.2453" lon="-0.70802">
        <ele>177</ele>
        <time>2018-09-30T10:08:13.000Z</time>
      </trkpt>
      <trkpt lat="43.24531" lon="-0.70793">
        <ele>177</ele>
        <time>2018-09-30T10:08:14.000Z</time>
      </trkpt>
      <trkpt lat="43.24531" lon="-0.70785">
        <ele>177</ele>
        <time>2018-09-30T10:08:15.000Z</time>
      </trkpt>
      <trkpt lat="43.24532" lon="-0.70777">
        <ele>177</ele>
        <time>2018-09-30T10:08:16.000Z</time>
      </trkpt>
      <trkpt lat="43.24531" lon="-0.70768">
        <ele>177</ele>
        <time>2018-09-30T10:08:17.000Z</time>
      </trkpt>
      <trkpt lat="43.2453" lon="-0.70759">
        <ele>177</ele>
        <time>2018-09-30T10:08:18.000Z</time>
      </trkpt>
      <trkpt lat="43.24528" lon="-0.70751">
        <ele>177</ele>
        <time>2018-09-30T10:08:19.000Z</time>
      </trkpt>
      <trkpt lat="43.24525" lon="-0.70743">
        <ele>177</ele>
        <time>2018-09-30T10:08:20.000Z</time>
      </trkpt>
      <trkpt lat="43.24522" lon="-0.70735">
        <ele>177</ele>
        <time>2018-09-30T10:08:21.000Z</time>
      </trkpt>
      <trkpt lat="43.24519" lon="-0.70728">
        <ele>177</ele>
        <time>2018-09-30T10:08:22.000Z</time>
      </trkpt>
      <trkpt lat="43.24515" lon="-0.70721">
        <ele>177</ele>
        <time>2018-09-30T10:08:23.000Z</time>
      </trkpt>
      <trkpt lat="43.24512" lon="-0.70714">
        <ele>177</ele>
        <time>2018-09-30T10:08:24.000Z</time>
      </trkpt>
      <trkpt lat="43.24509" lon="-0.70706">
        <ele>177</ele>
        <time>2018-09-30T10:08:25.000Z</time>
      </trkpt>
      <trkpt lat="43.24505" lon="-0.70699">
        <ele>177</ele>
        <time>2018-09-30T10:08:26.000Z</time>
      </trkpt>
      <trkpt lat="43.24502" lon="-0.70692">
        <ele>177</ele>
        <time>2018-09-30T10:08:27.000Z</time>
      </trkpt>
      <trkpt lat="43.24499" lon="-0.70685">
        <ele>177</ele>
        <time>2018-09-30T10:08:28.000Z</time>
      </trkpt>
      <trkpt lat="43.24496" lon="-0.70678">
        <ele>177</ele>
        <time>2018-09-30T10:08:29.000Z</time>
      </trkpt>
      <trkpt lat="43.24493" lon="-0.70671">
        <ele>177</ele>
        <time>2018-09-30T10:08:30.000Z</time>
      </trkpt>
      <trkpt lat="43.2449" lon="-0.70664">
        <ele>177</ele>
        <time>2018-09-30T10:08:31.000Z</time>
      </trkpt>
      <trkpt lat="43.24486" lon="-0.70657">
        <ele>177</ele>
        <time>2018-09-30T10:08:32.000Z</time>
      </trkpt>
      <trkpt lat="43.24483" lon="-0.7065">
        <ele>177</ele>
        <time>2018-09-30T10:08:33.000Z</time>
      </trkpt>
      <trkpt lat="43.2448" lon="-0.70643">
        <ele>177</ele>
        <time>2018-09-30T10:08:34.000Z</time>
      </trkpt>
      <trkpt lat="43.24477" lon="-0.70635">
        <ele>177</ele>
        <time>2018-09-30T10:08:35.000Z</time>
      </trkpt>
      <trkpt lat="43.24474" lon="-0.70629">
        <ele>177</ele>
        <time>2018-09-30T10:08:36.000Z</time>
      </trkpt>
      <trkpt lat="43.24471" lon="-0.70622">
        <ele>177</ele>
        <time>2018-09-30T10:08:37.000Z</time>
      </trkpt>
      <trkpt lat="43.24468" lon="-0.70615">
        <ele>177</ele>
        <time>2018-09-30T10:08:38.000Z</time>
      </trkpt>
      <trkpt lat="43.24464" lon="-0.70608">
        <ele>177</ele>
        <time>2018-09-30T10:08:39.000Z</time>
      </trkpt>
      <trkpt lat="43.24461" lon="-0.70601">
        <ele>177</ele>
        <time>2018-09-30T10:08:40.000Z</time>
      </trkpt>
      <trkpt lat="43.24458" lon="-0.70594">
        <ele>177</ele>
        <time>2018-09-30T10:08:41.000Z</time>
      </trkpt>
      <trkpt lat="43.24455" lon="-0.70587">
        <ele>177</ele>
        <time>2018-09-30T10:08:42.000Z</time>
      </trkpt>
      <trkpt lat="43.24452" lon="-0.7058">
        <ele>177</ele>
        <time>2018-09-30T10:08:43.000Z</time>
      </trkpt>
      <trkpt lat="43.24448" lon="-0.70573">
        <ele>177</ele>
        <time>2018-09-30T10:08:44.000Z</time>
      </trkpt>
      <trkpt lat="43.24445" lon="-0.70566">
        <ele>177</ele>
        <time>2018-09-30T10:08:45.000Z</time>
      </trkpt>
      <trkpt lat="43.24442" lon="-0.70558">
        <ele>177</ele>
        <time>2018-09-30T10:08:46.000Z</time>
      </trkpt>
      <trkpt lat="43.24439" lon="-0.70551">
        <ele>177</ele>
        <time>2018-09-30T10:08:47.000Z</time>
      </trkpt>
      <trkpt lat="43.24436" lon="-0.70544">
        <ele>177</ele>
        <time>2018-09-30T10:08:48.000Z</time>
      </trkpt>
      <trkpt lat="43.24432" lon="-0.70537">
        <ele>177</ele>
        <time>2018-09-30T10:08:49.000Z</time>
      </trkpt>
      <trkpt lat="43.24429" lon="-0.7053">
        <ele>177</ele>
        <time>2018-09-30T10:08:50.000Z</time>
      </trkpt>
      <trkpt lat="43.24426" lon="-0.70523">
        <ele>177.5900032</ele>
        <time>2018-09-30T10:08:51.000Z</time>
      </trkpt>
      <trkpt lat="43.24423" lon="-0.70517">
        <ele>178</ele>
        <time>2018-09-30T10:08:52.000Z</time>
      </trkpt>
      <trkpt lat="43.2442" lon="-0.70511">
        <ele>178</ele>
        <time>2018-09-30T10:08:53.000Z</time>
      </trkpt>
      <trkpt lat="43.24418" lon="-0.70504">
        <ele>178</ele>
        <time>2018-09-30T10:08:54.000Z</time>
      </trkpt>
      <trkpt lat="43.24415" lon="-0.70498">
        <ele>178</ele>
        <time>2018-09-30T10:08:55.000Z</time>
      </trkpt>
      <trkpt lat="43.24412" lon="-0.70492">
        <ele>178</ele>
        <time>2018-09-30T10:08:56.000Z</time>
      </trkpt>
      <trkpt lat="43.24409" lon="-0.70485">
        <ele>178</ele>
        <time>2018-09-30T10:08:57.000Z</time>
      </trkpt>
      <trkpt lat="43.24406" lon="-0.70479">
        <ele>178</ele>
        <time>2018-09-30T10:08:58.000Z</time>
      </trkpt>
      <trkpt lat="43.24404" lon="-0.70472">
        <ele>178</ele>
        <time>2018-09-30T10:08:59.000Z</time>
      </trkpt>
      <trkpt lat="43.24401" lon="-0.70466">
        <ele>178</ele>
        <time>2018-09-30T10:09:00.000Z</time>
      </trkpt>
      <trkpt lat="43.24398" lon="-0.70459">
        <ele>178</ele>
        <time>2018-09-30T10:09:01.000Z</time>
      </trkpt>
      <trkpt lat="43.24395" lon="-0.70453">
        <ele>178</ele>
        <time>2018-09-30T10:09:02.000Z</time>
      </trkpt>
      <trkpt lat="43.24392" lon="-0.70447">
        <ele>178</ele>
        <time>2018-09-30T10:09:03.000Z</time>
      </trkpt>
      <trkpt lat="43.24389" lon="-0.7044">
        <ele>177.4099968</ele>
        <time>2018-09-30T10:09:04.000Z</time>
      </trkpt>
      <trkpt lat="43.24386" lon="-0.70434">
        <ele>177</ele>
        <time>2018-09-30T10:09:05.000Z</time>
      </trkpt>
      <trkpt lat="43.24384" lon="-0.70428">
        <ele>177</ele>
        <time>2018-09-30T10:09:06.000Z</time>
      </trkpt>
      <trkpt lat="43.2438" lon="-0.70421">
        <ele>177</ele>
        <time>2018-09-30T10:09:07.000Z</time>
      </trkpt>
      <trkpt lat="43.24376" lon="-0.70415">
        <ele>177.5900032</ele>
        <time>2018-09-30T10:09:08.000Z</time>
      </trkpt>
      <trkpt lat="43.24371" lon="-0.70411">
        <ele>178</ele>
        <time>2018-09-30T10:09:09.000Z</time>
      </trkpt>
      <trkpt lat="43.24365" lon="-0.70408">
        <ele>178</ele>
        <time>2018-09-30T10:09:10.000Z</time>
      </trkpt>
      <trkpt lat="43.24359" lon="-0.70406">
        <ele>178</ele>
        <time>2018-09-30T10:09:11.000Z</time>
      </trkpt>
      <trkpt lat="43.24353" lon="-0.70403">
        <ele>178</ele>
        <time>2018-09-30T10:09:12.000Z</time>
      </trkpt>
      <trkpt lat="43.24348" lon="-0.70401">
        <ele>178</ele>
        <time>2018-09-30T10:09:13.000Z</time>
      </trkpt>
      <trkpt lat="43.24343" lon="-0.70398">
        <ele>178</ele>
        <time>2018-09-30T10:09:14.000Z</time>
      </trkpt>
      <trkpt lat="43.24338" lon="-0.70397">
        <ele>178.5900032</ele>
        <time>2018-09-30T10:09:15.000Z</time>
      </trkpt>
      <trkpt lat="43.24333" lon="-0.70395">
        <ele>179</ele>
        <time>2018-09-30T10:09:16.000Z</time>
      </trkpt>
      <trkpt lat="43.24329" lon="-0.70393">
        <ele>179</ele>
        <time>2018-09-30T10:09:17.000Z</time>
      </trkpt>
      <trkpt lat="43.24324" lon="-0.70391">
        <ele>179</ele>
        <time>2018-09-30T10:09:18.000Z</time>
      </trkpt>
      <trkpt lat="43.24319" lon="-0.70389">
        <ele>179</ele>
        <time>2018-09-30T10:09:19.000Z</time>
      </trkpt>
      <trkpt lat="43.24314" lon="-0.70387">
        <ele>179</ele>
        <time>2018-09-30T10:09:20.000Z</time>
      </trkpt>
      <trkpt lat="43.24309" lon="-0.70385">
        <ele>179</ele>
        <time>2018-09-30T10:09:21.000Z</time>
      </trkpt>
      <trkpt lat="43.24304" lon="-0.70384">
        <ele>179</ele>
        <time>2018-09-30T10:09:22.000Z</time>
      </trkpt>
      <trkpt lat="43.24298" lon="-0.70382">
        <ele>179</ele>
        <time>2018-09-30T10:09:23.000Z</time>
      </trkpt>
      <trkpt lat="43.24293" lon="-0.70381">
        <ele>179</ele>
        <time>2018-09-30T10:09:24.000Z</time>
      </trkpt>
      <trkpt lat="43.24288" lon="-0.7038">
        <ele>179</ele>
        <time>2018-09-30T10:09:25.000Z</time>
      </trkpt>
      <trkpt lat="43.24282" lon="-0.7038">
        <ele>179</ele>
        <time>2018-09-30T10:09:26.000Z</time>
      </trkpt>
      <trkpt lat="43.24276" lon="-0.70381">
        <ele>179</ele>
        <time>2018-09-30T10:09:27.000Z</time>
      </trkpt>
      <trkpt lat="43.24271" lon="-0.70382">
        <ele>179</ele>
        <time>2018-09-30T10:09:28.000Z</time>
      </trkpt>
      <trkpt lat="43.24266" lon="-0.70384">
        <ele>179</ele>
        <time>2018-09-30T10:09:29.000Z</time>
      </trkpt>
      <trkpt lat="43.2426" lon="-0.70385">
        <ele>179</ele>
        <time>2018-09-30T10:09:30.000Z</time>
      </trkpt>
      <trkpt lat="43.24255" lon="-0.70386">
        <ele>179</ele>
        <time>2018-09-30T10:09:31.000Z</time>
      </trkpt>
      <trkpt lat="43.24249" lon="-0.70386">
        <ele>179</ele>
        <time>2018-09-30T10:09:32.000Z</time>
      </trkpt>
      <trkpt lat="43.24244" lon="-0.70384">
        <ele>179</ele>
        <time>2018-09-30T10:09:33.000Z</time>
      </trkpt>
      <trkpt lat="43.24239" lon="-0.70381">
        <ele>179</ele>
        <time>2018-09-30T10:09:34.000Z</time>
      </trkpt>
      <trkpt lat="43.24235" lon="-0.70378">
        <ele>179</ele>
        <time>2018-09-30T10:09:35.000Z</time>
      </trkpt>
      <trkpt lat="43.2423" lon="-0.70374">
        <ele>179</ele>
        <time>2018-09-30T10:09:36.000Z</time>
      </trkpt>
      <trkpt lat="43.24225" lon="-0.70371">
        <ele>179</ele>
        <time>2018-09-30T10:09:37.000Z</time>
      </trkpt>
      <trkpt lat="43.2422" lon="-0.70367">
        <ele>179</ele>
        <time>2018-09-30T10:09:38.000Z</time>
      </trkpt>
      <trkpt lat="43.24215" lon="-0.70364">
        <ele>179</ele>
        <time>2018-09-30T10:09:39.000Z</time>
      </trkpt>
      <trkpt lat="43.24211" lon="-0.70362">
        <ele>179</ele>
        <time>2018-09-30T10:09:40.000Z</time>
      </trkpt>
      <trkpt lat="43.24206" lon="-0.70359">
        <ele>179</ele>
        <time>2018-09-30T10:09:41.000Z</time>
      </trkpt>
      <trkpt lat="43.24201" lon="-0.70356">
        <ele>179</ele>
        <time>2018-09-30T10:09:42.000Z</time>
      </trkpt>
      <trkpt lat="43.24196" lon="-0.70354">
        <ele>179</ele>
        <time>2018-09-30T10:09:43.000Z</time>
      </trkpt>
      <trkpt lat="43.24191" lon="-0.70351">
        <ele>179</ele>
        <time>2018-09-30T10:09:44.000Z</time>
      </trkpt>
      <trkpt lat="43.24186" lon="-0.70348">
        <ele>179</ele>
        <time>2018-09-30T10:09:45.000Z</time>
      </trkpt>
      <trkpt lat="43.24181" lon="-0.70345">
        <ele>179</ele>
        <time>2018-09-30T10:09:46.000Z</time>
      </trkpt>
      <trkpt lat="43.24176" lon="-0.70341">
        <ele>179</ele>
        <time>2018-09-30T10:09:47.000Z</time>
      </trkpt>
      <trkpt lat="43.24171" lon="-0.70338">
        <ele>179</ele>
        <time>2018-09-30T10:09:48.000Z</time>
      </trkpt>
      <trkpt lat="43.24167" lon="-0.70335">
        <ele>179</ele>
        <time>2018-09-30T10:09:49.000Z</time>
      </trkpt>
      <trkpt lat="43.24162" lon="-0.70331">
        <ele>179</ele>
        <time>2018-09-30T10:09:50.000Z</time>
      </trkpt>
      <trkpt lat="43.24158" lon="-0.70328">
        <ele>179.44697212121</ele>
        <time>2018-09-30T10:09:51.000Z</time>
      </trkpt>
      <trkpt lat="43.24154" lon="-0.70324">
        <ele>180</ele>
        <time>2018-09-30T10:09:52.000Z</time>
      </trkpt>
      <trkpt lat="43.2415" lon="-0.70321">
        <ele>180</ele>
        <time>2018-09-30T10:09:53.000Z</time>
      </trkpt>
      <trkpt lat="43.24145" lon="-0.70318">
        <ele>180</ele>
        <time>2018-09-30T10:09:54.000Z</time>
      </trkpt>
      <trkpt lat="43.24141" lon="-0.70314">
        <ele>180</ele>
        <time>2018-09-30T10:09:55.000Z</time>
      </trkpt>
      <trkpt lat="43.24136" lon="-0.7031">
        <ele>180</ele>
        <time>2018-09-30T10:09:56.000Z</time>
      </trkpt>
      <trkpt lat="43.24131" lon="-0.70307">
        <ele>180</ele>
        <time>2018-09-30T10:09:57.000Z</time>
      </trkpt>
      <trkpt lat="43.24126" lon="-0.70303">
        <ele>180</ele>
        <time>2018-09-30T10:09:58.000Z</time>
      </trkpt>
      <trkpt lat="43.24121" lon="-0.70301">
        <ele>180</ele>
        <time>2018-09-30T10:09:59.000Z</time>
      </trkpt>
      <trkpt lat="43.24116" lon="-0.70298">
        <ele>180</ele>
        <time>2018-09-30T10:10:00.000Z</time>
      </trkpt>
      <trkpt lat="43.2411" lon="-0.70295">
        <ele>180</ele>
        <time>2018-09-30T10:10:01.000Z</time>
      </trkpt>
      <trkpt lat="43.24105" lon="-0.70291">
        <ele>180</ele>
        <time>2018-09-30T10:10:02.000Z</time>
      </trkpt>
      <trkpt lat="43.241" lon="-0.70287">
        <ele>180</ele>
        <time>2018-09-30T10:10:03.000Z</time>
      </trkpt>
      <trkpt lat="43.24095" lon="-0.70282">
        <ele>180</ele>
        <time>2018-09-30T10:10:04.000Z</time>
      </trkpt>
      <trkpt lat="43.24091" lon="-0.70276">
        <ele>180</ele>
        <time>2018-09-30T10:10:05.000Z</time>
      </trkpt>
      <trkpt lat="43.24087" lon="-0.7027">
        <ele>180</ele>
        <time>2018-09-30T10:10:06.000Z</time>
      </trkpt>
      <trkpt lat="43.24084" lon="-0.70264">
        <ele>180</ele>
        <time>2018-09-30T10:10:07.000Z</time>
      </trkpt>
      <trkpt lat="43.2408" lon="-0.70258">
        <ele>180</ele>
        <time>2018-09-30T10:10:08.000Z</time>
      </trkpt>
      <trkpt lat="43.24077" lon="-0.70252">
        <ele>180</ele>
        <time>2018-09-30T10:10:09.000Z</time>
      </trkpt>
      <trkpt lat="43.24073" lon="-0.70246">
        <ele>180</ele>
        <time>2018-09-30T10:10:10.000Z</time>
      </trkpt>
      <trkpt lat="43.24069" lon="-0.7024">
        <ele>180.5900032</ele>
        <time>2018-09-30T10:10:11.000Z</time>
      </trkpt>
      <trkpt lat="43.24065" lon="-0.70234">
        <ele>181</ele>
        <time>2018-09-30T10:10:12.000Z</time>
      </trkpt>
      <trkpt lat="43.24062" lon="-0.70228">
        <ele>181</ele>
        <time>2018-09-30T10:10:13.000Z</time>
      </trkpt>
      <trkpt lat="43.24058" lon="-0.70222">
        <ele>181</ele>
        <time>2018-09-30T10:10:14.000Z</time>
      </trkpt>
      <trkpt lat="43.24055" lon="-0.70216">
        <ele>181</ele>
        <time>2018-09-30T10:10:15.000Z</time>
      </trkpt>
      <trkpt lat="43.24051" lon="-0.70211">
        <ele>181</ele>
        <time>2018-09-30T10:10:16.000Z</time>
      </trkpt>
      <trkpt lat="43.24048" lon="-0.70205">
        <ele>181</ele>
        <time>2018-09-30T10:10:17.000Z</time>
      </trkpt>
      <trkpt lat="43.24044" lon="-0.70199">
        <ele>181</ele>
        <time>2018-09-30T10:10:18.000Z</time>
      </trkpt>
      <trkpt lat="43.2404" lon="-0.70193">
        <ele>181</ele>
        <time>2018-09-30T10:10:19.000Z</time>
      </trkpt>
      <trkpt lat="43.24037" lon="-0.70187">
        <ele>181</ele>
        <time>2018-09-30T10:10:20.000Z</time>
      </trkpt>
      <trkpt lat="43.24033" lon="-0.70181">
        <ele>181</ele>
        <time>2018-09-30T10:10:21.000Z</time>
      </trkpt>
      <trkpt lat="43.24029" lon="-0.70175">
        <ele>181.5900032</ele>
        <time>2018-09-30T10:10:22.000Z</time>
      </trkpt>
      <trkpt lat="43.24025" lon="-0.70169">
        <ele>182</ele>
        <time>2018-09-30T10:10:23.000Z</time>
      </trkpt>
      <trkpt lat="43.24021" lon="-0.70163">
        <ele>182</ele>
        <time>2018-09-30T10:10:24.000Z</time>
      </trkpt>
      <trkpt lat="43.24017" lon="-0.70157">
        <ele>182</ele>
        <time>2018-09-30T10:10:25.000Z</time>
      </trkpt>
      <trkpt lat="43.24013" lon="-0.70152">
        <ele>182</ele>
        <time>2018-09-30T10:10:26.000Z</time>
      </trkpt>
      <trkpt lat="43.24009" lon="-0.70146">
        <ele>182</ele>
        <time>2018-09-30T10:10:27.000Z</time>
      </trkpt>
      <trkpt lat="43.24005" lon="-0.7014">
        <ele>182</ele>
        <time>2018-09-30T10:10:28.000Z</time>
      </trkpt>
      <trkpt lat="43.24001" lon="-0.70134">
        <ele>182</ele>
        <time>2018-09-30T10:10:29.000Z</time>
      </trkpt>
      <trkpt lat="43.23997" lon="-0.70129">
        <ele>182</ele>
        <time>2018-09-30T10:10:30.000Z</time>
      </trkpt>
      <trkpt lat="43.23993" lon="-0.70123">
        <ele>182</ele>
        <time>2018-09-30T10:10:31.000Z</time>
      </trkpt>
      <trkpt lat="43.2399" lon="-0.70118">
        <ele>182</ele>
        <time>2018-09-30T10:10:32.000Z</time>
      </trkpt>
      <trkpt lat="43.23986" lon="-0.70112">
        <ele>182</ele>
        <time>2018-09-30T10:10:33.000Z</time>
      </trkpt>
      <trkpt lat="43.23982" lon="-0.70107">
        <ele>182</ele>
        <time>2018-09-30T10:10:34.000Z</time>
      </trkpt>
      <trkpt lat="43.23978" lon="-0.70101">
        <ele>182</ele>
        <time>2018-09-30T10:10:35.000Z</time>
      </trkpt>
      <trkpt lat="43.23974" lon="-0.70096">
        <ele>182.4142849306</ele>
        <time>2018-09-30T10:10:36.000Z</time>
      </trkpt>
      <trkpt lat="43.2397" lon="-0.7009">
        <ele>183</ele>
        <time>2018-09-30T10:10:37.000Z</time>
      </trkpt>
      <trkpt lat="43.23967" lon="-0.70084">
        <ele>183</ele>
        <time>2018-09-30T10:10:38.000Z</time>
      </trkpt>
      <trkpt lat="43.23963" lon="-0.70078">
        <ele>183</ele>
        <time>2018-09-30T10:10:39.000Z</time>
      </trkpt>
      <trkpt lat="43.2396" lon="-0.70072">
        <ele>183</ele>
        <time>2018-09-30T10:10:40.000Z</time>
      </trkpt>
      <trkpt lat="43.23956" lon="-0.70066">
        <ele>183</ele>
        <time>2018-09-30T10:10:41.000Z</time>
      </trkpt>
      <trkpt lat="43.23953" lon="-0.7006">
        <ele>183</ele>
        <time>2018-09-30T10:10:42.000Z</time>
      </trkpt>
      <trkpt lat="43.2395" lon="-0.70054">
        <ele>183</ele>
        <time>2018-09-30T10:10:43.000Z</time>
      </trkpt>
      <trkpt lat="43.23947" lon="-0.70048">
        <ele>183</ele>
        <time>2018-09-30T10:10:44.000Z</time>
      </trkpt>
      <trkpt lat="43.23944" lon="-0.70042">
        <ele>183.4142849306</ele>
        <time>2018-09-30T10:10:45.000Z</time>
      </trkpt>
      <trkpt lat="43.23941" lon="-0.70036">
        <ele>184</ele>
        <time>2018-09-30T10:10:46.000Z</time>
      </trkpt>
      <trkpt lat="43.23938" lon="-0.70029">
        <ele>184</ele>
        <time>2018-09-30T10:10:47.000Z</time>
      </trkpt>
      <trkpt lat="43.23935" lon="-0.70023">
        <ele>184</ele>
        <time>2018-09-30T10:10:48.000Z</time>
      </trkpt>
      <trkpt lat="43.23932" lon="-0.70016">
        <ele>184</ele>
        <time>2018-09-30T10:10:49.000Z</time>
      </trkpt>
      <trkpt lat="43.2393" lon="-0.70009">
        <ele>184</ele>
        <time>2018-09-30T10:10:50.000Z</time>
      </trkpt>
      <trkpt lat="43.23928" lon="-0.70003">
        <ele>184</ele>
        <time>2018-09-30T10:10:51.000Z</time>
      </trkpt>
      <trkpt lat="43.23926" lon="-0.69996">
        <ele>184</ele>
        <time>2018-09-30T10:10:52.000Z</time>
      </trkpt>
      <trkpt lat="43.23923" lon="-0.6999">
        <ele>184</ele>
        <time>2018-09-30T10:10:53.000Z</time>
      </trkpt>
      <trkpt lat="43.2392" lon="-0.69984">
        <ele>184</ele>
        <time>2018-09-30T10:10:54.000Z</time>
      </trkpt>
      <trkpt lat="43.23917" lon="-0.69978">
        <ele>184</ele>
        <time>2018-09-30T10:10:55.000Z</time>
      </trkpt>
      <trkpt lat="43.23913" lon="-0.69973">
        <ele>184</ele>
        <time>2018-09-30T10:10:56.000Z</time>
      </trkpt>
      <trkpt lat="43.2391" lon="-0.69968">
        <ele>184</ele>
        <time>2018-09-30T10:10:57.000Z</time>
      </trkpt>
      <trkpt lat="43.23908" lon="-0.69961">
        <ele>184</ele>
        <time>2018-09-30T10:10:58.000Z</time>
      </trkpt>
      <trkpt lat="43.23908" lon="-0.69953">
        <ele>184</ele>
        <time>2018-09-30T10:10:59.000Z</time>
      </trkpt>
      <trkpt lat="43.23908" lon="-0.69945">
        <ele>184</ele>
        <time>2018-09-30T10:11:00.000Z</time>
      </trkpt>
      <trkpt lat="43.23908" lon="-0.69936">
        <ele>184</ele>
        <time>2018-09-30T10:11:01.000Z</time>
      </trkpt>
      <trkpt lat="43.23909" lon="-0.69928">
        <ele>184</ele>
        <time>2018-09-30T10:11:02.000Z</time>
      </trkpt>
      <trkpt lat="43.23909" lon="-0.6992">
        <ele>184</ele>
        <time>2018-09-30T10:11:03.000Z</time>
      </trkpt>
      <trkpt lat="43.23909" lon="-0.69914">
        <ele>184</ele>
        <time>2018-09-30T10:11:04.000Z</time>
      </trkpt>
      <trkpt lat="43.23907" lon="-0.69909">
        <ele>183.4099968</ele>
        <time>2018-09-30T10:11:05.000Z</time>
      </trkpt>
      <trkpt lat="43.23902" lon="-0.69905">
        <ele>183</ele>
        <time>2018-09-30T10:11:07.000Z</time>
      </trkpt>
      <trkpt lat="43.23896" lon="-0.6991">
        <ele>183</ele>
        <time>2018-09-30T10:11:09.000Z</time>
      </trkpt>
      <trkpt lat="43.23893" lon="-0.69913">
        <ele>183</ele>
        <time>2018-09-30T10:11:10.000Z</time>
      </trkpt>
      <trkpt lat="43.23889" lon="-0.69917">
        <ele>183</ele>
        <time>2018-09-30T10:11:11.000Z</time>
      </trkpt>
      <trkpt lat="43.23885" lon="-0.69921">
        <ele>183</ele>
        <time>2018-09-30T10:11:12.000Z</time>
      </trkpt>
      <trkpt lat="43.23881" lon="-0.69925">
        <ele>183</ele>
        <time>2018-09-30T10:11:13.000Z</time>
      </trkpt>
      <trkpt lat="43.23877" lon="-0.69929">
        <ele>183</ele>
        <time>2018-09-30T10:11:14.000Z</time>
      </trkpt>
      <trkpt lat="43.23873" lon="-0.69932">
        <ele>183</ele>
        <time>2018-09-30T10:11:15.000Z</time>
      </trkpt>
      <trkpt lat="43.23869" lon="-0.69935">
        <ele>183</ele>
        <time>2018-09-30T10:11:16.000Z</time>
      </trkpt>
      <trkpt lat="43.23865" lon="-0.69937">
        <ele>183</ele>
        <time>2018-09-30T10:11:17.000Z</time>
      </trkpt>
      <trkpt lat="43.23861" lon="-0.69939">
        <ele>183</ele>
        <time>2018-09-30T10:11:18.000Z</time>
      </trkpt>
      <trkpt lat="43.23856" lon="-0.6994">
        <ele>183</ele>
        <time>2018-09-30T10:11:19.000Z</time>
      </trkpt>
      <trkpt lat="43.23852" lon="-0.6994">
        <ele>183</ele>
        <time>2018-09-30T10:11:20.000Z</time>
      </trkpt>
      <trkpt lat="43.23847" lon="-0.69938">
        <ele>183.5900032</ele>
        <time>2018-09-30T10:11:21.000Z</time>
      </trkpt>
      <trkpt lat="43.23843" lon="-0.69937">
        <ele>184</ele>
        <time>2018-09-30T10:11:22.000Z</time>
      </trkpt>
      <trkpt lat="43.23838" lon="-0.69935">
        <ele>184</ele>
        <time>2018-09-30T10:11:23.000Z</time>
      </trkpt>
      <trkpt lat="43.23834" lon="-0.69932">
        <ele>184</ele>
        <time>2018-09-30T10:11:24.000Z</time>
      </trkpt>
      <trkpt lat="43.23829" lon="-0.69931">
        <ele>184</ele>
        <time>2018-09-30T10:11:25.000Z</time>
      </trkpt>
      <trkpt lat="43.23826" lon="-0.69928">
        <ele>184.43056</ele>
        <time>2018-09-30T10:11:26.000Z</time>
      </trkpt>
      <trkpt lat="43.23821" lon="-0.69925">
        <ele>185</ele>
        <time>2018-09-30T10:11:27.000Z</time>
      </trkpt>
      <trkpt lat="43.23817" lon="-0.69922">
        <ele>185</ele>
        <time>2018-09-30T10:11:28.000Z</time>
      </trkpt>
      <trkpt lat="43.23802" lon="-0.69914">
        <ele>186</ele>
        <time>2018-09-30T10:11:31.000Z</time>
      </trkpt>
      <trkpt lat="43.23797" lon="-0.69911">
        <ele>186</ele>
        <time>2018-09-30T10:11:32.000Z</time>
      </trkpt>
      <trkpt lat="43.23785" lon="-0.69902">
        <ele>186</ele>
        <time>2018-09-30T10:11:35.000Z</time>
      </trkpt>
      <trkpt lat="43.23773" lon="-0.69895">
        <ele>187</ele>
        <time>2018-09-30T10:11:38.000Z</time>
      </trkpt>
      <trkpt lat="43.23761" lon="-0.69885">
        <ele>187</ele>
        <time>2018-09-30T10:11:41.000Z</time>
      </trkpt>
      <trkpt lat="43.23749" lon="-0.69875">
        <ele>188</ele>
        <time>2018-09-30T10:11:44.000Z</time>
      </trkpt>
      <trkpt lat="43.23745" lon="-0.69871">
        <ele>188</ele>
        <time>2018-09-30T10:11:45.000Z</time>
      </trkpt>
      <trkpt lat="43.23741" lon="-0.69865">
        <ele>188</ele>
        <time>2018-09-30T10:11:46.000Z</time>
      </trkpt>
      <trkpt lat="43.23737" lon="-0.69861">
        <ele>188</ele>
        <time>2018-09-30T10:11:47.000Z</time>
      </trkpt>
      <trkpt lat="43.23732" lon="-0.69856">
        <ele>188</ele>
        <time>2018-09-30T10:11:48.000Z</time>
      </trkpt>
      <trkpt lat="43.23728" lon="-0.69852">
        <ele>188</ele>
        <time>2018-09-30T10:11:49.000Z</time>
      </trkpt>
      <trkpt lat="43.23724" lon="-0.69848">
        <ele>188</ele>
        <time>2018-09-30T10:11:50.000Z</time>
      </trkpt>
      <trkpt lat="43.2372" lon="-0.69843">
        <ele>188</ele>
        <time>2018-09-30T10:11:51.000Z</time>
      </trkpt>
      <trkpt lat="43.23716" lon="-0.69839">
        <ele>188</ele>
        <time>2018-09-30T10:11:52.000Z</time>
      </trkpt>
      <trkpt lat="43.23713" lon="-0.69833">
        <ele>187.41836681382</ele>
        <time>2018-09-30T10:11:53.000Z</time>
      </trkpt>
      <trkpt lat="43.23709" lon="-0.69828">
        <ele>187</ele>
        <time>2018-09-30T10:11:54.000Z</time>
      </trkpt>
      <trkpt lat="43.23706" lon="-0.69822">
        <ele>187</ele>
        <time>2018-09-30T10:11:55.000Z</time>
      </trkpt>
      <trkpt lat="43.23702" lon="-0.69816">
        <ele>187</ele>
        <time>2018-09-30T10:11:56.000Z</time>
      </trkpt>
      <trkpt lat="43.23699" lon="-0.69811">
        <ele>187</ele>
        <time>2018-09-30T10:11:57.000Z</time>
      </trkpt>
      <trkpt lat="43.23695" lon="-0.69805">
        <ele>187</ele>
        <time>2018-09-30T10:11:58.000Z</time>
      </trkpt>
      <trkpt lat="43.23691" lon="-0.69799">
        <ele>187</ele>
        <time>2018-09-30T10:11:59.000Z</time>
      </trkpt>
      <trkpt lat="43.23687" lon="-0.69793">
        <ele>187</ele>
        <time>2018-09-30T10:12:00.000Z</time>
      </trkpt>
      <trkpt lat="43.23683" lon="-0.69786">
        <ele>187.5900032</ele>
        <time>2018-09-30T10:12:01.000Z</time>
      </trkpt>
      <trkpt lat="43.23679" lon="-0.6978">
        <ele>188</ele>
        <time>2018-09-30T10:12:02.000Z</time>
      </trkpt>
      <trkpt lat="43.23676" lon="-0.69773">
        <ele>188</ele>
        <time>2018-09-30T10:12:03.000Z</time>
      </trkpt>
      <trkpt lat="43.23673" lon="-0.69766">
        <ele>188</ele>
        <time>2018-09-30T10:12:04.000Z</time>
      </trkpt>
      <trkpt lat="43.23671" lon="-0.69759">
        <ele>188</ele>
        <time>2018-09-30T10:12:05.000Z</time>
      </trkpt>
      <trkpt lat="43.23669" lon="-0.69752">
        <ele>188</ele>
        <time>2018-09-30T10:12:06.000Z</time>
      </trkpt>
      <trkpt lat="43.23668" lon="-0.69744">
        <ele>188</ele>
        <time>2018-09-30T10:12:07.000Z</time>
      </trkpt>
      <trkpt lat="43.23667" lon="-0.69736">
        <ele>188</ele>
        <time>2018-09-30T10:12:08.000Z</time>
      </trkpt>
      <trkpt lat="43.23667" lon="-0.69729">
        <ele>188</ele>
        <time>2018-09-30T10:12:09.000Z</time>
      </trkpt>
      <trkpt lat="43.23667" lon="-0.69721">
        <ele>188</ele>
        <time>2018-09-30T10:12:10.000Z</time>
      </trkpt>
      <trkpt lat="43.23667" lon="-0.69714">
        <ele>188</ele>
        <time>2018-09-30T10:12:11.000Z</time>
      </trkpt>
      <trkpt lat="43.23668" lon="-0.69707">
        <ele>188</ele>
        <time>2018-09-30T10:12:12.000Z</time>
      </trkpt>
      <trkpt lat="43.23668" lon="-0.697">
        <ele>188</ele>
        <time>2018-09-30T10:12:13.000Z</time>
      </trkpt>
      <trkpt lat="43.23669" lon="-0.69693">
        <ele>188</ele>
        <time>2018-09-30T10:12:14.000Z</time>
      </trkpt>
      <trkpt lat="43.2367" lon="-0.69686">
        <ele>188</ele>
        <time>2018-09-30T10:12:15.000Z</time>
      </trkpt>
      <trkpt lat="43.23671" lon="-0.6968">
        <ele>188.5900032</ele>
        <time>2018-09-30T10:12:16.000Z</time>
      </trkpt>
      <trkpt lat="43.23672" lon="-0.69674">
        <ele>189</ele>
        <time>2018-09-30T10:12:17.000Z</time>
      </trkpt>
      <trkpt lat="43.23673" lon="-0.69668">
        <ele>189</ele>
        <time>2018-09-30T10:12:18.000Z</time>
      </trkpt>
      <trkpt lat="43.23673" lon="-0.69662">
        <ele>189.5900032</ele>
        <time>2018-09-30T10:12:19.000Z</time>
      </trkpt>
      <trkpt lat="43.23673" lon="-0.69656">
        <ele>190</ele>
        <time>2018-09-30T10:12:20.000Z</time>
      </trkpt>
      <trkpt lat="43.23672" lon="-0.69649">
        <ele>190</ele>
        <time>2018-09-30T10:12:21.000Z</time>
      </trkpt>
      <trkpt lat="43.2367" lon="-0.69643">
        <ele>190.5900032</ele>
        <time>2018-09-30T10:12:22.000Z</time>
      </trkpt>
      <trkpt lat="43.23668" lon="-0.69638">
        <ele>191</ele>
        <time>2018-09-30T10:12:23.000Z</time>
      </trkpt>
      <trkpt lat="43.23664" lon="-0.69634">
        <ele>191</ele>
        <time>2018-09-30T10:12:24.000Z</time>
      </trkpt>
      <trkpt lat="43.2366" lon="-0.6963">
        <ele>191</ele>
        <time>2018-09-30T10:12:25.000Z</time>
      </trkpt>
      <trkpt lat="43.23656" lon="-0.69626">
        <ele>191</ele>
        <time>2018-09-30T10:12:26.000Z</time>
      </trkpt>
      <trkpt lat="43.23652" lon="-0.69624">
        <ele>191</ele>
        <time>2018-09-30T10:12:27.000Z</time>
      </trkpt>
      <trkpt lat="43.23647" lon="-0.69622">
        <ele>191</ele>
        <time>2018-09-30T10:12:28.000Z</time>
      </trkpt>
      <trkpt lat="43.23643" lon="-0.6962">
        <ele>191</ele>
        <time>2018-09-30T10:12:29.000Z</time>
      </trkpt>
      <trkpt lat="43.23638" lon="-0.69618">
        <ele>191</ele>
        <time>2018-09-30T10:12:30.000Z</time>
      </trkpt>
      <trkpt lat="43.23633" lon="-0.69617">
        <ele>191</ele>
        <time>2018-09-30T10:12:31.000Z</time>
      </trkpt>
      <trkpt lat="43.23628" lon="-0.69616">
        <ele>191</ele>
        <time>2018-09-30T10:12:32.000Z</time>
      </trkpt>
      <trkpt lat="43.23623" lon="-0.69616">
        <ele>191</ele>
        <time>2018-09-30T10:12:33.000Z</time>
      </trkpt>
      <trkpt lat="43.23618" lon="-0.69616">
        <ele>191</ele>
        <time>2018-09-30T10:12:34.000Z</time>
      </trkpt>
      <trkpt lat="43.23613" lon="-0.69617">
        <ele>191.4142849306</ele>
        <time>2018-09-30T10:12:35.000Z</time>
      </trkpt>
      <trkpt lat="43.23608" lon="-0.69617">
        <ele>192</ele>
        <time>2018-09-30T10:12:36.000Z</time>
      </trkpt>
      <trkpt lat="43.23604" lon="-0.69618">
        <ele>192</ele>
        <time>2018-09-30T10:12:37.000Z</time>
      </trkpt>
      <trkpt lat="43.236" lon="-0.69619">
        <ele>192</ele>
        <time>2018-09-30T10:12:38.000Z</time>
      </trkpt>
      <trkpt lat="43.23596" lon="-0.6962">
        <ele>192</ele>
        <time>2018-09-30T10:12:39.000Z</time>
      </trkpt>
      <trkpt lat="43.23592" lon="-0.69621">
        <ele>192</ele>
        <time>2018-09-30T10:12:40.000Z</time>
      </trkpt>
      <trkpt lat="43.23585" lon="-0.69623">
        <ele>192</ele>
        <time>2018-09-30T10:12:42.000Z</time>
      </trkpt>
      <trkpt lat="43.2358" lon="-0.69624">
        <ele>192</ele>
        <time>2018-09-30T10:12:44.000Z</time>
      </trkpt>
      <trkpt lat="43.23576" lon="-0.69621">
        <ele>192</ele>
        <time>2018-09-30T10:12:46.000Z</time>
      </trkpt>
      <trkpt lat="43.23575" lon="-0.69616">
        <ele>192</ele>
        <time>2018-09-30T10:12:48.000Z</time>
      </trkpt>
      <trkpt lat="43.23577" lon="-0.69611">
        <ele>192</ele>
        <time>2018-09-30T10:12:50.000Z</time>
      </trkpt>
      <trkpt lat="43.2358" lon="-0.69607">
        <ele>192</ele>
        <time>2018-09-30T10:12:52.000Z</time>
      </trkpt>
      <trkpt lat="43.23584" lon="-0.69604">
        <ele>193</ele>
        <time>2018-09-30T10:12:54.000Z</time>
      </trkpt>
      <trkpt lat="43.23587" lon="-0.69601">
        <ele>194</ele>
        <time>2018-09-30T10:12:56.000Z</time>
      </trkpt>
      <trkpt lat="43.23593" lon="-0.69598">
        <ele>195.5900032</ele>
        <time>2018-09-30T10:12:58.000Z</time>
      </trkpt>
      <trkpt lat="43.23599" lon="-0.69595">
        <ele>196</ele>
        <time>2018-09-30T10:13:00.000Z</time>
      </trkpt>
      <trkpt lat="43.23605" lon="-0.69591">
        <ele>196.5900032</ele>
        <time>2018-09-30T10:13:02.000Z</time>
      </trkpt>
      <trkpt lat="43.23609" lon="-0.69587">
        <ele>197</ele>
        <time>2018-09-30T10:13:04.000Z</time>
      </trkpt>
      <trkpt lat="43.23613" lon="-0.69584">
        <ele>198</ele>
        <time>2018-09-30T10:13:06.000Z</time>
      </trkpt>
      <trkpt lat="43.23618" lon="-0.69582">
        <ele>198</ele>
        <time>2018-09-30T10:13:08.000Z</time>
      </trkpt>
      <trkpt lat="43.23624" lon="-0.69578">
        <ele>198.43056</ele>
        <time>2018-09-30T10:13:10.000Z</time>
      </trkpt>
      <trkpt lat="43.23627" lon="-0.69575">
        <ele>199</ele>
        <time>2018-09-30T10:13:11.000Z</time>
      </trkpt>
      <trkpt lat="43.23632" lon="-0.6957">
        <ele>199</ele>
        <time>2018-09-30T10:13:13.000Z</time>
      </trkpt>
      <trkpt lat="43.23636" lon="-0.69565">
        <ele>199.5900032</ele>
        <time>2018-09-30T10:13:15.000Z</time>
      </trkpt>
      <trkpt lat="43.23641" lon="-0.69559">
        <ele>201</ele>
        <time>2018-09-30T10:13:17.000Z</time>
      </trkpt>
      <trkpt lat="43.23646" lon="-0.69554">
        <ele>201</ele>
        <time>2018-09-30T10:13:19.000Z</time>
      </trkpt>
      <trkpt lat="43.2365" lon="-0.69549">
        <ele>202</ele>
        <time>2018-09-30T10:13:21.000Z</time>
      </trkpt>
      <trkpt lat="43.23654" lon="-0.69544">
        <ele>202.44697212121</ele>
        <time>2018-09-30T10:13:23.000Z</time>
      </trkpt>
      <trkpt lat="43.23659" lon="-0.69538">
        <ele>204</ele>
        <time>2018-09-30T10:13:25.000Z</time>
      </trkpt>
      <trkpt lat="43.23664" lon="-0.69532">
        <ele>204</ele>
        <time>2018-09-30T10:13:27.000Z</time>
      </trkpt>
      <trkpt lat="43.23667" lon="-0.69526">
        <ele>204</ele>
        <time>2018-09-30T10:13:29.000Z</time>
      </trkpt>
      <trkpt lat="43.2367" lon="-0.69522">
        <ele>204</ele>
        <time>2018-09-30T10:13:31.000Z</time>
      </trkpt>
      <trkpt lat="43.23673" lon="-0.69517">
        <ele>204</ele>
        <time>2018-09-30T10:13:33.000Z</time>
      </trkpt>
      <trkpt lat="43.23676" lon="-0.69512">
        <ele>204</ele>
        <time>2018-09-30T10:13:35.000Z</time>
      </trkpt>
      <trkpt lat="43.23679" lon="-0.69507">
        <ele>204</ele>
        <time>2018-09-30T10:13:37.000Z</time>
      </trkpt>
      <trkpt lat="43.23683" lon="-0.69502">
        <ele>204</ele>
        <time>2018-09-30T10:13:39.000Z</time>
      </trkpt>
      <trkpt lat="43.23687" lon="-0.69497">
        <ele>204</ele>
        <time>2018-09-30T10:13:41.000Z</time>
      </trkpt>
      <trkpt lat="43.23691" lon="-0.69491">
        <ele>203</ele>
        <time>2018-09-30T10:13:43.000Z</time>
      </trkpt>
      <trkpt lat="43.23694" lon="-0.69488">
        <ele>202.4099968</ele>
        <time>2018-09-30T10:13:45.000Z</time>
      </trkpt>
      <trkpt lat="43.23697" lon="-0.69488">
        <ele>202</ele>
        <time>2018-09-30T10:13:47.000Z</time>
      </trkpt>
      <trkpt lat="43.23702" lon="-0.69486">
        <ele>200.4099968</ele>
        <time>2018-09-30T10:13:49.000Z</time>
      </trkpt>
      <trkpt lat="43.23707" lon="-0.69484">
        <ele>199.4099968</ele>
        <time>2018-09-30T10:13:51.000Z</time>
      </trkpt>
      <trkpt lat="43.23712" lon="-0.69482">
        <ele>198</ele>
        <time>2018-09-30T10:13:53.000Z</time>
      </trkpt>
      <trkpt lat="43.23719" lon="-0.69482">
        <ele>197.4099968</ele>
        <time>2018-09-30T10:13:55.000Z</time>
      </trkpt>
      <trkpt lat="43.23724" lon="-0.69479">
        <ele>195.4099968</ele>
        <time>2018-09-30T10:13:57.000Z</time>
      </trkpt>
      <trkpt lat="43.23728" lon="-0.69474">
        <ele>194</ele>
        <time>2018-09-30T10:13:59.000Z</time>
      </trkpt>
      <trkpt lat="43.23732" lon="-0.69468">
        <ele>192.61403292089</ele>
        <time>2018-09-30T10:14:01.000Z</time>
      </trkpt>
      <trkpt lat="43.23736" lon="-0.69466">
        <ele>192</ele>
        <time>2018-09-30T10:14:02.000Z</time>
      </trkpt>
      <trkpt lat="43.23741" lon="-0.69464">
        <ele>192</ele>
        <time>2018-09-30T10:14:03.000Z</time>
      </trkpt>
      <trkpt lat="43.23747" lon="-0.69461">
        <ele>191.4099968</ele>
        <time>2018-09-30T10:14:04.000Z</time>
      </trkpt>
      <trkpt lat="43.23754" lon="-0.69457">
        <ele>190.4099968</ele>
        <time>2018-09-30T10:14:05.000Z</time>
      </trkpt>
      <trkpt lat="43.23759" lon="-0.69451">
        <ele>189.4099968</ele>
        <time>2018-09-30T10:14:06.000Z</time>
      </trkpt>
      <trkpt lat="43.23765" lon="-0.69447">
        <ele>189</ele>
        <time>2018-09-30T10:14:07.000Z</time>
      </trkpt>
      <trkpt lat="43.23769" lon="-0.69442">
        <ele>188.4099968</ele>
        <time>2018-09-30T10:14:08.000Z</time>
      </trkpt>
      <trkpt lat="43.23773" lon="-0.69438">
        <ele>187.4099968</ele>
        <time>2018-09-30T10:14:09.000Z</time>
      </trkpt>
      <trkpt lat="43.23776" lon="-0.69434">
        <ele>187</ele>
        <time>2018-09-30T10:14:10.000Z</time>
      </trkpt>
      <trkpt lat="43.2378" lon="-0.69428">
        <ele>187</ele>
        <time>2018-09-30T10:14:12.000Z</time>
      </trkpt>
      <trkpt lat="43.2378" lon="-0.6942">
        <ele>187</ele>
        <time>2018-09-30T10:14:14.000Z</time>
      </trkpt>
      <trkpt lat="43.2378" lon="-0.69413">
        <ele>187</ele>
        <time>2018-09-30T10:14:16.000Z</time>
      </trkpt>
      <trkpt lat="43.23779" lon="-0.69406">
        <ele>187.5900032</ele>
        <time>2018-09-30T10:14:18.000Z</time>
      </trkpt>
      <trkpt lat="43.23778" lon="-0.69399">
        <ele>188.45384638106</ele>
        <time>2018-09-30T10:14:20.000Z</time>
      </trkpt>
      <trkpt lat="43.23778" lon="-0.69392">
        <ele>190</ele>
        <time>2018-09-30T10:14:22.000Z</time>
      </trkpt>
      <trkpt lat="43.23777" lon="-0.69387">
        <ele>190</ele>
        <time>2018-09-30T10:14:23.000Z</time>
      </trkpt>
      <trkpt lat="43.23776" lon="-0.6938">
        <ele>190</ele>
        <time>2018-09-30T10:14:24.000Z</time>
      </trkpt>
      <trkpt lat="43.23774" lon="-0.69373">
        <ele>189.4099968</ele>
        <time>2018-09-30T10:14:25.000Z</time>
      </trkpt>
      <trkpt lat="43.23772" lon="-0.69366">
        <ele>189</ele>
        <time>2018-09-30T10:14:26.000Z</time>
      </trkpt>
      <trkpt lat="43.23769" lon="-0.69359">
        <ele>189</ele>
        <time>2018-09-30T10:14:27.000Z</time>
      </trkpt>
      <trkpt lat="43.23765" lon="-0.69353">
        <ele>188.42156911957</ele>
        <time>2018-09-30T10:14:28.000Z</time>
      </trkpt>
      <trkpt lat="43.23762" lon="-0.69346">
        <ele>188</ele>
        <time>2018-09-30T10:14:29.000Z</time>
      </trkpt>
      <trkpt lat="43.23759" lon="-0.69339">
        <ele>188</ele>
        <time>2018-09-30T10:14:30.000Z</time>
      </trkpt>
      <trkpt lat="43.23756" lon="-0.69332">
        <ele>188</ele>
        <time>2018-09-30T10:14:31.000Z</time>
      </trkpt>
      <trkpt lat="43.23752" lon="-0.69325">
        <ele>188</ele>
        <time>2018-09-30T10:14:32.000Z</time>
      </trkpt>
      <trkpt lat="43.23749" lon="-0.69319">
        <ele>188</ele>
        <time>2018-09-30T10:14:33.000Z</time>
      </trkpt>
      <trkpt lat="43.23746" lon="-0.69313">
        <ele>188</ele>
        <time>2018-09-30T10:14:34.000Z</time>
      </trkpt>
      <trkpt lat="43.23743" lon="-0.69307">
        <ele>188</ele>
        <time>2018-09-30T10:14:35.000Z</time>
      </trkpt>
      <trkpt lat="43.23739" lon="-0.693">
        <ele>188</ele>
        <time>2018-09-30T10:14:36.000Z</time>
      </trkpt>
      <trkpt lat="43.23735" lon="-0.69292">
        <ele>188</ele>
        <time>2018-09-30T10:14:37.000Z</time>
      </trkpt>
      <trkpt lat="43.23732" lon="-0.69285">
        <ele>188</ele>
        <time>2018-09-30T10:14:38.000Z</time>
      </trkpt>
      <trkpt lat="43.23728" lon="-0.69278">
        <ele>188</ele>
        <time>2018-09-30T10:14:39.000Z</time>
      </trkpt>
      <trkpt lat="43.23725" lon="-0.69271">
        <ele>188</ele>
        <time>2018-09-30T10:14:40.000Z</time>
      </trkpt>
      <trkpt lat="43.23722" lon="-0.69263">
        <ele>188</ele>
        <time>2018-09-30T10:14:41.000Z</time>
      </trkpt>
      <trkpt lat="43.23721" lon="-0.69256">
        <ele>188</ele>
        <time>2018-09-30T10:14:42.000Z</time>
      </trkpt>
      <trkpt lat="43.23721" lon="-0.6925">
        <ele>187.54961697804</ele>
        <time>2018-09-30T10:14:43.000Z</time>
      </trkpt>
      <trkpt lat="43.23722" lon="-0.69243">
        <ele>187</ele>
        <time>2018-09-30T10:14:44.000Z</time>
      </trkpt>
      <trkpt lat="43.23726" lon="-0.69237">
        <ele>186.4099968</ele>
        <time>2018-09-30T10:14:45.000Z</time>
      </trkpt>
      <trkpt lat="43.2373" lon="-0.69231">
        <ele>186</ele>
        <time>2018-09-30T10:14:46.000Z</time>
      </trkpt>
      <trkpt lat="43.23735" lon="-0.69225">
        <ele>186</ele>
        <time>2018-09-30T10:14:47.000Z</time>
      </trkpt>
      <trkpt lat="43.23739" lon="-0.69219">
        <ele>186</ele>
        <time>2018-09-30T10:14:48.000Z</time>
      </trkpt>
      <trkpt lat="43.23744" lon="-0.69212">
        <ele>186</ele>
        <time>2018-09-30T10:14:49.000Z</time>
      </trkpt>
      <trkpt lat="43.23749" lon="-0.69206">
        <ele>186</ele>
        <time>2018-09-30T10:14:50.000Z</time>
      </trkpt>
      <trkpt lat="43.23754" lon="-0.692">
        <ele>186</ele>
        <time>2018-09-30T10:14:51.000Z</time>
      </trkpt>
      <trkpt lat="43.23758" lon="-0.69194">
        <ele>186</ele>
        <time>2018-09-30T10:14:52.000Z</time>
      </trkpt>
      <trkpt lat="43.23763" lon="-0.69187">
        <ele>186</ele>
        <time>2018-09-30T10:14:53.000Z</time>
      </trkpt>
      <trkpt lat="43.23767" lon="-0.69181">
        <ele>185.4226785078</ele>
        <time>2018-09-30T10:14:54.000Z</time>
      </trkpt>
      <trkpt lat="43.23772" lon="-0.69175">
        <ele>185</ele>
        <time>2018-09-30T10:14:55.000Z</time>
      </trkpt>
      <trkpt lat="43.23777" lon="-0.69169">
        <ele>185</ele>
        <time>2018-09-30T10:14:56.000Z</time>
      </trkpt>
      <trkpt lat="43.23781" lon="-0.69163">
        <ele>185</ele>
        <time>2018-09-30T10:14:57.000Z</time>
      </trkpt>
      <trkpt lat="43.23786" lon="-0.69157">
        <ele>185</ele>
        <time>2018-09-30T10:14:58.000Z</time>
      </trkpt>
      <trkpt lat="43.23791" lon="-0.69151">
        <ele>185</ele>
        <time>2018-09-30T10:14:59.000Z</time>
      </trkpt>
      <trkpt lat="43.23796" lon="-0.69146">
        <ele>184.63291098221</ele>
        <time>2018-09-30T10:15:00.000Z</time>
      </trkpt>
      <trkpt lat="43.238" lon="-0.69141">
        <ele>184</ele>
        <time>2018-09-30T10:15:01.000Z</time>
      </trkpt>
      <trkpt lat="43.23804" lon="-0.69136">
        <ele>184</ele>
        <time>2018-09-30T10:15:02.000Z</time>
      </trkpt>
      <trkpt lat="43.23806" lon="-0.69129">
        <ele>184</ele>
        <time>2018-09-30T10:15:03.000Z</time>
      </trkpt>
      <trkpt lat="43.23808" lon="-0.69122">
        <ele>184</ele>
        <time>2018-09-30T10:15:04.000Z</time>
      </trkpt>
      <trkpt lat="43.2381" lon="-0.69115">
        <ele>184</ele>
        <time>2018-09-30T10:15:05.000Z</time>
      </trkpt>
      <trkpt lat="43.23811" lon="-0.69107">
        <ele>184</ele>
        <time>2018-09-30T10:15:06.000Z</time>
      </trkpt>
      <trkpt lat="43.23813" lon="-0.69099">
        <ele>184</ele>
        <time>2018-09-30T10:15:07.000Z</time>
      </trkpt>
      <trkpt lat="43.23814" lon="-0.6909">
        <ele>184</ele>
        <time>2018-09-30T10:15:08.000Z</time>
      </trkpt>
      <trkpt lat="43.23815" lon="-0.69082">
        <ele>184</ele>
        <time>2018-09-30T10:15:09.000Z</time>
      </trkpt>
      <trkpt lat="43.23816" lon="-0.69075">
        <ele>184</ele>
        <time>2018-09-30T10:15:10.000Z</time>
      </trkpt>
      <trkpt lat="43.23818" lon="-0.69069">
        <ele>184</ele>
        <time>2018-09-30T10:15:11.000Z</time>
      </trkpt>
      <trkpt lat="43.23821" lon="-0.69064">
        <ele>184</ele>
        <time>2018-09-30T10:15:13.000Z</time>
      </trkpt>
      <trkpt lat="43.23827" lon="-0.69065">
        <ele>184.5900032</ele>
        <time>2018-09-30T10:15:15.000Z</time>
      </trkpt>
      <trkpt lat="43.2383" lon="-0.69067">
        <ele>185.5900032</ele>
        <time>2018-09-30T10:15:16.000Z</time>
      </trkpt>
      <trkpt lat="43.23834" lon="-0.6907">
        <ele>186</ele>
        <time>2018-09-30T10:15:17.000Z</time>
      </trkpt>
      <trkpt lat="43.23837" lon="-0.69073">
        <ele>186</ele>
        <time>2018-09-30T10:15:18.000Z</time>
      </trkpt>
      <trkpt lat="43.2384" lon="-0.69076">
        <ele>186</ele>
        <time>2018-09-30T10:15:19.000Z</time>
      </trkpt>
      <trkpt lat="43.23843" lon="-0.69079">
        <ele>186</ele>
        <time>2018-09-30T10:15:20.000Z</time>
      </trkpt>
      <trkpt lat="43.23846" lon="-0.69082">
        <ele>186</ele>
        <time>2018-09-30T10:15:21.000Z</time>
      </trkpt>
      <trkpt lat="43.23849" lon="-0.69086">
        <ele>186</ele>
        <time>2018-09-30T10:15:22.000Z</time>
      </trkpt>
      <trkpt lat="43.23852" lon="-0.6909">
        <ele>186</ele>
        <time>2018-09-30T10:15:23.000Z</time>
      </trkpt>
      <trkpt lat="43.23855" lon="-0.69094">
        <ele>186</ele>
        <time>2018-09-30T10:15:24.000Z</time>
      </trkpt>
      <trkpt lat="43.23858" lon="-0.69097">
        <ele>186</ele>
        <time>2018-09-30T10:15:25.000Z</time>
      </trkpt>
      <trkpt lat="43.23862" lon="-0.691">
        <ele>186</ele>
        <time>2018-09-30T10:15:26.000Z</time>
      </trkpt>
      <trkpt lat="43.23865" lon="-0.69103">
        <ele>186</ele>
        <time>2018-09-30T10:15:27.000Z</time>
      </trkpt>
      <trkpt lat="43.23868" lon="-0.69105">
        <ele>186</ele>
        <time>2018-09-30T10:15:28.000Z</time>
      </trkpt>
      <trkpt lat="43.23872" lon="-0.69108">
        <ele>185.4099968</ele>
        <time>2018-09-30T10:15:29.000Z</time>
      </trkpt>
      <trkpt lat="43.23875" lon="-0.6911">
        <ele>185</ele>
        <time>2018-09-30T10:15:30.000Z</time>
      </trkpt>
      <trkpt lat="43.23878" lon="-0.69112">
        <ele>185</ele>
        <time>2018-09-30T10:15:31.000Z</time>
      </trkpt>
      <trkpt lat="43.23881" lon="-0.69115">
        <ele>185.5900032</ele>
        <time>2018-09-30T10:15:32.000Z</time>
      </trkpt>
      <trkpt lat="43.23885" lon="-0.69118">
        <ele>186</ele>
        <time>2018-09-30T10:15:33.000Z</time>
      </trkpt>
      <trkpt lat="43.23889" lon="-0.69121">
        <ele>186</ele>
        <time>2018-09-30T10:15:34.000Z</time>
      </trkpt>
      <trkpt lat="43.23893" lon="-0.69123">
        <ele>186</ele>
        <time>2018-09-30T10:15:35.000Z</time>
      </trkpt>
      <trkpt lat="43.23897" lon="-0.69125">
        <ele>186</ele>
        <time>2018-09-30T10:15:36.000Z</time>
      </trkpt>
      <trkpt lat="43.23901" lon="-0.69127">
        <ele>186</ele>
        <time>2018-09-30T10:15:37.000Z</time>
      </trkpt>
      <trkpt lat="43.23905" lon="-0.69129">
        <ele>186</ele>
        <time>2018-09-30T10:15:38.000Z</time>
      </trkpt>
      <trkpt lat="43.23909" lon="-0.69131">
        <ele>186</ele>
        <time>2018-09-30T10:15:39.000Z</time>
      </trkpt>
      <trkpt lat="43.23914" lon="-0.69133">
        <ele>186</ele>
        <time>2018-09-30T10:15:40.000Z</time>
      </trkpt>
      <trkpt lat="43.23918" lon="-0.69135">
        <ele>186</ele>
        <time>2018-09-30T10:15:41.000Z</time>
      </trkpt>
      <trkpt lat="43.23922" lon="-0.69138">
        <ele>186</ele>
        <time>2018-09-30T10:15:42.000Z</time>
      </trkpt>
      <trkpt lat="43.23927" lon="-0.69139">
        <ele>186</ele>
        <time>2018-09-30T10:15:43.000Z</time>
      </trkpt>
      <trkpt lat="43.2393" lon="-0.6914">
        <ele>186</ele>
        <time>2018-09-30T10:15:44.000Z</time>
      </trkpt>
      <trkpt lat="43.23934" lon="-0.69139">
        <ele>186</ele>
        <time>2018-09-30T10:15:45.000Z</time>
      </trkpt>
      <trkpt lat="43.23937" lon="-0.6913">
        <ele>186</ele>
        <time>2018-09-30T10:15:47.000Z</time>
      </trkpt>
      <trkpt lat="43.23938" lon="-0.69125">
        <ele>186</ele>
        <time>2018-09-30T10:15:48.000Z</time>
      </trkpt>
      <trkpt lat="43.23939" lon="-0.69119">
        <ele>185.41836681382</ele>
        <time>2018-09-30T10:15:49.000Z</time>
      </trkpt>
      <trkpt lat="43.2394" lon="-0.69114">
        <ele>185</ele>
        <time>2018-09-30T10:15:50.000Z</time>
      </trkpt>
      <trkpt lat="43.2394" lon="-0.69108">
        <ele>185</ele>
        <time>2018-09-30T10:15:51.000Z</time>
      </trkpt>
      <trkpt lat="43.2394" lon="-0.69103">
        <ele>185</ele>
        <time>2018-09-30T10:15:52.000Z</time>
      </trkpt>
      <trkpt lat="43.23941" lon="-0.69098">
        <ele>185</ele>
        <time>2018-09-30T10:15:53.000Z</time>
      </trkpt>
      <trkpt lat="43.23941" lon="-0.69092">
        <ele>185</ele>
        <time>2018-09-30T10:15:54.000Z</time>
      </trkpt>
      <trkpt lat="43.23941" lon="-0.69087">
        <ele>185</ele>
        <time>2018-09-30T10:15:55.000Z</time>
      </trkpt>
      <trkpt lat="43.23941" lon="-0.69081">
        <ele>185</ele>
        <time>2018-09-30T10:15:56.000Z</time>
      </trkpt>
      <trkpt lat="43.23942" lon="-0.69076">
        <ele>185</ele>
        <time>2018-09-30T10:15:57.000Z</time>
      </trkpt>
      <trkpt lat="43.23944" lon="-0.6907">
        <ele>185.37349639134</ele>
        <time>2018-09-30T10:15:58.000Z</time>
      </trkpt>
      <trkpt lat="43.23946" lon="-0.69064">
        <ele>186</ele>
        <time>2018-09-30T10:15:59.000Z</time>
      </trkpt>
      <trkpt lat="43.23947" lon="-0.69059">
        <ele>186</ele>
        <time>2018-09-30T10:16:00.000Z</time>
      </trkpt>
      <trkpt lat="43.23949" lon="-0.69053">
        <ele>186</ele>
        <time>2018-09-30T10:16:01.000Z</time>
      </trkpt>
      <trkpt lat="43.23951" lon="-0.69049">
        <ele>186</ele>
        <time>2018-09-30T10:16:02.000Z</time>
      </trkpt>
      <trkpt lat="43.23953" lon="-0.69044">
        <ele>186</ele>
        <time>2018-09-30T10:16:03.000Z</time>
      </trkpt>
      <trkpt lat="43.23955" lon="-0.69039">
        <ele>186</ele>
        <time>2018-09-30T10:16:04.000Z</time>
      </trkpt>
      <trkpt lat="43.23957" lon="-0.69035">
        <ele>186.5900032</ele>
        <time>2018-09-30T10:16:05.000Z</time>
      </trkpt>
      <trkpt lat="43.23962" lon="-0.69028">
        <ele>187</ele>
        <time>2018-09-30T10:16:07.000Z</time>
      </trkpt>
      <trkpt lat="43.23964" lon="-0.69021">
        <ele>186.4099968</ele>
        <time>2018-09-30T10:16:09.000Z</time>
      </trkpt>
      <trkpt lat="43.23961" lon="-0.69013">
        <ele>186</ele>
        <time>2018-09-30T10:16:11.000Z</time>
      </trkpt>
      <trkpt lat="43.23958" lon="-0.69009">
        <ele>186</ele>
        <time>2018-09-30T10:16:12.000Z</time>
      </trkpt>
      <trkpt lat="43.23956" lon="-0.69005">
        <ele>186</ele>
        <time>2018-09-30T10:16:13.000Z</time>
      </trkpt>
      <trkpt lat="43.23953" lon="-0.69001">
        <ele>186</ele>
        <time>2018-09-30T10:16:14.000Z</time>
      </trkpt>
      <trkpt lat="43.2395" lon="-0.68997">
        <ele>186</ele>
        <time>2018-09-30T10:16:15.000Z</time>
      </trkpt>
      <trkpt lat="43.23949" lon="-0.68992">
        <ele>186</ele>
        <time>2018-09-30T10:16:16.000Z</time>
      </trkpt>
      <trkpt lat="43.2395" lon="-0.68982">
        <ele>186</ele>
        <time>2018-09-30T10:16:18.000Z</time>
      </trkpt>
      <trkpt lat="43.23953" lon="-0.68978">
        <ele>186</ele>
        <time>2018-09-30T10:16:19.000Z</time>
      </trkpt>
      <trkpt lat="43.23955" lon="-0.68973">
        <ele>186</ele>
        <time>2018-09-30T10:16:20.000Z</time>
      </trkpt>
      <trkpt lat="43.23958" lon="-0.68969">
        <ele>186</ele>
        <time>2018-09-30T10:16:21.000Z</time>
      </trkpt>
      <trkpt lat="43.23961" lon="-0.68965">
        <ele>186</ele>
        <time>2018-09-30T10:16:22.000Z</time>
      </trkpt>
      <trkpt lat="43.23964" lon="-0.68962">
        <ele>186</ele>
        <time>2018-09-30T10:16:23.000Z</time>
      </trkpt>
      <trkpt lat="43.23967" lon="-0.68958">
        <ele>186</ele>
        <time>2018-09-30T10:16:24.000Z</time>
      </trkpt>
      <trkpt lat="43.2397" lon="-0.68954">
        <ele>186</ele>
        <time>2018-09-30T10:16:25.000Z</time>
      </trkpt>
      <trkpt lat="43.23973" lon="-0.68949">
        <ele>186.5773214922</ele>
        <time>2018-09-30T10:16:26.000Z</time>
      </trkpt>
      <trkpt lat="43.23976" lon="-0.68945">
        <ele>187</ele>
        <time>2018-09-30T10:16:27.000Z</time>
      </trkpt>
      <trkpt lat="43.23979" lon="-0.68941">
        <ele>187</ele>
        <time>2018-09-30T10:16:28.000Z</time>
      </trkpt>
      <trkpt lat="43.23982" lon="-0.68937">
        <ele>187</ele>
        <time>2018-09-30T10:16:29.000Z</time>
      </trkpt>
      <trkpt lat="43.23985" lon="-0.68933">
        <ele>187</ele>
        <time>2018-09-30T10:16:30.000Z</time>
      </trkpt>
      <trkpt lat="43.23988" lon="-0.68929">
        <ele>187</ele>
        <time>2018-09-30T10:16:31.000Z</time>
      </trkpt>
      <trkpt lat="43.23991" lon="-0.68924">
        <ele>187</ele>
        <time>2018-09-30T10:16:32.000Z</time>
      </trkpt>
      <trkpt lat="43.23994" lon="-0.6892">
        <ele>187</ele>
        <time>2018-09-30T10:16:33.000Z</time>
      </trkpt>
      <trkpt lat="43.23997" lon="-0.68916">
        <ele>187</ele>
        <time>2018-09-30T10:16:34.000Z</time>
      </trkpt>
      <trkpt lat="43.24001" lon="-0.68911">
        <ele>187</ele>
        <time>2018-09-30T10:16:35.000Z</time>
      </trkpt>
      <trkpt lat="43.24004" lon="-0.68907">
        <ele>187</ele>
        <time>2018-09-30T10:16:36.000Z</time>
      </trkpt>
      <trkpt lat="43.24007" lon="-0.68902">
        <ele>187</ele>
        <time>2018-09-30T10:16:37.000Z</time>
      </trkpt>
      <trkpt lat="43.2401" lon="-0.68898">
        <ele>187</ele>
        <time>2018-09-30T10:16:38.000Z</time>
      </trkpt>
      <trkpt lat="43.24013" lon="-0.68893">
        <ele>187</ele>
        <time>2018-09-30T10:16:39.000Z</time>
      </trkpt>
      <trkpt lat="43.24017" lon="-0.68889">
        <ele>187</ele>
        <time>2018-09-30T10:16:40.000Z</time>
      </trkpt>
      <trkpt lat="43.2402" lon="-0.68885">
        <ele>187</ele>
        <time>2018-09-30T10:16:41.000Z</time>
      </trkpt>
      <trkpt lat="43.24024" lon="-0.6888">
        <ele>187</ele>
        <time>2018-09-30T10:16:42.000Z</time>
      </trkpt>
      <trkpt lat="43.24028" lon="-0.68876">
        <ele>187</ele>
        <time>2018-09-30T10:16:43.000Z</time>
      </trkpt>
      <trkpt lat="43.24032" lon="-0.68872">
        <ele>187</ele>
        <time>2018-09-30T10:16:44.000Z</time>
      </trkpt>
      <trkpt lat="43.24036" lon="-0.68868">
        <ele>187</ele>
        <time>2018-09-30T10:16:45.000Z</time>
      </trkpt>
      <trkpt lat="43.2404" lon="-0.68864">
        <ele>187</ele>
        <time>2018-09-30T10:16:46.000Z</time>
      </trkpt>
      <trkpt lat="43.24044" lon="-0.6886">
        <ele>187</ele>
        <time>2018-09-30T10:16:47.000Z</time>
      </trkpt>
      <trkpt lat="43.24048" lon="-0.68856">
        <ele>187</ele>
        <time>2018-09-30T10:16:48.000Z</time>
      </trkpt>
      <trkpt lat="43.24052" lon="-0.68852">
        <ele>187</ele>
        <time>2018-09-30T10:16:49.000Z</time>
      </trkpt>
      <trkpt lat="43.24056" lon="-0.68848">
        <ele>187</ele>
        <time>2018-09-30T10:16:50.000Z</time>
      </trkpt>
      <trkpt lat="43.24061" lon="-0.68844">
        <ele>186.4099968</ele>
        <time>2018-09-30T10:16:51.000Z</time>
      </trkpt>
      <trkpt lat="43.24065" lon="-0.6884">
        <ele>186</ele>
        <time>2018-09-30T10:16:52.000Z</time>
      </trkpt>
      <trkpt lat="43.24069" lon="-0.68836">
        <ele>186</ele>
        <time>2018-09-30T10:16:53.000Z</time>
      </trkpt>
      <trkpt lat="43.24073" lon="-0.68832">
        <ele>186</ele>
        <time>2018-09-30T10:16:54.000Z</time>
      </trkpt>
      <trkpt lat="43.24077" lon="-0.68828">
        <ele>186</ele>
        <time>2018-09-30T10:16:55.000Z</time>
      </trkpt>
      <trkpt lat="43.24081" lon="-0.68824">
        <ele>186</ele>
        <time>2018-09-30T10:16:56.000Z</time>
      </trkpt>
      <trkpt lat="43.24085" lon="-0.6882">
        <ele>186</ele>
        <time>2018-09-30T10:16:57.000Z</time>
      </trkpt>
      <trkpt lat="43.2409" lon="-0.68817">
        <ele>186</ele>
        <time>2018-09-30T10:16:58.000Z</time>
      </trkpt>
      <trkpt lat="43.24095" lon="-0.68813">
        <ele>186</ele>
        <time>2018-09-30T10:16:59.000Z</time>
      </trkpt>
      <trkpt lat="43.24099" lon="-0.6881">
        <ele>186</ele>
        <time>2018-09-30T10:17:00.000Z</time>
      </trkpt>
      <trkpt lat="43.24104" lon="-0.68808">
        <ele>185.4099968</ele>
        <time>2018-09-30T10:17:01.000Z</time>
      </trkpt>
      <trkpt lat="43.24108" lon="-0.68805">
        <ele>185.5900032</ele>
        <time>2018-09-30T10:17:02.000Z</time>
      </trkpt>
      <trkpt lat="43.24113" lon="-0.68803">
        <ele>186</ele>
        <time>2018-09-30T10:17:03.000Z</time>
      </trkpt>
      <trkpt lat="43.24117" lon="-0.68801">
        <ele>186</ele>
        <time>2018-09-30T10:17:04.000Z</time>
      </trkpt>
      <trkpt lat="43.24122" lon="-0.68799">
        <ele>186</ele>
        <time>2018-09-30T10:17:05.000Z</time>
      </trkpt>
      <trkpt lat="43.24126" lon="-0.68797">
        <ele>186</ele>
        <time>2018-09-30T10:17:06.000Z</time>
      </trkpt>
      <trkpt lat="43.24131" lon="-0.68794">
        <ele>186</ele>
        <time>2018-09-30T10:17:07.000Z</time>
      </trkpt>
      <trkpt lat="43.24135" lon="-0.68791">
        <ele>186</ele>
        <time>2018-09-30T10:17:08.000Z</time>
      </trkpt>
      <trkpt lat="43.2414" lon="-0.68788">
        <ele>186.5900032</ele>
        <time>2018-09-30T10:17:09.000Z</time>
      </trkpt>
      <trkpt lat="43.24144" lon="-0.68784">
        <ele>187</ele>
        <time>2018-09-30T10:17:10.000Z</time>
      </trkpt>
      <trkpt lat="43.24148" lon="-0.68781">
        <ele>187</ele>
        <time>2018-09-30T10:17:11.000Z</time>
      </trkpt>
      <trkpt lat="43.24152" lon="-0.68776">
        <ele>187</ele>
        <time>2018-09-30T10:17:12.000Z</time>
      </trkpt>
      <trkpt lat="43.24155" lon="-0.68772">
        <ele>187</ele>
        <time>2018-09-30T10:17:13.000Z</time>
      </trkpt>
      <trkpt lat="43.24159" lon="-0.68768">
        <ele>186.4099968</ele>
        <time>2018-09-30T10:17:14.000Z</time>
      </trkpt>
      <trkpt lat="43.24163" lon="-0.68764">
        <ele>186</ele>
        <time>2018-09-30T10:17:15.000Z</time>
      </trkpt>
      <trkpt lat="43.24167" lon="-0.68759">
        <ele>186</ele>
        <time>2018-09-30T10:17:16.000Z</time>
      </trkpt>
      <trkpt lat="43.24171" lon="-0.68755">
        <ele>186.5900032</ele>
        <time>2018-09-30T10:17:17.000Z</time>
      </trkpt>
      <trkpt lat="43.24174" lon="-0.6875">
        <ele>187</ele>
        <time>2018-09-30T10:17:18.000Z</time>
      </trkpt>
      <trkpt lat="43.24178" lon="-0.68746">
        <ele>187</ele>
        <time>2018-09-30T10:17:19.000Z</time>
      </trkpt>
      <trkpt lat="43.24182" lon="-0.68742">
        <ele>187</ele>
        <time>2018-09-30T10:17:20.000Z</time>
      </trkpt>
      <trkpt lat="43.24186" lon="-0.68738">
        <ele>187</ele>
        <time>2018-09-30T10:17:21.000Z</time>
      </trkpt>
      <trkpt lat="43.2419" lon="-0.68734">
        <ele>187</ele>
        <time>2018-09-30T10:17:22.000Z</time>
      </trkpt>
      <trkpt lat="43.24194" lon="-0.68729">
        <ele>187</ele>
        <time>2018-09-30T10:17:23.000Z</time>
      </trkpt>
      <trkpt lat="43.24197" lon="-0.68725">
        <ele>187</ele>
        <time>2018-09-30T10:17:24.000Z</time>
      </trkpt>
      <trkpt lat="43.24201" lon="-0.6872">
        <ele>187</ele>
        <time>2018-09-30T10:17:25.000Z</time>
      </trkpt>
      <trkpt lat="43.24205" lon="-0.68716">
        <ele>187</ele>
        <time>2018-09-30T10:17:26.000Z</time>
      </trkpt>
      <trkpt lat="43.24208" lon="-0.68711">
        <ele>187</ele>
        <time>2018-09-30T10:17:27.000Z</time>
      </trkpt>
      <trkpt lat="43.24212" lon="-0.68707">
        <ele>187</ele>
        <time>2018-09-30T10:17:28.000Z</time>
      </trkpt>
      <trkpt lat="43.24215" lon="-0.68702">
        <ele>187</ele>
        <time>2018-09-30T10:17:29.000Z</time>
      </trkpt>
      <trkpt lat="43.24219" lon="-0.68698">
        <ele>187</ele>
        <time>2018-09-30T10:17:30.000Z</time>
      </trkpt>
      <trkpt lat="43.24222" lon="-0.68693">
        <ele>187</ele>
        <time>2018-09-30T10:17:31.000Z</time>
      </trkpt>
      <trkpt lat="43.24225" lon="-0.68689">
        <ele>187</ele>
        <time>2018-09-30T10:17:32.000Z</time>
      </trkpt>
      <trkpt lat="43.24228" lon="-0.68684">
        <ele>187</ele>
        <time>2018-09-30T10:17:33.000Z</time>
      </trkpt>
      <trkpt lat="43.24232" lon="-0.6868">
        <ele>186.4099968</ele>
        <time>2018-09-30T10:17:34.000Z</time>
      </trkpt>
      <trkpt lat="43.24235" lon="-0.68675">
        <ele>186</ele>
        <time>2018-09-30T10:17:35.000Z</time>
      </trkpt>
      <trkpt lat="43.24238" lon="-0.68671">
        <ele>186</ele>
        <time>2018-09-30T10:17:36.000Z</time>
      </trkpt>
      <trkpt lat="43.24242" lon="-0.68666">
        <ele>186.4142849306</ele>
        <time>2018-09-30T10:17:37.000Z</time>
      </trkpt>
      <trkpt lat="43.24245" lon="-0.68662">
        <ele>187</ele>
        <time>2018-09-30T10:17:38.000Z</time>
      </trkpt>
      <trkpt lat="43.24248" lon="-0.68657">
        <ele>187</ele>
        <time>2018-09-30T10:17:39.000Z</time>
      </trkpt>
      <trkpt lat="43.24251" lon="-0.68653">
        <ele>187</ele>
        <time>2018-09-30T10:17:40.000Z</time>
      </trkpt>
      <trkpt lat="43.24255" lon="-0.68648">
        <ele>187</ele>
        <time>2018-09-30T10:17:41.000Z</time>
      </trkpt>
      <trkpt lat="43.24258" lon="-0.68644">
        <ele>187</ele>
        <time>2018-09-30T10:17:42.000Z</time>
      </trkpt>
      <trkpt lat="43.24262" lon="-0.6864">
        <ele>187</ele>
        <time>2018-09-30T10:17:43.000Z</time>
      </trkpt>
      <trkpt lat="43.24265" lon="-0.68635">
        <ele>187</ele>
        <time>2018-09-30T10:17:44.000Z</time>
      </trkpt>
      <trkpt lat="43.24268" lon="-0.68631">
        <ele>187</ele>
        <time>2018-09-30T10:17:45.000Z</time>
      </trkpt>
      <trkpt lat="43.24272" lon="-0.68626">
        <ele>187</ele>
        <time>2018-09-30T10:17:46.000Z</time>
      </trkpt>
      <trkpt lat="43.24275" lon="-0.68621">
        <ele>187</ele>
        <time>2018-09-30T10:17:47.000Z</time>
      </trkpt>
      <trkpt lat="43.24278" lon="-0.68617">
        <ele>187</ele>
        <time>2018-09-30T10:17:48.000Z</time>
      </trkpt>
      <trkpt lat="43.24282" lon="-0.68612">
        <ele>187</ele>
        <time>2018-09-30T10:17:49.000Z</time>
      </trkpt>
      <trkpt lat="43.24285" lon="-0.68608">
        <ele>187</ele>
        <time>2018-09-30T10:17:50.000Z</time>
      </trkpt>
      <trkpt lat="43.24288" lon="-0.68603">
        <ele>187</ele>
        <time>2018-09-30T10:17:51.000Z</time>
      </trkpt>
      <trkpt lat="43.24292" lon="-0.68599">
        <ele>186.4099968</ele>
        <time>2018-09-30T10:17:52.000Z</time>
      </trkpt>
      <trkpt lat="43.24295" lon="-0.68594">
        <ele>186</ele>
        <time>2018-09-30T10:17:53.000Z</time>
      </trkpt>
      <trkpt lat="43.24298" lon="-0.68591">
        <ele>186</ele>
        <time>2018-09-30T10:17:54.000Z</time>
      </trkpt>
      <trkpt lat="43.24302" lon="-0.68588">
        <ele>186</ele>
        <time>2018-09-30T10:17:55.000Z</time>
      </trkpt>
      <trkpt lat="43.24306" lon="-0.68586">
        <ele>186</ele>
        <time>2018-09-30T10:17:56.000Z</time>
      </trkpt>
      <trkpt lat="43.24311" lon="-0.68587">
        <ele>186</ele>
        <time>2018-09-30T10:17:57.000Z</time>
      </trkpt>
      <trkpt lat="43.24315" lon="-0.68588">
        <ele>186</ele>
        <time>2018-09-30T10:17:58.000Z</time>
      </trkpt>
      <trkpt lat="43.24319" lon="-0.6859">
        <ele>186</ele>
        <time>2018-09-30T10:17:59.000Z</time>
      </trkpt>
      <trkpt lat="43.24323" lon="-0.68592">
        <ele>186</ele>
        <time>2018-09-30T10:18:00.000Z</time>
      </trkpt>
      <trkpt lat="43.24327" lon="-0.68594">
        <ele>186</ele>
        <time>2018-09-30T10:18:01.000Z</time>
      </trkpt>
      <trkpt lat="43.24331" lon="-0.68596">
        <ele>186</ele>
        <time>2018-09-30T10:18:02.000Z</time>
      </trkpt>
      <trkpt lat="43.24335" lon="-0.68598">
        <ele>186.5900032</ele>
        <time>2018-09-30T10:18:03.000Z</time>
      </trkpt>
      <trkpt lat="43.24339" lon="-0.686">
        <ele>187</ele>
        <time>2018-09-30T10:18:04.000Z</time>
      </trkpt>
      <trkpt lat="43.24343" lon="-0.68602">
        <ele>187</ele>
        <time>2018-09-30T10:18:05.000Z</time>
      </trkpt>
      <trkpt lat="43.24347" lon="-0.68604">
        <ele>187</ele>
        <time>2018-09-30T10:18:06.000Z</time>
      </trkpt>
      <trkpt lat="43.24352" lon="-0.68606">
        <ele>187</ele>
        <time>2018-09-30T10:18:07.000Z</time>
      </trkpt>
      <trkpt lat="43.24357" lon="-0.68608">
        <ele>186.54263658193</ele>
        <time>2018-09-30T10:18:08.000Z</time>
      </trkpt>
      <trkpt lat="43.24361" lon="-0.6861">
        <ele>186</ele>
        <time>2018-09-30T10:18:09.000Z</time>
      </trkpt>
      <trkpt lat="43.24366" lon="-0.68613">
        <ele>186</ele>
        <time>2018-09-30T10:18:10.000Z</time>
      </trkpt>
      <trkpt lat="43.24371" lon="-0.68615">
        <ele>186</ele>
        <time>2018-09-30T10:18:11.000Z</time>
      </trkpt>
      <trkpt lat="43.24376" lon="-0.68617">
        <ele>186</ele>
        <time>2018-09-30T10:18:12.000Z</time>
      </trkpt>
      <trkpt lat="43.2438" lon="-0.68619">
        <ele>186</ele>
        <time>2018-09-30T10:18:13.000Z</time>
      </trkpt>
      <trkpt lat="43.24385" lon="-0.68621">
        <ele>186</ele>
        <time>2018-09-30T10:18:14.000Z</time>
      </trkpt>
      <trkpt lat="43.2439" lon="-0.68623">
        <ele>186</ele>
        <time>2018-09-30T10:18:15.000Z</time>
      </trkpt>
      <trkpt lat="43.24395" lon="-0.68626">
        <ele>186</ele>
        <time>2018-09-30T10:18:16.000Z</time>
      </trkpt>
      <trkpt lat="43.24399" lon="-0.68628">
        <ele>185.4099968</ele>
        <time>2018-09-30T10:18:17.000Z</time>
      </trkpt>
      <trkpt lat="43.24404" lon="-0.6863">
        <ele>185</ele>
        <time>2018-09-30T10:18:18.000Z</time>
      </trkpt>
      <trkpt lat="43.24408" lon="-0.68632">
        <ele>185.45736795626</ele>
        <time>2018-09-30T10:18:19.000Z</time>
      </trkpt>
      <trkpt lat="43.24413" lon="-0.68634">
        <ele>186</ele>
        <time>2018-09-30T10:18:20.000Z</time>
      </trkpt>
      <trkpt lat="43.24417" lon="-0.68637">
        <ele>186</ele>
        <time>2018-09-30T10:18:21.000Z</time>
      </trkpt>
      <trkpt lat="43.24422" lon="-0.68639">
        <ele>185.41836681382</ele>
        <time>2018-09-30T10:18:22.000Z</time>
      </trkpt>
      <trkpt lat="43.24426" lon="-0.68641">
        <ele>185</ele>
        <time>2018-09-30T10:18:23.000Z</time>
      </trkpt>
      <trkpt lat="43.24431" lon="-0.68643">
        <ele>185</ele>
        <time>2018-09-30T10:18:24.000Z</time>
      </trkpt>
      <trkpt lat="43.24435" lon="-0.68646">
        <ele>185</ele>
        <time>2018-09-30T10:18:25.000Z</time>
      </trkpt>
      <trkpt lat="43.24439" lon="-0.68648">
        <ele>185</ele>
        <time>2018-09-30T10:18:26.000Z</time>
      </trkpt>
      <trkpt lat="43.24444" lon="-0.6865">
        <ele>185</ele>
        <time>2018-09-30T10:18:27.000Z</time>
      </trkpt>
      <trkpt lat="43.24448" lon="-0.68652">
        <ele>185</ele>
        <time>2018-09-30T10:18:28.000Z</time>
      </trkpt>
      <trkpt lat="43.24452" lon="-0.68654">
        <ele>185</ele>
        <time>2018-09-30T10:18:29.000Z</time>
      </trkpt>
      <trkpt lat="43.24457" lon="-0.68657">
        <ele>185</ele>
        <time>2018-09-30T10:18:30.000Z</time>
      </trkpt>
      <trkpt lat="43.24461" lon="-0.68659">
        <ele>185</ele>
        <time>2018-09-30T10:18:31.000Z</time>
      </trkpt>
      <trkpt lat="43.24465" lon="-0.68661">
        <ele>185</ele>
        <time>2018-09-30T10:18:32.000Z</time>
      </trkpt>
      <trkpt lat="43.2447" lon="-0.68663">
        <ele>185</ele>
        <time>2018-09-30T10:18:33.000Z</time>
      </trkpt>
      <trkpt lat="43.24474" lon="-0.68665">
        <ele>185</ele>
        <time>2018-09-30T10:18:34.000Z</time>
      </trkpt>
      <trkpt lat="43.24479" lon="-0.68668">
        <ele>185</ele>
        <time>2018-09-30T10:18:35.000Z</time>
      </trkpt>
      <trkpt lat="43.24483" lon="-0.6867">
        <ele>185</ele>
        <time>2018-09-30T10:18:36.000Z</time>
      </trkpt>
      <trkpt lat="43.24488" lon="-0.68672">
        <ele>185</ele>
        <time>2018-09-30T10:18:37.000Z</time>
      </trkpt>
      <trkpt lat="43.24492" lon="-0.68674">
        <ele>185</ele>
        <time>2018-09-30T10:18:38.000Z</time>
      </trkpt>
      <trkpt lat="43.24497" lon="-0.68676">
        <ele>185</ele>
        <time>2018-09-30T10:18:39.000Z</time>
      </trkpt>
      <trkpt lat="43.24501" lon="-0.68678">
        <ele>185</ele>
        <time>2018-09-30T10:18:40.000Z</time>
      </trkpt>
      <trkpt lat="43.24506" lon="-0.6868">
        <ele>185</ele>
        <time>2018-09-30T10:18:41.000Z</time>
      </trkpt>
      <trkpt lat="43.24511" lon="-0.68682">
        <ele>185</ele>
        <time>2018-09-30T10:18:42.000Z</time>
      </trkpt>
      <trkpt lat="43.24515" lon="-0.68684">
        <ele>185</ele>
        <time>2018-09-30T10:18:43.000Z</time>
      </trkpt>
      <trkpt lat="43.2452" lon="-0.68686">
        <ele>185</ele>
        <time>2018-09-30T10:18:44.000Z</time>
      </trkpt>
      <trkpt lat="43.24525" lon="-0.68689">
        <ele>185</ele>
        <time>2018-09-30T10:18:45.000Z</time>
      </trkpt>
      <trkpt lat="43.24529" lon="-0.68691">
        <ele>185</ele>
        <time>2018-09-30T10:18:46.000Z</time>
      </trkpt>
      <trkpt lat="43.24534" lon="-0.68693">
        <ele>185</ele>
        <time>2018-09-30T10:18:47.000Z</time>
      </trkpt>
      <trkpt lat="43.24539" lon="-0.68695">
        <ele>185</ele>
        <time>2018-09-30T10:18:48.000Z</time>
      </trkpt>
      <trkpt lat="43.24543" lon="-0.68697">
        <ele>185</ele>
        <time>2018-09-30T10:18:49.000Z</time>
      </trkpt>
      <trkpt lat="43.24547" lon="-0.687">
        <ele>185</ele>
        <time>2018-09-30T10:18:50.000Z</time>
      </trkpt>
      <trkpt lat="43.24552" lon="-0.68702">
        <ele>185</ele>
        <time>2018-09-30T10:18:51.000Z</time>
      </trkpt>
      <trkpt lat="43.24556" lon="-0.68704">
        <ele>185</ele>
        <time>2018-09-30T10:18:52.000Z</time>
      </trkpt>
      <trkpt lat="43.24561" lon="-0.68706">
        <ele>185</ele>
        <time>2018-09-30T10:18:53.000Z</time>
      </trkpt>
      <trkpt lat="43.24565" lon="-0.68707">
        <ele>185</ele>
        <time>2018-09-30T10:18:54.000Z</time>
      </trkpt>
      <trkpt lat="43.2457" lon="-0.68707">
        <ele>185</ele>
        <time>2018-09-30T10:18:55.000Z</time>
      </trkpt>
      <trkpt lat="43.24574" lon="-0.68705">
        <ele>185</ele>
        <time>2018-09-30T10:18:56.000Z</time>
      </trkpt>
      <trkpt lat="43.24578" lon="-0.68701">
        <ele>185</ele>
        <time>2018-09-30T10:18:57.000Z</time>
      </trkpt>
      <trkpt lat="43.24582" lon="-0.68698">
        <ele>185</ele>
        <time>2018-09-30T10:18:58.000Z</time>
      </trkpt>
      <trkpt lat="43.24585" lon="-0.68694">
        <ele>185</ele>
        <time>2018-09-30T10:18:59.000Z</time>
      </trkpt>
      <trkpt lat="43.24589" lon="-0.6869">
        <ele>185</ele>
        <time>2018-09-30T10:19:00.000Z</time>
      </trkpt>
      <trkpt lat="43.24593" lon="-0.68686">
        <ele>184.54263204374</ele>
        <time>2018-09-30T10:19:01.000Z</time>
      </trkpt>
      <trkpt lat="43.24597" lon="-0.68682">
        <ele>184</ele>
        <time>2018-09-30T10:19:02.000Z</time>
      </trkpt>
      <trkpt lat="43.24601" lon="-0.68677">
        <ele>184</ele>
        <time>2018-09-30T10:19:03.000Z</time>
      </trkpt>
      <trkpt lat="43.24605" lon="-0.68673">
        <ele>184</ele>
        <time>2018-09-30T10:19:04.000Z</time>
      </trkpt>
      <trkpt lat="43.24608" lon="-0.68669">
        <ele>184</ele>
        <time>2018-09-30T10:19:05.000Z</time>
      </trkpt>
      <trkpt lat="43.24612" lon="-0.68665">
        <ele>184</ele>
        <time>2018-09-30T10:19:06.000Z</time>
      </trkpt>
      <trkpt lat="43.24616" lon="-0.68661">
        <ele>184</ele>
        <time>2018-09-30T10:19:07.000Z</time>
      </trkpt>
      <trkpt lat="43.2462" lon="-0.68657">
        <ele>184</ele>
        <time>2018-09-30T10:19:08.000Z</time>
      </trkpt>
      <trkpt lat="43.24624" lon="-0.68652">
        <ele>184</ele>
        <time>2018-09-30T10:19:09.000Z</time>
      </trkpt>
      <trkpt lat="43.24628" lon="-0.68649">
        <ele>184</ele>
        <time>2018-09-30T10:19:10.000Z</time>
      </trkpt>
      <trkpt lat="43.24633" lon="-0.68645">
        <ele>184</ele>
        <time>2018-09-30T10:19:11.000Z</time>
      </trkpt>
      <trkpt lat="43.24637" lon="-0.68641">
        <ele>184</ele>
        <time>2018-09-30T10:19:12.000Z</time>
      </trkpt>
      <trkpt lat="43.24641" lon="-0.68637">
        <ele>184</ele>
        <time>2018-09-30T10:19:13.000Z</time>
      </trkpt>
      <trkpt lat="43.24646" lon="-0.68633">
        <ele>184</ele>
        <time>2018-09-30T10:19:14.000Z</time>
      </trkpt>
      <trkpt lat="43.2465" lon="-0.6863">
        <ele>184</ele>
        <time>2018-09-30T10:19:15.000Z</time>
      </trkpt>
      <trkpt lat="43.24655" lon="-0.68626">
        <ele>184</ele>
        <time>2018-09-30T10:19:16.000Z</time>
      </trkpt>
      <trkpt lat="43.2466" lon="-0.68623">
        <ele>184</ele>
        <time>2018-09-30T10:19:17.000Z</time>
      </trkpt>
      <trkpt lat="43.24665" lon="-0.68619">
        <ele>184</ele>
        <time>2018-09-30T10:19:18.000Z</time>
      </trkpt>
      <trkpt lat="43.24669" lon="-0.68616">
        <ele>184</ele>
        <time>2018-09-30T10:19:19.000Z</time>
      </trkpt>
      <trkpt lat="43.24674" lon="-0.68613">
        <ele>184</ele>
        <time>2018-09-30T10:19:20.000Z</time>
      </trkpt>
      <trkpt lat="43.24679" lon="-0.6861">
        <ele>184</ele>
        <time>2018-09-30T10:19:21.000Z</time>
      </trkpt>
      <trkpt lat="43.24684" lon="-0.68607">
        <ele>184</ele>
        <time>2018-09-30T10:19:22.000Z</time>
      </trkpt>
      <trkpt lat="43.24689" lon="-0.68604">
        <ele>184</ele>
        <time>2018-09-30T10:19:23.000Z</time>
      </trkpt>
      <trkpt lat="43.24693" lon="-0.68601">
        <ele>184</ele>
        <time>2018-09-30T10:19:24.000Z</time>
      </trkpt>
      <trkpt lat="43.24698" lon="-0.68597">
        <ele>184</ele>
        <time>2018-09-30T10:19:25.000Z</time>
      </trkpt>
      <trkpt lat="43.24703" lon="-0.68593">
        <ele>184</ele>
        <time>2018-09-30T10:19:26.000Z</time>
      </trkpt>
      <trkpt lat="43.24707" lon="-0.68589">
        <ele>184</ele>
        <time>2018-09-30T10:19:27.000Z</time>
      </trkpt>
      <trkpt lat="43.24712" lon="-0.68585">
        <ele>184</ele>
        <time>2018-09-30T10:19:28.000Z</time>
      </trkpt>
      <trkpt lat="43.24716" lon="-0.68581">
        <ele>184</ele>
        <time>2018-09-30T10:19:29.000Z</time>
      </trkpt>
      <trkpt lat="43.2472" lon="-0.68576">
        <ele>184</ele>
        <time>2018-09-30T10:19:30.000Z</time>
      </trkpt>
      <trkpt lat="43.24724" lon="-0.68572">
        <ele>184</ele>
        <time>2018-09-30T10:19:31.000Z</time>
      </trkpt>
      <trkpt lat="43.24729" lon="-0.68567">
        <ele>184</ele>
        <time>2018-09-30T10:19:32.000Z</time>
      </trkpt>
      <trkpt lat="43.24733" lon="-0.68562">
        <ele>184</ele>
        <time>2018-09-30T10:19:33.000Z</time>
      </trkpt>
      <trkpt lat="43.24737" lon="-0.68558">
        <ele>184</ele>
        <time>2018-09-30T10:19:34.000Z</time>
      </trkpt>
      <trkpt lat="43.24741" lon="-0.68553">
        <ele>184</ele>
        <time>2018-09-30T10:19:35.000Z</time>
      </trkpt>
      <trkpt lat="43.24745" lon="-0.68548">
        <ele>184</ele>
        <time>2018-09-30T10:19:36.000Z</time>
      </trkpt>
      <trkpt lat="43.24749" lon="-0.68544">
        <ele>184</ele>
        <time>2018-09-30T10:19:37.000Z</time>
      </trkpt>
      <trkpt lat="43.24754" lon="-0.6854">
        <ele>184</ele>
        <time>2018-09-30T10:19:38.000Z</time>
      </trkpt>
      <trkpt lat="43.24758" lon="-0.68535">
        <ele>184</ele>
        <time>2018-09-30T10:19:39.000Z</time>
      </trkpt>
      <trkpt lat="43.24762" lon="-0.68531">
        <ele>183.5857150694</ele>
        <time>2018-09-30T10:19:40.000Z</time>
      </trkpt>
      <trkpt lat="43.24766" lon="-0.68526">
        <ele>183</ele>
        <time>2018-09-30T10:19:41.000Z</time>
      </trkpt>
      <trkpt lat="43.2477" lon="-0.68522">
        <ele>183</ele>
        <time>2018-09-30T10:19:42.000Z</time>
      </trkpt>
      <trkpt lat="43.24775" lon="-0.68518">
        <ele>183</ele>
        <time>2018-09-30T10:19:43.000Z</time>
      </trkpt>
      <trkpt lat="43.24779" lon="-0.68514">
        <ele>183</ele>
        <time>2018-09-30T10:19:44.000Z</time>
      </trkpt>
      <trkpt lat="43.24783" lon="-0.6851">
        <ele>183</ele>
        <time>2018-09-30T10:19:45.000Z</time>
      </trkpt>
      <trkpt lat="43.24787" lon="-0.68506">
        <ele>183</ele>
        <time>2018-09-30T10:19:46.000Z</time>
      </trkpt>
      <trkpt lat="43.24791" lon="-0.68502">
        <ele>183.5900032</ele>
        <time>2018-09-30T10:19:47.000Z</time>
      </trkpt>
      <trkpt lat="43.24796" lon="-0.68499">
        <ele>184</ele>
        <time>2018-09-30T10:19:48.000Z</time>
      </trkpt>
      <trkpt lat="43.248" lon="-0.68495">
        <ele>184</ele>
        <time>2018-09-30T10:19:49.000Z</time>
      </trkpt>
      <trkpt lat="43.24803" lon="-0.68492">
        <ele>184</ele>
        <time>2018-09-30T10:19:50.000Z</time>
      </trkpt>
      <trkpt lat="43.24807" lon="-0.68489">
        <ele>183.4099968</ele>
        <time>2018-09-30T10:19:51.000Z</time>
      </trkpt>
      <trkpt lat="43.24811" lon="-0.68485">
        <ele>182.4099968</ele>
        <time>2018-09-30T10:19:52.000Z</time>
      </trkpt>
      <trkpt lat="43.24815" lon="-0.68481">
        <ele>182</ele>
        <time>2018-09-30T10:19:53.000Z</time>
      </trkpt>
      <trkpt lat="43.24819" lon="-0.68477">
        <ele>182</ele>
        <time>2018-09-30T10:19:54.000Z</time>
      </trkpt>
      <trkpt lat="43.24824" lon="-0.68472">
        <ele>182</ele>
        <time>2018-09-30T10:19:55.000Z</time>
      </trkpt>
      <trkpt lat="43.24829" lon="-0.68467">
        <ele>182</ele>
        <time>2018-09-30T10:19:56.000Z</time>
      </trkpt>
      <trkpt lat="43.24834" lon="-0.68461">
        <ele>181.4099968</ele>
        <time>2018-09-30T10:19:57.000Z</time>
      </trkpt>
      <trkpt lat="43.24839" lon="-0.68454">
        <ele>180.55302787879</ele>
        <time>2018-09-30T10:19:58.000Z</time>
      </trkpt>
      <trkpt lat="43.24844" lon="-0.68447">
        <ele>180</ele>
        <time>2018-09-30T10:19:59.000Z</time>
      </trkpt>
      <trkpt lat="43.24848" lon="-0.6844">
        <ele>180</ele>
        <time>2018-09-30T10:20:00.000Z</time>
      </trkpt>
      <trkpt lat="43.24852" lon="-0.68433">
        <ele>180</ele>
        <time>2018-09-30T10:20:01.000Z</time>
      </trkpt>
      <trkpt lat="43.24856" lon="-0.68426">
        <ele>180</ele>
        <time>2018-09-30T10:20:02.000Z</time>
      </trkpt>
      <trkpt lat="43.24859" lon="-0.6842">
        <ele>179.57746808971</ele>
        <time>2018-09-30T10:20:03.000Z</time>
      </trkpt>
      <trkpt lat="43.24863" lon="-0.68414">
        <ele>179</ele>
        <time>2018-09-30T10:20:04.000Z</time>
      </trkpt>
      <trkpt lat="43.24867" lon="-0.68409">
        <ele>178.4099968</ele>
        <time>2018-09-30T10:20:05.000Z</time>
      </trkpt>
      <trkpt lat="43.2487" lon="-0.68404">
        <ele>177.55302787879</ele>
        <time>2018-09-30T10:20:06.000Z</time>
      </trkpt>
      <trkpt lat="43.24873" lon="-0.68399">
        <ele>176.72448832987</ele>
        <time>2018-09-30T10:20:07.000Z</time>
      </trkpt>
      <trkpt lat="43.24874" lon="-0.68391">
        <ele>176</ele>
        <time>2018-09-30T10:20:08.000Z</time>
      </trkpt>
      <trkpt lat="43.24873" lon="-0.68383">
        <ele>176</ele>
        <time>2018-09-30T10:20:09.000Z</time>
      </trkpt>
      <trkpt lat="43.24869" lon="-0.68375">
        <ele>174.8199936</ele>
        <time>2018-09-30T10:20:10.000Z</time>
      </trkpt>
      <trkpt lat="43.24864" lon="-0.68369">
        <ele>174</ele>
        <time>2018-09-30T10:20:11.000Z</time>
      </trkpt>
      <trkpt lat="43.24858" lon="-0.68363">
        <ele>174</ele>
        <time>2018-09-30T10:20:12.000Z</time>
      </trkpt>
      <trkpt lat="43.24853" lon="-0.68358">
        <ele>173.4099968</ele>
        <time>2018-09-30T10:20:13.000Z</time>
      </trkpt>
      <trkpt lat="43.24847" lon="-0.68352">
        <ele>173</ele>
        <time>2018-09-30T10:20:14.000Z</time>
      </trkpt>
      <trkpt lat="43.24842" lon="-0.68346">
        <ele>173</ele>
        <time>2018-09-30T10:20:15.000Z</time>
      </trkpt>
      <trkpt lat="43.24838" lon="-0.68339">
        <ele>173</ele>
        <time>2018-09-30T10:20:16.000Z</time>
      </trkpt>
      <trkpt lat="43.24836" lon="-0.6833">
        <ele>172.4099968</ele>
        <time>2018-09-30T10:20:17.000Z</time>
      </trkpt>
      <trkpt lat="43.24834" lon="-0.68321">
        <ele>172</ele>
        <time>2018-09-30T10:20:18.000Z</time>
      </trkpt>
      <trkpt lat="43.24833" lon="-0.68311">
        <ele>172</ele>
        <time>2018-09-30T10:20:19.000Z</time>
      </trkpt>
      <trkpt lat="43.24833" lon="-0.68302">
        <ele>172</ele>
        <time>2018-09-30T10:20:20.000Z</time>
      </trkpt>
      <trkpt lat="43.24834" lon="-0.68292">
        <ele>171.56296162853</ele>
        <time>2018-09-30T10:20:21.000Z</time>
      </trkpt>
      <trkpt lat="43.24835" lon="-0.68283">
        <ele>171</ele>
        <time>2018-09-30T10:20:22.000Z</time>
      </trkpt>
      <trkpt lat="43.24836" lon="-0.68275">
        <ele>171</ele>
        <time>2018-09-30T10:20:23.000Z</time>
      </trkpt>
      <trkpt lat="43.24837" lon="-0.68266">
        <ele>170.4099968</ele>
        <time>2018-09-30T10:20:24.000Z</time>
      </trkpt>
      <trkpt lat="43.24838" lon="-0.68258">
        <ele>170</ele>
        <time>2018-09-30T10:20:25.000Z</time>
      </trkpt>
      <trkpt lat="43.2484" lon="-0.6825">
        <ele>170</ele>
        <time>2018-09-30T10:20:26.000Z</time>
      </trkpt>
      <trkpt lat="43.24842" lon="-0.68241">
        <ele>170</ele>
        <time>2018-09-30T10:20:27.000Z</time>
      </trkpt>
      <trkpt lat="43.24844" lon="-0.68233">
        <ele>170</ele>
        <time>2018-09-30T10:20:28.000Z</time>
      </trkpt>
      <trkpt lat="43.24847" lon="-0.68225">
        <ele>170</ele>
        <time>2018-09-30T10:20:29.000Z</time>
      </trkpt>
      <trkpt lat="43.2485" lon="-0.68218">
        <ele>170</ele>
        <time>2018-09-30T10:20:30.000Z</time>
      </trkpt>
      <trkpt lat="43.24852" lon="-0.6821">
        <ele>170</ele>
        <time>2018-09-30T10:20:31.000Z</time>
      </trkpt>
      <trkpt lat="43.24855" lon="-0.68202">
        <ele>170</ele>
        <time>2018-09-30T10:20:32.000Z</time>
      </trkpt>
      <trkpt lat="43.24858" lon="-0.68194">
        <ele>169.4099968</ele>
        <time>2018-09-30T10:20:33.000Z</time>
      </trkpt>
      <trkpt lat="43.2486" lon="-0.68187">
        <ele>169</ele>
        <time>2018-09-30T10:20:34.000Z</time>
      </trkpt>
      <trkpt lat="43.24862" lon="-0.68178">
        <ele>169</ele>
        <time>2018-09-30T10:20:35.000Z</time>
      </trkpt>
      <trkpt lat="43.24864" lon="-0.68171">
        <ele>169.5900032</ele>
        <time>2018-09-30T10:20:36.000Z</time>
      </trkpt>
      <trkpt lat="43.24866" lon="-0.68163">
        <ele>169.55302787879</ele>
        <time>2018-09-30T10:20:37.000Z</time>
      </trkpt>
      <trkpt lat="43.24867" lon="-0.68155">
        <ele>169</ele>
        <time>2018-09-30T10:20:38.000Z</time>
      </trkpt>
      <trkpt lat="43.24868" lon="-0.68147">
        <ele>169</ele>
        <time>2018-09-30T10:20:39.000Z</time>
      </trkpt>
      <trkpt lat="43.24869" lon="-0.68139">
        <ele>169</ele>
        <time>2018-09-30T10:20:40.000Z</time>
      </trkpt>
      <trkpt lat="43.2487" lon="-0.68131">
        <ele>169</ele>
        <time>2018-09-30T10:20:41.000Z</time>
      </trkpt>
      <trkpt lat="43.2487" lon="-0.68122">
        <ele>169</ele>
        <time>2018-09-30T10:20:42.000Z</time>
      </trkpt>
      <trkpt lat="43.24871" lon="-0.68114">
        <ele>168.4099968</ele>
        <time>2018-09-30T10:20:43.000Z</time>
      </trkpt>
      <trkpt lat="43.24871" lon="-0.68106">
        <ele>168</ele>
        <time>2018-09-30T10:20:44.000Z</time>
      </trkpt>
      <trkpt lat="43.24871" lon="-0.68098">
        <ele>168</ele>
        <time>2018-09-30T10:20:45.000Z</time>
      </trkpt>
      <trkpt lat="43.24871" lon="-0.6809">
        <ele>168</ele>
        <time>2018-09-30T10:20:46.000Z</time>
      </trkpt>
      <trkpt lat="43.2487" lon="-0.68083">
        <ele>168</ele>
        <time>2018-09-30T10:20:47.000Z</time>
      </trkpt>
      <trkpt lat="43.24869" lon="-0.68075">
        <ele>168</ele>
        <time>2018-09-30T10:20:48.000Z</time>
      </trkpt>
      <trkpt lat="43.24867" lon="-0.68069">
        <ele>168</ele>
        <time>2018-09-30T10:20:49.000Z</time>
      </trkpt>
      <trkpt lat="43.24863" lon="-0.68064">
        <ele>168</ele>
        <time>2018-09-30T10:20:50.000Z</time>
      </trkpt>
      <trkpt lat="43.24858" lon="-0.68062">
        <ele>168</ele>
        <time>2018-09-30T10:20:51.000Z</time>
      </trkpt>
      <trkpt lat="43.24852" lon="-0.68062">
        <ele>168</ele>
        <time>2018-09-30T10:20:52.000Z</time>
      </trkpt>
      <trkpt lat="43.24847" lon="-0.68062">
        <ele>168</ele>
        <time>2018-09-30T10:20:53.000Z</time>
      </trkpt>
      <trkpt lat="43.24841" lon="-0.68062">
        <ele>168</ele>
        <time>2018-09-30T10:20:54.000Z</time>
      </trkpt>
      <trkpt lat="43.24835" lon="-0.68062">
        <ele>168</ele>
        <time>2018-09-30T10:20:55.000Z</time>
      </trkpt>
      <trkpt lat="43.2483" lon="-0.68062">
        <ele>168</ele>
        <time>2018-09-30T10:20:56.000Z</time>
      </trkpt>
      <trkpt lat="43.24824" lon="-0.68062">
        <ele>168</ele>
        <time>2018-09-30T10:20:57.000Z</time>
      </trkpt>
      <trkpt lat="43.24819" lon="-0.68062">
        <ele>168</ele>
        <time>2018-09-30T10:20:58.000Z</time>
      </trkpt>
      <trkpt lat="43.24814" lon="-0.68061">
        <ele>168</ele>
        <time>2018-09-30T10:20:59.000Z</time>
      </trkpt>
      <trkpt lat="43.24808" lon="-0.68061">
        <ele>168</ele>
        <time>2018-09-30T10:21:00.000Z</time>
      </trkpt>
      <trkpt lat="43.24803" lon="-0.6806">
        <ele>168</ele>
        <time>2018-09-30T10:21:01.000Z</time>
      </trkpt>
      <trkpt lat="43.24798" lon="-0.6806">
        <ele>168</ele>
        <time>2018-09-30T10:21:02.000Z</time>
      </trkpt>
      <trkpt lat="43.24792" lon="-0.6806">
        <ele>168</ele>
        <time>2018-09-30T10:21:03.000Z</time>
      </trkpt>
      <trkpt lat="43.24787" lon="-0.6806">
        <ele>168</ele>
        <time>2018-09-30T10:21:04.000Z</time>
      </trkpt>
      <trkpt lat="43.24782" lon="-0.6806">
        <ele>168</ele>
        <time>2018-09-30T10:21:05.000Z</time>
      </trkpt>
      <trkpt lat="43.24777" lon="-0.6806">
        <ele>168</ele>
        <time>2018-09-30T10:21:06.000Z</time>
      </trkpt>
      <trkpt lat="43.24772" lon="-0.6806">
        <ele>168</ele>
        <time>2018-09-30T10:21:07.000Z</time>
      </trkpt>
      <trkpt lat="43.24767" lon="-0.68059">
        <ele>168</ele>
        <time>2018-09-30T10:21:08.000Z</time>
      </trkpt>
      <trkpt lat="43.24762" lon="-0.68059">
        <ele>168</ele>
        <time>2018-09-30T10:21:09.000Z</time>
      </trkpt>
      <trkpt lat="43.24757" lon="-0.68059">
        <ele>168</ele>
        <time>2018-09-30T10:21:10.000Z</time>
      </trkpt>
      <trkpt lat="43.24752" lon="-0.68059">
        <ele>168</ele>
        <time>2018-09-30T10:21:11.000Z</time>
      </trkpt>
      <trkpt lat="43.24747" lon="-0.68059">
        <ele>168</ele>
        <time>2018-09-30T10:21:12.000Z</time>
      </trkpt>
      <trkpt lat="43.24742" lon="-0.68059">
        <ele>168</ele>
        <time>2018-09-30T10:21:13.000Z</time>
      </trkpt>
      <trkpt lat="43.24737" lon="-0.68058">
        <ele>168</ele>
        <time>2018-09-30T10:21:14.000Z</time>
      </trkpt>
      <trkpt lat="43.24732" lon="-0.68058">
        <ele>168</ele>
        <time>2018-09-30T10:21:15.000Z</time>
      </trkpt>
      <trkpt lat="43.24727" lon="-0.68058">
        <ele>168</ele>
        <time>2018-09-30T10:21:16.000Z</time>
      </trkpt>
      <trkpt lat="43.24722" lon="-0.68057">
        <ele>168</ele>
        <time>2018-09-30T10:21:17.000Z</time>
      </trkpt>
      <trkpt lat="43.24717" lon="-0.68057">
        <ele>168</ele>
        <time>2018-09-30T10:21:18.000Z</time>
      </trkpt>
      <trkpt lat="43.24712" lon="-0.68056">
        <ele>168</ele>
        <time>2018-09-30T10:21:19.000Z</time>
      </trkpt>
      <trkpt lat="43.24707" lon="-0.68055">
        <ele>168</ele>
        <time>2018-09-30T10:21:20.000Z</time>
      </trkpt>
      <trkpt lat="43.24702" lon="-0.68055">
        <ele>168</ele>
        <time>2018-09-30T10:21:21.000Z</time>
      </trkpt>
      <trkpt lat="43.24697" lon="-0.68055">
        <ele>168</ele>
        <time>2018-09-30T10:21:22.000Z</time>
      </trkpt>
      <trkpt lat="43.24692" lon="-0.68056">
        <ele>168</ele>
        <time>2018-09-30T10:21:23.000Z</time>
      </trkpt>
      <trkpt lat="43.24687" lon="-0.68057">
        <ele>168</ele>
        <time>2018-09-30T10:21:24.000Z</time>
      </trkpt>
      <trkpt lat="43.24682" lon="-0.68059">
        <ele>168</ele>
        <time>2018-09-30T10:21:25.000Z</time>
      </trkpt>
      <trkpt lat="43.24677" lon="-0.68061">
        <ele>168</ele>
        <time>2018-09-30T10:21:26.000Z</time>
      </trkpt>
      <trkpt lat="43.24673" lon="-0.68064">
        <ele>168</ele>
        <time>2018-09-30T10:21:27.000Z</time>
      </trkpt>
      <trkpt lat="43.24668" lon="-0.68068">
        <ele>168</ele>
        <time>2018-09-30T10:21:28.000Z</time>
      </trkpt>
      <trkpt lat="43.24663" lon="-0.6807">
        <ele>168</ele>
        <time>2018-09-30T10:21:29.000Z</time>
      </trkpt>
      <trkpt lat="43.24659" lon="-0.68073">
        <ele>168</ele>
        <time>2018-09-30T10:21:30.000Z</time>
      </trkpt>
      <trkpt lat="43.24654" lon="-0.68075">
        <ele>168</ele>
        <time>2018-09-30T10:21:31.000Z</time>
      </trkpt>
      <trkpt lat="43.2465" lon="-0.68078">
        <ele>168</ele>
        <time>2018-09-30T10:21:32.000Z</time>
      </trkpt>
      <trkpt lat="43.24645" lon="-0.68081">
        <ele>168</ele>
        <time>2018-09-30T10:21:33.000Z</time>
      </trkpt>
      <trkpt lat="43.24641" lon="-0.68084">
        <ele>168</ele>
        <time>2018-09-30T10:21:34.000Z</time>
      </trkpt>
      <trkpt lat="43.24637" lon="-0.68087">
        <ele>168</ele>
        <time>2018-09-30T10:21:35.000Z</time>
      </trkpt>
      <trkpt lat="43.24633" lon="-0.6809">
        <ele>168</ele>
        <time>2018-09-30T10:21:36.000Z</time>
      </trkpt>
      <trkpt lat="43.24629" lon="-0.68094">
        <ele>168</ele>
        <time>2018-09-30T10:21:37.000Z</time>
      </trkpt>
      <trkpt lat="43.24625" lon="-0.68097">
        <ele>168</ele>
        <time>2018-09-30T10:21:38.000Z</time>
      </trkpt>
      <trkpt lat="43.24621" lon="-0.68101">
        <ele>168.5900032</ele>
        <time>2018-09-30T10:21:39.000Z</time>
      </trkpt>
      <trkpt lat="43.24617" lon="-0.68104">
        <ele>169</ele>
        <time>2018-09-30T10:21:40.000Z</time>
      </trkpt>
      <trkpt lat="43.24613" lon="-0.68107">
        <ele>169</ele>
        <time>2018-09-30T10:21:41.000Z</time>
      </trkpt>
      <trkpt lat="43.24609" lon="-0.6811">
        <ele>169</ele>
        <time>2018-09-30T10:21:42.000Z</time>
      </trkpt>
      <trkpt lat="43.24604" lon="-0.68113">
        <ele>169</ele>
        <time>2018-09-30T10:21:43.000Z</time>
      </trkpt>
      <trkpt lat="43.246" lon="-0.68116">
        <ele>169</ele>
        <time>2018-09-30T10:21:44.000Z</time>
      </trkpt>
      <trkpt lat="43.24596" lon="-0.68118">
        <ele>169</ele>
        <time>2018-09-30T10:21:45.000Z</time>
      </trkpt>
      <trkpt lat="43.24592" lon="-0.68121">
        <ele>169</ele>
        <time>2018-09-30T10:21:46.000Z</time>
      </trkpt>
      <trkpt lat="43.24588" lon="-0.68124">
        <ele>169</ele>
        <time>2018-09-30T10:21:47.000Z</time>
      </trkpt>
      <trkpt lat="43.24584" lon="-0.68127">
        <ele>169</ele>
        <time>2018-09-30T10:21:48.000Z</time>
      </trkpt>
      <trkpt lat="43.2458" lon="-0.6813">
        <ele>169</ele>
        <time>2018-09-30T10:21:49.000Z</time>
      </trkpt>
      <trkpt lat="43.24577" lon="-0.68133">
        <ele>169</ele>
        <time>2018-09-30T10:21:50.000Z</time>
      </trkpt>
      <trkpt lat="43.24573" lon="-0.68137">
        <ele>169</ele>
        <time>2018-09-30T10:21:51.000Z</time>
      </trkpt>
      <trkpt lat="43.2457" lon="-0.68141">
        <ele>169</ele>
        <time>2018-09-30T10:21:52.000Z</time>
      </trkpt>
      <trkpt lat="43.24568" lon="-0.68146">
        <ele>169</ele>
        <time>2018-09-30T10:21:53.000Z</time>
      </trkpt>
      <trkpt lat="43.24565" lon="-0.68151">
        <ele>169</ele>
        <time>2018-09-30T10:21:54.000Z</time>
      </trkpt>
      <trkpt lat="43.24564" lon="-0.68155">
        <ele>169.5900032</ele>
        <time>2018-09-30T10:21:55.000Z</time>
      </trkpt>
      <trkpt lat="43.24562" lon="-0.6816">
        <ele>170</ele>
        <time>2018-09-30T10:21:56.000Z</time>
      </trkpt>
      <trkpt lat="43.2456" lon="-0.68164">
        <ele>170</ele>
        <time>2018-09-30T10:21:57.000Z</time>
      </trkpt>
      <trkpt lat="43.24557" lon="-0.68168">
        <ele>170</ele>
        <time>2018-09-30T10:21:58.000Z</time>
      </trkpt>
      <trkpt lat="43.24554" lon="-0.68171">
        <ele>170</ele>
        <time>2018-09-30T10:21:59.000Z</time>
      </trkpt>
      <trkpt lat="43.24551" lon="-0.68173">
        <ele>170</ele>
        <time>2018-09-30T10:22:00.000Z</time>
      </trkpt>
      <trkpt lat="43.24547" lon="-0.68174">
        <ele>170</ele>
        <time>2018-09-30T10:22:01.000Z</time>
      </trkpt>
      <trkpt lat="43.24543" lon="-0.68174">
        <ele>170</ele>
        <time>2018-09-30T10:22:02.000Z</time>
      </trkpt>
      <trkpt lat="43.24539" lon="-0.68174">
        <ele>170</ele>
        <time>2018-09-30T10:22:03.000Z</time>
      </trkpt>
      <trkpt lat="43.24535" lon="-0.68172">
        <ele>170</ele>
        <time>2018-09-30T10:22:04.000Z</time>
      </trkpt>
      <trkpt lat="43.24531" lon="-0.6817">
        <ele>170</ele>
        <time>2018-09-30T10:22:05.000Z</time>
      </trkpt>
      <trkpt lat="43.24527" lon="-0.68167">
        <ele>170</ele>
        <time>2018-09-30T10:22:06.000Z</time>
      </trkpt>
      <trkpt lat="43.24523" lon="-0.68164">
        <ele>170</ele>
        <time>2018-09-30T10:22:07.000Z</time>
      </trkpt>
      <trkpt lat="43.24519" lon="-0.68161">
        <ele>170</ele>
        <time>2018-09-30T10:22:08.000Z</time>
      </trkpt>
      <trkpt lat="43.24514" lon="-0.68158">
        <ele>170</ele>
        <time>2018-09-30T10:22:09.000Z</time>
      </trkpt>
      <trkpt lat="43.24509" lon="-0.68156">
        <ele>169.59420101658</ele>
        <time>2018-09-30T10:22:10.000Z</time>
      </trkpt>
      <trkpt lat="43.24504" lon="-0.68154">
        <ele>169</ele>
        <time>2018-09-30T10:22:11.000Z</time>
      </trkpt>
      <trkpt lat="43.24499" lon="-0.68153">
        <ele>169</ele>
        <time>2018-09-30T10:22:12.000Z</time>
      </trkpt>
      <trkpt lat="43.24494" lon="-0.68153">
        <ele>169</ele>
        <time>2018-09-30T10:22:13.000Z</time>
      </trkpt>
      <trkpt lat="43.24489" lon="-0.68153">
        <ele>169</ele>
        <time>2018-09-30T10:22:14.000Z</time>
      </trkpt>
      <trkpt lat="43.24484" lon="-0.68153">
        <ele>169</ele>
        <time>2018-09-30T10:22:15.000Z</time>
      </trkpt>
      <trkpt lat="43.2448" lon="-0.68152">
        <ele>169</ele>
        <time>2018-09-30T10:22:16.000Z</time>
      </trkpt>
      <trkpt lat="43.24475" lon="-0.68151">
        <ele>169</ele>
        <time>2018-09-30T10:22:17.000Z</time>
      </trkpt>
      <trkpt lat="43.24471" lon="-0.68149">
        <ele>169</ele>
        <time>2018-09-30T10:22:18.000Z</time>
      </trkpt>
      <trkpt lat="43.24467" lon="-0.68145">
        <ele>169</ele>
        <time>2018-09-30T10:22:19.000Z</time>
      </trkpt>
      <trkpt lat="43.24464" lon="-0.6814">
        <ele>169</ele>
        <time>2018-09-30T10:22:20.000Z</time>
      </trkpt>
      <trkpt lat="43.24461" lon="-0.68134">
        <ele>169</ele>
        <time>2018-09-30T10:22:21.000Z</time>
      </trkpt>
      <trkpt lat="43.2446" lon="-0.68127">
        <ele>169</ele>
        <time>2018-09-30T10:22:22.000Z</time>
      </trkpt>
      <trkpt lat="43.24459" lon="-0.6812">
        <ele>169</ele>
        <time>2018-09-30T10:22:23.000Z</time>
      </trkpt>
      <trkpt lat="43.24459" lon="-0.68113">
        <ele>169</ele>
        <time>2018-09-30T10:22:24.000Z</time>
      </trkpt>
      <trkpt lat="43.24458" lon="-0.68106">
        <ele>169</ele>
        <time>2018-09-30T10:22:25.000Z</time>
      </trkpt>
      <trkpt lat="43.24458" lon="-0.68099">
        <ele>169</ele>
        <time>2018-09-30T10:22:26.000Z</time>
      </trkpt>
      <trkpt lat="43.24458" lon="-0.68092">
        <ele>168.41836681382</ele>
        <time>2018-09-30T10:22:27.000Z</time>
      </trkpt>
      <trkpt lat="43.24458" lon="-0.68086">
        <ele>168</ele>
        <time>2018-09-30T10:22:28.000Z</time>
      </trkpt>
      <trkpt lat="43.24458" lon="-0.6808">
        <ele>168</ele>
        <time>2018-09-30T10:22:29.000Z</time>
      </trkpt>
      <trkpt lat="43.24458" lon="-0.68074">
        <ele>168</ele>
        <time>2018-09-30T10:22:30.000Z</time>
      </trkpt>
      <trkpt lat="43.24458" lon="-0.68068">
        <ele>168</ele>
        <time>2018-09-30T10:22:31.000Z</time>
      </trkpt>
      <trkpt lat="43.24458" lon="-0.68062">
        <ele>168</ele>
        <time>2018-09-30T10:22:32.000Z</time>
      </trkpt>
      <trkpt lat="43.24458" lon="-0.68056">
        <ele>168.5900032</ele>
        <time>2018-09-30T10:22:33.000Z</time>
      </trkpt>
      <trkpt lat="43.24458" lon="-0.6805">
        <ele>169</ele>
        <time>2018-09-30T10:22:34.000Z</time>
      </trkpt>
      <trkpt lat="43.24458" lon="-0.68044">
        <ele>169</ele>
        <time>2018-09-30T10:22:35.000Z</time>
      </trkpt>
      <trkpt lat="43.24458" lon="-0.68038">
        <ele>169</ele>
        <time>2018-09-30T10:22:36.000Z</time>
      </trkpt>
      <trkpt lat="43.24459" lon="-0.68033">
        <ele>169</ele>
        <time>2018-09-30T10:22:37.000Z</time>
      </trkpt>
      <trkpt lat="43.24459" lon="-0.68027">
        <ele>169</ele>
        <time>2018-09-30T10:22:38.000Z</time>
      </trkpt>
      <trkpt lat="43.2446" lon="-0.68021">
        <ele>169</ele>
        <time>2018-09-30T10:22:39.000Z</time>
      </trkpt>
      <trkpt lat="43.2446" lon="-0.68015">
        <ele>169</ele>
        <time>2018-09-30T10:22:40.000Z</time>
      </trkpt>
      <trkpt lat="43.2446" lon="-0.68009">
        <ele>169</ele>
        <time>2018-09-30T10:22:41.000Z</time>
      </trkpt>
      <trkpt lat="43.24459" lon="-0.68003">
        <ele>169</ele>
        <time>2018-09-30T10:22:42.000Z</time>
      </trkpt>
      <trkpt lat="43.24456" lon="-0.67999">
        <ele>169</ele>
        <time>2018-09-30T10:22:43.000Z</time>
      </trkpt>
      <trkpt lat="43.24453" lon="-0.67996">
        <ele>169</ele>
        <time>2018-09-30T10:22:44.000Z</time>
      </trkpt>
      <trkpt lat="43.24449" lon="-0.67995">
        <ele>169</ele>
        <time>2018-09-30T10:22:45.000Z</time>
      </trkpt>
      <trkpt lat="43.24444" lon="-0.67995">
        <ele>169</ele>
        <time>2018-09-30T10:22:46.000Z</time>
      </trkpt>
      <trkpt lat="43.24439" lon="-0.67995">
        <ele>169</ele>
        <time>2018-09-30T10:22:47.000Z</time>
      </trkpt>
      <trkpt lat="43.24435" lon="-0.67994">
        <ele>169</ele>
        <time>2018-09-30T10:22:48.000Z</time>
      </trkpt>
      <trkpt lat="43.2443" lon="-0.67994">
        <ele>169</ele>
        <time>2018-09-30T10:22:49.000Z</time>
      </trkpt>
      <trkpt lat="43.24425" lon="-0.67993">
        <ele>169</ele>
        <time>2018-09-30T10:22:50.000Z</time>
      </trkpt>
      <trkpt lat="43.24421" lon="-0.67991">
        <ele>169.5900032</ele>
        <time>2018-09-30T10:22:51.000Z</time>
      </trkpt>
      <trkpt lat="43.24417" lon="-0.6799">
        <ele>170</ele>
        <time>2018-09-30T10:22:52.000Z</time>
      </trkpt>
      <trkpt lat="43.24412" lon="-0.67988">
        <ele>170</ele>
        <time>2018-09-30T10:22:53.000Z</time>
      </trkpt>
      <trkpt lat="43.24408" lon="-0.67986">
        <ele>170</ele>
        <time>2018-09-30T10:22:54.000Z</time>
      </trkpt>
      <trkpt lat="43.24404" lon="-0.67984">
        <ele>170</ele>
        <time>2018-09-30T10:22:55.000Z</time>
      </trkpt>
      <trkpt lat="43.24399" lon="-0.67982">
        <ele>170</ele>
        <time>2018-09-30T10:22:56.000Z</time>
      </trkpt>
      <trkpt lat="43.24395" lon="-0.6798">
        <ele>170</ele>
        <time>2018-09-30T10:22:57.000Z</time>
      </trkpt>
      <trkpt lat="43.2439" lon="-0.67978">
        <ele>170</ele>
        <time>2018-09-30T10:22:58.000Z</time>
      </trkpt>
      <trkpt lat="43.24386" lon="-0.67977">
        <ele>170</ele>
        <time>2018-09-30T10:22:59.000Z</time>
      </trkpt>
      <trkpt lat="43.24381" lon="-0.67975">
        <ele>170</ele>
        <time>2018-09-30T10:23:00.000Z</time>
      </trkpt>
      <trkpt lat="43.24377" lon="-0.67973">
        <ele>170</ele>
        <time>2018-09-30T10:23:01.000Z</time>
      </trkpt>
      <trkpt lat="43.24372" lon="-0.67972">
        <ele>170</ele>
        <time>2018-09-30T10:23:02.000Z</time>
      </trkpt>
      <trkpt lat="43.24367" lon="-0.6797">
        <ele>170</ele>
        <time>2018-09-30T10:23:03.000Z</time>
      </trkpt>
      <trkpt lat="43.24362" lon="-0.67969">
        <ele>170</ele>
        <time>2018-09-30T10:23:04.000Z</time>
      </trkpt>
      <trkpt lat="43.24358" lon="-0.67968">
        <ele>170</ele>
        <time>2018-09-30T10:23:05.000Z</time>
      </trkpt>
      <trkpt lat="43.24353" lon="-0.67966">
        <ele>170</ele>
        <time>2018-09-30T10:23:06.000Z</time>
      </trkpt>
      <trkpt lat="43.24348" lon="-0.67965">
        <ele>170</ele>
        <time>2018-09-30T10:23:07.000Z</time>
      </trkpt>
      <trkpt lat="43.24343" lon="-0.67963">
        <ele>170</ele>
        <time>2018-09-30T10:23:08.000Z</time>
      </trkpt>
      <trkpt lat="43.24338" lon="-0.67962">
        <ele>169.4099968</ele>
        <time>2018-09-30T10:23:09.000Z</time>
      </trkpt>
      <trkpt lat="43.24333" lon="-0.6796">
        <ele>169</ele>
        <time>2018-09-30T10:23:10.000Z</time>
      </trkpt>
      <trkpt lat="43.24328" lon="-0.67958">
        <ele>169</ele>
        <time>2018-09-30T10:23:11.000Z</time>
      </trkpt>
      <trkpt lat="43.24323" lon="-0.67956">
        <ele>169</ele>
        <time>2018-09-30T10:23:12.000Z</time>
      </trkpt>
      <trkpt lat="43.24318" lon="-0.67954">
        <ele>169</ele>
        <time>2018-09-30T10:23:13.000Z</time>
      </trkpt>
      <trkpt lat="43.24313" lon="-0.67952">
        <ele>169</ele>
        <time>2018-09-30T10:23:14.000Z</time>
      </trkpt>
      <trkpt lat="43.24308" lon="-0.6795">
        <ele>169</ele>
        <time>2018-09-30T10:23:15.000Z</time>
      </trkpt>
      <trkpt lat="43.24303" lon="-0.67949">
        <ele>169</ele>
        <time>2018-09-30T10:23:16.000Z</time>
      </trkpt>
      <trkpt lat="43.24299" lon="-0.67947">
        <ele>169</ele>
        <time>2018-09-30T10:23:17.000Z</time>
      </trkpt>
      <trkpt lat="43.24294" lon="-0.67946">
        <ele>169</ele>
        <time>2018-09-30T10:23:18.000Z</time>
      </trkpt>
      <trkpt lat="43.24289" lon="-0.67944">
        <ele>169</ele>
        <time>2018-09-30T10:23:19.000Z</time>
      </trkpt>
      <trkpt lat="43.24284" lon="-0.67942">
        <ele>169</ele>
        <time>2018-09-30T10:23:20.000Z</time>
      </trkpt>
      <trkpt lat="43.2428" lon="-0.6794">
        <ele>169</ele>
        <time>2018-09-30T10:23:21.000Z</time>
      </trkpt>
      <trkpt lat="43.24275" lon="-0.67939">
        <ele>169</ele>
        <time>2018-09-30T10:23:22.000Z</time>
      </trkpt>
      <trkpt lat="43.2427" lon="-0.67937">
        <ele>169</ele>
        <time>2018-09-30T10:23:23.000Z</time>
      </trkpt>
      <trkpt lat="43.24266" lon="-0.67936">
        <ele>169</ele>
        <time>2018-09-30T10:23:24.000Z</time>
      </trkpt>
      <trkpt lat="43.24261" lon="-0.67933">
        <ele>169</ele>
        <time>2018-09-30T10:23:25.000Z</time>
      </trkpt>
      <trkpt lat="43.24257" lon="-0.6793">
        <ele>169</ele>
        <time>2018-09-30T10:23:26.000Z</time>
      </trkpt>
      <trkpt lat="43.24253" lon="-0.67926">
        <ele>169</ele>
        <time>2018-09-30T10:23:27.000Z</time>
      </trkpt>
      <trkpt lat="43.24249" lon="-0.67922">
        <ele>169</ele>
        <time>2018-09-30T10:23:28.000Z</time>
      </trkpt>
      <trkpt lat="43.24245" lon="-0.67918">
        <ele>169</ele>
        <time>2018-09-30T10:23:29.000Z</time>
      </trkpt>
      <trkpt lat="43.24242" lon="-0.67913">
        <ele>169</ele>
        <time>2018-09-30T10:23:30.000Z</time>
      </trkpt>
      <trkpt lat="43.24238" lon="-0.67909">
        <ele>169.45384638106</ele>
        <time>2018-09-30T10:23:31.000Z</time>
      </trkpt>
      <trkpt lat="43.24235" lon="-0.67904">
        <ele>170</ele>
        <time>2018-09-30T10:23:32.000Z</time>
      </trkpt>
      <trkpt lat="43.24231" lon="-0.679">
        <ele>170</ele>
        <time>2018-09-30T10:23:33.000Z</time>
      </trkpt>
      <trkpt lat="43.24228" lon="-0.67896">
        <ele>170</ele>
        <time>2018-09-30T10:23:34.000Z</time>
      </trkpt>
      <trkpt lat="43.24224" lon="-0.67892">
        <ele>170</ele>
        <time>2018-09-30T10:23:35.000Z</time>
      </trkpt>
      <trkpt lat="43.24221" lon="-0.67888">
        <ele>170</ele>
        <time>2018-09-30T10:23:36.000Z</time>
      </trkpt>
      <trkpt lat="43.24217" lon="-0.67883">
        <ele>170</ele>
        <time>2018-09-30T10:23:37.000Z</time>
      </trkpt>
      <trkpt lat="43.24214" lon="-0.67879">
        <ele>170</ele>
        <time>2018-09-30T10:23:38.000Z</time>
      </trkpt>
      <trkpt lat="43.2421" lon="-0.67875">
        <ele>170</ele>
        <time>2018-09-30T10:23:39.000Z</time>
      </trkpt>
      <trkpt lat="43.24207" lon="-0.6787">
        <ele>170</ele>
        <time>2018-09-30T10:23:40.000Z</time>
      </trkpt>
      <trkpt lat="43.24204" lon="-0.67865">
        <ele>170</ele>
        <time>2018-09-30T10:23:41.000Z</time>
      </trkpt>
      <trkpt lat="43.24201" lon="-0.6786">
        <ele>170</ele>
        <time>2018-09-30T10:23:42.000Z</time>
      </trkpt>
      <trkpt lat="43.24197" lon="-0.67856">
        <ele>170</ele>
        <time>2018-09-30T10:23:43.000Z</time>
      </trkpt>
      <trkpt lat="43.24194" lon="-0.67851">
        <ele>170</ele>
        <time>2018-09-30T10:23:44.000Z</time>
      </trkpt>
      <trkpt lat="43.24191" lon="-0.67846">
        <ele>170</ele>
        <time>2018-09-30T10:23:45.000Z</time>
      </trkpt>
      <trkpt lat="43.24188" lon="-0.67841">
        <ele>170</ele>
        <time>2018-09-30T10:23:46.000Z</time>
      </trkpt>
      <trkpt lat="43.24184" lon="-0.67836">
        <ele>170</ele>
        <time>2018-09-30T10:23:47.000Z</time>
      </trkpt>
      <trkpt lat="43.24181" lon="-0.67831">
        <ele>170</ele>
        <time>2018-09-30T10:23:48.000Z</time>
      </trkpt>
      <trkpt lat="43.24178" lon="-0.67826">
        <ele>170</ele>
        <time>2018-09-30T10:23:49.000Z</time>
      </trkpt>
      <trkpt lat="43.24174" lon="-0.67821">
        <ele>170</ele>
        <time>2018-09-30T10:23:50.000Z</time>
      </trkpt>
      <trkpt lat="43.24171" lon="-0.67816">
        <ele>170</ele>
        <time>2018-09-30T10:23:51.000Z</time>
      </trkpt>
      <trkpt lat="43.24168" lon="-0.6781">
        <ele>170</ele>
        <time>2018-09-30T10:23:52.000Z</time>
      </trkpt>
      <trkpt lat="43.24164" lon="-0.67805">
        <ele>170</ele>
        <time>2018-09-30T10:23:53.000Z</time>
      </trkpt>
      <trkpt lat="43.24161" lon="-0.678">
        <ele>170</ele>
        <time>2018-09-30T10:23:54.000Z</time>
      </trkpt>
      <trkpt lat="43.24158" lon="-0.67795">
        <ele>170</ele>
        <time>2018-09-30T10:23:55.000Z</time>
      </trkpt>
      <trkpt lat="43.24154" lon="-0.6779">
        <ele>170</ele>
        <time>2018-09-30T10:23:56.000Z</time>
      </trkpt>
      <trkpt lat="43.24151" lon="-0.67785">
        <ele>170.5900032</ele>
        <time>2018-09-30T10:23:57.000Z</time>
      </trkpt>
      <trkpt lat="43.24148" lon="-0.6778">
        <ele>171</ele>
        <time>2018-09-30T10:23:58.000Z</time>
      </trkpt>
      <trkpt lat="43.24144" lon="-0.67775">
        <ele>171</ele>
        <time>2018-09-30T10:23:59.000Z</time>
      </trkpt>
      <trkpt lat="43.24141" lon="-0.6777">
        <ele>171</ele>
        <time>2018-09-30T10:24:00.000Z</time>
      </trkpt>
      <trkpt lat="43.24137" lon="-0.67766">
        <ele>171</ele>
        <time>2018-09-30T10:24:01.000Z</time>
      </trkpt>
      <trkpt lat="43.24133" lon="-0.67762">
        <ele>171</ele>
        <time>2018-09-30T10:24:02.000Z</time>
      </trkpt>
      <trkpt lat="43.24129" lon="-0.67758">
        <ele>171</ele>
        <time>2018-09-30T10:24:03.000Z</time>
      </trkpt>
      <trkpt lat="43.24125" lon="-0.67754">
        <ele>171</ele>
        <time>2018-09-30T10:24:04.000Z</time>
      </trkpt>
      <trkpt lat="43.24121" lon="-0.6775">
        <ele>171</ele>
        <time>2018-09-30T10:24:05.000Z</time>
      </trkpt>
      <trkpt lat="43.24117" lon="-0.67747">
        <ele>171</ele>
        <time>2018-09-30T10:24:06.000Z</time>
      </trkpt>
      <trkpt lat="43.24113" lon="-0.67743">
        <ele>171</ele>
        <time>2018-09-30T10:24:07.000Z</time>
      </trkpt>
      <trkpt lat="43.2411" lon="-0.67738">
        <ele>171</ele>
        <time>2018-09-30T10:24:08.000Z</time>
      </trkpt>
      <trkpt lat="43.24107" lon="-0.67733">
        <ele>171</ele>
        <time>2018-09-30T10:24:09.000Z</time>
      </trkpt>
      <trkpt lat="43.24105" lon="-0.67727">
        <ele>171</ele>
        <time>2018-09-30T10:24:10.000Z</time>
      </trkpt>
      <trkpt lat="43.24103" lon="-0.67722">
        <ele>171</ele>
        <time>2018-09-30T10:24:11.000Z</time>
      </trkpt>
      <trkpt lat="43.24101" lon="-0.67718">
        <ele>171</ele>
        <time>2018-09-30T10:24:12.000Z</time>
      </trkpt>
      <trkpt lat="43.24099" lon="-0.67713">
        <ele>171</ele>
        <time>2018-09-30T10:24:13.000Z</time>
      </trkpt>
      <trkpt lat="43.24097" lon="-0.67709">
        <ele>171</ele>
        <time>2018-09-30T10:24:14.000Z</time>
      </trkpt>
      <trkpt lat="43.24095" lon="-0.67704">
        <ele>171</ele>
        <time>2018-09-30T10:24:15.000Z</time>
      </trkpt>
      <trkpt lat="43.24094" lon="-0.67699">
        <ele>171</ele>
        <time>2018-09-30T10:24:16.000Z</time>
      </trkpt>
      <trkpt lat="43.24092" lon="-0.67695">
        <ele>171</ele>
        <time>2018-09-30T10:24:17.000Z</time>
      </trkpt>
      <trkpt lat="43.2409" lon="-0.6769">
        <ele>171</ele>
        <time>2018-09-30T10:24:18.000Z</time>
      </trkpt>
      <trkpt lat="43.24088" lon="-0.67685">
        <ele>171</ele>
        <time>2018-09-30T10:24:19.000Z</time>
      </trkpt>
      <trkpt lat="43.24086" lon="-0.6768">
        <ele>171</ele>
        <time>2018-09-30T10:24:20.000Z</time>
      </trkpt>
      <trkpt lat="43.24083" lon="-0.67675">
        <ele>171</ele>
        <time>2018-09-30T10:24:21.000Z</time>
      </trkpt>
      <trkpt lat="43.24079" lon="-0.67671">
        <ele>170.4099968</ele>
        <time>2018-09-30T10:24:22.000Z</time>
      </trkpt>
      <trkpt lat="43.24075" lon="-0.67668">
        <ele>170</ele>
        <time>2018-09-30T10:24:23.000Z</time>
      </trkpt>
      <trkpt lat="43.24072" lon="-0.67665">
        <ele>170.5900032</ele>
        <time>2018-09-30T10:24:24.000Z</time>
      </trkpt>
      <trkpt lat="43.24067" lon="-0.67658">
        <ele>171</ele>
        <time>2018-09-30T10:24:26.000Z</time>
      </trkpt>
      <trkpt lat="43.24062" lon="-0.67652">
        <ele>171</ele>
        <time>2018-09-30T10:24:28.000Z</time>
      </trkpt>
      <trkpt lat="43.24056" lon="-0.67647">
        <ele>172</ele>
        <time>2018-09-30T10:24:30.000Z</time>
      </trkpt>
      <trkpt lat="43.24049" lon="-0.67645">
        <ele>172</ele>
        <time>2018-09-30T10:24:32.000Z</time>
      </trkpt>
      <trkpt lat="43.24042" lon="-0.67643">
        <ele>172</ele>
        <time>2018-09-30T10:24:34.000Z</time>
      </trkpt>
      <trkpt lat="43.24037" lon="-0.67639">
        <ele>172</ele>
        <time>2018-09-30T10:24:36.000Z</time>
      </trkpt>
      <trkpt lat="43.24031" lon="-0.67636">
        <ele>172</ele>
        <time>2018-09-30T10:24:38.000Z</time>
      </trkpt>
      <trkpt lat="43.24025" lon="-0.67632">
        <ele>172</ele>
        <time>2018-09-30T10:24:40.000Z</time>
      </trkpt>
      <trkpt lat="43.24019" lon="-0.67629">
        <ele>172</ele>
        <time>2018-09-30T10:24:42.000Z</time>
      </trkpt>
      <trkpt lat="43.24013" lon="-0.67625">
        <ele>173</ele>
        <time>2018-09-30T10:24:44.000Z</time>
      </trkpt>
      <trkpt lat="43.24008" lon="-0.6762">
        <ele>173</ele>
        <time>2018-09-30T10:24:46.000Z</time>
      </trkpt>
      <trkpt lat="43.24002" lon="-0.67617">
        <ele>173</ele>
        <time>2018-09-30T10:24:48.000Z</time>
      </trkpt>
      <trkpt lat="43.23996" lon="-0.67613">
        <ele>173</ele>
        <time>2018-09-30T10:24:50.000Z</time>
      </trkpt>
      <trkpt lat="43.2399" lon="-0.67609">
        <ele>173</ele>
        <time>2018-09-30T10:24:52.000Z</time>
      </trkpt>
      <trkpt lat="43.23984" lon="-0.67605">
        <ele>174</ele>
        <time>2018-09-30T10:24:54.000Z</time>
      </trkpt>
      <trkpt lat="43.23977" lon="-0.67601">
        <ele>174</ele>
        <time>2018-09-30T10:24:56.000Z</time>
      </trkpt>
      <trkpt lat="43.23971" lon="-0.67597">
        <ele>174</ele>
        <time>2018-09-30T10:24:58.000Z</time>
      </trkpt>
      <trkpt lat="43.23964" lon="-0.67593">
        <ele>174.40579898342</ele>
        <time>2018-09-30T10:25:00.000Z</time>
      </trkpt>
      <trkpt lat="43.23958" lon="-0.67588">
        <ele>175</ele>
        <time>2018-09-30T10:25:02.000Z</time>
      </trkpt>
      <trkpt lat="43.23952" lon="-0.67584">
        <ele>175</ele>
        <time>2018-09-30T10:25:04.000Z</time>
      </trkpt>
      <trkpt lat="43.23946" lon="-0.67579">
        <ele>175</ele>
        <time>2018-09-30T10:25:06.000Z</time>
      </trkpt>
      <trkpt lat="43.2394" lon="-0.67574">
        <ele>176</ele>
        <time>2018-09-30T10:25:08.000Z</time>
      </trkpt>
      <trkpt lat="43.23934" lon="-0.67568">
        <ele>176</ele>
        <time>2018-09-30T10:25:10.000Z</time>
      </trkpt>
      <trkpt lat="43.23931" lon="-0.67565">
        <ele>176</ele>
        <time>2018-09-30T10:25:11.000Z</time>
      </trkpt>
      <trkpt lat="43.23928" lon="-0.67562">
        <ele>176</ele>
        <time>2018-09-30T10:25:12.000Z</time>
      </trkpt>
      <trkpt lat="43.23925" lon="-0.67559">
        <ele>176</ele>
        <time>2018-09-30T10:25:13.000Z</time>
      </trkpt>
      <trkpt lat="43.23922" lon="-0.67556">
        <ele>176</ele>
        <time>2018-09-30T10:25:14.000Z</time>
      </trkpt>
      <trkpt lat="43.23919" lon="-0.67553">
        <ele>176</ele>
        <time>2018-09-30T10:25:15.000Z</time>
      </trkpt>
      <trkpt lat="43.23916" lon="-0.6755">
        <ele>176</ele>
        <time>2018-09-30T10:25:16.000Z</time>
      </trkpt>
      <trkpt lat="43.23913" lon="-0.67547">
        <ele>176</ele>
        <time>2018-09-30T10:25:17.000Z</time>
      </trkpt>
      <trkpt lat="43.23909" lon="-0.67544">
        <ele>176</ele>
        <time>2018-09-30T10:25:18.000Z</time>
      </trkpt>
      <trkpt lat="43.23906" lon="-0.67541">
        <ele>176</ele>
        <time>2018-09-30T10:25:19.000Z</time>
      </trkpt>
      <trkpt lat="43.23903" lon="-0.67537">
        <ele>176</ele>
        <time>2018-09-30T10:25:20.000Z</time>
      </trkpt>
      <trkpt lat="43.239" lon="-0.67534">
        <ele>176</ele>
        <time>2018-09-30T10:25:21.000Z</time>
      </trkpt>
      <trkpt lat="43.23897" lon="-0.67531">
        <ele>176</ele>
        <time>2018-09-30T10:25:22.000Z</time>
      </trkpt>
      <trkpt lat="43.23894" lon="-0.67528">
        <ele>176</ele>
        <time>2018-09-30T10:25:23.000Z</time>
      </trkpt>
      <trkpt lat="43.2389" lon="-0.67525">
        <ele>176</ele>
        <time>2018-09-30T10:25:24.000Z</time>
      </trkpt>
      <trkpt lat="43.23887" lon="-0.67521">
        <ele>176.30693483385</ele>
        <time>2018-09-30T10:25:25.000Z</time>
      </trkpt>
      <trkpt lat="43.23883" lon="-0.67518">
        <ele>177</ele>
        <time>2018-09-30T10:25:26.000Z</time>
      </trkpt>
      <trkpt lat="43.2388" lon="-0.67515">
        <ele>177</ele>
        <time>2018-09-30T10:25:27.000Z</time>
      </trkpt>
      <trkpt lat="43.23876" lon="-0.67512">
        <ele>177</ele>
        <time>2018-09-30T10:25:28.000Z</time>
      </trkpt>
      <trkpt lat="43.23872" lon="-0.67509">
        <ele>177</ele>
        <time>2018-09-30T10:25:29.000Z</time>
      </trkpt>
      <trkpt lat="43.23869" lon="-0.67507">
        <ele>177</ele>
        <time>2018-09-30T10:25:30.000Z</time>
      </trkpt>
      <trkpt lat="43.23865" lon="-0.67504">
        <ele>176.4099968</ele>
        <time>2018-09-30T10:25:31.000Z</time>
      </trkpt>
      <trkpt lat="43.23861" lon="-0.67502">
        <ele>176</ele>
        <time>2018-09-30T10:25:32.000Z</time>
      </trkpt>
      <trkpt lat="43.23857" lon="-0.675">
        <ele>176</ele>
        <time>2018-09-30T10:25:33.000Z</time>
      </trkpt>
      <trkpt lat="43.23853" lon="-0.67499">
        <ele>176.5900032</ele>
        <time>2018-09-30T10:25:34.000Z</time>
      </trkpt>
      <trkpt lat="43.23848" lon="-0.67497">
        <ele>177</ele>
        <time>2018-09-30T10:25:35.000Z</time>
      </trkpt>
      <trkpt lat="43.23844" lon="-0.67496">
        <ele>177</ele>
        <time>2018-09-30T10:25:36.000Z</time>
      </trkpt>
      <trkpt lat="43.2384" lon="-0.67494">
        <ele>177</ele>
        <time>2018-09-30T10:25:37.000Z</time>
      </trkpt>
      <trkpt lat="43.23836" lon="-0.67493">
        <ele>177</ele>
        <time>2018-09-30T10:25:38.000Z</time>
      </trkpt>
      <trkpt lat="43.23832" lon="-0.67493">
        <ele>177</ele>
        <time>2018-09-30T10:25:39.000Z</time>
      </trkpt>
      <trkpt lat="43.23827" lon="-0.67492">
        <ele>177</ele>
        <time>2018-09-30T10:25:40.000Z</time>
      </trkpt>
      <trkpt lat="43.23823" lon="-0.67491">
        <ele>177</ele>
        <time>2018-09-30T10:25:41.000Z</time>
      </trkpt>
      <trkpt lat="43.23819" lon="-0.6749">
        <ele>177</ele>
        <time>2018-09-30T10:25:42.000Z</time>
      </trkpt>
      <trkpt lat="43.23815" lon="-0.67489">
        <ele>177</ele>
        <time>2018-09-30T10:25:43.000Z</time>
      </trkpt>
      <trkpt lat="43.23811" lon="-0.67489">
        <ele>177</ele>
        <time>2018-09-30T10:25:44.000Z</time>
      </trkpt>
      <trkpt lat="43.23807" lon="-0.67489">
        <ele>177</ele>
        <time>2018-09-30T10:25:45.000Z</time>
      </trkpt>
      <trkpt lat="43.23803" lon="-0.67488">
        <ele>177</ele>
        <time>2018-09-30T10:25:46.000Z</time>
      </trkpt>
      <trkpt lat="43.23799" lon="-0.67488">
        <ele>177</ele>
        <time>2018-09-30T10:25:47.000Z</time>
      </trkpt>
      <trkpt lat="43.23795" lon="-0.67487">
        <ele>177</ele>
        <time>2018-09-30T10:25:48.000Z</time>
      </trkpt>
      <trkpt lat="43.23791" lon="-0.67487">
        <ele>177</ele>
        <time>2018-09-30T10:25:49.000Z</time>
      </trkpt>
      <trkpt lat="43.23787" lon="-0.67487">
        <ele>177</ele>
        <time>2018-09-30T10:25:50.000Z</time>
      </trkpt>
      <trkpt lat="43.23784" lon="-0.67487">
        <ele>177</ele>
        <time>2018-09-30T10:25:51.000Z</time>
      </trkpt>
      <trkpt lat="43.23777" lon="-0.67488">
        <ele>177.5900032</ele>
        <time>2018-09-30T10:25:53.000Z</time>
      </trkpt>
      <trkpt lat="43.23773" lon="-0.67489">
        <ele>178</ele>
        <time>2018-09-30T10:25:54.000Z</time>
      </trkpt>
      <trkpt lat="43.23769" lon="-0.67489">
        <ele>178</ele>
        <time>2018-09-30T10:25:55.000Z</time>
      </trkpt>
      <trkpt lat="43.23764" lon="-0.67488">
        <ele>178</ele>
        <time>2018-09-30T10:25:56.000Z</time>
      </trkpt>
      <trkpt lat="43.23759" lon="-0.67487">
        <ele>178</ele>
        <time>2018-09-30T10:25:57.000Z</time>
      </trkpt>
      <trkpt lat="43.23755" lon="-0.67488">
        <ele>178</ele>
        <time>2018-09-30T10:25:58.000Z</time>
      </trkpt>
      <trkpt lat="43.23751" lon="-0.67487">
        <ele>178</ele>
        <time>2018-09-30T10:25:59.000Z</time>
      </trkpt>
      <trkpt lat="43.23746" lon="-0.67486">
        <ele>178</ele>
        <time>2018-09-30T10:26:00.000Z</time>
      </trkpt>
      <trkpt lat="43.23742" lon="-0.67484">
        <ele>178</ele>
        <time>2018-09-30T10:26:01.000Z</time>
      </trkpt>
      <trkpt lat="43.23737" lon="-0.67482">
        <ele>178</ele>
        <time>2018-09-30T10:26:02.000Z</time>
      </trkpt>
      <trkpt lat="43.23733" lon="-0.6748">
        <ele>178</ele>
        <time>2018-09-30T10:26:03.000Z</time>
      </trkpt>
      <trkpt lat="43.23729" lon="-0.67478">
        <ele>178</ele>
        <time>2018-09-30T10:26:04.000Z</time>
      </trkpt>
      <trkpt lat="43.23724" lon="-0.67476">
        <ele>178</ele>
        <time>2018-09-30T10:26:05.000Z</time>
      </trkpt>
      <trkpt lat="43.2372" lon="-0.67473">
        <ele>178</ele>
        <time>2018-09-30T10:26:06.000Z</time>
      </trkpt>
      <trkpt lat="43.23716" lon="-0.67471">
        <ele>178</ele>
        <time>2018-09-30T10:26:07.000Z</time>
      </trkpt>
      <trkpt lat="43.23712" lon="-0.67469">
        <ele>178</ele>
        <time>2018-09-30T10:26:08.000Z</time>
      </trkpt>
      <trkpt lat="43.23708" lon="-0.67466">
        <ele>178</ele>
        <time>2018-09-30T10:26:09.000Z</time>
      </trkpt>
      <trkpt lat="43.23704" lon="-0.67464">
        <ele>178</ele>
        <time>2018-09-30T10:26:10.000Z</time>
      </trkpt>
      <trkpt lat="43.23699" lon="-0.67462">
        <ele>178</ele>
        <time>2018-09-30T10:26:11.000Z</time>
      </trkpt>
      <trkpt lat="43.23695" lon="-0.6746">
        <ele>178.43056</ele>
        <time>2018-09-30T10:26:12.000Z</time>
      </trkpt>
      <trkpt lat="43.23691" lon="-0.67458">
        <ele>179</ele>
        <time>2018-09-30T10:26:13.000Z</time>
      </trkpt>
      <trkpt lat="43.23687" lon="-0.67455">
        <ele>179</ele>
        <time>2018-09-30T10:26:14.000Z</time>
      </trkpt>
      <trkpt lat="43.23683" lon="-0.67453">
        <ele>179</ele>
        <time>2018-09-30T10:26:15.000Z</time>
      </trkpt>
      <trkpt lat="43.23679" lon="-0.67451">
        <ele>179</ele>
        <time>2018-09-30T10:26:16.000Z</time>
      </trkpt>
      <trkpt lat="43.23675" lon="-0.67449">
        <ele>179</ele>
        <time>2018-09-30T10:26:17.000Z</time>
      </trkpt>
      <trkpt lat="43.23671" lon="-0.67447">
        <ele>179.5900032</ele>
        <time>2018-09-30T10:26:18.000Z</time>
      </trkpt>
      <trkpt lat="43.23667" lon="-0.67445">
        <ele>180</ele>
        <time>2018-09-30T10:26:19.000Z</time>
      </trkpt>
      <trkpt lat="43.23663" lon="-0.67443">
        <ele>180</ele>
        <time>2018-09-30T10:26:20.000Z</time>
      </trkpt>
      <trkpt lat="43.23658" lon="-0.67441">
        <ele>180</ele>
        <time>2018-09-30T10:26:21.000Z</time>
      </trkpt>
      <trkpt lat="43.23654" lon="-0.67439">
        <ele>180</ele>
        <time>2018-09-30T10:26:22.000Z</time>
      </trkpt>
      <trkpt lat="43.2365" lon="-0.67438">
        <ele>180</ele>
        <time>2018-09-30T10:26:23.000Z</time>
      </trkpt>
      <trkpt lat="43.23646" lon="-0.67437">
        <ele>180</ele>
        <time>2018-09-30T10:26:24.000Z</time>
      </trkpt>
      <trkpt lat="43.23641" lon="-0.67435">
        <ele>180</ele>
        <time>2018-09-30T10:26:25.000Z</time>
      </trkpt>
      <trkpt lat="43.23637" lon="-0.67434">
        <ele>180</ele>
        <time>2018-09-30T10:26:26.000Z</time>
      </trkpt>
      <trkpt lat="43.23633" lon="-0.67433">
        <ele>180</ele>
        <time>2018-09-30T10:26:27.000Z</time>
      </trkpt>
      <trkpt lat="43.23628" lon="-0.67431">
        <ele>180</ele>
        <time>2018-09-30T10:26:28.000Z</time>
      </trkpt>
      <trkpt lat="43.23624" lon="-0.6743">
        <ele>180</ele>
        <time>2018-09-30T10:26:29.000Z</time>
      </trkpt>
      <trkpt lat="43.2362" lon="-0.67429">
        <ele>180</ele>
        <time>2018-09-30T10:26:30.000Z</time>
      </trkpt>
      <trkpt lat="43.23616" lon="-0.67427">
        <ele>180</ele>
        <time>2018-09-30T10:26:31.000Z</time>
      </trkpt>
      <trkpt lat="43.23611" lon="-0.67426">
        <ele>180</ele>
        <time>2018-09-30T10:26:32.000Z</time>
      </trkpt>
      <trkpt lat="43.23607" lon="-0.67425">
        <ele>180</ele>
        <time>2018-09-30T10:26:33.000Z</time>
      </trkpt>
      <trkpt lat="43.23603" lon="-0.67424">
        <ele>180</ele>
        <time>2018-09-30T10:26:34.000Z</time>
      </trkpt>
      <trkpt lat="43.23599" lon="-0.67422">
        <ele>180</ele>
        <time>2018-09-30T10:26:35.000Z</time>
      </trkpt>
      <trkpt lat="43.23594" lon="-0.67421">
        <ele>180</ele>
        <time>2018-09-30T10:26:36.000Z</time>
      </trkpt>
      <trkpt lat="43.2359" lon="-0.67419">
        <ele>180</ele>
        <time>2018-09-30T10:26:37.000Z</time>
      </trkpt>
      <trkpt lat="43.23586" lon="-0.67418">
        <ele>180</ele>
        <time>2018-09-30T10:26:38.000Z</time>
      </trkpt>
      <trkpt lat="43.23582" lon="-0.67416">
        <ele>180</ele>
        <time>2018-09-30T10:26:39.000Z</time>
      </trkpt>
      <trkpt lat="43.23578" lon="-0.67415">
        <ele>180</ele>
        <time>2018-09-30T10:26:40.000Z</time>
      </trkpt>
      <trkpt lat="43.23573" lon="-0.67414">
        <ele>180</ele>
        <time>2018-09-30T10:26:41.000Z</time>
      </trkpt>
      <trkpt lat="43.23569" lon="-0.67414">
        <ele>180</ele>
        <time>2018-09-30T10:26:42.000Z</time>
      </trkpt>
      <trkpt lat="43.23564" lon="-0.67413">
        <ele>180</ele>
        <time>2018-09-30T10:26:43.000Z</time>
      </trkpt>
      <trkpt lat="43.2356" lon="-0.67412">
        <ele>180</ele>
        <time>2018-09-30T10:26:44.000Z</time>
      </trkpt>
      <trkpt lat="43.23555" lon="-0.67411">
        <ele>180</ele>
        <time>2018-09-30T10:26:45.000Z</time>
      </trkpt>
      <trkpt lat="43.23551" lon="-0.67411">
        <ele>180</ele>
        <time>2018-09-30T10:26:46.000Z</time>
      </trkpt>
      <trkpt lat="43.23546" lon="-0.67411">
        <ele>180</ele>
        <time>2018-09-30T10:26:47.000Z</time>
      </trkpt>
      <trkpt lat="43.23542" lon="-0.67411">
        <ele>180</ele>
        <time>2018-09-30T10:26:48.000Z</time>
      </trkpt>
      <trkpt lat="43.23537" lon="-0.67411">
        <ele>180</ele>
        <time>2018-09-30T10:26:49.000Z</time>
      </trkpt>
      <trkpt lat="43.23533" lon="-0.67411">
        <ele>180</ele>
        <time>2018-09-30T10:26:50.000Z</time>
      </trkpt>
      <trkpt lat="43.23528" lon="-0.67411">
        <ele>180</ele>
        <time>2018-09-30T10:26:51.000Z</time>
      </trkpt>
      <trkpt lat="43.23524" lon="-0.67411">
        <ele>180</ele>
        <time>2018-09-30T10:26:52.000Z</time>
      </trkpt>
      <trkpt lat="43.23519" lon="-0.67411">
        <ele>180</ele>
        <time>2018-09-30T10:26:53.000Z</time>
      </trkpt>
      <trkpt lat="43.23515" lon="-0.67411">
        <ele>180</ele>
        <time>2018-09-30T10:26:54.000Z</time>
      </trkpt>
      <trkpt lat="43.2351" lon="-0.67411">
        <ele>180</ele>
        <time>2018-09-30T10:26:55.000Z</time>
      </trkpt>
      <trkpt lat="43.23505" lon="-0.6741">
        <ele>180.45384638106</ele>
        <time>2018-09-30T10:26:56.000Z</time>
      </trkpt>
      <trkpt lat="43.23501" lon="-0.6741">
        <ele>181</ele>
        <time>2018-09-30T10:26:57.000Z</time>
      </trkpt>
      <trkpt lat="43.23496" lon="-0.67409">
        <ele>181</ele>
        <time>2018-09-30T10:26:58.000Z</time>
      </trkpt>
      <trkpt lat="43.23492" lon="-0.67409">
        <ele>181</ele>
        <time>2018-09-30T10:26:59.000Z</time>
      </trkpt>
      <trkpt lat="43.23487" lon="-0.67408">
        <ele>181</ele>
        <time>2018-09-30T10:27:00.000Z</time>
      </trkpt>
      <trkpt lat="43.23483" lon="-0.67407">
        <ele>181</ele>
        <time>2018-09-30T10:27:01.000Z</time>
      </trkpt>
      <trkpt lat="43.23479" lon="-0.67406">
        <ele>181</ele>
        <time>2018-09-30T10:27:02.000Z</time>
      </trkpt>
      <trkpt lat="43.23474" lon="-0.67406">
        <ele>181.58586315681</ele>
        <time>2018-09-30T10:27:03.000Z</time>
      </trkpt>
      <trkpt lat="43.2347" lon="-0.67405">
        <ele>182</ele>
        <time>2018-09-30T10:27:04.000Z</time>
      </trkpt>
      <trkpt lat="43.23465" lon="-0.67404">
        <ele>182</ele>
        <time>2018-09-30T10:27:05.000Z</time>
      </trkpt>
      <trkpt lat="43.23461" lon="-0.67403">
        <ele>182</ele>
        <time>2018-09-30T10:27:06.000Z</time>
      </trkpt>
      <trkpt lat="43.23457" lon="-0.67402">
        <ele>182</ele>
        <time>2018-09-30T10:27:07.000Z</time>
      </trkpt>
      <trkpt lat="43.23452" lon="-0.67402">
        <ele>182</ele>
        <time>2018-09-30T10:27:08.000Z</time>
      </trkpt>
      <trkpt lat="43.23448" lon="-0.67401">
        <ele>182</ele>
        <time>2018-09-30T10:27:09.000Z</time>
      </trkpt>
      <trkpt lat="43.23444" lon="-0.674">
        <ele>182</ele>
        <time>2018-09-30T10:27:10.000Z</time>
      </trkpt>
      <trkpt lat="43.2344" lon="-0.674">
        <ele>182</ele>
        <time>2018-09-30T10:27:11.000Z</time>
      </trkpt>
      <trkpt lat="43.23436" lon="-0.67399">
        <ele>182</ele>
        <time>2018-09-30T10:27:12.000Z</time>
      </trkpt>
      <trkpt lat="43.23432" lon="-0.67399">
        <ele>182</ele>
        <time>2018-09-30T10:27:13.000Z</time>
      </trkpt>
      <trkpt lat="43.23428" lon="-0.67399">
        <ele>182</ele>
        <time>2018-09-30T10:27:14.000Z</time>
      </trkpt>
      <trkpt lat="43.23424" lon="-0.67398">
        <ele>182</ele>
        <time>2018-09-30T10:27:15.000Z</time>
      </trkpt>
      <trkpt lat="43.2342" lon="-0.67397">
        <ele>182</ele>
        <time>2018-09-30T10:27:16.000Z</time>
      </trkpt>
      <trkpt lat="43.23416" lon="-0.67397">
        <ele>182</ele>
        <time>2018-09-30T10:27:17.000Z</time>
      </trkpt>
      <trkpt lat="43.23412" lon="-0.67396">
        <ele>182</ele>
        <time>2018-09-30T10:27:18.000Z</time>
      </trkpt>
      <trkpt lat="43.23408" lon="-0.67396">
        <ele>182.45384638106</ele>
        <time>2018-09-30T10:27:19.000Z</time>
      </trkpt>
      <trkpt lat="43.23405" lon="-0.67395">
        <ele>183</ele>
        <time>2018-09-30T10:27:20.000Z</time>
      </trkpt>
      <trkpt lat="43.23401" lon="-0.67394">
        <ele>183</ele>
        <time>2018-09-30T10:27:21.000Z</time>
      </trkpt>
      <trkpt lat="43.23394" lon="-0.67392">
        <ele>183.58586315681</ele>
        <time>2018-09-30T10:27:23.000Z</time>
      </trkpt>
      <trkpt lat="43.23391" lon="-0.6739">
        <ele>184</ele>
        <time>2018-09-30T10:27:24.000Z</time>
      </trkpt>
      <trkpt lat="43.23387" lon="-0.67389">
        <ele>184</ele>
        <time>2018-09-30T10:27:25.000Z</time>
      </trkpt>
      <trkpt lat="43.23383" lon="-0.67387">
        <ele>184</ele>
        <time>2018-09-30T10:27:26.000Z</time>
      </trkpt>
      <trkpt lat="43.23379" lon="-0.67385">
        <ele>184</ele>
        <time>2018-09-30T10:27:27.000Z</time>
      </trkpt>
      <trkpt lat="43.23375" lon="-0.67383">
        <ele>184</ele>
        <time>2018-09-30T10:27:28.000Z</time>
      </trkpt>
      <trkpt lat="43.23372" lon="-0.67382">
        <ele>184</ele>
        <time>2018-09-30T10:27:29.000Z</time>
      </trkpt>
      <trkpt lat="43.23368" lon="-0.67381">
        <ele>184</ele>
        <time>2018-09-30T10:27:30.000Z</time>
      </trkpt>
      <trkpt lat="43.23363" lon="-0.67381">
        <ele>184</ele>
        <time>2018-09-30T10:27:31.000Z</time>
      </trkpt>
      <trkpt lat="43.2336" lon="-0.67381">
        <ele>184.5900032</ele>
        <time>2018-09-30T10:27:32.000Z</time>
      </trkpt>
      <trkpt lat="43.23356" lon="-0.67383">
        <ele>185</ele>
        <time>2018-09-30T10:27:33.000Z</time>
      </trkpt>
      <trkpt lat="43.23352" lon="-0.67385">
        <ele>185</ele>
        <time>2018-09-30T10:27:34.000Z</time>
      </trkpt>
      <trkpt lat="43.23348" lon="-0.67387">
        <ele>185</ele>
        <time>2018-09-30T10:27:35.000Z</time>
      </trkpt>
      <trkpt lat="43.23344" lon="-0.67389">
        <ele>185</ele>
        <time>2018-09-30T10:27:36.000Z</time>
      </trkpt>
      <trkpt lat="43.2334" lon="-0.67391">
        <ele>185</ele>
        <time>2018-09-30T10:27:37.000Z</time>
      </trkpt>
      <trkpt lat="43.23336" lon="-0.67393">
        <ele>185</ele>
        <time>2018-09-30T10:27:38.000Z</time>
      </trkpt>
      <trkpt lat="43.23331" lon="-0.67394">
        <ele>185</ele>
        <time>2018-09-30T10:27:39.000Z</time>
      </trkpt>
      <trkpt lat="43.23327" lon="-0.67396">
        <ele>185</ele>
        <time>2018-09-30T10:27:40.000Z</time>
      </trkpt>
      <trkpt lat="43.23323" lon="-0.67397">
        <ele>185</ele>
        <time>2018-09-30T10:27:41.000Z</time>
      </trkpt>
      <trkpt lat="43.23319" lon="-0.67399">
        <ele>185</ele>
        <time>2018-09-30T10:27:42.000Z</time>
      </trkpt>
      <trkpt lat="43.23316" lon="-0.674">
        <ele>185</ele>
        <time>2018-09-30T10:27:43.000Z</time>
      </trkpt>
      <trkpt lat="43.23312" lon="-0.67401">
        <ele>185</ele>
        <time>2018-09-30T10:27:44.000Z</time>
      </trkpt>
      <trkpt lat="43.23306" lon="-0.67403">
        <ele>186</ele>
        <time>2018-09-30T10:27:46.000Z</time>
      </trkpt>
      <trkpt lat="43.23299" lon="-0.67403">
        <ele>186.5900032</ele>
        <time>2018-09-30T10:27:48.000Z</time>
      </trkpt>
      <trkpt lat="43.23294" lon="-0.67403">
        <ele>187</ele>
        <time>2018-09-30T10:27:50.000Z</time>
      </trkpt>
      <trkpt lat="43.23289" lon="-0.67402">
        <ele>187.5773214922</ele>
        <time>2018-09-30T10:27:53.000Z</time>
      </trkpt>
      <trkpt lat="43.23284" lon="-0.67402">
        <ele>188</ele>
        <time>2018-09-30T10:27:56.000Z</time>
      </trkpt>
      <trkpt lat="43.2328" lon="-0.67397">
        <ele>188</ele>
        <time>2018-09-30T10:27:58.000Z</time>
      </trkpt>
      <trkpt lat="43.23277" lon="-0.67391">
        <ele>187.4099968</ele>
        <time>2018-09-30T10:28:00.000Z</time>
      </trkpt>
      <trkpt lat="43.23274" lon="-0.67384">
        <ele>187</ele>
        <time>2018-09-30T10:28:02.000Z</time>
      </trkpt>
      <trkpt lat="43.23269" lon="-0.67377">
        <ele>187</ele>
        <time>2018-09-30T10:28:04.000Z</time>
      </trkpt>
      <trkpt lat="43.23266" lon="-0.67374">
        <ele>187</ele>
        <time>2018-09-30T10:28:05.000Z</time>
      </trkpt>
      <trkpt lat="43.23259" lon="-0.67371">
        <ele>188</ele>
        <time>2018-09-30T10:28:07.000Z</time>
      </trkpt>
      <trkpt lat="43.23253" lon="-0.67369">
        <ele>188</ele>
        <time>2018-09-30T10:28:09.000Z</time>
      </trkpt>
      <trkpt lat="43.23247" lon="-0.67368">
        <ele>188</ele>
        <time>2018-09-30T10:28:11.000Z</time>
      </trkpt>
      <trkpt lat="43.23241" lon="-0.67366">
        <ele>188.5900032</ele>
        <time>2018-09-30T10:28:13.000Z</time>
      </trkpt>
      <trkpt lat="43.23235" lon="-0.67363">
        <ele>190</ele>
        <time>2018-09-30T10:28:15.000Z</time>
      </trkpt>
      <trkpt lat="43.23229" lon="-0.67363">
        <ele>190</ele>
        <time>2018-09-30T10:28:17.000Z</time>
      </trkpt>
      <trkpt lat="43.23224" lon="-0.67366">
        <ele>191</ele>
        <time>2018-09-30T10:28:19.000Z</time>
      </trkpt>
      <trkpt lat="43.2322" lon="-0.6737">
        <ele>191</ele>
        <time>2018-09-30T10:28:21.000Z</time>
      </trkpt>
      <trkpt lat="43.23215" lon="-0.67375">
        <ele>192</ele>
        <time>2018-09-30T10:28:23.000Z</time>
      </trkpt>
      <trkpt lat="43.2321" lon="-0.6738">
        <ele>192</ele>
        <time>2018-09-30T10:28:25.000Z</time>
      </trkpt>
      <trkpt lat="43.23205" lon="-0.67386">
        <ele>192</ele>
        <time>2018-09-30T10:28:27.000Z</time>
      </trkpt>
      <trkpt lat="43.23201" lon="-0.67391">
        <ele>192</ele>
        <time>2018-09-30T10:28:29.000Z</time>
      </trkpt>
      <trkpt lat="43.23196" lon="-0.67396">
        <ele>192.5900032</ele>
        <time>2018-09-30T10:28:31.000Z</time>
      </trkpt>
      <trkpt lat="43.23191" lon="-0.67402">
        <ele>193</ele>
        <time>2018-09-30T10:28:33.000Z</time>
      </trkpt>
      <trkpt lat="43.23186" lon="-0.67408">
        <ele>193</ele>
        <time>2018-09-30T10:28:35.000Z</time>
      </trkpt>
      <trkpt lat="43.2318" lon="-0.67414">
        <ele>193</ele>
        <time>2018-09-30T10:28:37.000Z</time>
      </trkpt>
      <trkpt lat="43.23175" lon="-0.6742">
        <ele>193</ele>
        <time>2018-09-30T10:28:39.000Z</time>
      </trkpt>
      <trkpt lat="43.23172" lon="-0.67423">
        <ele>193</ele>
        <time>2018-09-30T10:28:40.000Z</time>
      </trkpt>
      <trkpt lat="43.23169" lon="-0.67427">
        <ele>193</ele>
        <time>2018-09-30T10:28:41.000Z</time>
      </trkpt>
      <trkpt lat="43.23166" lon="-0.6743">
        <ele>193</ele>
        <time>2018-09-30T10:28:42.000Z</time>
      </trkpt>
      <trkpt lat="43.23162" lon="-0.67432">
        <ele>193</ele>
        <time>2018-09-30T10:28:43.000Z</time>
      </trkpt>
      <trkpt lat="43.23158" lon="-0.67434">
        <ele>193</ele>
        <time>2018-09-30T10:28:44.000Z</time>
      </trkpt>
      <trkpt lat="43.23154" lon="-0.67436">
        <ele>193</ele>
        <time>2018-09-30T10:28:45.000Z</time>
      </trkpt>
      <trkpt lat="43.23149" lon="-0.67436">
        <ele>193</ele>
        <time>2018-09-30T10:28:46.000Z</time>
      </trkpt>
      <trkpt lat="43.23145" lon="-0.67436">
        <ele>193</ele>
        <time>2018-09-30T10:28:47.000Z</time>
      </trkpt>
      <trkpt lat="43.2314" lon="-0.67436">
        <ele>193</ele>
        <time>2018-09-30T10:28:48.000Z</time>
      </trkpt>
      <trkpt lat="43.23135" lon="-0.67436">
        <ele>193</ele>
        <time>2018-09-30T10:28:49.000Z</time>
      </trkpt>
      <trkpt lat="43.23131" lon="-0.67436">
        <ele>193</ele>
        <time>2018-09-30T10:28:50.000Z</time>
      </trkpt>
      <trkpt lat="43.23126" lon="-0.67436">
        <ele>193</ele>
        <time>2018-09-30T10:28:51.000Z</time>
      </trkpt>
      <trkpt lat="43.23121" lon="-0.67436">
        <ele>193</ele>
        <time>2018-09-30T10:28:52.000Z</time>
      </trkpt>
      <trkpt lat="43.23117" lon="-0.67435">
        <ele>193</ele>
        <time>2018-09-30T10:28:53.000Z</time>
      </trkpt>
      <trkpt lat="43.23112" lon="-0.67434">
        <ele>193</ele>
        <time>2018-09-30T10:28:54.000Z</time>
      </trkpt>
      <trkpt lat="43.23108" lon="-0.67433">
        <ele>193</ele>
        <time>2018-09-30T10:28:55.000Z</time>
      </trkpt>
      <trkpt lat="43.23105" lon="-0.6743">
        <ele>193</ele>
        <time>2018-09-30T10:28:56.000Z</time>
      </trkpt>
      <trkpt lat="43.23101" lon="-0.67427">
        <ele>193</ele>
        <time>2018-09-30T10:28:57.000Z</time>
      </trkpt>
      <trkpt lat="43.23098" lon="-0.67424">
        <ele>193</ele>
        <time>2018-09-30T10:28:58.000Z</time>
      </trkpt>
      <trkpt lat="43.23095" lon="-0.6742">
        <ele>193</ele>
        <time>2018-09-30T10:28:59.000Z</time>
      </trkpt>
      <trkpt lat="43.23092" lon="-0.67416">
        <ele>193</ele>
        <time>2018-09-30T10:29:00.000Z</time>
      </trkpt>
      <trkpt lat="43.23088" lon="-0.67412">
        <ele>193</ele>
        <time>2018-09-30T10:29:01.000Z</time>
      </trkpt>
      <trkpt lat="43.23085" lon="-0.67408">
        <ele>193</ele>
        <time>2018-09-30T10:29:02.000Z</time>
      </trkpt>
      <trkpt lat="43.23081" lon="-0.67406">
        <ele>193</ele>
        <time>2018-09-30T10:29:03.000Z</time>
      </trkpt>
      <trkpt lat="43.23075" lon="-0.67402">
        <ele>193</ele>
        <time>2018-09-30T10:29:05.000Z</time>
      </trkpt>
      <trkpt lat="43.23072" lon="-0.67399">
        <ele>193</ele>
        <time>2018-09-30T10:29:06.000Z</time>
      </trkpt>
      <trkpt lat="43.2307" lon="-0.67395">
        <ele>193</ele>
        <time>2018-09-30T10:29:07.000Z</time>
      </trkpt>
      <trkpt lat="43.23067" lon="-0.6739">
        <ele>193</ele>
        <time>2018-09-30T10:29:08.000Z</time>
      </trkpt>
      <trkpt lat="43.23065" lon="-0.67386">
        <ele>193</ele>
        <time>2018-09-30T10:29:09.000Z</time>
      </trkpt>
      <trkpt lat="43.23063" lon="-0.67382">
        <ele>193</ele>
        <time>2018-09-30T10:29:10.000Z</time>
      </trkpt>
      <trkpt lat="43.23058" lon="-0.67375">
        <ele>194</ele>
        <time>2018-09-30T10:29:12.000Z</time>
      </trkpt>
      <trkpt lat="43.23056" lon="-0.67371">
        <ele>194</ele>
        <time>2018-09-30T10:29:13.000Z</time>
      </trkpt>
      <trkpt lat="43.23053" lon="-0.67366">
        <ele>194</ele>
        <time>2018-09-30T10:29:14.000Z</time>
      </trkpt>
      <trkpt lat="43.23051" lon="-0.67362">
        <ele>194</ele>
        <time>2018-09-30T10:29:15.000Z</time>
      </trkpt>
      <trkpt lat="43.23048" lon="-0.67358">
        <ele>194</ele>
        <time>2018-09-30T10:29:16.000Z</time>
      </trkpt>
      <trkpt lat="43.23045" lon="-0.67354">
        <ele>194</ele>
        <time>2018-09-30T10:29:17.000Z</time>
      </trkpt>
      <trkpt lat="43.23043" lon="-0.67349">
        <ele>194</ele>
        <time>2018-09-30T10:29:18.000Z</time>
      </trkpt>
      <trkpt lat="43.2304" lon="-0.67345">
        <ele>194</ele>
        <time>2018-09-30T10:29:19.000Z</time>
      </trkpt>
      <trkpt lat="43.23038" lon="-0.6734">
        <ele>194</ele>
        <time>2018-09-30T10:29:20.000Z</time>
      </trkpt>
      <trkpt lat="43.23036" lon="-0.67336">
        <ele>194</ele>
        <time>2018-09-30T10:29:21.000Z</time>
      </trkpt>
      <trkpt lat="43.23034" lon="-0.67332">
        <ele>194</ele>
        <time>2018-09-30T10:29:22.000Z</time>
      </trkpt>
      <trkpt lat="43.23032" lon="-0.67327">
        <ele>194.5900032</ele>
        <time>2018-09-30T10:29:23.000Z</time>
      </trkpt>
      <trkpt lat="43.2303" lon="-0.67323">
        <ele>195</ele>
        <time>2018-09-30T10:29:24.000Z</time>
      </trkpt>
      <trkpt lat="43.23027" lon="-0.67319">
        <ele>195</ele>
        <time>2018-09-30T10:29:25.000Z</time>
      </trkpt>
      <trkpt lat="43.23023" lon="-0.67312">
        <ele>196.42253191029</ele>
        <time>2018-09-30T10:29:27.000Z</time>
      </trkpt>
      <trkpt lat="43.23021" lon="-0.67308">
        <ele>197</ele>
        <time>2018-09-30T10:29:28.000Z</time>
      </trkpt>
      <trkpt lat="43.23019" lon="-0.67304">
        <ele>197</ele>
        <time>2018-09-30T10:29:29.000Z</time>
      </trkpt>
      <trkpt lat="43.23016" lon="-0.67299">
        <ele>197</ele>
        <time>2018-09-30T10:29:30.000Z</time>
      </trkpt>
      <trkpt lat="43.23014" lon="-0.67296">
        <ele>197.5900032</ele>
        <time>2018-09-30T10:29:31.000Z</time>
      </trkpt>
      <trkpt lat="43.2301" lon="-0.67288">
        <ele>198.43056</ele>
        <time>2018-09-30T10:29:33.000Z</time>
      </trkpt>
      <trkpt lat="43.23005" lon="-0.67281">
        <ele>200</ele>
        <time>2018-09-30T10:29:35.000Z</time>
      </trkpt>
      <trkpt lat="43.23001" lon="-0.67274">
        <ele>199.4099968</ele>
        <time>2018-09-30T10:29:37.000Z</time>
      </trkpt>
      <trkpt lat="43.22996" lon="-0.67268">
        <ele>199.58586315681</ele>
        <time>2018-09-30T10:29:39.000Z</time>
      </trkpt>
      <trkpt lat="43.2299" lon="-0.67266">
        <ele>200</ele>
        <time>2018-09-30T10:29:41.000Z</time>
      </trkpt>
      <trkpt lat="43.22983" lon="-0.67267">
        <ele>200</ele>
        <time>2018-09-30T10:29:43.000Z</time>
      </trkpt>
      <trkpt lat="43.22976" lon="-0.67269">
        <ele>200</ele>
        <time>2018-09-30T10:29:45.000Z</time>
      </trkpt>
      <trkpt lat="43.22972" lon="-0.6727">
        <ele>200</ele>
        <time>2018-09-30T10:29:46.000Z</time>
      </trkpt>
      <trkpt lat="43.22967" lon="-0.67272">
        <ele>200</ele>
        <time>2018-09-30T10:29:47.000Z</time>
      </trkpt>
      <trkpt lat="43.22963" lon="-0.67273">
        <ele>199.4099968</ele>
        <time>2018-09-30T10:29:48.000Z</time>
      </trkpt>
      <trkpt lat="43.22958" lon="-0.67275">
        <ele>198.4099968</ele>
        <time>2018-09-30T10:29:49.000Z</time>
      </trkpt>
      <trkpt lat="43.22952" lon="-0.67277">
        <ele>198</ele>
        <time>2018-09-30T10:29:50.000Z</time>
      </trkpt>
      <trkpt lat="43.22946" lon="-0.67279">
        <ele>197.56296162853</ele>
        <time>2018-09-30T10:29:51.000Z</time>
      </trkpt>
      <trkpt lat="43.2294" lon="-0.67282">
        <ele>197</ele>
        <time>2018-09-30T10:29:52.000Z</time>
      </trkpt>
      <trkpt lat="43.22933" lon="-0.67284">
        <ele>197</ele>
        <time>2018-09-30T10:29:53.000Z</time>
      </trkpt>
      <trkpt lat="43.22926" lon="-0.67287">
        <ele>196.4099968</ele>
        <time>2018-09-30T10:29:54.000Z</time>
      </trkpt>
      <trkpt lat="43.22919" lon="-0.67289">
        <ele>196</ele>
        <time>2018-09-30T10:29:55.000Z</time>
      </trkpt>
      <trkpt lat="43.22911" lon="-0.67289">
        <ele>196</ele>
        <time>2018-09-30T10:29:56.000Z</time>
      </trkpt>
      <trkpt lat="43.22904" lon="-0.67288">
        <ele>195.4226785078</ele>
        <time>2018-09-30T10:29:57.000Z</time>
      </trkpt>
      <trkpt lat="43.22897" lon="-0.67286">
        <ele>194.55302787879</ele>
        <time>2018-09-30T10:29:58.000Z</time>
      </trkpt>
      <trkpt lat="43.2289" lon="-0.67283">
        <ele>194</ele>
        <time>2018-09-30T10:29:59.000Z</time>
      </trkpt>
      <trkpt lat="43.22883" lon="-0.6728">
        <ele>194</ele>
        <time>2018-09-30T10:30:00.000Z</time>
      </trkpt>
      <trkpt lat="43.22877" lon="-0.67276">
        <ele>194</ele>
        <time>2018-09-30T10:30:01.000Z</time>
      </trkpt>
      <trkpt lat="43.22872" lon="-0.67272">
        <ele>194</ele>
        <time>2018-09-30T10:30:02.000Z</time>
      </trkpt>
      <trkpt lat="43.22867" lon="-0.67268">
        <ele>194</ele>
        <time>2018-09-30T10:30:03.000Z</time>
      </trkpt>
      <trkpt lat="43.22862" lon="-0.67264">
        <ele>194.5900032</ele>
        <time>2018-09-30T10:30:04.000Z</time>
      </trkpt>
      <trkpt lat="43.22858" lon="-0.6726">
        <ele>195</ele>
        <time>2018-09-30T10:30:05.000Z</time>
      </trkpt>
      <trkpt lat="43.22854" lon="-0.67256">
        <ele>195</ele>
        <time>2018-09-30T10:30:06.000Z</time>
      </trkpt>
      <trkpt lat="43.2285" lon="-0.67251">
        <ele>195</ele>
        <time>2018-09-30T10:30:07.000Z</time>
      </trkpt>
      <trkpt lat="43.22847" lon="-0.67247">
        <ele>195</ele>
        <time>2018-09-30T10:30:08.000Z</time>
      </trkpt>
      <trkpt lat="43.22843" lon="-0.67242">
        <ele>195</ele>
        <time>2018-09-30T10:30:09.000Z</time>
      </trkpt>
      <trkpt lat="43.22839" lon="-0.67237">
        <ele>195</ele>
        <time>2018-09-30T10:30:10.000Z</time>
      </trkpt>
      <trkpt lat="43.22836" lon="-0.67232">
        <ele>195</ele>
        <time>2018-09-30T10:30:11.000Z</time>
      </trkpt>
      <trkpt lat="43.22832" lon="-0.67227">
        <ele>195</ele>
        <time>2018-09-30T10:30:12.000Z</time>
      </trkpt>
      <trkpt lat="43.22828" lon="-0.67222">
        <ele>195</ele>
        <time>2018-09-30T10:30:13.000Z</time>
      </trkpt>
      <trkpt lat="43.22825" lon="-0.67217">
        <ele>195</ele>
        <time>2018-09-30T10:30:14.000Z</time>
      </trkpt>
      <trkpt lat="43.22822" lon="-0.67211">
        <ele>195</ele>
        <time>2018-09-30T10:30:15.000Z</time>
      </trkpt>
      <trkpt lat="43.22818" lon="-0.67206">
        <ele>195</ele>
        <time>2018-09-30T10:30:16.000Z</time>
      </trkpt>
      <trkpt lat="43.22815" lon="-0.672">
        <ele>195</ele>
        <time>2018-09-30T10:30:17.000Z</time>
      </trkpt>
      <trkpt lat="43.22812" lon="-0.67194">
        <ele>195</ele>
        <time>2018-09-30T10:30:18.000Z</time>
      </trkpt>
      <trkpt lat="43.22809" lon="-0.67189">
        <ele>195</ele>
        <time>2018-09-30T10:30:19.000Z</time>
      </trkpt>
      <trkpt lat="43.22806" lon="-0.67183">
        <ele>195</ele>
        <time>2018-09-30T10:30:20.000Z</time>
      </trkpt>
      <trkpt lat="43.22803" lon="-0.67178">
        <ele>195</ele>
        <time>2018-09-30T10:30:21.000Z</time>
      </trkpt>
      <trkpt lat="43.228" lon="-0.67172">
        <ele>195</ele>
        <time>2018-09-30T10:30:22.000Z</time>
      </trkpt>
      <trkpt lat="43.22797" lon="-0.67167">
        <ele>195</ele>
        <time>2018-09-30T10:30:23.000Z</time>
      </trkpt>
      <trkpt lat="43.22793" lon="-0.67162">
        <ele>195</ele>
        <time>2018-09-30T10:30:24.000Z</time>
      </trkpt>
      <trkpt lat="43.22789" lon="-0.67157">
        <ele>195</ele>
        <time>2018-09-30T10:30:25.000Z</time>
      </trkpt>
      <trkpt lat="43.22786" lon="-0.67152">
        <ele>195</ele>
        <time>2018-09-30T10:30:26.000Z</time>
      </trkpt>
      <trkpt lat="43.22782" lon="-0.67148">
        <ele>195</ele>
        <time>2018-09-30T10:30:27.000Z</time>
      </trkpt>
      <trkpt lat="43.22778" lon="-0.67143">
        <ele>195</ele>
        <time>2018-09-30T10:30:28.000Z</time>
      </trkpt>
      <trkpt lat="43.22774" lon="-0.6714">
        <ele>195.44531</ele>
        <time>2018-09-30T10:30:29.000Z</time>
      </trkpt>
      <trkpt lat="43.22769" lon="-0.67137">
        <ele>196</ele>
        <time>2018-09-30T10:30:30.000Z</time>
      </trkpt>
      <trkpt lat="43.22764" lon="-0.67135">
        <ele>196</ele>
        <time>2018-09-30T10:30:31.000Z</time>
      </trkpt>
      <trkpt lat="43.22759" lon="-0.67133">
        <ele>196</ele>
        <time>2018-09-30T10:30:32.000Z</time>
      </trkpt>
      <trkpt lat="43.22754" lon="-0.67131">
        <ele>196</ele>
        <time>2018-09-30T10:30:33.000Z</time>
      </trkpt>
      <trkpt lat="43.22748" lon="-0.6713">
        <ele>196</ele>
        <time>2018-09-30T10:30:34.000Z</time>
      </trkpt>
      <trkpt lat="43.22743" lon="-0.67128">
        <ele>196</ele>
        <time>2018-09-30T10:30:35.000Z</time>
      </trkpt>
      <trkpt lat="43.22738" lon="-0.67125">
        <ele>196</ele>
        <time>2018-09-30T10:30:36.000Z</time>
      </trkpt>
      <trkpt lat="43.22733" lon="-0.67123">
        <ele>196</ele>
        <time>2018-09-30T10:30:37.000Z</time>
      </trkpt>
      <trkpt lat="43.22728" lon="-0.6712">
        <ele>196</ele>
        <time>2018-09-30T10:30:38.000Z</time>
      </trkpt>
      <trkpt lat="43.22723" lon="-0.67117">
        <ele>196</ele>
        <time>2018-09-30T10:30:39.000Z</time>
      </trkpt>
      <trkpt lat="43.22717" lon="-0.67113">
        <ele>196</ele>
        <time>2018-09-30T10:30:40.000Z</time>
      </trkpt>
      <trkpt lat="43.22712" lon="-0.6711">
        <ele>196</ele>
        <time>2018-09-30T10:30:41.000Z</time>
      </trkpt>
      <trkpt lat="43.22707" lon="-0.67107">
        <ele>196</ele>
        <time>2018-09-30T10:30:42.000Z</time>
      </trkpt>
      <trkpt lat="43.22701" lon="-0.67104">
        <ele>195.4099968</ele>
        <time>2018-09-30T10:30:43.000Z</time>
      </trkpt>
      <trkpt lat="43.22696" lon="-0.67102">
        <ele>195</ele>
        <time>2018-09-30T10:30:44.000Z</time>
      </trkpt>
      <trkpt lat="43.22691" lon="-0.67099">
        <ele>195</ele>
        <time>2018-09-30T10:30:45.000Z</time>
      </trkpt>
      <trkpt lat="43.22686" lon="-0.67096">
        <ele>195</ele>
        <time>2018-09-30T10:30:46.000Z</time>
      </trkpt>
      <trkpt lat="43.22681" lon="-0.67093">
        <ele>195</ele>
        <time>2018-09-30T10:30:47.000Z</time>
      </trkpt>
      <trkpt lat="43.22676" lon="-0.67091">
        <ele>195</ele>
        <time>2018-09-30T10:30:48.000Z</time>
      </trkpt>
      <trkpt lat="43.2267" lon="-0.67089">
        <ele>195</ele>
        <time>2018-09-30T10:30:49.000Z</time>
      </trkpt>
      <trkpt lat="43.22665" lon="-0.67088">
        <ele>195</ele>
        <time>2018-09-30T10:30:50.000Z</time>
      </trkpt>
      <trkpt lat="43.2266" lon="-0.67087">
        <ele>195</ele>
        <time>2018-09-30T10:30:51.000Z</time>
      </trkpt>
      <trkpt lat="43.22656" lon="-0.67086">
        <ele>195</ele>
        <time>2018-09-30T10:30:52.000Z</time>
      </trkpt>
      <trkpt lat="43.22651" lon="-0.67083">
        <ele>195</ele>
        <time>2018-09-30T10:30:53.000Z</time>
      </trkpt>
      <trkpt lat="43.22646" lon="-0.67079">
        <ele>195</ele>
        <time>2018-09-30T10:30:54.000Z</time>
      </trkpt>
      <trkpt lat="43.2264" lon="-0.67076">
        <ele>195</ele>
        <time>2018-09-30T10:30:55.000Z</time>
      </trkpt>
      <trkpt lat="43.22634" lon="-0.67072">
        <ele>195</ele>
        <time>2018-09-30T10:30:56.000Z</time>
      </trkpt>
      <trkpt lat="43.2263" lon="-0.67069">
        <ele>195</ele>
        <time>2018-09-30T10:30:57.000Z</time>
      </trkpt>
      <trkpt lat="43.22625" lon="-0.67067">
        <ele>195</ele>
        <time>2018-09-30T10:30:58.000Z</time>
      </trkpt>
      <trkpt lat="43.22621" lon="-0.67065">
        <ele>195</ele>
        <time>2018-09-30T10:30:59.000Z</time>
      </trkpt>
      <trkpt lat="43.22616" lon="-0.67065">
        <ele>195.5900032</ele>
        <time>2018-09-30T10:31:00.000Z</time>
      </trkpt>
      <trkpt lat="43.22611" lon="-0.67064">
        <ele>196.57281686115</ele>
        <time>2018-09-30T10:31:01.000Z</time>
      </trkpt>
      <trkpt lat="43.22606" lon="-0.67064">
        <ele>197</ele>
        <time>2018-09-30T10:31:02.000Z</time>
      </trkpt>
      <trkpt lat="43.22601" lon="-0.67065">
        <ele>197</ele>
        <time>2018-09-30T10:31:03.000Z</time>
      </trkpt>
      <trkpt lat="43.22595" lon="-0.67066">
        <ele>197.40579898342</ele>
        <time>2018-09-30T10:31:04.000Z</time>
      </trkpt>
      <trkpt lat="43.22589" lon="-0.67067">
        <ele>198</ele>
        <time>2018-09-30T10:31:05.000Z</time>
      </trkpt>
      <trkpt lat="43.22584" lon="-0.67068">
        <ele>198</ele>
        <time>2018-09-30T10:31:06.000Z</time>
      </trkpt>
      <trkpt lat="43.22578" lon="-0.67069">
        <ele>198</ele>
        <time>2018-09-30T10:31:07.000Z</time>
      </trkpt>
      <trkpt lat="43.22573" lon="-0.67069">
        <ele>197.57745767906</ele>
        <time>2018-09-30T10:31:08.000Z</time>
      </trkpt>
      <trkpt lat="43.22567" lon="-0.6707">
        <ele>197</ele>
        <time>2018-09-30T10:31:09.000Z</time>
      </trkpt>
      <trkpt lat="43.22561" lon="-0.6707">
        <ele>197</ele>
        <time>2018-09-30T10:31:10.000Z</time>
      </trkpt>
      <trkpt lat="43.22555" lon="-0.67071">
        <ele>197</ele>
        <time>2018-09-30T10:31:11.000Z</time>
      </trkpt>
      <trkpt lat="43.22548" lon="-0.67071">
        <ele>197</ele>
        <time>2018-09-30T10:31:12.000Z</time>
      </trkpt>
      <trkpt lat="43.22542" lon="-0.67072">
        <ele>197</ele>
        <time>2018-09-30T10:31:13.000Z</time>
      </trkpt>
      <trkpt lat="43.22536" lon="-0.67072">
        <ele>197</ele>
        <time>2018-09-30T10:31:14.000Z</time>
      </trkpt>
      <trkpt lat="43.2253" lon="-0.67072">
        <ele>197</ele>
        <time>2018-09-30T10:31:15.000Z</time>
      </trkpt>
      <trkpt lat="43.22525" lon="-0.67072">
        <ele>197</ele>
        <time>2018-09-30T10:31:16.000Z</time>
      </trkpt>
      <trkpt lat="43.22519" lon="-0.67073">
        <ele>197</ele>
        <time>2018-09-30T10:31:17.000Z</time>
      </trkpt>
      <trkpt lat="43.22514" lon="-0.67074">
        <ele>197</ele>
        <time>2018-09-30T10:31:18.000Z</time>
      </trkpt>
      <trkpt lat="43.22509" lon="-0.67074">
        <ele>197.5900032</ele>
        <time>2018-09-30T10:31:19.000Z</time>
      </trkpt>
      <trkpt lat="43.22504" lon="-0.67075">
        <ele>198</ele>
        <time>2018-09-30T10:31:20.000Z</time>
      </trkpt>
      <trkpt lat="43.22499" lon="-0.67075">
        <ele>198</ele>
        <time>2018-09-30T10:31:21.000Z</time>
      </trkpt>
      <trkpt lat="43.22494" lon="-0.67076">
        <ele>198</ele>
        <time>2018-09-30T10:31:22.000Z</time>
      </trkpt>
      <trkpt lat="43.22489" lon="-0.67077">
        <ele>198</ele>
        <time>2018-09-30T10:31:23.000Z</time>
      </trkpt>
      <trkpt lat="43.22484" lon="-0.67078">
        <ele>198</ele>
        <time>2018-09-30T10:31:24.000Z</time>
      </trkpt>
      <trkpt lat="43.22479" lon="-0.6708">
        <ele>198</ele>
        <time>2018-09-30T10:31:25.000Z</time>
      </trkpt>
      <trkpt lat="43.22474" lon="-0.67081">
        <ele>198</ele>
        <time>2018-09-30T10:31:26.000Z</time>
      </trkpt>
      <trkpt lat="43.2247" lon="-0.6708">
        <ele>198</ele>
        <time>2018-09-30T10:31:27.000Z</time>
      </trkpt>
      <trkpt lat="43.22465" lon="-0.67078">
        <ele>198</ele>
        <time>2018-09-30T10:31:28.000Z</time>
      </trkpt>
      <trkpt lat="43.22462" lon="-0.67075">
        <ele>198</ele>
        <time>2018-09-30T10:31:29.000Z</time>
      </trkpt>
      <trkpt lat="43.22459" lon="-0.67069">
        <ele>198</ele>
        <time>2018-09-30T10:31:30.000Z</time>
      </trkpt>
      <trkpt lat="43.22456" lon="-0.67062">
        <ele>198</ele>
        <time>2018-09-30T10:31:31.000Z</time>
      </trkpt>
      <trkpt lat="43.22454" lon="-0.67055">
        <ele>198</ele>
        <time>2018-09-30T10:31:32.000Z</time>
      </trkpt>
      <trkpt lat="43.22453" lon="-0.67047">
        <ele>198</ele>
        <time>2018-09-30T10:31:33.000Z</time>
      </trkpt>
      <trkpt lat="43.22453" lon="-0.6704">
        <ele>198</ele>
        <time>2018-09-30T10:31:34.000Z</time>
      </trkpt>
      <trkpt lat="43.22454" lon="-0.67033">
        <ele>198</ele>
        <time>2018-09-30T10:31:35.000Z</time>
      </trkpt>
      <trkpt lat="43.22456" lon="-0.67026">
        <ele>198</ele>
        <time>2018-09-30T10:31:36.000Z</time>
      </trkpt>
      <trkpt lat="43.22458" lon="-0.67018">
        <ele>198.5900032</ele>
        <time>2018-09-30T10:31:37.000Z</time>
      </trkpt>
      <trkpt lat="43.22461" lon="-0.6701">
        <ele>199</ele>
        <time>2018-09-30T10:31:38.000Z</time>
      </trkpt>
      <trkpt lat="43.22462" lon="-0.67002">
        <ele>199.5773214922</ele>
        <time>2018-09-30T10:31:39.000Z</time>
      </trkpt>
      <trkpt lat="43.22463" lon="-0.66994">
        <ele>200</ele>
        <time>2018-09-30T10:31:40.000Z</time>
      </trkpt>
      <trkpt lat="43.22463" lon="-0.66987">
        <ele>200.42253191029</ele>
        <time>2018-09-30T10:31:41.000Z</time>
      </trkpt>
      <trkpt lat="43.22462" lon="-0.6698">
        <ele>201</ele>
        <time>2018-09-30T10:31:42.000Z</time>
      </trkpt>
      <trkpt lat="43.22461" lon="-0.66973">
        <ele>201.58163318618</ele>
        <time>2018-09-30T10:31:43.000Z</time>
      </trkpt>
      <trkpt lat="43.2246" lon="-0.66967">
        <ele>202.5900032</ele>
        <time>2018-09-30T10:31:44.000Z</time>
      </trkpt>
      <trkpt lat="43.22459" lon="-0.66961">
        <ele>203</ele>
        <time>2018-09-30T10:31:45.000Z</time>
      </trkpt>
      <trkpt lat="43.22458" lon="-0.66955">
        <ele>203</ele>
        <time>2018-09-30T10:31:46.000Z</time>
      </trkpt>
      <trkpt lat="43.22458" lon="-0.6695">
        <ele>203</ele>
        <time>2018-09-30T10:31:47.000Z</time>
      </trkpt>
      <trkpt lat="43.22455" lon="-0.66942">
        <ele>203</ele>
        <time>2018-09-30T10:31:49.000Z</time>
      </trkpt>
      <trkpt lat="43.22455" lon="-0.66937">
        <ele>203</ele>
        <time>2018-09-30T10:31:51.000Z</time>
      </trkpt>
      <trkpt lat="43.22454" lon="-0.66929">
        <ele>203</ele>
        <time>2018-09-30T10:31:54.000Z</time>
      </trkpt>
      <trkpt lat="43.22452" lon="-0.66919">
        <ele>203</ele>
        <time>2018-09-30T10:31:56.000Z</time>
      </trkpt>
      <trkpt lat="43.22451" lon="-0.66912">
        <ele>203</ele>
        <time>2018-09-30T10:31:57.000Z</time>
      </trkpt>
      <trkpt lat="43.2245" lon="-0.66906">
        <ele>203</ele>
        <time>2018-09-30T10:31:58.000Z</time>
      </trkpt>
      <trkpt lat="43.22449" lon="-0.669">
        <ele>203</ele>
        <time>2018-09-30T10:31:59.000Z</time>
      </trkpt>
      <trkpt lat="43.22448" lon="-0.66893">
        <ele>202.4099968</ele>
        <time>2018-09-30T10:32:00.000Z</time>
      </trkpt>
      <trkpt lat="43.22448" lon="-0.66886">
        <ele>201.4099968</ele>
        <time>2018-09-30T10:32:01.000Z</time>
      </trkpt>
      <trkpt lat="43.22447" lon="-0.66879">
        <ele>201</ele>
        <time>2018-09-30T10:32:02.000Z</time>
      </trkpt>
      <trkpt lat="43.22446" lon="-0.66871">
        <ele>201</ele>
        <time>2018-09-30T10:32:03.000Z</time>
      </trkpt>
      <trkpt lat="43.22445" lon="-0.66862">
        <ele>201</ele>
        <time>2018-09-30T10:32:04.000Z</time>
      </trkpt>
      <trkpt lat="43.22444" lon="-0.66853">
        <ele>201</ele>
        <time>2018-09-30T10:32:05.000Z</time>
      </trkpt>
      <trkpt lat="43.22442" lon="-0.66845">
        <ele>200</ele>
        <time>2018-09-30T10:32:06.000Z</time>
      </trkpt>
      <trkpt lat="43.2244" lon="-0.66837">
        <ele>200</ele>
        <time>2018-09-30T10:32:07.000Z</time>
      </trkpt>
      <trkpt lat="43.22437" lon="-0.66829">
        <ele>199.4099968</ele>
        <time>2018-09-30T10:32:08.000Z</time>
      </trkpt>
      <trkpt lat="43.22433" lon="-0.66821">
        <ele>199</ele>
        <time>2018-09-30T10:32:09.000Z</time>
      </trkpt>
      <trkpt lat="43.2243" lon="-0.66813">
        <ele>199</ele>
        <time>2018-09-30T10:32:10.000Z</time>
      </trkpt>
      <trkpt lat="43.22427" lon="-0.66806">
        <ele>199</ele>
        <time>2018-09-30T10:32:11.000Z</time>
      </trkpt>
      <trkpt lat="43.22424" lon="-0.66799">
        <ele>199</ele>
        <time>2018-09-30T10:32:12.000Z</time>
      </trkpt>
      <trkpt lat="43.22421" lon="-0.66793">
        <ele>199</ele>
        <time>2018-09-30T10:32:13.000Z</time>
      </trkpt>
      <trkpt lat="43.22417" lon="-0.66786">
        <ele>199.57281686115</ele>
        <time>2018-09-30T10:32:14.000Z</time>
      </trkpt>
      <trkpt lat="43.22414" lon="-0.66781">
        <ele>200</ele>
        <time>2018-09-30T10:32:15.000Z</time>
      </trkpt>
      <trkpt lat="43.2241" lon="-0.66775">
        <ele>200</ele>
        <time>2018-09-30T10:32:16.000Z</time>
      </trkpt>
      <trkpt lat="43.22407" lon="-0.6677">
        <ele>200</ele>
        <time>2018-09-30T10:32:17.000Z</time>
      </trkpt>
      <trkpt lat="43.22404" lon="-0.66763">
        <ele>200</ele>
        <time>2018-09-30T10:32:18.000Z</time>
      </trkpt>
      <trkpt lat="43.22401" lon="-0.66757">
        <ele>200</ele>
        <time>2018-09-30T10:32:19.000Z</time>
      </trkpt>
      <trkpt lat="43.22399" lon="-0.6675">
        <ele>200</ele>
        <time>2018-09-30T10:32:20.000Z</time>
      </trkpt>
      <trkpt lat="43.22397" lon="-0.66744">
        <ele>200</ele>
        <time>2018-09-30T10:32:21.000Z</time>
      </trkpt>
      <trkpt lat="43.22395" lon="-0.66737">
        <ele>200.4142849306</ele>
        <time>2018-09-30T10:32:22.000Z</time>
      </trkpt>
      <trkpt lat="43.22393" lon="-0.66731">
        <ele>201</ele>
        <time>2018-09-30T10:32:23.000Z</time>
      </trkpt>
      <trkpt lat="43.22392" lon="-0.66724">
        <ele>201</ele>
        <time>2018-09-30T10:32:24.000Z</time>
      </trkpt>
      <trkpt lat="43.22391" lon="-0.66718">
        <ele>201</ele>
        <time>2018-09-30T10:32:25.000Z</time>
      </trkpt>
      <trkpt lat="43.2239" lon="-0.66712">
        <ele>201</ele>
        <time>2018-09-30T10:32:26.000Z</time>
      </trkpt>
      <trkpt lat="43.22389" lon="-0.66706">
        <ele>201.5900032</ele>
        <time>2018-09-30T10:32:27.000Z</time>
      </trkpt>
      <trkpt lat="43.22388" lon="-0.66699">
        <ele>202</ele>
        <time>2018-09-30T10:32:28.000Z</time>
      </trkpt>
      <trkpt lat="43.22387" lon="-0.66692">
        <ele>202</ele>
        <time>2018-09-30T10:32:29.000Z</time>
      </trkpt>
      <trkpt lat="43.22386" lon="-0.66686">
        <ele>202.5900032</ele>
        <time>2018-09-30T10:32:30.000Z</time>
      </trkpt>
      <trkpt lat="43.22385" lon="-0.66679">
        <ele>203</ele>
        <time>2018-09-30T10:32:31.000Z</time>
      </trkpt>
      <trkpt lat="43.22384" lon="-0.66673">
        <ele>203.4142849306</ele>
        <time>2018-09-30T10:32:32.000Z</time>
      </trkpt>
      <trkpt lat="43.22383" lon="-0.66667">
        <ele>204</ele>
        <time>2018-09-30T10:32:33.000Z</time>
      </trkpt>
      <trkpt lat="43.22382" lon="-0.66661">
        <ele>204</ele>
        <time>2018-09-30T10:32:34.000Z</time>
      </trkpt>
      <trkpt lat="43.22381" lon="-0.66656">
        <ele>204.5900032</ele>
        <time>2018-09-30T10:32:35.000Z</time>
      </trkpt>
      <trkpt lat="43.2238" lon="-0.66651">
        <ele>205</ele>
        <time>2018-09-30T10:32:36.000Z</time>
      </trkpt>
      <trkpt lat="43.22379" lon="-0.66646">
        <ele>205</ele>
        <time>2018-09-30T10:32:37.000Z</time>
      </trkpt>
      <trkpt lat="43.22379" lon="-0.6664">
        <ele>205</ele>
        <time>2018-09-30T10:32:38.000Z</time>
      </trkpt>
      <trkpt lat="43.22378" lon="-0.66635">
        <ele>205</ele>
        <time>2018-09-30T10:32:39.000Z</time>
      </trkpt>
      <trkpt lat="43.22377" lon="-0.66631">
        <ele>205</ele>
        <time>2018-09-30T10:32:40.000Z</time>
      </trkpt>
      <trkpt lat="43.22376" lon="-0.66626">
        <ele>205</ele>
        <time>2018-09-30T10:32:41.000Z</time>
      </trkpt>
      <trkpt lat="43.22374" lon="-0.66621">
        <ele>205.45384638106</ele>
        <time>2018-09-30T10:32:42.000Z</time>
      </trkpt>
      <trkpt lat="43.22373" lon="-0.66616">
        <ele>206.4142849306</ele>
        <time>2018-09-30T10:32:43.000Z</time>
      </trkpt>
      <trkpt lat="43.22372" lon="-0.66611">
        <ele>207.45736341807</ele>
        <time>2018-09-30T10:32:44.000Z</time>
      </trkpt>
      <trkpt lat="43.22371" lon="-0.66607">
        <ele>208</ele>
        <time>2018-09-30T10:32:45.000Z</time>
      </trkpt>
      <trkpt lat="43.2237" lon="-0.66602">
        <ele>208</ele>
        <time>2018-09-30T10:32:46.000Z</time>
      </trkpt>
      <trkpt lat="43.22369" lon="-0.66593">
        <ele>208.5900032</ele>
        <time>2018-09-30T10:32:48.000Z</time>
      </trkpt>
      <trkpt lat="43.22367" lon="-0.66583">
        <ele>209</ele>
        <time>2018-09-30T10:32:50.000Z</time>
      </trkpt>
      <trkpt lat="43.22365" lon="-0.66574">
        <ele>209</ele>
        <time>2018-09-30T10:32:52.000Z</time>
      </trkpt>
      <trkpt lat="43.22363" lon="-0.66565">
        <ele>210.5900032</ele>
        <time>2018-09-30T10:32:54.000Z</time>
      </trkpt>
      <trkpt lat="43.22361" lon="-0.66556">
        <ele>211</ele>
        <time>2018-09-30T10:32:56.000Z</time>
      </trkpt>
      <trkpt lat="43.22359" lon="-0.66548">
        <ele>211</ele>
        <time>2018-09-30T10:32:58.000Z</time>
      </trkpt>
      <trkpt lat="43.22356" lon="-0.6654">
        <ele>211</ele>
        <time>2018-09-30T10:33:00.000Z</time>
      </trkpt>
      <trkpt lat="43.22353" lon="-0.66533">
        <ele>211</ele>
        <time>2018-09-30T10:33:02.000Z</time>
      </trkpt>
      <trkpt lat="43.22351" lon="-0.66526">
        <ele>211</ele>
        <time>2018-09-30T10:33:04.000Z</time>
      </trkpt>
      <trkpt lat="43.22348" lon="-0.66521">
        <ele>211.5900032</ele>
        <time>2018-09-30T10:33:06.000Z</time>
      </trkpt>
      <trkpt lat="43.22345" lon="-0.66514">
        <ele>212</ele>
        <time>2018-09-30T10:33:08.000Z</time>
      </trkpt>
      <trkpt lat="43.22341" lon="-0.66507">
        <ele>212</ele>
        <time>2018-09-30T10:33:10.000Z</time>
      </trkpt>
      <trkpt lat="43.22338" lon="-0.665">
        <ele>213</ele>
        <time>2018-09-30T10:33:12.000Z</time>
      </trkpt>
      <trkpt lat="43.22334" lon="-0.66493">
        <ele>213</ele>
        <time>2018-09-30T10:33:14.000Z</time>
      </trkpt>
      <trkpt lat="43.22332" lon="-0.6649">
        <ele>213</ele>
        <time>2018-09-30T10:33:15.000Z</time>
      </trkpt>
      <trkpt lat="43.2233" lon="-0.66485">
        <ele>213</ele>
        <time>2018-09-30T10:33:16.000Z</time>
      </trkpt>
      <trkpt lat="43.22327" lon="-0.6648">
        <ele>212.4099968</ele>
        <time>2018-09-30T10:33:17.000Z</time>
      </trkpt>
      <trkpt lat="43.22323" lon="-0.66476">
        <ele>212</ele>
        <time>2018-09-30T10:33:18.000Z</time>
      </trkpt>
      <trkpt lat="43.2232" lon="-0.66472">
        <ele>212</ele>
        <time>2018-09-30T10:33:19.000Z</time>
      </trkpt>
      <trkpt lat="43.22317" lon="-0.66467">
        <ele>212</ele>
        <time>2018-09-30T10:33:20.000Z</time>
      </trkpt>
      <trkpt lat="43.22313" lon="-0.66463">
        <ele>212</ele>
        <time>2018-09-30T10:33:21.000Z</time>
      </trkpt>
      <trkpt lat="43.22309" lon="-0.66458">
        <ele>212</ele>
        <time>2018-09-30T10:33:22.000Z</time>
      </trkpt>
      <trkpt lat="43.22305" lon="-0.66453">
        <ele>212</ele>
        <time>2018-09-30T10:33:23.000Z</time>
      </trkpt>
      <trkpt lat="43.22301" lon="-0.66448">
        <ele>212</ele>
        <time>2018-09-30T10:33:24.000Z</time>
      </trkpt>
      <trkpt lat="43.22297" lon="-0.66444">
        <ele>211.54961697804</ele>
        <time>2018-09-30T10:33:25.000Z</time>
      </trkpt>
      <trkpt lat="43.22294" lon="-0.66439">
        <ele>211</ele>
        <time>2018-09-30T10:33:26.000Z</time>
      </trkpt>
      <trkpt lat="43.22291" lon="-0.66435">
        <ele>211</ele>
        <time>2018-09-30T10:33:27.000Z</time>
      </trkpt>
      <trkpt lat="43.22288" lon="-0.66431">
        <ele>211</ele>
        <time>2018-09-30T10:33:28.000Z</time>
      </trkpt>
      <trkpt lat="43.22286" lon="-0.66424">
        <ele>211.5900032</ele>
        <time>2018-09-30T10:33:30.000Z</time>
      </trkpt>
      <trkpt lat="43.22285" lon="-0.66408">
        <ele>212</ele>
        <time>2018-09-30T10:33:33.000Z</time>
      </trkpt>
      <trkpt lat="43.22285" lon="-0.66402">
        <ele>212.5900032</ele>
        <time>2018-09-30T10:33:34.000Z</time>
      </trkpt>
      <trkpt lat="43.22285" lon="-0.66396">
        <ele>213.5900032</ele>
        <time>2018-09-30T10:33:35.000Z</time>
      </trkpt>
      <trkpt lat="43.22285" lon="-0.6639">
        <ele>214</ele>
        <time>2018-09-30T10:33:36.000Z</time>
      </trkpt>
      <trkpt lat="43.22285" lon="-0.66384">
        <ele>214.5900032</ele>
        <time>2018-09-30T10:33:37.000Z</time>
      </trkpt>
      <trkpt lat="43.22289" lon="-0.66377">
        <ele>215.45384638106</ele>
        <time>2018-09-30T10:33:39.000Z</time>
      </trkpt>
      <trkpt lat="43.22297" lon="-0.66364">
        <ele>218</ele>
        <time>2018-09-30T10:33:43.000Z</time>
      </trkpt>
      <trkpt lat="43.22305" lon="-0.66351">
        <ele>221</ele>
        <time>2018-09-30T10:33:47.000Z</time>
      </trkpt>
      <trkpt lat="43.22309" lon="-0.66336">
        <ele>222</ele>
        <time>2018-09-30T10:33:50.000Z</time>
      </trkpt>
      <trkpt lat="43.22312" lon="-0.66326">
        <ele>223</ele>
        <time>2018-09-30T10:33:52.000Z</time>
      </trkpt>
      <trkpt lat="43.22313" lon="-0.66321">
        <ele>223.44697212121</ele>
        <time>2018-09-30T10:33:53.000Z</time>
      </trkpt>
      <trkpt lat="43.22314" lon="-0.66315">
        <ele>224</ele>
        <time>2018-09-30T10:33:54.000Z</time>
      </trkpt>
      <trkpt lat="43.22315" lon="-0.6631">
        <ele>224.5900032</ele>
        <time>2018-09-30T10:33:55.000Z</time>
      </trkpt>
      <trkpt lat="43.22317" lon="-0.66306">
        <ele>225</ele>
        <time>2018-09-30T10:33:56.000Z</time>
      </trkpt>
      <trkpt lat="43.22318" lon="-0.66301">
        <ele>225</ele>
        <time>2018-09-30T10:33:57.000Z</time>
      </trkpt>
      <trkpt lat="43.22319" lon="-0.66296">
        <ele>225.45384638106</ele>
        <time>2018-09-30T10:33:58.000Z</time>
      </trkpt>
      <trkpt lat="43.2232" lon="-0.66291">
        <ele>226.4142849306</ele>
        <time>2018-09-30T10:33:59.000Z</time>
      </trkpt>
      <trkpt lat="43.22321" lon="-0.66286">
        <ele>227.5900032</ele>
        <time>2018-09-30T10:34:00.000Z</time>
      </trkpt>
      <trkpt lat="43.22321" lon="-0.66281">
        <ele>228</ele>
        <time>2018-09-30T10:34:01.000Z</time>
      </trkpt>
      <trkpt lat="43.22322" lon="-0.66276">
        <ele>228</ele>
        <time>2018-09-30T10:34:02.000Z</time>
      </trkpt>
      <trkpt lat="43.22323" lon="-0.66268">
        <ele>228</ele>
        <time>2018-09-30T10:34:04.000Z</time>
      </trkpt>
      <trkpt lat="43.22324" lon="-0.66259">
        <ele>228.5900032</ele>
        <time>2018-09-30T10:34:06.000Z</time>
      </trkpt>
      <trkpt lat="43.22326" lon="-0.6625">
        <ele>229.4142849306</ele>
        <time>2018-09-30T10:34:08.000Z</time>
      </trkpt>
      <trkpt lat="43.22326" lon="-0.66241">
        <ele>230.5900032</ele>
        <time>2018-09-30T10:34:10.000Z</time>
      </trkpt>
      <trkpt lat="43.22324" lon="-0.66232">
        <ele>231</ele>
        <time>2018-09-30T10:34:12.000Z</time>
      </trkpt>
      <trkpt lat="43.22324" lon="-0.66224">
        <ele>231</ele>
        <time>2018-09-30T10:34:14.000Z</time>
      </trkpt>
      <trkpt lat="43.22328" lon="-0.66216">
        <ele>231</ele>
        <time>2018-09-30T10:34:16.000Z</time>
      </trkpt>
      <trkpt lat="43.2233" lon="-0.66212">
        <ele>231</ele>
        <time>2018-09-30T10:34:17.000Z</time>
      </trkpt>
      <trkpt lat="43.22335" lon="-0.66205">
        <ele>232</ele>
        <time>2018-09-30T10:34:19.000Z</time>
      </trkpt>
      <trkpt lat="43.22338" lon="-0.66202">
        <ele>232</ele>
        <time>2018-09-30T10:34:20.000Z</time>
      </trkpt>
      <trkpt lat="43.22341" lon="-0.66198">
        <ele>232</ele>
        <time>2018-09-30T10:34:21.000Z</time>
      </trkpt>
      <trkpt lat="43.22344" lon="-0.66194">
        <ele>232</ele>
        <time>2018-09-30T10:34:22.000Z</time>
      </trkpt>
      <trkpt lat="43.22347" lon="-0.6619">
        <ele>232.5900032</ele>
        <time>2018-09-30T10:34:23.000Z</time>
      </trkpt>
      <trkpt lat="43.2235" lon="-0.66186">
        <ele>233</ele>
        <time>2018-09-30T10:34:24.000Z</time>
      </trkpt>
      <trkpt lat="43.22353" lon="-0.66182">
        <ele>233</ele>
        <time>2018-09-30T10:34:25.000Z</time>
      </trkpt>
      <trkpt lat="43.22355" lon="-0.66177">
        <ele>233</ele>
        <time>2018-09-30T10:34:26.000Z</time>
      </trkpt>
      <trkpt lat="43.22358" lon="-0.66173">
        <ele>233</ele>
        <time>2018-09-30T10:34:27.000Z</time>
      </trkpt>
      <trkpt lat="43.22361" lon="-0.6617">
        <ele>233</ele>
        <time>2018-09-30T10:34:28.000Z</time>
      </trkpt>
      <trkpt lat="43.22367" lon="-0.66167">
        <ele>233</ele>
        <time>2018-09-30T10:34:30.000Z</time>
      </trkpt>
      <trkpt lat="43.22372" lon="-0.66168">
        <ele>233</ele>
        <time>2018-09-30T10:34:32.000Z</time>
      </trkpt>
      <trkpt lat="43.2238" lon="-0.66167">
        <ele>233</ele>
        <time>2018-09-30T10:34:34.000Z</time>
      </trkpt>
      <trkpt lat="43.22383" lon="-0.66164">
        <ele>233</ele>
        <time>2018-09-30T10:34:35.000Z</time>
      </trkpt>
      <trkpt lat="43.22387" lon="-0.6616">
        <ele>232.7100032</ele>
        <time>2018-09-30T10:34:36.000Z</time>
      </trkpt>
      <trkpt lat="43.2239" lon="-0.66152">
        <ele>233</ele>
        <time>2018-09-30T10:34:38.000Z</time>
      </trkpt>
      <trkpt lat="43.22391" lon="-0.66145">
        <ele>233</ele>
        <time>2018-09-30T10:34:40.000Z</time>
      </trkpt>
      <trkpt lat="43.22393" lon="-0.66137">
        <ele>233</ele>
        <time>2018-09-30T10:34:42.000Z</time>
      </trkpt>
      <trkpt lat="43.22395" lon="-0.6613">
        <ele>234</ele>
        <time>2018-09-30T10:34:44.000Z</time>
      </trkpt>
      <trkpt lat="43.22397" lon="-0.66123">
        <ele>235</ele>
        <time>2018-09-30T10:34:46.000Z</time>
      </trkpt>
      <trkpt lat="43.22399" lon="-0.66116">
        <ele>235.58585780226</ele>
        <time>2018-09-30T10:34:48.000Z</time>
      </trkpt>
      <trkpt lat="43.224" lon="-0.66108">
        <ele>236</ele>
        <time>2018-09-30T10:34:50.000Z</time>
      </trkpt>
      <trkpt lat="43.224" lon="-0.66101">
        <ele>236</ele>
        <time>2018-09-30T10:34:52.000Z</time>
      </trkpt>
      <trkpt lat="43.22397" lon="-0.66094">
        <ele>236</ele>
        <time>2018-09-30T10:34:54.000Z</time>
      </trkpt>
      <trkpt lat="43.22393" lon="-0.66089">
        <ele>236</ele>
        <time>2018-09-30T10:34:56.000Z</time>
      </trkpt>
      <trkpt lat="43.22389" lon="-0.66085">
        <ele>237</ele>
        <time>2018-09-30T10:34:58.000Z</time>
      </trkpt>
      <trkpt lat="43.22385" lon="-0.66082">
        <ele>237</ele>
        <time>2018-09-30T10:35:00.000Z</time>
      </trkpt>
      <trkpt lat="43.22382" lon="-0.66079">
        <ele>237</ele>
        <time>2018-09-30T10:35:02.000Z</time>
      </trkpt>
      <trkpt lat="43.22378" lon="-0.66075">
        <ele>238</ele>
        <time>2018-09-30T10:35:04.000Z</time>
      </trkpt>
      <trkpt lat="43.22374" lon="-0.66072">
        <ele>238</ele>
        <time>2018-09-30T10:35:06.000Z</time>
      </trkpt>
      <trkpt lat="43.2237" lon="-0.66068">
        <ele>238</ele>
        <time>2018-09-30T10:35:09.000Z</time>
      </trkpt>
      <trkpt lat="43.22366" lon="-0.66065">
        <ele>238</ele>
        <time>2018-09-30T10:35:12.000Z</time>
      </trkpt>
      <trkpt lat="43.22362" lon="-0.66061">
        <ele>238</ele>
        <time>2018-09-30T10:35:15.000Z</time>
      </trkpt>
      <trkpt lat="43.22357" lon="-0.66057">
        <ele>238</ele>
        <time>2018-09-30T10:35:18.000Z</time>
      </trkpt>
      <trkpt lat="43.22354" lon="-0.66054">
        <ele>238</ele>
        <time>2018-09-30T10:35:21.000Z</time>
      </trkpt>
      <trkpt lat="43.2235" lon="-0.66051">
        <ele>237</ele>
        <time>2018-09-30T10:35:24.000Z</time>
      </trkpt>
      <trkpt lat="43.22347" lon="-0.66047">
        <ele>237</ele>
        <time>2018-09-30T10:35:36.000Z</time>
      </trkpt>
      <trkpt lat="43.22343" lon="-0.66043">
        <ele>237</ele>
        <time>2018-09-30T10:35:39.000Z</time>
      </trkpt>
      <trkpt lat="43.22338" lon="-0.6604">
        <ele>237</ele>
        <time>2018-09-30T10:35:41.000Z</time>
      </trkpt>
      <trkpt lat="43.22334" lon="-0.66036">
        <ele>236.4099968</ele>
        <time>2018-09-30T10:35:43.000Z</time>
      </trkpt>
      <trkpt lat="43.22328" lon="-0.66032">
        <ele>236</ele>
        <time>2018-09-30T10:35:45.000Z</time>
      </trkpt>
      <trkpt lat="43.22323" lon="-0.66029">
        <ele>236</ele>
        <time>2018-09-30T10:35:47.000Z</time>
      </trkpt>
      <trkpt lat="43.22316" lon="-0.66027">
        <ele>236</ele>
        <time>2018-09-30T10:35:49.000Z</time>
      </trkpt>
      <trkpt lat="43.22312" lon="-0.66027">
        <ele>236</ele>
        <time>2018-09-30T10:35:50.000Z</time>
      </trkpt>
      <trkpt lat="43.22308" lon="-0.66028">
        <ele>236</ele>
        <time>2018-09-30T10:35:51.000Z</time>
      </trkpt>
      <trkpt lat="43.22304" lon="-0.66029">
        <ele>236</ele>
        <time>2018-09-30T10:35:52.000Z</time>
      </trkpt>
      <trkpt lat="43.22301" lon="-0.66029">
        <ele>236</ele>
        <time>2018-09-30T10:35:53.000Z</time>
      </trkpt>
      <trkpt lat="43.22294" lon="-0.66029">
        <ele>235</ele>
        <time>2018-09-30T10:35:55.000Z</time>
      </trkpt>
      <trkpt lat="43.22289" lon="-0.66026">
        <ele>235</ele>
        <time>2018-09-30T10:35:56.000Z</time>
      </trkpt>
      <trkpt lat="43.22286" lon="-0.66023">
        <ele>234.4099968</ele>
        <time>2018-09-30T10:35:57.000Z</time>
      </trkpt>
      <trkpt lat="43.22282" lon="-0.66019">
        <ele>234</ele>
        <time>2018-09-30T10:35:58.000Z</time>
      </trkpt>
      <trkpt lat="43.22277" lon="-0.66015">
        <ele>234</ele>
        <time>2018-09-30T10:35:59.000Z</time>
      </trkpt>
      <trkpt lat="43.22273" lon="-0.66011">
        <ele>234</ele>
        <time>2018-09-30T10:36:00.000Z</time>
      </trkpt>
      <trkpt lat="43.22269" lon="-0.66007">
        <ele>233.56944</ele>
        <time>2018-09-30T10:36:01.000Z</time>
      </trkpt>
      <trkpt lat="43.22265" lon="-0.66002">
        <ele>233</ele>
        <time>2018-09-30T10:36:02.000Z</time>
      </trkpt>
      <trkpt lat="43.2226" lon="-0.65997">
        <ele>233</ele>
        <time>2018-09-30T10:36:03.000Z</time>
      </trkpt>
      <trkpt lat="43.22256" lon="-0.65993">
        <ele>233</ele>
        <time>2018-09-30T10:36:04.000Z</time>
      </trkpt>
      <trkpt lat="43.22252" lon="-0.65988">
        <ele>233</ele>
        <time>2018-09-30T10:36:05.000Z</time>
      </trkpt>
      <trkpt lat="43.22248" lon="-0.65983">
        <ele>233</ele>
        <time>2018-09-30T10:36:06.000Z</time>
      </trkpt>
      <trkpt lat="43.22243" lon="-0.65978">
        <ele>233</ele>
        <time>2018-09-30T10:36:07.000Z</time>
      </trkpt>
      <trkpt lat="43.22239" lon="-0.65973">
        <ele>233</ele>
        <time>2018-09-30T10:36:08.000Z</time>
      </trkpt>
      <trkpt lat="43.22235" lon="-0.6597">
        <ele>233</ele>
        <time>2018-09-30T10:36:09.000Z</time>
      </trkpt>
      <trkpt lat="43.22231" lon="-0.65966">
        <ele>233</ele>
        <time>2018-09-30T10:36:10.000Z</time>
      </trkpt>
      <trkpt lat="43.22227" lon="-0.65961">
        <ele>233</ele>
        <time>2018-09-30T10:36:11.000Z</time>
      </trkpt>
      <trkpt lat="43.22223" lon="-0.65958">
        <ele>233</ele>
        <time>2018-09-30T10:36:12.000Z</time>
      </trkpt>
      <trkpt lat="43.22219" lon="-0.65953">
        <ele>233.5900032</ele>
        <time>2018-09-30T10:36:13.000Z</time>
      </trkpt>
      <trkpt lat="43.22216" lon="-0.6595">
        <ele>234</ele>
        <time>2018-09-30T10:36:14.000Z</time>
      </trkpt>
      <trkpt lat="43.22213" lon="-0.65946">
        <ele>234</ele>
        <time>2018-09-30T10:36:15.000Z</time>
      </trkpt>
      <trkpt lat="43.2221" lon="-0.65942">
        <ele>234</ele>
        <time>2018-09-30T10:36:16.000Z</time>
      </trkpt>
      <trkpt lat="43.22206" lon="-0.65938">
        <ele>234</ele>
        <time>2018-09-30T10:36:17.000Z</time>
      </trkpt>
      <trkpt lat="43.22203" lon="-0.65935">
        <ele>234</ele>
        <time>2018-09-30T10:36:18.000Z</time>
      </trkpt>
      <trkpt lat="43.222" lon="-0.65932">
        <ele>234</ele>
        <time>2018-09-30T10:36:19.000Z</time>
      </trkpt>
      <trkpt lat="43.22196" lon="-0.65929">
        <ele>234</ele>
        <time>2018-09-30T10:36:20.000Z</time>
      </trkpt>
      <trkpt lat="43.22193" lon="-0.65926">
        <ele>234</ele>
        <time>2018-09-30T10:36:21.000Z</time>
      </trkpt>
      <trkpt lat="43.22189" lon="-0.65923">
        <ele>234</ele>
        <time>2018-09-30T10:36:22.000Z</time>
      </trkpt>
      <trkpt lat="43.22186" lon="-0.6592">
        <ele>234</ele>
        <time>2018-09-30T10:36:23.000Z</time>
      </trkpt>
      <trkpt lat="43.22182" lon="-0.65917">
        <ele>234</ele>
        <time>2018-09-30T10:36:24.000Z</time>
      </trkpt>
      <trkpt lat="43.22178" lon="-0.65914">
        <ele>234</ele>
        <time>2018-09-30T10:36:25.000Z</time>
      </trkpt>
      <trkpt lat="43.22173" lon="-0.65911">
        <ele>234</ele>
        <time>2018-09-30T10:36:26.000Z</time>
      </trkpt>
      <trkpt lat="43.22169" lon="-0.65908">
        <ele>234</ele>
        <time>2018-09-30T10:36:27.000Z</time>
      </trkpt>
      <trkpt lat="43.22164" lon="-0.65905">
        <ele>234</ele>
        <time>2018-09-30T10:36:28.000Z</time>
      </trkpt>
      <trkpt lat="43.22159" lon="-0.65902">
        <ele>234</ele>
        <time>2018-09-30T10:36:29.000Z</time>
      </trkpt>
      <trkpt lat="43.22154" lon="-0.65898">
        <ele>233.64024195122</ele>
        <time>2018-09-30T10:36:30.000Z</time>
      </trkpt>
      <trkpt lat="43.22148" lon="-0.65894">
        <ele>233.03048585366</ele>
        <time>2018-09-30T10:36:31.000Z</time>
      </trkpt>
      <trkpt lat="43.22142" lon="-0.6589">
        <ele>232</ele>
        <time>2018-09-30T10:36:32.000Z</time>
      </trkpt>
      <trkpt lat="43.22136" lon="-0.65886">
        <ele>232</ele>
        <time>2018-09-30T10:36:33.000Z</time>
      </trkpt>
      <trkpt lat="43.22129" lon="-0.65881">
        <ele>231.4099968</ele>
        <time>2018-09-30T10:36:34.000Z</time>
      </trkpt>
      <trkpt lat="43.22123" lon="-0.65877">
        <ele>230.4099968</ele>
        <time>2018-09-30T10:36:35.000Z</time>
      </trkpt>
      <trkpt lat="43.22116" lon="-0.65872">
        <ele>230</ele>
        <time>2018-09-30T10:36:36.000Z</time>
      </trkpt>
      <trkpt lat="43.2211" lon="-0.65867">
        <ele>229.55302787879</ele>
        <time>2018-09-30T10:36:37.000Z</time>
      </trkpt>
      <trkpt lat="43.22104" lon="-0.65861">
        <ele>229</ele>
        <time>2018-09-30T10:36:38.000Z</time>
      </trkpt>
      <trkpt lat="43.221" lon="-0.65856">
        <ele>229</ele>
        <time>2018-09-30T10:36:39.000Z</time>
      </trkpt>
      <trkpt lat="43.22095" lon="-0.65852">
        <ele>229</ele>
        <time>2018-09-30T10:36:40.000Z</time>
      </trkpt>
      <trkpt lat="43.2209" lon="-0.65851">
        <ele>229</ele>
        <time>2018-09-30T10:36:41.000Z</time>
      </trkpt>
      <trkpt lat="43.22085" lon="-0.65851">
        <ele>229</ele>
        <time>2018-09-30T10:36:42.000Z</time>
      </trkpt>
      <trkpt lat="43.2208" lon="-0.65853">
        <ele>228.4099968</ele>
        <time>2018-09-30T10:36:43.000Z</time>
      </trkpt>
      <trkpt lat="43.22075" lon="-0.65855">
        <ele>227.42156911957</ele>
        <time>2018-09-30T10:36:44.000Z</time>
      </trkpt>
      <trkpt lat="43.2207" lon="-0.65859">
        <ele>227</ele>
        <time>2018-09-30T10:36:45.000Z</time>
      </trkpt>
      <trkpt lat="43.22066" lon="-0.65862">
        <ele>227</ele>
        <time>2018-09-30T10:36:46.000Z</time>
      </trkpt>
      <trkpt lat="43.22061" lon="-0.65867">
        <ele>226.55302787879</ele>
        <time>2018-09-30T10:36:47.000Z</time>
      </trkpt>
      <trkpt lat="43.22057" lon="-0.65871">
        <ele>226</ele>
        <time>2018-09-30T10:36:48.000Z</time>
      </trkpt>
      <trkpt lat="43.22052" lon="-0.65876">
        <ele>226</ele>
        <time>2018-09-30T10:36:49.000Z</time>
      </trkpt>
      <trkpt lat="43.22048" lon="-0.65881">
        <ele>226</ele>
        <time>2018-09-30T10:36:50.000Z</time>
      </trkpt>
      <trkpt lat="43.22044" lon="-0.65885">
        <ele>226</ele>
        <time>2018-09-30T10:36:51.000Z</time>
      </trkpt>
      <trkpt lat="43.22039" lon="-0.6589">
        <ele>226</ele>
        <time>2018-09-30T10:36:52.000Z</time>
      </trkpt>
      <trkpt lat="43.22035" lon="-0.65894">
        <ele>226</ele>
        <time>2018-09-30T10:36:53.000Z</time>
      </trkpt>
      <trkpt lat="43.22031" lon="-0.65898">
        <ele>226</ele>
        <time>2018-09-30T10:36:54.000Z</time>
      </trkpt>
      <trkpt lat="43.22026" lon="-0.65902">
        <ele>226</ele>
        <time>2018-09-30T10:36:55.000Z</time>
      </trkpt>
      <trkpt lat="43.22022" lon="-0.65906">
        <ele>226</ele>
        <time>2018-09-30T10:36:56.000Z</time>
      </trkpt>
      <trkpt lat="43.22018" lon="-0.65911">
        <ele>226</ele>
        <time>2018-09-30T10:36:57.000Z</time>
      </trkpt>
      <trkpt lat="43.22014" lon="-0.65915">
        <ele>226.57843088043</ele>
        <time>2018-09-30T10:36:58.000Z</time>
      </trkpt>
      <trkpt lat="43.2201" lon="-0.65919">
        <ele>227</ele>
        <time>2018-09-30T10:36:59.000Z</time>
      </trkpt>
      <trkpt lat="43.22006" lon="-0.65923">
        <ele>227</ele>
        <time>2018-09-30T10:37:00.000Z</time>
      </trkpt>
      <trkpt lat="43.22002" lon="-0.65927">
        <ele>227</ele>
        <time>2018-09-30T10:37:01.000Z</time>
      </trkpt>
      <trkpt lat="43.21998" lon="-0.65931">
        <ele>227</ele>
        <time>2018-09-30T10:37:02.000Z</time>
      </trkpt>
      <trkpt lat="43.21994" lon="-0.65935">
        <ele>227</ele>
        <time>2018-09-30T10:37:03.000Z</time>
      </trkpt>
      <trkpt lat="43.2199" lon="-0.65939">
        <ele>227</ele>
        <time>2018-09-30T10:37:04.000Z</time>
      </trkpt>
      <trkpt lat="43.21986" lon="-0.65943">
        <ele>227</ele>
        <time>2018-09-30T10:37:05.000Z</time>
      </trkpt>
      <trkpt lat="43.21982" lon="-0.65946">
        <ele>227</ele>
        <time>2018-09-30T10:37:06.000Z</time>
      </trkpt>
      <trkpt lat="43.21979" lon="-0.6595">
        <ele>227</ele>
        <time>2018-09-30T10:37:07.000Z</time>
      </trkpt>
      <trkpt lat="43.21975" lon="-0.65954">
        <ele>227</ele>
        <time>2018-09-30T10:37:08.000Z</time>
      </trkpt>
      <trkpt lat="43.21971" lon="-0.65958">
        <ele>227</ele>
        <time>2018-09-30T10:37:09.000Z</time>
      </trkpt>
      <trkpt lat="43.21968" lon="-0.65961">
        <ele>227.5900032</ele>
        <time>2018-09-30T10:37:10.000Z</time>
      </trkpt>
      <trkpt lat="43.21964" lon="-0.65965">
        <ele>228</ele>
        <time>2018-09-30T10:37:11.000Z</time>
      </trkpt>
      <trkpt lat="43.2196" lon="-0.65968">
        <ele>228.5900032</ele>
        <time>2018-09-30T10:37:12.000Z</time>
      </trkpt>
      <trkpt lat="43.21957" lon="-0.65972">
        <ele>229</ele>
        <time>2018-09-30T10:37:13.000Z</time>
      </trkpt>
      <trkpt lat="43.21953" lon="-0.65975">
        <ele>229</ele>
        <time>2018-09-30T10:37:14.000Z</time>
      </trkpt>
      <trkpt lat="43.2195" lon="-0.65979">
        <ele>229</ele>
        <time>2018-09-30T10:37:15.000Z</time>
      </trkpt>
      <trkpt lat="43.21946" lon="-0.65982">
        <ele>229</ele>
        <time>2018-09-30T10:37:16.000Z</time>
      </trkpt>
      <trkpt lat="43.21942" lon="-0.65986">
        <ele>229</ele>
        <time>2018-09-30T10:37:17.000Z</time>
      </trkpt>
      <trkpt lat="43.21939" lon="-0.65989">
        <ele>229.43056</ele>
        <time>2018-09-30T10:37:18.000Z</time>
      </trkpt>
      <trkpt lat="43.21935" lon="-0.65993">
        <ele>230</ele>
        <time>2018-09-30T10:37:19.000Z</time>
      </trkpt>
      <trkpt lat="43.21931" lon="-0.65996">
        <ele>230</ele>
        <time>2018-09-30T10:37:20.000Z</time>
      </trkpt>
      <trkpt lat="43.21928" lon="-0.66">
        <ele>230</ele>
        <time>2018-09-30T10:37:21.000Z</time>
      </trkpt>
      <trkpt lat="43.21924" lon="-0.66004">
        <ele>230</ele>
        <time>2018-09-30T10:37:22.000Z</time>
      </trkpt>
      <trkpt lat="43.21921" lon="-0.66008">
        <ele>230</ele>
        <time>2018-09-30T10:37:23.000Z</time>
      </trkpt>
      <trkpt lat="43.21918" lon="-0.66012">
        <ele>230</ele>
        <time>2018-09-30T10:37:24.000Z</time>
      </trkpt>
      <trkpt lat="43.21915" lon="-0.66017">
        <ele>230</ele>
        <time>2018-09-30T10:37:25.000Z</time>
      </trkpt>
      <trkpt lat="43.21913" lon="-0.66023">
        <ele>230</ele>
        <time>2018-09-30T10:37:26.000Z</time>
      </trkpt>
      <trkpt lat="43.21911" lon="-0.66028">
        <ele>230</ele>
        <time>2018-09-30T10:37:27.000Z</time>
      </trkpt>
      <trkpt lat="43.21909" lon="-0.66033">
        <ele>230</ele>
        <time>2018-09-30T10:37:28.000Z</time>
      </trkpt>
      <trkpt lat="43.21906" lon="-0.66039">
        <ele>230</ele>
        <time>2018-09-30T10:37:29.000Z</time>
      </trkpt>
      <trkpt lat="43.21902" lon="-0.66045">
        <ele>229.42718313885</ele>
        <time>2018-09-30T10:37:30.000Z</time>
      </trkpt>
      <trkpt lat="43.21898" lon="-0.66049">
        <ele>229</ele>
        <time>2018-09-30T10:37:31.000Z</time>
      </trkpt>
      <trkpt lat="43.21894" lon="-0.66051">
        <ele>229</ele>
        <time>2018-09-30T10:37:32.000Z</time>
      </trkpt>
      <trkpt lat="43.21889" lon="-0.66053">
        <ele>228.4099968</ele>
        <time>2018-09-30T10:37:33.000Z</time>
      </trkpt>
      <trkpt lat="43.21885" lon="-0.66053">
        <ele>228</ele>
        <time>2018-09-30T10:37:34.000Z</time>
      </trkpt>
      <trkpt lat="43.21881" lon="-0.66054">
        <ele>228</ele>
        <time>2018-09-30T10:37:35.000Z</time>
      </trkpt>
      <trkpt lat="43.21876" lon="-0.66055">
        <ele>228</ele>
        <time>2018-09-30T10:37:36.000Z</time>
      </trkpt>
      <trkpt lat="43.21863" lon="-0.66058">
        <ele>228</ele>
        <time>2018-09-30T10:37:39.000Z</time>
      </trkpt>
      <trkpt lat="43.21852" lon="-0.66064">
        <ele>228</ele>
        <time>2018-09-30T10:37:41.000Z</time>
      </trkpt>
      <trkpt lat="43.21843" lon="-0.66072">
        <ele>228</ele>
        <time>2018-09-30T10:37:43.000Z</time>
      </trkpt>
      <trkpt lat="43.21838" lon="-0.66075">
        <ele>228</ele>
        <time>2018-09-30T10:37:44.000Z</time>
      </trkpt>
      <trkpt lat="43.21834" lon="-0.66079">
        <ele>228</ele>
        <time>2018-09-30T10:37:45.000Z</time>
      </trkpt>
      <trkpt lat="43.21823" lon="-0.66091">
        <ele>228</ele>
        <time>2018-09-30T10:37:48.000Z</time>
      </trkpt>
      <trkpt lat="43.21819" lon="-0.66095">
        <ele>228</ele>
        <time>2018-09-30T10:37:49.000Z</time>
      </trkpt>
      <trkpt lat="43.21815" lon="-0.66099">
        <ele>228</ele>
        <time>2018-09-30T10:37:50.000Z</time>
      </trkpt>
      <trkpt lat="43.21811" lon="-0.66103">
        <ele>228</ele>
        <time>2018-09-30T10:37:51.000Z</time>
      </trkpt>
      <trkpt lat="43.21807" lon="-0.66107">
        <ele>228</ele>
        <time>2018-09-30T10:37:52.000Z</time>
      </trkpt>
      <trkpt lat="43.21804" lon="-0.66111">
        <ele>227.4099968</ele>
        <time>2018-09-30T10:37:53.000Z</time>
      </trkpt>
      <trkpt lat="43.218" lon="-0.66116">
        <ele>227</ele>
        <time>2018-09-30T10:37:54.000Z</time>
      </trkpt>
      <trkpt lat="43.21796" lon="-0.66121">
        <ele>227</ele>
        <time>2018-09-30T10:37:55.000Z</time>
      </trkpt>
      <trkpt lat="43.21792" lon="-0.66126">
        <ele>227</ele>
        <time>2018-09-30T10:37:56.000Z</time>
      </trkpt>
      <trkpt lat="43.21788" lon="-0.66131">
        <ele>227</ele>
        <time>2018-09-30T10:37:57.000Z</time>
      </trkpt>
      <trkpt lat="43.21784" lon="-0.66136">
        <ele>227</ele>
        <time>2018-09-30T10:37:58.000Z</time>
      </trkpt>
      <trkpt lat="43.2178" lon="-0.66141">
        <ele>227</ele>
        <time>2018-09-30T10:37:59.000Z</time>
      </trkpt>
      <trkpt lat="43.21776" lon="-0.66146">
        <ele>227</ele>
        <time>2018-09-30T10:38:00.000Z</time>
      </trkpt>
      <trkpt lat="43.21773" lon="-0.66151">
        <ele>227</ele>
        <time>2018-09-30T10:38:01.000Z</time>
      </trkpt>
      <trkpt lat="43.21769" lon="-0.66157">
        <ele>227</ele>
        <time>2018-09-30T10:38:02.000Z</time>
      </trkpt>
      <trkpt lat="43.21765" lon="-0.66162">
        <ele>227</ele>
        <time>2018-09-30T10:38:03.000Z</time>
      </trkpt>
      <trkpt lat="43.21761" lon="-0.66167">
        <ele>227</ele>
        <time>2018-09-30T10:38:04.000Z</time>
      </trkpt>
      <trkpt lat="43.21757" lon="-0.66172">
        <ele>227</ele>
        <time>2018-09-30T10:38:05.000Z</time>
      </trkpt>
      <trkpt lat="43.21753" lon="-0.66177">
        <ele>227</ele>
        <time>2018-09-30T10:38:06.000Z</time>
      </trkpt>
      <trkpt lat="43.21749" lon="-0.66182">
        <ele>227</ele>
        <time>2018-09-30T10:38:07.000Z</time>
      </trkpt>
      <trkpt lat="43.21745" lon="-0.66187">
        <ele>227</ele>
        <time>2018-09-30T10:38:08.000Z</time>
      </trkpt>
      <trkpt lat="43.21741" lon="-0.66192">
        <ele>227</ele>
        <time>2018-09-30T10:38:09.000Z</time>
      </trkpt>
      <trkpt lat="43.21738" lon="-0.66197">
        <ele>227</ele>
        <time>2018-09-30T10:38:10.000Z</time>
      </trkpt>
      <trkpt lat="43.21734" lon="-0.66201">
        <ele>227</ele>
        <time>2018-09-30T10:38:11.000Z</time>
      </trkpt>
      <trkpt lat="43.21731" lon="-0.66206">
        <ele>227</ele>
        <time>2018-09-30T10:38:12.000Z</time>
      </trkpt>
      <trkpt lat="43.21728" lon="-0.66211">
        <ele>227.5900032</ele>
        <time>2018-09-30T10:38:13.000Z</time>
      </trkpt>
      <trkpt lat="43.21725" lon="-0.66216">
        <ele>228</ele>
        <time>2018-09-30T10:38:14.000Z</time>
      </trkpt>
      <trkpt lat="43.21721" lon="-0.6622">
        <ele>228.5900032</ele>
        <time>2018-09-30T10:38:15.000Z</time>
      </trkpt>
      <trkpt lat="43.21718" lon="-0.66225">
        <ele>229</ele>
        <time>2018-09-30T10:38:16.000Z</time>
      </trkpt>
      <trkpt lat="43.21715" lon="-0.6623">
        <ele>229</ele>
        <time>2018-09-30T10:38:17.000Z</time>
      </trkpt>
      <trkpt lat="43.21711" lon="-0.66234">
        <ele>229</ele>
        <time>2018-09-30T10:38:18.000Z</time>
      </trkpt>
      <trkpt lat="43.21708" lon="-0.66238">
        <ele>229</ele>
        <time>2018-09-30T10:38:19.000Z</time>
      </trkpt>
      <trkpt lat="43.21705" lon="-0.66242">
        <ele>229</ele>
        <time>2018-09-30T10:38:20.000Z</time>
      </trkpt>
      <trkpt lat="43.21701" lon="-0.66246">
        <ele>229.5900032</ele>
        <time>2018-09-30T10:38:21.000Z</time>
      </trkpt>
      <trkpt lat="43.21698" lon="-0.66249">
        <ele>230</ele>
        <time>2018-09-30T10:38:22.000Z</time>
      </trkpt>
      <trkpt lat="43.21694" lon="-0.66253">
        <ele>230</ele>
        <time>2018-09-30T10:38:23.000Z</time>
      </trkpt>
      <trkpt lat="43.2169" lon="-0.66257">
        <ele>230</ele>
        <time>2018-09-30T10:38:24.000Z</time>
      </trkpt>
      <trkpt lat="43.21685" lon="-0.6626">
        <ele>230</ele>
        <time>2018-09-30T10:38:25.000Z</time>
      </trkpt>
      <trkpt lat="43.2168" lon="-0.66264">
        <ele>230</ele>
        <time>2018-09-30T10:38:26.000Z</time>
      </trkpt>
      <trkpt lat="43.21676" lon="-0.66267">
        <ele>230</ele>
        <time>2018-09-30T10:38:27.000Z</time>
      </trkpt>
      <trkpt lat="43.21672" lon="-0.66271">
        <ele>230</ele>
        <time>2018-09-30T10:38:28.000Z</time>
      </trkpt>
      <trkpt lat="43.21667" lon="-0.66275">
        <ele>230</ele>
        <time>2018-09-30T10:38:29.000Z</time>
      </trkpt>
      <trkpt lat="43.21663" lon="-0.66278">
        <ele>230</ele>
        <time>2018-09-30T10:38:30.000Z</time>
      </trkpt>
      <trkpt lat="43.21659" lon="-0.66282">
        <ele>230</ele>
        <time>2018-09-30T10:38:31.000Z</time>
      </trkpt>
      <trkpt lat="43.21655" lon="-0.66286">
        <ele>230</ele>
        <time>2018-09-30T10:38:32.000Z</time>
      </trkpt>
      <trkpt lat="43.21651" lon="-0.66289">
        <ele>230</ele>
        <time>2018-09-30T10:38:33.000Z</time>
      </trkpt>
      <trkpt lat="43.21647" lon="-0.66292">
        <ele>230</ele>
        <time>2018-09-30T10:38:34.000Z</time>
      </trkpt>
      <trkpt lat="43.21643" lon="-0.66294">
        <ele>230</ele>
        <time>2018-09-30T10:38:35.000Z</time>
      </trkpt>
      <trkpt lat="43.21639" lon="-0.66297">
        <ele>230</ele>
        <time>2018-09-30T10:38:36.000Z</time>
      </trkpt>
      <trkpt lat="43.21635" lon="-0.66299">
        <ele>230</ele>
        <time>2018-09-30T10:38:37.000Z</time>
      </trkpt>
      <trkpt lat="43.21631" lon="-0.663">
        <ele>230.5900032</ele>
        <time>2018-09-30T10:38:38.000Z</time>
      </trkpt>
      <trkpt lat="43.21627" lon="-0.66301">
        <ele>231</ele>
        <time>2018-09-30T10:38:39.000Z</time>
      </trkpt>
      <trkpt lat="43.21622" lon="-0.66302">
        <ele>231</ele>
        <time>2018-09-30T10:38:40.000Z</time>
      </trkpt>
      <trkpt lat="43.21618" lon="-0.66303">
        <ele>231</ele>
        <time>2018-09-30T10:38:41.000Z</time>
      </trkpt>
      <trkpt lat="43.21614" lon="-0.66305">
        <ele>231</ele>
        <time>2018-09-30T10:38:42.000Z</time>
      </trkpt>
      <trkpt lat="43.21609" lon="-0.66306">
        <ele>231.45736795626</ele>
        <time>2018-09-30T10:38:43.000Z</time>
      </trkpt>
      <trkpt lat="43.21605" lon="-0.66308">
        <ele>232</ele>
        <time>2018-09-30T10:38:44.000Z</time>
      </trkpt>
      <trkpt lat="43.216" lon="-0.66311">
        <ele>232</ele>
        <time>2018-09-30T10:38:45.000Z</time>
      </trkpt>
      <trkpt lat="43.21596" lon="-0.66314">
        <ele>232</ele>
        <time>2018-09-30T10:38:46.000Z</time>
      </trkpt>
      <trkpt lat="43.21592" lon="-0.66318">
        <ele>232</ele>
        <time>2018-09-30T10:38:47.000Z</time>
      </trkpt>
      <trkpt lat="43.21587" lon="-0.66323">
        <ele>231.4099968</ele>
        <time>2018-09-30T10:38:48.000Z</time>
      </trkpt>
      <trkpt lat="43.21583" lon="-0.66328">
        <ele>231</ele>
        <time>2018-09-30T10:38:49.000Z</time>
      </trkpt>
      <trkpt lat="43.21579" lon="-0.66333">
        <ele>231</ele>
        <time>2018-09-30T10:38:50.000Z</time>
      </trkpt>
      <trkpt lat="43.21574" lon="-0.66338">
        <ele>231</ele>
        <time>2018-09-30T10:38:51.000Z</time>
      </trkpt>
      <trkpt lat="43.2157" lon="-0.66342">
        <ele>231</ele>
        <time>2018-09-30T10:38:52.000Z</time>
      </trkpt>
      <trkpt lat="43.21566" lon="-0.66347">
        <ele>231</ele>
        <time>2018-09-30T10:38:53.000Z</time>
      </trkpt>
      <trkpt lat="43.21562" lon="-0.66353">
        <ele>231</ele>
        <time>2018-09-30T10:38:54.000Z</time>
      </trkpt>
      <trkpt lat="43.21559" lon="-0.66359">
        <ele>231</ele>
        <time>2018-09-30T10:38:55.000Z</time>
      </trkpt>
      <trkpt lat="43.21557" lon="-0.66365">
        <ele>231</ele>
        <time>2018-09-30T10:38:56.000Z</time>
      </trkpt>
      <trkpt lat="43.21554" lon="-0.6637">
        <ele>231</ele>
        <time>2018-09-30T10:38:57.000Z</time>
      </trkpt>
      <trkpt lat="43.21552" lon="-0.66376">
        <ele>231</ele>
        <time>2018-09-30T10:38:58.000Z</time>
      </trkpt>
      <trkpt lat="43.21548" lon="-0.66381">
        <ele>231</ele>
        <time>2018-09-30T10:38:59.000Z</time>
      </trkpt>
      <trkpt lat="43.21545" lon="-0.66384">
        <ele>231</ele>
        <time>2018-09-30T10:39:00.000Z</time>
      </trkpt>
      <trkpt lat="43.2154" lon="-0.66388">
        <ele>231.5900032</ele>
        <time>2018-09-30T10:39:01.000Z</time>
      </trkpt>
      <trkpt lat="43.21536" lon="-0.6639">
        <ele>232</ele>
        <time>2018-09-30T10:39:02.000Z</time>
      </trkpt>
      <trkpt lat="43.21531" lon="-0.66391">
        <ele>232</ele>
        <time>2018-09-30T10:39:03.000Z</time>
      </trkpt>
      <trkpt lat="43.21527" lon="-0.66392">
        <ele>232</ele>
        <time>2018-09-30T10:39:04.000Z</time>
      </trkpt>
      <trkpt lat="43.21522" lon="-0.66391">
        <ele>232.5900032</ele>
        <time>2018-09-30T10:39:05.000Z</time>
      </trkpt>
      <trkpt lat="43.21517" lon="-0.66391">
        <ele>233</ele>
        <time>2018-09-30T10:39:06.000Z</time>
      </trkpt>
      <trkpt lat="43.21512" lon="-0.6639">
        <ele>233</ele>
        <time>2018-09-30T10:39:07.000Z</time>
      </trkpt>
      <trkpt lat="43.21507" lon="-0.6639">
        <ele>233</ele>
        <time>2018-09-30T10:39:08.000Z</time>
      </trkpt>
      <trkpt lat="43.21502" lon="-0.66391">
        <ele>233</ele>
        <time>2018-09-30T10:39:09.000Z</time>
      </trkpt>
      <trkpt lat="43.21496" lon="-0.66392">
        <ele>232.5857150694</ele>
        <time>2018-09-30T10:39:10.000Z</time>
      </trkpt>
      <trkpt lat="43.21491" lon="-0.66394">
        <ele>232</ele>
        <time>2018-09-30T10:39:11.000Z</time>
      </trkpt>
      <trkpt lat="43.21485" lon="-0.66396">
        <ele>232</ele>
        <time>2018-09-30T10:39:12.000Z</time>
      </trkpt>
      <trkpt lat="43.21479" lon="-0.66399">
        <ele>231.4099968</ele>
        <time>2018-09-30T10:39:13.000Z</time>
      </trkpt>
      <trkpt lat="43.21473" lon="-0.66402">
        <ele>231</ele>
        <time>2018-09-30T10:39:14.000Z</time>
      </trkpt>
      <trkpt lat="43.21467" lon="-0.66406">
        <ele>231</ele>
        <time>2018-09-30T10:39:15.000Z</time>
      </trkpt>
      <trkpt lat="43.21461" lon="-0.6641">
        <ele>231</ele>
        <time>2018-09-30T10:39:16.000Z</time>
      </trkpt>
      <trkpt lat="43.21455" lon="-0.66415">
        <ele>230.55302787879</ele>
        <time>2018-09-30T10:39:17.000Z</time>
      </trkpt>
      <trkpt lat="43.21448" lon="-0.66419">
        <ele>230</ele>
        <time>2018-09-30T10:39:18.000Z</time>
      </trkpt>
      <trkpt lat="43.21443" lon="-0.66424">
        <ele>230</ele>
        <time>2018-09-30T10:39:19.000Z</time>
      </trkpt>
      <trkpt lat="43.21437" lon="-0.6643">
        <ele>230</ele>
        <time>2018-09-30T10:39:20.000Z</time>
      </trkpt>
      <trkpt lat="43.21432" lon="-0.66435">
        <ele>230</ele>
        <time>2018-09-30T10:39:21.000Z</time>
      </trkpt>
      <trkpt lat="43.21427" lon="-0.6644">
        <ele>229.56944</ele>
        <time>2018-09-30T10:39:22.000Z</time>
      </trkpt>
      <trkpt lat="43.21422" lon="-0.66445">
        <ele>229</ele>
        <time>2018-09-30T10:39:23.000Z</time>
      </trkpt>
      <trkpt lat="43.21418" lon="-0.66451">
        <ele>229</ele>
        <time>2018-09-30T10:39:24.000Z</time>
      </trkpt>
      <trkpt lat="43.21414" lon="-0.66457">
        <ele>229</ele>
        <time>2018-09-30T10:39:25.000Z</time>
      </trkpt>
      <trkpt lat="43.2141" lon="-0.66462">
        <ele>229</ele>
        <time>2018-09-30T10:39:26.000Z</time>
      </trkpt>
      <trkpt lat="43.21407" lon="-0.66467">
        <ele>229</ele>
        <time>2018-09-30T10:39:27.000Z</time>
      </trkpt>
      <trkpt lat="43.21403" lon="-0.6647">
        <ele>229</ele>
        <time>2018-09-30T10:39:28.000Z</time>
      </trkpt>
      <trkpt lat="43.21399" lon="-0.66471">
        <ele>229</ele>
        <time>2018-09-30T10:39:29.000Z</time>
      </trkpt>
      <trkpt lat="43.21395" lon="-0.6647">
        <ele>229</ele>
        <time>2018-09-30T10:39:30.000Z</time>
      </trkpt>
      <trkpt lat="43.21391" lon="-0.66467">
        <ele>229.5900032</ele>
        <time>2018-09-30T10:39:31.000Z</time>
      </trkpt>
      <trkpt lat="43.21387" lon="-0.66463">
        <ele>230</ele>
        <time>2018-09-30T10:39:32.000Z</time>
      </trkpt>
      <trkpt lat="43.21384" lon="-0.66459">
        <ele>230</ele>
        <time>2018-09-30T10:39:33.000Z</time>
      </trkpt>
      <trkpt lat="43.2138" lon="-0.66454">
        <ele>230</ele>
        <time>2018-09-30T10:39:34.000Z</time>
      </trkpt>
      <trkpt lat="43.21377" lon="-0.6645">
        <ele>230</ele>
        <time>2018-09-30T10:39:35.000Z</time>
      </trkpt>
      <trkpt lat="43.21374" lon="-0.66446">
        <ele>230</ele>
        <time>2018-09-30T10:39:36.000Z</time>
      </trkpt>
      <trkpt lat="43.21371" lon="-0.6644">
        <ele>230</ele>
        <time>2018-09-30T10:39:37.000Z</time>
      </trkpt>
      <trkpt lat="43.21366" lon="-0.66434">
        <ele>229.4099968</ele>
        <time>2018-09-30T10:39:38.000Z</time>
      </trkpt>
      <trkpt lat="43.21362" lon="-0.66427">
        <ele>229</ele>
        <time>2018-09-30T10:39:39.000Z</time>
      </trkpt>
      <trkpt lat="43.21357" lon="-0.66421">
        <ele>228.54615361894</ele>
        <time>2018-09-30T10:39:40.000Z</time>
      </trkpt>
      <trkpt lat="43.21352" lon="-0.66414">
        <ele>228</ele>
        <time>2018-09-30T10:39:41.000Z</time>
      </trkpt>
      <trkpt lat="43.21347" lon="-0.66409">
        <ele>228</ele>
        <time>2018-09-30T10:39:42.000Z</time>
      </trkpt>
      <trkpt lat="43.21341" lon="-0.66406">
        <ele>228</ele>
        <time>2018-09-30T10:39:43.000Z</time>
      </trkpt>
      <trkpt lat="43.21334" lon="-0.66405">
        <ele>227.5857150694</ele>
        <time>2018-09-30T10:39:44.000Z</time>
      </trkpt>
      <trkpt lat="43.21327" lon="-0.66404">
        <ele>226.42718313885</ele>
        <time>2018-09-30T10:39:45.000Z</time>
      </trkpt>
      <trkpt lat="43.21319" lon="-0.66403">
        <ele>225.4226785078</ele>
        <time>2018-09-30T10:39:46.000Z</time>
      </trkpt>
      <trkpt lat="43.2131" lon="-0.66401">
        <ele>224.4099968</ele>
        <time>2018-09-30T10:39:47.000Z</time>
      </trkpt>
      <trkpt lat="43.21302" lon="-0.66398">
        <ele>224</ele>
        <time>2018-09-30T10:39:48.000Z</time>
      </trkpt>
      <trkpt lat="43.21293" lon="-0.66394">
        <ele>223.54961697804</ele>
        <time>2018-09-30T10:39:49.000Z</time>
      </trkpt>
      <trkpt lat="43.21284" lon="-0.6639">
        <ele>223</ele>
        <time>2018-09-30T10:39:50.000Z</time>
      </trkpt>
      <trkpt lat="43.21275" lon="-0.66387">
        <ele>221.8199936</ele>
        <time>2018-09-30T10:39:51.000Z</time>
      </trkpt>
      <trkpt lat="43.21266" lon="-0.66384">
        <ele>220.4099968</ele>
        <time>2018-09-30T10:39:52.000Z</time>
      </trkpt>
      <trkpt lat="43.21257" lon="-0.66381">
        <ele>219.4099968</ele>
        <time>2018-09-30T10:39:53.000Z</time>
      </trkpt>
      <trkpt lat="43.21248" lon="-0.66378">
        <ele>218.4099968</ele>
        <time>2018-09-30T10:39:54.000Z</time>
      </trkpt>
      <trkpt lat="43.21239" lon="-0.66375">
        <ele>218</ele>
        <time>2018-09-30T10:39:55.000Z</time>
      </trkpt>
      <trkpt lat="43.21231" lon="-0.66371">
        <ele>217.5857150694</ele>
        <time>2018-09-30T10:39:56.000Z</time>
      </trkpt>
      <trkpt lat="43.21222" lon="-0.66366">
        <ele>216.42156911957</ele>
        <time>2018-09-30T10:39:57.000Z</time>
      </trkpt>
      <trkpt lat="43.21215" lon="-0.6636">
        <ele>215.41836681382</ele>
        <time>2018-09-30T10:39:58.000Z</time>
      </trkpt>
      <trkpt lat="43.21209" lon="-0.66355">
        <ele>214.54263204374</ele>
        <time>2018-09-30T10:39:59.000Z</time>
      </trkpt>
      <trkpt lat="43.21203" lon="-0.66352">
        <ele>214</ele>
        <time>2018-09-30T10:40:00.000Z</time>
      </trkpt>
      <trkpt lat="43.21197" lon="-0.66351">
        <ele>214</ele>
        <time>2018-09-30T10:40:01.000Z</time>
      </trkpt>
      <trkpt lat="43.21191" lon="-0.66353">
        <ele>213.5857150694</ele>
        <time>2018-09-30T10:40:02.000Z</time>
      </trkpt>
      <trkpt lat="43.21184" lon="-0.66357">
        <ele>212.4099968</ele>
        <time>2018-09-30T10:40:03.000Z</time>
      </trkpt>
      <trkpt lat="43.21178" lon="-0.6636">
        <ele>212</ele>
        <time>2018-09-30T10:40:04.000Z</time>
      </trkpt>
      <trkpt lat="43.21171" lon="-0.66362">
        <ele>212</ele>
        <time>2018-09-30T10:40:05.000Z</time>
      </trkpt>
      <trkpt lat="43.21165" lon="-0.66363">
        <ele>212</ele>
        <time>2018-09-30T10:40:06.000Z</time>
      </trkpt>
      <trkpt lat="43.21158" lon="-0.66364">
        <ele>212</ele>
        <time>2018-09-30T10:40:07.000Z</time>
      </trkpt>
      <trkpt lat="43.21152" lon="-0.66365">
        <ele>212</ele>
        <time>2018-09-30T10:40:08.000Z</time>
      </trkpt>
      <trkpt lat="43.21146" lon="-0.66363">
        <ele>211.55302787879</ele>
        <time>2018-09-30T10:40:09.000Z</time>
      </trkpt>
      <trkpt lat="43.21142" lon="-0.66361">
        <ele>210.60293647059</ele>
        <time>2018-09-30T10:40:10.000Z</time>
      </trkpt>
      <trkpt lat="43.21139" lon="-0.66356">
        <ele>210</ele>
        <time>2018-09-30T10:40:11.000Z</time>
      </trkpt>
      <trkpt lat="43.2114" lon="-0.6635">
        <ele>210</ele>
        <time>2018-09-30T10:40:12.000Z</time>
      </trkpt>
      <trkpt lat="43.21142" lon="-0.66345">
        <ele>210</ele>
        <time>2018-09-30T10:40:13.000Z</time>
      </trkpt>
      <trkpt lat="43.21147" lon="-0.6634">
        <ele>210</ele>
        <time>2018-09-30T10:40:14.000Z</time>
      </trkpt>
      <trkpt lat="43.21152" lon="-0.66336">
        <ele>209.4099968</ele>
        <time>2018-09-30T10:40:15.000Z</time>
      </trkpt>
      <trkpt lat="43.21158" lon="-0.66332">
        <ele>209</ele>
        <time>2018-09-30T10:40:16.000Z</time>
      </trkpt>
      <trkpt lat="43.21163" lon="-0.66328">
        <ele>209</ele>
        <time>2018-09-30T10:40:17.000Z</time>
      </trkpt>
      <trkpt lat="43.21169" lon="-0.66324">
        <ele>208.64242160955</ele>
        <time>2018-09-30T10:40:18.000Z</time>
      </trkpt>
      <trkpt lat="43.21174" lon="-0.6632">
        <ele>208.03635982809</ele>
        <time>2018-09-30T10:40:19.000Z</time>
      </trkpt>
      <trkpt lat="43.2118" lon="-0.66315">
        <ele>207</ele>
        <time>2018-09-30T10:40:20.000Z</time>
      </trkpt>
      <trkpt lat="43.21185" lon="-0.66309">
        <ele>207</ele>
        <time>2018-09-30T10:40:21.000Z</time>
      </trkpt>
      <trkpt lat="43.2119" lon="-0.66302">
        <ele>206.4099968</ele>
        <time>2018-09-30T10:40:22.000Z</time>
      </trkpt>
      <trkpt lat="43.21195" lon="-0.66295">
        <ele>205.4099968</ele>
        <time>2018-09-30T10:40:23.000Z</time>
      </trkpt>
      <trkpt lat="43.21198" lon="-0.66285">
        <ele>204.4099968</ele>
        <time>2018-09-30T10:40:24.000Z</time>
      </trkpt>
      <trkpt lat="43.21198" lon="-0.66275">
        <ele>203.09923395607</ele>
        <time>2018-09-30T10:40:25.000Z</time>
      </trkpt>
      <trkpt lat="43.21196" lon="-0.66266">
        <ele>201.59420101658</ele>
        <time>2018-09-30T10:40:26.000Z</time>
      </trkpt>
      <trkpt lat="43.21191" lon="-0.66258">
        <ele>201</ele>
        <time>2018-09-30T10:40:27.000Z</time>
      </trkpt>
      <trkpt lat="43.21186" lon="-0.66251">
        <ele>200.4099968</ele>
        <time>2018-09-30T10:40:28.000Z</time>
      </trkpt>
      <trkpt lat="43.2118" lon="-0.66244">
        <ele>199.4099968</ele>
        <time>2018-09-30T10:40:29.000Z</time>
      </trkpt>
      <trkpt lat="43.21175" lon="-0.66237">
        <ele>198.4099968</ele>
        <time>2018-09-30T10:40:30.000Z</time>
      </trkpt>
      <trkpt lat="43.21171" lon="-0.66229">
        <ele>197.4099968</ele>
        <time>2018-09-30T10:40:31.000Z</time>
      </trkpt>
      <trkpt lat="43.21168" lon="-0.6622">
        <ele>196.54961697804</ele>
        <time>2018-09-30T10:40:32.000Z</time>
      </trkpt>
      <trkpt lat="43.21166" lon="-0.6621">
        <ele>195.59420101658</ele>
        <time>2018-09-30T10:40:33.000Z</time>
      </trkpt>
      <trkpt lat="43.21167" lon="-0.66199">
        <ele>195</ele>
        <time>2018-09-30T10:40:34.000Z</time>
      </trkpt>
      <trkpt lat="43.21168" lon="-0.66189">
        <ele>194.4099968</ele>
        <time>2018-09-30T10:40:35.000Z</time>
      </trkpt>
      <trkpt lat="43.21169" lon="-0.66179">
        <ele>194</ele>
        <time>2018-09-30T10:40:36.000Z</time>
      </trkpt>
      <trkpt lat="43.21171" lon="-0.66169">
        <ele>194</ele>
        <time>2018-09-30T10:40:37.000Z</time>
      </trkpt>
      <trkpt lat="43.21173" lon="-0.6616">
        <ele>194</ele>
        <time>2018-09-30T10:40:38.000Z</time>
      </trkpt>
      <trkpt lat="43.21174" lon="-0.66151">
        <ele>194</ele>
        <time>2018-09-30T10:40:39.000Z</time>
      </trkpt>
      <trkpt lat="43.21174" lon="-0.66143">
        <ele>193.5857150694</ele>
        <time>2018-09-30T10:40:40.000Z</time>
      </trkpt>
      <trkpt lat="43.21175" lon="-0.66134">
        <ele>192.4099968</ele>
        <time>2018-09-30T10:40:41.000Z</time>
      </trkpt>
      <trkpt lat="43.21175" lon="-0.66125">
        <ele>191.4099968</ele>
        <time>2018-09-30T10:40:42.000Z</time>
      </trkpt>
      <trkpt lat="43.21174" lon="-0.66117">
        <ele>191</ele>
        <time>2018-09-30T10:40:43.000Z</time>
      </trkpt>
      <trkpt lat="43.21172" lon="-0.6611">
        <ele>191.5900032</ele>
        <time>2018-09-30T10:40:44.000Z</time>
      </trkpt>
      <trkpt lat="43.21169" lon="-0.66104">
        <ele>192</ele>
        <time>2018-09-30T10:40:45.000Z</time>
      </trkpt>
      <trkpt lat="43.21164" lon="-0.661">
        <ele>192</ele>
        <time>2018-09-30T10:40:46.000Z</time>
      </trkpt>
      <trkpt lat="43.21159" lon="-0.66098">
        <ele>192</ele>
        <time>2018-09-30T10:40:47.000Z</time>
      </trkpt>
      <trkpt lat="43.21153" lon="-0.66098">
        <ele>192</ele>
        <time>2018-09-30T10:40:48.000Z</time>
      </trkpt>
      <trkpt lat="43.21149" lon="-0.66099">
        <ele>192</ele>
        <time>2018-09-30T10:40:49.000Z</time>
      </trkpt>
      <trkpt lat="43.21144" lon="-0.661">
        <ele>192</ele>
        <time>2018-09-30T10:40:50.000Z</time>
      </trkpt>
      <trkpt lat="43.2114" lon="-0.66101">
        <ele>192</ele>
        <time>2018-09-30T10:40:51.000Z</time>
      </trkpt>
      <trkpt lat="43.21133" lon="-0.66098">
        <ele>193</ele>
        <time>2018-09-30T10:40:53.000Z</time>
      </trkpt>
      <trkpt lat="43.21131" lon="-0.66094">
        <ele>193</ele>
        <time>2018-09-30T10:40:54.000Z</time>
      </trkpt>
      <trkpt lat="43.21129" lon="-0.66089">
        <ele>193</ele>
        <time>2018-09-30T10:40:55.000Z</time>
      </trkpt>
      <trkpt lat="43.21128" lon="-0.66083">
        <ele>193</ele>
        <time>2018-09-30T10:40:56.000Z</time>
      </trkpt>
      <trkpt lat="43.21126" lon="-0.66078">
        <ele>193</ele>
        <time>2018-09-30T10:40:57.000Z</time>
      </trkpt>
      <trkpt lat="43.21125" lon="-0.66072">
        <ele>193</ele>
        <time>2018-09-30T10:40:58.000Z</time>
      </trkpt>
      <trkpt lat="43.21123" lon="-0.66067">
        <ele>193</ele>
        <time>2018-09-30T10:40:59.000Z</time>
      </trkpt>
      <trkpt lat="43.21121" lon="-0.66061">
        <ele>193</ele>
        <time>2018-09-30T10:41:00.000Z</time>
      </trkpt>
      <trkpt lat="43.21119" lon="-0.66055">
        <ele>193</ele>
        <time>2018-09-30T10:41:01.000Z</time>
      </trkpt>
      <trkpt lat="43.21117" lon="-0.66049">
        <ele>193</ele>
        <time>2018-09-30T10:41:02.000Z</time>
      </trkpt>
      <trkpt lat="43.21115" lon="-0.66042">
        <ele>193</ele>
        <time>2018-09-30T10:41:03.000Z</time>
      </trkpt>
      <trkpt lat="43.21112" lon="-0.66035">
        <ele>193</ele>
        <time>2018-09-30T10:41:04.000Z</time>
      </trkpt>
      <trkpt lat="43.2111" lon="-0.66027">
        <ele>193</ele>
        <time>2018-09-30T10:41:05.000Z</time>
      </trkpt>
      <trkpt lat="43.21109" lon="-0.6602">
        <ele>193</ele>
        <time>2018-09-30T10:41:06.000Z</time>
      </trkpt>
      <trkpt lat="43.21108" lon="-0.66013">
        <ele>193</ele>
        <time>2018-09-30T10:41:07.000Z</time>
      </trkpt>
      <trkpt lat="43.21107" lon="-0.66006">
        <ele>193</ele>
        <time>2018-09-30T10:41:08.000Z</time>
      </trkpt>
      <trkpt lat="43.21106" lon="-0.65999">
        <ele>193</ele>
        <time>2018-09-30T10:41:09.000Z</time>
      </trkpt>
      <trkpt lat="43.21106" lon="-0.65993">
        <ele>193</ele>
        <time>2018-09-30T10:41:10.000Z</time>
      </trkpt>
      <trkpt lat="43.21104" lon="-0.65987">
        <ele>193</ele>
        <time>2018-09-30T10:41:11.000Z</time>
      </trkpt>
      <trkpt lat="43.21103" lon="-0.65981">
        <ele>193</ele>
        <time>2018-09-30T10:41:12.000Z</time>
      </trkpt>
      <trkpt lat="43.21102" lon="-0.65975">
        <ele>193</ele>
        <time>2018-09-30T10:41:13.000Z</time>
      </trkpt>
      <trkpt lat="43.211" lon="-0.6597">
        <ele>193</ele>
        <time>2018-09-30T10:41:14.000Z</time>
      </trkpt>
      <trkpt lat="43.21098" lon="-0.65961">
        <ele>193</ele>
        <time>2018-09-30T10:41:16.000Z</time>
      </trkpt>
      <trkpt lat="43.21097" lon="-0.65952">
        <ele>193</ele>
        <time>2018-09-30T10:41:18.000Z</time>
      </trkpt>
      <trkpt lat="43.21096" lon="-0.65947">
        <ele>193</ele>
        <time>2018-09-30T10:41:19.000Z</time>
      </trkpt>
      <trkpt lat="43.21095" lon="-0.65942">
        <ele>193</ele>
        <time>2018-09-30T10:41:20.000Z</time>
      </trkpt>
      <trkpt lat="43.21093" lon="-0.65937">
        <ele>193</ele>
        <time>2018-09-30T10:41:21.000Z</time>
      </trkpt>
      <trkpt lat="43.21092" lon="-0.65932">
        <ele>193</ele>
        <time>2018-09-30T10:41:22.000Z</time>
      </trkpt>
      <trkpt lat="43.2109" lon="-0.65927">
        <ele>193</ele>
        <time>2018-09-30T10:41:23.000Z</time>
      </trkpt>
      <trkpt lat="43.21087" lon="-0.65923">
        <ele>193</ele>
        <time>2018-09-30T10:41:24.000Z</time>
      </trkpt>
      <trkpt lat="43.21085" lon="-0.65918">
        <ele>193</ele>
        <time>2018-09-30T10:41:25.000Z</time>
      </trkpt>
      <trkpt lat="43.21082" lon="-0.65914">
        <ele>193</ele>
        <time>2018-09-30T10:41:26.000Z</time>
      </trkpt>
      <trkpt lat="43.21079" lon="-0.6591">
        <ele>193</ele>
        <time>2018-09-30T10:41:27.000Z</time>
      </trkpt>
      <trkpt lat="43.21076" lon="-0.65906">
        <ele>193.5900032</ele>
        <time>2018-09-30T10:41:28.000Z</time>
      </trkpt>
      <trkpt lat="43.21074" lon="-0.65901">
        <ele>194</ele>
        <time>2018-09-30T10:41:29.000Z</time>
      </trkpt>
      <trkpt lat="43.21071" lon="-0.65897">
        <ele>194</ele>
        <time>2018-09-30T10:41:30.000Z</time>
      </trkpt>
      <trkpt lat="43.21069" lon="-0.65892">
        <ele>194.5900032</ele>
        <time>2018-09-30T10:41:31.000Z</time>
      </trkpt>
      <trkpt lat="43.21067" lon="-0.65887">
        <ele>195</ele>
        <time>2018-09-30T10:41:32.000Z</time>
      </trkpt>
      <trkpt lat="43.21065" lon="-0.65882">
        <ele>195</ele>
        <time>2018-09-30T10:41:33.000Z</time>
      </trkpt>
      <trkpt lat="43.21063" lon="-0.65877">
        <ele>195</ele>
        <time>2018-09-30T10:41:34.000Z</time>
      </trkpt>
      <trkpt lat="43.2106" lon="-0.65872">
        <ele>195</ele>
        <time>2018-09-30T10:41:35.000Z</time>
      </trkpt>
      <trkpt lat="43.21058" lon="-0.65867">
        <ele>195</ele>
        <time>2018-09-30T10:41:36.000Z</time>
      </trkpt>
      <trkpt lat="43.21056" lon="-0.65863">
        <ele>195</ele>
        <time>2018-09-30T10:41:37.000Z</time>
      </trkpt>
      <trkpt lat="43.21053" lon="-0.65858">
        <ele>195</ele>
        <time>2018-09-30T10:41:38.000Z</time>
      </trkpt>
      <trkpt lat="43.21051" lon="-0.65853">
        <ele>195</ele>
        <time>2018-09-30T10:41:39.000Z</time>
      </trkpt>
      <trkpt lat="43.21049" lon="-0.65849">
        <ele>195</ele>
        <time>2018-09-30T10:41:40.000Z</time>
      </trkpt>
      <trkpt lat="43.21046" lon="-0.65845">
        <ele>195</ele>
        <time>2018-09-30T10:41:41.000Z</time>
      </trkpt>
      <trkpt lat="43.21044" lon="-0.6584">
        <ele>195</ele>
        <time>2018-09-30T10:41:42.000Z</time>
      </trkpt>
      <trkpt lat="43.21041" lon="-0.65836">
        <ele>195</ele>
        <time>2018-09-30T10:41:43.000Z</time>
      </trkpt>
      <trkpt lat="43.21039" lon="-0.65831">
        <ele>195</ele>
        <time>2018-09-30T10:41:44.000Z</time>
      </trkpt>
      <trkpt lat="43.21037" lon="-0.65826">
        <ele>195.4</ele>
        <time>2018-09-30T10:41:45.000Z</time>
      </trkpt>
      <trkpt lat="43.21035" lon="-0.65821">
        <ele>196</ele>
        <time>2018-09-30T10:41:46.000Z</time>
      </trkpt>
      <trkpt lat="43.21033" lon="-0.65816">
        <ele>196</ele>
        <time>2018-09-30T10:41:47.000Z</time>
      </trkpt>
      <trkpt lat="43.21032" lon="-0.65811">
        <ele>196</ele>
        <time>2018-09-30T10:41:48.000Z</time>
      </trkpt>
      <trkpt lat="43.2103" lon="-0.65806">
        <ele>196</ele>
        <time>2018-09-30T10:41:49.000Z</time>
      </trkpt>
      <trkpt lat="43.21028" lon="-0.65801">
        <ele>196</ele>
        <time>2018-09-30T10:41:50.000Z</time>
      </trkpt>
      <trkpt lat="43.21027" lon="-0.65796">
        <ele>196.5900032</ele>
        <time>2018-09-30T10:41:51.000Z</time>
      </trkpt>
      <trkpt lat="43.21025" lon="-0.65791">
        <ele>197</ele>
        <time>2018-09-30T10:41:52.000Z</time>
      </trkpt>
      <trkpt lat="43.21024" lon="-0.65786">
        <ele>197</ele>
        <time>2018-09-30T10:41:53.000Z</time>
      </trkpt>
      <trkpt lat="43.21022" lon="-0.65781">
        <ele>197</ele>
        <time>2018-09-30T10:41:54.000Z</time>
      </trkpt>
      <trkpt lat="43.21021" lon="-0.65775">
        <ele>197.5900032</ele>
        <time>2018-09-30T10:41:55.000Z</time>
      </trkpt>
      <trkpt lat="43.2102" lon="-0.6577">
        <ele>198</ele>
        <time>2018-09-30T10:41:56.000Z</time>
      </trkpt>
      <trkpt lat="43.21019" lon="-0.65765">
        <ele>198</ele>
        <time>2018-09-30T10:41:57.000Z</time>
      </trkpt>
      <trkpt lat="43.21018" lon="-0.6576">
        <ele>198</ele>
        <time>2018-09-30T10:41:58.000Z</time>
      </trkpt>
      <trkpt lat="43.21017" lon="-0.65754">
        <ele>198</ele>
        <time>2018-09-30T10:41:59.000Z</time>
      </trkpt>
      <trkpt lat="43.21016" lon="-0.65749">
        <ele>198</ele>
        <time>2018-09-30T10:42:00.000Z</time>
      </trkpt>
      <trkpt lat="43.21015" lon="-0.65743">
        <ele>198</ele>
        <time>2018-09-30T10:42:01.000Z</time>
      </trkpt>
      <trkpt lat="43.21015" lon="-0.65738">
        <ele>198.5900032</ele>
        <time>2018-09-30T10:42:02.000Z</time>
      </trkpt>
      <trkpt lat="43.21014" lon="-0.65732">
        <ele>199</ele>
        <time>2018-09-30T10:42:03.000Z</time>
      </trkpt>
      <trkpt lat="43.21013" lon="-0.65727">
        <ele>199.5900032</ele>
        <time>2018-09-30T10:42:04.000Z</time>
      </trkpt>
      <trkpt lat="43.21013" lon="-0.65721">
        <ele>200</ele>
        <time>2018-09-30T10:42:05.000Z</time>
      </trkpt>
      <trkpt lat="43.21012" lon="-0.65716">
        <ele>200</ele>
        <time>2018-09-30T10:42:06.000Z</time>
      </trkpt>
      <trkpt lat="43.21012" lon="-0.6571">
        <ele>200</ele>
        <time>2018-09-30T10:42:07.000Z</time>
      </trkpt>
      <trkpt lat="43.21011" lon="-0.65705">
        <ele>200</ele>
        <time>2018-09-30T10:42:08.000Z</time>
      </trkpt>
      <trkpt lat="43.2101" lon="-0.65699">
        <ele>200.5900032</ele>
        <time>2018-09-30T10:42:09.000Z</time>
      </trkpt>
      <trkpt lat="43.21009" lon="-0.65694">
        <ele>201</ele>
        <time>2018-09-30T10:42:10.000Z</time>
      </trkpt>
      <trkpt lat="43.21009" lon="-0.65688">
        <ele>201</ele>
        <time>2018-09-30T10:42:11.000Z</time>
      </trkpt>
      <trkpt lat="43.21008" lon="-0.65683">
        <ele>201</ele>
        <time>2018-09-30T10:42:12.000Z</time>
      </trkpt>
      <trkpt lat="43.21007" lon="-0.65678">
        <ele>201</ele>
        <time>2018-09-30T10:42:13.000Z</time>
      </trkpt>
      <trkpt lat="43.21005" lon="-0.65673">
        <ele>201</ele>
        <time>2018-09-30T10:42:14.000Z</time>
      </trkpt>
      <trkpt lat="43.21004" lon="-0.65668">
        <ele>201</ele>
        <time>2018-09-30T10:42:15.000Z</time>
      </trkpt>
      <trkpt lat="43.21001" lon="-0.65664">
        <ele>201</ele>
        <time>2018-09-30T10:42:16.000Z</time>
      </trkpt>
      <trkpt lat="43.20998" lon="-0.65661">
        <ele>201</ele>
        <time>2018-09-30T10:42:17.000Z</time>
      </trkpt>
      <trkpt lat="43.20995" lon="-0.65658">
        <ele>201.57843088043</ele>
        <time>2018-09-30T10:42:18.000Z</time>
      </trkpt>
      <trkpt lat="43.20992" lon="-0.65655">
        <ele>202</ele>
        <time>2018-09-30T10:42:19.000Z</time>
      </trkpt>
      <trkpt lat="43.20989" lon="-0.65652">
        <ele>202</ele>
        <time>2018-09-30T10:42:20.000Z</time>
      </trkpt>
      <trkpt lat="43.20986" lon="-0.65648">
        <ele>202</ele>
        <time>2018-09-30T10:42:21.000Z</time>
      </trkpt>
      <trkpt lat="43.20982" lon="-0.65645">
        <ele>202</ele>
        <time>2018-09-30T10:42:22.000Z</time>
      </trkpt>
      <trkpt lat="43.20979" lon="-0.65642">
        <ele>202</ele>
        <time>2018-09-30T10:42:23.000Z</time>
      </trkpt>
      <trkpt lat="43.20975" lon="-0.65639">
        <ele>202.4142849306</ele>
        <time>2018-09-30T10:42:24.000Z</time>
      </trkpt>
      <trkpt lat="43.20971" lon="-0.65636">
        <ele>203</ele>
        <time>2018-09-30T10:42:25.000Z</time>
      </trkpt>
      <trkpt lat="43.20968" lon="-0.65633">
        <ele>203</ele>
        <time>2018-09-30T10:42:26.000Z</time>
      </trkpt>
      <trkpt lat="43.20964" lon="-0.65629">
        <ele>203.5900032</ele>
        <time>2018-09-30T10:42:27.000Z</time>
      </trkpt>
      <trkpt lat="43.2096" lon="-0.65626">
        <ele>204</ele>
        <time>2018-09-30T10:42:28.000Z</time>
      </trkpt>
      <trkpt lat="43.20956" lon="-0.65623">
        <ele>204</ele>
        <time>2018-09-30T10:42:29.000Z</time>
      </trkpt>
      <trkpt lat="43.20952" lon="-0.65619">
        <ele>204</ele>
        <time>2018-09-30T10:42:30.000Z</time>
      </trkpt>
      <trkpt lat="43.20948" lon="-0.65616">
        <ele>204</ele>
        <time>2018-09-30T10:42:31.000Z</time>
      </trkpt>
      <trkpt lat="43.20944" lon="-0.65613">
        <ele>204</ele>
        <time>2018-09-30T10:42:32.000Z</time>
      </trkpt>
      <trkpt lat="43.2094" lon="-0.65609">
        <ele>204</ele>
        <time>2018-09-30T10:42:33.000Z</time>
      </trkpt>
      <trkpt lat="43.20937" lon="-0.65606">
        <ele>204</ele>
        <time>2018-09-30T10:42:34.000Z</time>
      </trkpt>
      <trkpt lat="43.20933" lon="-0.65603">
        <ele>204</ele>
        <time>2018-09-30T10:42:35.000Z</time>
      </trkpt>
      <trkpt lat="43.20929" lon="-0.656">
        <ele>204</ele>
        <time>2018-09-30T10:42:36.000Z</time>
      </trkpt>
      <trkpt lat="43.20926" lon="-0.65597">
        <ele>204.45736795626</ele>
        <time>2018-09-30T10:42:37.000Z</time>
      </trkpt>
      <trkpt lat="43.20923" lon="-0.65594">
        <ele>205</ele>
        <time>2018-09-30T10:42:38.000Z</time>
      </trkpt>
      <trkpt lat="43.20919" lon="-0.65591">
        <ele>205</ele>
        <time>2018-09-30T10:42:39.000Z</time>
      </trkpt>
      <trkpt lat="43.20916" lon="-0.65588">
        <ele>205</ele>
        <time>2018-09-30T10:42:40.000Z</time>
      </trkpt>
      <trkpt lat="43.20913" lon="-0.65586">
        <ele>205</ele>
        <time>2018-09-30T10:42:41.000Z</time>
      </trkpt>
      <trkpt lat="43.20909" lon="-0.65583">
        <ele>205</ele>
        <time>2018-09-30T10:42:42.000Z</time>
      </trkpt>
      <trkpt lat="43.20906" lon="-0.6558">
        <ele>205.5900032</ele>
        <time>2018-09-30T10:42:43.000Z</time>
      </trkpt>
      <trkpt lat="43.20903" lon="-0.65577">
        <ele>206</ele>
        <time>2018-09-30T10:42:44.000Z</time>
      </trkpt>
      <trkpt lat="43.20898" lon="-0.65572">
        <ele>206.5900032</ele>
        <time>2018-09-30T10:42:46.000Z</time>
      </trkpt>
      <trkpt lat="43.20892" lon="-0.65566">
        <ele>207</ele>
        <time>2018-09-30T10:42:48.000Z</time>
      </trkpt>
      <trkpt lat="43.20886" lon="-0.65562">
        <ele>208</ele>
        <time>2018-09-30T10:42:50.000Z</time>
      </trkpt>
      <trkpt lat="43.20882" lon="-0.6556">
        <ele>208</ele>
        <time>2018-09-30T10:42:51.000Z</time>
      </trkpt>
      <trkpt lat="43.20879" lon="-0.65559">
        <ele>208.5900032</ele>
        <time>2018-09-30T10:42:52.000Z</time>
      </trkpt>
      <trkpt lat="43.20875" lon="-0.65558">
        <ele>209</ele>
        <time>2018-09-30T10:42:53.000Z</time>
      </trkpt>
      <trkpt lat="43.20871" lon="-0.65557">
        <ele>209</ele>
        <time>2018-09-30T10:42:54.000Z</time>
      </trkpt>
      <trkpt lat="43.20868" lon="-0.65557">
        <ele>209</ele>
        <time>2018-09-30T10:42:55.000Z</time>
      </trkpt>
      <trkpt lat="43.20864" lon="-0.65556">
        <ele>209.5900032</ele>
        <time>2018-09-30T10:42:56.000Z</time>
      </trkpt>
      <trkpt lat="43.2086" lon="-0.65556">
        <ele>210</ele>
        <time>2018-09-30T10:42:57.000Z</time>
      </trkpt>
      <trkpt lat="43.20856" lon="-0.65556">
        <ele>210</ele>
        <time>2018-09-30T10:42:58.000Z</time>
      </trkpt>
      <trkpt lat="43.20853" lon="-0.65556">
        <ele>210</ele>
        <time>2018-09-30T10:42:59.000Z</time>
      </trkpt>
      <trkpt lat="43.20849" lon="-0.65555">
        <ele>210</ele>
        <time>2018-09-30T10:43:00.000Z</time>
      </trkpt>
      <trkpt lat="43.20845" lon="-0.65555">
        <ele>210.43056</ele>
        <time>2018-09-30T10:43:01.000Z</time>
      </trkpt>
      <trkpt lat="43.20842" lon="-0.65553">
        <ele>211</ele>
        <time>2018-09-30T10:43:02.000Z</time>
      </trkpt>
      <trkpt lat="43.20838" lon="-0.65552">
        <ele>211</ele>
        <time>2018-09-30T10:43:03.000Z</time>
      </trkpt>
      <trkpt lat="43.20834" lon="-0.6555">
        <ele>211</ele>
        <time>2018-09-30T10:43:04.000Z</time>
      </trkpt>
      <trkpt lat="43.2083" lon="-0.65549">
        <ele>211</ele>
        <time>2018-09-30T10:43:05.000Z</time>
      </trkpt>
      <trkpt lat="43.20826" lon="-0.65547">
        <ele>211</ele>
        <time>2018-09-30T10:43:06.000Z</time>
      </trkpt>
      <trkpt lat="43.20823" lon="-0.65545">
        <ele>211</ele>
        <time>2018-09-30T10:43:07.000Z</time>
      </trkpt>
      <trkpt lat="43.20819" lon="-0.65543">
        <ele>211</ele>
        <time>2018-09-30T10:43:08.000Z</time>
      </trkpt>
      <trkpt lat="43.20815" lon="-0.65541">
        <ele>211.45384638106</ele>
        <time>2018-09-30T10:43:09.000Z</time>
      </trkpt>
      <trkpt lat="43.20811" lon="-0.65539">
        <ele>212</ele>
        <time>2018-09-30T10:43:10.000Z</time>
      </trkpt>
      <trkpt lat="43.20807" lon="-0.65537">
        <ele>212</ele>
        <time>2018-09-30T10:43:11.000Z</time>
      </trkpt>
      <trkpt lat="43.20803" lon="-0.65535">
        <ele>212</ele>
        <time>2018-09-30T10:43:12.000Z</time>
      </trkpt>
      <trkpt lat="43.20799" lon="-0.65533">
        <ele>212</ele>
        <time>2018-09-30T10:43:13.000Z</time>
      </trkpt>
      <trkpt lat="43.20795" lon="-0.65531">
        <ele>212.58416343497</ele>
        <time>2018-09-30T10:43:14.000Z</time>
      </trkpt>
      <trkpt lat="43.20791" lon="-0.65529">
        <ele>213</ele>
        <time>2018-09-30T10:43:15.000Z</time>
      </trkpt>
      <trkpt lat="43.20786" lon="-0.65527">
        <ele>213</ele>
        <time>2018-09-30T10:43:16.000Z</time>
      </trkpt>
      <trkpt lat="43.20782" lon="-0.65526">
        <ele>213</ele>
        <time>2018-09-30T10:43:17.000Z</time>
      </trkpt>
      <trkpt lat="43.20778" lon="-0.65524">
        <ele>213</ele>
        <time>2018-09-30T10:43:18.000Z</time>
      </trkpt>
      <trkpt lat="43.20773" lon="-0.65522">
        <ele>213</ele>
        <time>2018-09-30T10:43:19.000Z</time>
      </trkpt>
      <trkpt lat="43.20769" lon="-0.65521">
        <ele>213</ele>
        <time>2018-09-30T10:43:20.000Z</time>
      </trkpt>
      <trkpt lat="43.20764" lon="-0.65519">
        <ele>213</ele>
        <time>2018-09-30T10:43:21.000Z</time>
      </trkpt>
      <trkpt lat="43.20759" lon="-0.65518">
        <ele>213</ele>
        <time>2018-09-30T10:43:22.000Z</time>
      </trkpt>
      <trkpt lat="43.20755" lon="-0.65516">
        <ele>213</ele>
        <time>2018-09-30T10:43:23.000Z</time>
      </trkpt>
      <trkpt lat="43.2075" lon="-0.65515">
        <ele>213</ele>
        <time>2018-09-30T10:43:24.000Z</time>
      </trkpt>
      <trkpt lat="43.20745" lon="-0.65514">
        <ele>213</ele>
        <time>2018-09-30T10:43:25.000Z</time>
      </trkpt>
      <trkpt lat="43.20741" lon="-0.65512">
        <ele>213</ele>
        <time>2018-09-30T10:43:26.000Z</time>
      </trkpt>
      <trkpt lat="43.20736" lon="-0.65511">
        <ele>213</ele>
        <time>2018-09-30T10:43:27.000Z</time>
      </trkpt>
      <trkpt lat="43.20731" lon="-0.65509">
        <ele>213</ele>
        <time>2018-09-30T10:43:28.000Z</time>
      </trkpt>
      <trkpt lat="43.20726" lon="-0.65508">
        <ele>213</ele>
        <time>2018-09-30T10:43:29.000Z</time>
      </trkpt>
      <trkpt lat="43.20722" lon="-0.65506">
        <ele>213</ele>
        <time>2018-09-30T10:43:30.000Z</time>
      </trkpt>
      <trkpt lat="43.20717" lon="-0.65505">
        <ele>212.4099968</ele>
        <time>2018-09-30T10:43:31.000Z</time>
      </trkpt>
      <trkpt lat="43.20712" lon="-0.65503">
        <ele>212</ele>
        <time>2018-09-30T10:43:32.000Z</time>
      </trkpt>
      <trkpt lat="43.20707" lon="-0.65502">
        <ele>212.5900032</ele>
        <time>2018-09-30T10:43:33.000Z</time>
      </trkpt>
      <trkpt lat="43.20703" lon="-0.65499">
        <ele>213</ele>
        <time>2018-09-30T10:43:34.000Z</time>
      </trkpt>
      <trkpt lat="43.20698" lon="-0.65497">
        <ele>213</ele>
        <time>2018-09-30T10:43:35.000Z</time>
      </trkpt>
      <trkpt lat="43.20694" lon="-0.65495">
        <ele>213</ele>
        <time>2018-09-30T10:43:36.000Z</time>
      </trkpt>
      <trkpt lat="43.20689" lon="-0.65493">
        <ele>213</ele>
        <time>2018-09-30T10:43:37.000Z</time>
      </trkpt>
      <trkpt lat="43.20684" lon="-0.65491">
        <ele>213</ele>
        <time>2018-09-30T10:43:38.000Z</time>
      </trkpt>
      <trkpt lat="43.2068" lon="-0.65488">
        <ele>213</ele>
        <time>2018-09-30T10:43:39.000Z</time>
      </trkpt>
      <trkpt lat="43.20675" lon="-0.65486">
        <ele>213</ele>
        <time>2018-09-30T10:43:40.000Z</time>
      </trkpt>
      <trkpt lat="43.20671" lon="-0.65484">
        <ele>213</ele>
        <time>2018-09-30T10:43:41.000Z</time>
      </trkpt>
      <trkpt lat="43.20667" lon="-0.65481">
        <ele>213</ele>
        <time>2018-09-30T10:43:42.000Z</time>
      </trkpt>
      <trkpt lat="43.20662" lon="-0.65479">
        <ele>213</ele>
        <time>2018-09-30T10:43:43.000Z</time>
      </trkpt>
      <trkpt lat="43.20657" lon="-0.65476">
        <ele>213</ele>
        <time>2018-09-30T10:43:44.000Z</time>
      </trkpt>
      <trkpt lat="43.20653" lon="-0.65474">
        <ele>213</ele>
        <time>2018-09-30T10:43:45.000Z</time>
      </trkpt>
      <trkpt lat="43.20648" lon="-0.65471">
        <ele>213</ele>
        <time>2018-09-30T10:43:46.000Z</time>
      </trkpt>
      <trkpt lat="43.20644" lon="-0.65469">
        <ele>213</ele>
        <time>2018-09-30T10:43:47.000Z</time>
      </trkpt>
      <trkpt lat="43.20639" lon="-0.65467">
        <ele>213</ele>
        <time>2018-09-30T10:43:48.000Z</time>
      </trkpt>
      <trkpt lat="43.20635" lon="-0.65465">
        <ele>213</ele>
        <time>2018-09-30T10:43:49.000Z</time>
      </trkpt>
      <trkpt lat="43.2063" lon="-0.65463">
        <ele>213</ele>
        <time>2018-09-30T10:43:50.000Z</time>
      </trkpt>
      <trkpt lat="43.20625" lon="-0.65461">
        <ele>213</ele>
        <time>2018-09-30T10:43:51.000Z</time>
      </trkpt>
      <trkpt lat="43.20621" lon="-0.65459">
        <ele>213</ele>
        <time>2018-09-30T10:43:52.000Z</time>
      </trkpt>
      <trkpt lat="43.20616" lon="-0.65457">
        <ele>213</ele>
        <time>2018-09-30T10:43:53.000Z</time>
      </trkpt>
      <trkpt lat="43.20612" lon="-0.65456">
        <ele>213</ele>
        <time>2018-09-30T10:43:54.000Z</time>
      </trkpt>
      <trkpt lat="43.20607" lon="-0.65455">
        <ele>213</ele>
        <time>2018-09-30T10:43:55.000Z</time>
      </trkpt>
      <trkpt lat="43.20602" lon="-0.65454">
        <ele>213</ele>
        <time>2018-09-30T10:43:56.000Z</time>
      </trkpt>
      <trkpt lat="43.20597" lon="-0.65453">
        <ele>213</ele>
        <time>2018-09-30T10:43:57.000Z</time>
      </trkpt>
      <trkpt lat="43.20593" lon="-0.65452">
        <ele>213</ele>
        <time>2018-09-30T10:43:58.000Z</time>
      </trkpt>
      <trkpt lat="43.20588" lon="-0.65452">
        <ele>213</ele>
        <time>2018-09-30T10:43:59.000Z</time>
      </trkpt>
      <trkpt lat="43.20583" lon="-0.65452">
        <ele>213</ele>
        <time>2018-09-30T10:44:00.000Z</time>
      </trkpt>
      <trkpt lat="43.20579" lon="-0.65452">
        <ele>213</ele>
        <time>2018-09-30T10:44:01.000Z</time>
      </trkpt>
      <trkpt lat="43.20574" lon="-0.65451">
        <ele>213</ele>
        <time>2018-09-30T10:44:02.000Z</time>
      </trkpt>
      <trkpt lat="43.20569" lon="-0.65451">
        <ele>213</ele>
        <time>2018-09-30T10:44:03.000Z</time>
      </trkpt>
      <trkpt lat="43.20564" lon="-0.65451">
        <ele>213.5900032</ele>
        <time>2018-09-30T10:44:04.000Z</time>
      </trkpt>
      <trkpt lat="43.2056" lon="-0.65451">
        <ele>214</ele>
        <time>2018-09-30T10:44:05.000Z</time>
      </trkpt>
      <trkpt lat="43.20555" lon="-0.65451">
        <ele>213.69306905598</ele>
        <time>2018-09-30T10:44:06.000Z</time>
      </trkpt>
      <trkpt lat="43.2055" lon="-0.65451">
        <ele>213</ele>
        <time>2018-09-30T10:44:07.000Z</time>
      </trkpt>
      <trkpt lat="43.20545" lon="-0.65452">
        <ele>213</ele>
        <time>2018-09-30T10:44:08.000Z</time>
      </trkpt>
      <trkpt lat="43.2054" lon="-0.65452">
        <ele>213</ele>
        <time>2018-09-30T10:44:09.000Z</time>
      </trkpt>
      <trkpt lat="43.20536" lon="-0.65452">
        <ele>213</ele>
        <time>2018-09-30T10:44:10.000Z</time>
      </trkpt>
      <trkpt lat="43.20531" lon="-0.65453">
        <ele>213</ele>
        <time>2018-09-30T10:44:11.000Z</time>
      </trkpt>
      <trkpt lat="43.20526" lon="-0.65453">
        <ele>213</ele>
        <time>2018-09-30T10:44:12.000Z</time>
      </trkpt>
      <trkpt lat="43.20521" lon="-0.65453">
        <ele>213</ele>
        <time>2018-09-30T10:44:13.000Z</time>
      </trkpt>
      <trkpt lat="43.20517" lon="-0.65454">
        <ele>213</ele>
        <time>2018-09-30T10:44:14.000Z</time>
      </trkpt>
      <trkpt lat="43.20512" lon="-0.65454">
        <ele>213</ele>
        <time>2018-09-30T10:44:15.000Z</time>
      </trkpt>
      <trkpt lat="43.20507" lon="-0.65455">
        <ele>213.43056</ele>
        <time>2018-09-30T10:44:16.000Z</time>
      </trkpt>
      <trkpt lat="43.20502" lon="-0.65455">
        <ele>214</ele>
        <time>2018-09-30T10:44:17.000Z</time>
      </trkpt>
      <trkpt lat="43.20497" lon="-0.65456">
        <ele>214</ele>
        <time>2018-09-30T10:44:18.000Z</time>
      </trkpt>
      <trkpt lat="43.20492" lon="-0.65457">
        <ele>214</ele>
        <time>2018-09-30T10:44:19.000Z</time>
      </trkpt>
      <trkpt lat="43.20487" lon="-0.65457">
        <ele>214</ele>
        <time>2018-09-30T10:44:20.000Z</time>
      </trkpt>
      <trkpt lat="43.20483" lon="-0.65458">
        <ele>214</ele>
        <time>2018-09-30T10:44:21.000Z</time>
      </trkpt>
      <trkpt lat="43.20478" lon="-0.65458">
        <ele>214</ele>
        <time>2018-09-30T10:44:22.000Z</time>
      </trkpt>
      <trkpt lat="43.20473" lon="-0.65459">
        <ele>214</ele>
        <time>2018-09-30T10:44:23.000Z</time>
      </trkpt>
      <trkpt lat="43.20468" lon="-0.6546">
        <ele>214</ele>
        <time>2018-09-30T10:44:24.000Z</time>
      </trkpt>
      <trkpt lat="43.20463" lon="-0.65461">
        <ele>214</ele>
        <time>2018-09-30T10:44:25.000Z</time>
      </trkpt>
      <trkpt lat="43.20458" lon="-0.65461">
        <ele>214</ele>
        <time>2018-09-30T10:44:26.000Z</time>
      </trkpt>
      <trkpt lat="43.20453" lon="-0.65462">
        <ele>214</ele>
        <time>2018-09-30T10:44:27.000Z</time>
      </trkpt>
      <trkpt lat="43.20448" lon="-0.65463">
        <ele>214</ele>
        <time>2018-09-30T10:44:28.000Z</time>
      </trkpt>
      <trkpt lat="43.20443" lon="-0.65464">
        <ele>214</ele>
        <time>2018-09-30T10:44:29.000Z</time>
      </trkpt>
      <trkpt lat="43.20438" lon="-0.65464">
        <ele>214</ele>
        <time>2018-09-30T10:44:30.000Z</time>
      </trkpt>
      <trkpt lat="43.20433" lon="-0.65465">
        <ele>214</ele>
        <time>2018-09-30T10:44:31.000Z</time>
      </trkpt>
      <trkpt lat="43.20428" lon="-0.65466">
        <ele>214</ele>
        <time>2018-09-30T10:44:32.000Z</time>
      </trkpt>
      <trkpt lat="43.20423" lon="-0.65467">
        <ele>214</ele>
        <time>2018-09-30T10:44:33.000Z</time>
      </trkpt>
      <trkpt lat="43.20418" lon="-0.65467">
        <ele>214</ele>
        <time>2018-09-30T10:44:34.000Z</time>
      </trkpt>
      <trkpt lat="43.20412" lon="-0.65468">
        <ele>214</ele>
        <time>2018-09-30T10:44:35.000Z</time>
      </trkpt>
      <trkpt lat="43.20407" lon="-0.65469">
        <ele>214</ele>
        <time>2018-09-30T10:44:36.000Z</time>
      </trkpt>
      <trkpt lat="43.20403" lon="-0.6547">
        <ele>214</ele>
        <time>2018-09-30T10:44:37.000Z</time>
      </trkpt>
      <trkpt lat="43.20398" lon="-0.65471">
        <ele>214</ele>
        <time>2018-09-30T10:44:38.000Z</time>
      </trkpt>
      <trkpt lat="43.20393" lon="-0.65472">
        <ele>214</ele>
        <time>2018-09-30T10:44:39.000Z</time>
      </trkpt>
      <trkpt lat="43.20388" lon="-0.65473">
        <ele>214</ele>
        <time>2018-09-30T10:44:40.000Z</time>
      </trkpt>
      <trkpt lat="43.20383" lon="-0.65475">
        <ele>214</ele>
        <time>2018-09-30T10:44:41.000Z</time>
      </trkpt>
      <trkpt lat="43.20378" lon="-0.65477">
        <ele>214</ele>
        <time>2018-09-30T10:44:42.000Z</time>
      </trkpt>
      <trkpt lat="43.20373" lon="-0.65479">
        <ele>214</ele>
        <time>2018-09-30T10:44:43.000Z</time>
      </trkpt>
      <trkpt lat="43.20368" lon="-0.65481">
        <ele>214</ele>
        <time>2018-09-30T10:44:44.000Z</time>
      </trkpt>
      <trkpt lat="43.20363" lon="-0.65483">
        <ele>214.29808</ele>
        <time>2018-09-30T10:44:45.000Z</time>
      </trkpt>
      <trkpt lat="43.20359" lon="-0.65486">
        <ele>215</ele>
        <time>2018-09-30T10:44:46.000Z</time>
      </trkpt>
      <trkpt lat="43.20354" lon="-0.65489">
        <ele>215</ele>
        <time>2018-09-30T10:44:47.000Z</time>
      </trkpt>
      <trkpt lat="43.20349" lon="-0.65493">
        <ele>215</ele>
        <time>2018-09-30T10:44:48.000Z</time>
      </trkpt>
      <trkpt lat="43.20345" lon="-0.65496">
        <ele>215</ele>
        <time>2018-09-30T10:44:49.000Z</time>
      </trkpt>
      <trkpt lat="43.2034" lon="-0.65499">
        <ele>215</ele>
        <time>2018-09-30T10:44:50.000Z</time>
      </trkpt>
      <trkpt lat="43.20336" lon="-0.65503">
        <ele>215</ele>
        <time>2018-09-30T10:44:51.000Z</time>
      </trkpt>
      <trkpt lat="43.20331" lon="-0.65506">
        <ele>215</ele>
        <time>2018-09-30T10:44:52.000Z</time>
      </trkpt>
      <trkpt lat="43.20327" lon="-0.65509">
        <ele>215</ele>
        <time>2018-09-30T10:44:53.000Z</time>
      </trkpt>
      <trkpt lat="43.20323" lon="-0.65512">
        <ele>215</ele>
        <time>2018-09-30T10:44:54.000Z</time>
      </trkpt>
      <trkpt lat="43.20318" lon="-0.65515">
        <ele>215</ele>
        <time>2018-09-30T10:44:55.000Z</time>
      </trkpt>
      <trkpt lat="43.20314" lon="-0.65519">
        <ele>215</ele>
        <time>2018-09-30T10:44:56.000Z</time>
      </trkpt>
      <trkpt lat="43.20309" lon="-0.65522">
        <ele>215</ele>
        <time>2018-09-30T10:44:57.000Z</time>
      </trkpt>
      <trkpt lat="43.20305" lon="-0.65525">
        <ele>215</ele>
        <time>2018-09-30T10:44:58.000Z</time>
      </trkpt>
      <trkpt lat="43.203" lon="-0.65528">
        <ele>215</ele>
        <time>2018-09-30T10:44:59.000Z</time>
      </trkpt>
      <trkpt lat="43.20295" lon="-0.65531">
        <ele>215</ele>
        <time>2018-09-30T10:45:00.000Z</time>
      </trkpt>
      <trkpt lat="43.20291" lon="-0.65535">
        <ele>215</ele>
        <time>2018-09-30T10:45:01.000Z</time>
      </trkpt>
      <trkpt lat="43.20286" lon="-0.65538">
        <ele>215</ele>
        <time>2018-09-30T10:45:02.000Z</time>
      </trkpt>
      <trkpt lat="43.20281" lon="-0.65541">
        <ele>215</ele>
        <time>2018-09-30T10:45:03.000Z</time>
      </trkpt>
      <trkpt lat="43.20277" lon="-0.65544">
        <ele>215</ele>
        <time>2018-09-30T10:45:04.000Z</time>
      </trkpt>
      <trkpt lat="43.20272" lon="-0.65547">
        <ele>215</ele>
        <time>2018-09-30T10:45:05.000Z</time>
      </trkpt>
      <trkpt lat="43.20267" lon="-0.6555">
        <ele>215</ele>
        <time>2018-09-30T10:45:06.000Z</time>
      </trkpt>
      <trkpt lat="43.20263" lon="-0.65553">
        <ele>215</ele>
        <time>2018-09-30T10:45:07.000Z</time>
      </trkpt>
      <trkpt lat="43.20259" lon="-0.65556">
        <ele>215</ele>
        <time>2018-09-30T10:45:08.000Z</time>
      </trkpt>
      <trkpt lat="43.20254" lon="-0.65558">
        <ele>215</ele>
        <time>2018-09-30T10:45:09.000Z</time>
      </trkpt>
      <trkpt lat="43.2025" lon="-0.65559">
        <ele>215</ele>
        <time>2018-09-30T10:45:10.000Z</time>
      </trkpt>
      <trkpt lat="43.20246" lon="-0.6556">
        <ele>215</ele>
        <time>2018-09-30T10:45:11.000Z</time>
      </trkpt>
      <trkpt lat="43.20241" lon="-0.65558">
        <ele>215</ele>
        <time>2018-09-30T10:45:12.000Z</time>
      </trkpt>
      <trkpt lat="43.20239" lon="-0.65554">
        <ele>215</ele>
        <time>2018-09-30T10:45:13.000Z</time>
      </trkpt>
      <trkpt lat="43.20237" lon="-0.65548">
        <ele>215</ele>
        <time>2018-09-30T10:45:14.000Z</time>
      </trkpt>
      <trkpt lat="43.20238" lon="-0.65542">
        <ele>214.54263204374</ele>
        <time>2018-09-30T10:45:15.000Z</time>
      </trkpt>
      <trkpt lat="43.20239" lon="-0.65536">
        <ele>214</ele>
        <time>2018-09-30T10:45:16.000Z</time>
      </trkpt>
      <trkpt lat="43.2024" lon="-0.6553">
        <ele>214</ele>
        <time>2018-09-30T10:45:17.000Z</time>
      </trkpt>
      <trkpt lat="43.20242" lon="-0.65523">
        <ele>214.5773214922</ele>
        <time>2018-09-30T10:45:18.000Z</time>
      </trkpt>
      <trkpt lat="43.20243" lon="-0.65517">
        <ele>215</ele>
        <time>2018-09-30T10:45:19.000Z</time>
      </trkpt>
      <trkpt lat="43.20245" lon="-0.65511">
        <ele>215</ele>
        <time>2018-09-30T10:45:20.000Z</time>
      </trkpt>
      <trkpt lat="43.20246" lon="-0.65504">
        <ele>215</ele>
        <time>2018-09-30T10:45:21.000Z</time>
      </trkpt>
      <trkpt lat="43.20247" lon="-0.65498">
        <ele>215</ele>
        <time>2018-09-30T10:45:22.000Z</time>
      </trkpt>
      <trkpt lat="43.20248" lon="-0.65491">
        <ele>215</ele>
        <time>2018-09-30T10:45:23.000Z</time>
      </trkpt>
      <trkpt lat="43.20249" lon="-0.65485">
        <ele>215</ele>
        <time>2018-09-30T10:45:24.000Z</time>
      </trkpt>
      <trkpt lat="43.20249" lon="-0.65479">
        <ele>215</ele>
        <time>2018-09-30T10:45:25.000Z</time>
      </trkpt>
      <trkpt lat="43.20251" lon="-0.65472">
        <ele>215</ele>
        <time>2018-09-30T10:45:26.000Z</time>
      </trkpt>
      <trkpt lat="43.20252" lon="-0.65466">
        <ele>215</ele>
        <time>2018-09-30T10:45:27.000Z</time>
      </trkpt>
      <trkpt lat="43.20254" lon="-0.65459">
        <ele>215</ele>
        <time>2018-09-30T10:45:28.000Z</time>
      </trkpt>
      <trkpt lat="43.20255" lon="-0.65453">
        <ele>215</ele>
        <time>2018-09-30T10:45:29.000Z</time>
      </trkpt>
      <trkpt lat="43.20256" lon="-0.65447">
        <ele>215</ele>
        <time>2018-09-30T10:45:30.000Z</time>
      </trkpt>
      <trkpt lat="43.20258" lon="-0.6544">
        <ele>215</ele>
        <time>2018-09-30T10:45:31.000Z</time>
      </trkpt>
      <trkpt lat="43.20259" lon="-0.65434">
        <ele>215</ele>
        <time>2018-09-30T10:45:32.000Z</time>
      </trkpt>
      <trkpt lat="43.2026" lon="-0.65427">
        <ele>215</ele>
        <time>2018-09-30T10:45:33.000Z</time>
      </trkpt>
      <trkpt lat="43.20261" lon="-0.65421">
        <ele>215</ele>
        <time>2018-09-30T10:45:34.000Z</time>
      </trkpt>
      <trkpt lat="43.20263" lon="-0.65415">
        <ele>215</ele>
        <time>2018-09-30T10:45:35.000Z</time>
      </trkpt>
      <trkpt lat="43.20264" lon="-0.65408">
        <ele>215</ele>
        <time>2018-09-30T10:45:36.000Z</time>
      </trkpt>
      <trkpt lat="43.20265" lon="-0.65402">
        <ele>214.56164191405</ele>
        <time>2018-09-30T10:45:37.000Z</time>
      </trkpt>
      <trkpt lat="43.20266" lon="-0.65395">
        <ele>214.5900032</ele>
        <time>2018-09-30T10:45:38.000Z</time>
      </trkpt>
      <trkpt lat="43.20267" lon="-0.65389">
        <ele>215</ele>
        <time>2018-09-30T10:45:39.000Z</time>
      </trkpt>
      <trkpt lat="43.20268" lon="-0.65382">
        <ele>214.4099968</ele>
        <time>2018-09-30T10:45:40.000Z</time>
      </trkpt>
      <trkpt lat="43.20269" lon="-0.65375">
        <ele>214</ele>
        <time>2018-09-30T10:45:41.000Z</time>
      </trkpt>
      <trkpt lat="43.2027" lon="-0.65369">
        <ele>214</ele>
        <time>2018-09-30T10:45:42.000Z</time>
      </trkpt>
      <trkpt lat="43.20272" lon="-0.65363">
        <ele>214.5900032</ele>
        <time>2018-09-30T10:45:43.000Z</time>
      </trkpt>
      <trkpt lat="43.20273" lon="-0.65356">
        <ele>215</ele>
        <time>2018-09-30T10:45:44.000Z</time>
      </trkpt>
      <trkpt lat="43.20274" lon="-0.6535">
        <ele>215</ele>
        <time>2018-09-30T10:45:45.000Z</time>
      </trkpt>
      <trkpt lat="43.20274" lon="-0.65343">
        <ele>215</ele>
        <time>2018-09-30T10:45:46.000Z</time>
      </trkpt>
      <trkpt lat="43.20275" lon="-0.65337">
        <ele>215</ele>
        <time>2018-09-30T10:45:47.000Z</time>
      </trkpt>
      <trkpt lat="43.20277" lon="-0.6533">
        <ele>215</ele>
        <time>2018-09-30T10:45:48.000Z</time>
      </trkpt>
      <trkpt lat="43.20278" lon="-0.65324">
        <ele>215.58586315681</ele>
        <time>2018-09-30T10:45:49.000Z</time>
      </trkpt>
      <trkpt lat="43.20279" lon="-0.65318">
        <ele>216</ele>
        <time>2018-09-30T10:45:50.000Z</time>
      </trkpt>
      <trkpt lat="43.2028" lon="-0.65311">
        <ele>216</ele>
        <time>2018-09-30T10:45:51.000Z</time>
      </trkpt>
      <trkpt lat="43.20282" lon="-0.65305">
        <ele>216</ele>
        <time>2018-09-30T10:45:52.000Z</time>
      </trkpt>
      <trkpt lat="43.20283" lon="-0.65299">
        <ele>216</ele>
        <time>2018-09-30T10:45:53.000Z</time>
      </trkpt>
      <trkpt lat="43.20284" lon="-0.65293">
        <ele>216</ele>
        <time>2018-09-30T10:45:54.000Z</time>
      </trkpt>
      <trkpt lat="43.20285" lon="-0.65286">
        <ele>216</ele>
        <time>2018-09-30T10:45:55.000Z</time>
      </trkpt>
      <trkpt lat="43.20287" lon="-0.6528">
        <ele>216</ele>
        <time>2018-09-30T10:45:56.000Z</time>
      </trkpt>
      <trkpt lat="43.20288" lon="-0.65274">
        <ele>216</ele>
        <time>2018-09-30T10:45:57.000Z</time>
      </trkpt>
      <trkpt lat="43.20289" lon="-0.65267">
        <ele>216</ele>
        <time>2018-09-30T10:45:58.000Z</time>
      </trkpt>
      <trkpt lat="43.2029" lon="-0.65261">
        <ele>216</ele>
        <time>2018-09-30T10:45:59.000Z</time>
      </trkpt>
      <trkpt lat="43.20291" lon="-0.65254">
        <ele>216</ele>
        <time>2018-09-30T10:46:00.000Z</time>
      </trkpt>
      <trkpt lat="43.20292" lon="-0.65248">
        <ele>216</ele>
        <time>2018-09-30T10:46:01.000Z</time>
      </trkpt>
      <trkpt lat="43.20293" lon="-0.65241">
        <ele>216</ele>
        <time>2018-09-30T10:46:02.000Z</time>
      </trkpt>
      <trkpt lat="43.20294" lon="-0.65235">
        <ele>216</ele>
        <time>2018-09-30T10:46:03.000Z</time>
      </trkpt>
      <trkpt lat="43.20295" lon="-0.65228">
        <ele>216</ele>
        <time>2018-09-30T10:46:04.000Z</time>
      </trkpt>
      <trkpt lat="43.20296" lon="-0.65222">
        <ele>216</ele>
        <time>2018-09-30T10:46:05.000Z</time>
      </trkpt>
      <trkpt lat="43.20297" lon="-0.65215">
        <ele>216</ele>
        <time>2018-09-30T10:46:06.000Z</time>
      </trkpt>
      <trkpt lat="43.20298" lon="-0.65209">
        <ele>216</ele>
        <time>2018-09-30T10:46:07.000Z</time>
      </trkpt>
      <trkpt lat="43.20299" lon="-0.65202">
        <ele>216</ele>
        <time>2018-09-30T10:46:08.000Z</time>
      </trkpt>
      <trkpt lat="43.203" lon="-0.65196">
        <ele>216</ele>
        <time>2018-09-30T10:46:09.000Z</time>
      </trkpt>
      <trkpt lat="43.20301" lon="-0.65189">
        <ele>216</ele>
        <time>2018-09-30T10:46:10.000Z</time>
      </trkpt>
      <trkpt lat="43.20301" lon="-0.65182">
        <ele>216</ele>
        <time>2018-09-30T10:46:11.000Z</time>
      </trkpt>
      <trkpt lat="43.20303" lon="-0.65176">
        <ele>216</ele>
        <time>2018-09-30T10:46:12.000Z</time>
      </trkpt>
      <trkpt lat="43.20304" lon="-0.65169">
        <ele>216</ele>
        <time>2018-09-30T10:46:13.000Z</time>
      </trkpt>
      <trkpt lat="43.20306" lon="-0.65163">
        <ele>216</ele>
        <time>2018-09-30T10:46:14.000Z</time>
      </trkpt>
      <trkpt lat="43.20307" lon="-0.65156">
        <ele>216</ele>
        <time>2018-09-30T10:46:15.000Z</time>
      </trkpt>
      <trkpt lat="43.20309" lon="-0.65151">
        <ele>216</ele>
        <time>2018-09-30T10:46:16.000Z</time>
      </trkpt>
      <trkpt lat="43.20311" lon="-0.65145">
        <ele>216</ele>
        <time>2018-09-30T10:46:17.000Z</time>
      </trkpt>
      <trkpt lat="43.20313" lon="-0.6514">
        <ele>216</ele>
        <time>2018-09-30T10:46:18.000Z</time>
      </trkpt>
      <trkpt lat="43.20314" lon="-0.65135">
        <ele>216</ele>
        <time>2018-09-30T10:46:19.000Z</time>
      </trkpt>
      <trkpt lat="43.20314" lon="-0.65127">
        <ele>216</ele>
        <time>2018-09-30T10:46:21.000Z</time>
      </trkpt>
      <trkpt lat="43.20309" lon="-0.65123">
        <ele>216</ele>
        <time>2018-09-30T10:46:23.000Z</time>
      </trkpt>
      <trkpt lat="43.20302" lon="-0.65123">
        <ele>216</ele>
        <time>2018-09-30T10:46:25.000Z</time>
      </trkpt>
      <trkpt lat="43.20298" lon="-0.65123">
        <ele>216</ele>
        <time>2018-09-30T10:46:26.000Z</time>
      </trkpt>
      <trkpt lat="43.20294" lon="-0.65122">
        <ele>216</ele>
        <time>2018-09-30T10:46:27.000Z</time>
      </trkpt>
      <trkpt lat="43.2029" lon="-0.65122">
        <ele>216</ele>
        <time>2018-09-30T10:46:28.000Z</time>
      </trkpt>
      <trkpt lat="43.20286" lon="-0.65121">
        <ele>216</ele>
        <time>2018-09-30T10:46:29.000Z</time>
      </trkpt>
      <trkpt lat="43.20281" lon="-0.65121">
        <ele>216</ele>
        <time>2018-09-30T10:46:30.000Z</time>
      </trkpt>
      <trkpt lat="43.20277" lon="-0.6512">
        <ele>216</ele>
        <time>2018-09-30T10:46:31.000Z</time>
      </trkpt>
      <trkpt lat="43.20273" lon="-0.65119">
        <ele>216</ele>
        <time>2018-09-30T10:46:32.000Z</time>
      </trkpt>
      <trkpt lat="43.20268" lon="-0.65118">
        <ele>216</ele>
        <time>2018-09-30T10:46:33.000Z</time>
      </trkpt>
      <trkpt lat="43.20264" lon="-0.65117">
        <ele>216</ele>
        <time>2018-09-30T10:46:34.000Z</time>
      </trkpt>
      <trkpt lat="43.2026" lon="-0.65116">
        <ele>216</ele>
        <time>2018-09-30T10:46:35.000Z</time>
      </trkpt>
      <trkpt lat="43.20255" lon="-0.65115">
        <ele>216</ele>
        <time>2018-09-30T10:46:36.000Z</time>
      </trkpt>
      <trkpt lat="43.20251" lon="-0.65114">
        <ele>216</ele>
        <time>2018-09-30T10:46:37.000Z</time>
      </trkpt>
      <trkpt lat="43.20247" lon="-0.65113">
        <ele>216</ele>
        <time>2018-09-30T10:46:38.000Z</time>
      </trkpt>
      <trkpt lat="43.20242" lon="-0.65112">
        <ele>216</ele>
        <time>2018-09-30T10:46:39.000Z</time>
      </trkpt>
      <trkpt lat="43.20238" lon="-0.65112">
        <ele>216</ele>
        <time>2018-09-30T10:46:40.000Z</time>
      </trkpt>
      <trkpt lat="43.20233" lon="-0.65111">
        <ele>216</ele>
        <time>2018-09-30T10:46:41.000Z</time>
      </trkpt>
      <trkpt lat="43.20229" lon="-0.6511">
        <ele>216</ele>
        <time>2018-09-30T10:46:42.000Z</time>
      </trkpt>
      <trkpt lat="43.20224" lon="-0.65109">
        <ele>216</ele>
        <time>2018-09-30T10:46:43.000Z</time>
      </trkpt>
      <trkpt lat="43.20219" lon="-0.65108">
        <ele>216</ele>
        <time>2018-09-30T10:46:44.000Z</time>
      </trkpt>
      <trkpt lat="43.20214" lon="-0.65108">
        <ele>216</ele>
        <time>2018-09-30T10:46:45.000Z</time>
      </trkpt>
      <trkpt lat="43.2021" lon="-0.65107">
        <ele>216</ele>
        <time>2018-09-30T10:46:46.000Z</time>
      </trkpt>
      <trkpt lat="43.20205" lon="-0.65107">
        <ele>216</ele>
        <time>2018-09-30T10:46:47.000Z</time>
      </trkpt>
      <trkpt lat="43.202" lon="-0.65107">
        <ele>216</ele>
        <time>2018-09-30T10:46:48.000Z</time>
      </trkpt>
      <trkpt lat="43.20195" lon="-0.65106">
        <ele>216</ele>
        <time>2018-09-30T10:46:49.000Z</time>
      </trkpt>
      <trkpt lat="43.2019" lon="-0.65106">
        <ele>216</ele>
        <time>2018-09-30T10:46:50.000Z</time>
      </trkpt>
      <trkpt lat="43.20185" lon="-0.65106">
        <ele>216.5900032</ele>
        <time>2018-09-30T10:46:51.000Z</time>
      </trkpt>
      <trkpt lat="43.2018" lon="-0.65105">
        <ele>217</ele>
        <time>2018-09-30T10:46:52.000Z</time>
      </trkpt>
      <trkpt lat="43.20174" lon="-0.65104">
        <ele>217</ele>
        <time>2018-09-30T10:46:53.000Z</time>
      </trkpt>
      <trkpt lat="43.20169" lon="-0.65104">
        <ele>217</ele>
        <time>2018-09-30T10:46:54.000Z</time>
      </trkpt>
      <trkpt lat="43.20164" lon="-0.65103">
        <ele>217</ele>
        <time>2018-09-30T10:46:55.000Z</time>
      </trkpt>
      <trkpt lat="43.20159" lon="-0.65102">
        <ele>217</ele>
        <time>2018-09-30T10:46:56.000Z</time>
      </trkpt>
      <trkpt lat="43.20154" lon="-0.65102">
        <ele>217</ele>
        <time>2018-09-30T10:46:57.000Z</time>
      </trkpt>
      <trkpt lat="43.20149" lon="-0.65101">
        <ele>217</ele>
        <time>2018-09-30T10:46:58.000Z</time>
      </trkpt>
      <trkpt lat="43.20143" lon="-0.651">
        <ele>217</ele>
        <time>2018-09-30T10:46:59.000Z</time>
      </trkpt>
      <trkpt lat="43.20138" lon="-0.65099">
        <ele>217</ele>
        <time>2018-09-30T10:47:00.000Z</time>
      </trkpt>
      <trkpt lat="43.20133" lon="-0.65097">
        <ele>217</ele>
        <time>2018-09-30T10:47:01.000Z</time>
      </trkpt>
      <trkpt lat="43.20128" lon="-0.65096">
        <ele>217</ele>
        <time>2018-09-30T10:47:02.000Z</time>
      </trkpt>
      <trkpt lat="43.20123" lon="-0.65094">
        <ele>217</ele>
        <time>2018-09-30T10:47:03.000Z</time>
      </trkpt>
      <trkpt lat="43.20118" lon="-0.65092">
        <ele>217</ele>
        <time>2018-09-30T10:47:04.000Z</time>
      </trkpt>
      <trkpt lat="43.20113" lon="-0.6509">
        <ele>217</ele>
        <time>2018-09-30T10:47:05.000Z</time>
      </trkpt>
      <trkpt lat="43.20108" lon="-0.65087">
        <ele>217</ele>
        <time>2018-09-30T10:47:06.000Z</time>
      </trkpt>
      <trkpt lat="43.20103" lon="-0.65085">
        <ele>217</ele>
        <time>2018-09-30T10:47:07.000Z</time>
      </trkpt>
      <trkpt lat="43.20098" lon="-0.65082">
        <ele>217</ele>
        <time>2018-09-30T10:47:08.000Z</time>
      </trkpt>
      <trkpt lat="43.20093" lon="-0.6508">
        <ele>217</ele>
        <time>2018-09-30T10:47:09.000Z</time>
      </trkpt>
      <trkpt lat="43.20088" lon="-0.65077">
        <ele>217.5900032</ele>
        <time>2018-09-30T10:47:10.000Z</time>
      </trkpt>
      <trkpt lat="43.20083" lon="-0.65074">
        <ele>218</ele>
        <time>2018-09-30T10:47:11.000Z</time>
      </trkpt>
      <trkpt lat="43.20079" lon="-0.65071">
        <ele>218</ele>
        <time>2018-09-30T10:47:12.000Z</time>
      </trkpt>
      <trkpt lat="43.20074" lon="-0.65068">
        <ele>218</ele>
        <time>2018-09-30T10:47:13.000Z</time>
      </trkpt>
      <trkpt lat="43.20069" lon="-0.65066">
        <ele>218</ele>
        <time>2018-09-30T10:47:14.000Z</time>
      </trkpt>
      <trkpt lat="43.20064" lon="-0.65063">
        <ele>218</ele>
        <time>2018-09-30T10:47:15.000Z</time>
      </trkpt>
      <trkpt lat="43.20058" lon="-0.6506">
        <ele>218</ele>
        <time>2018-09-30T10:47:16.000Z</time>
      </trkpt>
      <trkpt lat="43.20053" lon="-0.65058">
        <ele>218</ele>
        <time>2018-09-30T10:47:17.000Z</time>
      </trkpt>
      <trkpt lat="43.20048" lon="-0.65055">
        <ele>218</ele>
        <time>2018-09-30T10:47:18.000Z</time>
      </trkpt>
      <trkpt lat="43.20043" lon="-0.65052">
        <ele>218</ele>
        <time>2018-09-30T10:47:19.000Z</time>
      </trkpt>
      <trkpt lat="43.20038" lon="-0.65049">
        <ele>218</ele>
        <time>2018-09-30T10:47:20.000Z</time>
      </trkpt>
      <trkpt lat="43.20033" lon="-0.65047">
        <ele>218</ele>
        <time>2018-09-30T10:47:21.000Z</time>
      </trkpt>
      <trkpt lat="43.20027" lon="-0.65044">
        <ele>218</ele>
        <time>2018-09-30T10:47:22.000Z</time>
      </trkpt>
      <trkpt lat="43.20022" lon="-0.65041">
        <ele>218</ele>
        <time>2018-09-30T10:47:23.000Z</time>
      </trkpt>
      <trkpt lat="43.20016" lon="-0.65039">
        <ele>218</ele>
        <time>2018-09-30T10:47:24.000Z</time>
      </trkpt>
      <trkpt lat="43.20011" lon="-0.65037">
        <ele>218</ele>
        <time>2018-09-30T10:47:25.000Z</time>
      </trkpt>
      <trkpt lat="43.20006" lon="-0.65035">
        <ele>218</ele>
        <time>2018-09-30T10:47:26.000Z</time>
      </trkpt>
      <trkpt lat="43.2" lon="-0.65033">
        <ele>218</ele>
        <time>2018-09-30T10:47:27.000Z</time>
      </trkpt>
      <trkpt lat="43.19994" lon="-0.65031">
        <ele>218</ele>
        <time>2018-09-30T10:47:28.000Z</time>
      </trkpt>
      <trkpt lat="43.19989" lon="-0.65029">
        <ele>218</ele>
        <time>2018-09-30T10:47:29.000Z</time>
      </trkpt>
      <trkpt lat="43.19983" lon="-0.65028">
        <ele>218</ele>
        <time>2018-09-30T10:47:30.000Z</time>
      </trkpt>
      <trkpt lat="43.19978" lon="-0.65026">
        <ele>218</ele>
        <time>2018-09-30T10:47:31.000Z</time>
      </trkpt>
      <trkpt lat="43.19972" lon="-0.65025">
        <ele>218</ele>
        <time>2018-09-30T10:47:32.000Z</time>
      </trkpt>
      <trkpt lat="43.19966" lon="-0.65023">
        <ele>218</ele>
        <time>2018-09-30T10:47:33.000Z</time>
      </trkpt>
      <trkpt lat="43.19961" lon="-0.65022">
        <ele>218.5900032</ele>
        <time>2018-09-30T10:47:34.000Z</time>
      </trkpt>
      <trkpt lat="43.19955" lon="-0.65021">
        <ele>219</ele>
        <time>2018-09-30T10:47:35.000Z</time>
      </trkpt>
      <trkpt lat="43.1995" lon="-0.6502">
        <ele>219</ele>
        <time>2018-09-30T10:47:36.000Z</time>
      </trkpt>
      <trkpt lat="43.19944" lon="-0.65019">
        <ele>219</ele>
        <time>2018-09-30T10:47:37.000Z</time>
      </trkpt>
      <trkpt lat="43.19938" lon="-0.65019">
        <ele>219</ele>
        <time>2018-09-30T10:47:38.000Z</time>
      </trkpt>
      <trkpt lat="43.19933" lon="-0.65018">
        <ele>219</ele>
        <time>2018-09-30T10:47:39.000Z</time>
      </trkpt>
      <trkpt lat="43.19927" lon="-0.65018">
        <ele>219</ele>
        <time>2018-09-30T10:47:40.000Z</time>
      </trkpt>
      <trkpt lat="43.19921" lon="-0.65017">
        <ele>219</ele>
        <time>2018-09-30T10:47:41.000Z</time>
      </trkpt>
      <trkpt lat="43.19916" lon="-0.65017">
        <ele>219</ele>
        <time>2018-09-30T10:47:42.000Z</time>
      </trkpt>
      <trkpt lat="43.1991" lon="-0.65017">
        <ele>219</ele>
        <time>2018-09-30T10:47:43.000Z</time>
      </trkpt>
      <trkpt lat="43.19904" lon="-0.65017">
        <ele>219</ele>
        <time>2018-09-30T10:47:44.000Z</time>
      </trkpt>
      <trkpt lat="43.19898" lon="-0.65017">
        <ele>219</ele>
        <time>2018-09-30T10:47:45.000Z</time>
      </trkpt>
      <trkpt lat="43.19893" lon="-0.65016">
        <ele>219</ele>
        <time>2018-09-30T10:47:46.000Z</time>
      </trkpt>
      <trkpt lat="43.19887" lon="-0.65015">
        <ele>219</ele>
        <time>2018-09-30T10:47:47.000Z</time>
      </trkpt>
      <trkpt lat="43.19881" lon="-0.65014">
        <ele>219</ele>
        <time>2018-09-30T10:47:48.000Z</time>
      </trkpt>
      <trkpt lat="43.19876" lon="-0.65014">
        <ele>219</ele>
        <time>2018-09-30T10:47:49.000Z</time>
      </trkpt>
      <trkpt lat="43.1987" lon="-0.65013">
        <ele>219</ele>
        <time>2018-09-30T10:47:50.000Z</time>
      </trkpt>
      <trkpt lat="43.19864" lon="-0.65013">
        <ele>219</ele>
        <time>2018-09-30T10:47:51.000Z</time>
      </trkpt>
      <trkpt lat="43.19859" lon="-0.65012">
        <ele>219</ele>
        <time>2018-09-30T10:47:52.000Z</time>
      </trkpt>
      <trkpt lat="43.19853" lon="-0.65011">
        <ele>219</ele>
        <time>2018-09-30T10:47:53.000Z</time>
      </trkpt>
      <trkpt lat="43.19848" lon="-0.6501">
        <ele>219</ele>
        <time>2018-09-30T10:47:54.000Z</time>
      </trkpt>
      <trkpt lat="43.19842" lon="-0.65009">
        <ele>219</ele>
        <time>2018-09-30T10:47:55.000Z</time>
      </trkpt>
      <trkpt lat="43.19836" lon="-0.65009">
        <ele>219</ele>
        <time>2018-09-30T10:47:56.000Z</time>
      </trkpt>
      <trkpt lat="43.19831" lon="-0.65008">
        <ele>219</ele>
        <time>2018-09-30T10:47:57.000Z</time>
      </trkpt>
      <trkpt lat="43.19825" lon="-0.65007">
        <ele>219</ele>
        <time>2018-09-30T10:47:58.000Z</time>
      </trkpt>
      <trkpt lat="43.1982" lon="-0.65007">
        <ele>219</ele>
        <time>2018-09-30T10:47:59.000Z</time>
      </trkpt>
      <trkpt lat="43.19815" lon="-0.65006">
        <ele>219</ele>
        <time>2018-09-30T10:48:00.000Z</time>
      </trkpt>
      <trkpt lat="43.19809" lon="-0.65005">
        <ele>219</ele>
        <time>2018-09-30T10:48:01.000Z</time>
      </trkpt>
      <trkpt lat="43.19804" lon="-0.65005">
        <ele>219</ele>
        <time>2018-09-30T10:48:02.000Z</time>
      </trkpt>
      <trkpt lat="43.19798" lon="-0.65004">
        <ele>219</ele>
        <time>2018-09-30T10:48:03.000Z</time>
      </trkpt>
      <trkpt lat="43.19793" lon="-0.65004">
        <ele>219</ele>
        <time>2018-09-30T10:48:04.000Z</time>
      </trkpt>
      <trkpt lat="43.19787" lon="-0.65003">
        <ele>219</ele>
        <time>2018-09-30T10:48:05.000Z</time>
      </trkpt>
      <trkpt lat="43.19782" lon="-0.65002">
        <ele>219</ele>
        <time>2018-09-30T10:48:06.000Z</time>
      </trkpt>
      <trkpt lat="43.19776" lon="-0.65001">
        <ele>219</ele>
        <time>2018-09-30T10:48:07.000Z</time>
      </trkpt>
      <trkpt lat="43.19771" lon="-0.65">
        <ele>219</ele>
        <time>2018-09-30T10:48:08.000Z</time>
      </trkpt>
      <trkpt lat="43.19765" lon="-0.65">
        <ele>219</ele>
        <time>2018-09-30T10:48:09.000Z</time>
      </trkpt>
      <trkpt lat="43.1976" lon="-0.64999">
        <ele>219</ele>
        <time>2018-09-30T10:48:10.000Z</time>
      </trkpt>
      <trkpt lat="43.19754" lon="-0.64998">
        <ele>219</ele>
        <time>2018-09-30T10:48:11.000Z</time>
      </trkpt>
      <trkpt lat="43.19749" lon="-0.64997">
        <ele>219</ele>
        <time>2018-09-30T10:48:12.000Z</time>
      </trkpt>
      <trkpt lat="43.19743" lon="-0.64996">
        <ele>219</ele>
        <time>2018-09-30T10:48:13.000Z</time>
      </trkpt>
      <trkpt lat="43.19738" lon="-0.64994">
        <ele>219</ele>
        <time>2018-09-30T10:48:14.000Z</time>
      </trkpt>
      <trkpt lat="43.19732" lon="-0.64993">
        <ele>219</ele>
        <time>2018-09-30T10:48:15.000Z</time>
      </trkpt>
      <trkpt lat="43.19727" lon="-0.64992">
        <ele>219</ele>
        <time>2018-09-30T10:48:16.000Z</time>
      </trkpt>
      <trkpt lat="43.19721" lon="-0.64991">
        <ele>219</ele>
        <time>2018-09-30T10:48:17.000Z</time>
      </trkpt>
      <trkpt lat="43.19716" lon="-0.6499">
        <ele>219</ele>
        <time>2018-09-30T10:48:18.000Z</time>
      </trkpt>
      <trkpt lat="43.1971" lon="-0.64989">
        <ele>219</ele>
        <time>2018-09-30T10:48:19.000Z</time>
      </trkpt>
      <trkpt lat="43.19704" lon="-0.64988">
        <ele>219</ele>
        <time>2018-09-30T10:48:20.000Z</time>
      </trkpt>
      <trkpt lat="43.19699" lon="-0.64987">
        <ele>219</ele>
        <time>2018-09-30T10:48:21.000Z</time>
      </trkpt>
      <trkpt lat="43.19693" lon="-0.64986">
        <ele>219</ele>
        <time>2018-09-30T10:48:22.000Z</time>
      </trkpt>
      <trkpt lat="43.19687" lon="-0.64986">
        <ele>219</ele>
        <time>2018-09-30T10:48:23.000Z</time>
      </trkpt>
      <trkpt lat="43.19682" lon="-0.64986">
        <ele>219</ele>
        <time>2018-09-30T10:48:24.000Z</time>
      </trkpt>
      <trkpt lat="43.19676" lon="-0.64985">
        <ele>219</ele>
        <time>2018-09-30T10:48:25.000Z</time>
      </trkpt>
      <trkpt lat="43.19671" lon="-0.64984">
        <ele>219</ele>
        <time>2018-09-30T10:48:26.000Z</time>
      </trkpt>
      <trkpt lat="43.19665" lon="-0.64984">
        <ele>219</ele>
        <time>2018-09-30T10:48:27.000Z</time>
      </trkpt>
      <trkpt lat="43.19659" lon="-0.64983">
        <ele>219</ele>
        <time>2018-09-30T10:48:28.000Z</time>
      </trkpt>
      <trkpt lat="43.19653" lon="-0.64982">
        <ele>219</ele>
        <time>2018-09-30T10:48:29.000Z</time>
      </trkpt>
      <trkpt lat="43.19648" lon="-0.64982">
        <ele>219</ele>
        <time>2018-09-30T10:48:30.000Z</time>
      </trkpt>
      <trkpt lat="43.19642" lon="-0.64981">
        <ele>219</ele>
        <time>2018-09-30T10:48:31.000Z</time>
      </trkpt>
      <trkpt lat="43.19636" lon="-0.6498">
        <ele>219</ele>
        <time>2018-09-30T10:48:32.000Z</time>
      </trkpt>
      <trkpt lat="43.19631" lon="-0.64979">
        <ele>219</ele>
        <time>2018-09-30T10:48:33.000Z</time>
      </trkpt>
      <trkpt lat="43.19625" lon="-0.64978">
        <ele>219</ele>
        <time>2018-09-30T10:48:34.000Z</time>
      </trkpt>
      <trkpt lat="43.1962" lon="-0.64976">
        <ele>219</ele>
        <time>2018-09-30T10:48:35.000Z</time>
      </trkpt>
      <trkpt lat="43.19615" lon="-0.64975">
        <ele>219</ele>
        <time>2018-09-30T10:48:36.000Z</time>
      </trkpt>
      <trkpt lat="43.19609" lon="-0.64974">
        <ele>219</ele>
        <time>2018-09-30T10:48:37.000Z</time>
      </trkpt>
      <trkpt lat="43.19604" lon="-0.64974">
        <ele>219</ele>
        <time>2018-09-30T10:48:38.000Z</time>
      </trkpt>
      <trkpt lat="43.196" lon="-0.64973">
        <ele>219</ele>
        <time>2018-09-30T10:48:39.000Z</time>
      </trkpt>
      <trkpt lat="43.19596" lon="-0.64972">
        <ele>219</ele>
        <time>2018-09-30T10:48:40.000Z</time>
      </trkpt>
      <trkpt lat="43.19593" lon="-0.64964">
        <ele>219</ele>
        <time>2018-09-30T10:48:42.000Z</time>
      </trkpt>
      <trkpt lat="43.19594" lon="-0.64958">
        <ele>219</ele>
        <time>2018-09-30T10:48:43.000Z</time>
      </trkpt>
      <trkpt lat="43.19595" lon="-0.64953">
        <ele>219</ele>
        <time>2018-09-30T10:48:44.000Z</time>
      </trkpt>
      <trkpt lat="43.19596" lon="-0.64947">
        <ele>219</ele>
        <time>2018-09-30T10:48:45.000Z</time>
      </trkpt>
      <trkpt lat="43.19597" lon="-0.64941">
        <ele>219.5900032</ele>
        <time>2018-09-30T10:48:46.000Z</time>
      </trkpt>
      <trkpt lat="43.19598" lon="-0.64936">
        <ele>220</ele>
        <time>2018-09-30T10:48:47.000Z</time>
      </trkpt>
      <trkpt lat="43.19599" lon="-0.64931">
        <ele>219.4099968</ele>
        <time>2018-09-30T10:48:48.000Z</time>
      </trkpt>
      <trkpt lat="43.19599" lon="-0.64925">
        <ele>219</ele>
        <time>2018-09-30T10:48:49.000Z</time>
      </trkpt>
      <trkpt lat="43.196" lon="-0.64919">
        <ele>219</ele>
        <time>2018-09-30T10:48:50.000Z</time>
      </trkpt>
      <trkpt lat="43.19601" lon="-0.64913">
        <ele>219</ele>
        <time>2018-09-30T10:48:51.000Z</time>
      </trkpt>
      <trkpt lat="43.19601" lon="-0.64907">
        <ele>219</ele>
        <time>2018-09-30T10:48:52.000Z</time>
      </trkpt>
      <trkpt lat="43.19602" lon="-0.64901">
        <ele>219</ele>
        <time>2018-09-30T10:48:53.000Z</time>
      </trkpt>
      <trkpt lat="43.19602" lon="-0.64894">
        <ele>219</ele>
        <time>2018-09-30T10:48:54.000Z</time>
      </trkpt>
      <trkpt lat="43.19602" lon="-0.64888">
        <ele>219</ele>
        <time>2018-09-30T10:48:55.000Z</time>
      </trkpt>
      <trkpt lat="43.19602" lon="-0.64882">
        <ele>219</ele>
        <time>2018-09-30T10:48:56.000Z</time>
      </trkpt>
      <trkpt lat="43.19603" lon="-0.64875">
        <ele>219.5900032</ele>
        <time>2018-09-30T10:48:57.000Z</time>
      </trkpt>
      <trkpt lat="43.19603" lon="-0.64869">
        <ele>220</ele>
        <time>2018-09-30T10:48:58.000Z</time>
      </trkpt>
      <trkpt lat="43.19603" lon="-0.64862">
        <ele>220</ele>
        <time>2018-09-30T10:48:59.000Z</time>
      </trkpt>
      <trkpt lat="43.19603" lon="-0.64855">
        <ele>220</ele>
        <time>2018-09-30T10:49:00.000Z</time>
      </trkpt>
      <trkpt lat="43.19603" lon="-0.64848">
        <ele>220</ele>
        <time>2018-09-30T10:49:01.000Z</time>
      </trkpt>
      <trkpt lat="43.19603" lon="-0.64842">
        <ele>220</ele>
        <time>2018-09-30T10:49:02.000Z</time>
      </trkpt>
      <trkpt lat="43.19603" lon="-0.64835">
        <ele>220</ele>
        <time>2018-09-30T10:49:03.000Z</time>
      </trkpt>
      <trkpt lat="43.19603" lon="-0.64828">
        <ele>220</ele>
        <time>2018-09-30T10:49:04.000Z</time>
      </trkpt>
      <trkpt lat="43.19603" lon="-0.64822">
        <ele>220</ele>
        <time>2018-09-30T10:49:05.000Z</time>
      </trkpt>
      <trkpt lat="43.19603" lon="-0.64815">
        <ele>220.5900032</ele>
        <time>2018-09-30T10:49:06.000Z</time>
      </trkpt>
      <trkpt lat="43.19602" lon="-0.64808">
        <ele>221</ele>
        <time>2018-09-30T10:49:07.000Z</time>
      </trkpt>
      <trkpt lat="43.19602" lon="-0.64801">
        <ele>221</ele>
        <time>2018-09-30T10:49:08.000Z</time>
      </trkpt>
      <trkpt lat="43.19602" lon="-0.64794">
        <ele>221</ele>
        <time>2018-09-30T10:49:09.000Z</time>
      </trkpt>
      <trkpt lat="43.19602" lon="-0.64787">
        <ele>221</ele>
        <time>2018-09-30T10:49:10.000Z</time>
      </trkpt>
      <trkpt lat="43.19602" lon="-0.6478">
        <ele>221</ele>
        <time>2018-09-30T10:49:11.000Z</time>
      </trkpt>
      <trkpt lat="43.19601" lon="-0.64773">
        <ele>221</ele>
        <time>2018-09-30T10:49:12.000Z</time>
      </trkpt>
      <trkpt lat="43.19601" lon="-0.64766">
        <ele>221</ele>
        <time>2018-09-30T10:49:13.000Z</time>
      </trkpt>
      <trkpt lat="43.19601" lon="-0.64759">
        <ele>221</ele>
        <time>2018-09-30T10:49:14.000Z</time>
      </trkpt>
      <trkpt lat="43.196" lon="-0.64752">
        <ele>221</ele>
        <time>2018-09-30T10:49:15.000Z</time>
      </trkpt>
      <trkpt lat="43.196" lon="-0.64745">
        <ele>221</ele>
        <time>2018-09-30T10:49:16.000Z</time>
      </trkpt>
      <trkpt lat="43.196" lon="-0.64738">
        <ele>221</ele>
        <time>2018-09-30T10:49:17.000Z</time>
      </trkpt>
      <trkpt lat="43.196" lon="-0.64731">
        <ele>221</ele>
        <time>2018-09-30T10:49:18.000Z</time>
      </trkpt>
      <trkpt lat="43.196" lon="-0.64724">
        <ele>221</ele>
        <time>2018-09-30T10:49:19.000Z</time>
      </trkpt>
      <trkpt lat="43.196" lon="-0.64717">
        <ele>221</ele>
        <time>2018-09-30T10:49:20.000Z</time>
      </trkpt>
      <trkpt lat="43.196" lon="-0.6471">
        <ele>221</ele>
        <time>2018-09-30T10:49:21.000Z</time>
      </trkpt>
      <trkpt lat="43.196" lon="-0.64704">
        <ele>221</ele>
        <time>2018-09-30T10:49:22.000Z</time>
      </trkpt>
      <trkpt lat="43.196" lon="-0.64697">
        <ele>221</ele>
        <time>2018-09-30T10:49:23.000Z</time>
      </trkpt>
      <trkpt lat="43.196" lon="-0.64691">
        <ele>221</ele>
        <time>2018-09-30T10:49:24.000Z</time>
      </trkpt>
      <trkpt lat="43.196" lon="-0.64684">
        <ele>221</ele>
        <time>2018-09-30T10:49:25.000Z</time>
      </trkpt>
      <trkpt lat="43.196" lon="-0.64678">
        <ele>221</ele>
        <time>2018-09-30T10:49:26.000Z</time>
      </trkpt>
      <trkpt lat="43.196" lon="-0.64671">
        <ele>221</ele>
        <time>2018-09-30T10:49:27.000Z</time>
      </trkpt>
      <trkpt lat="43.19601" lon="-0.64664">
        <ele>221</ele>
        <time>2018-09-30T10:49:28.000Z</time>
      </trkpt>
      <trkpt lat="43.19601" lon="-0.64657">
        <ele>221</ele>
        <time>2018-09-30T10:49:29.000Z</time>
      </trkpt>
      <trkpt lat="43.19602" lon="-0.6465">
        <ele>221</ele>
        <time>2018-09-30T10:49:30.000Z</time>
      </trkpt>
      <trkpt lat="43.19602" lon="-0.64643">
        <ele>221.5900032</ele>
        <time>2018-09-30T10:49:31.000Z</time>
      </trkpt>
      <trkpt lat="43.19603" lon="-0.64636">
        <ele>222</ele>
        <time>2018-09-30T10:49:32.000Z</time>
      </trkpt>
      <trkpt lat="43.19604" lon="-0.64629">
        <ele>222</ele>
        <time>2018-09-30T10:49:33.000Z</time>
      </trkpt>
      <trkpt lat="43.19604" lon="-0.64621">
        <ele>222</ele>
        <time>2018-09-30T10:49:34.000Z</time>
      </trkpt>
      <trkpt lat="43.19605" lon="-0.64614">
        <ele>222</ele>
        <time>2018-09-30T10:49:35.000Z</time>
      </trkpt>
      <trkpt lat="43.19606" lon="-0.64607">
        <ele>222</ele>
        <time>2018-09-30T10:49:36.000Z</time>
      </trkpt>
      <trkpt lat="43.19607" lon="-0.646">
        <ele>222</ele>
        <time>2018-09-30T10:49:37.000Z</time>
      </trkpt>
      <trkpt lat="43.19608" lon="-0.64593">
        <ele>222</ele>
        <time>2018-09-30T10:49:38.000Z</time>
      </trkpt>
      <trkpt lat="43.19609" lon="-0.64586">
        <ele>222</ele>
        <time>2018-09-30T10:49:39.000Z</time>
      </trkpt>
      <trkpt lat="43.1961" lon="-0.64579">
        <ele>222</ele>
        <time>2018-09-30T10:49:40.000Z</time>
      </trkpt>
      <trkpt lat="43.19611" lon="-0.64572">
        <ele>222</ele>
        <time>2018-09-30T10:49:41.000Z</time>
      </trkpt>
      <trkpt lat="43.19612" lon="-0.64565">
        <ele>222</ele>
        <time>2018-09-30T10:49:42.000Z</time>
      </trkpt>
      <trkpt lat="43.19613" lon="-0.64558">
        <ele>222</ele>
        <time>2018-09-30T10:49:43.000Z</time>
      </trkpt>
      <trkpt lat="43.19614" lon="-0.64551">
        <ele>222</ele>
        <time>2018-09-30T10:49:44.000Z</time>
      </trkpt>
      <trkpt lat="43.19615" lon="-0.64543">
        <ele>222</ele>
        <time>2018-09-30T10:49:45.000Z</time>
      </trkpt>
      <trkpt lat="43.19616" lon="-0.64536">
        <ele>222</ele>
        <time>2018-09-30T10:49:46.000Z</time>
      </trkpt>
      <trkpt lat="43.19617" lon="-0.64529">
        <ele>222</ele>
        <time>2018-09-30T10:49:47.000Z</time>
      </trkpt>
      <trkpt lat="43.19618" lon="-0.64521">
        <ele>222</ele>
        <time>2018-09-30T10:49:48.000Z</time>
      </trkpt>
      <trkpt lat="43.19619" lon="-0.64514">
        <ele>222</ele>
        <time>2018-09-30T10:49:49.000Z</time>
      </trkpt>
      <trkpt lat="43.1962" lon="-0.64507">
        <ele>222</ele>
        <time>2018-09-30T10:49:50.000Z</time>
      </trkpt>
      <trkpt lat="43.19622" lon="-0.64499">
        <ele>222</ele>
        <time>2018-09-30T10:49:51.000Z</time>
      </trkpt>
      <trkpt lat="43.19623" lon="-0.64492">
        <ele>222</ele>
        <time>2018-09-30T10:49:52.000Z</time>
      </trkpt>
      <trkpt lat="43.19625" lon="-0.64485">
        <ele>222</ele>
        <time>2018-09-30T10:49:53.000Z</time>
      </trkpt>
      <trkpt lat="43.19627" lon="-0.64478">
        <ele>222</ele>
        <time>2018-09-30T10:49:54.000Z</time>
      </trkpt>
      <trkpt lat="43.19629" lon="-0.64471">
        <ele>222</ele>
        <time>2018-09-30T10:49:55.000Z</time>
      </trkpt>
      <trkpt lat="43.19631" lon="-0.64464">
        <ele>221.4099968</ele>
        <time>2018-09-30T10:49:56.000Z</time>
      </trkpt>
      <trkpt lat="43.19633" lon="-0.64457">
        <ele>221</ele>
        <time>2018-09-30T10:49:57.000Z</time>
      </trkpt>
      <trkpt lat="43.19636" lon="-0.6445">
        <ele>221.5900032</ele>
        <time>2018-09-30T10:49:58.000Z</time>
      </trkpt>
      <trkpt lat="43.19638" lon="-0.64443">
        <ele>222</ele>
        <time>2018-09-30T10:49:59.000Z</time>
      </trkpt>
      <trkpt lat="43.19639" lon="-0.64437">
        <ele>222</ele>
        <time>2018-09-30T10:50:00.000Z</time>
      </trkpt>
      <trkpt lat="43.19641" lon="-0.6443">
        <ele>222</ele>
        <time>2018-09-30T10:50:01.000Z</time>
      </trkpt>
      <trkpt lat="43.19643" lon="-0.64423">
        <ele>222</ele>
        <time>2018-09-30T10:50:02.000Z</time>
      </trkpt>
      <trkpt lat="43.19645" lon="-0.64417">
        <ele>222</ele>
        <time>2018-09-30T10:50:03.000Z</time>
      </trkpt>
      <trkpt lat="43.19648" lon="-0.6441">
        <ele>222</ele>
        <time>2018-09-30T10:50:04.000Z</time>
      </trkpt>
      <trkpt lat="43.1965" lon="-0.64404">
        <ele>222</ele>
        <time>2018-09-30T10:50:05.000Z</time>
      </trkpt>
      <trkpt lat="43.19652" lon="-0.64398">
        <ele>222</ele>
        <time>2018-09-30T10:50:06.000Z</time>
      </trkpt>
      <trkpt lat="43.19654" lon="-0.64391">
        <ele>222</ele>
        <time>2018-09-30T10:50:07.000Z</time>
      </trkpt>
      <trkpt lat="43.19656" lon="-0.64385">
        <ele>222</ele>
        <time>2018-09-30T10:50:08.000Z</time>
      </trkpt>
      <trkpt lat="43.19658" lon="-0.64378">
        <ele>222</ele>
        <time>2018-09-30T10:50:09.000Z</time>
      </trkpt>
      <trkpt lat="43.19661" lon="-0.64371">
        <ele>221.4099968</ele>
        <time>2018-09-30T10:50:10.000Z</time>
      </trkpt>
      <trkpt lat="43.19663" lon="-0.64364">
        <ele>221</ele>
        <time>2018-09-30T10:50:11.000Z</time>
      </trkpt>
      <trkpt lat="43.19664" lon="-0.64357">
        <ele>221</ele>
        <time>2018-09-30T10:50:12.000Z</time>
      </trkpt>
      <trkpt lat="43.19665" lon="-0.64349">
        <ele>221</ele>
        <time>2018-09-30T10:50:13.000Z</time>
      </trkpt>
      <trkpt lat="43.19666" lon="-0.64342">
        <ele>221</ele>
        <time>2018-09-30T10:50:14.000Z</time>
      </trkpt>
      <trkpt lat="43.19666" lon="-0.64334">
        <ele>221</ele>
        <time>2018-09-30T10:50:15.000Z</time>
      </trkpt>
      <trkpt lat="43.19667" lon="-0.64326">
        <ele>221</ele>
        <time>2018-09-30T10:50:16.000Z</time>
      </trkpt>
      <trkpt lat="43.19669" lon="-0.64319">
        <ele>221</ele>
        <time>2018-09-30T10:50:17.000Z</time>
      </trkpt>
      <trkpt lat="43.19671" lon="-0.64312">
        <ele>221</ele>
        <time>2018-09-30T10:50:18.000Z</time>
      </trkpt>
      <trkpt lat="43.19674" lon="-0.64305">
        <ele>221</ele>
        <time>2018-09-30T10:50:19.000Z</time>
      </trkpt>
      <trkpt lat="43.19677" lon="-0.64298">
        <ele>221</ele>
        <time>2018-09-30T10:50:20.000Z</time>
      </trkpt>
      <trkpt lat="43.1968" lon="-0.64291">
        <ele>221</ele>
        <time>2018-09-30T10:50:21.000Z</time>
      </trkpt>
      <trkpt lat="43.19683" lon="-0.64284">
        <ele>221</ele>
        <time>2018-09-30T10:50:22.000Z</time>
      </trkpt>
      <trkpt lat="43.19686" lon="-0.64277">
        <ele>221</ele>
        <time>2018-09-30T10:50:23.000Z</time>
      </trkpt>
      <trkpt lat="43.19688" lon="-0.6427">
        <ele>221</ele>
        <time>2018-09-30T10:50:24.000Z</time>
      </trkpt>
      <trkpt lat="43.1969" lon="-0.64263">
        <ele>221</ele>
        <time>2018-09-30T10:50:25.000Z</time>
      </trkpt>
      <trkpt lat="43.19692" lon="-0.64256">
        <ele>221</ele>
        <time>2018-09-30T10:50:26.000Z</time>
      </trkpt>
      <trkpt lat="43.19694" lon="-0.64248">
        <ele>221</ele>
        <time>2018-09-30T10:50:27.000Z</time>
      </trkpt>
      <trkpt lat="43.19695" lon="-0.64241">
        <ele>221</ele>
        <time>2018-09-30T10:50:28.000Z</time>
      </trkpt>
      <trkpt lat="43.19696" lon="-0.64233">
        <ele>221</ele>
        <time>2018-09-30T10:50:29.000Z</time>
      </trkpt>
      <trkpt lat="43.19698" lon="-0.64226">
        <ele>221.43056</ele>
        <time>2018-09-30T10:50:30.000Z</time>
      </trkpt>
      <trkpt lat="43.19699" lon="-0.64219">
        <ele>222</ele>
        <time>2018-09-30T10:50:31.000Z</time>
      </trkpt>
      <trkpt lat="43.19701" lon="-0.64212">
        <ele>222</ele>
        <time>2018-09-30T10:50:32.000Z</time>
      </trkpt>
      <trkpt lat="43.19703" lon="-0.64204">
        <ele>222</ele>
        <time>2018-09-30T10:50:33.000Z</time>
      </trkpt>
      <trkpt lat="43.19705" lon="-0.64197">
        <ele>222</ele>
        <time>2018-09-30T10:50:34.000Z</time>
      </trkpt>
      <trkpt lat="43.19708" lon="-0.64191">
        <ele>222</ele>
        <time>2018-09-30T10:50:35.000Z</time>
      </trkpt>
      <trkpt lat="43.1971" lon="-0.64184">
        <ele>222</ele>
        <time>2018-09-30T10:50:36.000Z</time>
      </trkpt>
      <trkpt lat="43.19713" lon="-0.64177">
        <ele>222</ele>
        <time>2018-09-30T10:50:37.000Z</time>
      </trkpt>
      <trkpt lat="43.19715" lon="-0.6417">
        <ele>222</ele>
        <time>2018-09-30T10:50:38.000Z</time>
      </trkpt>
      <trkpt lat="43.19718" lon="-0.64164">
        <ele>222</ele>
        <time>2018-09-30T10:50:39.000Z</time>
      </trkpt>
      <trkpt lat="43.19721" lon="-0.64157">
        <ele>222</ele>
        <time>2018-09-30T10:50:40.000Z</time>
      </trkpt>
      <trkpt lat="43.19724" lon="-0.64151">
        <ele>222</ele>
        <time>2018-09-30T10:50:41.000Z</time>
      </trkpt>
      <trkpt lat="43.19727" lon="-0.64145">
        <ele>222</ele>
        <time>2018-09-30T10:50:42.000Z</time>
      </trkpt>
      <trkpt lat="43.19731" lon="-0.64139">
        <ele>222</ele>
        <time>2018-09-30T10:50:43.000Z</time>
      </trkpt>
      <trkpt lat="43.19734" lon="-0.64133">
        <ele>222</ele>
        <time>2018-09-30T10:50:44.000Z</time>
      </trkpt>
      <trkpt lat="43.19738" lon="-0.64128">
        <ele>222</ele>
        <time>2018-09-30T10:50:45.000Z</time>
      </trkpt>
      <trkpt lat="43.19743" lon="-0.64123">
        <ele>222</ele>
        <time>2018-09-30T10:50:46.000Z</time>
      </trkpt>
      <trkpt lat="43.19747" lon="-0.64119">
        <ele>222</ele>
        <time>2018-09-30T10:50:47.000Z</time>
      </trkpt>
      <trkpt lat="43.19752" lon="-0.64115">
        <ele>222</ele>
        <time>2018-09-30T10:50:48.000Z</time>
      </trkpt>
      <trkpt lat="43.19757" lon="-0.64111">
        <ele>222</ele>
        <time>2018-09-30T10:50:49.000Z</time>
      </trkpt>
      <trkpt lat="43.19761" lon="-0.64107">
        <ele>222</ele>
        <time>2018-09-30T10:50:50.000Z</time>
      </trkpt>
      <trkpt lat="43.19766" lon="-0.64103">
        <ele>222</ele>
        <time>2018-09-30T10:50:51.000Z</time>
      </trkpt>
      <trkpt lat="43.1977" lon="-0.64098">
        <ele>222</ele>
        <time>2018-09-30T10:50:52.000Z</time>
      </trkpt>
      <trkpt lat="43.19774" lon="-0.64093">
        <ele>222</ele>
        <time>2018-09-30T10:50:53.000Z</time>
      </trkpt>
      <trkpt lat="43.19778" lon="-0.64087">
        <ele>222</ele>
        <time>2018-09-30T10:50:54.000Z</time>
      </trkpt>
      <trkpt lat="43.19781" lon="-0.64082">
        <ele>222</ele>
        <time>2018-09-30T10:50:55.000Z</time>
      </trkpt>
      <trkpt lat="43.19784" lon="-0.64076">
        <ele>222</ele>
        <time>2018-09-30T10:50:56.000Z</time>
      </trkpt>
      <trkpt lat="43.19787" lon="-0.6407">
        <ele>222</ele>
        <time>2018-09-30T10:50:57.000Z</time>
      </trkpt>
      <trkpt lat="43.19789" lon="-0.64064">
        <ele>222</ele>
        <time>2018-09-30T10:50:58.000Z</time>
      </trkpt>
      <trkpt lat="43.19791" lon="-0.64057">
        <ele>222</ele>
        <time>2018-09-30T10:50:59.000Z</time>
      </trkpt>
      <trkpt lat="43.19792" lon="-0.6405">
        <ele>222</ele>
        <time>2018-09-30T10:51:00.000Z</time>
      </trkpt>
      <trkpt lat="43.19793" lon="-0.64043">
        <ele>222</ele>
        <time>2018-09-30T10:51:01.000Z</time>
      </trkpt>
      <trkpt lat="43.19792" lon="-0.64037">
        <ele>222</ele>
        <time>2018-09-30T10:51:02.000Z</time>
      </trkpt>
      <trkpt lat="43.1979" lon="-0.6403">
        <ele>222</ele>
        <time>2018-09-30T10:51:03.000Z</time>
      </trkpt>
      <trkpt lat="43.19788" lon="-0.64023">
        <ele>222</ele>
        <time>2018-09-30T10:51:04.000Z</time>
      </trkpt>
      <trkpt lat="43.19785" lon="-0.64017">
        <ele>222</ele>
        <time>2018-09-30T10:51:05.000Z</time>
      </trkpt>
      <trkpt lat="43.19781" lon="-0.64012">
        <ele>222</ele>
        <time>2018-09-30T10:51:06.000Z</time>
      </trkpt>
      <trkpt lat="43.19778" lon="-0.64006">
        <ele>222.5900032</ele>
        <time>2018-09-30T10:51:07.000Z</time>
      </trkpt>
      <trkpt lat="43.19774" lon="-0.64">
        <ele>223</ele>
        <time>2018-09-30T10:51:08.000Z</time>
      </trkpt>
      <trkpt lat="43.19771" lon="-0.63994">
        <ele>223</ele>
        <time>2018-09-30T10:51:09.000Z</time>
      </trkpt>
      <trkpt lat="43.19767" lon="-0.63988">
        <ele>223</ele>
        <time>2018-09-30T10:51:10.000Z</time>
      </trkpt>
      <trkpt lat="43.19763" lon="-0.63983">
        <ele>223</ele>
        <time>2018-09-30T10:51:11.000Z</time>
      </trkpt>
      <trkpt lat="43.1976" lon="-0.63977">
        <ele>223</ele>
        <time>2018-09-30T10:51:12.000Z</time>
      </trkpt>
      <trkpt lat="43.19757" lon="-0.63971">
        <ele>223</ele>
        <time>2018-09-30T10:51:13.000Z</time>
      </trkpt>
      <trkpt lat="43.19753" lon="-0.63965">
        <ele>223</ele>
        <time>2018-09-30T10:51:14.000Z</time>
      </trkpt>
      <trkpt lat="43.1975" lon="-0.63958">
        <ele>223</ele>
        <time>2018-09-30T10:51:15.000Z</time>
      </trkpt>
      <trkpt lat="43.19747" lon="-0.63952">
        <ele>223</ele>
        <time>2018-09-30T10:51:16.000Z</time>
      </trkpt>
      <trkpt lat="43.19744" lon="-0.63946">
        <ele>223</ele>
        <time>2018-09-30T10:51:17.000Z</time>
      </trkpt>
      <trkpt lat="43.19741" lon="-0.6394">
        <ele>223</ele>
        <time>2018-09-30T10:51:18.000Z</time>
      </trkpt>
      <trkpt lat="43.19738" lon="-0.63934">
        <ele>223</ele>
        <time>2018-09-30T10:51:19.000Z</time>
      </trkpt>
      <trkpt lat="43.19734" lon="-0.63928">
        <ele>223</ele>
        <time>2018-09-30T10:51:20.000Z</time>
      </trkpt>
      <trkpt lat="43.19731" lon="-0.63922">
        <ele>223</ele>
        <time>2018-09-30T10:51:21.000Z</time>
      </trkpt>
      <trkpt lat="43.19726" lon="-0.63917">
        <ele>223</ele>
        <time>2018-09-30T10:51:22.000Z</time>
      </trkpt>
      <trkpt lat="43.19722" lon="-0.63911">
        <ele>223</ele>
        <time>2018-09-30T10:51:23.000Z</time>
      </trkpt>
      <trkpt lat="43.19718" lon="-0.63906">
        <ele>223</ele>
        <time>2018-09-30T10:51:24.000Z</time>
      </trkpt>
      <trkpt lat="43.19713" lon="-0.63901">
        <ele>223</ele>
        <time>2018-09-30T10:51:25.000Z</time>
      </trkpt>
      <trkpt lat="43.19709" lon="-0.63896">
        <ele>223</ele>
        <time>2018-09-30T10:51:26.000Z</time>
      </trkpt>
      <trkpt lat="43.19705" lon="-0.63891">
        <ele>223</ele>
        <time>2018-09-30T10:51:27.000Z</time>
      </trkpt>
      <trkpt lat="43.19701" lon="-0.63886">
        <ele>223</ele>
        <time>2018-09-30T10:51:28.000Z</time>
      </trkpt>
      <trkpt lat="43.19697" lon="-0.63881">
        <ele>223</ele>
        <time>2018-09-30T10:51:29.000Z</time>
      </trkpt>
      <trkpt lat="43.19692" lon="-0.63875">
        <ele>223</ele>
        <time>2018-09-30T10:51:30.000Z</time>
      </trkpt>
      <trkpt lat="43.19688" lon="-0.6387">
        <ele>223</ele>
        <time>2018-09-30T10:51:31.000Z</time>
      </trkpt>
      <trkpt lat="43.19684" lon="-0.63865">
        <ele>223</ele>
        <time>2018-09-30T10:51:32.000Z</time>
      </trkpt>
      <trkpt lat="43.1968" lon="-0.6386">
        <ele>223</ele>
        <time>2018-09-30T10:51:33.000Z</time>
      </trkpt>
      <trkpt lat="43.19676" lon="-0.63855">
        <ele>223</ele>
        <time>2018-09-30T10:51:34.000Z</time>
      </trkpt>
      <trkpt lat="43.19672" lon="-0.63849">
        <ele>223</ele>
        <time>2018-09-30T10:51:35.000Z</time>
      </trkpt>
      <trkpt lat="43.19667" lon="-0.63844">
        <ele>223</ele>
        <time>2018-09-30T10:51:36.000Z</time>
      </trkpt>
      <trkpt lat="43.19663" lon="-0.63839">
        <ele>223</ele>
        <time>2018-09-30T10:51:37.000Z</time>
      </trkpt>
      <trkpt lat="43.19658" lon="-0.63834">
        <ele>223</ele>
        <time>2018-09-30T10:51:38.000Z</time>
      </trkpt>
      <trkpt lat="43.19654" lon="-0.6383">
        <ele>223</ele>
        <time>2018-09-30T10:51:39.000Z</time>
      </trkpt>
      <trkpt lat="43.19649" lon="-0.63825">
        <ele>223</ele>
        <time>2018-09-30T10:51:40.000Z</time>
      </trkpt>
      <trkpt lat="43.19645" lon="-0.63821">
        <ele>223</ele>
        <time>2018-09-30T10:51:41.000Z</time>
      </trkpt>
      <trkpt lat="43.1964" lon="-0.63817">
        <ele>223</ele>
        <time>2018-09-30T10:51:42.000Z</time>
      </trkpt>
      <trkpt lat="43.19636" lon="-0.63812">
        <ele>223</ele>
        <time>2018-09-30T10:51:43.000Z</time>
      </trkpt>
      <trkpt lat="43.19632" lon="-0.63808">
        <ele>223</ele>
        <time>2018-09-30T10:51:44.000Z</time>
      </trkpt>
      <trkpt lat="43.19627" lon="-0.63804">
        <ele>223</ele>
        <time>2018-09-30T10:51:45.000Z</time>
      </trkpt>
      <trkpt lat="43.19623" lon="-0.638">
        <ele>223</ele>
        <time>2018-09-30T10:51:46.000Z</time>
      </trkpt>
      <trkpt lat="43.19619" lon="-0.63795">
        <ele>223</ele>
        <time>2018-09-30T10:51:47.000Z</time>
      </trkpt>
      <trkpt lat="43.19615" lon="-0.63791">
        <ele>223</ele>
        <time>2018-09-30T10:51:48.000Z</time>
      </trkpt>
      <trkpt lat="43.19611" lon="-0.63786">
        <ele>223</ele>
        <time>2018-09-30T10:51:49.000Z</time>
      </trkpt>
      <trkpt lat="43.19607" lon="-0.63782">
        <ele>223</ele>
        <time>2018-09-30T10:51:50.000Z</time>
      </trkpt>
      <trkpt lat="43.19604" lon="-0.63778">
        <ele>223</ele>
        <time>2018-09-30T10:51:51.000Z</time>
      </trkpt>
      <trkpt lat="43.19602" lon="-0.63774">
        <ele>223</ele>
        <time>2018-09-30T10:51:52.000Z</time>
      </trkpt>
      <trkpt lat="43.19599" lon="-0.63769">
        <ele>223</ele>
        <time>2018-09-30T10:51:53.000Z</time>
      </trkpt>
      <trkpt lat="43.19596" lon="-0.63764">
        <ele>223</ele>
        <time>2018-09-30T10:51:54.000Z</time>
      </trkpt>
      <trkpt lat="43.19592" lon="-0.63759">
        <ele>223</ele>
        <time>2018-09-30T10:51:55.000Z</time>
      </trkpt>
      <trkpt lat="43.19588" lon="-0.63754">
        <ele>223</ele>
        <time>2018-09-30T10:51:56.000Z</time>
      </trkpt>
      <trkpt lat="43.19584" lon="-0.63748">
        <ele>223</ele>
        <time>2018-09-30T10:51:57.000Z</time>
      </trkpt>
      <trkpt lat="43.1958" lon="-0.63743">
        <ele>223</ele>
        <time>2018-09-30T10:51:58.000Z</time>
      </trkpt>
      <trkpt lat="43.19576" lon="-0.63738">
        <ele>223.5900032</ele>
        <time>2018-09-30T10:51:59.000Z</time>
      </trkpt>
      <trkpt lat="43.19572" lon="-0.63733">
        <ele>224</ele>
        <time>2018-09-30T10:52:00.000Z</time>
      </trkpt>
      <trkpt lat="43.19569" lon="-0.63728">
        <ele>224</ele>
        <time>2018-09-30T10:52:01.000Z</time>
      </trkpt>
      <trkpt lat="43.19565" lon="-0.63723">
        <ele>224</ele>
        <time>2018-09-30T10:52:02.000Z</time>
      </trkpt>
      <trkpt lat="43.19561" lon="-0.63718">
        <ele>224</ele>
        <time>2018-09-30T10:52:03.000Z</time>
      </trkpt>
      <trkpt lat="43.19557" lon="-0.63713">
        <ele>224</ele>
        <time>2018-09-30T10:52:04.000Z</time>
      </trkpt>
      <trkpt lat="43.19553" lon="-0.63708">
        <ele>224</ele>
        <time>2018-09-30T10:52:05.000Z</time>
      </trkpt>
      <trkpt lat="43.19549" lon="-0.63703">
        <ele>224</ele>
        <time>2018-09-30T10:52:06.000Z</time>
      </trkpt>
      <trkpt lat="43.19545" lon="-0.63698">
        <ele>224</ele>
        <time>2018-09-30T10:52:07.000Z</time>
      </trkpt>
      <trkpt lat="43.19541" lon="-0.63693">
        <ele>224</ele>
        <time>2018-09-30T10:52:08.000Z</time>
      </trkpt>
      <trkpt lat="43.19537" lon="-0.63688">
        <ele>224</ele>
        <time>2018-09-30T10:52:09.000Z</time>
      </trkpt>
      <trkpt lat="43.19533" lon="-0.63683">
        <ele>224</ele>
        <time>2018-09-30T10:52:10.000Z</time>
      </trkpt>
      <trkpt lat="43.19529" lon="-0.63677">
        <ele>224</ele>
        <time>2018-09-30T10:52:11.000Z</time>
      </trkpt>
      <trkpt lat="43.19525" lon="-0.63672">
        <ele>224</ele>
        <time>2018-09-30T10:52:12.000Z</time>
      </trkpt>
      <trkpt lat="43.19521" lon="-0.63667">
        <ele>224</ele>
        <time>2018-09-30T10:52:13.000Z</time>
      </trkpt>
      <trkpt lat="43.19517" lon="-0.63661">
        <ele>224</ele>
        <time>2018-09-30T10:52:14.000Z</time>
      </trkpt>
      <trkpt lat="43.19513" lon="-0.63656">
        <ele>224</ele>
        <time>2018-09-30T10:52:15.000Z</time>
      </trkpt>
      <trkpt lat="43.19509" lon="-0.63651">
        <ele>224</ele>
        <time>2018-09-30T10:52:16.000Z</time>
      </trkpt>
      <trkpt lat="43.19505" lon="-0.63646">
        <ele>224</ele>
        <time>2018-09-30T10:52:17.000Z</time>
      </trkpt>
      <trkpt lat="43.195" lon="-0.63641">
        <ele>224</ele>
        <time>2018-09-30T10:52:18.000Z</time>
      </trkpt>
      <trkpt lat="43.19496" lon="-0.63637">
        <ele>224</ele>
        <time>2018-09-30T10:52:19.000Z</time>
      </trkpt>
      <trkpt lat="43.19491" lon="-0.63633">
        <ele>224</ele>
        <time>2018-09-30T10:52:20.000Z</time>
      </trkpt>
      <trkpt lat="43.19486" lon="-0.6363">
        <ele>224.43056</ele>
        <time>2018-09-30T10:52:21.000Z</time>
      </trkpt>
      <trkpt lat="43.19482" lon="-0.63626">
        <ele>225</ele>
        <time>2018-09-30T10:52:22.000Z</time>
      </trkpt>
      <trkpt lat="43.19477" lon="-0.63622">
        <ele>225</ele>
        <time>2018-09-30T10:52:23.000Z</time>
      </trkpt>
      <trkpt lat="43.19473" lon="-0.63618">
        <ele>225</ele>
        <time>2018-09-30T10:52:24.000Z</time>
      </trkpt>
      <trkpt lat="43.19468" lon="-0.63614">
        <ele>225</ele>
        <time>2018-09-30T10:52:25.000Z</time>
      </trkpt>
      <trkpt lat="43.19464" lon="-0.63608">
        <ele>225</ele>
        <time>2018-09-30T10:52:26.000Z</time>
      </trkpt>
      <trkpt lat="43.1946" lon="-0.63603">
        <ele>225</ele>
        <time>2018-09-30T10:52:27.000Z</time>
      </trkpt>
      <trkpt lat="43.19456" lon="-0.63597">
        <ele>225</ele>
        <time>2018-09-30T10:52:28.000Z</time>
      </trkpt>
      <trkpt lat="43.19453" lon="-0.63591">
        <ele>225</ele>
        <time>2018-09-30T10:52:29.000Z</time>
      </trkpt>
      <trkpt lat="43.19449" lon="-0.63585">
        <ele>225</ele>
        <time>2018-09-30T10:52:30.000Z</time>
      </trkpt>
      <trkpt lat="43.19445" lon="-0.63579">
        <ele>225</ele>
        <time>2018-09-30T10:52:31.000Z</time>
      </trkpt>
      <trkpt lat="43.19441" lon="-0.63573">
        <ele>225.5900032</ele>
        <time>2018-09-30T10:52:32.000Z</time>
      </trkpt>
      <trkpt lat="43.19438" lon="-0.63567">
        <ele>226</ele>
        <time>2018-09-30T10:52:33.000Z</time>
      </trkpt>
      <trkpt lat="43.19434" lon="-0.63561">
        <ele>226</ele>
        <time>2018-09-30T10:52:34.000Z</time>
      </trkpt>
      <trkpt lat="43.1943" lon="-0.63555">
        <ele>226</ele>
        <time>2018-09-30T10:52:35.000Z</time>
      </trkpt>
      <trkpt lat="43.19427" lon="-0.63549">
        <ele>226</ele>
        <time>2018-09-30T10:52:36.000Z</time>
      </trkpt>
      <trkpt lat="43.19423" lon="-0.63543">
        <ele>226</ele>
        <time>2018-09-30T10:52:37.000Z</time>
      </trkpt>
      <trkpt lat="43.19419" lon="-0.63537">
        <ele>226</ele>
        <time>2018-09-30T10:52:38.000Z</time>
      </trkpt>
      <trkpt lat="43.19416" lon="-0.63531">
        <ele>226</ele>
        <time>2018-09-30T10:52:39.000Z</time>
      </trkpt>
      <trkpt lat="43.19412" lon="-0.63526">
        <ele>225.56944</ele>
        <time>2018-09-30T10:52:40.000Z</time>
      </trkpt>
      <trkpt lat="43.19408" lon="-0.63521">
        <ele>225</ele>
        <time>2018-09-30T10:52:41.000Z</time>
      </trkpt>
      <trkpt lat="43.19404" lon="-0.63516">
        <ele>225</ele>
        <time>2018-09-30T10:52:42.000Z</time>
      </trkpt>
      <trkpt lat="43.194" lon="-0.6351">
        <ele>225</ele>
        <time>2018-09-30T10:52:43.000Z</time>
      </trkpt>
      <trkpt lat="43.19396" lon="-0.63505">
        <ele>225</ele>
        <time>2018-09-30T10:52:44.000Z</time>
      </trkpt>
      <trkpt lat="43.19392" lon="-0.63499">
        <ele>225</ele>
        <time>2018-09-30T10:52:45.000Z</time>
      </trkpt>
      <trkpt lat="43.19388" lon="-0.63494">
        <ele>225</ele>
        <time>2018-09-30T10:52:46.000Z</time>
      </trkpt>
      <trkpt lat="43.19384" lon="-0.63489">
        <ele>225</ele>
        <time>2018-09-30T10:52:47.000Z</time>
      </trkpt>
      <trkpt lat="43.1938" lon="-0.63483">
        <ele>225.57843088043</ele>
        <time>2018-09-30T10:52:48.000Z</time>
      </trkpt>
      <trkpt lat="43.19375" lon="-0.63478">
        <ele>226</ele>
        <time>2018-09-30T10:52:49.000Z</time>
      </trkpt>
      <trkpt lat="43.19371" lon="-0.63473">
        <ele>226</ele>
        <time>2018-09-30T10:52:50.000Z</time>
      </trkpt>
      <trkpt lat="43.19367" lon="-0.63467">
        <ele>226</ele>
        <time>2018-09-30T10:52:51.000Z</time>
      </trkpt>
      <trkpt lat="43.19363" lon="-0.63462">
        <ele>226</ele>
        <time>2018-09-30T10:52:52.000Z</time>
      </trkpt>
      <trkpt lat="43.19358" lon="-0.63457">
        <ele>226</ele>
        <time>2018-09-30T10:52:53.000Z</time>
      </trkpt>
      <trkpt lat="43.19354" lon="-0.63451">
        <ele>226</ele>
        <time>2018-09-30T10:52:54.000Z</time>
      </trkpt>
      <trkpt lat="43.1935" lon="-0.63446">
        <ele>226</ele>
        <time>2018-09-30T10:52:55.000Z</time>
      </trkpt>
      <trkpt lat="43.19345" lon="-0.6344">
        <ele>226</ele>
        <time>2018-09-30T10:52:56.000Z</time>
      </trkpt>
      <trkpt lat="43.19341" lon="-0.63435">
        <ele>226</ele>
        <time>2018-09-30T10:52:57.000Z</time>
      </trkpt>
      <trkpt lat="43.19337" lon="-0.6343">
        <ele>226</ele>
        <time>2018-09-30T10:52:58.000Z</time>
      </trkpt>
      <trkpt lat="43.19332" lon="-0.63424">
        <ele>226.43056</ele>
        <time>2018-09-30T10:52:59.000Z</time>
      </trkpt>
      <trkpt lat="43.19328" lon="-0.63419">
        <ele>227</ele>
        <time>2018-09-30T10:53:00.000Z</time>
      </trkpt>
      <trkpt lat="43.19324" lon="-0.63414">
        <ele>227</ele>
        <time>2018-09-30T10:53:01.000Z</time>
      </trkpt>
      <trkpt lat="43.19319" lon="-0.63408">
        <ele>227</ele>
        <time>2018-09-30T10:53:02.000Z</time>
      </trkpt>
      <trkpt lat="43.19315" lon="-0.63403">
        <ele>227</ele>
        <time>2018-09-30T10:53:03.000Z</time>
      </trkpt>
      <trkpt lat="43.19311" lon="-0.63397">
        <ele>227</ele>
        <time>2018-09-30T10:53:04.000Z</time>
      </trkpt>
      <trkpt lat="43.19307" lon="-0.63391">
        <ele>227</ele>
        <time>2018-09-30T10:53:05.000Z</time>
      </trkpt>
      <trkpt lat="43.19302" lon="-0.63386">
        <ele>227</ele>
        <time>2018-09-30T10:53:06.000Z</time>
      </trkpt>
      <trkpt lat="43.19298" lon="-0.6338">
        <ele>227</ele>
        <time>2018-09-30T10:53:07.000Z</time>
      </trkpt>
      <trkpt lat="43.19294" lon="-0.63374">
        <ele>227</ele>
        <time>2018-09-30T10:53:08.000Z</time>
      </trkpt>
      <trkpt lat="43.1929" lon="-0.63368">
        <ele>227</ele>
        <time>2018-09-30T10:53:09.000Z</time>
      </trkpt>
      <trkpt lat="43.19286" lon="-0.63362">
        <ele>226.4099968</ele>
        <time>2018-09-30T10:53:10.000Z</time>
      </trkpt>
      <trkpt lat="43.19282" lon="-0.63355">
        <ele>226</ele>
        <time>2018-09-30T10:53:11.000Z</time>
      </trkpt>
      <trkpt lat="43.19278" lon="-0.63349">
        <ele>226</ele>
        <time>2018-09-30T10:53:12.000Z</time>
      </trkpt>
      <trkpt lat="43.19274" lon="-0.63343">
        <ele>226</ele>
        <time>2018-09-30T10:53:13.000Z</time>
      </trkpt>
      <trkpt lat="43.1927" lon="-0.63337">
        <ele>226</ele>
        <time>2018-09-30T10:53:14.000Z</time>
      </trkpt>
      <trkpt lat="43.19266" lon="-0.63331">
        <ele>226</ele>
        <time>2018-09-30T10:53:15.000Z</time>
      </trkpt>
      <trkpt lat="43.19262" lon="-0.63324">
        <ele>226</ele>
        <time>2018-09-30T10:53:16.000Z</time>
      </trkpt>
      <trkpt lat="43.19258" lon="-0.63318">
        <ele>226</ele>
        <time>2018-09-30T10:53:17.000Z</time>
      </trkpt>
      <trkpt lat="43.19254" lon="-0.63312">
        <ele>226</ele>
        <time>2018-09-30T10:53:18.000Z</time>
      </trkpt>
      <trkpt lat="43.1925" lon="-0.63306">
        <ele>226.45038302196</ele>
        <time>2018-09-30T10:53:19.000Z</time>
      </trkpt>
      <trkpt lat="43.19246" lon="-0.63301">
        <ele>227</ele>
        <time>2018-09-30T10:53:20.000Z</time>
      </trkpt>
      <trkpt lat="43.19242" lon="-0.63295">
        <ele>227</ele>
        <time>2018-09-30T10:53:21.000Z</time>
      </trkpt>
      <trkpt lat="43.19238" lon="-0.63289">
        <ele>227</ele>
        <time>2018-09-30T10:53:22.000Z</time>
      </trkpt>
      <trkpt lat="43.19235" lon="-0.63283">
        <ele>227</ele>
        <time>2018-09-30T10:53:23.000Z</time>
      </trkpt>
      <trkpt lat="43.19231" lon="-0.63277">
        <ele>227.5900032</ele>
        <time>2018-09-30T10:53:24.000Z</time>
      </trkpt>
      <trkpt lat="43.19227" lon="-0.63271">
        <ele>228</ele>
        <time>2018-09-30T10:53:25.000Z</time>
      </trkpt>
      <trkpt lat="43.19223" lon="-0.63265">
        <ele>228</ele>
        <time>2018-09-30T10:53:26.000Z</time>
      </trkpt>
      <trkpt lat="43.19219" lon="-0.6326">
        <ele>228</ele>
        <time>2018-09-30T10:53:27.000Z</time>
      </trkpt>
      <trkpt lat="43.19215" lon="-0.63254">
        <ele>228</ele>
        <time>2018-09-30T10:53:28.000Z</time>
      </trkpt>
      <trkpt lat="43.19211" lon="-0.63248">
        <ele>228</ele>
        <time>2018-09-30T10:53:29.000Z</time>
      </trkpt>
      <trkpt lat="43.19207" lon="-0.63243">
        <ele>228</ele>
        <time>2018-09-30T10:53:30.000Z</time>
      </trkpt>
      <trkpt lat="43.19204" lon="-0.63237">
        <ele>228</ele>
        <time>2018-09-30T10:53:31.000Z</time>
      </trkpt>
      <trkpt lat="43.192" lon="-0.63232">
        <ele>228.5900032</ele>
        <time>2018-09-30T10:53:32.000Z</time>
      </trkpt>
      <trkpt lat="43.19196" lon="-0.63226">
        <ele>229</ele>
        <time>2018-09-30T10:53:33.000Z</time>
      </trkpt>
      <trkpt lat="43.19192" lon="-0.63221">
        <ele>229</ele>
        <time>2018-09-30T10:53:34.000Z</time>
      </trkpt>
      <trkpt lat="43.19189" lon="-0.63216">
        <ele>229</ele>
        <time>2018-09-30T10:53:35.000Z</time>
      </trkpt>
      <trkpt lat="43.19185" lon="-0.6321">
        <ele>229</ele>
        <time>2018-09-30T10:53:36.000Z</time>
      </trkpt>
      <trkpt lat="43.19181" lon="-0.63205">
        <ele>229</ele>
        <time>2018-09-30T10:53:37.000Z</time>
      </trkpt>
      <trkpt lat="43.19178" lon="-0.63199">
        <ele>229</ele>
        <time>2018-09-30T10:53:38.000Z</time>
      </trkpt>
      <trkpt lat="43.19174" lon="-0.63194">
        <ele>229</ele>
        <time>2018-09-30T10:53:39.000Z</time>
      </trkpt>
      <trkpt lat="43.1917" lon="-0.63189">
        <ele>229</ele>
        <time>2018-09-30T10:53:40.000Z</time>
      </trkpt>
      <trkpt lat="43.19166" lon="-0.63183">
        <ele>229</ele>
        <time>2018-09-30T10:53:41.000Z</time>
      </trkpt>
      <trkpt lat="43.19162" lon="-0.63178">
        <ele>229</ele>
        <time>2018-09-30T10:53:42.000Z</time>
      </trkpt>
      <trkpt lat="43.19158" lon="-0.63172">
        <ele>229</ele>
        <time>2018-09-30T10:53:43.000Z</time>
      </trkpt>
      <trkpt lat="43.19154" lon="-0.63166">
        <ele>229</ele>
        <time>2018-09-30T10:53:44.000Z</time>
      </trkpt>
      <trkpt lat="43.1915" lon="-0.6316">
        <ele>229</ele>
        <time>2018-09-30T10:53:45.000Z</time>
      </trkpt>
      <trkpt lat="43.19146" lon="-0.63154">
        <ele>229</ele>
        <time>2018-09-30T10:53:46.000Z</time>
      </trkpt>
      <trkpt lat="43.19142" lon="-0.63149">
        <ele>229</ele>
        <time>2018-09-30T10:53:47.000Z</time>
      </trkpt>
      <trkpt lat="43.19138" lon="-0.63143">
        <ele>229</ele>
        <time>2018-09-30T10:53:48.000Z</time>
      </trkpt>
      <trkpt lat="43.19134" lon="-0.63137">
        <ele>229</ele>
        <time>2018-09-30T10:53:49.000Z</time>
      </trkpt>
      <trkpt lat="43.1913" lon="-0.63132">
        <ele>229</ele>
        <time>2018-09-30T10:53:50.000Z</time>
      </trkpt>
      <trkpt lat="43.19126" lon="-0.63126">
        <ele>229</ele>
        <time>2018-09-30T10:53:51.000Z</time>
      </trkpt>
      <trkpt lat="43.19122" lon="-0.6312">
        <ele>229</ele>
        <time>2018-09-30T10:53:52.000Z</time>
      </trkpt>
      <trkpt lat="43.19118" lon="-0.63115">
        <ele>229</ele>
        <time>2018-09-30T10:53:53.000Z</time>
      </trkpt>
      <trkpt lat="43.19114" lon="-0.63109">
        <ele>229</ele>
        <time>2018-09-30T10:53:54.000Z</time>
      </trkpt>
      <trkpt lat="43.1911" lon="-0.63104">
        <ele>229</ele>
        <time>2018-09-30T10:53:55.000Z</time>
      </trkpt>
      <trkpt lat="43.19107" lon="-0.63099">
        <ele>229</ele>
        <time>2018-09-30T10:53:56.000Z</time>
      </trkpt>
      <trkpt lat="43.19103" lon="-0.63093">
        <ele>229</ele>
        <time>2018-09-30T10:53:57.000Z</time>
      </trkpt>
      <trkpt lat="43.19099" lon="-0.63088">
        <ele>229</ele>
        <time>2018-09-30T10:53:58.000Z</time>
      </trkpt>
      <trkpt lat="43.19096" lon="-0.63082">
        <ele>229</ele>
        <time>2018-09-30T10:53:59.000Z</time>
      </trkpt>
      <trkpt lat="43.19092" lon="-0.63077">
        <ele>229</ele>
        <time>2018-09-30T10:54:00.000Z</time>
      </trkpt>
      <trkpt lat="43.19088" lon="-0.63071">
        <ele>229</ele>
        <time>2018-09-30T10:54:01.000Z</time>
      </trkpt>
      <trkpt lat="43.19084" lon="-0.63065">
        <ele>229</ele>
        <time>2018-09-30T10:54:02.000Z</time>
      </trkpt>
      <trkpt lat="43.1908" lon="-0.63058">
        <ele>229</ele>
        <time>2018-09-30T10:54:03.000Z</time>
      </trkpt>
      <trkpt lat="43.19075" lon="-0.63051">
        <ele>229</ele>
        <time>2018-09-30T10:54:04.000Z</time>
      </trkpt>
      <trkpt lat="43.19071" lon="-0.63044">
        <ele>229.4142849306</ele>
        <time>2018-09-30T10:54:05.000Z</time>
      </trkpt>
      <trkpt lat="43.19067" lon="-0.63037">
        <ele>230</ele>
        <time>2018-09-30T10:54:06.000Z</time>
      </trkpt>
      <trkpt lat="43.19063" lon="-0.6303">
        <ele>230</ele>
        <time>2018-09-30T10:54:07.000Z</time>
      </trkpt>
      <trkpt lat="43.19059" lon="-0.63023">
        <ele>230</ele>
        <time>2018-09-30T10:54:08.000Z</time>
      </trkpt>
      <trkpt lat="43.19055" lon="-0.63017">
        <ele>230</ele>
        <time>2018-09-30T10:54:09.000Z</time>
      </trkpt>
      <trkpt lat="43.19051" lon="-0.63011">
        <ele>230</ele>
        <time>2018-09-30T10:54:10.000Z</time>
      </trkpt>
      <trkpt lat="43.19048" lon="-0.63005">
        <ele>230</ele>
        <time>2018-09-30T10:54:11.000Z</time>
      </trkpt>
      <trkpt lat="43.19044" lon="-0.62999">
        <ele>230</ele>
        <time>2018-09-30T10:54:12.000Z</time>
      </trkpt>
      <trkpt lat="43.19041" lon="-0.62994">
        <ele>230</ele>
        <time>2018-09-30T10:54:13.000Z</time>
      </trkpt>
      <trkpt lat="43.19038" lon="-0.62989">
        <ele>230</ele>
        <time>2018-09-30T10:54:14.000Z</time>
      </trkpt>
      <trkpt lat="43.19035" lon="-0.62984">
        <ele>230</ele>
        <time>2018-09-30T10:54:15.000Z</time>
      </trkpt>
      <trkpt lat="43.19032" lon="-0.62979">
        <ele>230</ele>
        <time>2018-09-30T10:54:16.000Z</time>
      </trkpt>
      <trkpt lat="43.1903" lon="-0.62975">
        <ele>230</ele>
        <time>2018-09-30T10:54:17.000Z</time>
      </trkpt>
      <trkpt lat="43.19029" lon="-0.6297">
        <ele>230</ele>
        <time>2018-09-30T10:54:18.000Z</time>
      </trkpt>
      <trkpt lat="43.1903" lon="-0.62961">
        <ele>230</ele>
        <time>2018-09-30T10:54:20.000Z</time>
      </trkpt>
      <trkpt lat="43.19032" lon="-0.62956">
        <ele>230</ele>
        <time>2018-09-30T10:54:21.000Z</time>
      </trkpt>
      <trkpt lat="43.19034" lon="-0.62951">
        <ele>230</ele>
        <time>2018-09-30T10:54:22.000Z</time>
      </trkpt>
      <trkpt lat="43.19036" lon="-0.62947">
        <ele>230</ele>
        <time>2018-09-30T10:54:23.000Z</time>
      </trkpt>
      <trkpt lat="43.19039" lon="-0.62942">
        <ele>230</ele>
        <time>2018-09-30T10:54:24.000Z</time>
      </trkpt>
      <trkpt lat="43.19042" lon="-0.62938">
        <ele>230</ele>
        <time>2018-09-30T10:54:25.000Z</time>
      </trkpt>
      <trkpt lat="43.19044" lon="-0.62933">
        <ele>230</ele>
        <time>2018-09-30T10:54:26.000Z</time>
      </trkpt>
      <trkpt lat="43.19047" lon="-0.62929">
        <ele>230</ele>
        <time>2018-09-30T10:54:27.000Z</time>
      </trkpt>
      <trkpt lat="43.1905" lon="-0.62924">
        <ele>230</ele>
        <time>2018-09-30T10:54:28.000Z</time>
      </trkpt>
      <trkpt lat="43.19052" lon="-0.62919">
        <ele>230</ele>
        <time>2018-09-30T10:54:29.000Z</time>
      </trkpt>
      <trkpt lat="43.19056" lon="-0.62914">
        <ele>230</ele>
        <time>2018-09-30T10:54:30.000Z</time>
      </trkpt>
      <trkpt lat="43.19059" lon="-0.62909">
        <ele>230</ele>
        <time>2018-09-30T10:54:31.000Z</time>
      </trkpt>
      <trkpt lat="43.19062" lon="-0.62903">
        <ele>230</ele>
        <time>2018-09-30T10:54:32.000Z</time>
      </trkpt>
      <trkpt lat="43.19065" lon="-0.62897">
        <ele>230</ele>
        <time>2018-09-30T10:54:33.000Z</time>
      </trkpt>
      <trkpt lat="43.19068" lon="-0.62892">
        <ele>230</ele>
        <time>2018-09-30T10:54:34.000Z</time>
      </trkpt>
      <trkpt lat="43.19071" lon="-0.62887">
        <ele>230</ele>
        <time>2018-09-30T10:54:35.000Z</time>
      </trkpt>
      <trkpt lat="43.19075" lon="-0.62881">
        <ele>230</ele>
        <time>2018-09-30T10:54:36.000Z</time>
      </trkpt>
      <trkpt lat="43.19078" lon="-0.62875">
        <ele>230</ele>
        <time>2018-09-30T10:54:37.000Z</time>
      </trkpt>
      <trkpt lat="43.19081" lon="-0.62869">
        <ele>230</ele>
        <time>2018-09-30T10:54:38.000Z</time>
      </trkpt>
      <trkpt lat="43.19085" lon="-0.62863">
        <ele>230</ele>
        <time>2018-09-30T10:54:39.000Z</time>
      </trkpt>
      <trkpt lat="43.19088" lon="-0.62857">
        <ele>230</ele>
        <time>2018-09-30T10:54:40.000Z</time>
      </trkpt>
      <trkpt lat="43.19092" lon="-0.62851">
        <ele>230</ele>
        <time>2018-09-30T10:54:41.000Z</time>
      </trkpt>
      <trkpt lat="43.19095" lon="-0.62845">
        <ele>230</ele>
        <time>2018-09-30T10:54:42.000Z</time>
      </trkpt>
      <trkpt lat="43.19098" lon="-0.62839">
        <ele>230</ele>
        <time>2018-09-30T10:54:43.000Z</time>
      </trkpt>
      <trkpt lat="43.19102" lon="-0.62833">
        <ele>230</ele>
        <time>2018-09-30T10:54:44.000Z</time>
      </trkpt>
      <trkpt lat="43.19105" lon="-0.62827">
        <ele>230</ele>
        <time>2018-09-30T10:54:45.000Z</time>
      </trkpt>
      <trkpt lat="43.19108" lon="-0.62821">
        <ele>230</ele>
        <time>2018-09-30T10:54:46.000Z</time>
      </trkpt>
      <trkpt lat="43.19112" lon="-0.62814">
        <ele>230</ele>
        <time>2018-09-30T10:54:47.000Z</time>
      </trkpt>
      <trkpt lat="43.19116" lon="-0.62808">
        <ele>230</ele>
        <time>2018-09-30T10:54:48.000Z</time>
      </trkpt>
      <trkpt lat="43.19119" lon="-0.62802">
        <ele>229.4099968</ele>
        <time>2018-09-30T10:54:49.000Z</time>
      </trkpt>
      <trkpt lat="43.19122" lon="-0.62796">
        <ele>229.57843088043</ele>
        <time>2018-09-30T10:54:50.000Z</time>
      </trkpt>
      <trkpt lat="43.19126" lon="-0.6279">
        <ele>230</ele>
        <time>2018-09-30T10:54:51.000Z</time>
      </trkpt>
      <trkpt lat="43.19129" lon="-0.62784">
        <ele>230</ele>
        <time>2018-09-30T10:54:52.000Z</time>
      </trkpt>
      <trkpt lat="43.19133" lon="-0.62777">
        <ele>230</ele>
        <time>2018-09-30T10:54:53.000Z</time>
      </trkpt>
      <trkpt lat="43.19136" lon="-0.62771">
        <ele>230</ele>
        <time>2018-09-30T10:54:54.000Z</time>
      </trkpt>
      <trkpt lat="43.1914" lon="-0.62765">
        <ele>230</ele>
        <time>2018-09-30T10:54:55.000Z</time>
      </trkpt>
      <trkpt lat="43.19143" lon="-0.62759">
        <ele>230</ele>
        <time>2018-09-30T10:54:56.000Z</time>
      </trkpt>
      <trkpt lat="43.19147" lon="-0.62753">
        <ele>230</ele>
        <time>2018-09-30T10:54:57.000Z</time>
      </trkpt>
      <trkpt lat="43.1915" lon="-0.62747">
        <ele>230</ele>
        <time>2018-09-30T10:54:58.000Z</time>
      </trkpt>
      <trkpt lat="43.19153" lon="-0.62742">
        <ele>230</ele>
        <time>2018-09-30T10:54:59.000Z</time>
      </trkpt>
      <trkpt lat="43.19157" lon="-0.62736">
        <ele>230</ele>
        <time>2018-09-30T10:55:00.000Z</time>
      </trkpt>
      <trkpt lat="43.1916" lon="-0.6273">
        <ele>229.4099968</ele>
        <time>2018-09-30T10:55:01.000Z</time>
      </trkpt>
      <trkpt lat="43.19163" lon="-0.62724">
        <ele>229</ele>
        <time>2018-09-30T10:55:02.000Z</time>
      </trkpt>
      <trkpt lat="43.19166" lon="-0.62719">
        <ele>229</ele>
        <time>2018-09-30T10:55:03.000Z</time>
      </trkpt>
      <trkpt lat="43.19169" lon="-0.62713">
        <ele>229</ele>
        <time>2018-09-30T10:55:04.000Z</time>
      </trkpt>
      <trkpt lat="43.19173" lon="-0.62707">
        <ele>229</ele>
        <time>2018-09-30T10:55:05.000Z</time>
      </trkpt>
      <trkpt lat="43.19176" lon="-0.62701">
        <ele>229</ele>
        <time>2018-09-30T10:55:06.000Z</time>
      </trkpt>
      <trkpt lat="43.19179" lon="-0.62695">
        <ele>229</ele>
        <time>2018-09-30T10:55:07.000Z</time>
      </trkpt>
      <trkpt lat="43.19182" lon="-0.62689">
        <ele>229</ele>
        <time>2018-09-30T10:55:08.000Z</time>
      </trkpt>
      <trkpt lat="43.19185" lon="-0.62683">
        <ele>229</ele>
        <time>2018-09-30T10:55:09.000Z</time>
      </trkpt>
      <trkpt lat="43.19188" lon="-0.62678">
        <ele>229</ele>
        <time>2018-09-30T10:55:10.000Z</time>
      </trkpt>
      <trkpt lat="43.19191" lon="-0.62672">
        <ele>229</ele>
        <time>2018-09-30T10:55:11.000Z</time>
      </trkpt>
      <trkpt lat="43.19193" lon="-0.62665">
        <ele>229</ele>
        <time>2018-09-30T10:55:12.000Z</time>
      </trkpt>
      <trkpt lat="43.19195" lon="-0.62659">
        <ele>229</ele>
        <time>2018-09-30T10:55:13.000Z</time>
      </trkpt>
      <trkpt lat="43.19197" lon="-0.62652">
        <ele>229</ele>
        <time>2018-09-30T10:55:14.000Z</time>
      </trkpt>
      <trkpt lat="43.19198" lon="-0.62645">
        <ele>229</ele>
        <time>2018-09-30T10:55:15.000Z</time>
      </trkpt>
      <trkpt lat="43.192" lon="-0.62639">
        <ele>229</ele>
        <time>2018-09-30T10:55:16.000Z</time>
      </trkpt>
      <trkpt lat="43.19203" lon="-0.62633">
        <ele>229</ele>
        <time>2018-09-30T10:55:17.000Z</time>
      </trkpt>
      <trkpt lat="43.19205" lon="-0.62627">
        <ele>229</ele>
        <time>2018-09-30T10:55:18.000Z</time>
      </trkpt>
      <trkpt lat="43.19208" lon="-0.62622">
        <ele>229.5900032</ele>
        <time>2018-09-30T10:55:19.000Z</time>
      </trkpt>
      <trkpt lat="43.19211" lon="-0.62616">
        <ele>230</ele>
        <time>2018-09-30T10:55:20.000Z</time>
      </trkpt>
      <trkpt lat="43.19214" lon="-0.6261">
        <ele>230</ele>
        <time>2018-09-30T10:55:21.000Z</time>
      </trkpt>
      <trkpt lat="43.19216" lon="-0.62604">
        <ele>230</ele>
        <time>2018-09-30T10:55:22.000Z</time>
      </trkpt>
      <trkpt lat="43.19218" lon="-0.62598">
        <ele>230</ele>
        <time>2018-09-30T10:55:23.000Z</time>
      </trkpt>
      <trkpt lat="43.1922" lon="-0.62592">
        <ele>230</ele>
        <time>2018-09-30T10:55:24.000Z</time>
      </trkpt>
      <trkpt lat="43.19222" lon="-0.62586">
        <ele>230</ele>
        <time>2018-09-30T10:55:25.000Z</time>
      </trkpt>
      <trkpt lat="43.19225" lon="-0.6258">
        <ele>230</ele>
        <time>2018-09-30T10:55:26.000Z</time>
      </trkpt>
      <trkpt lat="43.19227" lon="-0.62574">
        <ele>230</ele>
        <time>2018-09-30T10:55:27.000Z</time>
      </trkpt>
      <trkpt lat="43.19229" lon="-0.62567">
        <ele>230</ele>
        <time>2018-09-30T10:55:28.000Z</time>
      </trkpt>
      <trkpt lat="43.19232" lon="-0.6256">
        <ele>230</ele>
        <time>2018-09-30T10:55:29.000Z</time>
      </trkpt>
      <trkpt lat="43.19234" lon="-0.62554">
        <ele>230</ele>
        <time>2018-09-30T10:55:30.000Z</time>
      </trkpt>
      <trkpt lat="43.19236" lon="-0.62547">
        <ele>230</ele>
        <time>2018-09-30T10:55:31.000Z</time>
      </trkpt>
      <trkpt lat="43.19239" lon="-0.62541">
        <ele>230</ele>
        <time>2018-09-30T10:55:32.000Z</time>
      </trkpt>
      <trkpt lat="43.19241" lon="-0.62534">
        <ele>229.4099968</ele>
        <time>2018-09-30T10:55:33.000Z</time>
      </trkpt>
      <trkpt lat="43.19243" lon="-0.62528">
        <ele>229</ele>
        <time>2018-09-30T10:55:34.000Z</time>
      </trkpt>
      <trkpt lat="43.19245" lon="-0.62522">
        <ele>229</ele>
        <time>2018-09-30T10:55:35.000Z</time>
      </trkpt>
      <trkpt lat="43.19247" lon="-0.62515">
        <ele>229</ele>
        <time>2018-09-30T10:55:36.000Z</time>
      </trkpt>
      <trkpt lat="43.19249" lon="-0.6251">
        <ele>229.5900032</ele>
        <time>2018-09-30T10:55:37.000Z</time>
      </trkpt>
      <trkpt lat="43.19251" lon="-0.62504">
        <ele>230</ele>
        <time>2018-09-30T10:55:38.000Z</time>
      </trkpt>
      <trkpt lat="43.19253" lon="-0.62498">
        <ele>230</ele>
        <time>2018-09-30T10:55:39.000Z</time>
      </trkpt>
      <trkpt lat="43.19255" lon="-0.62493">
        <ele>230</ele>
        <time>2018-09-30T10:55:40.000Z</time>
      </trkpt>
      <trkpt lat="43.19258" lon="-0.62488">
        <ele>230</ele>
        <time>2018-09-30T10:55:41.000Z</time>
      </trkpt>
      <trkpt lat="43.1926" lon="-0.62482">
        <ele>230</ele>
        <time>2018-09-30T10:55:42.000Z</time>
      </trkpt>
      <trkpt lat="43.19262" lon="-0.62476">
        <ele>230</ele>
        <time>2018-09-30T10:55:43.000Z</time>
      </trkpt>
      <trkpt lat="43.19263" lon="-0.62469">
        <ele>230</ele>
        <time>2018-09-30T10:55:44.000Z</time>
      </trkpt>
      <trkpt lat="43.19265" lon="-0.62463">
        <ele>230</ele>
        <time>2018-09-30T10:55:45.000Z</time>
      </trkpt>
      <trkpt lat="43.19267" lon="-0.62456">
        <ele>230</ele>
        <time>2018-09-30T10:55:46.000Z</time>
      </trkpt>
      <trkpt lat="43.19269" lon="-0.6245">
        <ele>230</ele>
        <time>2018-09-30T10:55:47.000Z</time>
      </trkpt>
      <trkpt lat="43.19271" lon="-0.62444">
        <ele>230</ele>
        <time>2018-09-30T10:55:48.000Z</time>
      </trkpt>
      <trkpt lat="43.19273" lon="-0.62438">
        <ele>230</ele>
        <time>2018-09-30T10:55:49.000Z</time>
      </trkpt>
      <trkpt lat="43.19276" lon="-0.62431">
        <ele>230</ele>
        <time>2018-09-30T10:55:50.000Z</time>
      </trkpt>
      <trkpt lat="43.19278" lon="-0.62425">
        <ele>230</ele>
        <time>2018-09-30T10:55:51.000Z</time>
      </trkpt>
      <trkpt lat="43.1928" lon="-0.62419">
        <ele>230</ele>
        <time>2018-09-30T10:55:52.000Z</time>
      </trkpt>
      <trkpt lat="43.19282" lon="-0.62412">
        <ele>230</ele>
        <time>2018-09-30T10:55:53.000Z</time>
      </trkpt>
      <trkpt lat="43.19285" lon="-0.62405">
        <ele>230</ele>
        <time>2018-09-30T10:55:54.000Z</time>
      </trkpt>
      <trkpt lat="43.19287" lon="-0.62399">
        <ele>230</ele>
        <time>2018-09-30T10:55:55.000Z</time>
      </trkpt>
      <trkpt lat="43.19289" lon="-0.62392">
        <ele>230</ele>
        <time>2018-09-30T10:55:56.000Z</time>
      </trkpt>
      <trkpt lat="43.19292" lon="-0.62385">
        <ele>230</ele>
        <time>2018-09-30T10:55:57.000Z</time>
      </trkpt>
      <trkpt lat="43.19294" lon="-0.62379">
        <ele>230</ele>
        <time>2018-09-30T10:55:58.000Z</time>
      </trkpt>
      <trkpt lat="43.19296" lon="-0.62372">
        <ele>230</ele>
        <time>2018-09-30T10:55:59.000Z</time>
      </trkpt>
      <trkpt lat="43.19299" lon="-0.62365">
        <ele>230</ele>
        <time>2018-09-30T10:56:00.000Z</time>
      </trkpt>
      <trkpt lat="43.19302" lon="-0.62359">
        <ele>230</ele>
        <time>2018-09-30T10:56:01.000Z</time>
      </trkpt>
      <trkpt lat="43.19304" lon="-0.62352">
        <ele>230</ele>
        <time>2018-09-30T10:56:02.000Z</time>
      </trkpt>
      <trkpt lat="43.19307" lon="-0.62345">
        <ele>230</ele>
        <time>2018-09-30T10:56:03.000Z</time>
      </trkpt>
      <trkpt lat="43.19309" lon="-0.62338">
        <ele>230</ele>
        <time>2018-09-30T10:56:04.000Z</time>
      </trkpt>
      <trkpt lat="43.19312" lon="-0.62332">
        <ele>230</ele>
        <time>2018-09-30T10:56:05.000Z</time>
      </trkpt>
      <trkpt lat="43.19314" lon="-0.62325">
        <ele>230</ele>
        <time>2018-09-30T10:56:06.000Z</time>
      </trkpt>
      <trkpt lat="43.19317" lon="-0.62318">
        <ele>230</ele>
        <time>2018-09-30T10:56:07.000Z</time>
      </trkpt>
      <trkpt lat="43.19319" lon="-0.62311">
        <ele>230.44094377085</ele>
        <time>2018-09-30T10:56:08.000Z</time>
      </trkpt>
      <trkpt lat="43.19322" lon="-0.62304">
        <ele>231</ele>
        <time>2018-09-30T10:56:09.000Z</time>
      </trkpt>
      <trkpt lat="43.19324" lon="-0.62297">
        <ele>231</ele>
        <time>2018-09-30T10:56:10.000Z</time>
      </trkpt>
      <trkpt lat="43.19326" lon="-0.6229">
        <ele>231</ele>
        <time>2018-09-30T10:56:11.000Z</time>
      </trkpt>
      <trkpt lat="43.19328" lon="-0.62283">
        <ele>230.4099968</ele>
        <time>2018-09-30T10:56:12.000Z</time>
      </trkpt>
      <trkpt lat="43.19331" lon="-0.62277">
        <ele>230</ele>
        <time>2018-09-30T10:56:13.000Z</time>
      </trkpt>
      <trkpt lat="43.19333" lon="-0.6227">
        <ele>230</ele>
        <time>2018-09-30T10:56:14.000Z</time>
      </trkpt>
      <trkpt lat="43.19336" lon="-0.62263">
        <ele>230</ele>
        <time>2018-09-30T10:56:15.000Z</time>
      </trkpt>
      <trkpt lat="43.19338" lon="-0.62257">
        <ele>230</ele>
        <time>2018-09-30T10:56:16.000Z</time>
      </trkpt>
      <trkpt lat="43.1934" lon="-0.6225">
        <ele>230</ele>
        <time>2018-09-30T10:56:17.000Z</time>
      </trkpt>
      <trkpt lat="43.19343" lon="-0.62244">
        <ele>230</ele>
        <time>2018-09-30T10:56:18.000Z</time>
      </trkpt>
      <trkpt lat="43.19345" lon="-0.62237">
        <ele>230</ele>
        <time>2018-09-30T10:56:19.000Z</time>
      </trkpt>
      <trkpt lat="43.19347" lon="-0.62229">
        <ele>230</ele>
        <time>2018-09-30T10:56:20.000Z</time>
      </trkpt>
      <trkpt lat="43.19349" lon="-0.62222">
        <ele>230.5900032</ele>
        <time>2018-09-30T10:56:21.000Z</time>
      </trkpt>
      <trkpt lat="43.19352" lon="-0.62215">
        <ele>231</ele>
        <time>2018-09-30T10:56:22.000Z</time>
      </trkpt>
      <trkpt lat="43.19354" lon="-0.62208">
        <ele>231</ele>
        <time>2018-09-30T10:56:23.000Z</time>
      </trkpt>
      <trkpt lat="43.19356" lon="-0.62201">
        <ele>231</ele>
        <time>2018-09-30T10:56:24.000Z</time>
      </trkpt>
      <trkpt lat="43.19359" lon="-0.62194">
        <ele>231</ele>
        <time>2018-09-30T10:56:25.000Z</time>
      </trkpt>
      <trkpt lat="43.19361" lon="-0.62187">
        <ele>231</ele>
        <time>2018-09-30T10:56:26.000Z</time>
      </trkpt>
      <trkpt lat="43.19363" lon="-0.6218">
        <ele>231</ele>
        <time>2018-09-30T10:56:27.000Z</time>
      </trkpt>
      <trkpt lat="43.19365" lon="-0.62173">
        <ele>231</ele>
        <time>2018-09-30T10:56:28.000Z</time>
      </trkpt>
      <trkpt lat="43.19368" lon="-0.62166">
        <ele>230</ele>
        <time>2018-09-30T10:56:29.000Z</time>
      </trkpt>
      <trkpt lat="43.1937" lon="-0.62159">
        <ele>230</ele>
        <time>2018-09-30T10:56:30.000Z</time>
      </trkpt>
      <trkpt lat="43.19372" lon="-0.62152">
        <ele>230.58415603178</ele>
        <time>2018-09-30T10:56:31.000Z</time>
      </trkpt>
      <trkpt lat="43.19375" lon="-0.62145">
        <ele>231</ele>
        <time>2018-09-30T10:56:32.000Z</time>
      </trkpt>
      <trkpt lat="43.19377" lon="-0.62137">
        <ele>231</ele>
        <time>2018-09-30T10:56:33.000Z</time>
      </trkpt>
      <trkpt lat="43.19379" lon="-0.62131">
        <ele>231</ele>
        <time>2018-09-30T10:56:34.000Z</time>
      </trkpt>
      <trkpt lat="43.19382" lon="-0.62124">
        <ele>231</ele>
        <time>2018-09-30T10:56:35.000Z</time>
      </trkpt>
      <trkpt lat="43.19384" lon="-0.62117">
        <ele>230.55302787879</ele>
        <time>2018-09-30T10:56:36.000Z</time>
      </trkpt>
      <trkpt lat="43.19386" lon="-0.6211">
        <ele>230</ele>
        <time>2018-09-30T10:56:37.000Z</time>
      </trkpt>
      <trkpt lat="43.19387" lon="-0.62104">
        <ele>230</ele>
        <time>2018-09-30T10:56:38.000Z</time>
      </trkpt>
      <trkpt lat="43.19389" lon="-0.62098">
        <ele>230</ele>
        <time>2018-09-30T10:56:39.000Z</time>
      </trkpt>
      <trkpt lat="43.19389" lon="-0.62093">
        <ele>229.4099968</ele>
        <time>2018-09-30T10:56:40.000Z</time>
      </trkpt>
      <trkpt lat="43.19388" lon="-0.62084">
        <ele>229</ele>
        <time>2018-09-30T10:56:42.000Z</time>
      </trkpt>
      <trkpt lat="43.19382" lon="-0.62079">
        <ele>229</ele>
        <time>2018-09-30T10:56:44.000Z</time>
      </trkpt>
      <trkpt lat="43.19376" lon="-0.62073">
        <ele>229</ele>
        <time>2018-09-30T10:56:46.000Z</time>
      </trkpt>
      <trkpt lat="43.19373" lon="-0.6207">
        <ele>229</ele>
        <time>2018-09-30T10:56:47.000Z</time>
      </trkpt>
      <trkpt lat="43.1937" lon="-0.62067">
        <ele>229</ele>
        <time>2018-09-30T10:56:48.000Z</time>
      </trkpt>
      <trkpt lat="43.19367" lon="-0.62063">
        <ele>229</ele>
        <time>2018-09-30T10:56:49.000Z</time>
      </trkpt>
      <trkpt lat="43.19363" lon="-0.62059">
        <ele>229.43056</ele>
        <time>2018-09-30T10:56:50.000Z</time>
      </trkpt>
      <trkpt lat="43.1936" lon="-0.62056">
        <ele>230</ele>
        <time>2018-09-30T10:56:51.000Z</time>
      </trkpt>
      <trkpt lat="43.19356" lon="-0.62052">
        <ele>230</ele>
        <time>2018-09-30T10:56:52.000Z</time>
      </trkpt>
      <trkpt lat="43.19352" lon="-0.62047">
        <ele>230</ele>
        <time>2018-09-30T10:56:53.000Z</time>
      </trkpt>
      <trkpt lat="43.19348" lon="-0.62044">
        <ele>230</ele>
        <time>2018-09-30T10:56:54.000Z</time>
      </trkpt>
      <trkpt lat="43.19344" lon="-0.6204">
        <ele>230</ele>
        <time>2018-09-30T10:56:55.000Z</time>
      </trkpt>
      <trkpt lat="43.1934" lon="-0.62036">
        <ele>230.5900032</ele>
        <time>2018-09-30T10:56:56.000Z</time>
      </trkpt>
      <trkpt lat="43.19336" lon="-0.62032">
        <ele>231</ele>
        <time>2018-09-30T10:56:57.000Z</time>
      </trkpt>
      <trkpt lat="43.19332" lon="-0.62028">
        <ele>231</ele>
        <time>2018-09-30T10:56:58.000Z</time>
      </trkpt>
      <trkpt lat="43.19328" lon="-0.62024">
        <ele>231</ele>
        <time>2018-09-30T10:56:59.000Z</time>
      </trkpt>
      <trkpt lat="43.19325" lon="-0.6202">
        <ele>231</ele>
        <time>2018-09-30T10:57:00.000Z</time>
      </trkpt>
      <trkpt lat="43.19322" lon="-0.62017">
        <ele>231</ele>
        <time>2018-09-30T10:57:01.000Z</time>
      </trkpt>
      <trkpt lat="43.19318" lon="-0.62013">
        <ele>231</ele>
        <time>2018-09-30T10:57:02.000Z</time>
      </trkpt>
      <trkpt lat="43.19315" lon="-0.62009">
        <ele>231</ele>
        <time>2018-09-30T10:57:03.000Z</time>
      </trkpt>
      <trkpt lat="43.19311" lon="-0.62005">
        <ele>231</ele>
        <time>2018-09-30T10:57:04.000Z</time>
      </trkpt>
      <trkpt lat="43.19308" lon="-0.62002">
        <ele>231</ele>
        <time>2018-09-30T10:57:05.000Z</time>
      </trkpt>
      <trkpt lat="43.19305" lon="-0.61999">
        <ele>231</ele>
        <time>2018-09-30T10:57:06.000Z</time>
      </trkpt>
      <trkpt lat="43.19302" lon="-0.61995">
        <ele>231</ele>
        <time>2018-09-30T10:57:07.000Z</time>
      </trkpt>
      <trkpt lat="43.19296" lon="-0.61989">
        <ele>231</ele>
        <time>2018-09-30T10:57:09.000Z</time>
      </trkpt>
      <trkpt lat="43.1929" lon="-0.61984">
        <ele>231</ele>
        <time>2018-09-30T10:57:11.000Z</time>
      </trkpt>
      <trkpt lat="43.19285" lon="-0.6198">
        <ele>231</ele>
        <time>2018-09-30T10:57:13.000Z</time>
      </trkpt>
      <trkpt lat="43.1928" lon="-0.6198">
        <ele>231</ele>
        <time>2018-09-30T10:57:15.000Z</time>
      </trkpt>
      <trkpt lat="43.19277" lon="-0.61979">
        <ele>229</ele>
        <time>2018-09-30T10:57:21.000Z</time>
      </trkpt>
      <trkpt lat="43.19273" lon="-0.61981">
        <ele>230</ele>
        <time>2018-09-30T10:57:54.000Z</time>
      </trkpt>
      <trkpt lat="43.19274" lon="-0.61982">
        <ele>231</ele>
        <time>2018-09-30T10:58:39.000Z</time>
      </trkpt>
    </trkseg>
  </trk>
</gpx>